<?xml version="1.0" encoding="UTF-8" standalone="no" ?>
<gpx xmlns="http://www.topografix.com/GPX/1/1" xmlns:xsi="http://www.w3.org/2001/XMLSchema-instance" xsi:schemaLocation="http://www.topografix.com/GPX/1/1 http://www.topografix.com/GPX/1/1/gpx.xsd" version="1.1" creator="VisuGPX - https://www.visugpx.com">
  <metadata>
    <name>Sortie CID 23/06/18 Château Lambert</name>
    <desc><![CDATA[Rando proposée par Jean et Sylviane à Château Lambert: 9.5 Km et 360 m de dénivellé]]></desc>
  </metadata>
  <trk>
    <name><![CDATA[20180624084102-9okp8]]></name>
    <trkseg>
      <trkpt lat="47.85621" lon="6.75662">
        <ele>688</ele>
        <time>2018-06-23T07:19:18.000Z</time>
      </trkpt>
      <trkpt lat="47.85621" lon="6.75662">
        <ele>688</ele>
        <time>2018-06-23T07:19:19.000Z</time>
      </trkpt>
      <trkpt lat="47.85621" lon="6.75662">
        <ele>688</ele>
        <time>2018-06-23T07:19:20.000Z</time>
      </trkpt>
      <trkpt lat="47.8562" lon="6.75662">
        <ele>688</ele>
        <time>2018-06-23T07:19:21.000Z</time>
      </trkpt>
      <trkpt lat="47.8562" lon="6.75662">
        <ele>688</ele>
        <time>2018-06-23T07:19:22.000Z</time>
      </trkpt>
      <trkpt lat="47.8562" lon="6.75662">
        <ele>688</ele>
        <time>2018-06-23T07:19:23.000Z</time>
      </trkpt>
      <trkpt lat="47.85621" lon="6.75662">
        <ele>688</ele>
        <time>2018-06-23T07:19:24.000Z</time>
      </trkpt>
      <trkpt lat="47.8562" lon="6.75662">
        <ele>688</ele>
        <time>2018-06-23T07:19:25.000Z</time>
      </trkpt>
      <trkpt lat="47.8562" lon="6.75662">
        <ele>688</ele>
        <time>2018-06-23T07:19:26.000Z</time>
      </trkpt>
      <trkpt lat="47.8562" lon="6.75662">
        <ele>688</ele>
        <time>2018-06-23T07:19:27.000Z</time>
      </trkpt>
      <trkpt lat="47.8562" lon="6.75662">
        <ele>688</ele>
        <time>2018-06-23T07:19:28.000Z</time>
      </trkpt>
      <trkpt lat="47.8562" lon="6.75662">
        <ele>688</ele>
        <time>2018-06-23T07:19:29.000Z</time>
      </trkpt>
      <trkpt lat="47.8562" lon="6.75662">
        <ele>688</ele>
        <time>2018-06-23T07:19:30.000Z</time>
      </trkpt>
      <trkpt lat="47.8562" lon="6.75662">
        <ele>688</ele>
        <time>2018-06-23T07:19:31.000Z</time>
      </trkpt>
      <trkpt lat="47.8562" lon="6.75662">
        <ele>688</ele>
        <time>2018-06-23T07:19:32.000Z</time>
      </trkpt>
      <trkpt lat="47.8562" lon="6.75662">
        <ele>688</ele>
        <time>2018-06-23T07:19:33.000Z</time>
      </trkpt>
      <trkpt lat="47.8562" lon="6.75662">
        <ele>688</ele>
        <time>2018-06-23T07:19:34.000Z</time>
      </trkpt>
      <trkpt lat="47.8562" lon="6.75662">
        <ele>688</ele>
        <time>2018-06-23T07:19:35.000Z</time>
      </trkpt>
      <trkpt lat="47.8562" lon="6.75662">
        <ele>688</ele>
        <time>2018-06-23T07:19:36.000Z</time>
      </trkpt>
      <trkpt lat="47.8562" lon="6.75662">
        <ele>688</ele>
        <time>2018-06-23T07:19:37.000Z</time>
      </trkpt>
      <trkpt lat="47.8562" lon="6.75663">
        <ele>688</ele>
        <time>2018-06-23T07:19:38.000Z</time>
      </trkpt>
      <trkpt lat="47.8562" lon="6.75663">
        <ele>688</ele>
        <time>2018-06-23T07:19:39.000Z</time>
      </trkpt>
      <trkpt lat="47.8562" lon="6.75663">
        <ele>688</ele>
        <time>2018-06-23T07:19:40.000Z</time>
      </trkpt>
      <trkpt lat="47.8562" lon="6.75663">
        <ele>688</ele>
        <time>2018-06-23T07:19:41.000Z</time>
      </trkpt>
      <trkpt lat="47.8562" lon="6.75663">
        <ele>688</ele>
        <time>2018-06-23T07:19:42.000Z</time>
      </trkpt>
      <trkpt lat="47.8562" lon="6.75663">
        <ele>688</ele>
        <time>2018-06-23T07:19:43.000Z</time>
      </trkpt>
      <trkpt lat="47.8562" lon="6.75663">
        <ele>688</ele>
        <time>2018-06-23T07:19:44.000Z</time>
      </trkpt>
      <trkpt lat="47.8562" lon="6.75663">
        <ele>688</ele>
        <time>2018-06-23T07:19:45.000Z</time>
      </trkpt>
      <trkpt lat="47.8562" lon="6.75663">
        <ele>688</ele>
        <time>2018-06-23T07:19:46.000Z</time>
      </trkpt>
      <trkpt lat="47.8562" lon="6.75663">
        <ele>688</ele>
        <time>2018-06-23T07:19:47.000Z</time>
      </trkpt>
      <trkpt lat="47.8562" lon="6.75663">
        <ele>688</ele>
        <time>2018-06-23T07:19:48.000Z</time>
      </trkpt>
      <trkpt lat="47.85619" lon="6.75662">
        <ele>688</ele>
        <time>2018-06-23T07:19:49.000Z</time>
      </trkpt>
      <trkpt lat="47.85619" lon="6.75662">
        <ele>688</ele>
        <time>2018-06-23T07:19:50.000Z</time>
      </trkpt>
      <trkpt lat="47.8562" lon="6.75661">
        <ele>688</ele>
        <time>2018-06-23T07:19:51.000Z</time>
      </trkpt>
      <trkpt lat="47.8562" lon="6.7566">
        <ele>688</ele>
        <time>2018-06-23T07:19:52.000Z</time>
      </trkpt>
      <trkpt lat="47.85621" lon="6.75659">
        <ele>688</ele>
        <time>2018-06-23T07:19:53.000Z</time>
      </trkpt>
      <trkpt lat="47.85621" lon="6.75659">
        <ele>688</ele>
        <time>2018-06-23T07:19:54.000Z</time>
      </trkpt>
      <trkpt lat="47.85622" lon="6.75659">
        <ele>688</ele>
        <time>2018-06-23T07:19:55.000Z</time>
      </trkpt>
      <trkpt lat="47.85622" lon="6.75658">
        <ele>688</ele>
        <time>2018-06-23T07:19:56.000Z</time>
      </trkpt>
      <trkpt lat="47.85622" lon="6.75658">
        <ele>688</ele>
        <time>2018-06-23T07:19:57.000Z</time>
      </trkpt>
      <trkpt lat="47.85623" lon="6.75658">
        <ele>688</ele>
        <time>2018-06-23T07:19:58.000Z</time>
      </trkpt>
      <trkpt lat="47.85623" lon="6.75658">
        <ele>688</ele>
        <time>2018-06-23T07:19:59.000Z</time>
      </trkpt>
      <trkpt lat="47.85623" lon="6.75658">
        <ele>688</ele>
        <time>2018-06-23T07:20:00.000Z</time>
      </trkpt>
      <trkpt lat="47.85623" lon="6.75658">
        <ele>688</ele>
        <time>2018-06-23T07:20:01.000Z</time>
      </trkpt>
      <trkpt lat="47.85623" lon="6.75658">
        <ele>688</ele>
        <time>2018-06-23T07:20:02.000Z</time>
      </trkpt>
      <trkpt lat="47.85623" lon="6.75658">
        <ele>688</ele>
        <time>2018-06-23T07:20:03.000Z</time>
      </trkpt>
      <trkpt lat="47.85623" lon="6.75658">
        <ele>688</ele>
        <time>2018-06-23T07:20:04.000Z</time>
      </trkpt>
      <trkpt lat="47.85623" lon="6.75658">
        <ele>688</ele>
        <time>2018-06-23T07:20:05.000Z</time>
      </trkpt>
      <trkpt lat="47.85623" lon="6.75658">
        <ele>688</ele>
        <time>2018-06-23T07:20:06.000Z</time>
      </trkpt>
      <trkpt lat="47.85623" lon="6.75658">
        <ele>688</ele>
        <time>2018-06-23T07:20:07.000Z</time>
      </trkpt>
      <trkpt lat="47.85623" lon="6.75658">
        <ele>688</ele>
        <time>2018-06-23T07:20:08.000Z</time>
      </trkpt>
      <trkpt lat="47.85623" lon="6.75658">
        <ele>688</ele>
        <time>2018-06-23T07:20:09.000Z</time>
      </trkpt>
      <trkpt lat="47.85623" lon="6.75658">
        <ele>688</ele>
        <time>2018-06-23T07:20:10.000Z</time>
      </trkpt>
      <trkpt lat="47.85624" lon="6.75658">
        <ele>688</ele>
        <time>2018-06-23T07:20:11.000Z</time>
      </trkpt>
      <trkpt lat="47.85625" lon="6.75658">
        <ele>688</ele>
        <time>2018-06-23T07:20:12.000Z</time>
      </trkpt>
      <trkpt lat="47.85625" lon="6.75658">
        <ele>688</ele>
        <time>2018-06-23T07:20:13.000Z</time>
      </trkpt>
      <trkpt lat="47.85626" lon="6.75658">
        <ele>688</ele>
        <time>2018-06-23T07:20:14.000Z</time>
      </trkpt>
      <trkpt lat="47.85627" lon="6.75658">
        <ele>688</ele>
        <time>2018-06-23T07:20:15.000Z</time>
      </trkpt>
      <trkpt lat="47.85628" lon="6.75658">
        <ele>688</ele>
        <time>2018-06-23T07:20:16.000Z</time>
      </trkpt>
      <trkpt lat="47.85629" lon="6.75659">
        <ele>688</ele>
        <time>2018-06-23T07:20:17.000Z</time>
      </trkpt>
      <trkpt lat="47.8563" lon="6.75658">
        <ele>688</ele>
        <time>2018-06-23T07:20:18.000Z</time>
      </trkpt>
      <trkpt lat="47.85631" lon="6.75658">
        <ele>688</ele>
        <time>2018-06-23T07:20:19.000Z</time>
      </trkpt>
      <trkpt lat="47.85632" lon="6.75658">
        <ele>688</ele>
        <time>2018-06-23T07:20:20.000Z</time>
      </trkpt>
      <trkpt lat="47.85633" lon="6.75658">
        <ele>688</ele>
        <time>2018-06-23T07:20:21.000Z</time>
      </trkpt>
      <trkpt lat="47.85634" lon="6.75658">
        <ele>689</ele>
        <time>2018-06-23T07:20:22.000Z</time>
      </trkpt>
      <trkpt lat="47.85635" lon="6.75658">
        <ele>689</ele>
        <time>2018-06-23T07:20:23.000Z</time>
      </trkpt>
      <trkpt lat="47.85636" lon="6.75658">
        <ele>689</ele>
        <time>2018-06-23T07:20:24.000Z</time>
      </trkpt>
      <trkpt lat="47.85637" lon="6.75657">
        <ele>689</ele>
        <time>2018-06-23T07:20:25.000Z</time>
      </trkpt>
      <trkpt lat="47.85637" lon="6.75656">
        <ele>689</ele>
        <time>2018-06-23T07:20:26.000Z</time>
      </trkpt>
      <trkpt lat="47.85638" lon="6.75656">
        <ele>689</ele>
        <time>2018-06-23T07:20:27.000Z</time>
      </trkpt>
      <trkpt lat="47.85639" lon="6.75655">
        <ele>689</ele>
        <time>2018-06-23T07:20:28.000Z</time>
      </trkpt>
      <trkpt lat="47.8564" lon="6.75654">
        <ele>689</ele>
        <time>2018-06-23T07:20:29.000Z</time>
      </trkpt>
      <trkpt lat="47.85641" lon="6.75654">
        <ele>689</ele>
        <time>2018-06-23T07:20:30.000Z</time>
      </trkpt>
      <trkpt lat="47.85642" lon="6.75653">
        <ele>689</ele>
        <time>2018-06-23T07:20:31.000Z</time>
      </trkpt>
      <trkpt lat="47.85643" lon="6.75652">
        <ele>689</ele>
        <time>2018-06-23T07:20:32.000Z</time>
      </trkpt>
      <trkpt lat="47.85644" lon="6.75651">
        <ele>689</ele>
        <time>2018-06-23T07:20:33.000Z</time>
      </trkpt>
      <trkpt lat="47.85645" lon="6.7565">
        <ele>689</ele>
        <time>2018-06-23T07:20:34.000Z</time>
      </trkpt>
      <trkpt lat="47.85646" lon="6.7565">
        <ele>689</ele>
        <time>2018-06-23T07:20:35.000Z</time>
      </trkpt>
      <trkpt lat="47.85647" lon="6.75649">
        <ele>689</ele>
        <time>2018-06-23T07:20:36.000Z</time>
      </trkpt>
      <trkpt lat="47.85648" lon="6.75649">
        <ele>689</ele>
        <time>2018-06-23T07:20:37.000Z</time>
      </trkpt>
      <trkpt lat="47.85649" lon="6.75648">
        <ele>689</ele>
        <time>2018-06-23T07:20:38.000Z</time>
      </trkpt>
      <trkpt lat="47.8565" lon="6.75648">
        <ele>689</ele>
        <time>2018-06-23T07:20:39.000Z</time>
      </trkpt>
      <trkpt lat="47.85651" lon="6.75648">
        <ele>689</ele>
        <time>2018-06-23T07:20:40.000Z</time>
      </trkpt>
      <trkpt lat="47.85652" lon="6.75647">
        <ele>689</ele>
        <time>2018-06-23T07:20:41.000Z</time>
      </trkpt>
      <trkpt lat="47.85652" lon="6.75647">
        <ele>689</ele>
        <time>2018-06-23T07:20:42.000Z</time>
      </trkpt>
      <trkpt lat="47.85653" lon="6.75646">
        <ele>690</ele>
        <time>2018-06-23T07:20:43.000Z</time>
      </trkpt>
      <trkpt lat="47.85654" lon="6.75646">
        <ele>690</ele>
        <time>2018-06-23T07:20:44.000Z</time>
      </trkpt>
      <trkpt lat="47.85655" lon="6.75646">
        <ele>690</ele>
        <time>2018-06-23T07:20:45.000Z</time>
      </trkpt>
      <trkpt lat="47.85655" lon="6.75646">
        <ele>690</ele>
        <time>2018-06-23T07:20:46.000Z</time>
      </trkpt>
      <trkpt lat="47.85656" lon="6.75646">
        <ele>690</ele>
        <time>2018-06-23T07:20:47.000Z</time>
      </trkpt>
      <trkpt lat="47.85656" lon="6.75646">
        <ele>690</ele>
        <time>2018-06-23T07:20:48.000Z</time>
      </trkpt>
      <trkpt lat="47.85656" lon="6.75646">
        <ele>690</ele>
        <time>2018-06-23T07:20:49.000Z</time>
      </trkpt>
      <trkpt lat="47.85655" lon="6.75645">
        <ele>689</ele>
        <time>2018-06-23T07:20:50.000Z</time>
      </trkpt>
      <trkpt lat="47.85655" lon="6.75643">
        <ele>689</ele>
        <time>2018-06-23T07:20:51.000Z</time>
      </trkpt>
      <trkpt lat="47.85655" lon="6.75642">
        <ele>689</ele>
        <time>2018-06-23T07:20:52.000Z</time>
      </trkpt>
      <trkpt lat="47.85655" lon="6.7564">
        <ele>689</ele>
        <time>2018-06-23T07:20:53.000Z</time>
      </trkpt>
      <trkpt lat="47.85655" lon="6.75637">
        <ele>689</ele>
        <time>2018-06-23T07:20:54.000Z</time>
      </trkpt>
      <trkpt lat="47.85655" lon="6.75635">
        <ele>689</ele>
        <time>2018-06-23T07:20:55.000Z</time>
      </trkpt>
      <trkpt lat="47.85655" lon="6.75633">
        <ele>689</ele>
        <time>2018-06-23T07:20:56.000Z</time>
      </trkpt>
      <trkpt lat="47.85655" lon="6.75631">
        <ele>688</ele>
        <time>2018-06-23T07:20:57.000Z</time>
      </trkpt>
      <trkpt lat="47.85654" lon="6.75629">
        <ele>688</ele>
        <time>2018-06-23T07:20:58.000Z</time>
      </trkpt>
      <trkpt lat="47.85654" lon="6.75627">
        <ele>688</ele>
        <time>2018-06-23T07:20:59.000Z</time>
      </trkpt>
      <trkpt lat="47.85654" lon="6.75625">
        <ele>688</ele>
        <time>2018-06-23T07:21:00.000Z</time>
      </trkpt>
      <trkpt lat="47.85654" lon="6.75623">
        <ele>688</ele>
        <time>2018-06-23T07:21:01.000Z</time>
      </trkpt>
      <trkpt lat="47.85654" lon="6.75621">
        <ele>688</ele>
        <time>2018-06-23T07:21:02.000Z</time>
      </trkpt>
      <trkpt lat="47.85654" lon="6.75619">
        <ele>688</ele>
        <time>2018-06-23T07:21:03.000Z</time>
      </trkpt>
      <trkpt lat="47.85655" lon="6.75617">
        <ele>688</ele>
        <time>2018-06-23T07:21:04.000Z</time>
      </trkpt>
      <trkpt lat="47.85655" lon="6.75616">
        <ele>688</ele>
        <time>2018-06-23T07:21:05.000Z</time>
      </trkpt>
      <trkpt lat="47.85656" lon="6.75614">
        <ele>688</ele>
        <time>2018-06-23T07:21:06.000Z</time>
      </trkpt>
      <trkpt lat="47.85657" lon="6.75613">
        <ele>688</ele>
        <time>2018-06-23T07:21:07.000Z</time>
      </trkpt>
      <trkpt lat="47.85658" lon="6.75612">
        <ele>688</ele>
        <time>2018-06-23T07:21:08.000Z</time>
      </trkpt>
      <trkpt lat="47.85659" lon="6.75611">
        <ele>688</ele>
        <time>2018-06-23T07:21:09.000Z</time>
      </trkpt>
      <trkpt lat="47.8566" lon="6.75611">
        <ele>688</ele>
        <time>2018-06-23T07:21:10.000Z</time>
      </trkpt>
      <trkpt lat="47.85661" lon="6.7561">
        <ele>688</ele>
        <time>2018-06-23T07:21:11.000Z</time>
      </trkpt>
      <trkpt lat="47.85662" lon="6.75609">
        <ele>688</ele>
        <time>2018-06-23T07:21:12.000Z</time>
      </trkpt>
      <trkpt lat="47.85663" lon="6.75608">
        <ele>688</ele>
        <time>2018-06-23T07:21:13.000Z</time>
      </trkpt>
      <trkpt lat="47.85663" lon="6.75607">
        <ele>688</ele>
        <time>2018-06-23T07:21:14.000Z</time>
      </trkpt>
      <trkpt lat="47.85664" lon="6.75606">
        <ele>688</ele>
        <time>2018-06-23T07:21:15.000Z</time>
      </trkpt>
      <trkpt lat="47.85665" lon="6.75605">
        <ele>688</ele>
        <time>2018-06-23T07:21:16.000Z</time>
      </trkpt>
      <trkpt lat="47.85666" lon="6.75604">
        <ele>688</ele>
        <time>2018-06-23T07:21:17.000Z</time>
      </trkpt>
      <trkpt lat="47.85667" lon="6.75603">
        <ele>699</ele>
        <time>2018-06-23T07:21:18.000Z</time>
      </trkpt>
      <trkpt lat="47.85668" lon="6.75602">
        <ele>698</ele>
        <time>2018-06-23T07:21:19.000Z</time>
      </trkpt>
      <trkpt lat="47.85669" lon="6.75601">
        <ele>698</ele>
        <time>2018-06-23T07:21:20.000Z</time>
      </trkpt>
      <trkpt lat="47.8567" lon="6.756">
        <ele>698</ele>
        <time>2018-06-23T07:21:21.000Z</time>
      </trkpt>
      <trkpt lat="47.85671" lon="6.75598">
        <ele>697</ele>
        <time>2018-06-23T07:21:22.000Z</time>
      </trkpt>
      <trkpt lat="47.85672" lon="6.75597">
        <ele>697</ele>
        <time>2018-06-23T07:21:23.000Z</time>
      </trkpt>
      <trkpt lat="47.85673" lon="6.75596">
        <ele>697</ele>
        <time>2018-06-23T07:21:24.000Z</time>
      </trkpt>
      <trkpt lat="47.85674" lon="6.75594">
        <ele>697</ele>
        <time>2018-06-23T07:21:25.000Z</time>
      </trkpt>
      <trkpt lat="47.85675" lon="6.75593">
        <ele>696</ele>
        <time>2018-06-23T07:21:26.000Z</time>
      </trkpt>
      <trkpt lat="47.85676" lon="6.75591">
        <ele>696</ele>
        <time>2018-06-23T07:21:27.000Z</time>
      </trkpt>
      <trkpt lat="47.85677" lon="6.7559">
        <ele>696</ele>
        <time>2018-06-23T07:21:28.000Z</time>
      </trkpt>
      <trkpt lat="47.85678" lon="6.75589">
        <ele>697</ele>
        <time>2018-06-23T07:21:29.000Z</time>
      </trkpt>
      <trkpt lat="47.85679" lon="6.75587">
        <ele>697</ele>
        <time>2018-06-23T07:21:30.000Z</time>
      </trkpt>
      <trkpt lat="47.8568" lon="6.75586">
        <ele>697</ele>
        <time>2018-06-23T07:21:31.000Z</time>
      </trkpt>
      <trkpt lat="47.85681" lon="6.75585">
        <ele>698</ele>
        <time>2018-06-23T07:21:32.000Z</time>
      </trkpt>
      <trkpt lat="47.85683" lon="6.75583">
        <ele>696</ele>
        <time>2018-06-23T07:21:33.000Z</time>
      </trkpt>
      <trkpt lat="47.85683" lon="6.75582">
        <ele>696</ele>
        <time>2018-06-23T07:21:34.000Z</time>
      </trkpt>
      <trkpt lat="47.85684" lon="6.7558">
        <ele>696</ele>
        <time>2018-06-23T07:21:35.000Z</time>
      </trkpt>
      <trkpt lat="47.85685" lon="6.75579">
        <ele>697</ele>
        <time>2018-06-23T07:21:36.000Z</time>
      </trkpt>
      <trkpt lat="47.85686" lon="6.75577">
        <ele>697</ele>
        <time>2018-06-23T07:21:37.000Z</time>
      </trkpt>
      <trkpt lat="47.85687" lon="6.75575">
        <ele>697</ele>
        <time>2018-06-23T07:21:38.000Z</time>
      </trkpt>
      <trkpt lat="47.85687" lon="6.75573">
        <ele>698</ele>
        <time>2018-06-23T07:21:39.000Z</time>
      </trkpt>
      <trkpt lat="47.85688" lon="6.75571">
        <ele>698</ele>
        <time>2018-06-23T07:21:40.000Z</time>
      </trkpt>
      <trkpt lat="47.85689" lon="6.7557">
        <ele>698</ele>
        <time>2018-06-23T07:21:41.000Z</time>
      </trkpt>
      <trkpt lat="47.8569" lon="6.75568">
        <ele>699</ele>
        <time>2018-06-23T07:21:42.000Z</time>
      </trkpt>
      <trkpt lat="47.8569" lon="6.75566">
        <ele>699</ele>
        <time>2018-06-23T07:21:43.000Z</time>
      </trkpt>
      <trkpt lat="47.85691" lon="6.75564">
        <ele>699</ele>
        <time>2018-06-23T07:21:44.000Z</time>
      </trkpt>
      <trkpt lat="47.85692" lon="6.75562">
        <ele>700</ele>
        <time>2018-06-23T07:21:45.000Z</time>
      </trkpt>
      <trkpt lat="47.85692" lon="6.7556">
        <ele>700</ele>
        <time>2018-06-23T07:21:46.000Z</time>
      </trkpt>
      <trkpt lat="47.85693" lon="6.75558">
        <ele>700</ele>
        <time>2018-06-23T07:21:47.000Z</time>
      </trkpt>
      <trkpt lat="47.85694" lon="6.75556">
        <ele>700</ele>
        <time>2018-06-23T07:21:48.000Z</time>
      </trkpt>
      <trkpt lat="47.85694" lon="6.75554">
        <ele>700</ele>
        <time>2018-06-23T07:21:49.000Z</time>
      </trkpt>
      <trkpt lat="47.85695" lon="6.75553">
        <ele>701</ele>
        <time>2018-06-23T07:21:50.000Z</time>
      </trkpt>
      <trkpt lat="47.85695" lon="6.75551">
        <ele>701</ele>
        <time>2018-06-23T07:21:51.000Z</time>
      </trkpt>
      <trkpt lat="47.85696" lon="6.75549">
        <ele>701</ele>
        <time>2018-06-23T07:21:52.000Z</time>
      </trkpt>
      <trkpt lat="47.85696" lon="6.75547">
        <ele>701</ele>
        <time>2018-06-23T07:21:53.000Z</time>
      </trkpt>
      <trkpt lat="47.85697" lon="6.75545">
        <ele>701</ele>
        <time>2018-06-23T07:21:54.000Z</time>
      </trkpt>
      <trkpt lat="47.85697" lon="6.75543">
        <ele>701</ele>
        <time>2018-06-23T07:21:55.000Z</time>
      </trkpt>
      <trkpt lat="47.85697" lon="6.75541">
        <ele>701</ele>
        <time>2018-06-23T07:21:56.000Z</time>
      </trkpt>
      <trkpt lat="47.85698" lon="6.7554">
        <ele>701</ele>
        <time>2018-06-23T07:21:57.000Z</time>
      </trkpt>
      <trkpt lat="47.85698" lon="6.75538">
        <ele>701</ele>
        <time>2018-06-23T07:21:58.000Z</time>
      </trkpt>
      <trkpt lat="47.85698" lon="6.75536">
        <ele>701</ele>
        <time>2018-06-23T07:21:59.000Z</time>
      </trkpt>
      <trkpt lat="47.85698" lon="6.75535">
        <ele>701</ele>
        <time>2018-06-23T07:22:00.000Z</time>
      </trkpt>
      <trkpt lat="47.85698" lon="6.75533">
        <ele>701</ele>
        <time>2018-06-23T07:22:01.000Z</time>
      </trkpt>
      <trkpt lat="47.85699" lon="6.75531">
        <ele>700</ele>
        <time>2018-06-23T07:22:02.000Z</time>
      </trkpt>
      <trkpt lat="47.85699" lon="6.7553">
        <ele>700</ele>
        <time>2018-06-23T07:22:03.000Z</time>
      </trkpt>
      <trkpt lat="47.85699" lon="6.75528">
        <ele>700</ele>
        <time>2018-06-23T07:22:04.000Z</time>
      </trkpt>
      <trkpt lat="47.857" lon="6.75526">
        <ele>700</ele>
        <time>2018-06-23T07:22:05.000Z</time>
      </trkpt>
      <trkpt lat="47.857" lon="6.75525">
        <ele>700</ele>
        <time>2018-06-23T07:22:06.000Z</time>
      </trkpt>
      <trkpt lat="47.857" lon="6.75523">
        <ele>700</ele>
        <time>2018-06-23T07:22:07.000Z</time>
      </trkpt>
      <trkpt lat="47.85701" lon="6.75522">
        <ele>700</ele>
        <time>2018-06-23T07:22:08.000Z</time>
      </trkpt>
      <trkpt lat="47.85701" lon="6.7552">
        <ele>700</ele>
        <time>2018-06-23T07:22:09.000Z</time>
      </trkpt>
      <trkpt lat="47.85702" lon="6.75519">
        <ele>701</ele>
        <time>2018-06-23T07:22:10.000Z</time>
      </trkpt>
      <trkpt lat="47.85702" lon="6.75517">
        <ele>701</ele>
        <time>2018-06-23T07:22:11.000Z</time>
      </trkpt>
      <trkpt lat="47.85703" lon="6.75516">
        <ele>701</ele>
        <time>2018-06-23T07:22:12.000Z</time>
      </trkpt>
      <trkpt lat="47.85703" lon="6.75514">
        <ele>701</ele>
        <time>2018-06-23T07:22:13.000Z</time>
      </trkpt>
      <trkpt lat="47.85703" lon="6.75513">
        <ele>701</ele>
        <time>2018-06-23T07:22:14.000Z</time>
      </trkpt>
      <trkpt lat="47.85704" lon="6.75512">
        <ele>701</ele>
        <time>2018-06-23T07:22:15.000Z</time>
      </trkpt>
      <trkpt lat="47.85704" lon="6.7551">
        <ele>701</ele>
        <time>2018-06-23T07:22:16.000Z</time>
      </trkpt>
      <trkpt lat="47.85705" lon="6.75509">
        <ele>701</ele>
        <time>2018-06-23T07:22:17.000Z</time>
      </trkpt>
      <trkpt lat="47.85706" lon="6.75507">
        <ele>701</ele>
        <time>2018-06-23T07:22:18.000Z</time>
      </trkpt>
      <trkpt lat="47.85706" lon="6.75506">
        <ele>701</ele>
        <time>2018-06-23T07:22:19.000Z</time>
      </trkpt>
      <trkpt lat="47.85707" lon="6.75505">
        <ele>702</ele>
        <time>2018-06-23T07:22:20.000Z</time>
      </trkpt>
      <trkpt lat="47.85707" lon="6.75503">
        <ele>702</ele>
        <time>2018-06-23T07:22:21.000Z</time>
      </trkpt>
      <trkpt lat="47.85708" lon="6.75502">
        <ele>702</ele>
        <time>2018-06-23T07:22:22.000Z</time>
      </trkpt>
      <trkpt lat="47.85708" lon="6.75501">
        <ele>702</ele>
        <time>2018-06-23T07:22:23.000Z</time>
      </trkpt>
      <trkpt lat="47.85709" lon="6.755">
        <ele>702</ele>
        <time>2018-06-23T07:22:24.000Z</time>
      </trkpt>
      <trkpt lat="47.8571" lon="6.75499">
        <ele>700</ele>
        <time>2018-06-23T07:22:25.000Z</time>
      </trkpt>
      <trkpt lat="47.8571" lon="6.75498">
        <ele>700</ele>
        <time>2018-06-23T07:22:26.000Z</time>
      </trkpt>
      <trkpt lat="47.85711" lon="6.75497">
        <ele>700</ele>
        <time>2018-06-23T07:22:27.000Z</time>
      </trkpt>
      <trkpt lat="47.85711" lon="6.75496">
        <ele>700</ele>
        <time>2018-06-23T07:22:28.000Z</time>
      </trkpt>
      <trkpt lat="47.85712" lon="6.75495">
        <ele>700</ele>
        <time>2018-06-23T07:22:29.000Z</time>
      </trkpt>
      <trkpt lat="47.85712" lon="6.75494">
        <ele>701</ele>
        <time>2018-06-23T07:22:30.000Z</time>
      </trkpt>
      <trkpt lat="47.85713" lon="6.75493">
        <ele>701</ele>
        <time>2018-06-23T07:22:31.000Z</time>
      </trkpt>
      <trkpt lat="47.85713" lon="6.75492">
        <ele>701</ele>
        <time>2018-06-23T07:22:32.000Z</time>
      </trkpt>
      <trkpt lat="47.85714" lon="6.75491">
        <ele>701</ele>
        <time>2018-06-23T07:22:33.000Z</time>
      </trkpt>
      <trkpt lat="47.85715" lon="6.75489">
        <ele>701</ele>
        <time>2018-06-23T07:22:34.000Z</time>
      </trkpt>
      <trkpt lat="47.85716" lon="6.75488">
        <ele>702</ele>
        <time>2018-06-23T07:22:35.000Z</time>
      </trkpt>
      <trkpt lat="47.85716" lon="6.75487">
        <ele>702</ele>
        <time>2018-06-23T07:22:36.000Z</time>
      </trkpt>
      <trkpt lat="47.85717" lon="6.75486">
        <ele>702</ele>
        <time>2018-06-23T07:22:37.000Z</time>
      </trkpt>
      <trkpt lat="47.85718" lon="6.75485">
        <ele>702</ele>
        <time>2018-06-23T07:22:38.000Z</time>
      </trkpt>
      <trkpt lat="47.85718" lon="6.75484">
        <ele>702</ele>
        <time>2018-06-23T07:22:39.000Z</time>
      </trkpt>
      <trkpt lat="47.85719" lon="6.75483">
        <ele>702</ele>
        <time>2018-06-23T07:22:40.000Z</time>
      </trkpt>
      <trkpt lat="47.8572" lon="6.75482">
        <ele>702</ele>
        <time>2018-06-23T07:22:41.000Z</time>
      </trkpt>
      <trkpt lat="47.8572" lon="6.75481">
        <ele>703</ele>
        <time>2018-06-23T07:22:42.000Z</time>
      </trkpt>
      <trkpt lat="47.85721" lon="6.7548">
        <ele>703</ele>
        <time>2018-06-23T07:22:43.000Z</time>
      </trkpt>
      <trkpt lat="47.85721" lon="6.75479">
        <ele>703</ele>
        <time>2018-06-23T07:22:44.000Z</time>
      </trkpt>
      <trkpt lat="47.85722" lon="6.75478">
        <ele>703</ele>
        <time>2018-06-23T07:22:45.000Z</time>
      </trkpt>
      <trkpt lat="47.85722" lon="6.75477">
        <ele>703</ele>
        <time>2018-06-23T07:22:46.000Z</time>
      </trkpt>
      <trkpt lat="47.85723" lon="6.75475">
        <ele>703</ele>
        <time>2018-06-23T07:22:47.000Z</time>
      </trkpt>
      <trkpt lat="47.85723" lon="6.75474">
        <ele>703</ele>
        <time>2018-06-23T07:22:48.000Z</time>
      </trkpt>
      <trkpt lat="47.85724" lon="6.75472">
        <ele>703</ele>
        <time>2018-06-23T07:22:49.000Z</time>
      </trkpt>
      <trkpt lat="47.85724" lon="6.7547">
        <ele>703</ele>
        <time>2018-06-23T07:22:50.000Z</time>
      </trkpt>
      <trkpt lat="47.85724" lon="6.75469">
        <ele>703</ele>
        <time>2018-06-23T07:22:51.000Z</time>
      </trkpt>
      <trkpt lat="47.85725" lon="6.75468">
        <ele>703</ele>
        <time>2018-06-23T07:22:52.000Z</time>
      </trkpt>
      <trkpt lat="47.85725" lon="6.75466">
        <ele>703</ele>
        <time>2018-06-23T07:22:53.000Z</time>
      </trkpt>
      <trkpt lat="47.85725" lon="6.75465">
        <ele>703</ele>
        <time>2018-06-23T07:22:54.000Z</time>
      </trkpt>
      <trkpt lat="47.85725" lon="6.75463">
        <ele>703</ele>
        <time>2018-06-23T07:22:55.000Z</time>
      </trkpt>
      <trkpt lat="47.85726" lon="6.75462">
        <ele>703</ele>
        <time>2018-06-23T07:22:56.000Z</time>
      </trkpt>
      <trkpt lat="47.85726" lon="6.7546">
        <ele>703</ele>
        <time>2018-06-23T07:22:57.000Z</time>
      </trkpt>
      <trkpt lat="47.85726" lon="6.75459">
        <ele>703</ele>
        <time>2018-06-23T07:22:58.000Z</time>
      </trkpt>
      <trkpt lat="47.85726" lon="6.75457">
        <ele>703</ele>
        <time>2018-06-23T07:22:59.000Z</time>
      </trkpt>
      <trkpt lat="47.85726" lon="6.75456">
        <ele>703</ele>
        <time>2018-06-23T07:23:00.000Z</time>
      </trkpt>
      <trkpt lat="47.85726" lon="6.75454">
        <ele>703</ele>
        <time>2018-06-23T07:23:01.000Z</time>
      </trkpt>
      <trkpt lat="47.85726" lon="6.75453">
        <ele>703</ele>
        <time>2018-06-23T07:23:02.000Z</time>
      </trkpt>
      <trkpt lat="47.85726" lon="6.75452">
        <ele>703</ele>
        <time>2018-06-23T07:23:03.000Z</time>
      </trkpt>
      <trkpt lat="47.85727" lon="6.75451">
        <ele>703</ele>
        <time>2018-06-23T07:23:04.000Z</time>
      </trkpt>
      <trkpt lat="47.85727" lon="6.7545">
        <ele>703</ele>
        <time>2018-06-23T07:23:05.000Z</time>
      </trkpt>
      <trkpt lat="47.85727" lon="6.75449">
        <ele>703</ele>
        <time>2018-06-23T07:23:06.000Z</time>
      </trkpt>
      <trkpt lat="47.85727" lon="6.75449">
        <ele>703</ele>
        <time>2018-06-23T07:23:07.000Z</time>
      </trkpt>
      <trkpt lat="47.85727" lon="6.75449">
        <ele>703</ele>
        <time>2018-06-23T07:23:08.000Z</time>
      </trkpt>
      <trkpt lat="47.85727" lon="6.75449">
        <ele>703</ele>
        <time>2018-06-23T07:23:09.000Z</time>
      </trkpt>
      <trkpt lat="47.85727" lon="6.75449">
        <ele>703</ele>
        <time>2018-06-23T07:23:10.000Z</time>
      </trkpt>
      <trkpt lat="47.85727" lon="6.75448">
        <ele>703</ele>
        <time>2018-06-23T07:23:11.000Z</time>
      </trkpt>
      <trkpt lat="47.85726" lon="6.75447">
        <ele>703</ele>
        <time>2018-06-23T07:23:12.000Z</time>
      </trkpt>
      <trkpt lat="47.85726" lon="6.75445">
        <ele>703</ele>
        <time>2018-06-23T07:23:13.000Z</time>
      </trkpt>
      <trkpt lat="47.85726" lon="6.75444">
        <ele>703</ele>
        <time>2018-06-23T07:23:14.000Z</time>
      </trkpt>
      <trkpt lat="47.85726" lon="6.75443">
        <ele>703</ele>
        <time>2018-06-23T07:23:15.000Z</time>
      </trkpt>
      <trkpt lat="47.85726" lon="6.75442">
        <ele>703</ele>
        <time>2018-06-23T07:23:16.000Z</time>
      </trkpt>
      <trkpt lat="47.85726" lon="6.7544">
        <ele>703</ele>
        <time>2018-06-23T07:23:17.000Z</time>
      </trkpt>
      <trkpt lat="47.85726" lon="6.75439">
        <ele>703</ele>
        <time>2018-06-23T07:23:18.000Z</time>
      </trkpt>
      <trkpt lat="47.85726" lon="6.75438">
        <ele>703</ele>
        <time>2018-06-23T07:23:19.000Z</time>
      </trkpt>
      <trkpt lat="47.85726" lon="6.75436">
        <ele>703</ele>
        <time>2018-06-23T07:23:20.000Z</time>
      </trkpt>
      <trkpt lat="47.85726" lon="6.75435">
        <ele>703</ele>
        <time>2018-06-23T07:23:21.000Z</time>
      </trkpt>
      <trkpt lat="47.85726" lon="6.75433">
        <ele>703</ele>
        <time>2018-06-23T07:23:22.000Z</time>
      </trkpt>
      <trkpt lat="47.85726" lon="6.75432">
        <ele>704</ele>
        <time>2018-06-23T07:23:23.000Z</time>
      </trkpt>
      <trkpt lat="47.85726" lon="6.7543">
        <ele>704</ele>
        <time>2018-06-23T07:23:24.000Z</time>
      </trkpt>
      <trkpt lat="47.85726" lon="6.75428">
        <ele>704</ele>
        <time>2018-06-23T07:23:25.000Z</time>
      </trkpt>
      <trkpt lat="47.85726" lon="6.75427">
        <ele>704</ele>
        <time>2018-06-23T07:23:26.000Z</time>
      </trkpt>
      <trkpt lat="47.85726" lon="6.75426">
        <ele>704</ele>
        <time>2018-06-23T07:23:27.000Z</time>
      </trkpt>
      <trkpt lat="47.85726" lon="6.75424">
        <ele>704</ele>
        <time>2018-06-23T07:23:28.000Z</time>
      </trkpt>
      <trkpt lat="47.85727" lon="6.75422">
        <ele>704</ele>
        <time>2018-06-23T07:23:29.000Z</time>
      </trkpt>
      <trkpt lat="47.85727" lon="6.75421">
        <ele>704</ele>
        <time>2018-06-23T07:23:30.000Z</time>
      </trkpt>
      <trkpt lat="47.85727" lon="6.75419">
        <ele>705</ele>
        <time>2018-06-23T07:23:31.000Z</time>
      </trkpt>
      <trkpt lat="47.85727" lon="6.75418">
        <ele>705</ele>
        <time>2018-06-23T07:23:32.000Z</time>
      </trkpt>
      <trkpt lat="47.85727" lon="6.75417">
        <ele>705</ele>
        <time>2018-06-23T07:23:33.000Z</time>
      </trkpt>
      <trkpt lat="47.85728" lon="6.75415">
        <ele>704</ele>
        <time>2018-06-23T07:23:34.000Z</time>
      </trkpt>
      <trkpt lat="47.85727" lon="6.75414">
        <ele>704</ele>
        <time>2018-06-23T07:23:35.000Z</time>
      </trkpt>
      <trkpt lat="47.85727" lon="6.75412">
        <ele>704</ele>
        <time>2018-06-23T07:23:36.000Z</time>
      </trkpt>
      <trkpt lat="47.85727" lon="6.75411">
        <ele>704</ele>
        <time>2018-06-23T07:23:37.000Z</time>
      </trkpt>
      <trkpt lat="47.85727" lon="6.7541">
        <ele>704</ele>
        <time>2018-06-23T07:23:38.000Z</time>
      </trkpt>
      <trkpt lat="47.85727" lon="6.75408">
        <ele>703</ele>
        <time>2018-06-23T07:23:39.000Z</time>
      </trkpt>
      <trkpt lat="47.85727" lon="6.75407">
        <ele>703</ele>
        <time>2018-06-23T07:23:40.000Z</time>
      </trkpt>
      <trkpt lat="47.85727" lon="6.75406">
        <ele>703</ele>
        <time>2018-06-23T07:23:41.000Z</time>
      </trkpt>
      <trkpt lat="47.85727" lon="6.75405">
        <ele>703</ele>
        <time>2018-06-23T07:23:42.000Z</time>
      </trkpt>
      <trkpt lat="47.85728" lon="6.75404">
        <ele>703</ele>
        <time>2018-06-23T07:23:43.000Z</time>
      </trkpt>
      <trkpt lat="47.85728" lon="6.75403">
        <ele>703</ele>
        <time>2018-06-23T07:23:44.000Z</time>
      </trkpt>
      <trkpt lat="47.85728" lon="6.75401">
        <ele>703</ele>
        <time>2018-06-23T07:23:45.000Z</time>
      </trkpt>
      <trkpt lat="47.85728" lon="6.75399">
        <ele>703</ele>
        <time>2018-06-23T07:23:46.000Z</time>
      </trkpt>
      <trkpt lat="47.85728" lon="6.75398">
        <ele>703</ele>
        <time>2018-06-23T07:23:47.000Z</time>
      </trkpt>
      <trkpt lat="47.85728" lon="6.75396">
        <ele>702</ele>
        <time>2018-06-23T07:23:48.000Z</time>
      </trkpt>
      <trkpt lat="47.85727" lon="6.75394">
        <ele>702</ele>
        <time>2018-06-23T07:23:49.000Z</time>
      </trkpt>
      <trkpt lat="47.85727" lon="6.75393">
        <ele>702</ele>
        <time>2018-06-23T07:23:50.000Z</time>
      </trkpt>
      <trkpt lat="47.85727" lon="6.75391">
        <ele>702</ele>
        <time>2018-06-23T07:23:51.000Z</time>
      </trkpt>
      <trkpt lat="47.85726" lon="6.7539">
        <ele>702</ele>
        <time>2018-06-23T07:23:52.000Z</time>
      </trkpt>
      <trkpt lat="47.85726" lon="6.75388">
        <ele>701</ele>
        <time>2018-06-23T07:23:53.000Z</time>
      </trkpt>
      <trkpt lat="47.85726" lon="6.75387">
        <ele>701</ele>
        <time>2018-06-23T07:23:54.000Z</time>
      </trkpt>
      <trkpt lat="47.85725" lon="6.75385">
        <ele>701</ele>
        <time>2018-06-23T07:23:55.000Z</time>
      </trkpt>
      <trkpt lat="47.85725" lon="6.75384">
        <ele>701</ele>
        <time>2018-06-23T07:23:56.000Z</time>
      </trkpt>
      <trkpt lat="47.85724" lon="6.75382">
        <ele>701</ele>
        <time>2018-06-23T07:23:57.000Z</time>
      </trkpt>
      <trkpt lat="47.85724" lon="6.75381">
        <ele>701</ele>
        <time>2018-06-23T07:23:58.000Z</time>
      </trkpt>
      <trkpt lat="47.85724" lon="6.75379">
        <ele>701</ele>
        <time>2018-06-23T07:23:59.000Z</time>
      </trkpt>
      <trkpt lat="47.85723" lon="6.75378">
        <ele>700</ele>
        <time>2018-06-23T07:24:00.000Z</time>
      </trkpt>
      <trkpt lat="47.85723" lon="6.75377">
        <ele>700</ele>
        <time>2018-06-23T07:24:01.000Z</time>
      </trkpt>
      <trkpt lat="47.85723" lon="6.75375">
        <ele>700</ele>
        <time>2018-06-23T07:24:02.000Z</time>
      </trkpt>
      <trkpt lat="47.85723" lon="6.75374">
        <ele>700</ele>
        <time>2018-06-23T07:24:03.000Z</time>
      </trkpt>
      <trkpt lat="47.85722" lon="6.75372">
        <ele>700</ele>
        <time>2018-06-23T07:24:04.000Z</time>
      </trkpt>
      <trkpt lat="47.85722" lon="6.75371">
        <ele>700</ele>
        <time>2018-06-23T07:24:05.000Z</time>
      </trkpt>
      <trkpt lat="47.85722" lon="6.7537">
        <ele>700</ele>
        <time>2018-06-23T07:24:06.000Z</time>
      </trkpt>
      <trkpt lat="47.85721" lon="6.75368">
        <ele>700</ele>
        <time>2018-06-23T07:24:07.000Z</time>
      </trkpt>
      <trkpt lat="47.85721" lon="6.75367">
        <ele>700</ele>
        <time>2018-06-23T07:24:08.000Z</time>
      </trkpt>
      <trkpt lat="47.85721" lon="6.75366">
        <ele>700</ele>
        <time>2018-06-23T07:24:09.000Z</time>
      </trkpt>
      <trkpt lat="47.8572" lon="6.75364">
        <ele>700</ele>
        <time>2018-06-23T07:24:10.000Z</time>
      </trkpt>
      <trkpt lat="47.8572" lon="6.75363">
        <ele>700</ele>
        <time>2018-06-23T07:24:11.000Z</time>
      </trkpt>
      <trkpt lat="47.8572" lon="6.75362">
        <ele>700</ele>
        <time>2018-06-23T07:24:12.000Z</time>
      </trkpt>
      <trkpt lat="47.85719" lon="6.7536">
        <ele>700</ele>
        <time>2018-06-23T07:24:13.000Z</time>
      </trkpt>
      <trkpt lat="47.85719" lon="6.75359">
        <ele>700</ele>
        <time>2018-06-23T07:24:14.000Z</time>
      </trkpt>
      <trkpt lat="47.85719" lon="6.75358">
        <ele>700</ele>
        <time>2018-06-23T07:24:15.000Z</time>
      </trkpt>
      <trkpt lat="47.85719" lon="6.75356">
        <ele>700</ele>
        <time>2018-06-23T07:24:16.000Z</time>
      </trkpt>
      <trkpt lat="47.85719" lon="6.75354">
        <ele>700</ele>
        <time>2018-06-23T07:24:17.000Z</time>
      </trkpt>
      <trkpt lat="47.85719" lon="6.75353">
        <ele>700</ele>
        <time>2018-06-23T07:24:18.000Z</time>
      </trkpt>
      <trkpt lat="47.85719" lon="6.75351">
        <ele>700</ele>
        <time>2018-06-23T07:24:19.000Z</time>
      </trkpt>
      <trkpt lat="47.85719" lon="6.7535">
        <ele>700</ele>
        <time>2018-06-23T07:24:20.000Z</time>
      </trkpt>
      <trkpt lat="47.85719" lon="6.75349">
        <ele>700</ele>
        <time>2018-06-23T07:24:21.000Z</time>
      </trkpt>
      <trkpt lat="47.85719" lon="6.75347">
        <ele>700</ele>
        <time>2018-06-23T07:24:22.000Z</time>
      </trkpt>
      <trkpt lat="47.85719" lon="6.75346">
        <ele>700</ele>
        <time>2018-06-23T07:24:23.000Z</time>
      </trkpt>
      <trkpt lat="47.85719" lon="6.75344">
        <ele>700</ele>
        <time>2018-06-23T07:24:24.000Z</time>
      </trkpt>
      <trkpt lat="47.8572" lon="6.75343">
        <ele>700</ele>
        <time>2018-06-23T07:24:25.000Z</time>
      </trkpt>
      <trkpt lat="47.8572" lon="6.75341">
        <ele>701</ele>
        <time>2018-06-23T07:24:26.000Z</time>
      </trkpt>
      <trkpt lat="47.8572" lon="6.7534">
        <ele>701</ele>
        <time>2018-06-23T07:24:27.000Z</time>
      </trkpt>
      <trkpt lat="47.85721" lon="6.75338">
        <ele>701</ele>
        <time>2018-06-23T07:24:28.000Z</time>
      </trkpt>
      <trkpt lat="47.85721" lon="6.75337">
        <ele>701</ele>
        <time>2018-06-23T07:24:29.000Z</time>
      </trkpt>
      <trkpt lat="47.85721" lon="6.75336">
        <ele>701</ele>
        <time>2018-06-23T07:24:30.000Z</time>
      </trkpt>
      <trkpt lat="47.85722" lon="6.75334">
        <ele>701</ele>
        <time>2018-06-23T07:24:31.000Z</time>
      </trkpt>
      <trkpt lat="47.85722" lon="6.75333">
        <ele>698</ele>
        <time>2018-06-23T07:24:32.000Z</time>
      </trkpt>
      <trkpt lat="47.85722" lon="6.75332">
        <ele>698</ele>
        <time>2018-06-23T07:24:33.000Z</time>
      </trkpt>
      <trkpt lat="47.85723" lon="6.7533">
        <ele>698</ele>
        <time>2018-06-23T07:24:34.000Z</time>
      </trkpt>
      <trkpt lat="47.85723" lon="6.75329">
        <ele>698</ele>
        <time>2018-06-23T07:24:35.000Z</time>
      </trkpt>
      <trkpt lat="47.85724" lon="6.75328">
        <ele>698</ele>
        <time>2018-06-23T07:24:36.000Z</time>
      </trkpt>
      <trkpt lat="47.85724" lon="6.75327">
        <ele>698</ele>
        <time>2018-06-23T07:24:37.000Z</time>
      </trkpt>
      <trkpt lat="47.85724" lon="6.75325">
        <ele>698</ele>
        <time>2018-06-23T07:24:38.000Z</time>
      </trkpt>
      <trkpt lat="47.85725" lon="6.75323">
        <ele>698</ele>
        <time>2018-06-23T07:24:39.000Z</time>
      </trkpt>
      <trkpt lat="47.85725" lon="6.75322">
        <ele>698</ele>
        <time>2018-06-23T07:24:40.000Z</time>
      </trkpt>
      <trkpt lat="47.85726" lon="6.75321">
        <ele>698</ele>
        <time>2018-06-23T07:24:41.000Z</time>
      </trkpt>
      <trkpt lat="47.85727" lon="6.75319">
        <ele>698</ele>
        <time>2018-06-23T07:24:42.000Z</time>
      </trkpt>
      <trkpt lat="47.85727" lon="6.75318">
        <ele>698</ele>
        <time>2018-06-23T07:24:43.000Z</time>
      </trkpt>
      <trkpt lat="47.85728" lon="6.75317">
        <ele>698</ele>
        <time>2018-06-23T07:24:44.000Z</time>
      </trkpt>
      <trkpt lat="47.85728" lon="6.75316">
        <ele>698</ele>
        <time>2018-06-23T07:24:45.000Z</time>
      </trkpt>
      <trkpt lat="47.85729" lon="6.75315">
        <ele>698</ele>
        <time>2018-06-23T07:24:46.000Z</time>
      </trkpt>
      <trkpt lat="47.8573" lon="6.75314">
        <ele>698</ele>
        <time>2018-06-23T07:24:47.000Z</time>
      </trkpt>
      <trkpt lat="47.8573" lon="6.75312">
        <ele>698</ele>
        <time>2018-06-23T07:24:48.000Z</time>
      </trkpt>
      <trkpt lat="47.85731" lon="6.75311">
        <ele>698</ele>
        <time>2018-06-23T07:24:49.000Z</time>
      </trkpt>
      <trkpt lat="47.85732" lon="6.75309">
        <ele>698</ele>
        <time>2018-06-23T07:24:50.000Z</time>
      </trkpt>
      <trkpt lat="47.85732" lon="6.75308">
        <ele>698</ele>
        <time>2018-06-23T07:24:51.000Z</time>
      </trkpt>
      <trkpt lat="47.85733" lon="6.75306">
        <ele>698</ele>
        <time>2018-06-23T07:24:52.000Z</time>
      </trkpt>
      <trkpt lat="47.85734" lon="6.75305">
        <ele>697</ele>
        <time>2018-06-23T07:24:53.000Z</time>
      </trkpt>
      <trkpt lat="47.85735" lon="6.75303">
        <ele>697</ele>
        <time>2018-06-23T07:24:54.000Z</time>
      </trkpt>
      <trkpt lat="47.85736" lon="6.75301">
        <ele>697</ele>
        <time>2018-06-23T07:24:55.000Z</time>
      </trkpt>
      <trkpt lat="47.85736" lon="6.753">
        <ele>697</ele>
        <time>2018-06-23T07:24:56.000Z</time>
      </trkpt>
      <trkpt lat="47.85737" lon="6.75299">
        <ele>697</ele>
        <time>2018-06-23T07:24:57.000Z</time>
      </trkpt>
      <trkpt lat="47.85737" lon="6.75297">
        <ele>697</ele>
        <time>2018-06-23T07:24:58.000Z</time>
      </trkpt>
      <trkpt lat="47.85738" lon="6.75295">
        <ele>696</ele>
        <time>2018-06-23T07:24:59.000Z</time>
      </trkpt>
      <trkpt lat="47.85739" lon="6.75293">
        <ele>696</ele>
        <time>2018-06-23T07:25:00.000Z</time>
      </trkpt>
      <trkpt lat="47.85739" lon="6.75292">
        <ele>696</ele>
        <time>2018-06-23T07:25:01.000Z</time>
      </trkpt>
      <trkpt lat="47.8574" lon="6.7529">
        <ele>696</ele>
        <time>2018-06-23T07:25:02.000Z</time>
      </trkpt>
      <trkpt lat="47.85741" lon="6.75289">
        <ele>696</ele>
        <time>2018-06-23T07:25:03.000Z</time>
      </trkpt>
      <trkpt lat="47.85741" lon="6.75288">
        <ele>696</ele>
        <time>2018-06-23T07:25:04.000Z</time>
      </trkpt>
      <trkpt lat="47.85742" lon="6.75286">
        <ele>696</ele>
        <time>2018-06-23T07:25:05.000Z</time>
      </trkpt>
      <trkpt lat="47.85743" lon="6.75285">
        <ele>696</ele>
        <time>2018-06-23T07:25:06.000Z</time>
      </trkpt>
      <trkpt lat="47.85743" lon="6.75284">
        <ele>696</ele>
        <time>2018-06-23T07:25:07.000Z</time>
      </trkpt>
      <trkpt lat="47.85744" lon="6.75282">
        <ele>696</ele>
        <time>2018-06-23T07:25:08.000Z</time>
      </trkpt>
      <trkpt lat="47.85745" lon="6.75281">
        <ele>696</ele>
        <time>2018-06-23T07:25:09.000Z</time>
      </trkpt>
      <trkpt lat="47.85746" lon="6.7528">
        <ele>696</ele>
        <time>2018-06-23T07:25:10.000Z</time>
      </trkpt>
      <trkpt lat="47.85746" lon="6.75279">
        <ele>696</ele>
        <time>2018-06-23T07:25:11.000Z</time>
      </trkpt>
      <trkpt lat="47.85747" lon="6.75278">
        <ele>696</ele>
        <time>2018-06-23T07:25:12.000Z</time>
      </trkpt>
      <trkpt lat="47.85748" lon="6.75277">
        <ele>696</ele>
        <time>2018-06-23T07:25:13.000Z</time>
      </trkpt>
      <trkpt lat="47.85749" lon="6.75276">
        <ele>696</ele>
        <time>2018-06-23T07:25:14.000Z</time>
      </trkpt>
      <trkpt lat="47.85749" lon="6.75275">
        <ele>696</ele>
        <time>2018-06-23T07:25:15.000Z</time>
      </trkpt>
      <trkpt lat="47.8575" lon="6.75274">
        <ele>712</ele>
        <time>2018-06-23T07:25:16.000Z</time>
      </trkpt>
      <trkpt lat="47.85752" lon="6.75274">
        <ele>712</ele>
        <time>2018-06-23T07:25:17.000Z</time>
      </trkpt>
      <trkpt lat="47.85753" lon="6.75273">
        <ele>712</ele>
        <time>2018-06-23T07:25:18.000Z</time>
      </trkpt>
      <trkpt lat="47.85753" lon="6.75273">
        <ele>712</ele>
        <time>2018-06-23T07:25:19.000Z</time>
      </trkpt>
      <trkpt lat="47.85754" lon="6.75272">
        <ele>712</ele>
        <time>2018-06-23T07:25:20.000Z</time>
      </trkpt>
      <trkpt lat="47.85756" lon="6.75271">
        <ele>712</ele>
        <time>2018-06-23T07:25:21.000Z</time>
      </trkpt>
      <trkpt lat="47.85757" lon="6.7527">
        <ele>712</ele>
        <time>2018-06-23T07:25:22.000Z</time>
      </trkpt>
      <trkpt lat="47.85757" lon="6.7527">
        <ele>711</ele>
        <time>2018-06-23T07:25:23.000Z</time>
      </trkpt>
      <trkpt lat="47.85758" lon="6.75269">
        <ele>711</ele>
        <time>2018-06-23T07:25:24.000Z</time>
      </trkpt>
      <trkpt lat="47.8576" lon="6.75268">
        <ele>711</ele>
        <time>2018-06-23T07:25:25.000Z</time>
      </trkpt>
      <trkpt lat="47.85761" lon="6.75267">
        <ele>711</ele>
        <time>2018-06-23T07:25:26.000Z</time>
      </trkpt>
      <trkpt lat="47.85761" lon="6.75266">
        <ele>711</ele>
        <time>2018-06-23T07:25:27.000Z</time>
      </trkpt>
      <trkpt lat="47.85762" lon="6.75265">
        <ele>711</ele>
        <time>2018-06-23T07:25:28.000Z</time>
      </trkpt>
      <trkpt lat="47.85763" lon="6.75264">
        <ele>711</ele>
        <time>2018-06-23T07:25:29.000Z</time>
      </trkpt>
      <trkpt lat="47.85765" lon="6.75263">
        <ele>711</ele>
        <time>2018-06-23T07:25:30.000Z</time>
      </trkpt>
      <trkpt lat="47.85765" lon="6.75263">
        <ele>711</ele>
        <time>2018-06-23T07:25:31.000Z</time>
      </trkpt>
      <trkpt lat="47.85766" lon="6.75262">
        <ele>712</ele>
        <time>2018-06-23T07:25:32.000Z</time>
      </trkpt>
      <trkpt lat="47.85767" lon="6.75261">
        <ele>712</ele>
        <time>2018-06-23T07:25:33.000Z</time>
      </trkpt>
      <trkpt lat="47.85768" lon="6.7526">
        <ele>712</ele>
        <time>2018-06-23T07:25:34.000Z</time>
      </trkpt>
      <trkpt lat="47.8577" lon="6.75259">
        <ele>712</ele>
        <time>2018-06-23T07:25:35.000Z</time>
      </trkpt>
      <trkpt lat="47.85771" lon="6.75258">
        <ele>712</ele>
        <time>2018-06-23T07:25:36.000Z</time>
      </trkpt>
      <trkpt lat="47.85772" lon="6.75257">
        <ele>713</ele>
        <time>2018-06-23T07:25:37.000Z</time>
      </trkpt>
      <trkpt lat="47.85773" lon="6.75256">
        <ele>713</ele>
        <time>2018-06-23T07:25:38.000Z</time>
      </trkpt>
      <trkpt lat="47.85774" lon="6.75255">
        <ele>713</ele>
        <time>2018-06-23T07:25:39.000Z</time>
      </trkpt>
      <trkpt lat="47.85775" lon="6.75254">
        <ele>714</ele>
        <time>2018-06-23T07:25:40.000Z</time>
      </trkpt>
      <trkpt lat="47.85776" lon="6.75253">
        <ele>714</ele>
        <time>2018-06-23T07:25:41.000Z</time>
      </trkpt>
      <trkpt lat="47.85776" lon="6.75252">
        <ele>714</ele>
        <time>2018-06-23T07:25:42.000Z</time>
      </trkpt>
      <trkpt lat="47.85777" lon="6.75252">
        <ele>715</ele>
        <time>2018-06-23T07:25:43.000Z</time>
      </trkpt>
      <trkpt lat="47.85778" lon="6.75251">
        <ele>715</ele>
        <time>2018-06-23T07:25:44.000Z</time>
      </trkpt>
      <trkpt lat="47.85779" lon="6.7525">
        <ele>715</ele>
        <time>2018-06-23T07:25:45.000Z</time>
      </trkpt>
      <trkpt lat="47.8578" lon="6.75249">
        <ele>707</ele>
        <time>2018-06-23T07:25:46.000Z</time>
      </trkpt>
      <trkpt lat="47.85781" lon="6.75248">
        <ele>707</ele>
        <time>2018-06-23T07:25:47.000Z</time>
      </trkpt>
      <trkpt lat="47.85782" lon="6.75247">
        <ele>708</ele>
        <time>2018-06-23T07:25:48.000Z</time>
      </trkpt>
      <trkpt lat="47.85783" lon="6.75246">
        <ele>708</ele>
        <time>2018-06-23T07:25:49.000Z</time>
      </trkpt>
      <trkpt lat="47.85783" lon="6.75245">
        <ele>708</ele>
        <time>2018-06-23T07:25:50.000Z</time>
      </trkpt>
      <trkpt lat="47.85784" lon="6.75245">
        <ele>708</ele>
        <time>2018-06-23T07:25:51.000Z</time>
      </trkpt>
      <trkpt lat="47.85785" lon="6.75244">
        <ele>708</ele>
        <time>2018-06-23T07:25:52.000Z</time>
      </trkpt>
      <trkpt lat="47.85786" lon="6.75243">
        <ele>709</ele>
        <time>2018-06-23T07:25:53.000Z</time>
      </trkpt>
      <trkpt lat="47.85787" lon="6.75242">
        <ele>709</ele>
        <time>2018-06-23T07:25:54.000Z</time>
      </trkpt>
      <trkpt lat="47.85788" lon="6.75241">
        <ele>709</ele>
        <time>2018-06-23T07:25:55.000Z</time>
      </trkpt>
      <trkpt lat="47.85788" lon="6.7524">
        <ele>709</ele>
        <time>2018-06-23T07:25:56.000Z</time>
      </trkpt>
      <trkpt lat="47.85789" lon="6.75239">
        <ele>709</ele>
        <time>2018-06-23T07:25:57.000Z</time>
      </trkpt>
      <trkpt lat="47.8579" lon="6.75238">
        <ele>710</ele>
        <time>2018-06-23T07:25:58.000Z</time>
      </trkpt>
      <trkpt lat="47.85791" lon="6.75237">
        <ele>710</ele>
        <time>2018-06-23T07:25:59.000Z</time>
      </trkpt>
      <trkpt lat="47.85791" lon="6.75235">
        <ele>710</ele>
        <time>2018-06-23T07:26:00.000Z</time>
      </trkpt>
      <trkpt lat="47.85792" lon="6.75234">
        <ele>710</ele>
        <time>2018-06-23T07:26:01.000Z</time>
      </trkpt>
      <trkpt lat="47.85793" lon="6.75232">
        <ele>710</ele>
        <time>2018-06-23T07:26:02.000Z</time>
      </trkpt>
      <trkpt lat="47.85793" lon="6.75231">
        <ele>710</ele>
        <time>2018-06-23T07:26:03.000Z</time>
      </trkpt>
      <trkpt lat="47.85794" lon="6.7523">
        <ele>710</ele>
        <time>2018-06-23T07:26:04.000Z</time>
      </trkpt>
      <trkpt lat="47.85794" lon="6.75229">
        <ele>710</ele>
        <time>2018-06-23T07:26:05.000Z</time>
      </trkpt>
      <trkpt lat="47.85795" lon="6.75227">
        <ele>710</ele>
        <time>2018-06-23T07:26:06.000Z</time>
      </trkpt>
      <trkpt lat="47.85795" lon="6.75225">
        <ele>710</ele>
        <time>2018-06-23T07:26:07.000Z</time>
      </trkpt>
      <trkpt lat="47.85796" lon="6.75224">
        <ele>710</ele>
        <time>2018-06-23T07:26:08.000Z</time>
      </trkpt>
      <trkpt lat="47.85796" lon="6.75223">
        <ele>710</ele>
        <time>2018-06-23T07:26:09.000Z</time>
      </trkpt>
      <trkpt lat="47.85797" lon="6.75222">
        <ele>710</ele>
        <time>2018-06-23T07:26:10.000Z</time>
      </trkpt>
      <trkpt lat="47.85798" lon="6.7522">
        <ele>710</ele>
        <time>2018-06-23T07:26:11.000Z</time>
      </trkpt>
      <trkpt lat="47.85799" lon="6.75219">
        <ele>710</ele>
        <time>2018-06-23T07:26:12.000Z</time>
      </trkpt>
      <trkpt lat="47.85799" lon="6.75218">
        <ele>710</ele>
        <time>2018-06-23T07:26:13.000Z</time>
      </trkpt>
      <trkpt lat="47.858" lon="6.75216">
        <ele>710</ele>
        <time>2018-06-23T07:26:14.000Z</time>
      </trkpt>
      <trkpt lat="47.85801" lon="6.75215">
        <ele>710</ele>
        <time>2018-06-23T07:26:15.000Z</time>
      </trkpt>
      <trkpt lat="47.85801" lon="6.75214">
        <ele>710</ele>
        <time>2018-06-23T07:26:16.000Z</time>
      </trkpt>
      <trkpt lat="47.85802" lon="6.75213">
        <ele>711</ele>
        <time>2018-06-23T07:26:17.000Z</time>
      </trkpt>
      <trkpt lat="47.85803" lon="6.75212">
        <ele>711</ele>
        <time>2018-06-23T07:26:18.000Z</time>
      </trkpt>
      <trkpt lat="47.85804" lon="6.75211">
        <ele>711</ele>
        <time>2018-06-23T07:26:19.000Z</time>
      </trkpt>
      <trkpt lat="47.85804" lon="6.7521">
        <ele>711</ele>
        <time>2018-06-23T07:26:20.000Z</time>
      </trkpt>
      <trkpt lat="47.85805" lon="6.75209">
        <ele>711</ele>
        <time>2018-06-23T07:26:21.000Z</time>
      </trkpt>
      <trkpt lat="47.85806" lon="6.75208">
        <ele>711</ele>
        <time>2018-06-23T07:26:22.000Z</time>
      </trkpt>
      <trkpt lat="47.85806" lon="6.75207">
        <ele>711</ele>
        <time>2018-06-23T07:26:23.000Z</time>
      </trkpt>
      <trkpt lat="47.85806" lon="6.75206">
        <ele>711</ele>
        <time>2018-06-23T07:26:24.000Z</time>
      </trkpt>
      <trkpt lat="47.85807" lon="6.75205">
        <ele>711</ele>
        <time>2018-06-23T07:26:25.000Z</time>
      </trkpt>
      <trkpt lat="47.85808" lon="6.75204">
        <ele>711</ele>
        <time>2018-06-23T07:26:26.000Z</time>
      </trkpt>
      <trkpt lat="47.85809" lon="6.75203">
        <ele>711</ele>
        <time>2018-06-23T07:26:27.000Z</time>
      </trkpt>
      <trkpt lat="47.8581" lon="6.75203">
        <ele>711</ele>
        <time>2018-06-23T07:26:28.000Z</time>
      </trkpt>
      <trkpt lat="47.85811" lon="6.75202">
        <ele>711</ele>
        <time>2018-06-23T07:26:29.000Z</time>
      </trkpt>
      <trkpt lat="47.85811" lon="6.75201">
        <ele>711</ele>
        <time>2018-06-23T07:26:30.000Z</time>
      </trkpt>
      <trkpt lat="47.85812" lon="6.752">
        <ele>711</ele>
        <time>2018-06-23T07:26:31.000Z</time>
      </trkpt>
      <trkpt lat="47.85813" lon="6.75199">
        <ele>711</ele>
        <time>2018-06-23T07:26:32.000Z</time>
      </trkpt>
      <trkpt lat="47.85814" lon="6.75198">
        <ele>711</ele>
        <time>2018-06-23T07:26:33.000Z</time>
      </trkpt>
      <trkpt lat="47.85815" lon="6.75197">
        <ele>711</ele>
        <time>2018-06-23T07:26:34.000Z</time>
      </trkpt>
      <trkpt lat="47.85816" lon="6.75197">
        <ele>711</ele>
        <time>2018-06-23T07:26:35.000Z</time>
      </trkpt>
      <trkpt lat="47.85817" lon="6.75196">
        <ele>712</ele>
        <time>2018-06-23T07:26:36.000Z</time>
      </trkpt>
      <trkpt lat="47.85817" lon="6.75196">
        <ele>712</ele>
        <time>2018-06-23T07:26:37.000Z</time>
      </trkpt>
      <trkpt lat="47.85818" lon="6.75195">
        <ele>712</ele>
        <time>2018-06-23T07:26:38.000Z</time>
      </trkpt>
      <trkpt lat="47.85819" lon="6.75194">
        <ele>712</ele>
        <time>2018-06-23T07:26:39.000Z</time>
      </trkpt>
      <trkpt lat="47.8582" lon="6.75193">
        <ele>712</ele>
        <time>2018-06-23T07:26:40.000Z</time>
      </trkpt>
      <trkpt lat="47.85821" lon="6.75193">
        <ele>712</ele>
        <time>2018-06-23T07:26:41.000Z</time>
      </trkpt>
      <trkpt lat="47.85823" lon="6.75192">
        <ele>712</ele>
        <time>2018-06-23T07:26:42.000Z</time>
      </trkpt>
      <trkpt lat="47.85823" lon="6.75192">
        <ele>712</ele>
        <time>2018-06-23T07:26:43.000Z</time>
      </trkpt>
      <trkpt lat="47.85824" lon="6.75192">
        <ele>712</ele>
        <time>2018-06-23T07:26:44.000Z</time>
      </trkpt>
      <trkpt lat="47.85825" lon="6.75192">
        <ele>712</ele>
        <time>2018-06-23T07:26:45.000Z</time>
      </trkpt>
      <trkpt lat="47.85826" lon="6.75192">
        <ele>712</ele>
        <time>2018-06-23T07:26:46.000Z</time>
      </trkpt>
      <trkpt lat="47.85826" lon="6.75192">
        <ele>712</ele>
        <time>2018-06-23T07:26:47.000Z</time>
      </trkpt>
      <trkpt lat="47.85827" lon="6.75193">
        <ele>713</ele>
        <time>2018-06-23T07:26:48.000Z</time>
      </trkpt>
      <trkpt lat="47.85827" lon="6.75195">
        <ele>713</ele>
        <time>2018-06-23T07:26:49.000Z</time>
      </trkpt>
      <trkpt lat="47.85827" lon="6.75197">
        <ele>713</ele>
        <time>2018-06-23T07:26:50.000Z</time>
      </trkpt>
      <trkpt lat="47.85827" lon="6.75198">
        <ele>713</ele>
        <time>2018-06-23T07:26:51.000Z</time>
      </trkpt>
      <trkpt lat="47.85827" lon="6.75198">
        <ele>713</ele>
        <time>2018-06-23T07:26:52.000Z</time>
      </trkpt>
      <trkpt lat="47.85826" lon="6.75198">
        <ele>713</ele>
        <time>2018-06-23T07:26:53.000Z</time>
      </trkpt>
      <trkpt lat="47.85826" lon="6.75198">
        <ele>713</ele>
        <time>2018-06-23T07:26:54.000Z</time>
      </trkpt>
      <trkpt lat="47.85826" lon="6.75197">
        <ele>713</ele>
        <time>2018-06-23T07:26:55.000Z</time>
      </trkpt>
      <trkpt lat="47.85827" lon="6.75196">
        <ele>713</ele>
        <time>2018-06-23T07:26:56.000Z</time>
      </trkpt>
      <trkpt lat="47.85828" lon="6.75195">
        <ele>713</ele>
        <time>2018-06-23T07:26:57.000Z</time>
      </trkpt>
      <trkpt lat="47.85829" lon="6.75194">
        <ele>713</ele>
        <time>2018-06-23T07:26:58.000Z</time>
      </trkpt>
      <trkpt lat="47.8583" lon="6.75193">
        <ele>713</ele>
        <time>2018-06-23T07:26:59.000Z</time>
      </trkpt>
      <trkpt lat="47.8583" lon="6.75192">
        <ele>713</ele>
        <time>2018-06-23T07:27:00.000Z</time>
      </trkpt>
      <trkpt lat="47.85831" lon="6.75191">
        <ele>713</ele>
        <time>2018-06-23T07:27:01.000Z</time>
      </trkpt>
      <trkpt lat="47.85832" lon="6.7519">
        <ele>713</ele>
        <time>2018-06-23T07:27:02.000Z</time>
      </trkpt>
      <trkpt lat="47.85833" lon="6.75189">
        <ele>713</ele>
        <time>2018-06-23T07:27:03.000Z</time>
      </trkpt>
      <trkpt lat="47.85834" lon="6.75188">
        <ele>721</ele>
        <time>2018-06-23T07:27:04.000Z</time>
      </trkpt>
      <trkpt lat="47.85835" lon="6.75188">
        <ele>721</ele>
        <time>2018-06-23T07:27:05.000Z</time>
      </trkpt>
      <trkpt lat="47.85836" lon="6.75187">
        <ele>721</ele>
        <time>2018-06-23T07:27:06.000Z</time>
      </trkpt>
      <trkpt lat="47.85837" lon="6.75185">
        <ele>721</ele>
        <time>2018-06-23T07:27:07.000Z</time>
      </trkpt>
      <trkpt lat="47.85837" lon="6.75184">
        <ele>720</ele>
        <time>2018-06-23T07:27:08.000Z</time>
      </trkpt>
      <trkpt lat="47.85838" lon="6.75183">
        <ele>720</ele>
        <time>2018-06-23T07:27:09.000Z</time>
      </trkpt>
      <trkpt lat="47.85839" lon="6.75183">
        <ele>720</ele>
        <time>2018-06-23T07:27:10.000Z</time>
      </trkpt>
      <trkpt lat="47.8584" lon="6.75182">
        <ele>720</ele>
        <time>2018-06-23T07:27:11.000Z</time>
      </trkpt>
      <trkpt lat="47.85841" lon="6.75181">
        <ele>720</ele>
        <time>2018-06-23T07:27:12.000Z</time>
      </trkpt>
      <trkpt lat="47.85842" lon="6.75181">
        <ele>720</ele>
        <time>2018-06-23T07:27:13.000Z</time>
      </trkpt>
      <trkpt lat="47.85842" lon="6.7518">
        <ele>720</ele>
        <time>2018-06-23T07:27:14.000Z</time>
      </trkpt>
      <trkpt lat="47.85843" lon="6.75179">
        <ele>720</ele>
        <time>2018-06-23T07:27:15.000Z</time>
      </trkpt>
      <trkpt lat="47.85843" lon="6.75179">
        <ele>720</ele>
        <time>2018-06-23T07:27:16.000Z</time>
      </trkpt>
      <trkpt lat="47.85843" lon="6.75179">
        <ele>720</ele>
        <time>2018-06-23T07:27:17.000Z</time>
      </trkpt>
      <trkpt lat="47.85843" lon="6.75179">
        <ele>720</ele>
        <time>2018-06-23T07:27:18.000Z</time>
      </trkpt>
      <trkpt lat="47.85843" lon="6.75179">
        <ele>720</ele>
        <time>2018-06-23T07:27:19.000Z</time>
      </trkpt>
      <trkpt lat="47.85844" lon="6.75178">
        <ele>720</ele>
        <time>2018-06-23T07:27:20.000Z</time>
      </trkpt>
      <trkpt lat="47.85845" lon="6.75177">
        <ele>720</ele>
        <time>2018-06-23T07:27:21.000Z</time>
      </trkpt>
      <trkpt lat="47.85846" lon="6.75176">
        <ele>720</ele>
        <time>2018-06-23T07:27:22.000Z</time>
      </trkpt>
      <trkpt lat="47.85846" lon="6.75176">
        <ele>720</ele>
        <time>2018-06-23T07:27:23.000Z</time>
      </trkpt>
      <trkpt lat="47.85846" lon="6.75176">
        <ele>720</ele>
        <time>2018-06-23T07:27:24.000Z</time>
      </trkpt>
      <trkpt lat="47.85847" lon="6.75176">
        <ele>720</ele>
        <time>2018-06-23T07:27:25.000Z</time>
      </trkpt>
      <trkpt lat="47.85848" lon="6.75175">
        <ele>720</ele>
        <time>2018-06-23T07:27:26.000Z</time>
      </trkpt>
      <trkpt lat="47.85849" lon="6.75175">
        <ele>720</ele>
        <time>2018-06-23T07:27:27.000Z</time>
      </trkpt>
      <trkpt lat="47.8585" lon="6.75175">
        <ele>720</ele>
        <time>2018-06-23T07:27:28.000Z</time>
      </trkpt>
      <trkpt lat="47.8585" lon="6.75175">
        <ele>720</ele>
        <time>2018-06-23T07:27:29.000Z</time>
      </trkpt>
      <trkpt lat="47.85851" lon="6.75175">
        <ele>720</ele>
        <time>2018-06-23T07:27:30.000Z</time>
      </trkpt>
      <trkpt lat="47.85852" lon="6.75175">
        <ele>721</ele>
        <time>2018-06-23T07:27:31.000Z</time>
      </trkpt>
      <trkpt lat="47.85853" lon="6.75175">
        <ele>721</ele>
        <time>2018-06-23T07:27:32.000Z</time>
      </trkpt>
      <trkpt lat="47.85854" lon="6.75175">
        <ele>721</ele>
        <time>2018-06-23T07:27:33.000Z</time>
      </trkpt>
      <trkpt lat="47.85854" lon="6.75175">
        <ele>721</ele>
        <time>2018-06-23T07:27:34.000Z</time>
      </trkpt>
      <trkpt lat="47.85855" lon="6.75174">
        <ele>721</ele>
        <time>2018-06-23T07:27:35.000Z</time>
      </trkpt>
      <trkpt lat="47.85856" lon="6.75174">
        <ele>721</ele>
        <time>2018-06-23T07:27:36.000Z</time>
      </trkpt>
      <trkpt lat="47.85857" lon="6.75174">
        <ele>721</ele>
        <time>2018-06-23T07:27:37.000Z</time>
      </trkpt>
      <trkpt lat="47.85857" lon="6.75174">
        <ele>721</ele>
        <time>2018-06-23T07:27:38.000Z</time>
      </trkpt>
      <trkpt lat="47.85857" lon="6.75174">
        <ele>721</ele>
        <time>2018-06-23T07:27:39.000Z</time>
      </trkpt>
      <trkpt lat="47.85857" lon="6.75174">
        <ele>721</ele>
        <time>2018-06-23T07:27:40.000Z</time>
      </trkpt>
      <trkpt lat="47.85858" lon="6.75174">
        <ele>721</ele>
        <time>2018-06-23T07:27:41.000Z</time>
      </trkpt>
      <trkpt lat="47.85858" lon="6.75174">
        <ele>721</ele>
        <time>2018-06-23T07:27:42.000Z</time>
      </trkpt>
      <trkpt lat="47.85859" lon="6.75175">
        <ele>721</ele>
        <time>2018-06-23T07:27:43.000Z</time>
      </trkpt>
      <trkpt lat="47.85859" lon="6.75175">
        <ele>721</ele>
        <time>2018-06-23T07:27:44.000Z</time>
      </trkpt>
      <trkpt lat="47.8586" lon="6.75175">
        <ele>721</ele>
        <time>2018-06-23T07:27:45.000Z</time>
      </trkpt>
      <trkpt lat="47.8586" lon="6.75175">
        <ele>721</ele>
        <time>2018-06-23T07:27:46.000Z</time>
      </trkpt>
      <trkpt lat="47.8586" lon="6.75175">
        <ele>721</ele>
        <time>2018-06-23T07:27:47.000Z</time>
      </trkpt>
      <trkpt lat="47.85861" lon="6.75175">
        <ele>721</ele>
        <time>2018-06-23T07:27:48.000Z</time>
      </trkpt>
      <trkpt lat="47.85862" lon="6.75175">
        <ele>721</ele>
        <time>2018-06-23T07:27:49.000Z</time>
      </trkpt>
      <trkpt lat="47.85863" lon="6.75175">
        <ele>722</ele>
        <time>2018-06-23T07:27:50.000Z</time>
      </trkpt>
      <trkpt lat="47.85864" lon="6.75174">
        <ele>722</ele>
        <time>2018-06-23T07:27:51.000Z</time>
      </trkpt>
      <trkpt lat="47.85865" lon="6.75175">
        <ele>722</ele>
        <time>2018-06-23T07:27:52.000Z</time>
      </trkpt>
      <trkpt lat="47.85866" lon="6.75175">
        <ele>722</ele>
        <time>2018-06-23T07:27:53.000Z</time>
      </trkpt>
      <trkpt lat="47.85867" lon="6.75176">
        <ele>722</ele>
        <time>2018-06-23T07:27:54.000Z</time>
      </trkpt>
      <trkpt lat="47.85868" lon="6.75176">
        <ele>722</ele>
        <time>2018-06-23T07:27:55.000Z</time>
      </trkpt>
      <trkpt lat="47.85869" lon="6.75176">
        <ele>722</ele>
        <time>2018-06-23T07:27:56.000Z</time>
      </trkpt>
      <trkpt lat="47.8587" lon="6.75176">
        <ele>722</ele>
        <time>2018-06-23T07:27:57.000Z</time>
      </trkpt>
      <trkpt lat="47.85871" lon="6.75177">
        <ele>722</ele>
        <time>2018-06-23T07:27:58.000Z</time>
      </trkpt>
      <trkpt lat="47.85872" lon="6.75177">
        <ele>722</ele>
        <time>2018-06-23T07:27:59.000Z</time>
      </trkpt>
      <trkpt lat="47.85872" lon="6.75177">
        <ele>722</ele>
        <time>2018-06-23T07:28:00.000Z</time>
      </trkpt>
      <trkpt lat="47.85873" lon="6.75176">
        <ele>722</ele>
        <time>2018-06-23T07:28:01.000Z</time>
      </trkpt>
      <trkpt lat="47.85874" lon="6.75176">
        <ele>722</ele>
        <time>2018-06-23T07:28:02.000Z</time>
      </trkpt>
      <trkpt lat="47.85875" lon="6.75176">
        <ele>722</ele>
        <time>2018-06-23T07:28:03.000Z</time>
      </trkpt>
      <trkpt lat="47.85876" lon="6.75176">
        <ele>722</ele>
        <time>2018-06-23T07:28:04.000Z</time>
      </trkpt>
      <trkpt lat="47.85876" lon="6.75176">
        <ele>722</ele>
        <time>2018-06-23T07:28:05.000Z</time>
      </trkpt>
      <trkpt lat="47.85877" lon="6.75176">
        <ele>722</ele>
        <time>2018-06-23T07:28:06.000Z</time>
      </trkpt>
      <trkpt lat="47.85878" lon="6.75176">
        <ele>722</ele>
        <time>2018-06-23T07:28:07.000Z</time>
      </trkpt>
      <trkpt lat="47.85879" lon="6.75175">
        <ele>722</ele>
        <time>2018-06-23T07:28:08.000Z</time>
      </trkpt>
      <trkpt lat="47.85879" lon="6.75175">
        <ele>722</ele>
        <time>2018-06-23T07:28:09.000Z</time>
      </trkpt>
      <trkpt lat="47.8588" lon="6.75175">
        <ele>722</ele>
        <time>2018-06-23T07:28:10.000Z</time>
      </trkpt>
      <trkpt lat="47.85881" lon="6.75175">
        <ele>722</ele>
        <time>2018-06-23T07:28:11.000Z</time>
      </trkpt>
      <trkpt lat="47.85882" lon="6.75175">
        <ele>722</ele>
        <time>2018-06-23T07:28:12.000Z</time>
      </trkpt>
      <trkpt lat="47.85883" lon="6.75175">
        <ele>722</ele>
        <time>2018-06-23T07:28:13.000Z</time>
      </trkpt>
      <trkpt lat="47.85884" lon="6.75175">
        <ele>722</ele>
        <time>2018-06-23T07:28:14.000Z</time>
      </trkpt>
      <trkpt lat="47.85885" lon="6.75175">
        <ele>722</ele>
        <time>2018-06-23T07:28:15.000Z</time>
      </trkpt>
      <trkpt lat="47.85886" lon="6.75175">
        <ele>722</ele>
        <time>2018-06-23T07:28:16.000Z</time>
      </trkpt>
      <trkpt lat="47.85887" lon="6.75176">
        <ele>722</ele>
        <time>2018-06-23T07:28:17.000Z</time>
      </trkpt>
      <trkpt lat="47.85889" lon="6.75176">
        <ele>722</ele>
        <time>2018-06-23T07:28:18.000Z</time>
      </trkpt>
      <trkpt lat="47.8589" lon="6.75176">
        <ele>722</ele>
        <time>2018-06-23T07:28:19.000Z</time>
      </trkpt>
      <trkpt lat="47.85891" lon="6.75176">
        <ele>722</ele>
        <time>2018-06-23T07:28:20.000Z</time>
      </trkpt>
      <trkpt lat="47.85892" lon="6.75176">
        <ele>722</ele>
        <time>2018-06-23T07:28:21.000Z</time>
      </trkpt>
      <trkpt lat="47.85893" lon="6.75175">
        <ele>722</ele>
        <time>2018-06-23T07:28:22.000Z</time>
      </trkpt>
      <trkpt lat="47.85895" lon="6.75175">
        <ele>722</ele>
        <time>2018-06-23T07:28:23.000Z</time>
      </trkpt>
      <trkpt lat="47.85896" lon="6.75175">
        <ele>722</ele>
        <time>2018-06-23T07:28:24.000Z</time>
      </trkpt>
      <trkpt lat="47.85897" lon="6.75175">
        <ele>722</ele>
        <time>2018-06-23T07:28:25.000Z</time>
      </trkpt>
      <trkpt lat="47.85898" lon="6.75175">
        <ele>722</ele>
        <time>2018-06-23T07:28:26.000Z</time>
      </trkpt>
      <trkpt lat="47.85899" lon="6.75176">
        <ele>722</ele>
        <time>2018-06-23T07:28:27.000Z</time>
      </trkpt>
      <trkpt lat="47.859" lon="6.75176">
        <ele>722</ele>
        <time>2018-06-23T07:28:28.000Z</time>
      </trkpt>
      <trkpt lat="47.85901" lon="6.75175">
        <ele>722</ele>
        <time>2018-06-23T07:28:29.000Z</time>
      </trkpt>
      <trkpt lat="47.85902" lon="6.75175">
        <ele>722</ele>
        <time>2018-06-23T07:28:30.000Z</time>
      </trkpt>
      <trkpt lat="47.85903" lon="6.75176">
        <ele>722</ele>
        <time>2018-06-23T07:28:31.000Z</time>
      </trkpt>
      <trkpt lat="47.85904" lon="6.75176">
        <ele>722</ele>
        <time>2018-06-23T07:28:32.000Z</time>
      </trkpt>
      <trkpt lat="47.85905" lon="6.75176">
        <ele>721</ele>
        <time>2018-06-23T07:28:33.000Z</time>
      </trkpt>
      <trkpt lat="47.85905" lon="6.75175">
        <ele>721</ele>
        <time>2018-06-23T07:28:34.000Z</time>
      </trkpt>
      <trkpt lat="47.85906" lon="6.75175">
        <ele>721</ele>
        <time>2018-06-23T07:28:35.000Z</time>
      </trkpt>
      <trkpt lat="47.85906" lon="6.75175">
        <ele>721</ele>
        <time>2018-06-23T07:28:36.000Z</time>
      </trkpt>
      <trkpt lat="47.85907" lon="6.75174">
        <ele>721</ele>
        <time>2018-06-23T07:28:37.000Z</time>
      </trkpt>
      <trkpt lat="47.85908" lon="6.75174">
        <ele>721</ele>
        <time>2018-06-23T07:28:38.000Z</time>
      </trkpt>
      <trkpt lat="47.85909" lon="6.75173">
        <ele>721</ele>
        <time>2018-06-23T07:28:39.000Z</time>
      </trkpt>
      <trkpt lat="47.8591" lon="6.75174">
        <ele>721</ele>
        <time>2018-06-23T07:28:40.000Z</time>
      </trkpt>
      <trkpt lat="47.85911" lon="6.75174">
        <ele>721</ele>
        <time>2018-06-23T07:28:41.000Z</time>
      </trkpt>
      <trkpt lat="47.85912" lon="6.75174">
        <ele>721</ele>
        <time>2018-06-23T07:28:42.000Z</time>
      </trkpt>
      <trkpt lat="47.85913" lon="6.75174">
        <ele>721</ele>
        <time>2018-06-23T07:28:43.000Z</time>
      </trkpt>
      <trkpt lat="47.85914" lon="6.75174">
        <ele>721</ele>
        <time>2018-06-23T07:28:44.000Z</time>
      </trkpt>
      <trkpt lat="47.85916" lon="6.75174">
        <ele>720</ele>
        <time>2018-06-23T07:28:45.000Z</time>
      </trkpt>
      <trkpt lat="47.85917" lon="6.75173">
        <ele>720</ele>
        <time>2018-06-23T07:28:46.000Z</time>
      </trkpt>
      <trkpt lat="47.85917" lon="6.75173">
        <ele>718</ele>
        <time>2018-06-23T07:28:47.000Z</time>
      </trkpt>
      <trkpt lat="47.85918" lon="6.75172">
        <ele>718</ele>
        <time>2018-06-23T07:28:48.000Z</time>
      </trkpt>
      <trkpt lat="47.85919" lon="6.7517">
        <ele>718</ele>
        <time>2018-06-23T07:28:49.000Z</time>
      </trkpt>
      <trkpt lat="47.85919" lon="6.7517">
        <ele>718</ele>
        <time>2018-06-23T07:28:50.000Z</time>
      </trkpt>
      <trkpt lat="47.85919" lon="6.7517">
        <ele>718</ele>
        <time>2018-06-23T07:28:51.000Z</time>
      </trkpt>
      <trkpt lat="47.85919" lon="6.75169">
        <ele>718</ele>
        <time>2018-06-23T07:28:52.000Z</time>
      </trkpt>
      <trkpt lat="47.85919" lon="6.7517">
        <ele>718</ele>
        <time>2018-06-23T07:28:53.000Z</time>
      </trkpt>
      <trkpt lat="47.85918" lon="6.75168">
        <ele>719</ele>
        <time>2018-06-23T07:28:54.000Z</time>
      </trkpt>
      <trkpt lat="47.85917" lon="6.75168">
        <ele>719</ele>
        <time>2018-06-23T07:28:55.000Z</time>
      </trkpt>
      <trkpt lat="47.85916" lon="6.75167">
        <ele>719</ele>
        <time>2018-06-23T07:28:56.000Z</time>
      </trkpt>
      <trkpt lat="47.85915" lon="6.75166">
        <ele>719</ele>
        <time>2018-06-23T07:28:57.000Z</time>
      </trkpt>
      <trkpt lat="47.85915" lon="6.75165">
        <ele>719</ele>
        <time>2018-06-23T07:28:58.000Z</time>
      </trkpt>
      <trkpt lat="47.85914" lon="6.75164">
        <ele>719</ele>
        <time>2018-06-23T07:28:59.000Z</time>
      </trkpt>
      <trkpt lat="47.85914" lon="6.75163">
        <ele>719</ele>
        <time>2018-06-23T07:29:00.000Z</time>
      </trkpt>
      <trkpt lat="47.85913" lon="6.75163">
        <ele>719</ele>
        <time>2018-06-23T07:29:01.000Z</time>
      </trkpt>
      <trkpt lat="47.85913" lon="6.75162">
        <ele>719</ele>
        <time>2018-06-23T07:29:02.000Z</time>
      </trkpt>
      <trkpt lat="47.85912" lon="6.75161">
        <ele>719</ele>
        <time>2018-06-23T07:29:03.000Z</time>
      </trkpt>
      <trkpt lat="47.85911" lon="6.75161">
        <ele>719</ele>
        <time>2018-06-23T07:29:04.000Z</time>
      </trkpt>
      <trkpt lat="47.8591" lon="6.75161">
        <ele>719</ele>
        <time>2018-06-23T07:29:05.000Z</time>
      </trkpt>
      <trkpt lat="47.8591" lon="6.75161">
        <ele>719</ele>
        <time>2018-06-23T07:29:06.000Z</time>
      </trkpt>
      <trkpt lat="47.85909" lon="6.75161">
        <ele>719</ele>
        <time>2018-06-23T07:29:07.000Z</time>
      </trkpt>
      <trkpt lat="47.85908" lon="6.75161">
        <ele>720</ele>
        <time>2018-06-23T07:29:08.000Z</time>
      </trkpt>
      <trkpt lat="47.85907" lon="6.75161">
        <ele>720</ele>
        <time>2018-06-23T07:29:09.000Z</time>
      </trkpt>
      <trkpt lat="47.85906" lon="6.75161">
        <ele>720</ele>
        <time>2018-06-23T07:29:10.000Z</time>
      </trkpt>
      <trkpt lat="47.85905" lon="6.75161">
        <ele>720</ele>
        <time>2018-06-23T07:29:11.000Z</time>
      </trkpt>
      <trkpt lat="47.85904" lon="6.75161">
        <ele>720</ele>
        <time>2018-06-23T07:29:12.000Z</time>
      </trkpt>
      <trkpt lat="47.85903" lon="6.75161">
        <ele>720</ele>
        <time>2018-06-23T07:29:13.000Z</time>
      </trkpt>
      <trkpt lat="47.85902" lon="6.75161">
        <ele>720</ele>
        <time>2018-06-23T07:29:14.000Z</time>
      </trkpt>
      <trkpt lat="47.85901" lon="6.75161">
        <ele>720</ele>
        <time>2018-06-23T07:29:15.000Z</time>
      </trkpt>
      <trkpt lat="47.859" lon="6.75161">
        <ele>720</ele>
        <time>2018-06-23T07:29:16.000Z</time>
      </trkpt>
      <trkpt lat="47.85899" lon="6.7516">
        <ele>720</ele>
        <time>2018-06-23T07:29:17.000Z</time>
      </trkpt>
      <trkpt lat="47.85898" lon="6.7516">
        <ele>720</ele>
        <time>2018-06-23T07:29:18.000Z</time>
      </trkpt>
      <trkpt lat="47.85898" lon="6.75159">
        <ele>720</ele>
        <time>2018-06-23T07:29:19.000Z</time>
      </trkpt>
      <trkpt lat="47.85897" lon="6.75158">
        <ele>720</ele>
        <time>2018-06-23T07:29:20.000Z</time>
      </trkpt>
      <trkpt lat="47.85897" lon="6.75158">
        <ele>720</ele>
        <time>2018-06-23T07:29:21.000Z</time>
      </trkpt>
      <trkpt lat="47.85897" lon="6.75157">
        <ele>720</ele>
        <time>2018-06-23T07:29:22.000Z</time>
      </trkpt>
      <trkpt lat="47.85896" lon="6.75156">
        <ele>720</ele>
        <time>2018-06-23T07:29:23.000Z</time>
      </trkpt>
      <trkpt lat="47.85896" lon="6.75155">
        <ele>720</ele>
        <time>2018-06-23T07:29:24.000Z</time>
      </trkpt>
      <trkpt lat="47.85896" lon="6.75153">
        <ele>720</ele>
        <time>2018-06-23T07:29:25.000Z</time>
      </trkpt>
      <trkpt lat="47.85896" lon="6.75152">
        <ele>720</ele>
        <time>2018-06-23T07:29:26.000Z</time>
      </trkpt>
      <trkpt lat="47.85897" lon="6.75151">
        <ele>720</ele>
        <time>2018-06-23T07:29:27.000Z</time>
      </trkpt>
      <trkpt lat="47.85897" lon="6.7515">
        <ele>720</ele>
        <time>2018-06-23T07:29:28.000Z</time>
      </trkpt>
      <trkpt lat="47.85898" lon="6.75149">
        <ele>720</ele>
        <time>2018-06-23T07:29:29.000Z</time>
      </trkpt>
      <trkpt lat="47.85898" lon="6.75148">
        <ele>720</ele>
        <time>2018-06-23T07:29:30.000Z</time>
      </trkpt>
      <trkpt lat="47.85899" lon="6.75147">
        <ele>720</ele>
        <time>2018-06-23T07:29:31.000Z</time>
      </trkpt>
      <trkpt lat="47.859" lon="6.75146">
        <ele>720</ele>
        <time>2018-06-23T07:29:32.000Z</time>
      </trkpt>
      <trkpt lat="47.859" lon="6.75145">
        <ele>720</ele>
        <time>2018-06-23T07:29:33.000Z</time>
      </trkpt>
      <trkpt lat="47.859" lon="6.75143">
        <ele>720</ele>
        <time>2018-06-23T07:29:34.000Z</time>
      </trkpt>
      <trkpt lat="47.85901" lon="6.75142">
        <ele>720</ele>
        <time>2018-06-23T07:29:35.000Z</time>
      </trkpt>
      <trkpt lat="47.85902" lon="6.75141">
        <ele>720</ele>
        <time>2018-06-23T07:29:36.000Z</time>
      </trkpt>
      <trkpt lat="47.85902" lon="6.75139">
        <ele>720</ele>
        <time>2018-06-23T07:29:37.000Z</time>
      </trkpt>
      <trkpt lat="47.85903" lon="6.75138">
        <ele>720</ele>
        <time>2018-06-23T07:29:38.000Z</time>
      </trkpt>
      <trkpt lat="47.85903" lon="6.75137">
        <ele>720</ele>
        <time>2018-06-23T07:29:39.000Z</time>
      </trkpt>
      <trkpt lat="47.85904" lon="6.75135">
        <ele>720</ele>
        <time>2018-06-23T07:29:40.000Z</time>
      </trkpt>
      <trkpt lat="47.85904" lon="6.75134">
        <ele>720</ele>
        <time>2018-06-23T07:29:41.000Z</time>
      </trkpt>
      <trkpt lat="47.85904" lon="6.75133">
        <ele>720</ele>
        <time>2018-06-23T07:29:42.000Z</time>
      </trkpt>
      <trkpt lat="47.85905" lon="6.75131">
        <ele>720</ele>
        <time>2018-06-23T07:29:43.000Z</time>
      </trkpt>
      <trkpt lat="47.85905" lon="6.75129">
        <ele>720</ele>
        <time>2018-06-23T07:29:44.000Z</time>
      </trkpt>
      <trkpt lat="47.85905" lon="6.75128">
        <ele>720</ele>
        <time>2018-06-23T07:29:45.000Z</time>
      </trkpt>
      <trkpt lat="47.85906" lon="6.75126">
        <ele>720</ele>
        <time>2018-06-23T07:29:46.000Z</time>
      </trkpt>
      <trkpt lat="47.85906" lon="6.75126">
        <ele>721</ele>
        <time>2018-06-23T07:29:47.000Z</time>
      </trkpt>
      <trkpt lat="47.85906" lon="6.75124">
        <ele>721</ele>
        <time>2018-06-23T07:29:48.000Z</time>
      </trkpt>
      <trkpt lat="47.85906" lon="6.75123">
        <ele>721</ele>
        <time>2018-06-23T07:29:49.000Z</time>
      </trkpt>
      <trkpt lat="47.85906" lon="6.75122">
        <ele>721</ele>
        <time>2018-06-23T07:29:50.000Z</time>
      </trkpt>
      <trkpt lat="47.85906" lon="6.75121">
        <ele>721</ele>
        <time>2018-06-23T07:29:51.000Z</time>
      </trkpt>
      <trkpt lat="47.85906" lon="6.75119">
        <ele>721</ele>
        <time>2018-06-23T07:29:52.000Z</time>
      </trkpt>
      <trkpt lat="47.85906" lon="6.75118">
        <ele>721</ele>
        <time>2018-06-23T07:29:53.000Z</time>
      </trkpt>
      <trkpt lat="47.85906" lon="6.75116">
        <ele>721</ele>
        <time>2018-06-23T07:29:54.000Z</time>
      </trkpt>
      <trkpt lat="47.85906" lon="6.75115">
        <ele>721</ele>
        <time>2018-06-23T07:29:55.000Z</time>
      </trkpt>
      <trkpt lat="47.85906" lon="6.75113">
        <ele>721</ele>
        <time>2018-06-23T07:29:56.000Z</time>
      </trkpt>
      <trkpt lat="47.85906" lon="6.75112">
        <ele>721</ele>
        <time>2018-06-23T07:29:57.000Z</time>
      </trkpt>
      <trkpt lat="47.85906" lon="6.7511">
        <ele>721</ele>
        <time>2018-06-23T07:29:58.000Z</time>
      </trkpt>
      <trkpt lat="47.85906" lon="6.75109">
        <ele>721</ele>
        <time>2018-06-23T07:29:59.000Z</time>
      </trkpt>
      <trkpt lat="47.85906" lon="6.75107">
        <ele>721</ele>
        <time>2018-06-23T07:30:00.000Z</time>
      </trkpt>
      <trkpt lat="47.85906" lon="6.75106">
        <ele>721</ele>
        <time>2018-06-23T07:30:01.000Z</time>
      </trkpt>
      <trkpt lat="47.85906" lon="6.75105">
        <ele>721</ele>
        <time>2018-06-23T07:30:02.000Z</time>
      </trkpt>
      <trkpt lat="47.85906" lon="6.75104">
        <ele>721</ele>
        <time>2018-06-23T07:30:03.000Z</time>
      </trkpt>
      <trkpt lat="47.85905" lon="6.75102">
        <ele>721</ele>
        <time>2018-06-23T07:30:04.000Z</time>
      </trkpt>
      <trkpt lat="47.85905" lon="6.75101">
        <ele>721</ele>
        <time>2018-06-23T07:30:05.000Z</time>
      </trkpt>
      <trkpt lat="47.85906" lon="6.751">
        <ele>721</ele>
        <time>2018-06-23T07:30:06.000Z</time>
      </trkpt>
      <trkpt lat="47.85906" lon="6.75098">
        <ele>721</ele>
        <time>2018-06-23T07:30:07.000Z</time>
      </trkpt>
      <trkpt lat="47.85906" lon="6.75097">
        <ele>721</ele>
        <time>2018-06-23T07:30:08.000Z</time>
      </trkpt>
      <trkpt lat="47.85906" lon="6.75096">
        <ele>721</ele>
        <time>2018-06-23T07:30:09.000Z</time>
      </trkpt>
      <trkpt lat="47.85907" lon="6.75095">
        <ele>721</ele>
        <time>2018-06-23T07:30:10.000Z</time>
      </trkpt>
      <trkpt lat="47.85907" lon="6.75095">
        <ele>721</ele>
        <time>2018-06-23T07:30:11.000Z</time>
      </trkpt>
      <trkpt lat="47.85906" lon="6.75094">
        <ele>721</ele>
        <time>2018-06-23T07:30:12.000Z</time>
      </trkpt>
      <trkpt lat="47.85906" lon="6.75093">
        <ele>721</ele>
        <time>2018-06-23T07:30:13.000Z</time>
      </trkpt>
      <trkpt lat="47.85906" lon="6.75091">
        <ele>721</ele>
        <time>2018-06-23T07:30:14.000Z</time>
      </trkpt>
      <trkpt lat="47.85906" lon="6.75089">
        <ele>721</ele>
        <time>2018-06-23T07:30:15.000Z</time>
      </trkpt>
      <trkpt lat="47.85906" lon="6.75087">
        <ele>721</ele>
        <time>2018-06-23T07:30:16.000Z</time>
      </trkpt>
      <trkpt lat="47.85906" lon="6.75086">
        <ele>721</ele>
        <time>2018-06-23T07:30:17.000Z</time>
      </trkpt>
      <trkpt lat="47.85906" lon="6.75085">
        <ele>721</ele>
        <time>2018-06-23T07:30:18.000Z</time>
      </trkpt>
      <trkpt lat="47.85906" lon="6.75084">
        <ele>721</ele>
        <time>2018-06-23T07:30:19.000Z</time>
      </trkpt>
      <trkpt lat="47.85906" lon="6.75082">
        <ele>723</ele>
        <time>2018-06-23T07:30:20.000Z</time>
      </trkpt>
      <trkpt lat="47.85906" lon="6.75081">
        <ele>723</ele>
        <time>2018-06-23T07:30:21.000Z</time>
      </trkpt>
      <trkpt lat="47.85906" lon="6.7508">
        <ele>723</ele>
        <time>2018-06-23T07:30:22.000Z</time>
      </trkpt>
      <trkpt lat="47.85906" lon="6.75079">
        <ele>723</ele>
        <time>2018-06-23T07:30:23.000Z</time>
      </trkpt>
      <trkpt lat="47.85906" lon="6.75078">
        <ele>723</ele>
        <time>2018-06-23T07:30:24.000Z</time>
      </trkpt>
      <trkpt lat="47.85906" lon="6.75076">
        <ele>723</ele>
        <time>2018-06-23T07:30:25.000Z</time>
      </trkpt>
      <trkpt lat="47.85905" lon="6.75074">
        <ele>724</ele>
        <time>2018-06-23T07:30:26.000Z</time>
      </trkpt>
      <trkpt lat="47.85905" lon="6.75073">
        <ele>724</ele>
        <time>2018-06-23T07:30:27.000Z</time>
      </trkpt>
      <trkpt lat="47.85905" lon="6.75071">
        <ele>724</ele>
        <time>2018-06-23T07:30:28.000Z</time>
      </trkpt>
      <trkpt lat="47.85904" lon="6.75069">
        <ele>724</ele>
        <time>2018-06-23T07:30:29.000Z</time>
      </trkpt>
      <trkpt lat="47.85904" lon="6.75067">
        <ele>725</ele>
        <time>2018-06-23T07:30:30.000Z</time>
      </trkpt>
      <trkpt lat="47.85904" lon="6.75065">
        <ele>725</ele>
        <time>2018-06-23T07:30:31.000Z</time>
      </trkpt>
      <trkpt lat="47.85903" lon="6.75063">
        <ele>725</ele>
        <time>2018-06-23T07:30:32.000Z</time>
      </trkpt>
      <trkpt lat="47.85903" lon="6.75061">
        <ele>725</ele>
        <time>2018-06-23T07:30:33.000Z</time>
      </trkpt>
      <trkpt lat="47.85903" lon="6.75059">
        <ele>725</ele>
        <time>2018-06-23T07:30:34.000Z</time>
      </trkpt>
      <trkpt lat="47.85902" lon="6.75058">
        <ele>726</ele>
        <time>2018-06-23T07:30:35.000Z</time>
      </trkpt>
      <trkpt lat="47.85902" lon="6.75056">
        <ele>726</ele>
        <time>2018-06-23T07:30:36.000Z</time>
      </trkpt>
      <trkpt lat="47.85902" lon="6.75054">
        <ele>726</ele>
        <time>2018-06-23T07:30:37.000Z</time>
      </trkpt>
      <trkpt lat="47.85901" lon="6.75053">
        <ele>726</ele>
        <time>2018-06-23T07:30:38.000Z</time>
      </trkpt>
      <trkpt lat="47.85901" lon="6.75051">
        <ele>726</ele>
        <time>2018-06-23T07:30:39.000Z</time>
      </trkpt>
      <trkpt lat="47.85901" lon="6.7505">
        <ele>726</ele>
        <time>2018-06-23T07:30:40.000Z</time>
      </trkpt>
      <trkpt lat="47.85901" lon="6.75048">
        <ele>726</ele>
        <time>2018-06-23T07:30:41.000Z</time>
      </trkpt>
      <trkpt lat="47.859" lon="6.75046">
        <ele>727</ele>
        <time>2018-06-23T07:30:42.000Z</time>
      </trkpt>
      <trkpt lat="47.859" lon="6.75044">
        <ele>727</ele>
        <time>2018-06-23T07:30:43.000Z</time>
      </trkpt>
      <trkpt lat="47.859" lon="6.75042">
        <ele>727</ele>
        <time>2018-06-23T07:30:44.000Z</time>
      </trkpt>
      <trkpt lat="47.859" lon="6.7504">
        <ele>727</ele>
        <time>2018-06-23T07:30:45.000Z</time>
      </trkpt>
      <trkpt lat="47.859" lon="6.75038">
        <ele>727</ele>
        <time>2018-06-23T07:30:46.000Z</time>
      </trkpt>
      <trkpt lat="47.859" lon="6.75037">
        <ele>727</ele>
        <time>2018-06-23T07:30:47.000Z</time>
      </trkpt>
      <trkpt lat="47.859" lon="6.75035">
        <ele>727</ele>
        <time>2018-06-23T07:30:48.000Z</time>
      </trkpt>
      <trkpt lat="47.85899" lon="6.75033">
        <ele>727</ele>
        <time>2018-06-23T07:30:49.000Z</time>
      </trkpt>
      <trkpt lat="47.85899" lon="6.75031">
        <ele>727</ele>
        <time>2018-06-23T07:30:50.000Z</time>
      </trkpt>
      <trkpt lat="47.85899" lon="6.7503">
        <ele>727</ele>
        <time>2018-06-23T07:30:51.000Z</time>
      </trkpt>
      <trkpt lat="47.859" lon="6.75028">
        <ele>727</ele>
        <time>2018-06-23T07:30:52.000Z</time>
      </trkpt>
      <trkpt lat="47.859" lon="6.75026">
        <ele>727</ele>
        <time>2018-06-23T07:30:53.000Z</time>
      </trkpt>
      <trkpt lat="47.859" lon="6.75025">
        <ele>727</ele>
        <time>2018-06-23T07:30:54.000Z</time>
      </trkpt>
      <trkpt lat="47.85901" lon="6.75023">
        <ele>727</ele>
        <time>2018-06-23T07:30:55.000Z</time>
      </trkpt>
      <trkpt lat="47.85901" lon="6.75021">
        <ele>727</ele>
        <time>2018-06-23T07:30:56.000Z</time>
      </trkpt>
      <trkpt lat="47.85902" lon="6.7502">
        <ele>727</ele>
        <time>2018-06-23T07:30:57.000Z</time>
      </trkpt>
      <trkpt lat="47.85902" lon="6.75019">
        <ele>727</ele>
        <time>2018-06-23T07:30:58.000Z</time>
      </trkpt>
      <trkpt lat="47.85902" lon="6.75017">
        <ele>727</ele>
        <time>2018-06-23T07:30:59.000Z</time>
      </trkpt>
      <trkpt lat="47.85902" lon="6.75016">
        <ele>727</ele>
        <time>2018-06-23T07:31:00.000Z</time>
      </trkpt>
      <trkpt lat="47.85902" lon="6.75015">
        <ele>727</ele>
        <time>2018-06-23T07:31:01.000Z</time>
      </trkpt>
      <trkpt lat="47.85902" lon="6.75013">
        <ele>727</ele>
        <time>2018-06-23T07:31:02.000Z</time>
      </trkpt>
      <trkpt lat="47.85902" lon="6.75012">
        <ele>727</ele>
        <time>2018-06-23T07:31:03.000Z</time>
      </trkpt>
      <trkpt lat="47.85901" lon="6.7501">
        <ele>727</ele>
        <time>2018-06-23T07:31:04.000Z</time>
      </trkpt>
      <trkpt lat="47.85901" lon="6.75008">
        <ele>727</ele>
        <time>2018-06-23T07:31:05.000Z</time>
      </trkpt>
      <trkpt lat="47.859" lon="6.75007">
        <ele>727</ele>
        <time>2018-06-23T07:31:06.000Z</time>
      </trkpt>
      <trkpt lat="47.859" lon="6.75005">
        <ele>727</ele>
        <time>2018-06-23T07:31:07.000Z</time>
      </trkpt>
      <trkpt lat="47.85899" lon="6.75003">
        <ele>728</ele>
        <time>2018-06-23T07:31:08.000Z</time>
      </trkpt>
      <trkpt lat="47.85898" lon="6.75001">
        <ele>728</ele>
        <time>2018-06-23T07:31:09.000Z</time>
      </trkpt>
      <trkpt lat="47.85897" lon="6.75">
        <ele>728</ele>
        <time>2018-06-23T07:31:10.000Z</time>
      </trkpt>
      <trkpt lat="47.85896" lon="6.74998">
        <ele>728</ele>
        <time>2018-06-23T07:31:11.000Z</time>
      </trkpt>
      <trkpt lat="47.85895" lon="6.74997">
        <ele>728</ele>
        <time>2018-06-23T07:31:12.000Z</time>
      </trkpt>
      <trkpt lat="47.85894" lon="6.74996">
        <ele>728</ele>
        <time>2018-06-23T07:31:13.000Z</time>
      </trkpt>
      <trkpt lat="47.85893" lon="6.74994">
        <ele>728</ele>
        <time>2018-06-23T07:31:14.000Z</time>
      </trkpt>
      <trkpt lat="47.85892" lon="6.74993">
        <ele>728</ele>
        <time>2018-06-23T07:31:15.000Z</time>
      </trkpt>
      <trkpt lat="47.85891" lon="6.74992">
        <ele>728</ele>
        <time>2018-06-23T07:31:16.000Z</time>
      </trkpt>
      <trkpt lat="47.85891" lon="6.74991">
        <ele>728</ele>
        <time>2018-06-23T07:31:17.000Z</time>
      </trkpt>
      <trkpt lat="47.8589" lon="6.7499">
        <ele>728</ele>
        <time>2018-06-23T07:31:18.000Z</time>
      </trkpt>
      <trkpt lat="47.85889" lon="6.74989">
        <ele>728</ele>
        <time>2018-06-23T07:31:19.000Z</time>
      </trkpt>
      <trkpt lat="47.85889" lon="6.74987">
        <ele>728</ele>
        <time>2018-06-23T07:31:20.000Z</time>
      </trkpt>
      <trkpt lat="47.85888" lon="6.74986">
        <ele>729</ele>
        <time>2018-06-23T07:31:21.000Z</time>
      </trkpt>
      <trkpt lat="47.85888" lon="6.74984">
        <ele>729</ele>
        <time>2018-06-23T07:31:22.000Z</time>
      </trkpt>
      <trkpt lat="47.85887" lon="6.74982">
        <ele>729</ele>
        <time>2018-06-23T07:31:23.000Z</time>
      </trkpt>
      <trkpt lat="47.85887" lon="6.74981">
        <ele>729</ele>
        <time>2018-06-23T07:31:24.000Z</time>
      </trkpt>
      <trkpt lat="47.85886" lon="6.74979">
        <ele>729</ele>
        <time>2018-06-23T07:31:25.000Z</time>
      </trkpt>
      <trkpt lat="47.85885" lon="6.74978">
        <ele>729</ele>
        <time>2018-06-23T07:31:26.000Z</time>
      </trkpt>
      <trkpt lat="47.85884" lon="6.74977">
        <ele>729</ele>
        <time>2018-06-23T07:31:27.000Z</time>
      </trkpt>
      <trkpt lat="47.85884" lon="6.74975">
        <ele>729</ele>
        <time>2018-06-23T07:31:28.000Z</time>
      </trkpt>
      <trkpt lat="47.85883" lon="6.74974">
        <ele>729</ele>
        <time>2018-06-23T07:31:29.000Z</time>
      </trkpt>
      <trkpt lat="47.85882" lon="6.74973">
        <ele>729</ele>
        <time>2018-06-23T07:31:30.000Z</time>
      </trkpt>
      <trkpt lat="47.85882" lon="6.74973">
        <ele>729</ele>
        <time>2018-06-23T07:31:31.000Z</time>
      </trkpt>
      <trkpt lat="47.85881" lon="6.74972">
        <ele>729</ele>
        <time>2018-06-23T07:31:32.000Z</time>
      </trkpt>
      <trkpt lat="47.8588" lon="6.74971">
        <ele>729</ele>
        <time>2018-06-23T07:31:33.000Z</time>
      </trkpt>
      <trkpt lat="47.8588" lon="6.7497">
        <ele>729</ele>
        <time>2018-06-23T07:31:34.000Z</time>
      </trkpt>
      <trkpt lat="47.85879" lon="6.7497">
        <ele>729</ele>
        <time>2018-06-23T07:31:35.000Z</time>
      </trkpt>
      <trkpt lat="47.85878" lon="6.74969">
        <ele>729</ele>
        <time>2018-06-23T07:31:36.000Z</time>
      </trkpt>
      <trkpt lat="47.85877" lon="6.74968">
        <ele>729</ele>
        <time>2018-06-23T07:31:37.000Z</time>
      </trkpt>
      <trkpt lat="47.85876" lon="6.74968">
        <ele>729</ele>
        <time>2018-06-23T07:31:38.000Z</time>
      </trkpt>
      <trkpt lat="47.85876" lon="6.74967">
        <ele>729</ele>
        <time>2018-06-23T07:31:39.000Z</time>
      </trkpt>
      <trkpt lat="47.85876" lon="6.74967">
        <ele>729</ele>
        <time>2018-06-23T07:31:40.000Z</time>
      </trkpt>
      <trkpt lat="47.85876" lon="6.74967">
        <ele>729</ele>
        <time>2018-06-23T07:31:41.000Z</time>
      </trkpt>
      <trkpt lat="47.85876" lon="6.74967">
        <ele>729</ele>
        <time>2018-06-23T07:31:42.000Z</time>
      </trkpt>
      <trkpt lat="47.85873" lon="6.74967">
        <ele>729</ele>
        <time>2018-06-23T07:31:43.000Z</time>
      </trkpt>
      <trkpt lat="47.85872" lon="6.74967">
        <ele>729</ele>
        <time>2018-06-23T07:31:44.000Z</time>
      </trkpt>
      <trkpt lat="47.85871" lon="6.74968">
        <ele>729</ele>
        <time>2018-06-23T07:31:45.000Z</time>
      </trkpt>
      <trkpt lat="47.8587" lon="6.74968">
        <ele>729</ele>
        <time>2018-06-23T07:31:46.000Z</time>
      </trkpt>
      <trkpt lat="47.85869" lon="6.74968">
        <ele>729</ele>
        <time>2018-06-23T07:31:47.000Z</time>
      </trkpt>
      <trkpt lat="47.85868" lon="6.74968">
        <ele>729</ele>
        <time>2018-06-23T07:31:48.000Z</time>
      </trkpt>
      <trkpt lat="47.85868" lon="6.74968">
        <ele>729</ele>
        <time>2018-06-23T07:31:49.000Z</time>
      </trkpt>
      <trkpt lat="47.85867" lon="6.74968">
        <ele>729</ele>
        <time>2018-06-23T07:31:50.000Z</time>
      </trkpt>
      <trkpt lat="47.85866" lon="6.74968">
        <ele>729</ele>
        <time>2018-06-23T07:31:51.000Z</time>
      </trkpt>
      <trkpt lat="47.85865" lon="6.74969">
        <ele>730</ele>
        <time>2018-06-23T07:31:52.000Z</time>
      </trkpt>
      <trkpt lat="47.85864" lon="6.74969">
        <ele>730</ele>
        <time>2018-06-23T07:31:53.000Z</time>
      </trkpt>
      <trkpt lat="47.85863" lon="6.74969">
        <ele>730</ele>
        <time>2018-06-23T07:31:54.000Z</time>
      </trkpt>
      <trkpt lat="47.85862" lon="6.74969">
        <ele>730</ele>
        <time>2018-06-23T07:31:55.000Z</time>
      </trkpt>
      <trkpt lat="47.85861" lon="6.7497">
        <ele>730</ele>
        <time>2018-06-23T07:31:56.000Z</time>
      </trkpt>
      <trkpt lat="47.85861" lon="6.7497">
        <ele>730</ele>
        <time>2018-06-23T07:31:57.000Z</time>
      </trkpt>
      <trkpt lat="47.8586" lon="6.7497">
        <ele>730</ele>
        <time>2018-06-23T07:31:58.000Z</time>
      </trkpt>
      <trkpt lat="47.85859" lon="6.7497">
        <ele>730</ele>
        <time>2018-06-23T07:31:59.000Z</time>
      </trkpt>
      <trkpt lat="47.85858" lon="6.7497">
        <ele>730</ele>
        <time>2018-06-23T07:32:00.000Z</time>
      </trkpt>
      <trkpt lat="47.85858" lon="6.74971">
        <ele>730</ele>
        <time>2018-06-23T07:32:01.000Z</time>
      </trkpt>
      <trkpt lat="47.85857" lon="6.74971">
        <ele>730</ele>
        <time>2018-06-23T07:32:02.000Z</time>
      </trkpt>
      <trkpt lat="47.85857" lon="6.74971">
        <ele>730</ele>
        <time>2018-06-23T07:32:03.000Z</time>
      </trkpt>
      <trkpt lat="47.85856" lon="6.74971">
        <ele>730</ele>
        <time>2018-06-23T07:32:04.000Z</time>
      </trkpt>
      <trkpt lat="47.85853" lon="6.74971">
        <ele>730</ele>
        <time>2018-06-23T07:32:05.000Z</time>
      </trkpt>
      <trkpt lat="47.85853" lon="6.74971">
        <ele>730</ele>
        <time>2018-06-23T07:32:06.000Z</time>
      </trkpt>
      <trkpt lat="47.85849" lon="6.74969">
        <ele>730</ele>
        <time>2018-06-23T07:32:07.000Z</time>
      </trkpt>
      <trkpt lat="47.85848" lon="6.74969">
        <ele>731</ele>
        <time>2018-06-23T07:32:08.000Z</time>
      </trkpt>
      <trkpt lat="47.85848" lon="6.7497">
        <ele>731</ele>
        <time>2018-06-23T07:32:09.000Z</time>
      </trkpt>
      <trkpt lat="47.85846" lon="6.74971">
        <ele>731</ele>
        <time>2018-06-23T07:32:10.000Z</time>
      </trkpt>
      <trkpt lat="47.85846" lon="6.74972">
        <ele>731</ele>
        <time>2018-06-23T07:32:11.000Z</time>
      </trkpt>
      <trkpt lat="47.85845" lon="6.74972">
        <ele>731</ele>
        <time>2018-06-23T07:32:12.000Z</time>
      </trkpt>
      <trkpt lat="47.85844" lon="6.74973">
        <ele>731</ele>
        <time>2018-06-23T07:32:13.000Z</time>
      </trkpt>
      <trkpt lat="47.85843" lon="6.74974">
        <ele>731</ele>
        <time>2018-06-23T07:32:14.000Z</time>
      </trkpt>
      <trkpt lat="47.85843" lon="6.74975">
        <ele>731</ele>
        <time>2018-06-23T07:32:15.000Z</time>
      </trkpt>
      <trkpt lat="47.85842" lon="6.74975">
        <ele>732</ele>
        <time>2018-06-23T07:32:16.000Z</time>
      </trkpt>
      <trkpt lat="47.85842" lon="6.74976">
        <ele>732</ele>
        <time>2018-06-23T07:32:17.000Z</time>
      </trkpt>
      <trkpt lat="47.85842" lon="6.74977">
        <ele>732</ele>
        <time>2018-06-23T07:32:18.000Z</time>
      </trkpt>
      <trkpt lat="47.85842" lon="6.74978">
        <ele>732</ele>
        <time>2018-06-23T07:32:19.000Z</time>
      </trkpt>
      <trkpt lat="47.85842" lon="6.74978">
        <ele>732</ele>
        <time>2018-06-23T07:32:20.000Z</time>
      </trkpt>
      <trkpt lat="47.85842" lon="6.74979">
        <ele>732</ele>
        <time>2018-06-23T07:32:21.000Z</time>
      </trkpt>
      <trkpt lat="47.85842" lon="6.7498">
        <ele>732</ele>
        <time>2018-06-23T07:32:22.000Z</time>
      </trkpt>
      <trkpt lat="47.85842" lon="6.7498">
        <ele>732</ele>
        <time>2018-06-23T07:32:23.000Z</time>
      </trkpt>
      <trkpt lat="47.85843" lon="6.74981">
        <ele>732</ele>
        <time>2018-06-23T07:32:24.000Z</time>
      </trkpt>
      <trkpt lat="47.85843" lon="6.74982">
        <ele>733</ele>
        <time>2018-06-23T07:32:25.000Z</time>
      </trkpt>
      <trkpt lat="47.85843" lon="6.74983">
        <ele>733</ele>
        <time>2018-06-23T07:32:26.000Z</time>
      </trkpt>
      <trkpt lat="47.85843" lon="6.74984">
        <ele>733</ele>
        <time>2018-06-23T07:32:27.000Z</time>
      </trkpt>
      <trkpt lat="47.85843" lon="6.74985">
        <ele>733</ele>
        <time>2018-06-23T07:32:28.000Z</time>
      </trkpt>
      <trkpt lat="47.85843" lon="6.74986">
        <ele>733</ele>
        <time>2018-06-23T07:32:29.000Z</time>
      </trkpt>
      <trkpt lat="47.85843" lon="6.74987">
        <ele>733</ele>
        <time>2018-06-23T07:32:30.000Z</time>
      </trkpt>
      <trkpt lat="47.85844" lon="6.74988">
        <ele>733</ele>
        <time>2018-06-23T07:32:31.000Z</time>
      </trkpt>
      <trkpt lat="47.85844" lon="6.74989">
        <ele>733</ele>
        <time>2018-06-23T07:32:32.000Z</time>
      </trkpt>
      <trkpt lat="47.85844" lon="6.74989">
        <ele>733</ele>
        <time>2018-06-23T07:32:33.000Z</time>
      </trkpt>
      <trkpt lat="47.85845" lon="6.7499">
        <ele>733</ele>
        <time>2018-06-23T07:32:34.000Z</time>
      </trkpt>
      <trkpt lat="47.85846" lon="6.7499">
        <ele>733</ele>
        <time>2018-06-23T07:32:35.000Z</time>
      </trkpt>
      <trkpt lat="47.85846" lon="6.74991">
        <ele>733</ele>
        <time>2018-06-23T07:32:36.000Z</time>
      </trkpt>
      <trkpt lat="47.85846" lon="6.74991">
        <ele>733</ele>
        <time>2018-06-23T07:32:37.000Z</time>
      </trkpt>
      <trkpt lat="47.85846" lon="6.74992">
        <ele>733</ele>
        <time>2018-06-23T07:32:38.000Z</time>
      </trkpt>
      <trkpt lat="47.85846" lon="6.74992">
        <ele>734</ele>
        <time>2018-06-23T07:32:39.000Z</time>
      </trkpt>
      <trkpt lat="47.85847" lon="6.74993">
        <ele>733</ele>
        <time>2018-06-23T07:32:40.000Z</time>
      </trkpt>
      <trkpt lat="47.85847" lon="6.74993">
        <ele>733</ele>
        <time>2018-06-23T07:32:41.000Z</time>
      </trkpt>
      <trkpt lat="47.85848" lon="6.74994">
        <ele>733</ele>
        <time>2018-06-23T07:32:42.000Z</time>
      </trkpt>
      <trkpt lat="47.85848" lon="6.74994">
        <ele>733</ele>
        <time>2018-06-23T07:32:43.000Z</time>
      </trkpt>
      <trkpt lat="47.85849" lon="6.74995">
        <ele>733</ele>
        <time>2018-06-23T07:32:44.000Z</time>
      </trkpt>
      <trkpt lat="47.85849" lon="6.74995">
        <ele>733</ele>
        <time>2018-06-23T07:32:45.000Z</time>
      </trkpt>
      <trkpt lat="47.8585" lon="6.74996">
        <ele>733</ele>
        <time>2018-06-23T07:32:46.000Z</time>
      </trkpt>
      <trkpt lat="47.85851" lon="6.74997">
        <ele>733</ele>
        <time>2018-06-23T07:32:47.000Z</time>
      </trkpt>
      <trkpt lat="47.85852" lon="6.74998">
        <ele>733</ele>
        <time>2018-06-23T07:32:48.000Z</time>
      </trkpt>
      <trkpt lat="47.85852" lon="6.74998">
        <ele>733</ele>
        <time>2018-06-23T07:32:49.000Z</time>
      </trkpt>
      <trkpt lat="47.85853" lon="6.74999">
        <ele>733</ele>
        <time>2018-06-23T07:32:50.000Z</time>
      </trkpt>
      <trkpt lat="47.85854" lon="6.75">
        <ele>733</ele>
        <time>2018-06-23T07:32:51.000Z</time>
      </trkpt>
      <trkpt lat="47.85854" lon="6.75001">
        <ele>732</ele>
        <time>2018-06-23T07:32:52.000Z</time>
      </trkpt>
      <trkpt lat="47.85855" lon="6.75002">
        <ele>732</ele>
        <time>2018-06-23T07:32:53.000Z</time>
      </trkpt>
      <trkpt lat="47.85855" lon="6.75004">
        <ele>732</ele>
        <time>2018-06-23T07:32:54.000Z</time>
      </trkpt>
      <trkpt lat="47.85856" lon="6.75005">
        <ele>732</ele>
        <time>2018-06-23T07:32:55.000Z</time>
      </trkpt>
      <trkpt lat="47.85856" lon="6.75006">
        <ele>732</ele>
        <time>2018-06-23T07:32:56.000Z</time>
      </trkpt>
      <trkpt lat="47.85857" lon="6.75007">
        <ele>732</ele>
        <time>2018-06-23T07:32:57.000Z</time>
      </trkpt>
      <trkpt lat="47.85857" lon="6.75008">
        <ele>732</ele>
        <time>2018-06-23T07:32:58.000Z</time>
      </trkpt>
      <trkpt lat="47.85857" lon="6.75009">
        <ele>732</ele>
        <time>2018-06-23T07:32:59.000Z</time>
      </trkpt>
      <trkpt lat="47.85857" lon="6.7501">
        <ele>732</ele>
        <time>2018-06-23T07:33:00.000Z</time>
      </trkpt>
      <trkpt lat="47.85857" lon="6.75011">
        <ele>732</ele>
        <time>2018-06-23T07:33:01.000Z</time>
      </trkpt>
      <trkpt lat="47.85857" lon="6.75012">
        <ele>731</ele>
        <time>2018-06-23T07:33:02.000Z</time>
      </trkpt>
      <trkpt lat="47.85856" lon="6.75014">
        <ele>731</ele>
        <time>2018-06-23T07:33:03.000Z</time>
      </trkpt>
      <trkpt lat="47.85856" lon="6.75015">
        <ele>731</ele>
        <time>2018-06-23T07:33:04.000Z</time>
      </trkpt>
      <trkpt lat="47.85855" lon="6.75016">
        <ele>731</ele>
        <time>2018-06-23T07:33:05.000Z</time>
      </trkpt>
      <trkpt lat="47.85855" lon="6.75016">
        <ele>731</ele>
        <time>2018-06-23T07:33:06.000Z</time>
      </trkpt>
      <trkpt lat="47.85854" lon="6.75017">
        <ele>731</ele>
        <time>2018-06-23T07:33:07.000Z</time>
      </trkpt>
      <trkpt lat="47.85854" lon="6.75018">
        <ele>731</ele>
        <time>2018-06-23T07:33:08.000Z</time>
      </trkpt>
      <trkpt lat="47.85853" lon="6.75019">
        <ele>731</ele>
        <time>2018-06-23T07:33:09.000Z</time>
      </trkpt>
      <trkpt lat="47.85852" lon="6.75019">
        <ele>731</ele>
        <time>2018-06-23T07:33:10.000Z</time>
      </trkpt>
      <trkpt lat="47.85852" lon="6.7502">
        <ele>731</ele>
        <time>2018-06-23T07:33:11.000Z</time>
      </trkpt>
      <trkpt lat="47.85851" lon="6.75021">
        <ele>731</ele>
        <time>2018-06-23T07:33:12.000Z</time>
      </trkpt>
      <trkpt lat="47.85851" lon="6.75022">
        <ele>731</ele>
        <time>2018-06-23T07:33:13.000Z</time>
      </trkpt>
      <trkpt lat="47.8585" lon="6.75023">
        <ele>731</ele>
        <time>2018-06-23T07:33:14.000Z</time>
      </trkpt>
      <trkpt lat="47.8585" lon="6.75024">
        <ele>731</ele>
        <time>2018-06-23T07:33:15.000Z</time>
      </trkpt>
      <trkpt lat="47.85849" lon="6.75025">
        <ele>731</ele>
        <time>2018-06-23T07:33:16.000Z</time>
      </trkpt>
      <trkpt lat="47.85849" lon="6.75026">
        <ele>731</ele>
        <time>2018-06-23T07:33:17.000Z</time>
      </trkpt>
      <trkpt lat="47.85848" lon="6.75027">
        <ele>731</ele>
        <time>2018-06-23T07:33:18.000Z</time>
      </trkpt>
      <trkpt lat="47.85848" lon="6.75028">
        <ele>731</ele>
        <time>2018-06-23T07:33:19.000Z</time>
      </trkpt>
      <trkpt lat="47.85848" lon="6.75029">
        <ele>731</ele>
        <time>2018-06-23T07:33:20.000Z</time>
      </trkpt>
      <trkpt lat="47.85847" lon="6.7503">
        <ele>731</ele>
        <time>2018-06-23T07:33:21.000Z</time>
      </trkpt>
      <trkpt lat="47.85847" lon="6.75031">
        <ele>731</ele>
        <time>2018-06-23T07:33:22.000Z</time>
      </trkpt>
      <trkpt lat="47.85846" lon="6.75031">
        <ele>731</ele>
        <time>2018-06-23T07:33:23.000Z</time>
      </trkpt>
      <trkpt lat="47.85846" lon="6.75032">
        <ele>731</ele>
        <time>2018-06-23T07:33:24.000Z</time>
      </trkpt>
      <trkpt lat="47.85846" lon="6.75032">
        <ele>731</ele>
        <time>2018-06-23T07:33:25.000Z</time>
      </trkpt>
      <trkpt lat="47.85846" lon="6.75032">
        <ele>731</ele>
        <time>2018-06-23T07:33:26.000Z</time>
      </trkpt>
      <trkpt lat="47.85846" lon="6.75032">
        <ele>731</ele>
        <time>2018-06-23T07:33:27.000Z</time>
      </trkpt>
      <trkpt lat="47.85845" lon="6.75032">
        <ele>731</ele>
        <time>2018-06-23T07:33:28.000Z</time>
      </trkpt>
      <trkpt lat="47.85845" lon="6.75031">
        <ele>731</ele>
        <time>2018-06-23T07:33:29.000Z</time>
      </trkpt>
      <trkpt lat="47.85844" lon="6.75031">
        <ele>731</ele>
        <time>2018-06-23T07:33:30.000Z</time>
      </trkpt>
      <trkpt lat="47.85843" lon="6.75031">
        <ele>731</ele>
        <time>2018-06-23T07:33:31.000Z</time>
      </trkpt>
      <trkpt lat="47.85843" lon="6.75031">
        <ele>731</ele>
        <time>2018-06-23T07:33:32.000Z</time>
      </trkpt>
      <trkpt lat="47.85842" lon="6.75031">
        <ele>731</ele>
        <time>2018-06-23T07:33:33.000Z</time>
      </trkpt>
      <trkpt lat="47.85842" lon="6.75031">
        <ele>731</ele>
        <time>2018-06-23T07:33:34.000Z</time>
      </trkpt>
      <trkpt lat="47.85841" lon="6.75031">
        <ele>731</ele>
        <time>2018-06-23T07:33:35.000Z</time>
      </trkpt>
      <trkpt lat="47.85841" lon="6.75031">
        <ele>731</ele>
        <time>2018-06-23T07:33:36.000Z</time>
      </trkpt>
      <trkpt lat="47.8584" lon="6.75031">
        <ele>731</ele>
        <time>2018-06-23T07:33:37.000Z</time>
      </trkpt>
      <trkpt lat="47.8584" lon="6.75031">
        <ele>731</ele>
        <time>2018-06-23T07:33:38.000Z</time>
      </trkpt>
      <trkpt lat="47.85839" lon="6.75031">
        <ele>731</ele>
        <time>2018-06-23T07:33:39.000Z</time>
      </trkpt>
      <trkpt lat="47.85838" lon="6.75031">
        <ele>731</ele>
        <time>2018-06-23T07:33:40.000Z</time>
      </trkpt>
      <trkpt lat="47.85838" lon="6.75031">
        <ele>731</ele>
        <time>2018-06-23T07:33:41.000Z</time>
      </trkpt>
      <trkpt lat="47.85837" lon="6.75032">
        <ele>731</ele>
        <time>2018-06-23T07:33:42.000Z</time>
      </trkpt>
      <trkpt lat="47.85836" lon="6.75032">
        <ele>731</ele>
        <time>2018-06-23T07:33:43.000Z</time>
      </trkpt>
      <trkpt lat="47.85836" lon="6.75033">
        <ele>731</ele>
        <time>2018-06-23T07:33:44.000Z</time>
      </trkpt>
      <trkpt lat="47.85835" lon="6.75033">
        <ele>731</ele>
        <time>2018-06-23T07:33:45.000Z</time>
      </trkpt>
      <trkpt lat="47.85835" lon="6.75034">
        <ele>731</ele>
        <time>2018-06-23T07:33:46.000Z</time>
      </trkpt>
      <trkpt lat="47.85835" lon="6.75034">
        <ele>731</ele>
        <time>2018-06-23T07:33:47.000Z</time>
      </trkpt>
      <trkpt lat="47.85835" lon="6.75034">
        <ele>731</ele>
        <time>2018-06-23T07:33:48.000Z</time>
      </trkpt>
      <trkpt lat="47.85835" lon="6.75034">
        <ele>731</ele>
        <time>2018-06-23T07:33:49.000Z</time>
      </trkpt>
      <trkpt lat="47.85835" lon="6.75034">
        <ele>731</ele>
        <time>2018-06-23T07:33:50.000Z</time>
      </trkpt>
      <trkpt lat="47.85832" lon="6.75034">
        <ele>727</ele>
        <time>2018-06-23T07:33:51.000Z</time>
      </trkpt>
      <trkpt lat="47.85832" lon="6.75034">
        <ele>727</ele>
        <time>2018-06-23T07:33:52.000Z</time>
      </trkpt>
      <trkpt lat="47.85833" lon="6.75034">
        <ele>727</ele>
        <time>2018-06-23T07:33:53.000Z</time>
      </trkpt>
      <trkpt lat="47.85833" lon="6.75033">
        <ele>727</ele>
        <time>2018-06-23T07:33:54.000Z</time>
      </trkpt>
      <trkpt lat="47.85832" lon="6.75036">
        <ele>726</ele>
        <time>2018-06-23T07:33:55.000Z</time>
      </trkpt>
      <trkpt lat="47.85832" lon="6.75036">
        <ele>726</ele>
        <time>2018-06-23T07:33:56.000Z</time>
      </trkpt>
      <trkpt lat="47.85832" lon="6.75036">
        <ele>726</ele>
        <time>2018-06-23T07:33:57.000Z</time>
      </trkpt>
      <trkpt lat="47.85833" lon="6.75034">
        <ele>727</ele>
        <time>2018-06-23T07:33:58.000Z</time>
      </trkpt>
      <trkpt lat="47.85833" lon="6.75034">
        <ele>727</ele>
        <time>2018-06-23T07:33:59.000Z</time>
      </trkpt>
      <trkpt lat="47.85833" lon="6.75034">
        <ele>727</ele>
        <time>2018-06-23T07:34:00.000Z</time>
      </trkpt>
      <trkpt lat="47.85834" lon="6.75033">
        <ele>731</ele>
        <time>2018-06-23T07:34:01.000Z</time>
      </trkpt>
      <trkpt lat="47.85834" lon="6.75033">
        <ele>731</ele>
        <time>2018-06-23T07:34:02.000Z</time>
      </trkpt>
      <trkpt lat="47.85834" lon="6.75035">
        <ele>731</ele>
        <time>2018-06-23T07:34:03.000Z</time>
      </trkpt>
      <trkpt lat="47.85833" lon="6.75035">
        <ele>726</ele>
        <time>2018-06-23T07:34:04.000Z</time>
      </trkpt>
      <trkpt lat="47.85833" lon="6.75035">
        <ele>726</ele>
        <time>2018-06-23T07:34:05.000Z</time>
      </trkpt>
      <trkpt lat="47.85833" lon="6.75034">
        <ele>727</ele>
        <time>2018-06-23T07:34:06.000Z</time>
      </trkpt>
      <trkpt lat="47.85832" lon="6.75034">
        <ele>727</ele>
        <time>2018-06-23T07:34:07.000Z</time>
      </trkpt>
      <trkpt lat="47.85832" lon="6.75033">
        <ele>727</ele>
        <time>2018-06-23T07:34:08.000Z</time>
      </trkpt>
      <trkpt lat="47.85833" lon="6.75033">
        <ele>727</ele>
        <time>2018-06-23T07:34:09.000Z</time>
      </trkpt>
      <trkpt lat="47.85833" lon="6.75033">
        <ele>727</ele>
        <time>2018-06-23T07:34:10.000Z</time>
      </trkpt>
      <trkpt lat="47.85833" lon="6.75033">
        <ele>727</ele>
        <time>2018-06-23T07:34:11.000Z</time>
      </trkpt>
      <trkpt lat="47.85833" lon="6.75033">
        <ele>727</ele>
        <time>2018-06-23T07:34:12.000Z</time>
      </trkpt>
      <trkpt lat="47.85832" lon="6.75033">
        <ele>727</ele>
        <time>2018-06-23T07:34:13.000Z</time>
      </trkpt>
      <trkpt lat="47.85832" lon="6.75034">
        <ele>727</ele>
        <time>2018-06-23T07:34:14.000Z</time>
      </trkpt>
      <trkpt lat="47.85832" lon="6.75034">
        <ele>727</ele>
        <time>2018-06-23T07:34:15.000Z</time>
      </trkpt>
      <trkpt lat="47.85832" lon="6.75033">
        <ele>727</ele>
        <time>2018-06-23T07:34:16.000Z</time>
      </trkpt>
      <trkpt lat="47.85832" lon="6.75032">
        <ele>727</ele>
        <time>2018-06-23T07:34:17.000Z</time>
      </trkpt>
      <trkpt lat="47.85832" lon="6.75032">
        <ele>727</ele>
        <time>2018-06-23T07:34:18.000Z</time>
      </trkpt>
      <trkpt lat="47.85831" lon="6.75031">
        <ele>727</ele>
        <time>2018-06-23T07:34:19.000Z</time>
      </trkpt>
      <trkpt lat="47.85831" lon="6.75031">
        <ele>727</ele>
        <time>2018-06-23T07:34:20.000Z</time>
      </trkpt>
      <trkpt lat="47.8583" lon="6.7503">
        <ele>727</ele>
        <time>2018-06-23T07:34:21.000Z</time>
      </trkpt>
      <trkpt lat="47.8583" lon="6.7503">
        <ele>727</ele>
        <time>2018-06-23T07:34:22.000Z</time>
      </trkpt>
      <trkpt lat="47.8583" lon="6.75029">
        <ele>727</ele>
        <time>2018-06-23T07:34:23.000Z</time>
      </trkpt>
      <trkpt lat="47.85829" lon="6.75028">
        <ele>727</ele>
        <time>2018-06-23T07:34:24.000Z</time>
      </trkpt>
      <trkpt lat="47.85829" lon="6.75027">
        <ele>727</ele>
        <time>2018-06-23T07:34:25.000Z</time>
      </trkpt>
      <trkpt lat="47.85828" lon="6.75027">
        <ele>727</ele>
        <time>2018-06-23T07:34:26.000Z</time>
      </trkpt>
      <trkpt lat="47.85828" lon="6.75026">
        <ele>728</ele>
        <time>2018-06-23T07:34:27.000Z</time>
      </trkpt>
      <trkpt lat="47.85827" lon="6.75025">
        <ele>728</ele>
        <time>2018-06-23T07:34:28.000Z</time>
      </trkpt>
      <trkpt lat="47.85827" lon="6.75024">
        <ele>728</ele>
        <time>2018-06-23T07:34:29.000Z</time>
      </trkpt>
      <trkpt lat="47.85826" lon="6.75023">
        <ele>728</ele>
        <time>2018-06-23T07:34:30.000Z</time>
      </trkpt>
      <trkpt lat="47.85825" lon="6.75021">
        <ele>728</ele>
        <time>2018-06-23T07:34:31.000Z</time>
      </trkpt>
      <trkpt lat="47.85825" lon="6.7502">
        <ele>728</ele>
        <time>2018-06-23T07:34:32.000Z</time>
      </trkpt>
      <trkpt lat="47.85824" lon="6.75019">
        <ele>729</ele>
        <time>2018-06-23T07:34:33.000Z</time>
      </trkpt>
      <trkpt lat="47.85824" lon="6.75018">
        <ele>729</ele>
        <time>2018-06-23T07:34:34.000Z</time>
      </trkpt>
      <trkpt lat="47.85823" lon="6.75017">
        <ele>729</ele>
        <time>2018-06-23T07:34:35.000Z</time>
      </trkpt>
      <trkpt lat="47.85823" lon="6.75015">
        <ele>729</ele>
        <time>2018-06-23T07:34:36.000Z</time>
      </trkpt>
      <trkpt lat="47.85823" lon="6.75014">
        <ele>729</ele>
        <time>2018-06-23T07:34:37.000Z</time>
      </trkpt>
      <trkpt lat="47.85823" lon="6.75013">
        <ele>730</ele>
        <time>2018-06-23T07:34:38.000Z</time>
      </trkpt>
      <trkpt lat="47.85822" lon="6.75012">
        <ele>730</ele>
        <time>2018-06-23T07:34:39.000Z</time>
      </trkpt>
      <trkpt lat="47.85822" lon="6.75012">
        <ele>730</ele>
        <time>2018-06-23T07:34:40.000Z</time>
      </trkpt>
      <trkpt lat="47.85822" lon="6.75011">
        <ele>730</ele>
        <time>2018-06-23T07:34:41.000Z</time>
      </trkpt>
      <trkpt lat="47.85822" lon="6.75011">
        <ele>730</ele>
        <time>2018-06-23T07:34:42.000Z</time>
      </trkpt>
      <trkpt lat="47.85822" lon="6.7501">
        <ele>730</ele>
        <time>2018-06-23T07:34:43.000Z</time>
      </trkpt>
      <trkpt lat="47.85822" lon="6.7501">
        <ele>730</ele>
        <time>2018-06-23T07:34:44.000Z</time>
      </trkpt>
      <trkpt lat="47.85822" lon="6.7501">
        <ele>730</ele>
        <time>2018-06-23T07:34:45.000Z</time>
      </trkpt>
      <trkpt lat="47.85822" lon="6.7501">
        <ele>730</ele>
        <time>2018-06-23T07:34:46.000Z</time>
      </trkpt>
      <trkpt lat="47.85821" lon="6.75011">
        <ele>730</ele>
        <time>2018-06-23T07:34:47.000Z</time>
      </trkpt>
      <trkpt lat="47.85821" lon="6.7501">
        <ele>730</ele>
        <time>2018-06-23T07:34:48.000Z</time>
      </trkpt>
      <trkpt lat="47.85821" lon="6.7501">
        <ele>730</ele>
        <time>2018-06-23T07:34:49.000Z</time>
      </trkpt>
      <trkpt lat="47.85821" lon="6.7501">
        <ele>730</ele>
        <time>2018-06-23T07:34:50.000Z</time>
      </trkpt>
      <trkpt lat="47.85821" lon="6.7501">
        <ele>730</ele>
        <time>2018-06-23T07:34:51.000Z</time>
      </trkpt>
      <trkpt lat="47.85821" lon="6.7501">
        <ele>730</ele>
        <time>2018-06-23T07:34:52.000Z</time>
      </trkpt>
      <trkpt lat="47.8582" lon="6.75009">
        <ele>730</ele>
        <time>2018-06-23T07:34:53.000Z</time>
      </trkpt>
      <trkpt lat="47.8582" lon="6.75009">
        <ele>730</ele>
        <time>2018-06-23T07:34:54.000Z</time>
      </trkpt>
      <trkpt lat="47.85819" lon="6.75009">
        <ele>730</ele>
        <time>2018-06-23T07:34:55.000Z</time>
      </trkpt>
      <trkpt lat="47.85819" lon="6.75009">
        <ele>730</ele>
        <time>2018-06-23T07:34:56.000Z</time>
      </trkpt>
      <trkpt lat="47.85819" lon="6.75009">
        <ele>729</ele>
        <time>2018-06-23T07:34:57.000Z</time>
      </trkpt>
      <trkpt lat="47.85818" lon="6.75009">
        <ele>729</ele>
        <time>2018-06-23T07:34:58.000Z</time>
      </trkpt>
      <trkpt lat="47.85817" lon="6.75009">
        <ele>729</ele>
        <time>2018-06-23T07:34:59.000Z</time>
      </trkpt>
      <trkpt lat="47.85817" lon="6.75008">
        <ele>729</ele>
        <time>2018-06-23T07:35:00.000Z</time>
      </trkpt>
      <trkpt lat="47.85816" lon="6.75008">
        <ele>729</ele>
        <time>2018-06-23T07:35:01.000Z</time>
      </trkpt>
      <trkpt lat="47.85816" lon="6.75008">
        <ele>729</ele>
        <time>2018-06-23T07:35:02.000Z</time>
      </trkpt>
      <trkpt lat="47.85816" lon="6.75008">
        <ele>729</ele>
        <time>2018-06-23T07:35:03.000Z</time>
      </trkpt>
      <trkpt lat="47.85815" lon="6.75007">
        <ele>729</ele>
        <time>2018-06-23T07:35:04.000Z</time>
      </trkpt>
      <trkpt lat="47.85814" lon="6.75008">
        <ele>728</ele>
        <time>2018-06-23T07:35:05.000Z</time>
      </trkpt>
      <trkpt lat="47.85814" lon="6.75008">
        <ele>728</ele>
        <time>2018-06-23T07:35:06.000Z</time>
      </trkpt>
      <trkpt lat="47.85813" lon="6.75008">
        <ele>728</ele>
        <time>2018-06-23T07:35:07.000Z</time>
      </trkpt>
      <trkpt lat="47.85812" lon="6.75009">
        <ele>728</ele>
        <time>2018-06-23T07:35:08.000Z</time>
      </trkpt>
      <trkpt lat="47.85812" lon="6.7501">
        <ele>727</ele>
        <time>2018-06-23T07:35:09.000Z</time>
      </trkpt>
      <trkpt lat="47.85812" lon="6.7501">
        <ele>727</ele>
        <time>2018-06-23T07:35:10.000Z</time>
      </trkpt>
      <trkpt lat="47.85812" lon="6.75011">
        <ele>727</ele>
        <time>2018-06-23T07:35:11.000Z</time>
      </trkpt>
      <trkpt lat="47.85811" lon="6.75013">
        <ele>727</ele>
        <time>2018-06-23T07:35:12.000Z</time>
      </trkpt>
      <trkpt lat="47.85811" lon="6.75014">
        <ele>727</ele>
        <time>2018-06-23T07:35:13.000Z</time>
      </trkpt>
      <trkpt lat="47.85812" lon="6.75015">
        <ele>727</ele>
        <time>2018-06-23T07:35:14.000Z</time>
      </trkpt>
      <trkpt lat="47.85812" lon="6.75016">
        <ele>727</ele>
        <time>2018-06-23T07:35:15.000Z</time>
      </trkpt>
      <trkpt lat="47.85812" lon="6.75017">
        <ele>727</ele>
        <time>2018-06-23T07:35:16.000Z</time>
      </trkpt>
      <trkpt lat="47.85812" lon="6.75018">
        <ele>726</ele>
        <time>2018-06-23T07:35:17.000Z</time>
      </trkpt>
      <trkpt lat="47.85812" lon="6.75018">
        <ele>726</ele>
        <time>2018-06-23T07:35:18.000Z</time>
      </trkpt>
      <trkpt lat="47.85813" lon="6.7502">
        <ele>726</ele>
        <time>2018-06-23T07:35:19.000Z</time>
      </trkpt>
      <trkpt lat="47.85813" lon="6.75021">
        <ele>726</ele>
        <time>2018-06-23T07:35:20.000Z</time>
      </trkpt>
      <trkpt lat="47.85813" lon="6.75022">
        <ele>726</ele>
        <time>2018-06-23T07:35:21.000Z</time>
      </trkpt>
      <trkpt lat="47.85813" lon="6.75023">
        <ele>726</ele>
        <time>2018-06-23T07:35:22.000Z</time>
      </trkpt>
      <trkpt lat="47.85813" lon="6.75024">
        <ele>726</ele>
        <time>2018-06-23T07:35:23.000Z</time>
      </trkpt>
      <trkpt lat="47.85814" lon="6.75025">
        <ele>726</ele>
        <time>2018-06-23T07:35:24.000Z</time>
      </trkpt>
      <trkpt lat="47.85814" lon="6.75026">
        <ele>726</ele>
        <time>2018-06-23T07:35:25.000Z</time>
      </trkpt>
      <trkpt lat="47.85814" lon="6.75026">
        <ele>726</ele>
        <time>2018-06-23T07:35:26.000Z</time>
      </trkpt>
      <trkpt lat="47.85814" lon="6.75027">
        <ele>726</ele>
        <time>2018-06-23T07:35:27.000Z</time>
      </trkpt>
      <trkpt lat="47.85814" lon="6.75028">
        <ele>725</ele>
        <time>2018-06-23T07:35:28.000Z</time>
      </trkpt>
      <trkpt lat="47.85814" lon="6.75028">
        <ele>725</ele>
        <time>2018-06-23T07:35:29.000Z</time>
      </trkpt>
      <trkpt lat="47.85814" lon="6.75028">
        <ele>725</ele>
        <time>2018-06-23T07:35:30.000Z</time>
      </trkpt>
      <trkpt lat="47.85814" lon="6.75029">
        <ele>725</ele>
        <time>2018-06-23T07:35:31.000Z</time>
      </trkpt>
      <trkpt lat="47.85814" lon="6.75029">
        <ele>725</ele>
        <time>2018-06-23T07:35:32.000Z</time>
      </trkpt>
      <trkpt lat="47.85815" lon="6.7503">
        <ele>725</ele>
        <time>2018-06-23T07:35:33.000Z</time>
      </trkpt>
      <trkpt lat="47.85816" lon="6.75032">
        <ele>725</ele>
        <time>2018-06-23T07:35:34.000Z</time>
      </trkpt>
      <trkpt lat="47.85816" lon="6.75033">
        <ele>725</ele>
        <time>2018-06-23T07:35:35.000Z</time>
      </trkpt>
      <trkpt lat="47.85817" lon="6.75035">
        <ele>725</ele>
        <time>2018-06-23T07:35:36.000Z</time>
      </trkpt>
      <trkpt lat="47.85817" lon="6.75036">
        <ele>725</ele>
        <time>2018-06-23T07:35:37.000Z</time>
      </trkpt>
      <trkpt lat="47.85818" lon="6.75037">
        <ele>725</ele>
        <time>2018-06-23T07:35:38.000Z</time>
      </trkpt>
      <trkpt lat="47.85818" lon="6.75038">
        <ele>725</ele>
        <time>2018-06-23T07:35:39.000Z</time>
      </trkpt>
      <trkpt lat="47.85818" lon="6.75039">
        <ele>725</ele>
        <time>2018-06-23T07:35:40.000Z</time>
      </trkpt>
      <trkpt lat="47.85819" lon="6.7504">
        <ele>725</ele>
        <time>2018-06-23T07:35:41.000Z</time>
      </trkpt>
      <trkpt lat="47.85819" lon="6.75042">
        <ele>725</ele>
        <time>2018-06-23T07:35:42.000Z</time>
      </trkpt>
      <trkpt lat="47.8582" lon="6.75043">
        <ele>725</ele>
        <time>2018-06-23T07:35:43.000Z</time>
      </trkpt>
      <trkpt lat="47.85821" lon="6.75043">
        <ele>725</ele>
        <time>2018-06-23T07:35:44.000Z</time>
      </trkpt>
      <trkpt lat="47.85821" lon="6.75045">
        <ele>725</ele>
        <time>2018-06-23T07:35:45.000Z</time>
      </trkpt>
      <trkpt lat="47.85821" lon="6.75046">
        <ele>725</ele>
        <time>2018-06-23T07:35:46.000Z</time>
      </trkpt>
      <trkpt lat="47.85822" lon="6.75047">
        <ele>725</ele>
        <time>2018-06-23T07:35:47.000Z</time>
      </trkpt>
      <trkpt lat="47.85822" lon="6.75048">
        <ele>725</ele>
        <time>2018-06-23T07:35:48.000Z</time>
      </trkpt>
      <trkpt lat="47.85823" lon="6.75049">
        <ele>725</ele>
        <time>2018-06-23T07:35:49.000Z</time>
      </trkpt>
      <trkpt lat="47.85823" lon="6.7505">
        <ele>725</ele>
        <time>2018-06-23T07:35:50.000Z</time>
      </trkpt>
      <trkpt lat="47.85824" lon="6.75051">
        <ele>725</ele>
        <time>2018-06-23T07:35:51.000Z</time>
      </trkpt>
      <trkpt lat="47.85824" lon="6.75052">
        <ele>725</ele>
        <time>2018-06-23T07:35:52.000Z</time>
      </trkpt>
      <trkpt lat="47.85825" lon="6.75054">
        <ele>725</ele>
        <time>2018-06-23T07:35:53.000Z</time>
      </trkpt>
      <trkpt lat="47.85825" lon="6.75055">
        <ele>725</ele>
        <time>2018-06-23T07:35:54.000Z</time>
      </trkpt>
      <trkpt lat="47.85826" lon="6.75057">
        <ele>725</ele>
        <time>2018-06-23T07:35:55.000Z</time>
      </trkpt>
      <trkpt lat="47.85826" lon="6.75058">
        <ele>725</ele>
        <time>2018-06-23T07:35:56.000Z</time>
      </trkpt>
      <trkpt lat="47.85826" lon="6.7506">
        <ele>725</ele>
        <time>2018-06-23T07:35:57.000Z</time>
      </trkpt>
      <trkpt lat="47.85827" lon="6.75062">
        <ele>725</ele>
        <time>2018-06-23T07:35:58.000Z</time>
      </trkpt>
      <trkpt lat="47.85827" lon="6.75063">
        <ele>725</ele>
        <time>2018-06-23T07:35:59.000Z</time>
      </trkpt>
      <trkpt lat="47.85827" lon="6.75064">
        <ele>725</ele>
        <time>2018-06-23T07:36:00.000Z</time>
      </trkpt>
      <trkpt lat="47.85827" lon="6.75065">
        <ele>725</ele>
        <time>2018-06-23T07:36:01.000Z</time>
      </trkpt>
      <trkpt lat="47.85827" lon="6.75065">
        <ele>725</ele>
        <time>2018-06-23T07:36:02.000Z</time>
      </trkpt>
      <trkpt lat="47.85828" lon="6.75066">
        <ele>725</ele>
        <time>2018-06-23T07:36:03.000Z</time>
      </trkpt>
      <trkpt lat="47.85828" lon="6.75067">
        <ele>725</ele>
        <time>2018-06-23T07:36:04.000Z</time>
      </trkpt>
      <trkpt lat="47.85829" lon="6.75068">
        <ele>726</ele>
        <time>2018-06-23T07:36:05.000Z</time>
      </trkpt>
      <trkpt lat="47.8583" lon="6.75069">
        <ele>726</ele>
        <time>2018-06-23T07:36:06.000Z</time>
      </trkpt>
      <trkpt lat="47.85831" lon="6.7507">
        <ele>726</ele>
        <time>2018-06-23T07:36:07.000Z</time>
      </trkpt>
      <trkpt lat="47.85831" lon="6.75071">
        <ele>726</ele>
        <time>2018-06-23T07:36:08.000Z</time>
      </trkpt>
      <trkpt lat="47.85832" lon="6.75072">
        <ele>726</ele>
        <time>2018-06-23T07:36:09.000Z</time>
      </trkpt>
      <trkpt lat="47.85833" lon="6.75073">
        <ele>727</ele>
        <time>2018-06-23T07:36:10.000Z</time>
      </trkpt>
      <trkpt lat="47.85833" lon="6.75074">
        <ele>727</ele>
        <time>2018-06-23T07:36:11.000Z</time>
      </trkpt>
      <trkpt lat="47.85834" lon="6.75075">
        <ele>729</ele>
        <time>2018-06-23T07:36:12.000Z</time>
      </trkpt>
      <trkpt lat="47.85834" lon="6.75076">
        <ele>729</ele>
        <time>2018-06-23T07:36:13.000Z</time>
      </trkpt>
      <trkpt lat="47.85834" lon="6.75077">
        <ele>729</ele>
        <time>2018-06-23T07:36:14.000Z</time>
      </trkpt>
      <trkpt lat="47.85834" lon="6.75077">
        <ele>729</ele>
        <time>2018-06-23T07:36:15.000Z</time>
      </trkpt>
      <trkpt lat="47.85835" lon="6.75077">
        <ele>729</ele>
        <time>2018-06-23T07:36:16.000Z</time>
      </trkpt>
      <trkpt lat="47.85834" lon="6.75077">
        <ele>729</ele>
        <time>2018-06-23T07:36:17.000Z</time>
      </trkpt>
      <trkpt lat="47.85834" lon="6.75077">
        <ele>729</ele>
        <time>2018-06-23T07:36:18.000Z</time>
      </trkpt>
      <trkpt lat="47.85834" lon="6.75077">
        <ele>729</ele>
        <time>2018-06-23T07:36:19.000Z</time>
      </trkpt>
      <trkpt lat="47.85835" lon="6.75077">
        <ele>729</ele>
        <time>2018-06-23T07:36:20.000Z</time>
      </trkpt>
      <trkpt lat="47.85835" lon="6.75077">
        <ele>729</ele>
        <time>2018-06-23T07:36:21.000Z</time>
      </trkpt>
      <trkpt lat="47.85835" lon="6.75077">
        <ele>729</ele>
        <time>2018-06-23T07:36:22.000Z</time>
      </trkpt>
      <trkpt lat="47.85835" lon="6.75077">
        <ele>729</ele>
        <time>2018-06-23T07:36:23.000Z</time>
      </trkpt>
      <trkpt lat="47.85835" lon="6.75077">
        <ele>729</ele>
        <time>2018-06-23T07:36:24.000Z</time>
      </trkpt>
      <trkpt lat="47.85835" lon="6.75077">
        <ele>729</ele>
        <time>2018-06-23T07:36:25.000Z</time>
      </trkpt>
      <trkpt lat="47.85835" lon="6.75077">
        <ele>729</ele>
        <time>2018-06-23T07:36:26.000Z</time>
      </trkpt>
      <trkpt lat="47.85835" lon="6.75078">
        <ele>729</ele>
        <time>2018-06-23T07:36:27.000Z</time>
      </trkpt>
      <trkpt lat="47.85835" lon="6.75078">
        <ele>729</ele>
        <time>2018-06-23T07:36:28.000Z</time>
      </trkpt>
      <trkpt lat="47.85836" lon="6.75079">
        <ele>729</ele>
        <time>2018-06-23T07:36:29.000Z</time>
      </trkpt>
      <trkpt lat="47.85836" lon="6.75081">
        <ele>729</ele>
        <time>2018-06-23T07:36:30.000Z</time>
      </trkpt>
      <trkpt lat="47.85837" lon="6.75083">
        <ele>729</ele>
        <time>2018-06-23T07:36:31.000Z</time>
      </trkpt>
      <trkpt lat="47.85838" lon="6.75085">
        <ele>728</ele>
        <time>2018-06-23T07:36:32.000Z</time>
      </trkpt>
      <trkpt lat="47.85838" lon="6.75087">
        <ele>727</ele>
        <time>2018-06-23T07:36:33.000Z</time>
      </trkpt>
      <trkpt lat="47.85839" lon="6.75089">
        <ele>727</ele>
        <time>2018-06-23T07:36:34.000Z</time>
      </trkpt>
      <trkpt lat="47.8584" lon="6.75091">
        <ele>726</ele>
        <time>2018-06-23T07:36:35.000Z</time>
      </trkpt>
      <trkpt lat="47.85841" lon="6.75092">
        <ele>726</ele>
        <time>2018-06-23T07:36:36.000Z</time>
      </trkpt>
      <trkpt lat="47.85842" lon="6.75093">
        <ele>726</ele>
        <time>2018-06-23T07:36:37.000Z</time>
      </trkpt>
      <trkpt lat="47.85843" lon="6.75094">
        <ele>725</ele>
        <time>2018-06-23T07:36:38.000Z</time>
      </trkpt>
      <trkpt lat="47.85844" lon="6.75095">
        <ele>725</ele>
        <time>2018-06-23T07:36:39.000Z</time>
      </trkpt>
      <trkpt lat="47.85845" lon="6.75097">
        <ele>725</ele>
        <time>2018-06-23T07:36:40.000Z</time>
      </trkpt>
      <trkpt lat="47.85846" lon="6.75099">
        <ele>724</ele>
        <time>2018-06-23T07:36:41.000Z</time>
      </trkpt>
      <trkpt lat="47.85846" lon="6.75101">
        <ele>724</ele>
        <time>2018-06-23T07:36:42.000Z</time>
      </trkpt>
      <trkpt lat="47.85847" lon="6.75102">
        <ele>724</ele>
        <time>2018-06-23T07:36:43.000Z</time>
      </trkpt>
      <trkpt lat="47.85848" lon="6.75103">
        <ele>724</ele>
        <time>2018-06-23T07:36:44.000Z</time>
      </trkpt>
      <trkpt lat="47.85849" lon="6.75104">
        <ele>724</ele>
        <time>2018-06-23T07:36:45.000Z</time>
      </trkpt>
      <trkpt lat="47.8585" lon="6.75105">
        <ele>723</ele>
        <time>2018-06-23T07:36:46.000Z</time>
      </trkpt>
      <trkpt lat="47.85851" lon="6.75105">
        <ele>723</ele>
        <time>2018-06-23T07:36:47.000Z</time>
      </trkpt>
      <trkpt lat="47.85852" lon="6.75106">
        <ele>723</ele>
        <time>2018-06-23T07:36:48.000Z</time>
      </trkpt>
      <trkpt lat="47.85853" lon="6.75107">
        <ele>723</ele>
        <time>2018-06-23T07:36:49.000Z</time>
      </trkpt>
      <trkpt lat="47.85854" lon="6.75108">
        <ele>723</ele>
        <time>2018-06-23T07:36:50.000Z</time>
      </trkpt>
      <trkpt lat="47.85855" lon="6.7511">
        <ele>723</ele>
        <time>2018-06-23T07:36:51.000Z</time>
      </trkpt>
      <trkpt lat="47.85856" lon="6.75111">
        <ele>722</ele>
        <time>2018-06-23T07:36:52.000Z</time>
      </trkpt>
      <trkpt lat="47.85857" lon="6.75112">
        <ele>722</ele>
        <time>2018-06-23T07:36:53.000Z</time>
      </trkpt>
      <trkpt lat="47.85858" lon="6.75113">
        <ele>722</ele>
        <time>2018-06-23T07:36:54.000Z</time>
      </trkpt>
      <trkpt lat="47.85858" lon="6.75114">
        <ele>722</ele>
        <time>2018-06-23T07:36:55.000Z</time>
      </trkpt>
      <trkpt lat="47.85859" lon="6.75114">
        <ele>722</ele>
        <time>2018-06-23T07:36:56.000Z</time>
      </trkpt>
      <trkpt lat="47.8586" lon="6.75115">
        <ele>722</ele>
        <time>2018-06-23T07:36:57.000Z</time>
      </trkpt>
      <trkpt lat="47.85862" lon="6.75115">
        <ele>722</ele>
        <time>2018-06-23T07:36:58.000Z</time>
      </trkpt>
      <trkpt lat="47.85862" lon="6.75116">
        <ele>722</ele>
        <time>2018-06-23T07:36:59.000Z</time>
      </trkpt>
      <trkpt lat="47.85863" lon="6.75116">
        <ele>722</ele>
        <time>2018-06-23T07:37:00.000Z</time>
      </trkpt>
      <trkpt lat="47.85864" lon="6.75115">
        <ele>722</ele>
        <time>2018-06-23T07:37:01.000Z</time>
      </trkpt>
      <trkpt lat="47.85865" lon="6.75115">
        <ele>722</ele>
        <time>2018-06-23T07:37:02.000Z</time>
      </trkpt>
      <trkpt lat="47.85865" lon="6.75115">
        <ele>722</ele>
        <time>2018-06-23T07:37:03.000Z</time>
      </trkpt>
      <trkpt lat="47.85865" lon="6.75114">
        <ele>722</ele>
        <time>2018-06-23T07:37:04.000Z</time>
      </trkpt>
      <trkpt lat="47.85865" lon="6.75114">
        <ele>722</ele>
        <time>2018-06-23T07:37:05.000Z</time>
      </trkpt>
      <trkpt lat="47.85866" lon="6.75114">
        <ele>722</ele>
        <time>2018-06-23T07:37:06.000Z</time>
      </trkpt>
      <trkpt lat="47.85866" lon="6.75114">
        <ele>722</ele>
        <time>2018-06-23T07:37:07.000Z</time>
      </trkpt>
      <trkpt lat="47.85866" lon="6.75114">
        <ele>722</ele>
        <time>2018-06-23T07:37:08.000Z</time>
      </trkpt>
      <trkpt lat="47.85866" lon="6.75114">
        <ele>722</ele>
        <time>2018-06-23T07:37:09.000Z</time>
      </trkpt>
      <trkpt lat="47.85866" lon="6.75114">
        <ele>722</ele>
        <time>2018-06-23T07:37:10.000Z</time>
      </trkpt>
      <trkpt lat="47.85866" lon="6.75114">
        <ele>722</ele>
        <time>2018-06-23T07:37:11.000Z</time>
      </trkpt>
      <trkpt lat="47.85866" lon="6.75114">
        <ele>722</ele>
        <time>2018-06-23T07:37:12.000Z</time>
      </trkpt>
      <trkpt lat="47.85866" lon="6.75114">
        <ele>722</ele>
        <time>2018-06-23T07:37:13.000Z</time>
      </trkpt>
      <trkpt lat="47.85866" lon="6.75114">
        <ele>722</ele>
        <time>2018-06-23T07:37:14.000Z</time>
      </trkpt>
      <trkpt lat="47.85866" lon="6.75114">
        <ele>722</ele>
        <time>2018-06-23T07:37:15.000Z</time>
      </trkpt>
      <trkpt lat="47.85866" lon="6.75114">
        <ele>722</ele>
        <time>2018-06-23T07:37:16.000Z</time>
      </trkpt>
      <trkpt lat="47.85866" lon="6.75114">
        <ele>722</ele>
        <time>2018-06-23T07:37:17.000Z</time>
      </trkpt>
      <trkpt lat="47.85866" lon="6.75115">
        <ele>722</ele>
        <time>2018-06-23T07:37:18.000Z</time>
      </trkpt>
      <trkpt lat="47.85866" lon="6.75115">
        <ele>722</ele>
        <time>2018-06-23T07:37:19.000Z</time>
      </trkpt>
      <trkpt lat="47.85866" lon="6.75115">
        <ele>722</ele>
        <time>2018-06-23T07:37:20.000Z</time>
      </trkpt>
      <trkpt lat="47.85867" lon="6.75116">
        <ele>722</ele>
        <time>2018-06-23T07:37:21.000Z</time>
      </trkpt>
      <trkpt lat="47.85867" lon="6.75116">
        <ele>722</ele>
        <time>2018-06-23T07:37:22.000Z</time>
      </trkpt>
      <trkpt lat="47.85867" lon="6.75116">
        <ele>722</ele>
        <time>2018-06-23T07:37:23.000Z</time>
      </trkpt>
      <trkpt lat="47.85868" lon="6.75116">
        <ele>722</ele>
        <time>2018-06-23T07:37:24.000Z</time>
      </trkpt>
      <trkpt lat="47.85868" lon="6.75116">
        <ele>722</ele>
        <time>2018-06-23T07:37:25.000Z</time>
      </trkpt>
      <trkpt lat="47.85869" lon="6.75115">
        <ele>722</ele>
        <time>2018-06-23T07:37:26.000Z</time>
      </trkpt>
      <trkpt lat="47.8587" lon="6.75115">
        <ele>722</ele>
        <time>2018-06-23T07:37:27.000Z</time>
      </trkpt>
      <trkpt lat="47.85871" lon="6.75116">
        <ele>721</ele>
        <time>2018-06-23T07:37:28.000Z</time>
      </trkpt>
      <trkpt lat="47.85872" lon="6.75117">
        <ele>721</ele>
        <time>2018-06-23T07:37:29.000Z</time>
      </trkpt>
      <trkpt lat="47.85873" lon="6.75118">
        <ele>721</ele>
        <time>2018-06-23T07:37:30.000Z</time>
      </trkpt>
      <trkpt lat="47.85874" lon="6.75119">
        <ele>721</ele>
        <time>2018-06-23T07:37:31.000Z</time>
      </trkpt>
      <trkpt lat="47.85876" lon="6.75119">
        <ele>721</ele>
        <time>2018-06-23T07:37:32.000Z</time>
      </trkpt>
      <trkpt lat="47.85877" lon="6.7512">
        <ele>721</ele>
        <time>2018-06-23T07:37:33.000Z</time>
      </trkpt>
      <trkpt lat="47.85878" lon="6.7512">
        <ele>721</ele>
        <time>2018-06-23T07:37:34.000Z</time>
      </trkpt>
      <trkpt lat="47.8588" lon="6.7512">
        <ele>721</ele>
        <time>2018-06-23T07:37:35.000Z</time>
      </trkpt>
      <trkpt lat="47.85881" lon="6.75121">
        <ele>721</ele>
        <time>2018-06-23T07:37:36.000Z</time>
      </trkpt>
      <trkpt lat="47.85883" lon="6.75121">
        <ele>721</ele>
        <time>2018-06-23T07:37:37.000Z</time>
      </trkpt>
      <trkpt lat="47.85884" lon="6.75121">
        <ele>721</ele>
        <time>2018-06-23T07:37:38.000Z</time>
      </trkpt>
      <trkpt lat="47.85886" lon="6.75122">
        <ele>721</ele>
        <time>2018-06-23T07:37:39.000Z</time>
      </trkpt>
      <trkpt lat="47.85887" lon="6.75122">
        <ele>721</ele>
        <time>2018-06-23T07:37:40.000Z</time>
      </trkpt>
      <trkpt lat="47.85888" lon="6.75122">
        <ele>721</ele>
        <time>2018-06-23T07:37:41.000Z</time>
      </trkpt>
      <trkpt lat="47.85889" lon="6.75123">
        <ele>721</ele>
        <time>2018-06-23T07:37:42.000Z</time>
      </trkpt>
      <trkpt lat="47.85891" lon="6.75124">
        <ele>721</ele>
        <time>2018-06-23T07:37:43.000Z</time>
      </trkpt>
      <trkpt lat="47.85892" lon="6.75124">
        <ele>721</ele>
        <time>2018-06-23T07:37:44.000Z</time>
      </trkpt>
      <trkpt lat="47.85893" lon="6.75126">
        <ele>721</ele>
        <time>2018-06-23T07:37:45.000Z</time>
      </trkpt>
      <trkpt lat="47.85894" lon="6.75128">
        <ele>721</ele>
        <time>2018-06-23T07:37:46.000Z</time>
      </trkpt>
      <trkpt lat="47.85894" lon="6.7513">
        <ele>721</ele>
        <time>2018-06-23T07:37:47.000Z</time>
      </trkpt>
      <trkpt lat="47.85895" lon="6.75132">
        <ele>720</ele>
        <time>2018-06-23T07:37:48.000Z</time>
      </trkpt>
      <trkpt lat="47.85895" lon="6.75133">
        <ele>720</ele>
        <time>2018-06-23T07:37:49.000Z</time>
      </trkpt>
      <trkpt lat="47.85896" lon="6.75135">
        <ele>720</ele>
        <time>2018-06-23T07:37:50.000Z</time>
      </trkpt>
      <trkpt lat="47.85896" lon="6.75137">
        <ele>720</ele>
        <time>2018-06-23T07:37:51.000Z</time>
      </trkpt>
      <trkpt lat="47.85897" lon="6.75138">
        <ele>720</ele>
        <time>2018-06-23T07:37:52.000Z</time>
      </trkpt>
      <trkpt lat="47.85898" lon="6.7514">
        <ele>720</ele>
        <time>2018-06-23T07:37:53.000Z</time>
      </trkpt>
      <trkpt lat="47.85898" lon="6.75142">
        <ele>720</ele>
        <time>2018-06-23T07:37:54.000Z</time>
      </trkpt>
      <trkpt lat="47.85898" lon="6.75144">
        <ele>720</ele>
        <time>2018-06-23T07:37:55.000Z</time>
      </trkpt>
      <trkpt lat="47.85899" lon="6.75146">
        <ele>720</ele>
        <time>2018-06-23T07:37:56.000Z</time>
      </trkpt>
      <trkpt lat="47.85898" lon="6.75148">
        <ele>720</ele>
        <time>2018-06-23T07:37:57.000Z</time>
      </trkpt>
      <trkpt lat="47.85898" lon="6.75149">
        <ele>720</ele>
        <time>2018-06-23T07:37:58.000Z</time>
      </trkpt>
      <trkpt lat="47.85898" lon="6.7515">
        <ele>720</ele>
        <time>2018-06-23T07:37:59.000Z</time>
      </trkpt>
      <trkpt lat="47.85898" lon="6.75152">
        <ele>720</ele>
        <time>2018-06-23T07:38:00.000Z</time>
      </trkpt>
      <trkpt lat="47.85898" lon="6.75153">
        <ele>720</ele>
        <time>2018-06-23T07:38:01.000Z</time>
      </trkpt>
      <trkpt lat="47.85899" lon="6.75155">
        <ele>720</ele>
        <time>2018-06-23T07:38:02.000Z</time>
      </trkpt>
      <trkpt lat="47.859" lon="6.75156">
        <ele>720</ele>
        <time>2018-06-23T07:38:03.000Z</time>
      </trkpt>
      <trkpt lat="47.859" lon="6.75157">
        <ele>720</ele>
        <time>2018-06-23T07:38:04.000Z</time>
      </trkpt>
      <trkpt lat="47.85901" lon="6.75157">
        <ele>720</ele>
        <time>2018-06-23T07:38:05.000Z</time>
      </trkpt>
      <trkpt lat="47.85902" lon="6.75158">
        <ele>720</ele>
        <time>2018-06-23T07:38:06.000Z</time>
      </trkpt>
      <trkpt lat="47.85903" lon="6.75159">
        <ele>720</ele>
        <time>2018-06-23T07:38:07.000Z</time>
      </trkpt>
      <trkpt lat="47.85904" lon="6.75159">
        <ele>720</ele>
        <time>2018-06-23T07:38:08.000Z</time>
      </trkpt>
      <trkpt lat="47.85905" lon="6.7516">
        <ele>720</ele>
        <time>2018-06-23T07:38:09.000Z</time>
      </trkpt>
      <trkpt lat="47.85905" lon="6.7516">
        <ele>720</ele>
        <time>2018-06-23T07:38:10.000Z</time>
      </trkpt>
      <trkpt lat="47.85906" lon="6.7516">
        <ele>720</ele>
        <time>2018-06-23T07:38:11.000Z</time>
      </trkpt>
      <trkpt lat="47.85907" lon="6.7516">
        <ele>720</ele>
        <time>2018-06-23T07:38:12.000Z</time>
      </trkpt>
      <trkpt lat="47.85907" lon="6.7516">
        <ele>720</ele>
        <time>2018-06-23T07:38:13.000Z</time>
      </trkpt>
      <trkpt lat="47.85908" lon="6.7516">
        <ele>720</ele>
        <time>2018-06-23T07:38:14.000Z</time>
      </trkpt>
      <trkpt lat="47.85908" lon="6.7516">
        <ele>720</ele>
        <time>2018-06-23T07:38:15.000Z</time>
      </trkpt>
      <trkpt lat="47.85908" lon="6.7516">
        <ele>720</ele>
        <time>2018-06-23T07:38:16.000Z</time>
      </trkpt>
      <trkpt lat="47.85909" lon="6.75161">
        <ele>719</ele>
        <time>2018-06-23T07:38:17.000Z</time>
      </trkpt>
      <trkpt lat="47.8591" lon="6.75161">
        <ele>719</ele>
        <time>2018-06-23T07:38:18.000Z</time>
      </trkpt>
      <trkpt lat="47.8591" lon="6.75161">
        <ele>719</ele>
        <time>2018-06-23T07:38:19.000Z</time>
      </trkpt>
      <trkpt lat="47.85911" lon="6.75161">
        <ele>719</ele>
        <time>2018-06-23T07:38:20.000Z</time>
      </trkpt>
      <trkpt lat="47.85911" lon="6.75161">
        <ele>719</ele>
        <time>2018-06-23T07:38:21.000Z</time>
      </trkpt>
      <trkpt lat="47.85912" lon="6.75161">
        <ele>719</ele>
        <time>2018-06-23T07:38:22.000Z</time>
      </trkpt>
      <trkpt lat="47.85913" lon="6.75161">
        <ele>719</ele>
        <time>2018-06-23T07:38:23.000Z</time>
      </trkpt>
      <trkpt lat="47.85914" lon="6.75162">
        <ele>719</ele>
        <time>2018-06-23T07:38:24.000Z</time>
      </trkpt>
      <trkpt lat="47.85914" lon="6.75163">
        <ele>719</ele>
        <time>2018-06-23T07:38:25.000Z</time>
      </trkpt>
      <trkpt lat="47.85915" lon="6.75164">
        <ele>719</ele>
        <time>2018-06-23T07:38:26.000Z</time>
      </trkpt>
      <trkpt lat="47.85915" lon="6.75164">
        <ele>719</ele>
        <time>2018-06-23T07:38:27.000Z</time>
      </trkpt>
      <trkpt lat="47.85916" lon="6.75165">
        <ele>719</ele>
        <time>2018-06-23T07:38:28.000Z</time>
      </trkpt>
      <trkpt lat="47.85916" lon="6.75166">
        <ele>719</ele>
        <time>2018-06-23T07:38:29.000Z</time>
      </trkpt>
      <trkpt lat="47.85917" lon="6.75167">
        <ele>719</ele>
        <time>2018-06-23T07:38:30.000Z</time>
      </trkpt>
      <trkpt lat="47.85918" lon="6.75167">
        <ele>719</ele>
        <time>2018-06-23T07:38:31.000Z</time>
      </trkpt>
      <trkpt lat="47.85919" lon="6.75168">
        <ele>719</ele>
        <time>2018-06-23T07:38:32.000Z</time>
      </trkpt>
      <trkpt lat="47.85919" lon="6.75169">
        <ele>718</ele>
        <time>2018-06-23T07:38:33.000Z</time>
      </trkpt>
      <trkpt lat="47.8592" lon="6.7517">
        <ele>718</ele>
        <time>2018-06-23T07:38:34.000Z</time>
      </trkpt>
      <trkpt lat="47.85921" lon="6.75171">
        <ele>718</ele>
        <time>2018-06-23T07:38:35.000Z</time>
      </trkpt>
      <trkpt lat="47.85921" lon="6.75172">
        <ele>718</ele>
        <time>2018-06-23T07:38:36.000Z</time>
      </trkpt>
      <trkpt lat="47.85922" lon="6.75174">
        <ele>718</ele>
        <time>2018-06-23T07:38:37.000Z</time>
      </trkpt>
      <trkpt lat="47.85923" lon="6.75176">
        <ele>717</ele>
        <time>2018-06-23T07:38:38.000Z</time>
      </trkpt>
      <trkpt lat="47.85924" lon="6.75177">
        <ele>717</ele>
        <time>2018-06-23T07:38:39.000Z</time>
      </trkpt>
      <trkpt lat="47.85924" lon="6.75178">
        <ele>717</ele>
        <time>2018-06-23T07:38:40.000Z</time>
      </trkpt>
      <trkpt lat="47.85925" lon="6.75179">
        <ele>717</ele>
        <time>2018-06-23T07:38:41.000Z</time>
      </trkpt>
      <trkpt lat="47.85925" lon="6.7518">
        <ele>717</ele>
        <time>2018-06-23T07:38:42.000Z</time>
      </trkpt>
      <trkpt lat="47.85926" lon="6.75181">
        <ele>717</ele>
        <time>2018-06-23T07:38:43.000Z</time>
      </trkpt>
      <trkpt lat="47.85927" lon="6.75182">
        <ele>717</ele>
        <time>2018-06-23T07:38:44.000Z</time>
      </trkpt>
      <trkpt lat="47.85928" lon="6.75183">
        <ele>716</ele>
        <time>2018-06-23T07:38:45.000Z</time>
      </trkpt>
      <trkpt lat="47.85928" lon="6.75184">
        <ele>716</ele>
        <time>2018-06-23T07:38:46.000Z</time>
      </trkpt>
      <trkpt lat="47.85929" lon="6.75185">
        <ele>716</ele>
        <time>2018-06-23T07:38:47.000Z</time>
      </trkpt>
      <trkpt lat="47.8593" lon="6.75186">
        <ele>716</ele>
        <time>2018-06-23T07:38:48.000Z</time>
      </trkpt>
      <trkpt lat="47.8593" lon="6.75187">
        <ele>716</ele>
        <time>2018-06-23T07:38:49.000Z</time>
      </trkpt>
      <trkpt lat="47.85931" lon="6.75188">
        <ele>716</ele>
        <time>2018-06-23T07:38:50.000Z</time>
      </trkpt>
      <trkpt lat="47.85932" lon="6.75189">
        <ele>716</ele>
        <time>2018-06-23T07:38:51.000Z</time>
      </trkpt>
      <trkpt lat="47.85932" lon="6.75189">
        <ele>716</ele>
        <time>2018-06-23T07:38:52.000Z</time>
      </trkpt>
      <trkpt lat="47.85933" lon="6.7519">
        <ele>716</ele>
        <time>2018-06-23T07:38:53.000Z</time>
      </trkpt>
      <trkpt lat="47.85933" lon="6.75191">
        <ele>716</ele>
        <time>2018-06-23T07:38:54.000Z</time>
      </trkpt>
      <trkpt lat="47.85934" lon="6.75192">
        <ele>716</ele>
        <time>2018-06-23T07:38:55.000Z</time>
      </trkpt>
      <trkpt lat="47.85934" lon="6.75192">
        <ele>716</ele>
        <time>2018-06-23T07:38:56.000Z</time>
      </trkpt>
      <trkpt lat="47.85935" lon="6.75194">
        <ele>716</ele>
        <time>2018-06-23T07:38:57.000Z</time>
      </trkpt>
      <trkpt lat="47.85935" lon="6.75194">
        <ele>716</ele>
        <time>2018-06-23T07:38:58.000Z</time>
      </trkpt>
      <trkpt lat="47.85936" lon="6.75195">
        <ele>716</ele>
        <time>2018-06-23T07:38:59.000Z</time>
      </trkpt>
      <trkpt lat="47.85937" lon="6.75196">
        <ele>716</ele>
        <time>2018-06-23T07:39:00.000Z</time>
      </trkpt>
      <trkpt lat="47.85937" lon="6.75198">
        <ele>716</ele>
        <time>2018-06-23T07:39:01.000Z</time>
      </trkpt>
      <trkpt lat="47.85938" lon="6.75199">
        <ele>716</ele>
        <time>2018-06-23T07:39:02.000Z</time>
      </trkpt>
      <trkpt lat="47.85939" lon="6.752">
        <ele>716</ele>
        <time>2018-06-23T07:39:03.000Z</time>
      </trkpt>
      <trkpt lat="47.8594" lon="6.75201">
        <ele>716</ele>
        <time>2018-06-23T07:39:04.000Z</time>
      </trkpt>
      <trkpt lat="47.8594" lon="6.75202">
        <ele>716</ele>
        <time>2018-06-23T07:39:05.000Z</time>
      </trkpt>
      <trkpt lat="47.85941" lon="6.75203">
        <ele>716</ele>
        <time>2018-06-23T07:39:06.000Z</time>
      </trkpt>
      <trkpt lat="47.85942" lon="6.75205">
        <ele>716</ele>
        <time>2018-06-23T07:39:07.000Z</time>
      </trkpt>
      <trkpt lat="47.85942" lon="6.75206">
        <ele>716</ele>
        <time>2018-06-23T07:39:08.000Z</time>
      </trkpt>
      <trkpt lat="47.85943" lon="6.75207">
        <ele>716</ele>
        <time>2018-06-23T07:39:09.000Z</time>
      </trkpt>
      <trkpt lat="47.85944" lon="6.75208">
        <ele>716</ele>
        <time>2018-06-23T07:39:10.000Z</time>
      </trkpt>
      <trkpt lat="47.85944" lon="6.7521">
        <ele>716</ele>
        <time>2018-06-23T07:39:11.000Z</time>
      </trkpt>
      <trkpt lat="47.85945" lon="6.75211">
        <ele>716</ele>
        <time>2018-06-23T07:39:12.000Z</time>
      </trkpt>
      <trkpt lat="47.85946" lon="6.75212">
        <ele>716</ele>
        <time>2018-06-23T07:39:13.000Z</time>
      </trkpt>
      <trkpt lat="47.85946" lon="6.75213">
        <ele>716</ele>
        <time>2018-06-23T07:39:14.000Z</time>
      </trkpt>
      <trkpt lat="47.85947" lon="6.75214">
        <ele>716</ele>
        <time>2018-06-23T07:39:15.000Z</time>
      </trkpt>
      <trkpt lat="47.85947" lon="6.75216">
        <ele>716</ele>
        <time>2018-06-23T07:39:16.000Z</time>
      </trkpt>
      <trkpt lat="47.85948" lon="6.75217">
        <ele>716</ele>
        <time>2018-06-23T07:39:17.000Z</time>
      </trkpt>
      <trkpt lat="47.85948" lon="6.75218">
        <ele>716</ele>
        <time>2018-06-23T07:39:18.000Z</time>
      </trkpt>
      <trkpt lat="47.85949" lon="6.75219">
        <ele>716</ele>
        <time>2018-06-23T07:39:19.000Z</time>
      </trkpt>
      <trkpt lat="47.8595" lon="6.75221">
        <ele>716</ele>
        <time>2018-06-23T07:39:20.000Z</time>
      </trkpt>
      <trkpt lat="47.8595" lon="6.75222">
        <ele>716</ele>
        <time>2018-06-23T07:39:21.000Z</time>
      </trkpt>
      <trkpt lat="47.8595" lon="6.75223">
        <ele>716</ele>
        <time>2018-06-23T07:39:22.000Z</time>
      </trkpt>
      <trkpt lat="47.85951" lon="6.75225">
        <ele>716</ele>
        <time>2018-06-23T07:39:23.000Z</time>
      </trkpt>
      <trkpt lat="47.85952" lon="6.75226">
        <ele>716</ele>
        <time>2018-06-23T07:39:24.000Z</time>
      </trkpt>
      <trkpt lat="47.85952" lon="6.75227">
        <ele>716</ele>
        <time>2018-06-23T07:39:25.000Z</time>
      </trkpt>
      <trkpt lat="47.85953" lon="6.75228">
        <ele>716</ele>
        <time>2018-06-23T07:39:26.000Z</time>
      </trkpt>
      <trkpt lat="47.85954" lon="6.7523">
        <ele>716</ele>
        <time>2018-06-23T07:39:27.000Z</time>
      </trkpt>
      <trkpt lat="47.85954" lon="6.75231">
        <ele>716</ele>
        <time>2018-06-23T07:39:28.000Z</time>
      </trkpt>
      <trkpt lat="47.85955" lon="6.75233">
        <ele>716</ele>
        <time>2018-06-23T07:39:29.000Z</time>
      </trkpt>
      <trkpt lat="47.85956" lon="6.75234">
        <ele>716</ele>
        <time>2018-06-23T07:39:30.000Z</time>
      </trkpt>
      <trkpt lat="47.85957" lon="6.75235">
        <ele>716</ele>
        <time>2018-06-23T07:39:31.000Z</time>
      </trkpt>
      <trkpt lat="47.85958" lon="6.75236">
        <ele>716</ele>
        <time>2018-06-23T07:39:32.000Z</time>
      </trkpt>
      <trkpt lat="47.85959" lon="6.75238">
        <ele>716</ele>
        <time>2018-06-23T07:39:33.000Z</time>
      </trkpt>
      <trkpt lat="47.8596" lon="6.75239">
        <ele>716</ele>
        <time>2018-06-23T07:39:34.000Z</time>
      </trkpt>
      <trkpt lat="47.8596" lon="6.7524">
        <ele>716</ele>
        <time>2018-06-23T07:39:35.000Z</time>
      </trkpt>
      <trkpt lat="47.85961" lon="6.75241">
        <ele>716</ele>
        <time>2018-06-23T07:39:36.000Z</time>
      </trkpt>
      <trkpt lat="47.85962" lon="6.75242">
        <ele>716</ele>
        <time>2018-06-23T07:39:37.000Z</time>
      </trkpt>
      <trkpt lat="47.85962" lon="6.75243">
        <ele>715</ele>
        <time>2018-06-23T07:39:38.000Z</time>
      </trkpt>
      <trkpt lat="47.85963" lon="6.75243">
        <ele>715</ele>
        <time>2018-06-23T07:39:39.000Z</time>
      </trkpt>
      <trkpt lat="47.85964" lon="6.75244">
        <ele>715</ele>
        <time>2018-06-23T07:39:40.000Z</time>
      </trkpt>
      <trkpt lat="47.85965" lon="6.75245">
        <ele>715</ele>
        <time>2018-06-23T07:39:41.000Z</time>
      </trkpt>
      <trkpt lat="47.85966" lon="6.75246">
        <ele>715</ele>
        <time>2018-06-23T07:39:42.000Z</time>
      </trkpt>
      <trkpt lat="47.85967" lon="6.75246">
        <ele>715</ele>
        <time>2018-06-23T07:39:43.000Z</time>
      </trkpt>
      <trkpt lat="47.85968" lon="6.75247">
        <ele>714</ele>
        <time>2018-06-23T07:39:44.000Z</time>
      </trkpt>
      <trkpt lat="47.85968" lon="6.75247">
        <ele>714</ele>
        <time>2018-06-23T07:39:45.000Z</time>
      </trkpt>
      <trkpt lat="47.85969" lon="6.75247">
        <ele>714</ele>
        <time>2018-06-23T07:39:46.000Z</time>
      </trkpt>
      <trkpt lat="47.8597" lon="6.75248">
        <ele>714</ele>
        <time>2018-06-23T07:39:47.000Z</time>
      </trkpt>
      <trkpt lat="47.85971" lon="6.75248">
        <ele>714</ele>
        <time>2018-06-23T07:39:48.000Z</time>
      </trkpt>
      <trkpt lat="47.85971" lon="6.75249">
        <ele>714</ele>
        <time>2018-06-23T07:39:49.000Z</time>
      </trkpt>
      <trkpt lat="47.85972" lon="6.7525">
        <ele>714</ele>
        <time>2018-06-23T07:39:50.000Z</time>
      </trkpt>
      <trkpt lat="47.85973" lon="6.7525">
        <ele>723</ele>
        <time>2018-06-23T07:39:51.000Z</time>
      </trkpt>
      <trkpt lat="47.85974" lon="6.75251">
        <ele>722</ele>
        <time>2018-06-23T07:39:52.000Z</time>
      </trkpt>
      <trkpt lat="47.85974" lon="6.75251">
        <ele>722</ele>
        <time>2018-06-23T07:39:53.000Z</time>
      </trkpt>
      <trkpt lat="47.85975" lon="6.75252">
        <ele>722</ele>
        <time>2018-06-23T07:39:54.000Z</time>
      </trkpt>
      <trkpt lat="47.85976" lon="6.75252">
        <ele>722</ele>
        <time>2018-06-23T07:39:55.000Z</time>
      </trkpt>
      <trkpt lat="47.85977" lon="6.75253">
        <ele>721</ele>
        <time>2018-06-23T07:39:56.000Z</time>
      </trkpt>
      <trkpt lat="47.85978" lon="6.75254">
        <ele>721</ele>
        <time>2018-06-23T07:39:57.000Z</time>
      </trkpt>
      <trkpt lat="47.85978" lon="6.75255">
        <ele>721</ele>
        <time>2018-06-23T07:39:58.000Z</time>
      </trkpt>
      <trkpt lat="47.85979" lon="6.75256">
        <ele>721</ele>
        <time>2018-06-23T07:39:59.000Z</time>
      </trkpt>
      <trkpt lat="47.85979" lon="6.75256">
        <ele>721</ele>
        <time>2018-06-23T07:40:00.000Z</time>
      </trkpt>
      <trkpt lat="47.85979" lon="6.75256">
        <ele>721</ele>
        <time>2018-06-23T07:40:01.000Z</time>
      </trkpt>
      <trkpt lat="47.85979" lon="6.75256">
        <ele>721</ele>
        <time>2018-06-23T07:40:02.000Z</time>
      </trkpt>
      <trkpt lat="47.8598" lon="6.75257">
        <ele>721</ele>
        <time>2018-06-23T07:40:03.000Z</time>
      </trkpt>
      <trkpt lat="47.8598" lon="6.75257">
        <ele>721</ele>
        <time>2018-06-23T07:40:04.000Z</time>
      </trkpt>
      <trkpt lat="47.85981" lon="6.75258">
        <ele>721</ele>
        <time>2018-06-23T07:40:05.000Z</time>
      </trkpt>
      <trkpt lat="47.85981" lon="6.75259">
        <ele>720</ele>
        <time>2018-06-23T07:40:06.000Z</time>
      </trkpt>
      <trkpt lat="47.85982" lon="6.75259">
        <ele>720</ele>
        <time>2018-06-23T07:40:07.000Z</time>
      </trkpt>
      <trkpt lat="47.85983" lon="6.7526">
        <ele>720</ele>
        <time>2018-06-23T07:40:08.000Z</time>
      </trkpt>
      <trkpt lat="47.85984" lon="6.75261">
        <ele>720</ele>
        <time>2018-06-23T07:40:09.000Z</time>
      </trkpt>
      <trkpt lat="47.85985" lon="6.75262">
        <ele>720</ele>
        <time>2018-06-23T07:40:10.000Z</time>
      </trkpt>
      <trkpt lat="47.85987" lon="6.75263">
        <ele>720</ele>
        <time>2018-06-23T07:40:11.000Z</time>
      </trkpt>
      <trkpt lat="47.85988" lon="6.75264">
        <ele>719</ele>
        <time>2018-06-23T07:40:12.000Z</time>
      </trkpt>
      <trkpt lat="47.85989" lon="6.75265">
        <ele>719</ele>
        <time>2018-06-23T07:40:13.000Z</time>
      </trkpt>
      <trkpt lat="47.8599" lon="6.75266">
        <ele>719</ele>
        <time>2018-06-23T07:40:14.000Z</time>
      </trkpt>
      <trkpt lat="47.85991" lon="6.75267">
        <ele>719</ele>
        <time>2018-06-23T07:40:15.000Z</time>
      </trkpt>
      <trkpt lat="47.85993" lon="6.75267">
        <ele>719</ele>
        <time>2018-06-23T07:40:16.000Z</time>
      </trkpt>
      <trkpt lat="47.85994" lon="6.75268">
        <ele>719</ele>
        <time>2018-06-23T07:40:17.000Z</time>
      </trkpt>
      <trkpt lat="47.85995" lon="6.75269">
        <ele>720</ele>
        <time>2018-06-23T07:40:18.000Z</time>
      </trkpt>
      <trkpt lat="47.85996" lon="6.75271">
        <ele>720</ele>
        <time>2018-06-23T07:40:19.000Z</time>
      </trkpt>
      <trkpt lat="47.85997" lon="6.75272">
        <ele>720</ele>
        <time>2018-06-23T07:40:20.000Z</time>
      </trkpt>
      <trkpt lat="47.85999" lon="6.75273">
        <ele>720</ele>
        <time>2018-06-23T07:40:21.000Z</time>
      </trkpt>
      <trkpt lat="47.86" lon="6.75274">
        <ele>721</ele>
        <time>2018-06-23T07:40:22.000Z</time>
      </trkpt>
      <trkpt lat="47.86001" lon="6.75275">
        <ele>703</ele>
        <time>2018-06-23T07:40:23.000Z</time>
      </trkpt>
      <trkpt lat="47.86002" lon="6.75277">
        <ele>703</ele>
        <time>2018-06-23T07:40:24.000Z</time>
      </trkpt>
      <trkpt lat="47.86004" lon="6.75278">
        <ele>703</ele>
        <time>2018-06-23T07:40:25.000Z</time>
      </trkpt>
      <trkpt lat="47.86005" lon="6.7528">
        <ele>703</ele>
        <time>2018-06-23T07:40:26.000Z</time>
      </trkpt>
      <trkpt lat="47.86005" lon="6.75281">
        <ele>703</ele>
        <time>2018-06-23T07:40:27.000Z</time>
      </trkpt>
      <trkpt lat="47.86006" lon="6.75282">
        <ele>703</ele>
        <time>2018-06-23T07:40:28.000Z</time>
      </trkpt>
      <trkpt lat="47.86007" lon="6.75283">
        <ele>703</ele>
        <time>2018-06-23T07:40:29.000Z</time>
      </trkpt>
      <trkpt lat="47.86008" lon="6.75285">
        <ele>703</ele>
        <time>2018-06-23T07:40:30.000Z</time>
      </trkpt>
      <trkpt lat="47.86008" lon="6.75286">
        <ele>703</ele>
        <time>2018-06-23T07:40:31.000Z</time>
      </trkpt>
      <trkpt lat="47.86009" lon="6.75287">
        <ele>703</ele>
        <time>2018-06-23T07:40:32.000Z</time>
      </trkpt>
      <trkpt lat="47.8601" lon="6.75287">
        <ele>703</ele>
        <time>2018-06-23T07:40:33.000Z</time>
      </trkpt>
      <trkpt lat="47.86011" lon="6.75288">
        <ele>703</ele>
        <time>2018-06-23T07:40:34.000Z</time>
      </trkpt>
      <trkpt lat="47.86011" lon="6.75289">
        <ele>703</ele>
        <time>2018-06-23T07:40:35.000Z</time>
      </trkpt>
      <trkpt lat="47.86012" lon="6.7529">
        <ele>703</ele>
        <time>2018-06-23T07:40:36.000Z</time>
      </trkpt>
      <trkpt lat="47.86013" lon="6.75291">
        <ele>703</ele>
        <time>2018-06-23T07:40:37.000Z</time>
      </trkpt>
      <trkpt lat="47.86013" lon="6.75293">
        <ele>703</ele>
        <time>2018-06-23T07:40:38.000Z</time>
      </trkpt>
      <trkpt lat="47.86014" lon="6.75294">
        <ele>703</ele>
        <time>2018-06-23T07:40:39.000Z</time>
      </trkpt>
      <trkpt lat="47.86014" lon="6.75295">
        <ele>703</ele>
        <time>2018-06-23T07:40:40.000Z</time>
      </trkpt>
      <trkpt lat="47.86015" lon="6.75296">
        <ele>703</ele>
        <time>2018-06-23T07:40:41.000Z</time>
      </trkpt>
      <trkpt lat="47.86015" lon="6.75297">
        <ele>703</ele>
        <time>2018-06-23T07:40:42.000Z</time>
      </trkpt>
      <trkpt lat="47.86015" lon="6.75298">
        <ele>703</ele>
        <time>2018-06-23T07:40:43.000Z</time>
      </trkpt>
      <trkpt lat="47.86015" lon="6.75299">
        <ele>703</ele>
        <time>2018-06-23T07:40:44.000Z</time>
      </trkpt>
      <trkpt lat="47.86016" lon="6.75301">
        <ele>704</ele>
        <time>2018-06-23T07:40:45.000Z</time>
      </trkpt>
      <trkpt lat="47.86017" lon="6.75302">
        <ele>704</ele>
        <time>2018-06-23T07:40:46.000Z</time>
      </trkpt>
      <trkpt lat="47.86017" lon="6.75303">
        <ele>704</ele>
        <time>2018-06-23T07:40:47.000Z</time>
      </trkpt>
      <trkpt lat="47.86018" lon="6.75304">
        <ele>704</ele>
        <time>2018-06-23T07:40:48.000Z</time>
      </trkpt>
      <trkpt lat="47.86018" lon="6.75305">
        <ele>704</ele>
        <time>2018-06-23T07:40:49.000Z</time>
      </trkpt>
      <trkpt lat="47.86019" lon="6.75306">
        <ele>704</ele>
        <time>2018-06-23T07:40:50.000Z</time>
      </trkpt>
      <trkpt lat="47.8602" lon="6.75307">
        <ele>704</ele>
        <time>2018-06-23T07:40:51.000Z</time>
      </trkpt>
      <trkpt lat="47.8602" lon="6.75308">
        <ele>704</ele>
        <time>2018-06-23T07:40:52.000Z</time>
      </trkpt>
      <trkpt lat="47.86021" lon="6.75309">
        <ele>704</ele>
        <time>2018-06-23T07:40:53.000Z</time>
      </trkpt>
      <trkpt lat="47.86022" lon="6.7531">
        <ele>704</ele>
        <time>2018-06-23T07:40:54.000Z</time>
      </trkpt>
      <trkpt lat="47.86022" lon="6.75311">
        <ele>704</ele>
        <time>2018-06-23T07:40:55.000Z</time>
      </trkpt>
      <trkpt lat="47.86023" lon="6.75313">
        <ele>704</ele>
        <time>2018-06-23T07:40:56.000Z</time>
      </trkpt>
      <trkpt lat="47.86024" lon="6.75314">
        <ele>704</ele>
        <time>2018-06-23T07:40:57.000Z</time>
      </trkpt>
      <trkpt lat="47.86025" lon="6.75315">
        <ele>704</ele>
        <time>2018-06-23T07:40:58.000Z</time>
      </trkpt>
      <trkpt lat="47.86025" lon="6.75315">
        <ele>704</ele>
        <time>2018-06-23T07:40:59.000Z</time>
      </trkpt>
      <trkpt lat="47.86026" lon="6.75316">
        <ele>704</ele>
        <time>2018-06-23T07:41:00.000Z</time>
      </trkpt>
      <trkpt lat="47.86027" lon="6.75318">
        <ele>704</ele>
        <time>2018-06-23T07:41:01.000Z</time>
      </trkpt>
      <trkpt lat="47.86028" lon="6.75319">
        <ele>704</ele>
        <time>2018-06-23T07:41:02.000Z</time>
      </trkpt>
      <trkpt lat="47.86029" lon="6.7532">
        <ele>704</ele>
        <time>2018-06-23T07:41:03.000Z</time>
      </trkpt>
      <trkpt lat="47.8603" lon="6.75321">
        <ele>703</ele>
        <time>2018-06-23T07:41:04.000Z</time>
      </trkpt>
      <trkpt lat="47.86031" lon="6.75322">
        <ele>703</ele>
        <time>2018-06-23T07:41:05.000Z</time>
      </trkpt>
      <trkpt lat="47.86032" lon="6.75323">
        <ele>703</ele>
        <time>2018-06-23T07:41:06.000Z</time>
      </trkpt>
      <trkpt lat="47.86033" lon="6.75325">
        <ele>703</ele>
        <time>2018-06-23T07:41:07.000Z</time>
      </trkpt>
      <trkpt lat="47.86034" lon="6.75326">
        <ele>702</ele>
        <time>2018-06-23T07:41:08.000Z</time>
      </trkpt>
      <trkpt lat="47.86035" lon="6.75327">
        <ele>702</ele>
        <time>2018-06-23T07:41:09.000Z</time>
      </trkpt>
      <trkpt lat="47.86035" lon="6.75328">
        <ele>702</ele>
        <time>2018-06-23T07:41:10.000Z</time>
      </trkpt>
      <trkpt lat="47.86036" lon="6.75329">
        <ele>702</ele>
        <time>2018-06-23T07:41:11.000Z</time>
      </trkpt>
      <trkpt lat="47.86037" lon="6.7533">
        <ele>702</ele>
        <time>2018-06-23T07:41:12.000Z</time>
      </trkpt>
      <trkpt lat="47.86037" lon="6.75332">
        <ele>702</ele>
        <time>2018-06-23T07:41:13.000Z</time>
      </trkpt>
      <trkpt lat="47.86038" lon="6.75333">
        <ele>701</ele>
        <time>2018-06-23T07:41:14.000Z</time>
      </trkpt>
      <trkpt lat="47.86039" lon="6.75334">
        <ele>710</ele>
        <time>2018-06-23T07:41:15.000Z</time>
      </trkpt>
      <trkpt lat="47.86039" lon="6.75335">
        <ele>710</ele>
        <time>2018-06-23T07:41:16.000Z</time>
      </trkpt>
      <trkpt lat="47.8604" lon="6.75336">
        <ele>710</ele>
        <time>2018-06-23T07:41:17.000Z</time>
      </trkpt>
      <trkpt lat="47.86041" lon="6.75338">
        <ele>710</ele>
        <time>2018-06-23T07:41:18.000Z</time>
      </trkpt>
      <trkpt lat="47.86042" lon="6.75339">
        <ele>710</ele>
        <time>2018-06-23T07:41:19.000Z</time>
      </trkpt>
      <trkpt lat="47.86042" lon="6.75341">
        <ele>709</ele>
        <time>2018-06-23T07:41:20.000Z</time>
      </trkpt>
      <trkpt lat="47.86043" lon="6.75343">
        <ele>709</ele>
        <time>2018-06-23T07:41:21.000Z</time>
      </trkpt>
      <trkpt lat="47.86044" lon="6.75345">
        <ele>709</ele>
        <time>2018-06-23T07:41:22.000Z</time>
      </trkpt>
      <trkpt lat="47.86045" lon="6.75346">
        <ele>709</ele>
        <time>2018-06-23T07:41:23.000Z</time>
      </trkpt>
      <trkpt lat="47.86046" lon="6.75348">
        <ele>709</ele>
        <time>2018-06-23T07:41:24.000Z</time>
      </trkpt>
      <trkpt lat="47.86046" lon="6.7535">
        <ele>709</ele>
        <time>2018-06-23T07:41:25.000Z</time>
      </trkpt>
      <trkpt lat="47.86047" lon="6.75351">
        <ele>709</ele>
        <time>2018-06-23T07:41:26.000Z</time>
      </trkpt>
      <trkpt lat="47.86048" lon="6.75353">
        <ele>709</ele>
        <time>2018-06-23T07:41:27.000Z</time>
      </trkpt>
      <trkpt lat="47.86048" lon="6.75354">
        <ele>709</ele>
        <time>2018-06-23T07:41:28.000Z</time>
      </trkpt>
      <trkpt lat="47.86049" lon="6.75356">
        <ele>708</ele>
        <time>2018-06-23T07:41:29.000Z</time>
      </trkpt>
      <trkpt lat="47.86049" lon="6.75357">
        <ele>708</ele>
        <time>2018-06-23T07:41:30.000Z</time>
      </trkpt>
      <trkpt lat="47.8605" lon="6.75359">
        <ele>708</ele>
        <time>2018-06-23T07:41:31.000Z</time>
      </trkpt>
      <trkpt lat="47.86051" lon="6.75361">
        <ele>708</ele>
        <time>2018-06-23T07:41:32.000Z</time>
      </trkpt>
      <trkpt lat="47.86051" lon="6.75363">
        <ele>709</ele>
        <time>2018-06-23T07:41:33.000Z</time>
      </trkpt>
      <trkpt lat="47.86052" lon="6.75364">
        <ele>709</ele>
        <time>2018-06-23T07:41:34.000Z</time>
      </trkpt>
      <trkpt lat="47.86052" lon="6.75366">
        <ele>709</ele>
        <time>2018-06-23T07:41:35.000Z</time>
      </trkpt>
      <trkpt lat="47.86053" lon="6.75367">
        <ele>709</ele>
        <time>2018-06-23T07:41:36.000Z</time>
      </trkpt>
      <trkpt lat="47.86053" lon="6.75369">
        <ele>709</ele>
        <time>2018-06-23T07:41:37.000Z</time>
      </trkpt>
      <trkpt lat="47.86054" lon="6.75371">
        <ele>709</ele>
        <time>2018-06-23T07:41:38.000Z</time>
      </trkpt>
      <trkpt lat="47.86055" lon="6.75372">
        <ele>709</ele>
        <time>2018-06-23T07:41:39.000Z</time>
      </trkpt>
      <trkpt lat="47.86056" lon="6.75374">
        <ele>709</ele>
        <time>2018-06-23T07:41:40.000Z</time>
      </trkpt>
      <trkpt lat="47.86057" lon="6.75375">
        <ele>708</ele>
        <time>2018-06-23T07:41:41.000Z</time>
      </trkpt>
      <trkpt lat="47.86058" lon="6.75377">
        <ele>708</ele>
        <time>2018-06-23T07:41:42.000Z</time>
      </trkpt>
      <trkpt lat="47.86059" lon="6.75378">
        <ele>708</ele>
        <time>2018-06-23T07:41:43.000Z</time>
      </trkpt>
      <trkpt lat="47.8606" lon="6.7538">
        <ele>708</ele>
        <time>2018-06-23T07:41:44.000Z</time>
      </trkpt>
      <trkpt lat="47.8606" lon="6.75382">
        <ele>708</ele>
        <time>2018-06-23T07:41:45.000Z</time>
      </trkpt>
      <trkpt lat="47.86061" lon="6.75383">
        <ele>708</ele>
        <time>2018-06-23T07:41:46.000Z</time>
      </trkpt>
      <trkpt lat="47.86062" lon="6.75384">
        <ele>708</ele>
        <time>2018-06-23T07:41:47.000Z</time>
      </trkpt>
      <trkpt lat="47.86062" lon="6.75385">
        <ele>708</ele>
        <time>2018-06-23T07:41:48.000Z</time>
      </trkpt>
      <trkpt lat="47.86063" lon="6.75386">
        <ele>708</ele>
        <time>2018-06-23T07:41:49.000Z</time>
      </trkpt>
      <trkpt lat="47.86063" lon="6.75387">
        <ele>708</ele>
        <time>2018-06-23T07:41:50.000Z</time>
      </trkpt>
      <trkpt lat="47.86064" lon="6.75389">
        <ele>708</ele>
        <time>2018-06-23T07:41:51.000Z</time>
      </trkpt>
      <trkpt lat="47.86065" lon="6.7539">
        <ele>708</ele>
        <time>2018-06-23T07:41:52.000Z</time>
      </trkpt>
      <trkpt lat="47.86066" lon="6.75391">
        <ele>707</ele>
        <time>2018-06-23T07:41:53.000Z</time>
      </trkpt>
      <trkpt lat="47.86067" lon="6.75393">
        <ele>707</ele>
        <time>2018-06-23T07:41:54.000Z</time>
      </trkpt>
      <trkpt lat="47.86067" lon="6.75394">
        <ele>707</ele>
        <time>2018-06-23T07:41:55.000Z</time>
      </trkpt>
      <trkpt lat="47.86068" lon="6.75395">
        <ele>707</ele>
        <time>2018-06-23T07:41:56.000Z</time>
      </trkpt>
      <trkpt lat="47.86069" lon="6.75396">
        <ele>707</ele>
        <time>2018-06-23T07:41:57.000Z</time>
      </trkpt>
      <trkpt lat="47.86069" lon="6.75397">
        <ele>707</ele>
        <time>2018-06-23T07:41:58.000Z</time>
      </trkpt>
      <trkpt lat="47.8607" lon="6.75399">
        <ele>706</ele>
        <time>2018-06-23T07:41:59.000Z</time>
      </trkpt>
      <trkpt lat="47.86071" lon="6.754">
        <ele>706</ele>
        <time>2018-06-23T07:42:00.000Z</time>
      </trkpt>
      <trkpt lat="47.86071" lon="6.75402">
        <ele>706</ele>
        <time>2018-06-23T07:42:01.000Z</time>
      </trkpt>
      <trkpt lat="47.86072" lon="6.75403">
        <ele>705</ele>
        <time>2018-06-23T07:42:02.000Z</time>
      </trkpt>
      <trkpt lat="47.86072" lon="6.75404">
        <ele>705</ele>
        <time>2018-06-23T07:42:03.000Z</time>
      </trkpt>
      <trkpt lat="47.86072" lon="6.75405">
        <ele>705</ele>
        <time>2018-06-23T07:42:04.000Z</time>
      </trkpt>
      <trkpt lat="47.86073" lon="6.75407">
        <ele>705</ele>
        <time>2018-06-23T07:42:05.000Z</time>
      </trkpt>
      <trkpt lat="47.86073" lon="6.75409">
        <ele>704</ele>
        <time>2018-06-23T07:42:06.000Z</time>
      </trkpt>
      <trkpt lat="47.86074" lon="6.7541">
        <ele>704</ele>
        <time>2018-06-23T07:42:07.000Z</time>
      </trkpt>
      <trkpt lat="47.86074" lon="6.75412">
        <ele>703</ele>
        <time>2018-06-23T07:42:08.000Z</time>
      </trkpt>
      <trkpt lat="47.86075" lon="6.75413">
        <ele>703</ele>
        <time>2018-06-23T07:42:09.000Z</time>
      </trkpt>
      <trkpt lat="47.86075" lon="6.75415">
        <ele>703</ele>
        <time>2018-06-23T07:42:10.000Z</time>
      </trkpt>
      <trkpt lat="47.86076" lon="6.75417">
        <ele>706</ele>
        <time>2018-06-23T07:42:11.000Z</time>
      </trkpt>
      <trkpt lat="47.86076" lon="6.75419">
        <ele>706</ele>
        <time>2018-06-23T07:42:12.000Z</time>
      </trkpt>
      <trkpt lat="47.86077" lon="6.7542">
        <ele>706</ele>
        <time>2018-06-23T07:42:13.000Z</time>
      </trkpt>
      <trkpt lat="47.86077" lon="6.75422">
        <ele>707</ele>
        <time>2018-06-23T07:42:14.000Z</time>
      </trkpt>
      <trkpt lat="47.86078" lon="6.75424">
        <ele>707</ele>
        <time>2018-06-23T07:42:15.000Z</time>
      </trkpt>
      <trkpt lat="47.86078" lon="6.75426">
        <ele>708</ele>
        <time>2018-06-23T07:42:16.000Z</time>
      </trkpt>
      <trkpt lat="47.86079" lon="6.75428">
        <ele>709</ele>
        <time>2018-06-23T07:42:17.000Z</time>
      </trkpt>
      <trkpt lat="47.86079" lon="6.75429">
        <ele>709</ele>
        <time>2018-06-23T07:42:18.000Z</time>
      </trkpt>
      <trkpt lat="47.8608" lon="6.7543">
        <ele>710</ele>
        <time>2018-06-23T07:42:19.000Z</time>
      </trkpt>
      <trkpt lat="47.8608" lon="6.75432">
        <ele>711</ele>
        <time>2018-06-23T07:42:20.000Z</time>
      </trkpt>
      <trkpt lat="47.86081" lon="6.75433">
        <ele>711</ele>
        <time>2018-06-23T07:42:21.000Z</time>
      </trkpt>
      <trkpt lat="47.86081" lon="6.75435">
        <ele>712</ele>
        <time>2018-06-23T07:42:22.000Z</time>
      </trkpt>
      <trkpt lat="47.86082" lon="6.75436">
        <ele>712</ele>
        <time>2018-06-23T07:42:23.000Z</time>
      </trkpt>
      <trkpt lat="47.86083" lon="6.75437">
        <ele>713</ele>
        <time>2018-06-23T07:42:24.000Z</time>
      </trkpt>
      <trkpt lat="47.86083" lon="6.75438">
        <ele>713</ele>
        <time>2018-06-23T07:42:25.000Z</time>
      </trkpt>
      <trkpt lat="47.86084" lon="6.75439">
        <ele>694</ele>
        <time>2018-06-23T07:42:26.000Z</time>
      </trkpt>
      <trkpt lat="47.86085" lon="6.75441">
        <ele>694</ele>
        <time>2018-06-23T07:42:27.000Z</time>
      </trkpt>
      <trkpt lat="47.86085" lon="6.75443">
        <ele>694</ele>
        <time>2018-06-23T07:42:28.000Z</time>
      </trkpt>
      <trkpt lat="47.86086" lon="6.75444">
        <ele>694</ele>
        <time>2018-06-23T07:42:29.000Z</time>
      </trkpt>
      <trkpt lat="47.86086" lon="6.75446">
        <ele>694</ele>
        <time>2018-06-23T07:42:30.000Z</time>
      </trkpt>
      <trkpt lat="47.86087" lon="6.75447">
        <ele>694</ele>
        <time>2018-06-23T07:42:31.000Z</time>
      </trkpt>
      <trkpt lat="47.86088" lon="6.75448">
        <ele>694</ele>
        <time>2018-06-23T07:42:32.000Z</time>
      </trkpt>
      <trkpt lat="47.86088" lon="6.7545">
        <ele>694</ele>
        <time>2018-06-23T07:42:33.000Z</time>
      </trkpt>
      <trkpt lat="47.86089" lon="6.75451">
        <ele>694</ele>
        <time>2018-06-23T07:42:34.000Z</time>
      </trkpt>
      <trkpt lat="47.8609" lon="6.75453">
        <ele>694</ele>
        <time>2018-06-23T07:42:35.000Z</time>
      </trkpt>
      <trkpt lat="47.8609" lon="6.75454">
        <ele>694</ele>
        <time>2018-06-23T07:42:36.000Z</time>
      </trkpt>
      <trkpt lat="47.86091" lon="6.75456">
        <ele>694</ele>
        <time>2018-06-23T07:42:37.000Z</time>
      </trkpt>
      <trkpt lat="47.86092" lon="6.75457">
        <ele>694</ele>
        <time>2018-06-23T07:42:38.000Z</time>
      </trkpt>
      <trkpt lat="47.86093" lon="6.75459">
        <ele>694</ele>
        <time>2018-06-23T07:42:39.000Z</time>
      </trkpt>
      <trkpt lat="47.86093" lon="6.7546">
        <ele>694</ele>
        <time>2018-06-23T07:42:40.000Z</time>
      </trkpt>
      <trkpt lat="47.86094" lon="6.75462">
        <ele>695</ele>
        <time>2018-06-23T07:42:41.000Z</time>
      </trkpt>
      <trkpt lat="47.86095" lon="6.75463">
        <ele>695</ele>
        <time>2018-06-23T07:42:42.000Z</time>
      </trkpt>
      <trkpt lat="47.86096" lon="6.75464">
        <ele>695</ele>
        <time>2018-06-23T07:42:43.000Z</time>
      </trkpt>
      <trkpt lat="47.86097" lon="6.75466">
        <ele>695</ele>
        <time>2018-06-23T07:42:44.000Z</time>
      </trkpt>
      <trkpt lat="47.86098" lon="6.75468">
        <ele>695</ele>
        <time>2018-06-23T07:42:45.000Z</time>
      </trkpt>
      <trkpt lat="47.86099" lon="6.75469">
        <ele>695</ele>
        <time>2018-06-23T07:42:46.000Z</time>
      </trkpt>
      <trkpt lat="47.86099" lon="6.7547">
        <ele>695</ele>
        <time>2018-06-23T07:42:47.000Z</time>
      </trkpt>
      <trkpt lat="47.861" lon="6.75471">
        <ele>695</ele>
        <time>2018-06-23T07:42:48.000Z</time>
      </trkpt>
      <trkpt lat="47.86101" lon="6.75473">
        <ele>695</ele>
        <time>2018-06-23T07:42:49.000Z</time>
      </trkpt>
      <trkpt lat="47.86102" lon="6.75474">
        <ele>695</ele>
        <time>2018-06-23T07:42:50.000Z</time>
      </trkpt>
      <trkpt lat="47.86103" lon="6.75475">
        <ele>695</ele>
        <time>2018-06-23T07:42:51.000Z</time>
      </trkpt>
      <trkpt lat="47.86104" lon="6.75477">
        <ele>695</ele>
        <time>2018-06-23T07:42:52.000Z</time>
      </trkpt>
      <trkpt lat="47.86105" lon="6.75478">
        <ele>695</ele>
        <time>2018-06-23T07:42:53.000Z</time>
      </trkpt>
      <trkpt lat="47.86106" lon="6.75479">
        <ele>695</ele>
        <time>2018-06-23T07:42:54.000Z</time>
      </trkpt>
      <trkpt lat="47.86106" lon="6.7548">
        <ele>696</ele>
        <time>2018-06-23T07:42:55.000Z</time>
      </trkpt>
      <trkpt lat="47.86107" lon="6.75481">
        <ele>696</ele>
        <time>2018-06-23T07:42:56.000Z</time>
      </trkpt>
      <trkpt lat="47.86108" lon="6.75483">
        <ele>696</ele>
        <time>2018-06-23T07:42:57.000Z</time>
      </trkpt>
      <trkpt lat="47.86109" lon="6.75484">
        <ele>695</ele>
        <time>2018-06-23T07:42:58.000Z</time>
      </trkpt>
      <trkpt lat="47.8611" lon="6.75485">
        <ele>695</ele>
        <time>2018-06-23T07:42:59.000Z</time>
      </trkpt>
      <trkpt lat="47.8611" lon="6.75486">
        <ele>695</ele>
        <time>2018-06-23T07:43:00.000Z</time>
      </trkpt>
      <trkpt lat="47.86111" lon="6.75487">
        <ele>695</ele>
        <time>2018-06-23T07:43:01.000Z</time>
      </trkpt>
      <trkpt lat="47.86111" lon="6.75488">
        <ele>695</ele>
        <time>2018-06-23T07:43:02.000Z</time>
      </trkpt>
      <trkpt lat="47.86112" lon="6.7549">
        <ele>695</ele>
        <time>2018-06-23T07:43:03.000Z</time>
      </trkpt>
      <trkpt lat="47.86113" lon="6.75492">
        <ele>695</ele>
        <time>2018-06-23T07:43:04.000Z</time>
      </trkpt>
      <trkpt lat="47.86113" lon="6.75494">
        <ele>695</ele>
        <time>2018-06-23T07:43:05.000Z</time>
      </trkpt>
      <trkpt lat="47.86114" lon="6.75495">
        <ele>695</ele>
        <time>2018-06-23T07:43:06.000Z</time>
      </trkpt>
      <trkpt lat="47.86115" lon="6.75497">
        <ele>695</ele>
        <time>2018-06-23T07:43:07.000Z</time>
      </trkpt>
      <trkpt lat="47.86115" lon="6.75498">
        <ele>694</ele>
        <time>2018-06-23T07:43:08.000Z</time>
      </trkpt>
      <trkpt lat="47.86116" lon="6.755">
        <ele>694</ele>
        <time>2018-06-23T07:43:09.000Z</time>
      </trkpt>
      <trkpt lat="47.86117" lon="6.75501">
        <ele>702</ele>
        <time>2018-06-23T07:43:10.000Z</time>
      </trkpt>
      <trkpt lat="47.86118" lon="6.75503">
        <ele>702</ele>
        <time>2018-06-23T07:43:11.000Z</time>
      </trkpt>
      <trkpt lat="47.86119" lon="6.75504">
        <ele>702</ele>
        <time>2018-06-23T07:43:12.000Z</time>
      </trkpt>
      <trkpt lat="47.86119" lon="6.75505">
        <ele>701</ele>
        <time>2018-06-23T07:43:13.000Z</time>
      </trkpt>
      <trkpt lat="47.8612" lon="6.75506">
        <ele>701</ele>
        <time>2018-06-23T07:43:14.000Z</time>
      </trkpt>
      <trkpt lat="47.86121" lon="6.75508">
        <ele>701</ele>
        <time>2018-06-23T07:43:15.000Z</time>
      </trkpt>
      <trkpt lat="47.86121" lon="6.75509">
        <ele>701</ele>
        <time>2018-06-23T07:43:16.000Z</time>
      </trkpt>
      <trkpt lat="47.86122" lon="6.7551">
        <ele>701</ele>
        <time>2018-06-23T07:43:17.000Z</time>
      </trkpt>
      <trkpt lat="47.86123" lon="6.75512">
        <ele>701</ele>
        <time>2018-06-23T07:43:18.000Z</time>
      </trkpt>
      <trkpt lat="47.86123" lon="6.75514">
        <ele>700</ele>
        <time>2018-06-23T07:43:19.000Z</time>
      </trkpt>
      <trkpt lat="47.86124" lon="6.75516">
        <ele>700</ele>
        <time>2018-06-23T07:43:20.000Z</time>
      </trkpt>
      <trkpt lat="47.86125" lon="6.75518">
        <ele>700</ele>
        <time>2018-06-23T07:43:21.000Z</time>
      </trkpt>
      <trkpt lat="47.86125" lon="6.75519">
        <ele>700</ele>
        <time>2018-06-23T07:43:22.000Z</time>
      </trkpt>
      <trkpt lat="47.86126" lon="6.75521">
        <ele>700</ele>
        <time>2018-06-23T07:43:23.000Z</time>
      </trkpt>
      <trkpt lat="47.86127" lon="6.75523">
        <ele>700</ele>
        <time>2018-06-23T07:43:24.000Z</time>
      </trkpt>
      <trkpt lat="47.86127" lon="6.75524">
        <ele>700</ele>
        <time>2018-06-23T07:43:25.000Z</time>
      </trkpt>
      <trkpt lat="47.86128" lon="6.75526">
        <ele>700</ele>
        <time>2018-06-23T07:43:26.000Z</time>
      </trkpt>
      <trkpt lat="47.86128" lon="6.75527">
        <ele>700</ele>
        <time>2018-06-23T07:43:27.000Z</time>
      </trkpt>
      <trkpt lat="47.86129" lon="6.75529">
        <ele>700</ele>
        <time>2018-06-23T07:43:28.000Z</time>
      </trkpt>
      <trkpt lat="47.86129" lon="6.7553">
        <ele>700</ele>
        <time>2018-06-23T07:43:29.000Z</time>
      </trkpt>
      <trkpt lat="47.8613" lon="6.75531">
        <ele>700</ele>
        <time>2018-06-23T07:43:30.000Z</time>
      </trkpt>
      <trkpt lat="47.8613" lon="6.75533">
        <ele>700</ele>
        <time>2018-06-23T07:43:31.000Z</time>
      </trkpt>
      <trkpt lat="47.8613" lon="6.75534">
        <ele>700</ele>
        <time>2018-06-23T07:43:32.000Z</time>
      </trkpt>
      <trkpt lat="47.86131" lon="6.75536">
        <ele>700</ele>
        <time>2018-06-23T07:43:33.000Z</time>
      </trkpt>
      <trkpt lat="47.86131" lon="6.75538">
        <ele>700</ele>
        <time>2018-06-23T07:43:34.000Z</time>
      </trkpt>
      <trkpt lat="47.86131" lon="6.75539">
        <ele>700</ele>
        <time>2018-06-23T07:43:35.000Z</time>
      </trkpt>
      <trkpt lat="47.86132" lon="6.75541">
        <ele>700</ele>
        <time>2018-06-23T07:43:36.000Z</time>
      </trkpt>
      <trkpt lat="47.86132" lon="6.75543">
        <ele>700</ele>
        <time>2018-06-23T07:43:37.000Z</time>
      </trkpt>
      <trkpt lat="47.86133" lon="6.75544">
        <ele>700</ele>
        <time>2018-06-23T07:43:38.000Z</time>
      </trkpt>
      <trkpt lat="47.86133" lon="6.75546">
        <ele>700</ele>
        <time>2018-06-23T07:43:39.000Z</time>
      </trkpt>
      <trkpt lat="47.86134" lon="6.75548">
        <ele>700</ele>
        <time>2018-06-23T07:43:40.000Z</time>
      </trkpt>
      <trkpt lat="47.86134" lon="6.75549">
        <ele>700</ele>
        <time>2018-06-23T07:43:41.000Z</time>
      </trkpt>
      <trkpt lat="47.86135" lon="6.75551">
        <ele>700</ele>
        <time>2018-06-23T07:43:42.000Z</time>
      </trkpt>
      <trkpt lat="47.86135" lon="6.75554">
        <ele>700</ele>
        <time>2018-06-23T07:43:43.000Z</time>
      </trkpt>
      <trkpt lat="47.86135" lon="6.75556">
        <ele>700</ele>
        <time>2018-06-23T07:43:44.000Z</time>
      </trkpt>
      <trkpt lat="47.86136" lon="6.75557">
        <ele>700</ele>
        <time>2018-06-23T07:43:45.000Z</time>
      </trkpt>
      <trkpt lat="47.86136" lon="6.75559">
        <ele>700</ele>
        <time>2018-06-23T07:43:46.000Z</time>
      </trkpt>
      <trkpt lat="47.86137" lon="6.75561">
        <ele>700</ele>
        <time>2018-06-23T07:43:47.000Z</time>
      </trkpt>
      <trkpt lat="47.86137" lon="6.75562">
        <ele>700</ele>
        <time>2018-06-23T07:43:48.000Z</time>
      </trkpt>
      <trkpt lat="47.86138" lon="6.75564">
        <ele>700</ele>
        <time>2018-06-23T07:43:49.000Z</time>
      </trkpt>
      <trkpt lat="47.86138" lon="6.75566">
        <ele>700</ele>
        <time>2018-06-23T07:43:50.000Z</time>
      </trkpt>
      <trkpt lat="47.86138" lon="6.75568">
        <ele>700</ele>
        <time>2018-06-23T07:43:51.000Z</time>
      </trkpt>
      <trkpt lat="47.86139" lon="6.7557">
        <ele>699</ele>
        <time>2018-06-23T07:43:52.000Z</time>
      </trkpt>
      <trkpt lat="47.86139" lon="6.75572">
        <ele>699</ele>
        <time>2018-06-23T07:43:53.000Z</time>
      </trkpt>
      <trkpt lat="47.8614" lon="6.75574">
        <ele>699</ele>
        <time>2018-06-23T07:43:54.000Z</time>
      </trkpt>
      <trkpt lat="47.86141" lon="6.75576">
        <ele>699</ele>
        <time>2018-06-23T07:43:55.000Z</time>
      </trkpt>
      <trkpt lat="47.86141" lon="6.75578">
        <ele>699</ele>
        <time>2018-06-23T07:43:56.000Z</time>
      </trkpt>
      <trkpt lat="47.86141" lon="6.7558">
        <ele>698</ele>
        <time>2018-06-23T07:43:57.000Z</time>
      </trkpt>
      <trkpt lat="47.86142" lon="6.75581">
        <ele>698</ele>
        <time>2018-06-23T07:43:58.000Z</time>
      </trkpt>
      <trkpt lat="47.86142" lon="6.75583">
        <ele>698</ele>
        <time>2018-06-23T07:43:59.000Z</time>
      </trkpt>
      <trkpt lat="47.86142" lon="6.75585">
        <ele>705</ele>
        <time>2018-06-23T07:44:00.000Z</time>
      </trkpt>
      <trkpt lat="47.86143" lon="6.75586">
        <ele>705</ele>
        <time>2018-06-23T07:44:01.000Z</time>
      </trkpt>
      <trkpt lat="47.86143" lon="6.75588">
        <ele>705</ele>
        <time>2018-06-23T07:44:02.000Z</time>
      </trkpt>
      <trkpt lat="47.86144" lon="6.7559">
        <ele>705</ele>
        <time>2018-06-23T07:44:03.000Z</time>
      </trkpt>
      <trkpt lat="47.86144" lon="6.75592">
        <ele>705</ele>
        <time>2018-06-23T07:44:04.000Z</time>
      </trkpt>
      <trkpt lat="47.86144" lon="6.75593">
        <ele>705</ele>
        <time>2018-06-23T07:44:05.000Z</time>
      </trkpt>
      <trkpt lat="47.86145" lon="6.75595">
        <ele>705</ele>
        <time>2018-06-23T07:44:06.000Z</time>
      </trkpt>
      <trkpt lat="47.86145" lon="6.75596">
        <ele>706</ele>
        <time>2018-06-23T07:44:07.000Z</time>
      </trkpt>
      <trkpt lat="47.86145" lon="6.75598">
        <ele>706</ele>
        <time>2018-06-23T07:44:08.000Z</time>
      </trkpt>
      <trkpt lat="47.86145" lon="6.756">
        <ele>706</ele>
        <time>2018-06-23T07:44:09.000Z</time>
      </trkpt>
      <trkpt lat="47.86145" lon="6.75601">
        <ele>706</ele>
        <time>2018-06-23T07:44:10.000Z</time>
      </trkpt>
      <trkpt lat="47.86146" lon="6.75603">
        <ele>706</ele>
        <time>2018-06-23T07:44:11.000Z</time>
      </trkpt>
      <trkpt lat="47.86146" lon="6.75605">
        <ele>707</ele>
        <time>2018-06-23T07:44:12.000Z</time>
      </trkpt>
      <trkpt lat="47.86146" lon="6.75606">
        <ele>707</ele>
        <time>2018-06-23T07:44:13.000Z</time>
      </trkpt>
      <trkpt lat="47.86146" lon="6.75608">
        <ele>707</ele>
        <time>2018-06-23T07:44:14.000Z</time>
      </trkpt>
      <trkpt lat="47.86145" lon="6.75609">
        <ele>708</ele>
        <time>2018-06-23T07:44:15.000Z</time>
      </trkpt>
      <trkpt lat="47.86145" lon="6.75611">
        <ele>708</ele>
        <time>2018-06-23T07:44:16.000Z</time>
      </trkpt>
      <trkpt lat="47.86145" lon="6.75612">
        <ele>708</ele>
        <time>2018-06-23T07:44:17.000Z</time>
      </trkpt>
      <trkpt lat="47.86145" lon="6.75614">
        <ele>709</ele>
        <time>2018-06-23T07:44:18.000Z</time>
      </trkpt>
      <trkpt lat="47.86145" lon="6.75615">
        <ele>709</ele>
        <time>2018-06-23T07:44:19.000Z</time>
      </trkpt>
      <trkpt lat="47.86145" lon="6.75617">
        <ele>709</ele>
        <time>2018-06-23T07:44:20.000Z</time>
      </trkpt>
      <trkpt lat="47.86145" lon="6.75618">
        <ele>709</ele>
        <time>2018-06-23T07:44:21.000Z</time>
      </trkpt>
      <trkpt lat="47.86145" lon="6.75619">
        <ele>710</ele>
        <time>2018-06-23T07:44:22.000Z</time>
      </trkpt>
      <trkpt lat="47.86145" lon="6.7562">
        <ele>710</ele>
        <time>2018-06-23T07:44:23.000Z</time>
      </trkpt>
      <trkpt lat="47.86145" lon="6.75622">
        <ele>710</ele>
        <time>2018-06-23T07:44:24.000Z</time>
      </trkpt>
      <trkpt lat="47.86145" lon="6.75623">
        <ele>710</ele>
        <time>2018-06-23T07:44:25.000Z</time>
      </trkpt>
      <trkpt lat="47.86145" lon="6.75625">
        <ele>710</ele>
        <time>2018-06-23T07:44:26.000Z</time>
      </trkpt>
      <trkpt lat="47.86145" lon="6.75627">
        <ele>710</ele>
        <time>2018-06-23T07:44:27.000Z</time>
      </trkpt>
      <trkpt lat="47.86145" lon="6.75629">
        <ele>711</ele>
        <time>2018-06-23T07:44:28.000Z</time>
      </trkpt>
      <trkpt lat="47.86145" lon="6.75631">
        <ele>711</ele>
        <time>2018-06-23T07:44:29.000Z</time>
      </trkpt>
      <trkpt lat="47.86145" lon="6.75633">
        <ele>711</ele>
        <time>2018-06-23T07:44:30.000Z</time>
      </trkpt>
      <trkpt lat="47.86146" lon="6.75634">
        <ele>711</ele>
        <time>2018-06-23T07:44:31.000Z</time>
      </trkpt>
      <trkpt lat="47.86146" lon="6.75636">
        <ele>711</ele>
        <time>2018-06-23T07:44:32.000Z</time>
      </trkpt>
      <trkpt lat="47.86146" lon="6.75637">
        <ele>711</ele>
        <time>2018-06-23T07:44:33.000Z</time>
      </trkpt>
      <trkpt lat="47.86147" lon="6.75639">
        <ele>711</ele>
        <time>2018-06-23T07:44:34.000Z</time>
      </trkpt>
      <trkpt lat="47.86147" lon="6.75641">
        <ele>711</ele>
        <time>2018-06-23T07:44:35.000Z</time>
      </trkpt>
      <trkpt lat="47.86148" lon="6.75643">
        <ele>711</ele>
        <time>2018-06-23T07:44:36.000Z</time>
      </trkpt>
      <trkpt lat="47.86148" lon="6.75644">
        <ele>710</ele>
        <time>2018-06-23T07:44:37.000Z</time>
      </trkpt>
      <trkpt lat="47.86149" lon="6.75646">
        <ele>710</ele>
        <time>2018-06-23T07:44:38.000Z</time>
      </trkpt>
      <trkpt lat="47.8615" lon="6.75648">
        <ele>710</ele>
        <time>2018-06-23T07:44:39.000Z</time>
      </trkpt>
      <trkpt lat="47.8615" lon="6.75649">
        <ele>710</ele>
        <time>2018-06-23T07:44:40.000Z</time>
      </trkpt>
      <trkpt lat="47.86151" lon="6.75651">
        <ele>710</ele>
        <time>2018-06-23T07:44:41.000Z</time>
      </trkpt>
      <trkpt lat="47.86151" lon="6.75652">
        <ele>710</ele>
        <time>2018-06-23T07:44:42.000Z</time>
      </trkpt>
      <trkpt lat="47.86152" lon="6.75653">
        <ele>709</ele>
        <time>2018-06-23T07:44:43.000Z</time>
      </trkpt>
      <trkpt lat="47.86152" lon="6.75654">
        <ele>709</ele>
        <time>2018-06-23T07:44:44.000Z</time>
      </trkpt>
      <trkpt lat="47.86153" lon="6.75656">
        <ele>709</ele>
        <time>2018-06-23T07:44:45.000Z</time>
      </trkpt>
      <trkpt lat="47.86154" lon="6.75657">
        <ele>709</ele>
        <time>2018-06-23T07:44:46.000Z</time>
      </trkpt>
      <trkpt lat="47.86154" lon="6.75658">
        <ele>708</ele>
        <time>2018-06-23T07:44:47.000Z</time>
      </trkpt>
      <trkpt lat="47.86154" lon="6.75659">
        <ele>708</ele>
        <time>2018-06-23T07:44:48.000Z</time>
      </trkpt>
      <trkpt lat="47.86155" lon="6.75661">
        <ele>708</ele>
        <time>2018-06-23T07:44:49.000Z</time>
      </trkpt>
      <trkpt lat="47.86155" lon="6.75662">
        <ele>708</ele>
        <time>2018-06-23T07:44:50.000Z</time>
      </trkpt>
      <trkpt lat="47.86155" lon="6.75664">
        <ele>708</ele>
        <time>2018-06-23T07:44:51.000Z</time>
      </trkpt>
      <trkpt lat="47.86156" lon="6.75665">
        <ele>707</ele>
        <time>2018-06-23T07:44:52.000Z</time>
      </trkpt>
      <trkpt lat="47.86156" lon="6.75666">
        <ele>707</ele>
        <time>2018-06-23T07:44:53.000Z</time>
      </trkpt>
      <trkpt lat="47.86157" lon="6.75667">
        <ele>710</ele>
        <time>2018-06-23T07:44:54.000Z</time>
      </trkpt>
      <trkpt lat="47.86157" lon="6.75669">
        <ele>710</ele>
        <time>2018-06-23T07:44:55.000Z</time>
      </trkpt>
      <trkpt lat="47.86158" lon="6.7567">
        <ele>710</ele>
        <time>2018-06-23T07:44:56.000Z</time>
      </trkpt>
      <trkpt lat="47.86158" lon="6.75672">
        <ele>711</ele>
        <time>2018-06-23T07:44:57.000Z</time>
      </trkpt>
      <trkpt lat="47.86158" lon="6.75673">
        <ele>711</ele>
        <time>2018-06-23T07:44:58.000Z</time>
      </trkpt>
      <trkpt lat="47.86158" lon="6.75674">
        <ele>711</ele>
        <time>2018-06-23T07:44:59.000Z</time>
      </trkpt>
      <trkpt lat="47.86159" lon="6.75675">
        <ele>711</ele>
        <time>2018-06-23T07:45:00.000Z</time>
      </trkpt>
      <trkpt lat="47.86159" lon="6.75676">
        <ele>712</ele>
        <time>2018-06-23T07:45:01.000Z</time>
      </trkpt>
      <trkpt lat="47.86159" lon="6.75677">
        <ele>712</ele>
        <time>2018-06-23T07:45:02.000Z</time>
      </trkpt>
      <trkpt lat="47.86159" lon="6.75678">
        <ele>712</ele>
        <time>2018-06-23T07:45:03.000Z</time>
      </trkpt>
      <trkpt lat="47.86159" lon="6.75679">
        <ele>713</ele>
        <time>2018-06-23T07:45:04.000Z</time>
      </trkpt>
      <trkpt lat="47.86159" lon="6.7568">
        <ele>713</ele>
        <time>2018-06-23T07:45:05.000Z</time>
      </trkpt>
      <trkpt lat="47.8616" lon="6.75681">
        <ele>713</ele>
        <time>2018-06-23T07:45:06.000Z</time>
      </trkpt>
      <trkpt lat="47.8616" lon="6.75682">
        <ele>714</ele>
        <time>2018-06-23T07:45:07.000Z</time>
      </trkpt>
      <trkpt lat="47.86161" lon="6.75683">
        <ele>714</ele>
        <time>2018-06-23T07:45:08.000Z</time>
      </trkpt>
      <trkpt lat="47.86162" lon="6.75684">
        <ele>714</ele>
        <time>2018-06-23T07:45:09.000Z</time>
      </trkpt>
      <trkpt lat="47.86163" lon="6.75685">
        <ele>714</ele>
        <time>2018-06-23T07:45:10.000Z</time>
      </trkpt>
      <trkpt lat="47.86164" lon="6.75686">
        <ele>714</ele>
        <time>2018-06-23T07:45:11.000Z</time>
      </trkpt>
      <trkpt lat="47.86165" lon="6.75687">
        <ele>715</ele>
        <time>2018-06-23T07:45:12.000Z</time>
      </trkpt>
      <trkpt lat="47.86166" lon="6.75688">
        <ele>715</ele>
        <time>2018-06-23T07:45:13.000Z</time>
      </trkpt>
      <trkpt lat="47.86167" lon="6.75689">
        <ele>699</ele>
        <time>2018-06-23T07:45:14.000Z</time>
      </trkpt>
      <trkpt lat="47.86169" lon="6.7569">
        <ele>699</ele>
        <time>2018-06-23T07:45:15.000Z</time>
      </trkpt>
      <trkpt lat="47.8617" lon="6.75691">
        <ele>698</ele>
        <time>2018-06-23T07:45:16.000Z</time>
      </trkpt>
      <trkpt lat="47.8617" lon="6.75692">
        <ele>698</ele>
        <time>2018-06-23T07:45:17.000Z</time>
      </trkpt>
      <trkpt lat="47.86171" lon="6.75693">
        <ele>698</ele>
        <time>2018-06-23T07:45:18.000Z</time>
      </trkpt>
      <trkpt lat="47.86172" lon="6.75694">
        <ele>698</ele>
        <time>2018-06-23T07:45:19.000Z</time>
      </trkpt>
      <trkpt lat="47.86173" lon="6.75695">
        <ele>698</ele>
        <time>2018-06-23T07:45:20.000Z</time>
      </trkpt>
      <trkpt lat="47.86174" lon="6.75696">
        <ele>698</ele>
        <time>2018-06-23T07:45:21.000Z</time>
      </trkpt>
      <trkpt lat="47.86175" lon="6.75697">
        <ele>698</ele>
        <time>2018-06-23T07:45:22.000Z</time>
      </trkpt>
      <trkpt lat="47.86175" lon="6.75698">
        <ele>698</ele>
        <time>2018-06-23T07:45:23.000Z</time>
      </trkpt>
      <trkpt lat="47.86176" lon="6.75699">
        <ele>698</ele>
        <time>2018-06-23T07:45:24.000Z</time>
      </trkpt>
      <trkpt lat="47.86177" lon="6.757">
        <ele>698</ele>
        <time>2018-06-23T07:45:25.000Z</time>
      </trkpt>
      <trkpt lat="47.86178" lon="6.75701">
        <ele>698</ele>
        <time>2018-06-23T07:45:26.000Z</time>
      </trkpt>
      <trkpt lat="47.86179" lon="6.75702">
        <ele>698</ele>
        <time>2018-06-23T07:45:27.000Z</time>
      </trkpt>
      <trkpt lat="47.8618" lon="6.75704">
        <ele>698</ele>
        <time>2018-06-23T07:45:28.000Z</time>
      </trkpt>
      <trkpt lat="47.8618" lon="6.75705">
        <ele>698</ele>
        <time>2018-06-23T07:45:29.000Z</time>
      </trkpt>
      <trkpt lat="47.8618" lon="6.75705">
        <ele>698</ele>
        <time>2018-06-23T07:45:30.000Z</time>
      </trkpt>
      <trkpt lat="47.8618" lon="6.75705">
        <ele>698</ele>
        <time>2018-06-23T07:45:31.000Z</time>
      </trkpt>
      <trkpt lat="47.86181" lon="6.75706">
        <ele>698</ele>
        <time>2018-06-23T07:45:32.000Z</time>
      </trkpt>
      <trkpt lat="47.86181" lon="6.75706">
        <ele>698</ele>
        <time>2018-06-23T07:45:33.000Z</time>
      </trkpt>
      <trkpt lat="47.86182" lon="6.75709">
        <ele>698</ele>
        <time>2018-06-23T07:45:34.000Z</time>
      </trkpt>
      <trkpt lat="47.86182" lon="6.7571">
        <ele>698</ele>
        <time>2018-06-23T07:45:35.000Z</time>
      </trkpt>
      <trkpt lat="47.86183" lon="6.75711">
        <ele>698</ele>
        <time>2018-06-23T07:45:36.000Z</time>
      </trkpt>
      <trkpt lat="47.86183" lon="6.75712">
        <ele>698</ele>
        <time>2018-06-23T07:45:37.000Z</time>
      </trkpt>
      <trkpt lat="47.86184" lon="6.75714">
        <ele>698</ele>
        <time>2018-06-23T07:45:38.000Z</time>
      </trkpt>
      <trkpt lat="47.86185" lon="6.75716">
        <ele>698</ele>
        <time>2018-06-23T07:45:39.000Z</time>
      </trkpt>
      <trkpt lat="47.86185" lon="6.75718">
        <ele>698</ele>
        <time>2018-06-23T07:45:40.000Z</time>
      </trkpt>
      <trkpt lat="47.86186" lon="6.7572">
        <ele>698</ele>
        <time>2018-06-23T07:45:41.000Z</time>
      </trkpt>
      <trkpt lat="47.86186" lon="6.75722">
        <ele>698</ele>
        <time>2018-06-23T07:45:42.000Z</time>
      </trkpt>
      <trkpt lat="47.86187" lon="6.75724">
        <ele>699</ele>
        <time>2018-06-23T07:45:43.000Z</time>
      </trkpt>
      <trkpt lat="47.86188" lon="6.75725">
        <ele>699</ele>
        <time>2018-06-23T07:45:44.000Z</time>
      </trkpt>
      <trkpt lat="47.86188" lon="6.75727">
        <ele>699</ele>
        <time>2018-06-23T07:45:45.000Z</time>
      </trkpt>
      <trkpt lat="47.86189" lon="6.75729">
        <ele>699</ele>
        <time>2018-06-23T07:45:46.000Z</time>
      </trkpt>
      <trkpt lat="47.8619" lon="6.75731">
        <ele>699</ele>
        <time>2018-06-23T07:45:47.000Z</time>
      </trkpt>
      <trkpt lat="47.86191" lon="6.75733">
        <ele>699</ele>
        <time>2018-06-23T07:45:48.000Z</time>
      </trkpt>
      <trkpt lat="47.86192" lon="6.75735">
        <ele>699</ele>
        <time>2018-06-23T07:45:49.000Z</time>
      </trkpt>
      <trkpt lat="47.86193" lon="6.75736">
        <ele>699</ele>
        <time>2018-06-23T07:45:50.000Z</time>
      </trkpt>
      <trkpt lat="47.86194" lon="6.75738">
        <ele>699</ele>
        <time>2018-06-23T07:45:51.000Z</time>
      </trkpt>
      <trkpt lat="47.86194" lon="6.7574">
        <ele>699</ele>
        <time>2018-06-23T07:45:52.000Z</time>
      </trkpt>
      <trkpt lat="47.86195" lon="6.75742">
        <ele>699</ele>
        <time>2018-06-23T07:45:53.000Z</time>
      </trkpt>
      <trkpt lat="47.86196" lon="6.75743">
        <ele>698</ele>
        <time>2018-06-23T07:45:54.000Z</time>
      </trkpt>
      <trkpt lat="47.86196" lon="6.75745">
        <ele>698</ele>
        <time>2018-06-23T07:45:55.000Z</time>
      </trkpt>
      <trkpt lat="47.86197" lon="6.75746">
        <ele>698</ele>
        <time>2018-06-23T07:45:56.000Z</time>
      </trkpt>
      <trkpt lat="47.86197" lon="6.75748">
        <ele>698</ele>
        <time>2018-06-23T07:45:57.000Z</time>
      </trkpt>
      <trkpt lat="47.86198" lon="6.75749">
        <ele>698</ele>
        <time>2018-06-23T07:45:58.000Z</time>
      </trkpt>
      <trkpt lat="47.86198" lon="6.75751">
        <ele>700</ele>
        <time>2018-06-23T07:45:59.000Z</time>
      </trkpt>
      <trkpt lat="47.86199" lon="6.75752">
        <ele>700</ele>
        <time>2018-06-23T07:46:00.000Z</time>
      </trkpt>
      <trkpt lat="47.86199" lon="6.75754">
        <ele>700</ele>
        <time>2018-06-23T07:46:01.000Z</time>
      </trkpt>
      <trkpt lat="47.862" lon="6.75755">
        <ele>700</ele>
        <time>2018-06-23T07:46:02.000Z</time>
      </trkpt>
      <trkpt lat="47.86201" lon="6.75757">
        <ele>700</ele>
        <time>2018-06-23T07:46:03.000Z</time>
      </trkpt>
      <trkpt lat="47.86201" lon="6.75759">
        <ele>699</ele>
        <time>2018-06-23T07:46:04.000Z</time>
      </trkpt>
      <trkpt lat="47.86202" lon="6.7576">
        <ele>699</ele>
        <time>2018-06-23T07:46:05.000Z</time>
      </trkpt>
      <trkpt lat="47.86202" lon="6.75762">
        <ele>699</ele>
        <time>2018-06-23T07:46:06.000Z</time>
      </trkpt>
      <trkpt lat="47.86203" lon="6.75764">
        <ele>699</ele>
        <time>2018-06-23T07:46:07.000Z</time>
      </trkpt>
      <trkpt lat="47.86203" lon="6.75765">
        <ele>699</ele>
        <time>2018-06-23T07:46:08.000Z</time>
      </trkpt>
      <trkpt lat="47.86204" lon="6.75767">
        <ele>699</ele>
        <time>2018-06-23T07:46:09.000Z</time>
      </trkpt>
      <trkpt lat="47.86205" lon="6.75768">
        <ele>698</ele>
        <time>2018-06-23T07:46:10.000Z</time>
      </trkpt>
      <trkpt lat="47.86205" lon="6.75769">
        <ele>698</ele>
        <time>2018-06-23T07:46:11.000Z</time>
      </trkpt>
      <trkpt lat="47.86205" lon="6.7577">
        <ele>698</ele>
        <time>2018-06-23T07:46:12.000Z</time>
      </trkpt>
      <trkpt lat="47.86206" lon="6.75772">
        <ele>698</ele>
        <time>2018-06-23T07:46:13.000Z</time>
      </trkpt>
      <trkpt lat="47.86206" lon="6.75774">
        <ele>698</ele>
        <time>2018-06-23T07:46:14.000Z</time>
      </trkpt>
      <trkpt lat="47.86206" lon="6.75775">
        <ele>698</ele>
        <time>2018-06-23T07:46:15.000Z</time>
      </trkpt>
      <trkpt lat="47.86206" lon="6.75776">
        <ele>698</ele>
        <time>2018-06-23T07:46:16.000Z</time>
      </trkpt>
      <trkpt lat="47.86206" lon="6.75777">
        <ele>698</ele>
        <time>2018-06-23T07:46:17.000Z</time>
      </trkpt>
      <trkpt lat="47.86206" lon="6.75779">
        <ele>698</ele>
        <time>2018-06-23T07:46:18.000Z</time>
      </trkpt>
      <trkpt lat="47.86206" lon="6.75781">
        <ele>698</ele>
        <time>2018-06-23T07:46:19.000Z</time>
      </trkpt>
      <trkpt lat="47.86206" lon="6.75782">
        <ele>698</ele>
        <time>2018-06-23T07:46:20.000Z</time>
      </trkpt>
      <trkpt lat="47.86206" lon="6.75784">
        <ele>698</ele>
        <time>2018-06-23T07:46:21.000Z</time>
      </trkpt>
      <trkpt lat="47.86205" lon="6.75785">
        <ele>698</ele>
        <time>2018-06-23T07:46:22.000Z</time>
      </trkpt>
      <trkpt lat="47.86205" lon="6.75786">
        <ele>698</ele>
        <time>2018-06-23T07:46:23.000Z</time>
      </trkpt>
      <trkpt lat="47.86205" lon="6.75787">
        <ele>698</ele>
        <time>2018-06-23T07:46:24.000Z</time>
      </trkpt>
      <trkpt lat="47.86205" lon="6.75788">
        <ele>698</ele>
        <time>2018-06-23T07:46:25.000Z</time>
      </trkpt>
      <trkpt lat="47.86205" lon="6.7579">
        <ele>698</ele>
        <time>2018-06-23T07:46:26.000Z</time>
      </trkpt>
      <trkpt lat="47.86205" lon="6.75792">
        <ele>698</ele>
        <time>2018-06-23T07:46:27.000Z</time>
      </trkpt>
      <trkpt lat="47.86205" lon="6.75793">
        <ele>698</ele>
        <time>2018-06-23T07:46:28.000Z</time>
      </trkpt>
      <trkpt lat="47.86204" lon="6.75794">
        <ele>698</ele>
        <time>2018-06-23T07:46:29.000Z</time>
      </trkpt>
      <trkpt lat="47.86204" lon="6.75796">
        <ele>698</ele>
        <time>2018-06-23T07:46:30.000Z</time>
      </trkpt>
      <trkpt lat="47.86204" lon="6.75797">
        <ele>698</ele>
        <time>2018-06-23T07:46:31.000Z</time>
      </trkpt>
      <trkpt lat="47.86204" lon="6.75799">
        <ele>698</ele>
        <time>2018-06-23T07:46:32.000Z</time>
      </trkpt>
      <trkpt lat="47.86203" lon="6.758">
        <ele>699</ele>
        <time>2018-06-23T07:46:33.000Z</time>
      </trkpt>
      <trkpt lat="47.86203" lon="6.75802">
        <ele>699</ele>
        <time>2018-06-23T07:46:34.000Z</time>
      </trkpt>
      <trkpt lat="47.86203" lon="6.75804">
        <ele>699</ele>
        <time>2018-06-23T07:46:35.000Z</time>
      </trkpt>
      <trkpt lat="47.86202" lon="6.75805">
        <ele>699</ele>
        <time>2018-06-23T07:46:36.000Z</time>
      </trkpt>
      <trkpt lat="47.86202" lon="6.75807">
        <ele>699</ele>
        <time>2018-06-23T07:46:37.000Z</time>
      </trkpt>
      <trkpt lat="47.86202" lon="6.75809">
        <ele>699</ele>
        <time>2018-06-23T07:46:38.000Z</time>
      </trkpt>
      <trkpt lat="47.86202" lon="6.7581">
        <ele>699</ele>
        <time>2018-06-23T07:46:39.000Z</time>
      </trkpt>
      <trkpt lat="47.86202" lon="6.75812">
        <ele>699</ele>
        <time>2018-06-23T07:46:40.000Z</time>
      </trkpt>
      <trkpt lat="47.86202" lon="6.75813">
        <ele>699</ele>
        <time>2018-06-23T07:46:41.000Z</time>
      </trkpt>
      <trkpt lat="47.86201" lon="6.75815">
        <ele>699</ele>
        <time>2018-06-23T07:46:42.000Z</time>
      </trkpt>
      <trkpt lat="47.86201" lon="6.75815">
        <ele>699</ele>
        <time>2018-06-23T07:46:43.000Z</time>
      </trkpt>
      <trkpt lat="47.86201" lon="6.75815">
        <ele>699</ele>
        <time>2018-06-23T07:46:44.000Z</time>
      </trkpt>
      <trkpt lat="47.86201" lon="6.75816">
        <ele>699</ele>
        <time>2018-06-23T07:46:45.000Z</time>
      </trkpt>
      <trkpt lat="47.86201" lon="6.75818">
        <ele>699</ele>
        <time>2018-06-23T07:46:46.000Z</time>
      </trkpt>
      <trkpt lat="47.86201" lon="6.7582">
        <ele>700</ele>
        <time>2018-06-23T07:46:47.000Z</time>
      </trkpt>
      <trkpt lat="47.86201" lon="6.75821">
        <ele>700</ele>
        <time>2018-06-23T07:46:48.000Z</time>
      </trkpt>
      <trkpt lat="47.862" lon="6.75823">
        <ele>700</ele>
        <time>2018-06-23T07:46:49.000Z</time>
      </trkpt>
      <trkpt lat="47.862" lon="6.75824">
        <ele>700</ele>
        <time>2018-06-23T07:46:50.000Z</time>
      </trkpt>
      <trkpt lat="47.862" lon="6.75826">
        <ele>700</ele>
        <time>2018-06-23T07:46:51.000Z</time>
      </trkpt>
      <trkpt lat="47.862" lon="6.75827">
        <ele>700</ele>
        <time>2018-06-23T07:46:52.000Z</time>
      </trkpt>
      <trkpt lat="47.862" lon="6.75829">
        <ele>700</ele>
        <time>2018-06-23T07:46:53.000Z</time>
      </trkpt>
      <trkpt lat="47.862" lon="6.7583">
        <ele>700</ele>
        <time>2018-06-23T07:46:54.000Z</time>
      </trkpt>
      <trkpt lat="47.862" lon="6.75832">
        <ele>700</ele>
        <time>2018-06-23T07:46:55.000Z</time>
      </trkpt>
      <trkpt lat="47.862" lon="6.75834">
        <ele>700</ele>
        <time>2018-06-23T07:46:56.000Z</time>
      </trkpt>
      <trkpt lat="47.862" lon="6.75836">
        <ele>700</ele>
        <time>2018-06-23T07:46:57.000Z</time>
      </trkpt>
      <trkpt lat="47.862" lon="6.75837">
        <ele>700</ele>
        <time>2018-06-23T07:46:58.000Z</time>
      </trkpt>
      <trkpt lat="47.862" lon="6.75839">
        <ele>700</ele>
        <time>2018-06-23T07:46:59.000Z</time>
      </trkpt>
      <trkpt lat="47.862" lon="6.75841">
        <ele>700</ele>
        <time>2018-06-23T07:47:00.000Z</time>
      </trkpt>
      <trkpt lat="47.862" lon="6.75843">
        <ele>699</ele>
        <time>2018-06-23T07:47:01.000Z</time>
      </trkpt>
      <trkpt lat="47.862" lon="6.75845">
        <ele>699</ele>
        <time>2018-06-23T07:47:02.000Z</time>
      </trkpt>
      <trkpt lat="47.862" lon="6.75846">
        <ele>699</ele>
        <time>2018-06-23T07:47:03.000Z</time>
      </trkpt>
      <trkpt lat="47.862" lon="6.75848">
        <ele>699</ele>
        <time>2018-06-23T07:47:04.000Z</time>
      </trkpt>
      <trkpt lat="47.862" lon="6.7585">
        <ele>699</ele>
        <time>2018-06-23T07:47:05.000Z</time>
      </trkpt>
      <trkpt lat="47.862" lon="6.75852">
        <ele>699</ele>
        <time>2018-06-23T07:47:06.000Z</time>
      </trkpt>
      <trkpt lat="47.862" lon="6.75854">
        <ele>699</ele>
        <time>2018-06-23T07:47:07.000Z</time>
      </trkpt>
      <trkpt lat="47.862" lon="6.75855">
        <ele>699</ele>
        <time>2018-06-23T07:47:08.000Z</time>
      </trkpt>
      <trkpt lat="47.862" lon="6.75857">
        <ele>699</ele>
        <time>2018-06-23T07:47:09.000Z</time>
      </trkpt>
      <trkpt lat="47.86201" lon="6.75859">
        <ele>699</ele>
        <time>2018-06-23T07:47:10.000Z</time>
      </trkpt>
      <trkpt lat="47.86201" lon="6.75861">
        <ele>699</ele>
        <time>2018-06-23T07:47:11.000Z</time>
      </trkpt>
      <trkpt lat="47.86201" lon="6.75863">
        <ele>699</ele>
        <time>2018-06-23T07:47:12.000Z</time>
      </trkpt>
      <trkpt lat="47.86201" lon="6.75865">
        <ele>699</ele>
        <time>2018-06-23T07:47:13.000Z</time>
      </trkpt>
      <trkpt lat="47.862" lon="6.75866">
        <ele>699</ele>
        <time>2018-06-23T07:47:14.000Z</time>
      </trkpt>
      <trkpt lat="47.862" lon="6.75868">
        <ele>699</ele>
        <time>2018-06-23T07:47:15.000Z</time>
      </trkpt>
      <trkpt lat="47.862" lon="6.75869">
        <ele>699</ele>
        <time>2018-06-23T07:47:16.000Z</time>
      </trkpt>
      <trkpt lat="47.862" lon="6.75869">
        <ele>699</ele>
        <time>2018-06-23T07:47:17.000Z</time>
      </trkpt>
      <trkpt lat="47.862" lon="6.7587">
        <ele>699</ele>
        <time>2018-06-23T07:47:18.000Z</time>
      </trkpt>
      <trkpt lat="47.862" lon="6.75871">
        <ele>699</ele>
        <time>2018-06-23T07:47:19.000Z</time>
      </trkpt>
      <trkpt lat="47.862" lon="6.75872">
        <ele>698</ele>
        <time>2018-06-23T07:47:20.000Z</time>
      </trkpt>
      <trkpt lat="47.862" lon="6.75873">
        <ele>698</ele>
        <time>2018-06-23T07:47:21.000Z</time>
      </trkpt>
      <trkpt lat="47.862" lon="6.75874">
        <ele>698</ele>
        <time>2018-06-23T07:47:22.000Z</time>
      </trkpt>
      <trkpt lat="47.86201" lon="6.75876">
        <ele>698</ele>
        <time>2018-06-23T07:47:23.000Z</time>
      </trkpt>
      <trkpt lat="47.86201" lon="6.75877">
        <ele>698</ele>
        <time>2018-06-23T07:47:24.000Z</time>
      </trkpt>
      <trkpt lat="47.86201" lon="6.75879">
        <ele>698</ele>
        <time>2018-06-23T07:47:25.000Z</time>
      </trkpt>
      <trkpt lat="47.86201" lon="6.7588">
        <ele>698</ele>
        <time>2018-06-23T07:47:26.000Z</time>
      </trkpt>
      <trkpt lat="47.86202" lon="6.75882">
        <ele>698</ele>
        <time>2018-06-23T07:47:27.000Z</time>
      </trkpt>
      <trkpt lat="47.86202" lon="6.75884">
        <ele>698</ele>
        <time>2018-06-23T07:47:28.000Z</time>
      </trkpt>
      <trkpt lat="47.86202" lon="6.75886">
        <ele>698</ele>
        <time>2018-06-23T07:47:29.000Z</time>
      </trkpt>
      <trkpt lat="47.86203" lon="6.75887">
        <ele>698</ele>
        <time>2018-06-23T07:47:30.000Z</time>
      </trkpt>
      <trkpt lat="47.86203" lon="6.75889">
        <ele>698</ele>
        <time>2018-06-23T07:47:31.000Z</time>
      </trkpt>
      <trkpt lat="47.86203" lon="6.75891">
        <ele>698</ele>
        <time>2018-06-23T07:47:32.000Z</time>
      </trkpt>
      <trkpt lat="47.86203" lon="6.75892">
        <ele>698</ele>
        <time>2018-06-23T07:47:33.000Z</time>
      </trkpt>
      <trkpt lat="47.86203" lon="6.75894">
        <ele>698</ele>
        <time>2018-06-23T07:47:34.000Z</time>
      </trkpt>
      <trkpt lat="47.86204" lon="6.75896">
        <ele>698</ele>
        <time>2018-06-23T07:47:35.000Z</time>
      </trkpt>
      <trkpt lat="47.86204" lon="6.75897">
        <ele>698</ele>
        <time>2018-06-23T07:47:36.000Z</time>
      </trkpt>
      <trkpt lat="47.86204" lon="6.75899">
        <ele>698</ele>
        <time>2018-06-23T07:47:37.000Z</time>
      </trkpt>
      <trkpt lat="47.86205" lon="6.759">
        <ele>698</ele>
        <time>2018-06-23T07:47:38.000Z</time>
      </trkpt>
      <trkpt lat="47.86205" lon="6.75902">
        <ele>698</ele>
        <time>2018-06-23T07:47:39.000Z</time>
      </trkpt>
      <trkpt lat="47.86205" lon="6.75903">
        <ele>697</ele>
        <time>2018-06-23T07:47:40.000Z</time>
      </trkpt>
      <trkpt lat="47.86206" lon="6.75905">
        <ele>697</ele>
        <time>2018-06-23T07:47:41.000Z</time>
      </trkpt>
      <trkpt lat="47.86206" lon="6.75906">
        <ele>697</ele>
        <time>2018-06-23T07:47:42.000Z</time>
      </trkpt>
      <trkpt lat="47.86206" lon="6.75907">
        <ele>697</ele>
        <time>2018-06-23T07:47:43.000Z</time>
      </trkpt>
      <trkpt lat="47.86206" lon="6.75908">
        <ele>697</ele>
        <time>2018-06-23T07:47:44.000Z</time>
      </trkpt>
      <trkpt lat="47.86206" lon="6.75909">
        <ele>697</ele>
        <time>2018-06-23T07:47:45.000Z</time>
      </trkpt>
      <trkpt lat="47.86207" lon="6.75911">
        <ele>697</ele>
        <time>2018-06-23T07:47:46.000Z</time>
      </trkpt>
      <trkpt lat="47.86207" lon="6.75912">
        <ele>697</ele>
        <time>2018-06-23T07:47:47.000Z</time>
      </trkpt>
      <trkpt lat="47.86207" lon="6.75914">
        <ele>697</ele>
        <time>2018-06-23T07:47:48.000Z</time>
      </trkpt>
      <trkpt lat="47.86207" lon="6.75915">
        <ele>697</ele>
        <time>2018-06-23T07:47:49.000Z</time>
      </trkpt>
      <trkpt lat="47.86207" lon="6.75917">
        <ele>697</ele>
        <time>2018-06-23T07:47:50.000Z</time>
      </trkpt>
      <trkpt lat="47.86207" lon="6.75919">
        <ele>697</ele>
        <time>2018-06-23T07:47:51.000Z</time>
      </trkpt>
      <trkpt lat="47.86208" lon="6.7592">
        <ele>697</ele>
        <time>2018-06-23T07:47:52.000Z</time>
      </trkpt>
      <trkpt lat="47.86208" lon="6.75922">
        <ele>697</ele>
        <time>2018-06-23T07:47:53.000Z</time>
      </trkpt>
      <trkpt lat="47.86208" lon="6.75924">
        <ele>697</ele>
        <time>2018-06-23T07:47:54.000Z</time>
      </trkpt>
      <trkpt lat="47.86209" lon="6.75926">
        <ele>696</ele>
        <time>2018-06-23T07:47:55.000Z</time>
      </trkpt>
      <trkpt lat="47.86209" lon="6.75928">
        <ele>696</ele>
        <time>2018-06-23T07:47:56.000Z</time>
      </trkpt>
      <trkpt lat="47.86209" lon="6.75929">
        <ele>696</ele>
        <time>2018-06-23T07:47:57.000Z</time>
      </trkpt>
      <trkpt lat="47.86209" lon="6.75931">
        <ele>696</ele>
        <time>2018-06-23T07:47:58.000Z</time>
      </trkpt>
      <trkpt lat="47.8621" lon="6.75933">
        <ele>696</ele>
        <time>2018-06-23T07:47:59.000Z</time>
      </trkpt>
      <trkpt lat="47.8621" lon="6.75934">
        <ele>696</ele>
        <time>2018-06-23T07:48:00.000Z</time>
      </trkpt>
      <trkpt lat="47.8621" lon="6.75936">
        <ele>696</ele>
        <time>2018-06-23T07:48:01.000Z</time>
      </trkpt>
      <trkpt lat="47.86211" lon="6.75937">
        <ele>696</ele>
        <time>2018-06-23T07:48:02.000Z</time>
      </trkpt>
      <trkpt lat="47.86211" lon="6.75938">
        <ele>696</ele>
        <time>2018-06-23T07:48:03.000Z</time>
      </trkpt>
      <trkpt lat="47.86211" lon="6.7594">
        <ele>696</ele>
        <time>2018-06-23T07:48:04.000Z</time>
      </trkpt>
      <trkpt lat="47.86211" lon="6.75941">
        <ele>696</ele>
        <time>2018-06-23T07:48:05.000Z</time>
      </trkpt>
      <trkpt lat="47.86212" lon="6.75943">
        <ele>696</ele>
        <time>2018-06-23T07:48:06.000Z</time>
      </trkpt>
      <trkpt lat="47.86212" lon="6.75944">
        <ele>696</ele>
        <time>2018-06-23T07:48:07.000Z</time>
      </trkpt>
      <trkpt lat="47.86212" lon="6.75945">
        <ele>696</ele>
        <time>2018-06-23T07:48:08.000Z</time>
      </trkpt>
      <trkpt lat="47.86212" lon="6.75947">
        <ele>696</ele>
        <time>2018-06-23T07:48:09.000Z</time>
      </trkpt>
      <trkpt lat="47.86212" lon="6.75949">
        <ele>696</ele>
        <time>2018-06-23T07:48:10.000Z</time>
      </trkpt>
      <trkpt lat="47.86212" lon="6.7595">
        <ele>696</ele>
        <time>2018-06-23T07:48:11.000Z</time>
      </trkpt>
      <trkpt lat="47.86213" lon="6.75952">
        <ele>696</ele>
        <time>2018-06-23T07:48:12.000Z</time>
      </trkpt>
      <trkpt lat="47.86213" lon="6.75953">
        <ele>696</ele>
        <time>2018-06-23T07:48:13.000Z</time>
      </trkpt>
      <trkpt lat="47.86213" lon="6.75955">
        <ele>696</ele>
        <time>2018-06-23T07:48:14.000Z</time>
      </trkpt>
      <trkpt lat="47.86213" lon="6.75956">
        <ele>696</ele>
        <time>2018-06-23T07:48:15.000Z</time>
      </trkpt>
      <trkpt lat="47.86213" lon="6.75958">
        <ele>696</ele>
        <time>2018-06-23T07:48:16.000Z</time>
      </trkpt>
      <trkpt lat="47.86214" lon="6.75959">
        <ele>696</ele>
        <time>2018-06-23T07:48:17.000Z</time>
      </trkpt>
      <trkpt lat="47.86214" lon="6.75961">
        <ele>696</ele>
        <time>2018-06-23T07:48:18.000Z</time>
      </trkpt>
      <trkpt lat="47.86214" lon="6.75963">
        <ele>696</ele>
        <time>2018-06-23T07:48:19.000Z</time>
      </trkpt>
      <trkpt lat="47.86215" lon="6.75964">
        <ele>696</ele>
        <time>2018-06-23T07:48:20.000Z</time>
      </trkpt>
      <trkpt lat="47.86215" lon="6.75966">
        <ele>696</ele>
        <time>2018-06-23T07:48:21.000Z</time>
      </trkpt>
      <trkpt lat="47.86215" lon="6.75967">
        <ele>696</ele>
        <time>2018-06-23T07:48:22.000Z</time>
      </trkpt>
      <trkpt lat="47.86215" lon="6.75969">
        <ele>695</ele>
        <time>2018-06-23T07:48:23.000Z</time>
      </trkpt>
      <trkpt lat="47.86215" lon="6.7597">
        <ele>695</ele>
        <time>2018-06-23T07:48:24.000Z</time>
      </trkpt>
      <trkpt lat="47.86215" lon="6.75972">
        <ele>695</ele>
        <time>2018-06-23T07:48:25.000Z</time>
      </trkpt>
      <trkpt lat="47.86215" lon="6.75974">
        <ele>695</ele>
        <time>2018-06-23T07:48:26.000Z</time>
      </trkpt>
      <trkpt lat="47.86216" lon="6.75975">
        <ele>695</ele>
        <time>2018-06-23T07:48:27.000Z</time>
      </trkpt>
      <trkpt lat="47.86216" lon="6.75977">
        <ele>695</ele>
        <time>2018-06-23T07:48:28.000Z</time>
      </trkpt>
      <trkpt lat="47.86217" lon="6.75978">
        <ele>695</ele>
        <time>2018-06-23T07:48:29.000Z</time>
      </trkpt>
      <trkpt lat="47.86217" lon="6.7598">
        <ele>695</ele>
        <time>2018-06-23T07:48:30.000Z</time>
      </trkpt>
      <trkpt lat="47.86218" lon="6.75982">
        <ele>695</ele>
        <time>2018-06-23T07:48:31.000Z</time>
      </trkpt>
      <trkpt lat="47.86219" lon="6.75983">
        <ele>694</ele>
        <time>2018-06-23T07:48:32.000Z</time>
      </trkpt>
      <trkpt lat="47.86219" lon="6.75985">
        <ele>694</ele>
        <time>2018-06-23T07:48:33.000Z</time>
      </trkpt>
      <trkpt lat="47.8622" lon="6.75986">
        <ele>694</ele>
        <time>2018-06-23T07:48:34.000Z</time>
      </trkpt>
      <trkpt lat="47.86221" lon="6.75987">
        <ele>694</ele>
        <time>2018-06-23T07:48:35.000Z</time>
      </trkpt>
      <trkpt lat="47.86222" lon="6.75988">
        <ele>693</ele>
        <time>2018-06-23T07:48:36.000Z</time>
      </trkpt>
      <trkpt lat="47.86223" lon="6.7599">
        <ele>693</ele>
        <time>2018-06-23T07:48:37.000Z</time>
      </trkpt>
      <trkpt lat="47.86223" lon="6.75991">
        <ele>693</ele>
        <time>2018-06-23T07:48:38.000Z</time>
      </trkpt>
      <trkpt lat="47.86224" lon="6.75992">
        <ele>693</ele>
        <time>2018-06-23T07:48:39.000Z</time>
      </trkpt>
      <trkpt lat="47.86224" lon="6.75994">
        <ele>693</ele>
        <time>2018-06-23T07:48:40.000Z</time>
      </trkpt>
      <trkpt lat="47.86225" lon="6.75995">
        <ele>692</ele>
        <time>2018-06-23T07:48:41.000Z</time>
      </trkpt>
      <trkpt lat="47.86226" lon="6.75996">
        <ele>692</ele>
        <time>2018-06-23T07:48:42.000Z</time>
      </trkpt>
      <trkpt lat="47.86226" lon="6.75997">
        <ele>692</ele>
        <time>2018-06-23T07:48:43.000Z</time>
      </trkpt>
      <trkpt lat="47.86227" lon="6.75999">
        <ele>692</ele>
        <time>2018-06-23T07:48:44.000Z</time>
      </trkpt>
      <trkpt lat="47.86228" lon="6.76">
        <ele>691</ele>
        <time>2018-06-23T07:48:45.000Z</time>
      </trkpt>
      <trkpt lat="47.86229" lon="6.76001">
        <ele>692</ele>
        <time>2018-06-23T07:48:46.000Z</time>
      </trkpt>
      <trkpt lat="47.86229" lon="6.76003">
        <ele>692</ele>
        <time>2018-06-23T07:48:47.000Z</time>
      </trkpt>
      <trkpt lat="47.8623" lon="6.76004">
        <ele>692</ele>
        <time>2018-06-23T07:48:48.000Z</time>
      </trkpt>
      <trkpt lat="47.86231" lon="6.76005">
        <ele>691</ele>
        <time>2018-06-23T07:48:49.000Z</time>
      </trkpt>
      <trkpt lat="47.86232" lon="6.76006">
        <ele>691</ele>
        <time>2018-06-23T07:48:50.000Z</time>
      </trkpt>
      <trkpt lat="47.86233" lon="6.76007">
        <ele>691</ele>
        <time>2018-06-23T07:48:51.000Z</time>
      </trkpt>
      <trkpt lat="47.86234" lon="6.76008">
        <ele>691</ele>
        <time>2018-06-23T07:48:52.000Z</time>
      </trkpt>
      <trkpt lat="47.86235" lon="6.76009">
        <ele>691</ele>
        <time>2018-06-23T07:48:53.000Z</time>
      </trkpt>
      <trkpt lat="47.86236" lon="6.7601">
        <ele>691</ele>
        <time>2018-06-23T07:48:54.000Z</time>
      </trkpt>
      <trkpt lat="47.86237" lon="6.76012">
        <ele>691</ele>
        <time>2018-06-23T07:48:55.000Z</time>
      </trkpt>
      <trkpt lat="47.86238" lon="6.76013">
        <ele>691</ele>
        <time>2018-06-23T07:48:56.000Z</time>
      </trkpt>
      <trkpt lat="47.86239" lon="6.76015">
        <ele>691</ele>
        <time>2018-06-23T07:48:57.000Z</time>
      </trkpt>
      <trkpt lat="47.8624" lon="6.76016">
        <ele>691</ele>
        <time>2018-06-23T07:48:58.000Z</time>
      </trkpt>
      <trkpt lat="47.8624" lon="6.76017">
        <ele>691</ele>
        <time>2018-06-23T07:48:59.000Z</time>
      </trkpt>
      <trkpt lat="47.86241" lon="6.76018">
        <ele>691</ele>
        <time>2018-06-23T07:49:00.000Z</time>
      </trkpt>
      <trkpt lat="47.86242" lon="6.76019">
        <ele>691</ele>
        <time>2018-06-23T07:49:01.000Z</time>
      </trkpt>
      <trkpt lat="47.86243" lon="6.7602">
        <ele>691</ele>
        <time>2018-06-23T07:49:02.000Z</time>
      </trkpt>
      <trkpt lat="47.86244" lon="6.76021">
        <ele>691</ele>
        <time>2018-06-23T07:49:03.000Z</time>
      </trkpt>
      <trkpt lat="47.86245" lon="6.76022">
        <ele>691</ele>
        <time>2018-06-23T07:49:04.000Z</time>
      </trkpt>
      <trkpt lat="47.86245" lon="6.76023">
        <ele>691</ele>
        <time>2018-06-23T07:49:05.000Z</time>
      </trkpt>
      <trkpt lat="47.86246" lon="6.76024">
        <ele>692</ele>
        <time>2018-06-23T07:49:06.000Z</time>
      </trkpt>
      <trkpt lat="47.86247" lon="6.76025">
        <ele>692</ele>
        <time>2018-06-23T07:49:07.000Z</time>
      </trkpt>
      <trkpt lat="47.86248" lon="6.76026">
        <ele>692</ele>
        <time>2018-06-23T07:49:08.000Z</time>
      </trkpt>
      <trkpt lat="47.86249" lon="6.76027">
        <ele>692</ele>
        <time>2018-06-23T07:49:09.000Z</time>
      </trkpt>
      <trkpt lat="47.8625" lon="6.76028">
        <ele>692</ele>
        <time>2018-06-23T07:49:10.000Z</time>
      </trkpt>
      <trkpt lat="47.86251" lon="6.76029">
        <ele>679</ele>
        <time>2018-06-23T07:49:11.000Z</time>
      </trkpt>
      <trkpt lat="47.86251" lon="6.7603">
        <ele>679</ele>
        <time>2018-06-23T07:49:12.000Z</time>
      </trkpt>
      <trkpt lat="47.86252" lon="6.76032">
        <ele>679</ele>
        <time>2018-06-23T07:49:13.000Z</time>
      </trkpt>
      <trkpt lat="47.86253" lon="6.76033">
        <ele>679</ele>
        <time>2018-06-23T07:49:14.000Z</time>
      </trkpt>
      <trkpt lat="47.86254" lon="6.76034">
        <ele>679</ele>
        <time>2018-06-23T07:49:15.000Z</time>
      </trkpt>
      <trkpt lat="47.86255" lon="6.76035">
        <ele>679</ele>
        <time>2018-06-23T07:49:16.000Z</time>
      </trkpt>
      <trkpt lat="47.86256" lon="6.76036">
        <ele>679</ele>
        <time>2018-06-23T07:49:17.000Z</time>
      </trkpt>
      <trkpt lat="47.86257" lon="6.76037">
        <ele>679</ele>
        <time>2018-06-23T07:49:18.000Z</time>
      </trkpt>
      <trkpt lat="47.86257" lon="6.76038">
        <ele>679</ele>
        <time>2018-06-23T07:49:19.000Z</time>
      </trkpt>
      <trkpt lat="47.86258" lon="6.76039">
        <ele>679</ele>
        <time>2018-06-23T07:49:20.000Z</time>
      </trkpt>
      <trkpt lat="47.86259" lon="6.7604">
        <ele>679</ele>
        <time>2018-06-23T07:49:21.000Z</time>
      </trkpt>
      <trkpt lat="47.8626" lon="6.76041">
        <ele>679</ele>
        <time>2018-06-23T07:49:22.000Z</time>
      </trkpt>
      <trkpt lat="47.8626" lon="6.76042">
        <ele>679</ele>
        <time>2018-06-23T07:49:23.000Z</time>
      </trkpt>
      <trkpt lat="47.86261" lon="6.76043">
        <ele>679</ele>
        <time>2018-06-23T07:49:24.000Z</time>
      </trkpt>
      <trkpt lat="47.86262" lon="6.76044">
        <ele>679</ele>
        <time>2018-06-23T07:49:25.000Z</time>
      </trkpt>
      <trkpt lat="47.86263" lon="6.76045">
        <ele>679</ele>
        <time>2018-06-23T07:49:26.000Z</time>
      </trkpt>
      <trkpt lat="47.86263" lon="6.76045">
        <ele>679</ele>
        <time>2018-06-23T07:49:27.000Z</time>
      </trkpt>
      <trkpt lat="47.86264" lon="6.76046">
        <ele>679</ele>
        <time>2018-06-23T07:49:28.000Z</time>
      </trkpt>
      <trkpt lat="47.86265" lon="6.76046">
        <ele>679</ele>
        <time>2018-06-23T07:49:29.000Z</time>
      </trkpt>
      <trkpt lat="47.86265" lon="6.76047">
        <ele>679</ele>
        <time>2018-06-23T07:49:30.000Z</time>
      </trkpt>
      <trkpt lat="47.86266" lon="6.76048">
        <ele>679</ele>
        <time>2018-06-23T07:49:31.000Z</time>
      </trkpt>
      <trkpt lat="47.86267" lon="6.76049">
        <ele>679</ele>
        <time>2018-06-23T07:49:32.000Z</time>
      </trkpt>
      <trkpt lat="47.86268" lon="6.76051">
        <ele>679</ele>
        <time>2018-06-23T07:49:33.000Z</time>
      </trkpt>
      <trkpt lat="47.86269" lon="6.76052">
        <ele>679</ele>
        <time>2018-06-23T07:49:34.000Z</time>
      </trkpt>
      <trkpt lat="47.8627" lon="6.76053">
        <ele>679</ele>
        <time>2018-06-23T07:49:35.000Z</time>
      </trkpt>
      <trkpt lat="47.8627" lon="6.76054">
        <ele>679</ele>
        <time>2018-06-23T07:49:36.000Z</time>
      </trkpt>
      <trkpt lat="47.86271" lon="6.76055">
        <ele>679</ele>
        <time>2018-06-23T07:49:37.000Z</time>
      </trkpt>
      <trkpt lat="47.86272" lon="6.76056">
        <ele>679</ele>
        <time>2018-06-23T07:49:38.000Z</time>
      </trkpt>
      <trkpt lat="47.86273" lon="6.76057">
        <ele>679</ele>
        <time>2018-06-23T07:49:39.000Z</time>
      </trkpt>
      <trkpt lat="47.86274" lon="6.76058">
        <ele>679</ele>
        <time>2018-06-23T07:49:40.000Z</time>
      </trkpt>
      <trkpt lat="47.86274" lon="6.76059">
        <ele>679</ele>
        <time>2018-06-23T07:49:41.000Z</time>
      </trkpt>
      <trkpt lat="47.86275" lon="6.7606">
        <ele>679</ele>
        <time>2018-06-23T07:49:42.000Z</time>
      </trkpt>
      <trkpt lat="47.86276" lon="6.76061">
        <ele>679</ele>
        <time>2018-06-23T07:49:43.000Z</time>
      </trkpt>
      <trkpt lat="47.86277" lon="6.76062">
        <ele>679</ele>
        <time>2018-06-23T07:49:44.000Z</time>
      </trkpt>
      <trkpt lat="47.86277" lon="6.76062">
        <ele>679</ele>
        <time>2018-06-23T07:49:45.000Z</time>
      </trkpt>
      <trkpt lat="47.86277" lon="6.76062">
        <ele>679</ele>
        <time>2018-06-23T07:49:46.000Z</time>
      </trkpt>
      <trkpt lat="47.86277" lon="6.76062">
        <ele>679</ele>
        <time>2018-06-23T07:49:47.000Z</time>
      </trkpt>
      <trkpt lat="47.86277" lon="6.76063">
        <ele>679</ele>
        <time>2018-06-23T07:49:48.000Z</time>
      </trkpt>
      <trkpt lat="47.86281" lon="6.76073">
        <ele>679</ele>
        <time>2018-06-23T07:49:49.000Z</time>
      </trkpt>
      <trkpt lat="47.86281" lon="6.76074">
        <ele>679</ele>
        <time>2018-06-23T07:49:50.000Z</time>
      </trkpt>
      <trkpt lat="47.86282" lon="6.76074">
        <ele>679</ele>
        <time>2018-06-23T07:49:51.000Z</time>
      </trkpt>
      <trkpt lat="47.86282" lon="6.76075">
        <ele>679</ele>
        <time>2018-06-23T07:49:52.000Z</time>
      </trkpt>
      <trkpt lat="47.86282" lon="6.76076">
        <ele>679</ele>
        <time>2018-06-23T07:49:53.000Z</time>
      </trkpt>
      <trkpt lat="47.86283" lon="6.76077">
        <ele>679</ele>
        <time>2018-06-23T07:49:54.000Z</time>
      </trkpt>
      <trkpt lat="47.86284" lon="6.76078">
        <ele>679</ele>
        <time>2018-06-23T07:49:55.000Z</time>
      </trkpt>
      <trkpt lat="47.86285" lon="6.76079">
        <ele>679</ele>
        <time>2018-06-23T07:49:56.000Z</time>
      </trkpt>
      <trkpt lat="47.86285" lon="6.7608">
        <ele>679</ele>
        <time>2018-06-23T07:49:57.000Z</time>
      </trkpt>
      <trkpt lat="47.86286" lon="6.76081">
        <ele>679</ele>
        <time>2018-06-23T07:49:58.000Z</time>
      </trkpt>
      <trkpt lat="47.86287" lon="6.76082">
        <ele>679</ele>
        <time>2018-06-23T07:49:59.000Z</time>
      </trkpt>
      <trkpt lat="47.86287" lon="6.76084">
        <ele>682</ele>
        <time>2018-06-23T07:50:00.000Z</time>
      </trkpt>
      <trkpt lat="47.86288" lon="6.76085">
        <ele>682</ele>
        <time>2018-06-23T07:50:01.000Z</time>
      </trkpt>
      <trkpt lat="47.86289" lon="6.76086">
        <ele>682</ele>
        <time>2018-06-23T07:50:02.000Z</time>
      </trkpt>
      <trkpt lat="47.8629" lon="6.76087">
        <ele>682</ele>
        <time>2018-06-23T07:50:03.000Z</time>
      </trkpt>
      <trkpt lat="47.8629" lon="6.76088">
        <ele>682</ele>
        <time>2018-06-23T07:50:04.000Z</time>
      </trkpt>
      <trkpt lat="47.86291" lon="6.76089">
        <ele>682</ele>
        <time>2018-06-23T07:50:05.000Z</time>
      </trkpt>
      <trkpt lat="47.86293" lon="6.7609">
        <ele>682</ele>
        <time>2018-06-23T07:50:06.000Z</time>
      </trkpt>
      <trkpt lat="47.86293" lon="6.7609">
        <ele>681</ele>
        <time>2018-06-23T07:50:07.000Z</time>
      </trkpt>
      <trkpt lat="47.86294" lon="6.76091">
        <ele>681</ele>
        <time>2018-06-23T07:50:08.000Z</time>
      </trkpt>
      <trkpt lat="47.86295" lon="6.76092">
        <ele>681</ele>
        <time>2018-06-23T07:50:09.000Z</time>
      </trkpt>
      <trkpt lat="47.86295" lon="6.76094">
        <ele>681</ele>
        <time>2018-06-23T07:50:10.000Z</time>
      </trkpt>
      <trkpt lat="47.86296" lon="6.76095">
        <ele>681</ele>
        <time>2018-06-23T07:50:11.000Z</time>
      </trkpt>
      <trkpt lat="47.86297" lon="6.76096">
        <ele>681</ele>
        <time>2018-06-23T07:50:12.000Z</time>
      </trkpt>
      <trkpt lat="47.86297" lon="6.76097">
        <ele>681</ele>
        <time>2018-06-23T07:50:13.000Z</time>
      </trkpt>
      <trkpt lat="47.86298" lon="6.76098">
        <ele>681</ele>
        <time>2018-06-23T07:50:14.000Z</time>
      </trkpt>
      <trkpt lat="47.86298" lon="6.76099">
        <ele>681</ele>
        <time>2018-06-23T07:50:15.000Z</time>
      </trkpt>
      <trkpt lat="47.86299" lon="6.761">
        <ele>681</ele>
        <time>2018-06-23T07:50:16.000Z</time>
      </trkpt>
      <trkpt lat="47.86299" lon="6.76101">
        <ele>681</ele>
        <time>2018-06-23T07:50:17.000Z</time>
      </trkpt>
      <trkpt lat="47.863" lon="6.76103">
        <ele>681</ele>
        <time>2018-06-23T07:50:18.000Z</time>
      </trkpt>
      <trkpt lat="47.863" lon="6.76104">
        <ele>681</ele>
        <time>2018-06-23T07:50:19.000Z</time>
      </trkpt>
      <trkpt lat="47.86301" lon="6.76106">
        <ele>681</ele>
        <time>2018-06-23T07:50:20.000Z</time>
      </trkpt>
      <trkpt lat="47.86301" lon="6.76107">
        <ele>681</ele>
        <time>2018-06-23T07:50:21.000Z</time>
      </trkpt>
      <trkpt lat="47.86302" lon="6.76109">
        <ele>681</ele>
        <time>2018-06-23T07:50:22.000Z</time>
      </trkpt>
      <trkpt lat="47.86302" lon="6.76111">
        <ele>681</ele>
        <time>2018-06-23T07:50:23.000Z</time>
      </trkpt>
      <trkpt lat="47.86302" lon="6.76113">
        <ele>681</ele>
        <time>2018-06-23T07:50:24.000Z</time>
      </trkpt>
      <trkpt lat="47.86303" lon="6.76114">
        <ele>681</ele>
        <time>2018-06-23T07:50:25.000Z</time>
      </trkpt>
      <trkpt lat="47.86303" lon="6.76116">
        <ele>681</ele>
        <time>2018-06-23T07:50:26.000Z</time>
      </trkpt>
      <trkpt lat="47.86303" lon="6.76118">
        <ele>681</ele>
        <time>2018-06-23T07:50:27.000Z</time>
      </trkpt>
      <trkpt lat="47.86304" lon="6.76119">
        <ele>681</ele>
        <time>2018-06-23T07:50:28.000Z</time>
      </trkpt>
      <trkpt lat="47.86304" lon="6.76121">
        <ele>681</ele>
        <time>2018-06-23T07:50:29.000Z</time>
      </trkpt>
      <trkpt lat="47.86304" lon="6.76122">
        <ele>681</ele>
        <time>2018-06-23T07:50:30.000Z</time>
      </trkpt>
      <trkpt lat="47.86304" lon="6.76123">
        <ele>681</ele>
        <time>2018-06-23T07:50:31.000Z</time>
      </trkpt>
      <trkpt lat="47.86304" lon="6.76124">
        <ele>681</ele>
        <time>2018-06-23T07:50:32.000Z</time>
      </trkpt>
      <trkpt lat="47.86304" lon="6.76126">
        <ele>681</ele>
        <time>2018-06-23T07:50:33.000Z</time>
      </trkpt>
      <trkpt lat="47.86304" lon="6.76128">
        <ele>681</ele>
        <time>2018-06-23T07:50:34.000Z</time>
      </trkpt>
      <trkpt lat="47.86304" lon="6.76129">
        <ele>682</ele>
        <time>2018-06-23T07:50:35.000Z</time>
      </trkpt>
      <trkpt lat="47.86303" lon="6.76131">
        <ele>682</ele>
        <time>2018-06-23T07:50:36.000Z</time>
      </trkpt>
      <trkpt lat="47.86303" lon="6.76133">
        <ele>682</ele>
        <time>2018-06-23T07:50:37.000Z</time>
      </trkpt>
      <trkpt lat="47.86303" lon="6.76135">
        <ele>682</ele>
        <time>2018-06-23T07:50:38.000Z</time>
      </trkpt>
      <trkpt lat="47.86302" lon="6.76137">
        <ele>682</ele>
        <time>2018-06-23T07:50:39.000Z</time>
      </trkpt>
      <trkpt lat="47.86302" lon="6.76139">
        <ele>682</ele>
        <time>2018-06-23T07:50:40.000Z</time>
      </trkpt>
      <trkpt lat="47.86302" lon="6.7614">
        <ele>682</ele>
        <time>2018-06-23T07:50:41.000Z</time>
      </trkpt>
      <trkpt lat="47.86302" lon="6.76142">
        <ele>682</ele>
        <time>2018-06-23T07:50:42.000Z</time>
      </trkpt>
      <trkpt lat="47.86302" lon="6.76144">
        <ele>682</ele>
        <time>2018-06-23T07:50:43.000Z</time>
      </trkpt>
      <trkpt lat="47.86302" lon="6.76145">
        <ele>682</ele>
        <time>2018-06-23T07:50:44.000Z</time>
      </trkpt>
      <trkpt lat="47.86301" lon="6.76147">
        <ele>682</ele>
        <time>2018-06-23T07:50:45.000Z</time>
      </trkpt>
      <trkpt lat="47.86301" lon="6.76149">
        <ele>682</ele>
        <time>2018-06-23T07:50:46.000Z</time>
      </trkpt>
      <trkpt lat="47.86301" lon="6.76151">
        <ele>682</ele>
        <time>2018-06-23T07:50:47.000Z</time>
      </trkpt>
      <trkpt lat="47.86301" lon="6.76152">
        <ele>682</ele>
        <time>2018-06-23T07:50:48.000Z</time>
      </trkpt>
      <trkpt lat="47.86301" lon="6.76154">
        <ele>682</ele>
        <time>2018-06-23T07:50:49.000Z</time>
      </trkpt>
      <trkpt lat="47.86301" lon="6.76156">
        <ele>682</ele>
        <time>2018-06-23T07:50:50.000Z</time>
      </trkpt>
      <trkpt lat="47.86301" lon="6.76158">
        <ele>682</ele>
        <time>2018-06-23T07:50:51.000Z</time>
      </trkpt>
      <trkpt lat="47.86301" lon="6.7616">
        <ele>682</ele>
        <time>2018-06-23T07:50:52.000Z</time>
      </trkpt>
      <trkpt lat="47.86301" lon="6.76162">
        <ele>682</ele>
        <time>2018-06-23T07:50:53.000Z</time>
      </trkpt>
      <trkpt lat="47.86301" lon="6.76164">
        <ele>682</ele>
        <time>2018-06-23T07:50:54.000Z</time>
      </trkpt>
      <trkpt lat="47.86301" lon="6.76166">
        <ele>682</ele>
        <time>2018-06-23T07:50:55.000Z</time>
      </trkpt>
      <trkpt lat="47.86301" lon="6.76167">
        <ele>683</ele>
        <time>2018-06-23T07:50:56.000Z</time>
      </trkpt>
      <trkpt lat="47.86301" lon="6.76169">
        <ele>683</ele>
        <time>2018-06-23T07:50:57.000Z</time>
      </trkpt>
      <trkpt lat="47.86301" lon="6.7617">
        <ele>683</ele>
        <time>2018-06-23T07:50:58.000Z</time>
      </trkpt>
      <trkpt lat="47.86301" lon="6.76172">
        <ele>683</ele>
        <time>2018-06-23T07:50:59.000Z</time>
      </trkpt>
      <trkpt lat="47.86301" lon="6.76173">
        <ele>683</ele>
        <time>2018-06-23T07:51:00.000Z</time>
      </trkpt>
      <trkpt lat="47.863" lon="6.76175">
        <ele>683</ele>
        <time>2018-06-23T07:51:01.000Z</time>
      </trkpt>
      <trkpt lat="47.863" lon="6.76176">
        <ele>683</ele>
        <time>2018-06-23T07:51:02.000Z</time>
      </trkpt>
      <trkpt lat="47.863" lon="6.76178">
        <ele>683</ele>
        <time>2018-06-23T07:51:03.000Z</time>
      </trkpt>
      <trkpt lat="47.863" lon="6.7618">
        <ele>683</ele>
        <time>2018-06-23T07:51:04.000Z</time>
      </trkpt>
      <trkpt lat="47.863" lon="6.76181">
        <ele>683</ele>
        <time>2018-06-23T07:51:05.000Z</time>
      </trkpt>
      <trkpt lat="47.863" lon="6.76183">
        <ele>683</ele>
        <time>2018-06-23T07:51:06.000Z</time>
      </trkpt>
      <trkpt lat="47.86299" lon="6.76184">
        <ele>683</ele>
        <time>2018-06-23T07:51:07.000Z</time>
      </trkpt>
      <trkpt lat="47.86299" lon="6.76186">
        <ele>683</ele>
        <time>2018-06-23T07:51:08.000Z</time>
      </trkpt>
      <trkpt lat="47.86299" lon="6.76188">
        <ele>683</ele>
        <time>2018-06-23T07:51:09.000Z</time>
      </trkpt>
      <trkpt lat="47.863" lon="6.7619">
        <ele>683</ele>
        <time>2018-06-23T07:51:10.000Z</time>
      </trkpt>
      <trkpt lat="47.863" lon="6.76192">
        <ele>683</ele>
        <time>2018-06-23T07:51:11.000Z</time>
      </trkpt>
      <trkpt lat="47.863" lon="6.76193">
        <ele>683</ele>
        <time>2018-06-23T07:51:12.000Z</time>
      </trkpt>
      <trkpt lat="47.86301" lon="6.76195">
        <ele>683</ele>
        <time>2018-06-23T07:51:13.000Z</time>
      </trkpt>
      <trkpt lat="47.86301" lon="6.76197">
        <ele>683</ele>
        <time>2018-06-23T07:51:14.000Z</time>
      </trkpt>
      <trkpt lat="47.86302" lon="6.76199">
        <ele>683</ele>
        <time>2018-06-23T07:51:15.000Z</time>
      </trkpt>
      <trkpt lat="47.86302" lon="6.762">
        <ele>683</ele>
        <time>2018-06-23T07:51:16.000Z</time>
      </trkpt>
      <trkpt lat="47.86303" lon="6.76203">
        <ele>683</ele>
        <time>2018-06-23T07:51:17.000Z</time>
      </trkpt>
      <trkpt lat="47.86303" lon="6.76205">
        <ele>683</ele>
        <time>2018-06-23T07:51:18.000Z</time>
      </trkpt>
      <trkpt lat="47.86303" lon="6.76207">
        <ele>683</ele>
        <time>2018-06-23T07:51:19.000Z</time>
      </trkpt>
      <trkpt lat="47.86303" lon="6.76209">
        <ele>683</ele>
        <time>2018-06-23T07:51:20.000Z</time>
      </trkpt>
      <trkpt lat="47.86304" lon="6.7621">
        <ele>683</ele>
        <time>2018-06-23T07:51:21.000Z</time>
      </trkpt>
      <trkpt lat="47.86304" lon="6.76212">
        <ele>683</ele>
        <time>2018-06-23T07:51:22.000Z</time>
      </trkpt>
      <trkpt lat="47.86304" lon="6.76214">
        <ele>683</ele>
        <time>2018-06-23T07:51:23.000Z</time>
      </trkpt>
      <trkpt lat="47.86305" lon="6.76216">
        <ele>683</ele>
        <time>2018-06-23T07:51:24.000Z</time>
      </trkpt>
      <trkpt lat="47.86305" lon="6.76217">
        <ele>683</ele>
        <time>2018-06-23T07:51:25.000Z</time>
      </trkpt>
      <trkpt lat="47.86305" lon="6.76219">
        <ele>683</ele>
        <time>2018-06-23T07:51:26.000Z</time>
      </trkpt>
      <trkpt lat="47.86305" lon="6.76221">
        <ele>683</ele>
        <time>2018-06-23T07:51:27.000Z</time>
      </trkpt>
      <trkpt lat="47.86306" lon="6.76223">
        <ele>683</ele>
        <time>2018-06-23T07:51:28.000Z</time>
      </trkpt>
      <trkpt lat="47.86306" lon="6.76225">
        <ele>682</ele>
        <time>2018-06-23T07:51:29.000Z</time>
      </trkpt>
      <trkpt lat="47.86306" lon="6.76228">
        <ele>682</ele>
        <time>2018-06-23T07:51:30.000Z</time>
      </trkpt>
      <trkpt lat="47.86306" lon="6.7623">
        <ele>682</ele>
        <time>2018-06-23T07:51:31.000Z</time>
      </trkpt>
      <trkpt lat="47.86306" lon="6.76232">
        <ele>682</ele>
        <time>2018-06-23T07:51:32.000Z</time>
      </trkpt>
      <trkpt lat="47.86307" lon="6.76234">
        <ele>682</ele>
        <time>2018-06-23T07:51:33.000Z</time>
      </trkpt>
      <trkpt lat="47.86307" lon="6.76235">
        <ele>682</ele>
        <time>2018-06-23T07:51:34.000Z</time>
      </trkpt>
      <trkpt lat="47.86307" lon="6.76237">
        <ele>682</ele>
        <time>2018-06-23T07:51:35.000Z</time>
      </trkpt>
      <trkpt lat="47.86307" lon="6.7624">
        <ele>682</ele>
        <time>2018-06-23T07:51:36.000Z</time>
      </trkpt>
      <trkpt lat="47.86307" lon="6.76242">
        <ele>682</ele>
        <time>2018-06-23T07:51:37.000Z</time>
      </trkpt>
      <trkpt lat="47.86308" lon="6.76244">
        <ele>682</ele>
        <time>2018-06-23T07:51:38.000Z</time>
      </trkpt>
      <trkpt lat="47.86308" lon="6.76246">
        <ele>682</ele>
        <time>2018-06-23T07:51:39.000Z</time>
      </trkpt>
      <trkpt lat="47.86308" lon="6.76247">
        <ele>682</ele>
        <time>2018-06-23T07:51:40.000Z</time>
      </trkpt>
      <trkpt lat="47.86309" lon="6.76249">
        <ele>682</ele>
        <time>2018-06-23T07:51:41.000Z</time>
      </trkpt>
      <trkpt lat="47.86309" lon="6.76251">
        <ele>682</ele>
        <time>2018-06-23T07:51:42.000Z</time>
      </trkpt>
      <trkpt lat="47.86309" lon="6.76253">
        <ele>682</ele>
        <time>2018-06-23T07:51:43.000Z</time>
      </trkpt>
      <trkpt lat="47.86309" lon="6.76255">
        <ele>682</ele>
        <time>2018-06-23T07:51:44.000Z</time>
      </trkpt>
      <trkpt lat="47.86309" lon="6.76256">
        <ele>682</ele>
        <time>2018-06-23T07:51:45.000Z</time>
      </trkpt>
      <trkpt lat="47.86309" lon="6.76258">
        <ele>682</ele>
        <time>2018-06-23T07:51:46.000Z</time>
      </trkpt>
      <trkpt lat="47.86309" lon="6.76259">
        <ele>682</ele>
        <time>2018-06-23T07:51:47.000Z</time>
      </trkpt>
      <trkpt lat="47.86309" lon="6.76261">
        <ele>682</ele>
        <time>2018-06-23T07:51:48.000Z</time>
      </trkpt>
      <trkpt lat="47.8631" lon="6.76264">
        <ele>682</ele>
        <time>2018-06-23T07:51:49.000Z</time>
      </trkpt>
      <trkpt lat="47.8631" lon="6.76266">
        <ele>682</ele>
        <time>2018-06-23T07:51:50.000Z</time>
      </trkpt>
      <trkpt lat="47.8631" lon="6.76267">
        <ele>682</ele>
        <time>2018-06-23T07:51:51.000Z</time>
      </trkpt>
      <trkpt lat="47.8631" lon="6.76269">
        <ele>682</ele>
        <time>2018-06-23T07:51:52.000Z</time>
      </trkpt>
      <trkpt lat="47.8631" lon="6.7627">
        <ele>682</ele>
        <time>2018-06-23T07:51:53.000Z</time>
      </trkpt>
      <trkpt lat="47.8631" lon="6.76272">
        <ele>682</ele>
        <time>2018-06-23T07:51:54.000Z</time>
      </trkpt>
      <trkpt lat="47.8631" lon="6.76273">
        <ele>682</ele>
        <time>2018-06-23T07:51:55.000Z</time>
      </trkpt>
      <trkpt lat="47.8631" lon="6.76274">
        <ele>682</ele>
        <time>2018-06-23T07:51:56.000Z</time>
      </trkpt>
      <trkpt lat="47.8631" lon="6.76276">
        <ele>682</ele>
        <time>2018-06-23T07:51:57.000Z</time>
      </trkpt>
      <trkpt lat="47.8631" lon="6.76277">
        <ele>682</ele>
        <time>2018-06-23T07:51:58.000Z</time>
      </trkpt>
      <trkpt lat="47.8631" lon="6.76279">
        <ele>682</ele>
        <time>2018-06-23T07:51:59.000Z</time>
      </trkpt>
      <trkpt lat="47.8631" lon="6.76281">
        <ele>682</ele>
        <time>2018-06-23T07:52:00.000Z</time>
      </trkpt>
      <trkpt lat="47.8631" lon="6.76282">
        <ele>682</ele>
        <time>2018-06-23T07:52:01.000Z</time>
      </trkpt>
      <trkpt lat="47.8631" lon="6.76284">
        <ele>682</ele>
        <time>2018-06-23T07:52:02.000Z</time>
      </trkpt>
      <trkpt lat="47.8631" lon="6.76286">
        <ele>682</ele>
        <time>2018-06-23T07:52:03.000Z</time>
      </trkpt>
      <trkpt lat="47.8631" lon="6.76288">
        <ele>682</ele>
        <time>2018-06-23T07:52:04.000Z</time>
      </trkpt>
      <trkpt lat="47.86309" lon="6.7629">
        <ele>682</ele>
        <time>2018-06-23T07:52:05.000Z</time>
      </trkpt>
      <trkpt lat="47.86309" lon="6.76292">
        <ele>682</ele>
        <time>2018-06-23T07:52:06.000Z</time>
      </trkpt>
      <trkpt lat="47.86309" lon="6.76294">
        <ele>682</ele>
        <time>2018-06-23T07:52:07.000Z</time>
      </trkpt>
      <trkpt lat="47.86309" lon="6.76296">
        <ele>682</ele>
        <time>2018-06-23T07:52:08.000Z</time>
      </trkpt>
      <trkpt lat="47.86309" lon="6.76297">
        <ele>682</ele>
        <time>2018-06-23T07:52:09.000Z</time>
      </trkpt>
      <trkpt lat="47.86309" lon="6.76299">
        <ele>682</ele>
        <time>2018-06-23T07:52:10.000Z</time>
      </trkpt>
      <trkpt lat="47.86308" lon="6.763">
        <ele>682</ele>
        <time>2018-06-23T07:52:11.000Z</time>
      </trkpt>
      <trkpt lat="47.86308" lon="6.76302">
        <ele>683</ele>
        <time>2018-06-23T07:52:12.000Z</time>
      </trkpt>
      <trkpt lat="47.86307" lon="6.76304">
        <ele>683</ele>
        <time>2018-06-23T07:52:13.000Z</time>
      </trkpt>
      <trkpt lat="47.86306" lon="6.76306">
        <ele>683</ele>
        <time>2018-06-23T07:52:14.000Z</time>
      </trkpt>
      <trkpt lat="47.86306" lon="6.76307">
        <ele>683</ele>
        <time>2018-06-23T07:52:15.000Z</time>
      </trkpt>
      <trkpt lat="47.86305" lon="6.76309">
        <ele>683</ele>
        <time>2018-06-23T07:52:16.000Z</time>
      </trkpt>
      <trkpt lat="47.86304" lon="6.7631">
        <ele>683</ele>
        <time>2018-06-23T07:52:17.000Z</time>
      </trkpt>
      <trkpt lat="47.86304" lon="6.76311">
        <ele>683</ele>
        <time>2018-06-23T07:52:18.000Z</time>
      </trkpt>
      <trkpt lat="47.86303" lon="6.76312">
        <ele>683</ele>
        <time>2018-06-23T07:52:19.000Z</time>
      </trkpt>
      <trkpt lat="47.86302" lon="6.76313">
        <ele>683</ele>
        <time>2018-06-23T07:52:20.000Z</time>
      </trkpt>
      <trkpt lat="47.86302" lon="6.76314">
        <ele>683</ele>
        <time>2018-06-23T07:52:21.000Z</time>
      </trkpt>
      <trkpt lat="47.86301" lon="6.76315">
        <ele>683</ele>
        <time>2018-06-23T07:52:22.000Z</time>
      </trkpt>
      <trkpt lat="47.863" lon="6.76316">
        <ele>683</ele>
        <time>2018-06-23T07:52:23.000Z</time>
      </trkpt>
      <trkpt lat="47.863" lon="6.76317">
        <ele>683</ele>
        <time>2018-06-23T07:52:24.000Z</time>
      </trkpt>
      <trkpt lat="47.86299" lon="6.76317">
        <ele>683</ele>
        <time>2018-06-23T07:52:25.000Z</time>
      </trkpt>
      <trkpt lat="47.86299" lon="6.76318">
        <ele>683</ele>
        <time>2018-06-23T07:52:26.000Z</time>
      </trkpt>
      <trkpt lat="47.86298" lon="6.76318">
        <ele>683</ele>
        <time>2018-06-23T07:52:27.000Z</time>
      </trkpt>
      <trkpt lat="47.86298" lon="6.76319">
        <ele>683</ele>
        <time>2018-06-23T07:52:28.000Z</time>
      </trkpt>
      <trkpt lat="47.86297" lon="6.7632">
        <ele>683</ele>
        <time>2018-06-23T07:52:29.000Z</time>
      </trkpt>
      <trkpt lat="47.86297" lon="6.76321">
        <ele>683</ele>
        <time>2018-06-23T07:52:30.000Z</time>
      </trkpt>
      <trkpt lat="47.86296" lon="6.76322">
        <ele>684</ele>
        <time>2018-06-23T07:52:31.000Z</time>
      </trkpt>
      <trkpt lat="47.86296" lon="6.76323">
        <ele>684</ele>
        <time>2018-06-23T07:52:32.000Z</time>
      </trkpt>
      <trkpt lat="47.86296" lon="6.76324">
        <ele>684</ele>
        <time>2018-06-23T07:52:33.000Z</time>
      </trkpt>
      <trkpt lat="47.86295" lon="6.76325">
        <ele>684</ele>
        <time>2018-06-23T07:52:34.000Z</time>
      </trkpt>
      <trkpt lat="47.86295" lon="6.76326">
        <ele>684</ele>
        <time>2018-06-23T07:52:35.000Z</time>
      </trkpt>
      <trkpt lat="47.86294" lon="6.76328">
        <ele>684</ele>
        <time>2018-06-23T07:52:36.000Z</time>
      </trkpt>
      <trkpt lat="47.86294" lon="6.76329">
        <ele>684</ele>
        <time>2018-06-23T07:52:37.000Z</time>
      </trkpt>
      <trkpt lat="47.86294" lon="6.7633">
        <ele>684</ele>
        <time>2018-06-23T07:52:38.000Z</time>
      </trkpt>
      <trkpt lat="47.86293" lon="6.76332">
        <ele>684</ele>
        <time>2018-06-23T07:52:39.000Z</time>
      </trkpt>
      <trkpt lat="47.86293" lon="6.76333">
        <ele>684</ele>
        <time>2018-06-23T07:52:40.000Z</time>
      </trkpt>
      <trkpt lat="47.86293" lon="6.76334">
        <ele>683</ele>
        <time>2018-06-23T07:52:41.000Z</time>
      </trkpt>
      <trkpt lat="47.86293" lon="6.76335">
        <ele>683</ele>
        <time>2018-06-23T07:52:42.000Z</time>
      </trkpt>
      <trkpt lat="47.86293" lon="6.76336">
        <ele>683</ele>
        <time>2018-06-23T07:52:43.000Z</time>
      </trkpt>
      <trkpt lat="47.86293" lon="6.76337">
        <ele>683</ele>
        <time>2018-06-23T07:52:44.000Z</time>
      </trkpt>
      <trkpt lat="47.86293" lon="6.76337">
        <ele>683</ele>
        <time>2018-06-23T07:52:45.000Z</time>
      </trkpt>
      <trkpt lat="47.86292" lon="6.76338">
        <ele>683</ele>
        <time>2018-06-23T07:52:46.000Z</time>
      </trkpt>
      <trkpt lat="47.86292" lon="6.76343">
        <ele>683</ele>
        <time>2018-06-23T07:52:47.000Z</time>
      </trkpt>
      <trkpt lat="47.86292" lon="6.76343">
        <ele>683</ele>
        <time>2018-06-23T07:52:48.000Z</time>
      </trkpt>
      <trkpt lat="47.86292" lon="6.76347">
        <ele>683</ele>
        <time>2018-06-23T07:52:49.000Z</time>
      </trkpt>
      <trkpt lat="47.86292" lon="6.76348">
        <ele>683</ele>
        <time>2018-06-23T07:52:50.000Z</time>
      </trkpt>
      <trkpt lat="47.86293" lon="6.76349">
        <ele>683</ele>
        <time>2018-06-23T07:52:51.000Z</time>
      </trkpt>
      <trkpt lat="47.86293" lon="6.76351">
        <ele>683</ele>
        <time>2018-06-23T07:52:52.000Z</time>
      </trkpt>
      <trkpt lat="47.86293" lon="6.76352">
        <ele>683</ele>
        <time>2018-06-23T07:52:53.000Z</time>
      </trkpt>
      <trkpt lat="47.86293" lon="6.76353">
        <ele>683</ele>
        <time>2018-06-23T07:52:54.000Z</time>
      </trkpt>
      <trkpt lat="47.86293" lon="6.76354">
        <ele>683</ele>
        <time>2018-06-23T07:52:55.000Z</time>
      </trkpt>
      <trkpt lat="47.86293" lon="6.76356">
        <ele>683</ele>
        <time>2018-06-23T07:52:56.000Z</time>
      </trkpt>
      <trkpt lat="47.86293" lon="6.76358">
        <ele>683</ele>
        <time>2018-06-23T07:52:57.000Z</time>
      </trkpt>
      <trkpt lat="47.86293" lon="6.76359">
        <ele>683</ele>
        <time>2018-06-23T07:52:58.000Z</time>
      </trkpt>
      <trkpt lat="47.86294" lon="6.7636">
        <ele>683</ele>
        <time>2018-06-23T07:52:59.000Z</time>
      </trkpt>
      <trkpt lat="47.86294" lon="6.76362">
        <ele>683</ele>
        <time>2018-06-23T07:53:00.000Z</time>
      </trkpt>
      <trkpt lat="47.86294" lon="6.76364">
        <ele>682</ele>
        <time>2018-06-23T07:53:01.000Z</time>
      </trkpt>
      <trkpt lat="47.86295" lon="6.76365">
        <ele>682</ele>
        <time>2018-06-23T07:53:02.000Z</time>
      </trkpt>
      <trkpt lat="47.86295" lon="6.76367">
        <ele>682</ele>
        <time>2018-06-23T07:53:03.000Z</time>
      </trkpt>
      <trkpt lat="47.86295" lon="6.76368">
        <ele>682</ele>
        <time>2018-06-23T07:53:04.000Z</time>
      </trkpt>
      <trkpt lat="47.86294" lon="6.7637">
        <ele>682</ele>
        <time>2018-06-23T07:53:05.000Z</time>
      </trkpt>
      <trkpt lat="47.86294" lon="6.76372">
        <ele>682</ele>
        <time>2018-06-23T07:53:06.000Z</time>
      </trkpt>
      <trkpt lat="47.86294" lon="6.76374">
        <ele>682</ele>
        <time>2018-06-23T07:53:07.000Z</time>
      </trkpt>
      <trkpt lat="47.86294" lon="6.76376">
        <ele>682</ele>
        <time>2018-06-23T07:53:08.000Z</time>
      </trkpt>
      <trkpt lat="47.86294" lon="6.76377">
        <ele>682</ele>
        <time>2018-06-23T07:53:09.000Z</time>
      </trkpt>
      <trkpt lat="47.86295" lon="6.76379">
        <ele>682</ele>
        <time>2018-06-23T07:53:10.000Z</time>
      </trkpt>
      <trkpt lat="47.86295" lon="6.7638">
        <ele>682</ele>
        <time>2018-06-23T07:53:11.000Z</time>
      </trkpt>
      <trkpt lat="47.86295" lon="6.76382">
        <ele>682</ele>
        <time>2018-06-23T07:53:12.000Z</time>
      </trkpt>
      <trkpt lat="47.86295" lon="6.76383">
        <ele>682</ele>
        <time>2018-06-23T07:53:13.000Z</time>
      </trkpt>
      <trkpt lat="47.86295" lon="6.76385">
        <ele>682</ele>
        <time>2018-06-23T07:53:14.000Z</time>
      </trkpt>
      <trkpt lat="47.86295" lon="6.76387">
        <ele>682</ele>
        <time>2018-06-23T07:53:15.000Z</time>
      </trkpt>
      <trkpt lat="47.86295" lon="6.76388">
        <ele>682</ele>
        <time>2018-06-23T07:53:16.000Z</time>
      </trkpt>
      <trkpt lat="47.86295" lon="6.7639">
        <ele>682</ele>
        <time>2018-06-23T07:53:17.000Z</time>
      </trkpt>
      <trkpt lat="47.86295" lon="6.76392">
        <ele>682</ele>
        <time>2018-06-23T07:53:18.000Z</time>
      </trkpt>
      <trkpt lat="47.86295" lon="6.76394">
        <ele>682</ele>
        <time>2018-06-23T07:53:19.000Z</time>
      </trkpt>
      <trkpt lat="47.86295" lon="6.76396">
        <ele>682</ele>
        <time>2018-06-23T07:53:20.000Z</time>
      </trkpt>
      <trkpt lat="47.86294" lon="6.76398">
        <ele>682</ele>
        <time>2018-06-23T07:53:21.000Z</time>
      </trkpt>
      <trkpt lat="47.86294" lon="6.76399">
        <ele>682</ele>
        <time>2018-06-23T07:53:22.000Z</time>
      </trkpt>
      <trkpt lat="47.86294" lon="6.76401">
        <ele>682</ele>
        <time>2018-06-23T07:53:23.000Z</time>
      </trkpt>
      <trkpt lat="47.86293" lon="6.76403">
        <ele>682</ele>
        <time>2018-06-23T07:53:24.000Z</time>
      </trkpt>
      <trkpt lat="47.86293" lon="6.76405">
        <ele>682</ele>
        <time>2018-06-23T07:53:25.000Z</time>
      </trkpt>
      <trkpt lat="47.86293" lon="6.76407">
        <ele>682</ele>
        <time>2018-06-23T07:53:26.000Z</time>
      </trkpt>
      <trkpt lat="47.86293" lon="6.76409">
        <ele>682</ele>
        <time>2018-06-23T07:53:27.000Z</time>
      </trkpt>
      <trkpt lat="47.86293" lon="6.7641">
        <ele>681</ele>
        <time>2018-06-23T07:53:28.000Z</time>
      </trkpt>
      <trkpt lat="47.86293" lon="6.76412">
        <ele>682</ele>
        <time>2018-06-23T07:53:29.000Z</time>
      </trkpt>
      <trkpt lat="47.86293" lon="6.76414">
        <ele>682</ele>
        <time>2018-06-23T07:53:30.000Z</time>
      </trkpt>
      <trkpt lat="47.86293" lon="6.76415">
        <ele>682</ele>
        <time>2018-06-23T07:53:31.000Z</time>
      </trkpt>
      <trkpt lat="47.86293" lon="6.76417">
        <ele>678</ele>
        <time>2018-06-23T07:53:32.000Z</time>
      </trkpt>
      <trkpt lat="47.86293" lon="6.76419">
        <ele>678</ele>
        <time>2018-06-23T07:53:33.000Z</time>
      </trkpt>
      <trkpt lat="47.86293" lon="6.76421">
        <ele>678</ele>
        <time>2018-06-23T07:53:34.000Z</time>
      </trkpt>
      <trkpt lat="47.86293" lon="6.76423">
        <ele>678</ele>
        <time>2018-06-23T07:53:35.000Z</time>
      </trkpt>
      <trkpt lat="47.86293" lon="6.76425">
        <ele>678</ele>
        <time>2018-06-23T07:53:36.000Z</time>
      </trkpt>
      <trkpt lat="47.86293" lon="6.76426">
        <ele>678</ele>
        <time>2018-06-23T07:53:37.000Z</time>
      </trkpt>
      <trkpt lat="47.86293" lon="6.76428">
        <ele>678</ele>
        <time>2018-06-23T07:53:38.000Z</time>
      </trkpt>
      <trkpt lat="47.86293" lon="6.7643">
        <ele>678</ele>
        <time>2018-06-23T07:53:39.000Z</time>
      </trkpt>
      <trkpt lat="47.86293" lon="6.76432">
        <ele>678</ele>
        <time>2018-06-23T07:53:40.000Z</time>
      </trkpt>
      <trkpt lat="47.86292" lon="6.76434">
        <ele>678</ele>
        <time>2018-06-23T07:53:41.000Z</time>
      </trkpt>
      <trkpt lat="47.86292" lon="6.76436">
        <ele>678</ele>
        <time>2018-06-23T07:53:42.000Z</time>
      </trkpt>
      <trkpt lat="47.86292" lon="6.76437">
        <ele>678</ele>
        <time>2018-06-23T07:53:43.000Z</time>
      </trkpt>
      <trkpt lat="47.86292" lon="6.76439">
        <ele>677</ele>
        <time>2018-06-23T07:53:44.000Z</time>
      </trkpt>
      <trkpt lat="47.86292" lon="6.76441">
        <ele>677</ele>
        <time>2018-06-23T07:53:45.000Z</time>
      </trkpt>
      <trkpt lat="47.86292" lon="6.76443">
        <ele>677</ele>
        <time>2018-06-23T07:53:46.000Z</time>
      </trkpt>
      <trkpt lat="47.86292" lon="6.76445">
        <ele>677</ele>
        <time>2018-06-23T07:53:47.000Z</time>
      </trkpt>
      <trkpt lat="47.86292" lon="6.76447">
        <ele>677</ele>
        <time>2018-06-23T07:53:48.000Z</time>
      </trkpt>
      <trkpt lat="47.86292" lon="6.76448">
        <ele>677</ele>
        <time>2018-06-23T07:53:49.000Z</time>
      </trkpt>
      <trkpt lat="47.86292" lon="6.7645">
        <ele>677</ele>
        <time>2018-06-23T07:53:50.000Z</time>
      </trkpt>
      <trkpt lat="47.86292" lon="6.76452">
        <ele>677</ele>
        <time>2018-06-23T07:53:51.000Z</time>
      </trkpt>
      <trkpt lat="47.86292" lon="6.76454">
        <ele>677</ele>
        <time>2018-06-23T07:53:52.000Z</time>
      </trkpt>
      <trkpt lat="47.86292" lon="6.76456">
        <ele>677</ele>
        <time>2018-06-23T07:53:53.000Z</time>
      </trkpt>
      <trkpt lat="47.86292" lon="6.76458">
        <ele>677</ele>
        <time>2018-06-23T07:53:54.000Z</time>
      </trkpt>
      <trkpt lat="47.86292" lon="6.7646">
        <ele>677</ele>
        <time>2018-06-23T07:53:55.000Z</time>
      </trkpt>
      <trkpt lat="47.86292" lon="6.76462">
        <ele>677</ele>
        <time>2018-06-23T07:53:56.000Z</time>
      </trkpt>
      <trkpt lat="47.86291" lon="6.76464">
        <ele>677</ele>
        <time>2018-06-23T07:53:57.000Z</time>
      </trkpt>
      <trkpt lat="47.86291" lon="6.76466">
        <ele>676</ele>
        <time>2018-06-23T07:53:58.000Z</time>
      </trkpt>
      <trkpt lat="47.86291" lon="6.76467">
        <ele>676</ele>
        <time>2018-06-23T07:53:59.000Z</time>
      </trkpt>
      <trkpt lat="47.86291" lon="6.76469">
        <ele>676</ele>
        <time>2018-06-23T07:54:00.000Z</time>
      </trkpt>
      <trkpt lat="47.86291" lon="6.76471">
        <ele>676</ele>
        <time>2018-06-23T07:54:01.000Z</time>
      </trkpt>
      <trkpt lat="47.86291" lon="6.76473">
        <ele>676</ele>
        <time>2018-06-23T07:54:02.000Z</time>
      </trkpt>
      <trkpt lat="47.86291" lon="6.76475">
        <ele>676</ele>
        <time>2018-06-23T07:54:03.000Z</time>
      </trkpt>
      <trkpt lat="47.86291" lon="6.76477">
        <ele>676</ele>
        <time>2018-06-23T07:54:04.000Z</time>
      </trkpt>
      <trkpt lat="47.86291" lon="6.76479">
        <ele>676</ele>
        <time>2018-06-23T07:54:05.000Z</time>
      </trkpt>
      <trkpt lat="47.86291" lon="6.76481">
        <ele>676</ele>
        <time>2018-06-23T07:54:06.000Z</time>
      </trkpt>
      <trkpt lat="47.86291" lon="6.76483">
        <ele>676</ele>
        <time>2018-06-23T07:54:07.000Z</time>
      </trkpt>
      <trkpt lat="47.86291" lon="6.76485">
        <ele>676</ele>
        <time>2018-06-23T07:54:08.000Z</time>
      </trkpt>
      <trkpt lat="47.86291" lon="6.76486">
        <ele>676</ele>
        <time>2018-06-23T07:54:09.000Z</time>
      </trkpt>
      <trkpt lat="47.8629" lon="6.76488">
        <ele>676</ele>
        <time>2018-06-23T07:54:10.000Z</time>
      </trkpt>
      <trkpt lat="47.8629" lon="6.7649">
        <ele>676</ele>
        <time>2018-06-23T07:54:11.000Z</time>
      </trkpt>
      <trkpt lat="47.8629" lon="6.76492">
        <ele>676</ele>
        <time>2018-06-23T07:54:12.000Z</time>
      </trkpt>
      <trkpt lat="47.8629" lon="6.76494">
        <ele>676</ele>
        <time>2018-06-23T07:54:13.000Z</time>
      </trkpt>
      <trkpt lat="47.8629" lon="6.76496">
        <ele>676</ele>
        <time>2018-06-23T07:54:14.000Z</time>
      </trkpt>
      <trkpt lat="47.8629" lon="6.76498">
        <ele>676</ele>
        <time>2018-06-23T07:54:15.000Z</time>
      </trkpt>
      <trkpt lat="47.8629" lon="6.765">
        <ele>676</ele>
        <time>2018-06-23T07:54:16.000Z</time>
      </trkpt>
      <trkpt lat="47.8629" lon="6.76501">
        <ele>671</ele>
        <time>2018-06-23T07:54:17.000Z</time>
      </trkpt>
      <trkpt lat="47.8629" lon="6.76503">
        <ele>671</ele>
        <time>2018-06-23T07:54:18.000Z</time>
      </trkpt>
      <trkpt lat="47.8629" lon="6.76505">
        <ele>671</ele>
        <time>2018-06-23T07:54:19.000Z</time>
      </trkpt>
      <trkpt lat="47.8629" lon="6.76507">
        <ele>671</ele>
        <time>2018-06-23T07:54:20.000Z</time>
      </trkpt>
      <trkpt lat="47.8629" lon="6.76508">
        <ele>671</ele>
        <time>2018-06-23T07:54:21.000Z</time>
      </trkpt>
      <trkpt lat="47.86289" lon="6.76509">
        <ele>671</ele>
        <time>2018-06-23T07:54:22.000Z</time>
      </trkpt>
      <trkpt lat="47.86289" lon="6.7651">
        <ele>671</ele>
        <time>2018-06-23T07:54:23.000Z</time>
      </trkpt>
      <trkpt lat="47.86289" lon="6.76511">
        <ele>671</ele>
        <time>2018-06-23T07:54:24.000Z</time>
      </trkpt>
      <trkpt lat="47.8629" lon="6.76512">
        <ele>671</ele>
        <time>2018-06-23T07:54:25.000Z</time>
      </trkpt>
      <trkpt lat="47.8629" lon="6.76514">
        <ele>671</ele>
        <time>2018-06-23T07:54:26.000Z</time>
      </trkpt>
      <trkpt lat="47.8629" lon="6.76515">
        <ele>671</ele>
        <time>2018-06-23T07:54:27.000Z</time>
      </trkpt>
      <trkpt lat="47.8629" lon="6.76516">
        <ele>671</ele>
        <time>2018-06-23T07:54:28.000Z</time>
      </trkpt>
      <trkpt lat="47.8629" lon="6.76517">
        <ele>671</ele>
        <time>2018-06-23T07:54:29.000Z</time>
      </trkpt>
      <trkpt lat="47.8629" lon="6.76519">
        <ele>670</ele>
        <time>2018-06-23T07:54:30.000Z</time>
      </trkpt>
      <trkpt lat="47.8629" lon="6.7652">
        <ele>670</ele>
        <time>2018-06-23T07:54:31.000Z</time>
      </trkpt>
      <trkpt lat="47.86291" lon="6.76522">
        <ele>670</ele>
        <time>2018-06-23T07:54:32.000Z</time>
      </trkpt>
      <trkpt lat="47.86291" lon="6.76523">
        <ele>670</ele>
        <time>2018-06-23T07:54:33.000Z</time>
      </trkpt>
      <trkpt lat="47.86291" lon="6.76524">
        <ele>670</ele>
        <time>2018-06-23T07:54:34.000Z</time>
      </trkpt>
      <trkpt lat="47.86291" lon="6.76525">
        <ele>670</ele>
        <time>2018-06-23T07:54:35.000Z</time>
      </trkpt>
      <trkpt lat="47.86291" lon="6.76526">
        <ele>670</ele>
        <time>2018-06-23T07:54:36.000Z</time>
      </trkpt>
      <trkpt lat="47.86292" lon="6.76528">
        <ele>670</ele>
        <time>2018-06-23T07:54:37.000Z</time>
      </trkpt>
      <trkpt lat="47.86292" lon="6.76529">
        <ele>670</ele>
        <time>2018-06-23T07:54:38.000Z</time>
      </trkpt>
      <trkpt lat="47.86292" lon="6.7653">
        <ele>670</ele>
        <time>2018-06-23T07:54:39.000Z</time>
      </trkpt>
      <trkpt lat="47.86293" lon="6.76532">
        <ele>670</ele>
        <time>2018-06-23T07:54:40.000Z</time>
      </trkpt>
      <trkpt lat="47.86293" lon="6.76533">
        <ele>669</ele>
        <time>2018-06-23T07:54:41.000Z</time>
      </trkpt>
      <trkpt lat="47.86293" lon="6.76534">
        <ele>669</ele>
        <time>2018-06-23T07:54:42.000Z</time>
      </trkpt>
      <trkpt lat="47.86293" lon="6.76536">
        <ele>669</ele>
        <time>2018-06-23T07:54:43.000Z</time>
      </trkpt>
      <trkpt lat="47.86294" lon="6.76537">
        <ele>669</ele>
        <time>2018-06-23T07:54:44.000Z</time>
      </trkpt>
      <trkpt lat="47.86294" lon="6.76538">
        <ele>669</ele>
        <time>2018-06-23T07:54:45.000Z</time>
      </trkpt>
      <trkpt lat="47.86294" lon="6.7654">
        <ele>669</ele>
        <time>2018-06-23T07:54:46.000Z</time>
      </trkpt>
      <trkpt lat="47.86295" lon="6.76541">
        <ele>669</ele>
        <time>2018-06-23T07:54:47.000Z</time>
      </trkpt>
      <trkpt lat="47.86295" lon="6.76543">
        <ele>669</ele>
        <time>2018-06-23T07:54:48.000Z</time>
      </trkpt>
      <trkpt lat="47.86296" lon="6.76544">
        <ele>669</ele>
        <time>2018-06-23T07:54:49.000Z</time>
      </trkpt>
      <trkpt lat="47.86296" lon="6.76546">
        <ele>668</ele>
        <time>2018-06-23T07:54:50.000Z</time>
      </trkpt>
      <trkpt lat="47.86297" lon="6.76547">
        <ele>668</ele>
        <time>2018-06-23T07:54:51.000Z</time>
      </trkpt>
      <trkpt lat="47.86297" lon="6.76548">
        <ele>668</ele>
        <time>2018-06-23T07:54:52.000Z</time>
      </trkpt>
      <trkpt lat="47.86297" lon="6.76549">
        <ele>668</ele>
        <time>2018-06-23T07:54:53.000Z</time>
      </trkpt>
      <trkpt lat="47.86297" lon="6.76551">
        <ele>668</ele>
        <time>2018-06-23T07:54:54.000Z</time>
      </trkpt>
      <trkpt lat="47.86297" lon="6.76552">
        <ele>668</ele>
        <time>2018-06-23T07:54:55.000Z</time>
      </trkpt>
      <trkpt lat="47.86298" lon="6.76554">
        <ele>668</ele>
        <time>2018-06-23T07:54:56.000Z</time>
      </trkpt>
      <trkpt lat="47.86298" lon="6.76555">
        <ele>668</ele>
        <time>2018-06-23T07:54:57.000Z</time>
      </trkpt>
      <trkpt lat="47.86299" lon="6.76556">
        <ele>667</ele>
        <time>2018-06-23T07:54:58.000Z</time>
      </trkpt>
      <trkpt lat="47.86299" lon="6.76557">
        <ele>667</ele>
        <time>2018-06-23T07:54:59.000Z</time>
      </trkpt>
      <trkpt lat="47.86299" lon="6.76558">
        <ele>667</ele>
        <time>2018-06-23T07:55:00.000Z</time>
      </trkpt>
      <trkpt lat="47.86299" lon="6.76559">
        <ele>667</ele>
        <time>2018-06-23T07:55:01.000Z</time>
      </trkpt>
      <trkpt lat="47.863" lon="6.7656">
        <ele>667</ele>
        <time>2018-06-23T07:55:02.000Z</time>
      </trkpt>
      <trkpt lat="47.863" lon="6.76562">
        <ele>667</ele>
        <time>2018-06-23T07:55:03.000Z</time>
      </trkpt>
      <trkpt lat="47.863" lon="6.76563">
        <ele>667</ele>
        <time>2018-06-23T07:55:04.000Z</time>
      </trkpt>
      <trkpt lat="47.863" lon="6.76565">
        <ele>667</ele>
        <time>2018-06-23T07:55:05.000Z</time>
      </trkpt>
      <trkpt lat="47.86301" lon="6.76566">
        <ele>666</ele>
        <time>2018-06-23T07:55:06.000Z</time>
      </trkpt>
      <trkpt lat="47.86301" lon="6.76567">
        <ele>666</ele>
        <time>2018-06-23T07:55:07.000Z</time>
      </trkpt>
      <trkpt lat="47.86301" lon="6.76569">
        <ele>666</ele>
        <time>2018-06-23T07:55:08.000Z</time>
      </trkpt>
      <trkpt lat="47.86301" lon="6.7657">
        <ele>666</ele>
        <time>2018-06-23T07:55:09.000Z</time>
      </trkpt>
      <trkpt lat="47.86302" lon="6.76572">
        <ele>666</ele>
        <time>2018-06-23T07:55:10.000Z</time>
      </trkpt>
      <trkpt lat="47.86302" lon="6.76574">
        <ele>666</ele>
        <time>2018-06-23T07:55:11.000Z</time>
      </trkpt>
      <trkpt lat="47.86302" lon="6.76576">
        <ele>665</ele>
        <time>2018-06-23T07:55:12.000Z</time>
      </trkpt>
      <trkpt lat="47.86303" lon="6.76577">
        <ele>665</ele>
        <time>2018-06-23T07:55:13.000Z</time>
      </trkpt>
      <trkpt lat="47.86303" lon="6.76578">
        <ele>665</ele>
        <time>2018-06-23T07:55:14.000Z</time>
      </trkpt>
      <trkpt lat="47.86303" lon="6.76579">
        <ele>665</ele>
        <time>2018-06-23T07:55:15.000Z</time>
      </trkpt>
      <trkpt lat="47.86303" lon="6.76581">
        <ele>665</ele>
        <time>2018-06-23T07:55:16.000Z</time>
      </trkpt>
      <trkpt lat="47.86303" lon="6.76583">
        <ele>665</ele>
        <time>2018-06-23T07:55:17.000Z</time>
      </trkpt>
      <trkpt lat="47.86303" lon="6.76584">
        <ele>661</ele>
        <time>2018-06-23T07:55:18.000Z</time>
      </trkpt>
      <trkpt lat="47.86303" lon="6.76586">
        <ele>661</ele>
        <time>2018-06-23T07:55:19.000Z</time>
      </trkpt>
      <trkpt lat="47.86304" lon="6.76587">
        <ele>661</ele>
        <time>2018-06-23T07:55:20.000Z</time>
      </trkpt>
      <trkpt lat="47.86304" lon="6.76588">
        <ele>661</ele>
        <time>2018-06-23T07:55:21.000Z</time>
      </trkpt>
      <trkpt lat="47.86304" lon="6.7659">
        <ele>661</ele>
        <time>2018-06-23T07:55:22.000Z</time>
      </trkpt>
      <trkpt lat="47.86304" lon="6.76591">
        <ele>661</ele>
        <time>2018-06-23T07:55:23.000Z</time>
      </trkpt>
      <trkpt lat="47.86304" lon="6.76593">
        <ele>661</ele>
        <time>2018-06-23T07:55:24.000Z</time>
      </trkpt>
      <trkpt lat="47.86304" lon="6.76594">
        <ele>661</ele>
        <time>2018-06-23T07:55:25.000Z</time>
      </trkpt>
      <trkpt lat="47.86305" lon="6.76596">
        <ele>661</ele>
        <time>2018-06-23T07:55:26.000Z</time>
      </trkpt>
      <trkpt lat="47.86305" lon="6.76597">
        <ele>661</ele>
        <time>2018-06-23T07:55:27.000Z</time>
      </trkpt>
      <trkpt lat="47.86305" lon="6.76599">
        <ele>661</ele>
        <time>2018-06-23T07:55:28.000Z</time>
      </trkpt>
      <trkpt lat="47.86305" lon="6.766">
        <ele>661</ele>
        <time>2018-06-23T07:55:29.000Z</time>
      </trkpt>
      <trkpt lat="47.86305" lon="6.76602">
        <ele>661</ele>
        <time>2018-06-23T07:55:30.000Z</time>
      </trkpt>
      <trkpt lat="47.86305" lon="6.76603">
        <ele>661</ele>
        <time>2018-06-23T07:55:31.000Z</time>
      </trkpt>
      <trkpt lat="47.86306" lon="6.76605">
        <ele>661</ele>
        <time>2018-06-23T07:55:32.000Z</time>
      </trkpt>
      <trkpt lat="47.86306" lon="6.76607">
        <ele>661</ele>
        <time>2018-06-23T07:55:33.000Z</time>
      </trkpt>
      <trkpt lat="47.86306" lon="6.76608">
        <ele>661</ele>
        <time>2018-06-23T07:55:34.000Z</time>
      </trkpt>
      <trkpt lat="47.86306" lon="6.7661">
        <ele>661</ele>
        <time>2018-06-23T07:55:35.000Z</time>
      </trkpt>
      <trkpt lat="47.86306" lon="6.76611">
        <ele>661</ele>
        <time>2018-06-23T07:55:36.000Z</time>
      </trkpt>
      <trkpt lat="47.86306" lon="6.76612">
        <ele>661</ele>
        <time>2018-06-23T07:55:37.000Z</time>
      </trkpt>
      <trkpt lat="47.86306" lon="6.76614">
        <ele>661</ele>
        <time>2018-06-23T07:55:38.000Z</time>
      </trkpt>
      <trkpt lat="47.86307" lon="6.76615">
        <ele>661</ele>
        <time>2018-06-23T07:55:39.000Z</time>
      </trkpt>
      <trkpt lat="47.86307" lon="6.76617">
        <ele>661</ele>
        <time>2018-06-23T07:55:40.000Z</time>
      </trkpt>
      <trkpt lat="47.86307" lon="6.76618">
        <ele>661</ele>
        <time>2018-06-23T07:55:41.000Z</time>
      </trkpt>
      <trkpt lat="47.86307" lon="6.76619">
        <ele>661</ele>
        <time>2018-06-23T07:55:42.000Z</time>
      </trkpt>
      <trkpt lat="47.86308" lon="6.7662">
        <ele>661</ele>
        <time>2018-06-23T07:55:43.000Z</time>
      </trkpt>
      <trkpt lat="47.86308" lon="6.76622">
        <ele>661</ele>
        <time>2018-06-23T07:55:44.000Z</time>
      </trkpt>
      <trkpt lat="47.86308" lon="6.76623">
        <ele>661</ele>
        <time>2018-06-23T07:55:45.000Z</time>
      </trkpt>
      <trkpt lat="47.86308" lon="6.76625">
        <ele>661</ele>
        <time>2018-06-23T07:55:46.000Z</time>
      </trkpt>
      <trkpt lat="47.86309" lon="6.76627">
        <ele>661</ele>
        <time>2018-06-23T07:55:47.000Z</time>
      </trkpt>
      <trkpt lat="47.86309" lon="6.76628">
        <ele>660</ele>
        <time>2018-06-23T07:55:48.000Z</time>
      </trkpt>
      <trkpt lat="47.86309" lon="6.76629">
        <ele>660</ele>
        <time>2018-06-23T07:55:49.000Z</time>
      </trkpt>
      <trkpt lat="47.86309" lon="6.76631">
        <ele>660</ele>
        <time>2018-06-23T07:55:50.000Z</time>
      </trkpt>
      <trkpt lat="47.86309" lon="6.76633">
        <ele>660</ele>
        <time>2018-06-23T07:55:51.000Z</time>
      </trkpt>
      <trkpt lat="47.8631" lon="6.76634">
        <ele>660</ele>
        <time>2018-06-23T07:55:52.000Z</time>
      </trkpt>
      <trkpt lat="47.8631" lon="6.76635">
        <ele>660</ele>
        <time>2018-06-23T07:55:53.000Z</time>
      </trkpt>
      <trkpt lat="47.8631" lon="6.76637">
        <ele>660</ele>
        <time>2018-06-23T07:55:54.000Z</time>
      </trkpt>
      <trkpt lat="47.8631" lon="6.76638">
        <ele>660</ele>
        <time>2018-06-23T07:55:55.000Z</time>
      </trkpt>
      <trkpt lat="47.86311" lon="6.76639">
        <ele>660</ele>
        <time>2018-06-23T07:55:56.000Z</time>
      </trkpt>
      <trkpt lat="47.86311" lon="6.76639">
        <ele>660</ele>
        <time>2018-06-23T07:55:57.000Z</time>
      </trkpt>
      <trkpt lat="47.8631" lon="6.7664">
        <ele>660</ele>
        <time>2018-06-23T07:55:58.000Z</time>
      </trkpt>
      <trkpt lat="47.8631" lon="6.7664">
        <ele>660</ele>
        <time>2018-06-23T07:55:59.000Z</time>
      </trkpt>
      <trkpt lat="47.8631" lon="6.76641">
        <ele>660</ele>
        <time>2018-06-23T07:56:00.000Z</time>
      </trkpt>
      <trkpt lat="47.86311" lon="6.76642">
        <ele>659</ele>
        <time>2018-06-23T07:56:01.000Z</time>
      </trkpt>
      <trkpt lat="47.86311" lon="6.76643">
        <ele>659</ele>
        <time>2018-06-23T07:56:02.000Z</time>
      </trkpt>
      <trkpt lat="47.86311" lon="6.76644">
        <ele>659</ele>
        <time>2018-06-23T07:56:03.000Z</time>
      </trkpt>
      <trkpt lat="47.86312" lon="6.76645">
        <ele>659</ele>
        <time>2018-06-23T07:56:04.000Z</time>
      </trkpt>
      <trkpt lat="47.86312" lon="6.76646">
        <ele>659</ele>
        <time>2018-06-23T07:56:05.000Z</time>
      </trkpt>
      <trkpt lat="47.86312" lon="6.76646">
        <ele>659</ele>
        <time>2018-06-23T07:56:06.000Z</time>
      </trkpt>
      <trkpt lat="47.86312" lon="6.76647">
        <ele>659</ele>
        <time>2018-06-23T07:56:07.000Z</time>
      </trkpt>
      <trkpt lat="47.86312" lon="6.76648">
        <ele>659</ele>
        <time>2018-06-23T07:56:08.000Z</time>
      </trkpt>
      <trkpt lat="47.86313" lon="6.76649">
        <ele>658</ele>
        <time>2018-06-23T07:56:09.000Z</time>
      </trkpt>
      <trkpt lat="47.86313" lon="6.76649">
        <ele>658</ele>
        <time>2018-06-23T07:56:10.000Z</time>
      </trkpt>
      <trkpt lat="47.86314" lon="6.7665">
        <ele>658</ele>
        <time>2018-06-23T07:56:11.000Z</time>
      </trkpt>
      <trkpt lat="47.86314" lon="6.7665">
        <ele>658</ele>
        <time>2018-06-23T07:56:12.000Z</time>
      </trkpt>
      <trkpt lat="47.86314" lon="6.7665">
        <ele>658</ele>
        <time>2018-06-23T07:56:13.000Z</time>
      </trkpt>
      <trkpt lat="47.86314" lon="6.7665">
        <ele>658</ele>
        <time>2018-06-23T07:56:14.000Z</time>
      </trkpt>
      <trkpt lat="47.86314" lon="6.7665">
        <ele>658</ele>
        <time>2018-06-23T07:56:15.000Z</time>
      </trkpt>
      <trkpt lat="47.86313" lon="6.7665">
        <ele>658</ele>
        <time>2018-06-23T07:56:16.000Z</time>
      </trkpt>
      <trkpt lat="47.86312" lon="6.7665">
        <ele>658</ele>
        <time>2018-06-23T07:56:17.000Z</time>
      </trkpt>
      <trkpt lat="47.86312" lon="6.7665">
        <ele>658</ele>
        <time>2018-06-23T07:56:18.000Z</time>
      </trkpt>
      <trkpt lat="47.86312" lon="6.76649">
        <ele>659</ele>
        <time>2018-06-23T07:56:19.000Z</time>
      </trkpt>
      <trkpt lat="47.86312" lon="6.7665">
        <ele>659</ele>
        <time>2018-06-23T07:56:20.000Z</time>
      </trkpt>
      <trkpt lat="47.86312" lon="6.7665">
        <ele>659</ele>
        <time>2018-06-23T07:56:21.000Z</time>
      </trkpt>
      <trkpt lat="47.86312" lon="6.7665">
        <ele>659</ele>
        <time>2018-06-23T07:56:22.000Z</time>
      </trkpt>
      <trkpt lat="47.86312" lon="6.7665">
        <ele>658</ele>
        <time>2018-06-23T07:56:23.000Z</time>
      </trkpt>
      <trkpt lat="47.86312" lon="6.76651">
        <ele>658</ele>
        <time>2018-06-23T07:56:24.000Z</time>
      </trkpt>
      <trkpt lat="47.86312" lon="6.76651">
        <ele>658</ele>
        <time>2018-06-23T07:56:25.000Z</time>
      </trkpt>
      <trkpt lat="47.86312" lon="6.76652">
        <ele>658</ele>
        <time>2018-06-23T07:56:26.000Z</time>
      </trkpt>
      <trkpt lat="47.86312" lon="6.76652">
        <ele>658</ele>
        <time>2018-06-23T07:56:27.000Z</time>
      </trkpt>
      <trkpt lat="47.86312" lon="6.76652">
        <ele>658</ele>
        <time>2018-06-23T07:56:28.000Z</time>
      </trkpt>
      <trkpt lat="47.86312" lon="6.76652">
        <ele>658</ele>
        <time>2018-06-23T07:56:29.000Z</time>
      </trkpt>
      <trkpt lat="47.86312" lon="6.76653">
        <ele>658</ele>
        <time>2018-06-23T07:56:30.000Z</time>
      </trkpt>
      <trkpt lat="47.86313" lon="6.76654">
        <ele>658</ele>
        <time>2018-06-23T07:56:31.000Z</time>
      </trkpt>
      <trkpt lat="47.86314" lon="6.76656">
        <ele>658</ele>
        <time>2018-06-23T07:56:32.000Z</time>
      </trkpt>
      <trkpt lat="47.86314" lon="6.76657">
        <ele>657</ele>
        <time>2018-06-23T07:56:33.000Z</time>
      </trkpt>
      <trkpt lat="47.86315" lon="6.76659">
        <ele>657</ele>
        <time>2018-06-23T07:56:34.000Z</time>
      </trkpt>
      <trkpt lat="47.86315" lon="6.76661">
        <ele>657</ele>
        <time>2018-06-23T07:56:35.000Z</time>
      </trkpt>
      <trkpt lat="47.86315" lon="6.76663">
        <ele>657</ele>
        <time>2018-06-23T07:56:36.000Z</time>
      </trkpt>
      <trkpt lat="47.86315" lon="6.76665">
        <ele>657</ele>
        <time>2018-06-23T07:56:37.000Z</time>
      </trkpt>
      <trkpt lat="47.86314" lon="6.76667">
        <ele>654</ele>
        <time>2018-06-23T07:56:38.000Z</time>
      </trkpt>
      <trkpt lat="47.86314" lon="6.76669">
        <ele>654</ele>
        <time>2018-06-23T07:56:39.000Z</time>
      </trkpt>
      <trkpt lat="47.86314" lon="6.7667">
        <ele>654</ele>
        <time>2018-06-23T07:56:40.000Z</time>
      </trkpt>
      <trkpt lat="47.86313" lon="6.76672">
        <ele>654</ele>
        <time>2018-06-23T07:56:41.000Z</time>
      </trkpt>
      <trkpt lat="47.86313" lon="6.76673">
        <ele>655</ele>
        <time>2018-06-23T07:56:42.000Z</time>
      </trkpt>
      <trkpt lat="47.86312" lon="6.76675">
        <ele>655</ele>
        <time>2018-06-23T07:56:43.000Z</time>
      </trkpt>
      <trkpt lat="47.86312" lon="6.76677">
        <ele>655</ele>
        <time>2018-06-23T07:56:44.000Z</time>
      </trkpt>
      <trkpt lat="47.86311" lon="6.76678">
        <ele>655</ele>
        <time>2018-06-23T07:56:45.000Z</time>
      </trkpt>
      <trkpt lat="47.86311" lon="6.7668">
        <ele>655</ele>
        <time>2018-06-23T07:56:46.000Z</time>
      </trkpt>
      <trkpt lat="47.8631" lon="6.76681">
        <ele>655</ele>
        <time>2018-06-23T07:56:47.000Z</time>
      </trkpt>
      <trkpt lat="47.8631" lon="6.76683">
        <ele>656</ele>
        <time>2018-06-23T07:56:48.000Z</time>
      </trkpt>
      <trkpt lat="47.86309" lon="6.76684">
        <ele>656</ele>
        <time>2018-06-23T07:56:49.000Z</time>
      </trkpt>
      <trkpt lat="47.86309" lon="6.76686">
        <ele>656</ele>
        <time>2018-06-23T07:56:50.000Z</time>
      </trkpt>
      <trkpt lat="47.86308" lon="6.76688">
        <ele>656</ele>
        <time>2018-06-23T07:56:51.000Z</time>
      </trkpt>
      <trkpt lat="47.86308" lon="6.7669">
        <ele>656</ele>
        <time>2018-06-23T07:56:52.000Z</time>
      </trkpt>
      <trkpt lat="47.86307" lon="6.76691">
        <ele>656</ele>
        <time>2018-06-23T07:56:53.000Z</time>
      </trkpt>
      <trkpt lat="47.86307" lon="6.76693">
        <ele>656</ele>
        <time>2018-06-23T07:56:54.000Z</time>
      </trkpt>
      <trkpt lat="47.86306" lon="6.76695">
        <ele>656</ele>
        <time>2018-06-23T07:56:55.000Z</time>
      </trkpt>
      <trkpt lat="47.86306" lon="6.76697">
        <ele>656</ele>
        <time>2018-06-23T07:56:56.000Z</time>
      </trkpt>
      <trkpt lat="47.86305" lon="6.76698">
        <ele>656</ele>
        <time>2018-06-23T07:56:57.000Z</time>
      </trkpt>
      <trkpt lat="47.86305" lon="6.767">
        <ele>656</ele>
        <time>2018-06-23T07:56:58.000Z</time>
      </trkpt>
      <trkpt lat="47.86304" lon="6.76702">
        <ele>656</ele>
        <time>2018-06-23T07:56:59.000Z</time>
      </trkpt>
      <trkpt lat="47.86304" lon="6.76703">
        <ele>656</ele>
        <time>2018-06-23T07:57:00.000Z</time>
      </trkpt>
      <trkpt lat="47.86303" lon="6.76705">
        <ele>656</ele>
        <time>2018-06-23T07:57:01.000Z</time>
      </trkpt>
      <trkpt lat="47.86302" lon="6.76707">
        <ele>656</ele>
        <time>2018-06-23T07:57:02.000Z</time>
      </trkpt>
      <trkpt lat="47.86302" lon="6.76708">
        <ele>656</ele>
        <time>2018-06-23T07:57:03.000Z</time>
      </trkpt>
      <trkpt lat="47.86301" lon="6.7671">
        <ele>657</ele>
        <time>2018-06-23T07:57:04.000Z</time>
      </trkpt>
      <trkpt lat="47.863" lon="6.76711">
        <ele>657</ele>
        <time>2018-06-23T07:57:05.000Z</time>
      </trkpt>
      <trkpt lat="47.863" lon="6.76713">
        <ele>657</ele>
        <time>2018-06-23T07:57:06.000Z</time>
      </trkpt>
      <trkpt lat="47.86299" lon="6.76715">
        <ele>657</ele>
        <time>2018-06-23T07:57:07.000Z</time>
      </trkpt>
      <trkpt lat="47.86298" lon="6.76716">
        <ele>657</ele>
        <time>2018-06-23T07:57:08.000Z</time>
      </trkpt>
      <trkpt lat="47.86297" lon="6.76718">
        <ele>657</ele>
        <time>2018-06-23T07:57:09.000Z</time>
      </trkpt>
      <trkpt lat="47.86297" lon="6.76719">
        <ele>657</ele>
        <time>2018-06-23T07:57:10.000Z</time>
      </trkpt>
      <trkpt lat="47.86296" lon="6.76721">
        <ele>657</ele>
        <time>2018-06-23T07:57:11.000Z</time>
      </trkpt>
      <trkpt lat="47.86295" lon="6.76723">
        <ele>657</ele>
        <time>2018-06-23T07:57:12.000Z</time>
      </trkpt>
      <trkpt lat="47.86295" lon="6.76724">
        <ele>657</ele>
        <time>2018-06-23T07:57:13.000Z</time>
      </trkpt>
      <trkpt lat="47.86295" lon="6.76726">
        <ele>657</ele>
        <time>2018-06-23T07:57:14.000Z</time>
      </trkpt>
      <trkpt lat="47.86294" lon="6.76728">
        <ele>657</ele>
        <time>2018-06-23T07:57:15.000Z</time>
      </trkpt>
      <trkpt lat="47.86293" lon="6.76729">
        <ele>657</ele>
        <time>2018-06-23T07:57:16.000Z</time>
      </trkpt>
      <trkpt lat="47.86293" lon="6.76731">
        <ele>657</ele>
        <time>2018-06-23T07:57:17.000Z</time>
      </trkpt>
      <trkpt lat="47.86292" lon="6.76732">
        <ele>657</ele>
        <time>2018-06-23T07:57:18.000Z</time>
      </trkpt>
      <trkpt lat="47.86292" lon="6.76734">
        <ele>657</ele>
        <time>2018-06-23T07:57:19.000Z</time>
      </trkpt>
      <trkpt lat="47.86291" lon="6.76735">
        <ele>657</ele>
        <time>2018-06-23T07:57:20.000Z</time>
      </trkpt>
      <trkpt lat="47.86291" lon="6.76737">
        <ele>657</ele>
        <time>2018-06-23T07:57:21.000Z</time>
      </trkpt>
      <trkpt lat="47.8629" lon="6.76739">
        <ele>657</ele>
        <time>2018-06-23T07:57:22.000Z</time>
      </trkpt>
      <trkpt lat="47.86289" lon="6.7674">
        <ele>657</ele>
        <time>2018-06-23T07:57:23.000Z</time>
      </trkpt>
      <trkpt lat="47.86289" lon="6.76742">
        <ele>657</ele>
        <time>2018-06-23T07:57:24.000Z</time>
      </trkpt>
      <trkpt lat="47.86289" lon="6.76743">
        <ele>657</ele>
        <time>2018-06-23T07:57:25.000Z</time>
      </trkpt>
      <trkpt lat="47.86288" lon="6.76745">
        <ele>657</ele>
        <time>2018-06-23T07:57:26.000Z</time>
      </trkpt>
      <trkpt lat="47.86287" lon="6.76746">
        <ele>658</ele>
        <time>2018-06-23T07:57:27.000Z</time>
      </trkpt>
      <trkpt lat="47.86287" lon="6.76748">
        <ele>658</ele>
        <time>2018-06-23T07:57:28.000Z</time>
      </trkpt>
      <trkpt lat="47.86286" lon="6.7675">
        <ele>658</ele>
        <time>2018-06-23T07:57:29.000Z</time>
      </trkpt>
      <trkpt lat="47.86286" lon="6.76751">
        <ele>654</ele>
        <time>2018-06-23T07:57:30.000Z</time>
      </trkpt>
      <trkpt lat="47.86285" lon="6.76753">
        <ele>654</ele>
        <time>2018-06-23T07:57:31.000Z</time>
      </trkpt>
      <trkpt lat="47.86285" lon="6.76755">
        <ele>654</ele>
        <time>2018-06-23T07:57:32.000Z</time>
      </trkpt>
      <trkpt lat="47.86284" lon="6.76756">
        <ele>654</ele>
        <time>2018-06-23T07:57:33.000Z</time>
      </trkpt>
      <trkpt lat="47.86284" lon="6.76758">
        <ele>654</ele>
        <time>2018-06-23T07:57:34.000Z</time>
      </trkpt>
      <trkpt lat="47.86283" lon="6.76759">
        <ele>654</ele>
        <time>2018-06-23T07:57:35.000Z</time>
      </trkpt>
      <trkpt lat="47.86283" lon="6.76761">
        <ele>654</ele>
        <time>2018-06-23T07:57:36.000Z</time>
      </trkpt>
      <trkpt lat="47.86282" lon="6.76763">
        <ele>654</ele>
        <time>2018-06-23T07:57:37.000Z</time>
      </trkpt>
      <trkpt lat="47.86282" lon="6.76764">
        <ele>654</ele>
        <time>2018-06-23T07:57:38.000Z</time>
      </trkpt>
      <trkpt lat="47.86281" lon="6.76766">
        <ele>654</ele>
        <time>2018-06-23T07:57:39.000Z</time>
      </trkpt>
      <trkpt lat="47.86281" lon="6.76768">
        <ele>654</ele>
        <time>2018-06-23T07:57:40.000Z</time>
      </trkpt>
      <trkpt lat="47.8628" lon="6.7677">
        <ele>654</ele>
        <time>2018-06-23T07:57:41.000Z</time>
      </trkpt>
      <trkpt lat="47.8628" lon="6.76772">
        <ele>654</ele>
        <time>2018-06-23T07:57:42.000Z</time>
      </trkpt>
      <trkpt lat="47.86279" lon="6.76773">
        <ele>654</ele>
        <time>2018-06-23T07:57:43.000Z</time>
      </trkpt>
      <trkpt lat="47.86279" lon="6.76775">
        <ele>654</ele>
        <time>2018-06-23T07:57:44.000Z</time>
      </trkpt>
      <trkpt lat="47.86278" lon="6.76777">
        <ele>654</ele>
        <time>2018-06-23T07:57:45.000Z</time>
      </trkpt>
      <trkpt lat="47.86278" lon="6.76779">
        <ele>654</ele>
        <time>2018-06-23T07:57:46.000Z</time>
      </trkpt>
      <trkpt lat="47.86277" lon="6.7678">
        <ele>654</ele>
        <time>2018-06-23T07:57:47.000Z</time>
      </trkpt>
      <trkpt lat="47.86277" lon="6.76783">
        <ele>654</ele>
        <time>2018-06-23T07:57:48.000Z</time>
      </trkpt>
      <trkpt lat="47.86277" lon="6.76784">
        <ele>654</ele>
        <time>2018-06-23T07:57:49.000Z</time>
      </trkpt>
      <trkpt lat="47.86276" lon="6.76786">
        <ele>654</ele>
        <time>2018-06-23T07:57:50.000Z</time>
      </trkpt>
      <trkpt lat="47.86275" lon="6.76788">
        <ele>653</ele>
        <time>2018-06-23T07:57:51.000Z</time>
      </trkpt>
      <trkpt lat="47.86275" lon="6.7679">
        <ele>653</ele>
        <time>2018-06-23T07:57:52.000Z</time>
      </trkpt>
      <trkpt lat="47.86275" lon="6.76792">
        <ele>653</ele>
        <time>2018-06-23T07:57:53.000Z</time>
      </trkpt>
      <trkpt lat="47.86274" lon="6.76794">
        <ele>653</ele>
        <time>2018-06-23T07:57:54.000Z</time>
      </trkpt>
      <trkpt lat="47.86274" lon="6.76795">
        <ele>653</ele>
        <time>2018-06-23T07:57:55.000Z</time>
      </trkpt>
      <trkpt lat="47.86273" lon="6.76797">
        <ele>653</ele>
        <time>2018-06-23T07:57:56.000Z</time>
      </trkpt>
      <trkpt lat="47.86273" lon="6.76799">
        <ele>653</ele>
        <time>2018-06-23T07:57:57.000Z</time>
      </trkpt>
      <trkpt lat="47.86273" lon="6.76801">
        <ele>653</ele>
        <time>2018-06-23T07:57:58.000Z</time>
      </trkpt>
      <trkpt lat="47.86272" lon="6.76803">
        <ele>653</ele>
        <time>2018-06-23T07:57:59.000Z</time>
      </trkpt>
      <trkpt lat="47.86272" lon="6.76804">
        <ele>653</ele>
        <time>2018-06-23T07:58:00.000Z</time>
      </trkpt>
      <trkpt lat="47.86271" lon="6.76806">
        <ele>653</ele>
        <time>2018-06-23T07:58:01.000Z</time>
      </trkpt>
      <trkpt lat="47.86271" lon="6.76807">
        <ele>653</ele>
        <time>2018-06-23T07:58:02.000Z</time>
      </trkpt>
      <trkpt lat="47.8627" lon="6.76809">
        <ele>653</ele>
        <time>2018-06-23T07:58:03.000Z</time>
      </trkpt>
      <trkpt lat="47.8627" lon="6.76811">
        <ele>653</ele>
        <time>2018-06-23T07:58:04.000Z</time>
      </trkpt>
      <trkpt lat="47.86269" lon="6.76812">
        <ele>653</ele>
        <time>2018-06-23T07:58:05.000Z</time>
      </trkpt>
      <trkpt lat="47.86269" lon="6.76814">
        <ele>653</ele>
        <time>2018-06-23T07:58:06.000Z</time>
      </trkpt>
      <trkpt lat="47.86268" lon="6.76815">
        <ele>653</ele>
        <time>2018-06-23T07:58:07.000Z</time>
      </trkpt>
      <trkpt lat="47.86267" lon="6.76817">
        <ele>653</ele>
        <time>2018-06-23T07:58:08.000Z</time>
      </trkpt>
      <trkpt lat="47.86267" lon="6.76818">
        <ele>653</ele>
        <time>2018-06-23T07:58:09.000Z</time>
      </trkpt>
      <trkpt lat="47.86266" lon="6.7682">
        <ele>653</ele>
        <time>2018-06-23T07:58:10.000Z</time>
      </trkpt>
      <trkpt lat="47.86265" lon="6.76821">
        <ele>653</ele>
        <time>2018-06-23T07:58:11.000Z</time>
      </trkpt>
      <trkpt lat="47.86265" lon="6.76823">
        <ele>653</ele>
        <time>2018-06-23T07:58:12.000Z</time>
      </trkpt>
      <trkpt lat="47.86264" lon="6.76824">
        <ele>653</ele>
        <time>2018-06-23T07:58:13.000Z</time>
      </trkpt>
      <trkpt lat="47.86264" lon="6.76825">
        <ele>653</ele>
        <time>2018-06-23T07:58:14.000Z</time>
      </trkpt>
      <trkpt lat="47.86263" lon="6.76827">
        <ele>653</ele>
        <time>2018-06-23T07:58:15.000Z</time>
      </trkpt>
      <trkpt lat="47.86263" lon="6.76828">
        <ele>653</ele>
        <time>2018-06-23T07:58:16.000Z</time>
      </trkpt>
      <trkpt lat="47.86263" lon="6.76829">
        <ele>653</ele>
        <time>2018-06-23T07:58:17.000Z</time>
      </trkpt>
      <trkpt lat="47.86262" lon="6.76831">
        <ele>653</ele>
        <time>2018-06-23T07:58:18.000Z</time>
      </trkpt>
      <trkpt lat="47.86262" lon="6.76832">
        <ele>653</ele>
        <time>2018-06-23T07:58:19.000Z</time>
      </trkpt>
      <trkpt lat="47.86262" lon="6.76834">
        <ele>649</ele>
        <time>2018-06-23T07:58:20.000Z</time>
      </trkpt>
      <trkpt lat="47.86262" lon="6.76835">
        <ele>649</ele>
        <time>2018-06-23T07:58:21.000Z</time>
      </trkpt>
      <trkpt lat="47.86262" lon="6.76836">
        <ele>649</ele>
        <time>2018-06-23T07:58:22.000Z</time>
      </trkpt>
      <trkpt lat="47.86262" lon="6.76837">
        <ele>649</ele>
        <time>2018-06-23T07:58:23.000Z</time>
      </trkpt>
      <trkpt lat="47.86262" lon="6.76837">
        <ele>649</ele>
        <time>2018-06-23T07:58:24.000Z</time>
      </trkpt>
      <trkpt lat="47.86262" lon="6.76838">
        <ele>649</ele>
        <time>2018-06-23T07:58:25.000Z</time>
      </trkpt>
      <trkpt lat="47.86262" lon="6.76838">
        <ele>649</ele>
        <time>2018-06-23T07:58:26.000Z</time>
      </trkpt>
      <trkpt lat="47.86263" lon="6.76836">
        <ele>649</ele>
        <time>2018-06-23T07:58:27.000Z</time>
      </trkpt>
      <trkpt lat="47.86264" lon="6.76836">
        <ele>649</ele>
        <time>2018-06-23T07:58:28.000Z</time>
      </trkpt>
      <trkpt lat="47.86264" lon="6.76837">
        <ele>649</ele>
        <time>2018-06-23T07:58:29.000Z</time>
      </trkpt>
      <trkpt lat="47.86265" lon="6.76837">
        <ele>649</ele>
        <time>2018-06-23T07:58:30.000Z</time>
      </trkpt>
      <trkpt lat="47.86266" lon="6.76837">
        <ele>648</ele>
        <time>2018-06-23T07:58:31.000Z</time>
      </trkpt>
      <trkpt lat="47.86266" lon="6.76838">
        <ele>648</ele>
        <time>2018-06-23T07:58:32.000Z</time>
      </trkpt>
      <trkpt lat="47.86267" lon="6.76838">
        <ele>648</ele>
        <time>2018-06-23T07:58:33.000Z</time>
      </trkpt>
      <trkpt lat="47.86268" lon="6.76839">
        <ele>648</ele>
        <time>2018-06-23T07:58:34.000Z</time>
      </trkpt>
      <trkpt lat="47.86269" lon="6.7684">
        <ele>647</ele>
        <time>2018-06-23T07:58:35.000Z</time>
      </trkpt>
      <trkpt lat="47.86269" lon="6.7684">
        <ele>647</ele>
        <time>2018-06-23T07:58:36.000Z</time>
      </trkpt>
      <trkpt lat="47.8627" lon="6.76842">
        <ele>647</ele>
        <time>2018-06-23T07:58:37.000Z</time>
      </trkpt>
      <trkpt lat="47.8627" lon="6.76842">
        <ele>647</ele>
        <time>2018-06-23T07:58:38.000Z</time>
      </trkpt>
      <trkpt lat="47.86271" lon="6.76842">
        <ele>647</ele>
        <time>2018-06-23T07:58:39.000Z</time>
      </trkpt>
      <trkpt lat="47.86271" lon="6.76843">
        <ele>647</ele>
        <time>2018-06-23T07:58:40.000Z</time>
      </trkpt>
      <trkpt lat="47.86271" lon="6.76843">
        <ele>647</ele>
        <time>2018-06-23T07:58:41.000Z</time>
      </trkpt>
      <trkpt lat="47.86271" lon="6.76843">
        <ele>647</ele>
        <time>2018-06-23T07:58:42.000Z</time>
      </trkpt>
      <trkpt lat="47.86275" lon="6.76847">
        <ele>646</ele>
        <time>2018-06-23T07:58:43.000Z</time>
      </trkpt>
      <trkpt lat="47.86276" lon="6.76848">
        <ele>646</ele>
        <time>2018-06-23T07:58:44.000Z</time>
      </trkpt>
      <trkpt lat="47.86276" lon="6.76848">
        <ele>645</ele>
        <time>2018-06-23T07:58:45.000Z</time>
      </trkpt>
      <trkpt lat="47.86276" lon="6.76848">
        <ele>645</ele>
        <time>2018-06-23T07:58:46.000Z</time>
      </trkpt>
      <trkpt lat="47.86276" lon="6.76848">
        <ele>645</ele>
        <time>2018-06-23T07:58:47.000Z</time>
      </trkpt>
      <trkpt lat="47.86276" lon="6.76847">
        <ele>645</ele>
        <time>2018-06-23T07:58:48.000Z</time>
      </trkpt>
      <trkpt lat="47.86279" lon="6.76848">
        <ele>645</ele>
        <time>2018-06-23T07:58:49.000Z</time>
      </trkpt>
      <trkpt lat="47.86279" lon="6.76848">
        <ele>645</ele>
        <time>2018-06-23T07:58:50.000Z</time>
      </trkpt>
      <trkpt lat="47.86279" lon="6.76849">
        <ele>645</ele>
        <time>2018-06-23T07:58:51.000Z</time>
      </trkpt>
      <trkpt lat="47.86274" lon="6.76836">
        <ele>647</ele>
        <time>2018-06-23T07:58:52.000Z</time>
      </trkpt>
      <trkpt lat="47.86273" lon="6.76836">
        <ele>647</ele>
        <time>2018-06-23T07:58:53.000Z</time>
      </trkpt>
      <trkpt lat="47.86275" lon="6.76836">
        <ele>646</ele>
        <time>2018-06-23T07:58:54.000Z</time>
      </trkpt>
      <trkpt lat="47.86275" lon="6.76836">
        <ele>646</ele>
        <time>2018-06-23T07:58:55.000Z</time>
      </trkpt>
      <trkpt lat="47.86275" lon="6.76836">
        <ele>646</ele>
        <time>2018-06-23T07:58:56.000Z</time>
      </trkpt>
      <trkpt lat="47.86276" lon="6.76836">
        <ele>646</ele>
        <time>2018-06-23T07:58:57.000Z</time>
      </trkpt>
      <trkpt lat="47.86276" lon="6.76836">
        <ele>646</ele>
        <time>2018-06-23T07:58:58.000Z</time>
      </trkpt>
      <trkpt lat="47.86276" lon="6.76837">
        <ele>646</ele>
        <time>2018-06-23T07:58:59.000Z</time>
      </trkpt>
      <trkpt lat="47.86276" lon="6.76838">
        <ele>646</ele>
        <time>2018-06-23T07:59:00.000Z</time>
      </trkpt>
      <trkpt lat="47.86276" lon="6.76838">
        <ele>646</ele>
        <time>2018-06-23T07:59:01.000Z</time>
      </trkpt>
      <trkpt lat="47.86276" lon="6.76838">
        <ele>646</ele>
        <time>2018-06-23T07:59:02.000Z</time>
      </trkpt>
      <trkpt lat="47.86276" lon="6.76838">
        <ele>646</ele>
        <time>2018-06-23T07:59:03.000Z</time>
      </trkpt>
      <trkpt lat="47.86276" lon="6.76837">
        <ele>646</ele>
        <time>2018-06-23T07:59:04.000Z</time>
      </trkpt>
      <trkpt lat="47.86276" lon="6.76837">
        <ele>646</ele>
        <time>2018-06-23T07:59:05.000Z</time>
      </trkpt>
      <trkpt lat="47.86277" lon="6.76836">
        <ele>646</ele>
        <time>2018-06-23T07:59:06.000Z</time>
      </trkpt>
      <trkpt lat="47.86277" lon="6.76836">
        <ele>646</ele>
        <time>2018-06-23T07:59:07.000Z</time>
      </trkpt>
      <trkpt lat="47.86276" lon="6.76836">
        <ele>646</ele>
        <time>2018-06-23T07:59:08.000Z</time>
      </trkpt>
      <trkpt lat="47.86276" lon="6.76836">
        <ele>646</ele>
        <time>2018-06-23T07:59:09.000Z</time>
      </trkpt>
      <trkpt lat="47.86276" lon="6.76836">
        <ele>646</ele>
        <time>2018-06-23T07:59:10.000Z</time>
      </trkpt>
      <trkpt lat="47.86266" lon="6.76845">
        <ele>647</ele>
        <time>2018-06-23T07:59:11.000Z</time>
      </trkpt>
      <trkpt lat="47.86266" lon="6.76845">
        <ele>647</ele>
        <time>2018-06-23T07:59:12.000Z</time>
      </trkpt>
      <trkpt lat="47.86266" lon="6.76845">
        <ele>647</ele>
        <time>2018-06-23T07:59:13.000Z</time>
      </trkpt>
      <trkpt lat="47.86266" lon="6.76845">
        <ele>647</ele>
        <time>2018-06-23T07:59:14.000Z</time>
      </trkpt>
      <trkpt lat="47.86266" lon="6.76845">
        <ele>647</ele>
        <time>2018-06-23T07:59:15.000Z</time>
      </trkpt>
      <trkpt lat="47.86266" lon="6.76847">
        <ele>647</ele>
        <time>2018-06-23T07:59:16.000Z</time>
      </trkpt>
      <trkpt lat="47.86266" lon="6.76847">
        <ele>647</ele>
        <time>2018-06-23T07:59:17.000Z</time>
      </trkpt>
      <trkpt lat="47.86266" lon="6.76847">
        <ele>647</ele>
        <time>2018-06-23T07:59:18.000Z</time>
      </trkpt>
      <trkpt lat="47.86266" lon="6.76844">
        <ele>647</ele>
        <time>2018-06-23T07:59:19.000Z</time>
      </trkpt>
      <trkpt lat="47.86266" lon="6.76844">
        <ele>648</ele>
        <time>2018-06-23T07:59:20.000Z</time>
      </trkpt>
      <trkpt lat="47.86266" lon="6.76844">
        <ele>648</ele>
        <time>2018-06-23T07:59:21.000Z</time>
      </trkpt>
      <trkpt lat="47.86266" lon="6.76844">
        <ele>648</ele>
        <time>2018-06-23T07:59:22.000Z</time>
      </trkpt>
      <trkpt lat="47.86266" lon="6.76844">
        <ele>648</ele>
        <time>2018-06-23T07:59:23.000Z</time>
      </trkpt>
      <trkpt lat="47.86266" lon="6.76844">
        <ele>648</ele>
        <time>2018-06-23T07:59:24.000Z</time>
      </trkpt>
      <trkpt lat="47.86265" lon="6.76844">
        <ele>648</ele>
        <time>2018-06-23T07:59:25.000Z</time>
      </trkpt>
      <trkpt lat="47.86266" lon="6.76844">
        <ele>648</ele>
        <time>2018-06-23T07:59:26.000Z</time>
      </trkpt>
      <trkpt lat="47.86266" lon="6.76844">
        <ele>647</ele>
        <time>2018-06-23T07:59:27.000Z</time>
      </trkpt>
      <trkpt lat="47.86266" lon="6.76844">
        <ele>647</ele>
        <time>2018-06-23T07:59:28.000Z</time>
      </trkpt>
      <trkpt lat="47.86268" lon="6.76844">
        <ele>647</ele>
        <time>2018-06-23T07:59:29.000Z</time>
      </trkpt>
      <trkpt lat="47.86268" lon="6.76844">
        <ele>647</ele>
        <time>2018-06-23T07:59:30.000Z</time>
      </trkpt>
      <trkpt lat="47.86268" lon="6.76844">
        <ele>647</ele>
        <time>2018-06-23T07:59:31.000Z</time>
      </trkpt>
      <trkpt lat="47.86268" lon="6.76844">
        <ele>647</ele>
        <time>2018-06-23T07:59:32.000Z</time>
      </trkpt>
      <trkpt lat="47.86268" lon="6.76845">
        <ele>647</ele>
        <time>2018-06-23T07:59:33.000Z</time>
      </trkpt>
      <trkpt lat="47.86271" lon="6.76845">
        <ele>647</ele>
        <time>2018-06-23T07:59:34.000Z</time>
      </trkpt>
      <trkpt lat="47.86272" lon="6.76844">
        <ele>646</ele>
        <time>2018-06-23T07:59:35.000Z</time>
      </trkpt>
      <trkpt lat="47.86272" lon="6.76844">
        <ele>646</ele>
        <time>2018-06-23T07:59:36.000Z</time>
      </trkpt>
      <trkpt lat="47.86272" lon="6.76847">
        <ele>646</ele>
        <time>2018-06-23T07:59:37.000Z</time>
      </trkpt>
      <trkpt lat="47.86272" lon="6.76846">
        <ele>646</ele>
        <time>2018-06-23T07:59:38.000Z</time>
      </trkpt>
      <trkpt lat="47.86272" lon="6.76846">
        <ele>646</ele>
        <time>2018-06-23T07:59:39.000Z</time>
      </trkpt>
      <trkpt lat="47.86273" lon="6.76844">
        <ele>646</ele>
        <time>2018-06-23T07:59:40.000Z</time>
      </trkpt>
      <trkpt lat="47.86273" lon="6.76844">
        <ele>646</ele>
        <time>2018-06-23T07:59:41.000Z</time>
      </trkpt>
      <trkpt lat="47.86273" lon="6.76844">
        <ele>646</ele>
        <time>2018-06-23T07:59:42.000Z</time>
      </trkpt>
      <trkpt lat="47.86273" lon="6.76844">
        <ele>646</ele>
        <time>2018-06-23T07:59:43.000Z</time>
      </trkpt>
      <trkpt lat="47.86273" lon="6.76844">
        <ele>646</ele>
        <time>2018-06-23T07:59:44.000Z</time>
      </trkpt>
      <trkpt lat="47.86273" lon="6.76842">
        <ele>647</ele>
        <time>2018-06-23T07:59:45.000Z</time>
      </trkpt>
      <trkpt lat="47.86273" lon="6.76841">
        <ele>647</ele>
        <time>2018-06-23T07:59:46.000Z</time>
      </trkpt>
      <trkpt lat="47.86273" lon="6.76842">
        <ele>647</ele>
        <time>2018-06-23T07:59:47.000Z</time>
      </trkpt>
      <trkpt lat="47.86272" lon="6.76842">
        <ele>647</ele>
        <time>2018-06-23T07:59:48.000Z</time>
      </trkpt>
      <trkpt lat="47.86272" lon="6.76842">
        <ele>647</ele>
        <time>2018-06-23T07:59:49.000Z</time>
      </trkpt>
      <trkpt lat="47.86271" lon="6.76842">
        <ele>647</ele>
        <time>2018-06-23T07:59:50.000Z</time>
      </trkpt>
      <trkpt lat="47.86271" lon="6.76842">
        <ele>647</ele>
        <time>2018-06-23T07:59:51.000Z</time>
      </trkpt>
      <trkpt lat="47.86271" lon="6.76842">
        <ele>647</ele>
        <time>2018-06-23T07:59:52.000Z</time>
      </trkpt>
      <trkpt lat="47.86271" lon="6.76842">
        <ele>647</ele>
        <time>2018-06-23T07:59:53.000Z</time>
      </trkpt>
      <trkpt lat="47.86272" lon="6.76843">
        <ele>646</ele>
        <time>2018-06-23T07:59:54.000Z</time>
      </trkpt>
      <trkpt lat="47.86273" lon="6.76844">
        <ele>646</ele>
        <time>2018-06-23T07:59:55.000Z</time>
      </trkpt>
      <trkpt lat="47.86273" lon="6.76845">
        <ele>646</ele>
        <time>2018-06-23T07:59:56.000Z</time>
      </trkpt>
      <trkpt lat="47.86273" lon="6.76845">
        <ele>646</ele>
        <time>2018-06-23T07:59:57.000Z</time>
      </trkpt>
      <trkpt lat="47.86273" lon="6.76845">
        <ele>646</ele>
        <time>2018-06-23T07:59:58.000Z</time>
      </trkpt>
      <trkpt lat="47.86273" lon="6.76845">
        <ele>646</ele>
        <time>2018-06-23T07:59:59.000Z</time>
      </trkpt>
      <trkpt lat="47.86273" lon="6.76845">
        <ele>646</ele>
        <time>2018-06-23T08:00:00.000Z</time>
      </trkpt>
      <trkpt lat="47.86272" lon="6.76839">
        <ele>647</ele>
        <time>2018-06-23T08:00:01.000Z</time>
      </trkpt>
      <trkpt lat="47.86271" lon="6.76838">
        <ele>647</ele>
        <time>2018-06-23T08:00:02.000Z</time>
      </trkpt>
      <trkpt lat="47.86271" lon="6.76838">
        <ele>647</ele>
        <time>2018-06-23T08:00:03.000Z</time>
      </trkpt>
      <trkpt lat="47.86271" lon="6.76838">
        <ele>647</ele>
        <time>2018-06-23T08:00:04.000Z</time>
      </trkpt>
      <trkpt lat="47.86268" lon="6.76837">
        <ele>648</ele>
        <time>2018-06-23T08:00:05.000Z</time>
      </trkpt>
      <trkpt lat="47.86268" lon="6.76837">
        <ele>648</ele>
        <time>2018-06-23T08:00:06.000Z</time>
      </trkpt>
      <trkpt lat="47.86267" lon="6.76837">
        <ele>648</ele>
        <time>2018-06-23T08:00:07.000Z</time>
      </trkpt>
      <trkpt lat="47.86266" lon="6.76836">
        <ele>648</ele>
        <time>2018-06-23T08:00:08.000Z</time>
      </trkpt>
      <trkpt lat="47.86266" lon="6.76836">
        <ele>648</ele>
        <time>2018-06-23T08:00:09.000Z</time>
      </trkpt>
      <trkpt lat="47.86265" lon="6.76836">
        <ele>648</ele>
        <time>2018-06-23T08:00:10.000Z</time>
      </trkpt>
      <trkpt lat="47.86265" lon="6.76836">
        <ele>649</ele>
        <time>2018-06-23T08:00:11.000Z</time>
      </trkpt>
      <trkpt lat="47.86264" lon="6.76835">
        <ele>649</ele>
        <time>2018-06-23T08:00:12.000Z</time>
      </trkpt>
      <trkpt lat="47.86264" lon="6.76835">
        <ele>649</ele>
        <time>2018-06-23T08:00:13.000Z</time>
      </trkpt>
      <trkpt lat="47.86263" lon="6.76835">
        <ele>649</ele>
        <time>2018-06-23T08:00:14.000Z</time>
      </trkpt>
      <trkpt lat="47.86263" lon="6.76834">
        <ele>649</ele>
        <time>2018-06-23T08:00:15.000Z</time>
      </trkpt>
      <trkpt lat="47.86263" lon="6.76833">
        <ele>653</ele>
        <time>2018-06-23T08:00:16.000Z</time>
      </trkpt>
      <trkpt lat="47.86263" lon="6.76833">
        <ele>653</ele>
        <time>2018-06-23T08:00:17.000Z</time>
      </trkpt>
      <trkpt lat="47.86262" lon="6.76833">
        <ele>653</ele>
        <time>2018-06-23T08:00:18.000Z</time>
      </trkpt>
      <trkpt lat="47.86261" lon="6.76833">
        <ele>653</ele>
        <time>2018-06-23T08:00:19.000Z</time>
      </trkpt>
      <trkpt lat="47.8626" lon="6.76832">
        <ele>653</ele>
        <time>2018-06-23T08:00:20.000Z</time>
      </trkpt>
      <trkpt lat="47.86259" lon="6.76831">
        <ele>653</ele>
        <time>2018-06-23T08:00:21.000Z</time>
      </trkpt>
      <trkpt lat="47.86258" lon="6.76831">
        <ele>653</ele>
        <time>2018-06-23T08:00:22.000Z</time>
      </trkpt>
      <trkpt lat="47.86258" lon="6.7683">
        <ele>653</ele>
        <time>2018-06-23T08:00:23.000Z</time>
      </trkpt>
      <trkpt lat="47.86258" lon="6.7683">
        <ele>653</ele>
        <time>2018-06-23T08:00:24.000Z</time>
      </trkpt>
      <trkpt lat="47.86257" lon="6.76831">
        <ele>653</ele>
        <time>2018-06-23T08:00:25.000Z</time>
      </trkpt>
      <trkpt lat="47.86257" lon="6.76831">
        <ele>653</ele>
        <time>2018-06-23T08:00:26.000Z</time>
      </trkpt>
      <trkpt lat="47.86257" lon="6.76832">
        <ele>654</ele>
        <time>2018-06-23T08:00:27.000Z</time>
      </trkpt>
      <trkpt lat="47.86256" lon="6.76833">
        <ele>654</ele>
        <time>2018-06-23T08:00:28.000Z</time>
      </trkpt>
      <trkpt lat="47.86256" lon="6.76834">
        <ele>651</ele>
        <time>2018-06-23T08:00:29.000Z</time>
      </trkpt>
      <trkpt lat="47.86256" lon="6.76835">
        <ele>651</ele>
        <time>2018-06-23T08:00:30.000Z</time>
      </trkpt>
      <trkpt lat="47.86256" lon="6.76836">
        <ele>651</ele>
        <time>2018-06-23T08:00:31.000Z</time>
      </trkpt>
      <trkpt lat="47.86255" lon="6.76837">
        <ele>651</ele>
        <time>2018-06-23T08:00:32.000Z</time>
      </trkpt>
      <trkpt lat="47.86255" lon="6.76838">
        <ele>651</ele>
        <time>2018-06-23T08:00:33.000Z</time>
      </trkpt>
      <trkpt lat="47.86254" lon="6.76838">
        <ele>651</ele>
        <time>2018-06-23T08:00:34.000Z</time>
      </trkpt>
      <trkpt lat="47.86253" lon="6.7684">
        <ele>651</ele>
        <time>2018-06-23T08:00:35.000Z</time>
      </trkpt>
      <trkpt lat="47.86253" lon="6.76841">
        <ele>651</ele>
        <time>2018-06-23T08:00:36.000Z</time>
      </trkpt>
      <trkpt lat="47.86252" lon="6.76842">
        <ele>650</ele>
        <time>2018-06-23T08:00:37.000Z</time>
      </trkpt>
      <trkpt lat="47.86252" lon="6.76842">
        <ele>650</ele>
        <time>2018-06-23T08:00:38.000Z</time>
      </trkpt>
      <trkpt lat="47.86251" lon="6.76843">
        <ele>650</ele>
        <time>2018-06-23T08:00:39.000Z</time>
      </trkpt>
      <trkpt lat="47.8625" lon="6.76844">
        <ele>650</ele>
        <time>2018-06-23T08:00:40.000Z</time>
      </trkpt>
      <trkpt lat="47.8625" lon="6.76845">
        <ele>654</ele>
        <time>2018-06-23T08:00:41.000Z</time>
      </trkpt>
      <trkpt lat="47.86249" lon="6.76846">
        <ele>654</ele>
        <time>2018-06-23T08:00:42.000Z</time>
      </trkpt>
      <trkpt lat="47.86248" lon="6.76847">
        <ele>654</ele>
        <time>2018-06-23T08:00:43.000Z</time>
      </trkpt>
      <trkpt lat="47.86248" lon="6.76848">
        <ele>654</ele>
        <time>2018-06-23T08:00:44.000Z</time>
      </trkpt>
      <trkpt lat="47.86247" lon="6.76848">
        <ele>654</ele>
        <time>2018-06-23T08:00:45.000Z</time>
      </trkpt>
      <trkpt lat="47.86246" lon="6.76849">
        <ele>654</ele>
        <time>2018-06-23T08:00:46.000Z</time>
      </trkpt>
      <trkpt lat="47.86245" lon="6.7685">
        <ele>654</ele>
        <time>2018-06-23T08:00:47.000Z</time>
      </trkpt>
      <trkpt lat="47.86245" lon="6.76851">
        <ele>654</ele>
        <time>2018-06-23T08:00:48.000Z</time>
      </trkpt>
      <trkpt lat="47.86244" lon="6.76852">
        <ele>654</ele>
        <time>2018-06-23T08:00:49.000Z</time>
      </trkpt>
      <trkpt lat="47.86243" lon="6.76853">
        <ele>654</ele>
        <time>2018-06-23T08:00:50.000Z</time>
      </trkpt>
      <trkpt lat="47.86242" lon="6.76854">
        <ele>654</ele>
        <time>2018-06-23T08:00:51.000Z</time>
      </trkpt>
      <trkpt lat="47.86241" lon="6.76855">
        <ele>654</ele>
        <time>2018-06-23T08:00:52.000Z</time>
      </trkpt>
      <trkpt lat="47.8624" lon="6.76856">
        <ele>654</ele>
        <time>2018-06-23T08:00:53.000Z</time>
      </trkpt>
      <trkpt lat="47.8624" lon="6.76857">
        <ele>654</ele>
        <time>2018-06-23T08:00:54.000Z</time>
      </trkpt>
      <trkpt lat="47.86239" lon="6.76858">
        <ele>654</ele>
        <time>2018-06-23T08:00:55.000Z</time>
      </trkpt>
      <trkpt lat="47.86238" lon="6.76859">
        <ele>654</ele>
        <time>2018-06-23T08:00:56.000Z</time>
      </trkpt>
      <trkpt lat="47.86237" lon="6.7686">
        <ele>654</ele>
        <time>2018-06-23T08:00:57.000Z</time>
      </trkpt>
      <trkpt lat="47.86236" lon="6.76861">
        <ele>654</ele>
        <time>2018-06-23T08:00:58.000Z</time>
      </trkpt>
      <trkpt lat="47.86235" lon="6.76863">
        <ele>654</ele>
        <time>2018-06-23T08:00:59.000Z</time>
      </trkpt>
      <trkpt lat="47.86234" lon="6.76864">
        <ele>653</ele>
        <time>2018-06-23T08:01:00.000Z</time>
      </trkpt>
      <trkpt lat="47.86233" lon="6.76865">
        <ele>653</ele>
        <time>2018-06-23T08:01:01.000Z</time>
      </trkpt>
      <trkpt lat="47.86232" lon="6.76866">
        <ele>653</ele>
        <time>2018-06-23T08:01:02.000Z</time>
      </trkpt>
      <trkpt lat="47.86232" lon="6.76867">
        <ele>653</ele>
        <time>2018-06-23T08:01:03.000Z</time>
      </trkpt>
      <trkpt lat="47.86231" lon="6.76868">
        <ele>653</ele>
        <time>2018-06-23T08:01:04.000Z</time>
      </trkpt>
      <trkpt lat="47.8623" lon="6.76869">
        <ele>653</ele>
        <time>2018-06-23T08:01:05.000Z</time>
      </trkpt>
      <trkpt lat="47.86229" lon="6.7687">
        <ele>653</ele>
        <time>2018-06-23T08:01:06.000Z</time>
      </trkpt>
      <trkpt lat="47.86228" lon="6.76871">
        <ele>653</ele>
        <time>2018-06-23T08:01:07.000Z</time>
      </trkpt>
      <trkpt lat="47.86227" lon="6.76872">
        <ele>653</ele>
        <time>2018-06-23T08:01:08.000Z</time>
      </trkpt>
      <trkpt lat="47.86226" lon="6.76873">
        <ele>653</ele>
        <time>2018-06-23T08:01:09.000Z</time>
      </trkpt>
      <trkpt lat="47.86225" lon="6.76873">
        <ele>653</ele>
        <time>2018-06-23T08:01:10.000Z</time>
      </trkpt>
      <trkpt lat="47.86224" lon="6.76874">
        <ele>653</ele>
        <time>2018-06-23T08:01:11.000Z</time>
      </trkpt>
      <trkpt lat="47.86223" lon="6.76875">
        <ele>653</ele>
        <time>2018-06-23T08:01:12.000Z</time>
      </trkpt>
      <trkpt lat="47.86222" lon="6.76876">
        <ele>653</ele>
        <time>2018-06-23T08:01:13.000Z</time>
      </trkpt>
      <trkpt lat="47.86221" lon="6.76877">
        <ele>653</ele>
        <time>2018-06-23T08:01:14.000Z</time>
      </trkpt>
      <trkpt lat="47.8622" lon="6.76878">
        <ele>653</ele>
        <time>2018-06-23T08:01:15.000Z</time>
      </trkpt>
      <trkpt lat="47.86219" lon="6.76879">
        <ele>653</ele>
        <time>2018-06-23T08:01:16.000Z</time>
      </trkpt>
      <trkpt lat="47.86218" lon="6.76879">
        <ele>653</ele>
        <time>2018-06-23T08:01:17.000Z</time>
      </trkpt>
      <trkpt lat="47.86217" lon="6.7688">
        <ele>653</ele>
        <time>2018-06-23T08:01:18.000Z</time>
      </trkpt>
      <trkpt lat="47.86216" lon="6.76881">
        <ele>653</ele>
        <time>2018-06-23T08:01:19.000Z</time>
      </trkpt>
      <trkpt lat="47.86215" lon="6.76882">
        <ele>653</ele>
        <time>2018-06-23T08:01:20.000Z</time>
      </trkpt>
      <trkpt lat="47.86215" lon="6.76883">
        <ele>653</ele>
        <time>2018-06-23T08:01:21.000Z</time>
      </trkpt>
      <trkpt lat="47.86214" lon="6.76884">
        <ele>653</ele>
        <time>2018-06-23T08:01:22.000Z</time>
      </trkpt>
      <trkpt lat="47.86213" lon="6.76885">
        <ele>653</ele>
        <time>2018-06-23T08:01:23.000Z</time>
      </trkpt>
      <trkpt lat="47.86213" lon="6.76886">
        <ele>653</ele>
        <time>2018-06-23T08:01:24.000Z</time>
      </trkpt>
      <trkpt lat="47.86212" lon="6.76887">
        <ele>653</ele>
        <time>2018-06-23T08:01:25.000Z</time>
      </trkpt>
      <trkpt lat="47.86211" lon="6.76888">
        <ele>653</ele>
        <time>2018-06-23T08:01:26.000Z</time>
      </trkpt>
      <trkpt lat="47.86211" lon="6.76889">
        <ele>653</ele>
        <time>2018-06-23T08:01:27.000Z</time>
      </trkpt>
      <trkpt lat="47.8621" lon="6.7689">
        <ele>653</ele>
        <time>2018-06-23T08:01:28.000Z</time>
      </trkpt>
      <trkpt lat="47.86209" lon="6.76892">
        <ele>653</ele>
        <time>2018-06-23T08:01:29.000Z</time>
      </trkpt>
      <trkpt lat="47.86208" lon="6.76893">
        <ele>653</ele>
        <time>2018-06-23T08:01:30.000Z</time>
      </trkpt>
      <trkpt lat="47.86208" lon="6.76894">
        <ele>653</ele>
        <time>2018-06-23T08:01:31.000Z</time>
      </trkpt>
      <trkpt lat="47.86207" lon="6.76895">
        <ele>653</ele>
        <time>2018-06-23T08:01:32.000Z</time>
      </trkpt>
      <trkpt lat="47.86207" lon="6.76895">
        <ele>653</ele>
        <time>2018-06-23T08:01:33.000Z</time>
      </trkpt>
      <trkpt lat="47.86207" lon="6.76895">
        <ele>653</ele>
        <time>2018-06-23T08:01:34.000Z</time>
      </trkpt>
      <trkpt lat="47.86207" lon="6.76896">
        <ele>653</ele>
        <time>2018-06-23T08:01:35.000Z</time>
      </trkpt>
      <trkpt lat="47.86207" lon="6.76897">
        <ele>653</ele>
        <time>2018-06-23T08:01:36.000Z</time>
      </trkpt>
      <trkpt lat="47.86206" lon="6.76898">
        <ele>653</ele>
        <time>2018-06-23T08:01:37.000Z</time>
      </trkpt>
      <trkpt lat="47.86206" lon="6.76899">
        <ele>653</ele>
        <time>2018-06-23T08:01:38.000Z</time>
      </trkpt>
      <trkpt lat="47.86205" lon="6.769">
        <ele>653</ele>
        <time>2018-06-23T08:01:39.000Z</time>
      </trkpt>
      <trkpt lat="47.86204" lon="6.76901">
        <ele>653</ele>
        <time>2018-06-23T08:01:40.000Z</time>
      </trkpt>
      <trkpt lat="47.86203" lon="6.76903">
        <ele>653</ele>
        <time>2018-06-23T08:01:41.000Z</time>
      </trkpt>
      <trkpt lat="47.86202" lon="6.76904">
        <ele>653</ele>
        <time>2018-06-23T08:01:42.000Z</time>
      </trkpt>
      <trkpt lat="47.86201" lon="6.76905">
        <ele>653</ele>
        <time>2018-06-23T08:01:43.000Z</time>
      </trkpt>
      <trkpt lat="47.86201" lon="6.76905">
        <ele>653</ele>
        <time>2018-06-23T08:01:44.000Z</time>
      </trkpt>
      <trkpt lat="47.862" lon="6.76906">
        <ele>653</ele>
        <time>2018-06-23T08:01:45.000Z</time>
      </trkpt>
      <trkpt lat="47.86198" lon="6.76907">
        <ele>653</ele>
        <time>2018-06-23T08:01:46.000Z</time>
      </trkpt>
      <trkpt lat="47.86197" lon="6.76908">
        <ele>653</ele>
        <time>2018-06-23T08:01:47.000Z</time>
      </trkpt>
      <trkpt lat="47.86196" lon="6.76909">
        <ele>653</ele>
        <time>2018-06-23T08:01:48.000Z</time>
      </trkpt>
      <trkpt lat="47.86195" lon="6.76909">
        <ele>654</ele>
        <time>2018-06-23T08:01:49.000Z</time>
      </trkpt>
      <trkpt lat="47.86194" lon="6.76909">
        <ele>654</ele>
        <time>2018-06-23T08:01:50.000Z</time>
      </trkpt>
      <trkpt lat="47.86193" lon="6.7691">
        <ele>654</ele>
        <time>2018-06-23T08:01:51.000Z</time>
      </trkpt>
      <trkpt lat="47.86192" lon="6.7691">
        <ele>654</ele>
        <time>2018-06-23T08:01:52.000Z</time>
      </trkpt>
      <trkpt lat="47.86191" lon="6.7691">
        <ele>654</ele>
        <time>2018-06-23T08:01:53.000Z</time>
      </trkpt>
      <trkpt lat="47.8619" lon="6.76911">
        <ele>654</ele>
        <time>2018-06-23T08:01:54.000Z</time>
      </trkpt>
      <trkpt lat="47.86189" lon="6.76911">
        <ele>654</ele>
        <time>2018-06-23T08:01:55.000Z</time>
      </trkpt>
      <trkpt lat="47.86188" lon="6.76912">
        <ele>654</ele>
        <time>2018-06-23T08:01:56.000Z</time>
      </trkpt>
      <trkpt lat="47.86187" lon="6.76912">
        <ele>654</ele>
        <time>2018-06-23T08:01:57.000Z</time>
      </trkpt>
      <trkpt lat="47.86186" lon="6.76913">
        <ele>654</ele>
        <time>2018-06-23T08:01:58.000Z</time>
      </trkpt>
      <trkpt lat="47.86184" lon="6.76914">
        <ele>654</ele>
        <time>2018-06-23T08:01:59.000Z</time>
      </trkpt>
      <trkpt lat="47.86183" lon="6.76914">
        <ele>654</ele>
        <time>2018-06-23T08:02:00.000Z</time>
      </trkpt>
      <trkpt lat="47.86182" lon="6.76915">
        <ele>654</ele>
        <time>2018-06-23T08:02:01.000Z</time>
      </trkpt>
      <trkpt lat="47.86181" lon="6.76916">
        <ele>654</ele>
        <time>2018-06-23T08:02:02.000Z</time>
      </trkpt>
      <trkpt lat="47.8618" lon="6.76917">
        <ele>650</ele>
        <time>2018-06-23T08:02:03.000Z</time>
      </trkpt>
      <trkpt lat="47.86179" lon="6.76918">
        <ele>650</ele>
        <time>2018-06-23T08:02:04.000Z</time>
      </trkpt>
      <trkpt lat="47.86178" lon="6.76918">
        <ele>650</ele>
        <time>2018-06-23T08:02:05.000Z</time>
      </trkpt>
      <trkpt lat="47.86178" lon="6.76919">
        <ele>651</ele>
        <time>2018-06-23T08:02:06.000Z</time>
      </trkpt>
      <trkpt lat="47.86177" lon="6.76919">
        <ele>651</ele>
        <time>2018-06-23T08:02:07.000Z</time>
      </trkpt>
      <trkpt lat="47.86176" lon="6.7692">
        <ele>651</ele>
        <time>2018-06-23T08:02:08.000Z</time>
      </trkpt>
      <trkpt lat="47.86175" lon="6.76921">
        <ele>651</ele>
        <time>2018-06-23T08:02:09.000Z</time>
      </trkpt>
      <trkpt lat="47.86174" lon="6.76921">
        <ele>651</ele>
        <time>2018-06-23T08:02:10.000Z</time>
      </trkpt>
      <trkpt lat="47.86173" lon="6.76923">
        <ele>651</ele>
        <time>2018-06-23T08:02:11.000Z</time>
      </trkpt>
      <trkpt lat="47.86173" lon="6.76924">
        <ele>651</ele>
        <time>2018-06-23T08:02:12.000Z</time>
      </trkpt>
      <trkpt lat="47.86172" lon="6.76925">
        <ele>651</ele>
        <time>2018-06-23T08:02:13.000Z</time>
      </trkpt>
      <trkpt lat="47.86172" lon="6.76925">
        <ele>651</ele>
        <time>2018-06-23T08:02:14.000Z</time>
      </trkpt>
      <trkpt lat="47.86171" lon="6.76926">
        <ele>651</ele>
        <time>2018-06-23T08:02:15.000Z</time>
      </trkpt>
      <trkpt lat="47.8617" lon="6.76926">
        <ele>651</ele>
        <time>2018-06-23T08:02:16.000Z</time>
      </trkpt>
      <trkpt lat="47.86169" lon="6.76927">
        <ele>651</ele>
        <time>2018-06-23T08:02:17.000Z</time>
      </trkpt>
      <trkpt lat="47.86169" lon="6.76928">
        <ele>651</ele>
        <time>2018-06-23T08:02:18.000Z</time>
      </trkpt>
      <trkpt lat="47.86168" lon="6.76928">
        <ele>651</ele>
        <time>2018-06-23T08:02:19.000Z</time>
      </trkpt>
      <trkpt lat="47.86168" lon="6.76928">
        <ele>651</ele>
        <time>2018-06-23T08:02:20.000Z</time>
      </trkpt>
      <trkpt lat="47.86168" lon="6.76928">
        <ele>651</ele>
        <time>2018-06-23T08:02:21.000Z</time>
      </trkpt>
      <trkpt lat="47.86168" lon="6.76929">
        <ele>651</ele>
        <time>2018-06-23T08:02:22.000Z</time>
      </trkpt>
      <trkpt lat="47.86167" lon="6.76929">
        <ele>650</ele>
        <time>2018-06-23T08:02:23.000Z</time>
      </trkpt>
      <trkpt lat="47.86167" lon="6.76929">
        <ele>650</ele>
        <time>2018-06-23T08:02:24.000Z</time>
      </trkpt>
      <trkpt lat="47.86167" lon="6.76929">
        <ele>650</ele>
        <time>2018-06-23T08:02:25.000Z</time>
      </trkpt>
      <trkpt lat="47.86166" lon="6.76929">
        <ele>655</ele>
        <time>2018-06-23T08:02:26.000Z</time>
      </trkpt>
      <trkpt lat="47.86165" lon="6.76929">
        <ele>655</ele>
        <time>2018-06-23T08:02:27.000Z</time>
      </trkpt>
      <trkpt lat="47.86165" lon="6.7693">
        <ele>655</ele>
        <time>2018-06-23T08:02:28.000Z</time>
      </trkpt>
      <trkpt lat="47.86164" lon="6.76929">
        <ele>655</ele>
        <time>2018-06-23T08:02:29.000Z</time>
      </trkpt>
      <trkpt lat="47.86164" lon="6.76929">
        <ele>655</ele>
        <time>2018-06-23T08:02:30.000Z</time>
      </trkpt>
      <trkpt lat="47.86164" lon="6.76929">
        <ele>655</ele>
        <time>2018-06-23T08:02:31.000Z</time>
      </trkpt>
      <trkpt lat="47.86164" lon="6.7693">
        <ele>655</ele>
        <time>2018-06-23T08:02:32.000Z</time>
      </trkpt>
      <trkpt lat="47.86164" lon="6.7693">
        <ele>655</ele>
        <time>2018-06-23T08:02:33.000Z</time>
      </trkpt>
      <trkpt lat="47.86163" lon="6.76929">
        <ele>655</ele>
        <time>2018-06-23T08:02:34.000Z</time>
      </trkpt>
      <trkpt lat="47.86163" lon="6.76929">
        <ele>655</ele>
        <time>2018-06-23T08:02:35.000Z</time>
      </trkpt>
      <trkpt lat="47.86163" lon="6.76929">
        <ele>655</ele>
        <time>2018-06-23T08:02:36.000Z</time>
      </trkpt>
      <trkpt lat="47.86162" lon="6.76929">
        <ele>655</ele>
        <time>2018-06-23T08:02:37.000Z</time>
      </trkpt>
      <trkpt lat="47.86162" lon="6.76929">
        <ele>655</ele>
        <time>2018-06-23T08:02:38.000Z</time>
      </trkpt>
      <trkpt lat="47.86161" lon="6.76931">
        <ele>655</ele>
        <time>2018-06-23T08:02:39.000Z</time>
      </trkpt>
      <trkpt lat="47.86161" lon="6.76931">
        <ele>655</ele>
        <time>2018-06-23T08:02:40.000Z</time>
      </trkpt>
      <trkpt lat="47.8616" lon="6.76931">
        <ele>655</ele>
        <time>2018-06-23T08:02:41.000Z</time>
      </trkpt>
      <trkpt lat="47.8616" lon="6.76931">
        <ele>655</ele>
        <time>2018-06-23T08:02:42.000Z</time>
      </trkpt>
      <trkpt lat="47.86159" lon="6.76931">
        <ele>655</ele>
        <time>2018-06-23T08:02:43.000Z</time>
      </trkpt>
      <trkpt lat="47.86158" lon="6.76932">
        <ele>655</ele>
        <time>2018-06-23T08:02:44.000Z</time>
      </trkpt>
      <trkpt lat="47.86158" lon="6.76932">
        <ele>655</ele>
        <time>2018-06-23T08:02:45.000Z</time>
      </trkpt>
      <trkpt lat="47.86157" lon="6.76932">
        <ele>655</ele>
        <time>2018-06-23T08:02:46.000Z</time>
      </trkpt>
      <trkpt lat="47.86157" lon="6.76932">
        <ele>655</ele>
        <time>2018-06-23T08:02:47.000Z</time>
      </trkpt>
      <trkpt lat="47.86156" lon="6.76933">
        <ele>655</ele>
        <time>2018-06-23T08:02:48.000Z</time>
      </trkpt>
      <trkpt lat="47.86155" lon="6.76933">
        <ele>655</ele>
        <time>2018-06-23T08:02:49.000Z</time>
      </trkpt>
      <trkpt lat="47.86154" lon="6.76933">
        <ele>655</ele>
        <time>2018-06-23T08:02:50.000Z</time>
      </trkpt>
      <trkpt lat="47.86153" lon="6.76933">
        <ele>655</ele>
        <time>2018-06-23T08:02:51.000Z</time>
      </trkpt>
      <trkpt lat="47.86152" lon="6.76934">
        <ele>655</ele>
        <time>2018-06-23T08:02:52.000Z</time>
      </trkpt>
      <trkpt lat="47.86151" lon="6.76934">
        <ele>655</ele>
        <time>2018-06-23T08:02:53.000Z</time>
      </trkpt>
      <trkpt lat="47.8615" lon="6.76934">
        <ele>655</ele>
        <time>2018-06-23T08:02:54.000Z</time>
      </trkpt>
      <trkpt lat="47.86149" lon="6.76935">
        <ele>655</ele>
        <time>2018-06-23T08:02:55.000Z</time>
      </trkpt>
      <trkpt lat="47.86148" lon="6.76936">
        <ele>655</ele>
        <time>2018-06-23T08:02:56.000Z</time>
      </trkpt>
      <trkpt lat="47.86147" lon="6.76936">
        <ele>655</ele>
        <time>2018-06-23T08:02:57.000Z</time>
      </trkpt>
      <trkpt lat="47.86145" lon="6.76936">
        <ele>655</ele>
        <time>2018-06-23T08:02:58.000Z</time>
      </trkpt>
      <trkpt lat="47.86144" lon="6.76937">
        <ele>655</ele>
        <time>2018-06-23T08:02:59.000Z</time>
      </trkpt>
      <trkpt lat="47.86143" lon="6.76937">
        <ele>655</ele>
        <time>2018-06-23T08:03:00.000Z</time>
      </trkpt>
      <trkpt lat="47.86142" lon="6.76937">
        <ele>655</ele>
        <time>2018-06-23T08:03:01.000Z</time>
      </trkpt>
      <trkpt lat="47.86141" lon="6.76937">
        <ele>655</ele>
        <time>2018-06-23T08:03:02.000Z</time>
      </trkpt>
      <trkpt lat="47.8614" lon="6.76937">
        <ele>655</ele>
        <time>2018-06-23T08:03:03.000Z</time>
      </trkpt>
      <trkpt lat="47.86139" lon="6.76937">
        <ele>655</ele>
        <time>2018-06-23T08:03:04.000Z</time>
      </trkpt>
      <trkpt lat="47.86139" lon="6.76937">
        <ele>655</ele>
        <time>2018-06-23T08:03:05.000Z</time>
      </trkpt>
      <trkpt lat="47.86139" lon="6.76937">
        <ele>655</ele>
        <time>2018-06-23T08:03:06.000Z</time>
      </trkpt>
      <trkpt lat="47.86139" lon="6.76937">
        <ele>655</ele>
        <time>2018-06-23T08:03:07.000Z</time>
      </trkpt>
      <trkpt lat="47.86135" lon="6.76938">
        <ele>655</ele>
        <time>2018-06-23T08:03:08.000Z</time>
      </trkpt>
      <trkpt lat="47.86134" lon="6.76938">
        <ele>655</ele>
        <time>2018-06-23T08:03:09.000Z</time>
      </trkpt>
      <trkpt lat="47.86133" lon="6.76939">
        <ele>655</ele>
        <time>2018-06-23T08:03:10.000Z</time>
      </trkpt>
      <trkpt lat="47.86131" lon="6.76939">
        <ele>655</ele>
        <time>2018-06-23T08:03:11.000Z</time>
      </trkpt>
      <trkpt lat="47.8613" lon="6.7694">
        <ele>655</ele>
        <time>2018-06-23T08:03:12.000Z</time>
      </trkpt>
      <trkpt lat="47.86129" lon="6.7694">
        <ele>655</ele>
        <time>2018-06-23T08:03:13.000Z</time>
      </trkpt>
      <trkpt lat="47.86127" lon="6.7694">
        <ele>655</ele>
        <time>2018-06-23T08:03:14.000Z</time>
      </trkpt>
      <trkpt lat="47.86126" lon="6.76941">
        <ele>655</ele>
        <time>2018-06-23T08:03:15.000Z</time>
      </trkpt>
      <trkpt lat="47.86125" lon="6.76942">
        <ele>655</ele>
        <time>2018-06-23T08:03:16.000Z</time>
      </trkpt>
      <trkpt lat="47.86124" lon="6.76942">
        <ele>655</ele>
        <time>2018-06-23T08:03:17.000Z</time>
      </trkpt>
      <trkpt lat="47.86123" lon="6.76943">
        <ele>655</ele>
        <time>2018-06-23T08:03:18.000Z</time>
      </trkpt>
      <trkpt lat="47.86122" lon="6.76943">
        <ele>655</ele>
        <time>2018-06-23T08:03:19.000Z</time>
      </trkpt>
      <trkpt lat="47.8612" lon="6.76944">
        <ele>656</ele>
        <time>2018-06-23T08:03:20.000Z</time>
      </trkpt>
      <trkpt lat="47.8612" lon="6.76944">
        <ele>656</ele>
        <time>2018-06-23T08:03:21.000Z</time>
      </trkpt>
      <trkpt lat="47.86118" lon="6.76945">
        <ele>656</ele>
        <time>2018-06-23T08:03:22.000Z</time>
      </trkpt>
      <trkpt lat="47.86117" lon="6.76945">
        <ele>656</ele>
        <time>2018-06-23T08:03:23.000Z</time>
      </trkpt>
      <trkpt lat="47.86116" lon="6.76946">
        <ele>656</ele>
        <time>2018-06-23T08:03:24.000Z</time>
      </trkpt>
      <trkpt lat="47.86116" lon="6.76946">
        <ele>656</ele>
        <time>2018-06-23T08:03:25.000Z</time>
      </trkpt>
      <trkpt lat="47.86114" lon="6.76949">
        <ele>656</ele>
        <time>2018-06-23T08:03:26.000Z</time>
      </trkpt>
      <trkpt lat="47.86114" lon="6.76949">
        <ele>656</ele>
        <time>2018-06-23T08:03:27.000Z</time>
      </trkpt>
      <trkpt lat="47.86114" lon="6.7695">
        <ele>656</ele>
        <time>2018-06-23T08:03:28.000Z</time>
      </trkpt>
      <trkpt lat="47.86113" lon="6.76951">
        <ele>656</ele>
        <time>2018-06-23T08:03:29.000Z</time>
      </trkpt>
      <trkpt lat="47.86111" lon="6.76954">
        <ele>656</ele>
        <time>2018-06-23T08:03:30.000Z</time>
      </trkpt>
      <trkpt lat="47.86111" lon="6.76954">
        <ele>656</ele>
        <time>2018-06-23T08:03:31.000Z</time>
      </trkpt>
      <trkpt lat="47.86109" lon="6.76955">
        <ele>656</ele>
        <time>2018-06-23T08:03:32.000Z</time>
      </trkpt>
      <trkpt lat="47.86108" lon="6.76956">
        <ele>656</ele>
        <time>2018-06-23T08:03:33.000Z</time>
      </trkpt>
      <trkpt lat="47.86108" lon="6.76956">
        <ele>656</ele>
        <time>2018-06-23T08:03:34.000Z</time>
      </trkpt>
      <trkpt lat="47.86107" lon="6.76957">
        <ele>656</ele>
        <time>2018-06-23T08:03:35.000Z</time>
      </trkpt>
      <trkpt lat="47.86106" lon="6.76957">
        <ele>656</ele>
        <time>2018-06-23T08:03:36.000Z</time>
      </trkpt>
      <trkpt lat="47.86105" lon="6.76958">
        <ele>656</ele>
        <time>2018-06-23T08:03:37.000Z</time>
      </trkpt>
      <trkpt lat="47.86104" lon="6.76958">
        <ele>656</ele>
        <time>2018-06-23T08:03:38.000Z</time>
      </trkpt>
      <trkpt lat="47.86104" lon="6.76959">
        <ele>656</ele>
        <time>2018-06-23T08:03:39.000Z</time>
      </trkpt>
      <trkpt lat="47.86103" lon="6.7696">
        <ele>656</ele>
        <time>2018-06-23T08:03:40.000Z</time>
      </trkpt>
      <trkpt lat="47.86102" lon="6.7696">
        <ele>656</ele>
        <time>2018-06-23T08:03:41.000Z</time>
      </trkpt>
      <trkpt lat="47.86101" lon="6.76961">
        <ele>656</ele>
        <time>2018-06-23T08:03:42.000Z</time>
      </trkpt>
      <trkpt lat="47.86101" lon="6.76961">
        <ele>656</ele>
        <time>2018-06-23T08:03:43.000Z</time>
      </trkpt>
      <trkpt lat="47.86099" lon="6.76962">
        <ele>656</ele>
        <time>2018-06-23T08:03:44.000Z</time>
      </trkpt>
      <trkpt lat="47.86098" lon="6.76963">
        <ele>656</ele>
        <time>2018-06-23T08:03:45.000Z</time>
      </trkpt>
      <trkpt lat="47.86097" lon="6.76963">
        <ele>656</ele>
        <time>2018-06-23T08:03:46.000Z</time>
      </trkpt>
      <trkpt lat="47.86096" lon="6.76963">
        <ele>656</ele>
        <time>2018-06-23T08:03:47.000Z</time>
      </trkpt>
      <trkpt lat="47.86095" lon="6.76964">
        <ele>656</ele>
        <time>2018-06-23T08:03:48.000Z</time>
      </trkpt>
      <trkpt lat="47.86094" lon="6.76964">
        <ele>656</ele>
        <time>2018-06-23T08:03:49.000Z</time>
      </trkpt>
      <trkpt lat="47.86094" lon="6.76964">
        <ele>656</ele>
        <time>2018-06-23T08:03:50.000Z</time>
      </trkpt>
      <trkpt lat="47.86092" lon="6.76965">
        <ele>656</ele>
        <time>2018-06-23T08:03:51.000Z</time>
      </trkpt>
      <trkpt lat="47.86091" lon="6.76965">
        <ele>656</ele>
        <time>2018-06-23T08:03:52.000Z</time>
      </trkpt>
      <trkpt lat="47.8609" lon="6.76966">
        <ele>656</ele>
        <time>2018-06-23T08:03:53.000Z</time>
      </trkpt>
      <trkpt lat="47.86089" lon="6.76967">
        <ele>656</ele>
        <time>2018-06-23T08:03:54.000Z</time>
      </trkpt>
      <trkpt lat="47.86088" lon="6.76967">
        <ele>656</ele>
        <time>2018-06-23T08:03:55.000Z</time>
      </trkpt>
      <trkpt lat="47.86087" lon="6.76968">
        <ele>656</ele>
        <time>2018-06-23T08:03:56.000Z</time>
      </trkpt>
      <trkpt lat="47.86087" lon="6.76968">
        <ele>656</ele>
        <time>2018-06-23T08:03:57.000Z</time>
      </trkpt>
      <trkpt lat="47.86087" lon="6.76968">
        <ele>656</ele>
        <time>2018-06-23T08:03:58.000Z</time>
      </trkpt>
      <trkpt lat="47.86085" lon="6.76969">
        <ele>656</ele>
        <time>2018-06-23T08:03:59.000Z</time>
      </trkpt>
      <trkpt lat="47.86084" lon="6.76969">
        <ele>656</ele>
        <time>2018-06-23T08:04:00.000Z</time>
      </trkpt>
      <trkpt lat="47.86083" lon="6.7697">
        <ele>663</ele>
        <time>2018-06-23T08:04:01.000Z</time>
      </trkpt>
      <trkpt lat="47.86082" lon="6.7697">
        <ele>663</ele>
        <time>2018-06-23T08:04:02.000Z</time>
      </trkpt>
      <trkpt lat="47.86081" lon="6.76971">
        <ele>663</ele>
        <time>2018-06-23T08:04:03.000Z</time>
      </trkpt>
      <trkpt lat="47.8608" lon="6.76971">
        <ele>663</ele>
        <time>2018-06-23T08:04:04.000Z</time>
      </trkpt>
      <trkpt lat="47.86079" lon="6.76972">
        <ele>663</ele>
        <time>2018-06-23T08:04:05.000Z</time>
      </trkpt>
      <trkpt lat="47.86078" lon="6.76973">
        <ele>663</ele>
        <time>2018-06-23T08:04:06.000Z</time>
      </trkpt>
      <trkpt lat="47.86077" lon="6.76975">
        <ele>663</ele>
        <time>2018-06-23T08:04:07.000Z</time>
      </trkpt>
      <trkpt lat="47.86076" lon="6.76976">
        <ele>663</ele>
        <time>2018-06-23T08:04:08.000Z</time>
      </trkpt>
      <trkpt lat="47.86076" lon="6.76977">
        <ele>663</ele>
        <time>2018-06-23T08:04:09.000Z</time>
      </trkpt>
      <trkpt lat="47.86075" lon="6.76978">
        <ele>663</ele>
        <time>2018-06-23T08:04:10.000Z</time>
      </trkpt>
      <trkpt lat="47.86075" lon="6.7698">
        <ele>663</ele>
        <time>2018-06-23T08:04:11.000Z</time>
      </trkpt>
      <trkpt lat="47.86075" lon="6.7698">
        <ele>663</ele>
        <time>2018-06-23T08:04:12.000Z</time>
      </trkpt>
      <trkpt lat="47.86074" lon="6.76983">
        <ele>663</ele>
        <time>2018-06-23T08:04:13.000Z</time>
      </trkpt>
      <trkpt lat="47.86073" lon="6.76984">
        <ele>662</ele>
        <time>2018-06-23T08:04:14.000Z</time>
      </trkpt>
      <trkpt lat="47.86073" lon="6.76985">
        <ele>662</ele>
        <time>2018-06-23T08:04:15.000Z</time>
      </trkpt>
      <trkpt lat="47.86073" lon="6.76985">
        <ele>662</ele>
        <time>2018-06-23T08:04:16.000Z</time>
      </trkpt>
      <trkpt lat="47.86073" lon="6.76988">
        <ele>662</ele>
        <time>2018-06-23T08:04:17.000Z</time>
      </trkpt>
      <trkpt lat="47.86073" lon="6.76988">
        <ele>662</ele>
        <time>2018-06-23T08:04:18.000Z</time>
      </trkpt>
      <trkpt lat="47.86072" lon="6.7699">
        <ele>662</ele>
        <time>2018-06-23T08:04:19.000Z</time>
      </trkpt>
      <trkpt lat="47.86072" lon="6.76991">
        <ele>662</ele>
        <time>2018-06-23T08:04:20.000Z</time>
      </trkpt>
      <trkpt lat="47.86072" lon="6.76993">
        <ele>661</ele>
        <time>2018-06-23T08:04:21.000Z</time>
      </trkpt>
      <trkpt lat="47.86071" lon="6.76995">
        <ele>661</ele>
        <time>2018-06-23T08:04:22.000Z</time>
      </trkpt>
      <trkpt lat="47.86071" lon="6.76998">
        <ele>661</ele>
        <time>2018-06-23T08:04:23.000Z</time>
      </trkpt>
      <trkpt lat="47.86071" lon="6.76998">
        <ele>661</ele>
        <time>2018-06-23T08:04:24.000Z</time>
      </trkpt>
      <trkpt lat="47.8607" lon="6.77001">
        <ele>662</ele>
        <time>2018-06-23T08:04:25.000Z</time>
      </trkpt>
      <trkpt lat="47.86069" lon="6.77003">
        <ele>662</ele>
        <time>2018-06-23T08:04:26.000Z</time>
      </trkpt>
      <trkpt lat="47.86068" lon="6.77005">
        <ele>663</ele>
        <time>2018-06-23T08:04:27.000Z</time>
      </trkpt>
      <trkpt lat="47.86067" lon="6.77006">
        <ele>663</ele>
        <time>2018-06-23T08:04:28.000Z</time>
      </trkpt>
      <trkpt lat="47.86066" lon="6.77008">
        <ele>664</ele>
        <time>2018-06-23T08:04:29.000Z</time>
      </trkpt>
      <trkpt lat="47.86065" lon="6.77009">
        <ele>664</ele>
        <time>2018-06-23T08:04:30.000Z</time>
      </trkpt>
      <trkpt lat="47.86065" lon="6.77011">
        <ele>664</ele>
        <time>2018-06-23T08:04:31.000Z</time>
      </trkpt>
      <trkpt lat="47.86064" lon="6.77012">
        <ele>664</ele>
        <time>2018-06-23T08:04:32.000Z</time>
      </trkpt>
      <trkpt lat="47.86064" lon="6.77012">
        <ele>664</ele>
        <time>2018-06-23T08:04:33.000Z</time>
      </trkpt>
      <trkpt lat="47.86062" lon="6.77015">
        <ele>665</ele>
        <time>2018-06-23T08:04:34.000Z</time>
      </trkpt>
      <trkpt lat="47.86061" lon="6.77016">
        <ele>665</ele>
        <time>2018-06-23T08:04:35.000Z</time>
      </trkpt>
      <trkpt lat="47.8606" lon="6.77017">
        <ele>666</ele>
        <time>2018-06-23T08:04:36.000Z</time>
      </trkpt>
      <trkpt lat="47.86058" lon="6.77018">
        <ele>666</ele>
        <time>2018-06-23T08:04:37.000Z</time>
      </trkpt>
      <trkpt lat="47.86057" lon="6.77018">
        <ele>666</ele>
        <time>2018-06-23T08:04:38.000Z</time>
      </trkpt>
      <trkpt lat="47.86056" lon="6.77019">
        <ele>666</ele>
        <time>2018-06-23T08:04:39.000Z</time>
      </trkpt>
      <trkpt lat="47.86055" lon="6.7702">
        <ele>666</ele>
        <time>2018-06-23T08:04:40.000Z</time>
      </trkpt>
      <trkpt lat="47.86055" lon="6.7702">
        <ele>666</ele>
        <time>2018-06-23T08:04:41.000Z</time>
      </trkpt>
      <trkpt lat="47.86053" lon="6.77021">
        <ele>667</ele>
        <time>2018-06-23T08:04:42.000Z</time>
      </trkpt>
      <trkpt lat="47.86051" lon="6.77022">
        <ele>667</ele>
        <time>2018-06-23T08:04:43.000Z</time>
      </trkpt>
      <trkpt lat="47.8605" lon="6.77023">
        <ele>667</ele>
        <time>2018-06-23T08:04:44.000Z</time>
      </trkpt>
      <trkpt lat="47.86049" lon="6.77024">
        <ele>668</ele>
        <time>2018-06-23T08:04:45.000Z</time>
      </trkpt>
      <trkpt lat="47.86049" lon="6.77024">
        <ele>668</ele>
        <time>2018-06-23T08:04:46.000Z</time>
      </trkpt>
      <trkpt lat="47.86047" lon="6.77025">
        <ele>668</ele>
        <time>2018-06-23T08:04:47.000Z</time>
      </trkpt>
      <trkpt lat="47.86046" lon="6.77026">
        <ele>668</ele>
        <time>2018-06-23T08:04:48.000Z</time>
      </trkpt>
      <trkpt lat="47.86046" lon="6.77026">
        <ele>668</ele>
        <time>2018-06-23T08:04:49.000Z</time>
      </trkpt>
      <trkpt lat="47.86044" lon="6.77029">
        <ele>668</ele>
        <time>2018-06-23T08:04:50.000Z</time>
      </trkpt>
      <trkpt lat="47.86044" lon="6.7703">
        <ele>669</ele>
        <time>2018-06-23T08:04:51.000Z</time>
      </trkpt>
      <trkpt lat="47.86043" lon="6.77031">
        <ele>669</ele>
        <time>2018-06-23T08:04:52.000Z</time>
      </trkpt>
      <trkpt lat="47.86043" lon="6.77031">
        <ele>669</ele>
        <time>2018-06-23T08:04:53.000Z</time>
      </trkpt>
      <trkpt lat="47.86042" lon="6.77034">
        <ele>669</ele>
        <time>2018-06-23T08:04:54.000Z</time>
      </trkpt>
      <trkpt lat="47.86042" lon="6.77035">
        <ele>669</ele>
        <time>2018-06-23T08:04:55.000Z</time>
      </trkpt>
      <trkpt lat="47.86041" lon="6.77036">
        <ele>669</ele>
        <time>2018-06-23T08:04:56.000Z</time>
      </trkpt>
      <trkpt lat="47.86041" lon="6.77038">
        <ele>669</ele>
        <time>2018-06-23T08:04:57.000Z</time>
      </trkpt>
      <trkpt lat="47.86041" lon="6.77039">
        <ele>669</ele>
        <time>2018-06-23T08:04:58.000Z</time>
      </trkpt>
      <trkpt lat="47.8604" lon="6.7704">
        <ele>669</ele>
        <time>2018-06-23T08:04:59.000Z</time>
      </trkpt>
      <trkpt lat="47.8604" lon="6.77042">
        <ele>670</ele>
        <time>2018-06-23T08:05:00.000Z</time>
      </trkpt>
      <trkpt lat="47.86039" lon="6.77044">
        <ele>670</ele>
        <time>2018-06-23T08:05:01.000Z</time>
      </trkpt>
      <trkpt lat="47.86039" lon="6.77046">
        <ele>670</ele>
        <time>2018-06-23T08:05:02.000Z</time>
      </trkpt>
      <trkpt lat="47.86039" lon="6.77046">
        <ele>670</ele>
        <time>2018-06-23T08:05:03.000Z</time>
      </trkpt>
      <trkpt lat="47.86039" lon="6.7705">
        <ele>670</ele>
        <time>2018-06-23T08:05:04.000Z</time>
      </trkpt>
      <trkpt lat="47.86038" lon="6.77052">
        <ele>670</ele>
        <time>2018-06-23T08:05:05.000Z</time>
      </trkpt>
      <trkpt lat="47.86038" lon="6.77052">
        <ele>670</ele>
        <time>2018-06-23T08:05:06.000Z</time>
      </trkpt>
      <trkpt lat="47.86038" lon="6.77057">
        <ele>670</ele>
        <time>2018-06-23T08:05:07.000Z</time>
      </trkpt>
      <trkpt lat="47.86038" lon="6.77057">
        <ele>670</ele>
        <time>2018-06-23T08:05:08.000Z</time>
      </trkpt>
      <trkpt lat="47.86037" lon="6.77061">
        <ele>671</ele>
        <time>2018-06-23T08:05:09.000Z</time>
      </trkpt>
      <trkpt lat="47.86037" lon="6.77061">
        <ele>671</ele>
        <time>2018-06-23T08:05:10.000Z</time>
      </trkpt>
      <trkpt lat="47.86037" lon="6.77065">
        <ele>671</ele>
        <time>2018-06-23T08:05:11.000Z</time>
      </trkpt>
      <trkpt lat="47.86037" lon="6.77065">
        <ele>671</ele>
        <time>2018-06-23T08:05:12.000Z</time>
      </trkpt>
      <trkpt lat="47.86037" lon="6.77067">
        <ele>671</ele>
        <time>2018-06-23T08:05:13.000Z</time>
      </trkpt>
      <trkpt lat="47.86036" lon="6.77071">
        <ele>671</ele>
        <time>2018-06-23T08:05:14.000Z</time>
      </trkpt>
      <trkpt lat="47.86036" lon="6.77071">
        <ele>671</ele>
        <time>2018-06-23T08:05:15.000Z</time>
      </trkpt>
      <trkpt lat="47.86037" lon="6.77075">
        <ele>671</ele>
        <time>2018-06-23T08:05:16.000Z</time>
      </trkpt>
      <trkpt lat="47.86037" lon="6.77076">
        <ele>671</ele>
        <time>2018-06-23T08:05:17.000Z</time>
      </trkpt>
      <trkpt lat="47.86036" lon="6.77077">
        <ele>671</ele>
        <time>2018-06-23T08:05:18.000Z</time>
      </trkpt>
      <trkpt lat="47.86036" lon="6.77079">
        <ele>671</ele>
        <time>2018-06-23T08:05:19.000Z</time>
      </trkpt>
      <trkpt lat="47.86036" lon="6.7708">
        <ele>672</ele>
        <time>2018-06-23T08:05:20.000Z</time>
      </trkpt>
      <trkpt lat="47.86036" lon="6.77081">
        <ele>672</ele>
        <time>2018-06-23T08:05:21.000Z</time>
      </trkpt>
      <trkpt lat="47.86036" lon="6.77082">
        <ele>672</ele>
        <time>2018-06-23T08:05:22.000Z</time>
      </trkpt>
      <trkpt lat="47.86036" lon="6.77084">
        <ele>676</ele>
        <time>2018-06-23T08:05:23.000Z</time>
      </trkpt>
      <trkpt lat="47.86036" lon="6.77084">
        <ele>676</ele>
        <time>2018-06-23T08:05:24.000Z</time>
      </trkpt>
      <trkpt lat="47.86036" lon="6.77087">
        <ele>676</ele>
        <time>2018-06-23T08:05:25.000Z</time>
      </trkpt>
      <trkpt lat="47.86036" lon="6.77088">
        <ele>676</ele>
        <time>2018-06-23T08:05:26.000Z</time>
      </trkpt>
      <trkpt lat="47.86036" lon="6.7709">
        <ele>676</ele>
        <time>2018-06-23T08:05:27.000Z</time>
      </trkpt>
      <trkpt lat="47.86035" lon="6.77091">
        <ele>676</ele>
        <time>2018-06-23T08:05:28.000Z</time>
      </trkpt>
      <trkpt lat="47.86035" lon="6.77092">
        <ele>676</ele>
        <time>2018-06-23T08:05:29.000Z</time>
      </trkpt>
      <trkpt lat="47.86034" lon="6.77094">
        <ele>676</ele>
        <time>2018-06-23T08:05:30.000Z</time>
      </trkpt>
      <trkpt lat="47.86034" lon="6.77095">
        <ele>676</ele>
        <time>2018-06-23T08:05:31.000Z</time>
      </trkpt>
      <trkpt lat="47.86034" lon="6.77095">
        <ele>676</ele>
        <time>2018-06-23T08:05:32.000Z</time>
      </trkpt>
      <trkpt lat="47.86034" lon="6.77098">
        <ele>676</ele>
        <time>2018-06-23T08:05:33.000Z</time>
      </trkpt>
      <trkpt lat="47.86034" lon="6.77099">
        <ele>676</ele>
        <time>2018-06-23T08:05:34.000Z</time>
      </trkpt>
      <trkpt lat="47.86034" lon="6.77101">
        <ele>676</ele>
        <time>2018-06-23T08:05:35.000Z</time>
      </trkpt>
      <trkpt lat="47.86035" lon="6.77102">
        <ele>676</ele>
        <time>2018-06-23T08:05:36.000Z</time>
      </trkpt>
      <trkpt lat="47.86035" lon="6.77103">
        <ele>676</ele>
        <time>2018-06-23T08:05:37.000Z</time>
      </trkpt>
      <trkpt lat="47.86035" lon="6.77105">
        <ele>676</ele>
        <time>2018-06-23T08:05:38.000Z</time>
      </trkpt>
      <trkpt lat="47.86035" lon="6.77105">
        <ele>676</ele>
        <time>2018-06-23T08:05:39.000Z</time>
      </trkpt>
      <trkpt lat="47.86035" lon="6.77106">
        <ele>676</ele>
        <time>2018-06-23T08:05:40.000Z</time>
      </trkpt>
      <trkpt lat="47.86035" lon="6.77109">
        <ele>676</ele>
        <time>2018-06-23T08:05:41.000Z</time>
      </trkpt>
      <trkpt lat="47.86036" lon="6.7711">
        <ele>676</ele>
        <time>2018-06-23T08:05:42.000Z</time>
      </trkpt>
      <trkpt lat="47.86036" lon="6.77112">
        <ele>676</ele>
        <time>2018-06-23T08:05:43.000Z</time>
      </trkpt>
      <trkpt lat="47.86037" lon="6.77113">
        <ele>676</ele>
        <time>2018-06-23T08:05:44.000Z</time>
      </trkpt>
      <trkpt lat="47.86037" lon="6.77115">
        <ele>676</ele>
        <time>2018-06-23T08:05:45.000Z</time>
      </trkpt>
      <trkpt lat="47.86038" lon="6.77116">
        <ele>676</ele>
        <time>2018-06-23T08:05:46.000Z</time>
      </trkpt>
      <trkpt lat="47.86038" lon="6.77117">
        <ele>676</ele>
        <time>2018-06-23T08:05:47.000Z</time>
      </trkpt>
      <trkpt lat="47.86038" lon="6.77117">
        <ele>676</ele>
        <time>2018-06-23T08:05:48.000Z</time>
      </trkpt>
      <trkpt lat="47.86039" lon="6.77119">
        <ele>676</ele>
        <time>2018-06-23T08:05:49.000Z</time>
      </trkpt>
      <trkpt lat="47.86039" lon="6.77121">
        <ele>676</ele>
        <time>2018-06-23T08:05:50.000Z</time>
      </trkpt>
      <trkpt lat="47.86039" lon="6.77122">
        <ele>676</ele>
        <time>2018-06-23T08:05:51.000Z</time>
      </trkpt>
      <trkpt lat="47.86039" lon="6.77123">
        <ele>676</ele>
        <time>2018-06-23T08:05:52.000Z</time>
      </trkpt>
      <trkpt lat="47.86039" lon="6.77123">
        <ele>676</ele>
        <time>2018-06-23T08:05:53.000Z</time>
      </trkpt>
      <trkpt lat="47.86039" lon="6.77126">
        <ele>676</ele>
        <time>2018-06-23T08:05:54.000Z</time>
      </trkpt>
      <trkpt lat="47.86039" lon="6.77126">
        <ele>676</ele>
        <time>2018-06-23T08:05:55.000Z</time>
      </trkpt>
      <trkpt lat="47.8604" lon="6.77129">
        <ele>676</ele>
        <time>2018-06-23T08:05:56.000Z</time>
      </trkpt>
      <trkpt lat="47.8604" lon="6.77129">
        <ele>676</ele>
        <time>2018-06-23T08:05:57.000Z</time>
      </trkpt>
      <trkpt lat="47.8604" lon="6.77131">
        <ele>676</ele>
        <time>2018-06-23T08:05:58.000Z</time>
      </trkpt>
      <trkpt lat="47.8604" lon="6.77131">
        <ele>676</ele>
        <time>2018-06-23T08:05:59.000Z</time>
      </trkpt>
      <trkpt lat="47.8604" lon="6.77133">
        <ele>676</ele>
        <time>2018-06-23T08:06:00.000Z</time>
      </trkpt>
      <trkpt lat="47.8604" lon="6.77136">
        <ele>676</ele>
        <time>2018-06-23T08:06:01.000Z</time>
      </trkpt>
      <trkpt lat="47.8604" lon="6.77136">
        <ele>676</ele>
        <time>2018-06-23T08:06:02.000Z</time>
      </trkpt>
      <trkpt lat="47.86041" lon="6.77138">
        <ele>677</ele>
        <time>2018-06-23T08:06:03.000Z</time>
      </trkpt>
      <trkpt lat="47.86041" lon="6.77138">
        <ele>677</ele>
        <time>2018-06-23T08:06:04.000Z</time>
      </trkpt>
      <trkpt lat="47.86041" lon="6.7714">
        <ele>677</ele>
        <time>2018-06-23T08:06:05.000Z</time>
      </trkpt>
      <trkpt lat="47.86041" lon="6.77141">
        <ele>677</ele>
        <time>2018-06-23T08:06:06.000Z</time>
      </trkpt>
      <trkpt lat="47.86041" lon="6.77145">
        <ele>677</ele>
        <time>2018-06-23T08:06:07.000Z</time>
      </trkpt>
      <trkpt lat="47.86041" lon="6.77146">
        <ele>677</ele>
        <time>2018-06-23T08:06:08.000Z</time>
      </trkpt>
      <trkpt lat="47.86041" lon="6.77148">
        <ele>677</ele>
        <time>2018-06-23T08:06:09.000Z</time>
      </trkpt>
      <trkpt lat="47.86041" lon="6.7715">
        <ele>677</ele>
        <time>2018-06-23T08:06:10.000Z</time>
      </trkpt>
      <trkpt lat="47.86041" lon="6.77152">
        <ele>677</ele>
        <time>2018-06-23T08:06:11.000Z</time>
      </trkpt>
      <trkpt lat="47.86041" lon="6.77153">
        <ele>677</ele>
        <time>2018-06-23T08:06:12.000Z</time>
      </trkpt>
      <trkpt lat="47.86041" lon="6.77155">
        <ele>677</ele>
        <time>2018-06-23T08:06:13.000Z</time>
      </trkpt>
      <trkpt lat="47.86041" lon="6.77157">
        <ele>677</ele>
        <time>2018-06-23T08:06:14.000Z</time>
      </trkpt>
      <trkpt lat="47.86041" lon="6.77157">
        <ele>677</ele>
        <time>2018-06-23T08:06:15.000Z</time>
      </trkpt>
      <trkpt lat="47.86041" lon="6.77161">
        <ele>677</ele>
        <time>2018-06-23T08:06:16.000Z</time>
      </trkpt>
      <trkpt lat="47.86041" lon="6.77163">
        <ele>677</ele>
        <time>2018-06-23T08:06:17.000Z</time>
      </trkpt>
      <trkpt lat="47.86041" lon="6.77165">
        <ele>677</ele>
        <time>2018-06-23T08:06:18.000Z</time>
      </trkpt>
      <trkpt lat="47.8604" lon="6.77167">
        <ele>683</ele>
        <time>2018-06-23T08:06:19.000Z</time>
      </trkpt>
      <trkpt lat="47.8604" lon="6.77168">
        <ele>683</ele>
        <time>2018-06-23T08:06:20.000Z</time>
      </trkpt>
      <trkpt lat="47.8604" lon="6.7717">
        <ele>683</ele>
        <time>2018-06-23T08:06:21.000Z</time>
      </trkpt>
      <trkpt lat="47.8604" lon="6.77172">
        <ele>683</ele>
        <time>2018-06-23T08:06:22.000Z</time>
      </trkpt>
      <trkpt lat="47.8604" lon="6.77172">
        <ele>683</ele>
        <time>2018-06-23T08:06:23.000Z</time>
      </trkpt>
      <trkpt lat="47.86039" lon="6.77175">
        <ele>683</ele>
        <time>2018-06-23T08:06:24.000Z</time>
      </trkpt>
      <trkpt lat="47.8604" lon="6.77177">
        <ele>683</ele>
        <time>2018-06-23T08:06:25.000Z</time>
      </trkpt>
      <trkpt lat="47.86039" lon="6.77178">
        <ele>683</ele>
        <time>2018-06-23T08:06:26.000Z</time>
      </trkpt>
      <trkpt lat="47.86039" lon="6.7718">
        <ele>684</ele>
        <time>2018-06-23T08:06:27.000Z</time>
      </trkpt>
      <trkpt lat="47.86039" lon="6.77182">
        <ele>684</ele>
        <time>2018-06-23T08:06:28.000Z</time>
      </trkpt>
      <trkpt lat="47.86039" lon="6.77182">
        <ele>684</ele>
        <time>2018-06-23T08:06:29.000Z</time>
      </trkpt>
      <trkpt lat="47.86039" lon="6.77184">
        <ele>684</ele>
        <time>2018-06-23T08:06:30.000Z</time>
      </trkpt>
      <trkpt lat="47.86039" lon="6.77184">
        <ele>684</ele>
        <time>2018-06-23T08:06:31.000Z</time>
      </trkpt>
      <trkpt lat="47.86039" lon="6.77188">
        <ele>684</ele>
        <time>2018-06-23T08:06:32.000Z</time>
      </trkpt>
      <trkpt lat="47.86039" lon="6.7719">
        <ele>684</ele>
        <time>2018-06-23T08:06:33.000Z</time>
      </trkpt>
      <trkpt lat="47.86039" lon="6.77191">
        <ele>684</ele>
        <time>2018-06-23T08:06:34.000Z</time>
      </trkpt>
      <trkpt lat="47.86039" lon="6.77192">
        <ele>684</ele>
        <time>2018-06-23T08:06:35.000Z</time>
      </trkpt>
      <trkpt lat="47.86039" lon="6.77194">
        <ele>684</ele>
        <time>2018-06-23T08:06:36.000Z</time>
      </trkpt>
      <trkpt lat="47.86039" lon="6.77196">
        <ele>684</ele>
        <time>2018-06-23T08:06:37.000Z</time>
      </trkpt>
      <trkpt lat="47.86039" lon="6.77197">
        <ele>684</ele>
        <time>2018-06-23T08:06:38.000Z</time>
      </trkpt>
      <trkpt lat="47.86039" lon="6.77199">
        <ele>684</ele>
        <time>2018-06-23T08:06:39.000Z</time>
      </trkpt>
      <trkpt lat="47.86039" lon="6.77199">
        <ele>684</ele>
        <time>2018-06-23T08:06:40.000Z</time>
      </trkpt>
      <trkpt lat="47.86039" lon="6.77203">
        <ele>684</ele>
        <time>2018-06-23T08:06:41.000Z</time>
      </trkpt>
      <trkpt lat="47.86039" lon="6.77204">
        <ele>685</ele>
        <time>2018-06-23T08:06:42.000Z</time>
      </trkpt>
      <trkpt lat="47.86039" lon="6.77204">
        <ele>685</ele>
        <time>2018-06-23T08:06:43.000Z</time>
      </trkpt>
      <trkpt lat="47.86039" lon="6.77207">
        <ele>685</ele>
        <time>2018-06-23T08:06:44.000Z</time>
      </trkpt>
      <trkpt lat="47.86039" lon="6.77209">
        <ele>685</ele>
        <time>2018-06-23T08:06:45.000Z</time>
      </trkpt>
      <trkpt lat="47.86039" lon="6.7721">
        <ele>685</ele>
        <time>2018-06-23T08:06:46.000Z</time>
      </trkpt>
      <trkpt lat="47.86039" lon="6.7721">
        <ele>685</ele>
        <time>2018-06-23T08:06:47.000Z</time>
      </trkpt>
      <trkpt lat="47.86039" lon="6.77213">
        <ele>685</ele>
        <time>2018-06-23T08:06:48.000Z</time>
      </trkpt>
      <trkpt lat="47.86039" lon="6.77213">
        <ele>685</ele>
        <time>2018-06-23T08:06:49.000Z</time>
      </trkpt>
      <trkpt lat="47.8604" lon="6.77214">
        <ele>685</ele>
        <time>2018-06-23T08:06:50.000Z</time>
      </trkpt>
      <trkpt lat="47.8604" lon="6.77217">
        <ele>685</ele>
        <time>2018-06-23T08:06:51.000Z</time>
      </trkpt>
      <trkpt lat="47.8604" lon="6.77217">
        <ele>685</ele>
        <time>2018-06-23T08:06:52.000Z</time>
      </trkpt>
      <trkpt lat="47.8604" lon="6.77221">
        <ele>685</ele>
        <time>2018-06-23T08:06:53.000Z</time>
      </trkpt>
      <trkpt lat="47.8604" lon="6.77221">
        <ele>685</ele>
        <time>2018-06-23T08:06:54.000Z</time>
      </trkpt>
      <trkpt lat="47.8604" lon="6.77223">
        <ele>685</ele>
        <time>2018-06-23T08:06:55.000Z</time>
      </trkpt>
      <trkpt lat="47.8604" lon="6.77223">
        <ele>685</ele>
        <time>2018-06-23T08:06:56.000Z</time>
      </trkpt>
      <trkpt lat="47.8604" lon="6.77227">
        <ele>686</ele>
        <time>2018-06-23T08:06:57.000Z</time>
      </trkpt>
      <trkpt lat="47.8604" lon="6.77228">
        <ele>686</ele>
        <time>2018-06-23T08:06:58.000Z</time>
      </trkpt>
      <trkpt lat="47.8604" lon="6.77229">
        <ele>686</ele>
        <time>2018-06-23T08:06:59.000Z</time>
      </trkpt>
      <trkpt lat="47.8604" lon="6.77231">
        <ele>686</ele>
        <time>2018-06-23T08:07:00.000Z</time>
      </trkpt>
      <trkpt lat="47.8604" lon="6.77231">
        <ele>686</ele>
        <time>2018-06-23T08:07:01.000Z</time>
      </trkpt>
      <trkpt lat="47.8604" lon="6.77234">
        <ele>686</ele>
        <time>2018-06-23T08:07:02.000Z</time>
      </trkpt>
      <trkpt lat="47.8604" lon="6.77236">
        <ele>686</ele>
        <time>2018-06-23T08:07:03.000Z</time>
      </trkpt>
      <trkpt lat="47.86041" lon="6.77237">
        <ele>686</ele>
        <time>2018-06-23T08:07:04.000Z</time>
      </trkpt>
      <trkpt lat="47.86041" lon="6.77237">
        <ele>686</ele>
        <time>2018-06-23T08:07:05.000Z</time>
      </trkpt>
      <trkpt lat="47.86041" lon="6.77241">
        <ele>686</ele>
        <time>2018-06-23T08:07:06.000Z</time>
      </trkpt>
      <trkpt lat="47.86041" lon="6.77242">
        <ele>686</ele>
        <time>2018-06-23T08:07:07.000Z</time>
      </trkpt>
      <trkpt lat="47.86041" lon="6.77243">
        <ele>686</ele>
        <time>2018-06-23T08:07:08.000Z</time>
      </trkpt>
      <trkpt lat="47.86041" lon="6.77245">
        <ele>686</ele>
        <time>2018-06-23T08:07:09.000Z</time>
      </trkpt>
      <trkpt lat="47.86041" lon="6.77245">
        <ele>686</ele>
        <time>2018-06-23T08:07:10.000Z</time>
      </trkpt>
      <trkpt lat="47.86041" lon="6.77248">
        <ele>686</ele>
        <time>2018-06-23T08:07:11.000Z</time>
      </trkpt>
      <trkpt lat="47.86041" lon="6.77249">
        <ele>686</ele>
        <time>2018-06-23T08:07:12.000Z</time>
      </trkpt>
      <trkpt lat="47.86041" lon="6.7725">
        <ele>686</ele>
        <time>2018-06-23T08:07:13.000Z</time>
      </trkpt>
      <trkpt lat="47.86041" lon="6.7725">
        <ele>686</ele>
        <time>2018-06-23T08:07:14.000Z</time>
      </trkpt>
      <trkpt lat="47.86041" lon="6.77252">
        <ele>691</ele>
        <time>2018-06-23T08:07:15.000Z</time>
      </trkpt>
      <trkpt lat="47.86041" lon="6.77252">
        <ele>691</ele>
        <time>2018-06-23T08:07:16.000Z</time>
      </trkpt>
      <trkpt lat="47.86041" lon="6.77255">
        <ele>692</ele>
        <time>2018-06-23T08:07:17.000Z</time>
      </trkpt>
      <trkpt lat="47.86041" lon="6.77256">
        <ele>692</ele>
        <time>2018-06-23T08:07:18.000Z</time>
      </trkpt>
      <trkpt lat="47.86042" lon="6.77258">
        <ele>691</ele>
        <time>2018-06-23T08:07:19.000Z</time>
      </trkpt>
      <trkpt lat="47.86042" lon="6.77258">
        <ele>691</ele>
        <time>2018-06-23T08:07:20.000Z</time>
      </trkpt>
      <trkpt lat="47.86042" lon="6.77261">
        <ele>692</ele>
        <time>2018-06-23T08:07:21.000Z</time>
      </trkpt>
      <trkpt lat="47.86042" lon="6.77262">
        <ele>692</ele>
        <time>2018-06-23T08:07:22.000Z</time>
      </trkpt>
      <trkpt lat="47.86042" lon="6.77264">
        <ele>692</ele>
        <time>2018-06-23T08:07:23.000Z</time>
      </trkpt>
      <trkpt lat="47.86041" lon="6.77265">
        <ele>692</ele>
        <time>2018-06-23T08:07:24.000Z</time>
      </trkpt>
      <trkpt lat="47.86041" lon="6.77266">
        <ele>692</ele>
        <time>2018-06-23T08:07:25.000Z</time>
      </trkpt>
      <trkpt lat="47.86041" lon="6.77268">
        <ele>692</ele>
        <time>2018-06-23T08:07:26.000Z</time>
      </trkpt>
      <trkpt lat="47.8604" lon="6.77269">
        <ele>692</ele>
        <time>2018-06-23T08:07:27.000Z</time>
      </trkpt>
      <trkpt lat="47.8604" lon="6.7727">
        <ele>692</ele>
        <time>2018-06-23T08:07:28.000Z</time>
      </trkpt>
      <trkpt lat="47.86039" lon="6.77272">
        <ele>692</ele>
        <time>2018-06-23T08:07:29.000Z</time>
      </trkpt>
      <trkpt lat="47.86039" lon="6.77272">
        <ele>692</ele>
        <time>2018-06-23T08:07:30.000Z</time>
      </trkpt>
      <trkpt lat="47.86039" lon="6.77275">
        <ele>693</ele>
        <time>2018-06-23T08:07:31.000Z</time>
      </trkpt>
      <trkpt lat="47.86038" lon="6.77276">
        <ele>693</ele>
        <time>2018-06-23T08:07:32.000Z</time>
      </trkpt>
      <trkpt lat="47.86038" lon="6.77277">
        <ele>693</ele>
        <time>2018-06-23T08:07:33.000Z</time>
      </trkpt>
      <trkpt lat="47.86038" lon="6.77277">
        <ele>693</ele>
        <time>2018-06-23T08:07:34.000Z</time>
      </trkpt>
      <trkpt lat="47.86037" lon="6.7728">
        <ele>693</ele>
        <time>2018-06-23T08:07:35.000Z</time>
      </trkpt>
      <trkpt lat="47.86037" lon="6.77281">
        <ele>693</ele>
        <time>2018-06-23T08:07:36.000Z</time>
      </trkpt>
      <trkpt lat="47.86037" lon="6.77281">
        <ele>693</ele>
        <time>2018-06-23T08:07:37.000Z</time>
      </trkpt>
      <trkpt lat="47.86037" lon="6.77284">
        <ele>693</ele>
        <time>2018-06-23T08:07:38.000Z</time>
      </trkpt>
      <trkpt lat="47.86037" lon="6.77284">
        <ele>693</ele>
        <time>2018-06-23T08:07:39.000Z</time>
      </trkpt>
      <trkpt lat="47.86036" lon="6.77285">
        <ele>694</ele>
        <time>2018-06-23T08:07:40.000Z</time>
      </trkpt>
      <trkpt lat="47.86036" lon="6.77286">
        <ele>694</ele>
        <time>2018-06-23T08:07:41.000Z</time>
      </trkpt>
      <trkpt lat="47.86036" lon="6.77287">
        <ele>694</ele>
        <time>2018-06-23T08:07:42.000Z</time>
      </trkpt>
      <trkpt lat="47.86035" lon="6.7729">
        <ele>694</ele>
        <time>2018-06-23T08:07:43.000Z</time>
      </trkpt>
      <trkpt lat="47.86035" lon="6.7729">
        <ele>694</ele>
        <time>2018-06-23T08:07:44.000Z</time>
      </trkpt>
      <trkpt lat="47.86034" lon="6.77293">
        <ele>694</ele>
        <time>2018-06-23T08:07:45.000Z</time>
      </trkpt>
      <trkpt lat="47.86034" lon="6.77295">
        <ele>694</ele>
        <time>2018-06-23T08:07:46.000Z</time>
      </trkpt>
      <trkpt lat="47.86034" lon="6.77295">
        <ele>694</ele>
        <time>2018-06-23T08:07:47.000Z</time>
      </trkpt>
      <trkpt lat="47.86033" lon="6.77298">
        <ele>695</ele>
        <time>2018-06-23T08:07:48.000Z</time>
      </trkpt>
      <trkpt lat="47.86033" lon="6.773">
        <ele>695</ele>
        <time>2018-06-23T08:07:49.000Z</time>
      </trkpt>
      <trkpt lat="47.86033" lon="6.77301">
        <ele>695</ele>
        <time>2018-06-23T08:07:50.000Z</time>
      </trkpt>
      <trkpt lat="47.86033" lon="6.77301">
        <ele>695</ele>
        <time>2018-06-23T08:07:51.000Z</time>
      </trkpt>
      <trkpt lat="47.86033" lon="6.77302">
        <ele>695</ele>
        <time>2018-06-23T08:07:52.000Z</time>
      </trkpt>
      <trkpt lat="47.86032" lon="6.77304">
        <ele>695</ele>
        <time>2018-06-23T08:07:53.000Z</time>
      </trkpt>
      <trkpt lat="47.86032" lon="6.77305">
        <ele>695</ele>
        <time>2018-06-23T08:07:54.000Z</time>
      </trkpt>
      <trkpt lat="47.86031" lon="6.77307">
        <ele>696</ele>
        <time>2018-06-23T08:07:55.000Z</time>
      </trkpt>
      <trkpt lat="47.86031" lon="6.77308">
        <ele>696</ele>
        <time>2018-06-23T08:07:56.000Z</time>
      </trkpt>
      <trkpt lat="47.86031" lon="6.77308">
        <ele>696</ele>
        <time>2018-06-23T08:07:57.000Z</time>
      </trkpt>
      <trkpt lat="47.8603" lon="6.77311">
        <ele>696</ele>
        <time>2018-06-23T08:07:58.000Z</time>
      </trkpt>
      <trkpt lat="47.8603" lon="6.77312">
        <ele>696</ele>
        <time>2018-06-23T08:07:59.000Z</time>
      </trkpt>
      <trkpt lat="47.8603" lon="6.77312">
        <ele>696</ele>
        <time>2018-06-23T08:08:00.000Z</time>
      </trkpt>
      <trkpt lat="47.86029" lon="6.77316">
        <ele>697</ele>
        <time>2018-06-23T08:08:01.000Z</time>
      </trkpt>
      <trkpt lat="47.86029" lon="6.77317">
        <ele>697</ele>
        <time>2018-06-23T08:08:02.000Z</time>
      </trkpt>
      <trkpt lat="47.86029" lon="6.77319">
        <ele>697</ele>
        <time>2018-06-23T08:08:03.000Z</time>
      </trkpt>
      <trkpt lat="47.86028" lon="6.7732">
        <ele>698</ele>
        <time>2018-06-23T08:08:04.000Z</time>
      </trkpt>
      <trkpt lat="47.86028" lon="6.7732">
        <ele>698</ele>
        <time>2018-06-23T08:08:05.000Z</time>
      </trkpt>
      <trkpt lat="47.86027" lon="6.77322">
        <ele>698</ele>
        <time>2018-06-23T08:08:06.000Z</time>
      </trkpt>
      <trkpt lat="47.86027" lon="6.77323">
        <ele>698</ele>
        <time>2018-06-23T08:08:07.000Z</time>
      </trkpt>
      <trkpt lat="47.86026" lon="6.77324">
        <ele>699</ele>
        <time>2018-06-23T08:08:08.000Z</time>
      </trkpt>
      <trkpt lat="47.86026" lon="6.77325">
        <ele>699</ele>
        <time>2018-06-23T08:08:09.000Z</time>
      </trkpt>
      <trkpt lat="47.86026" lon="6.77327">
        <ele>699</ele>
        <time>2018-06-23T08:08:10.000Z</time>
      </trkpt>
      <trkpt lat="47.86026" lon="6.77327">
        <ele>699</ele>
        <time>2018-06-23T08:08:11.000Z</time>
      </trkpt>
      <trkpt lat="47.86025" lon="6.77329">
        <ele>699</ele>
        <time>2018-06-23T08:08:12.000Z</time>
      </trkpt>
      <trkpt lat="47.86025" lon="6.77331">
        <ele>700</ele>
        <time>2018-06-23T08:08:13.000Z</time>
      </trkpt>
      <trkpt lat="47.86025" lon="6.77331">
        <ele>700</ele>
        <time>2018-06-23T08:08:14.000Z</time>
      </trkpt>
      <trkpt lat="47.86024" lon="6.77334">
        <ele>703</ele>
        <time>2018-06-23T08:08:15.000Z</time>
      </trkpt>
      <trkpt lat="47.86024" lon="6.77336">
        <ele>703</ele>
        <time>2018-06-23T08:08:16.000Z</time>
      </trkpt>
      <trkpt lat="47.86024" lon="6.77337">
        <ele>703</ele>
        <time>2018-06-23T08:08:17.000Z</time>
      </trkpt>
      <trkpt lat="47.86024" lon="6.77339">
        <ele>703</ele>
        <time>2018-06-23T08:08:18.000Z</time>
      </trkpt>
      <trkpt lat="47.86024" lon="6.7734">
        <ele>703</ele>
        <time>2018-06-23T08:08:19.000Z</time>
      </trkpt>
      <trkpt lat="47.86023" lon="6.77341">
        <ele>703</ele>
        <time>2018-06-23T08:08:20.000Z</time>
      </trkpt>
      <trkpt lat="47.86023" lon="6.77343">
        <ele>703</ele>
        <time>2018-06-23T08:08:21.000Z</time>
      </trkpt>
      <trkpt lat="47.86023" lon="6.77343">
        <ele>703</ele>
        <time>2018-06-23T08:08:22.000Z</time>
      </trkpt>
      <trkpt lat="47.86022" lon="6.77346">
        <ele>703</ele>
        <time>2018-06-23T08:08:23.000Z</time>
      </trkpt>
      <trkpt lat="47.86022" lon="6.77346">
        <ele>703</ele>
        <time>2018-06-23T08:08:24.000Z</time>
      </trkpt>
      <trkpt lat="47.86022" lon="6.77349">
        <ele>703</ele>
        <time>2018-06-23T08:08:25.000Z</time>
      </trkpt>
      <trkpt lat="47.86022" lon="6.77349">
        <ele>703</ele>
        <time>2018-06-23T08:08:26.000Z</time>
      </trkpt>
      <trkpt lat="47.86022" lon="6.77352">
        <ele>703</ele>
        <time>2018-06-23T08:08:27.000Z</time>
      </trkpt>
      <trkpt lat="47.86022" lon="6.77352">
        <ele>703</ele>
        <time>2018-06-23T08:08:28.000Z</time>
      </trkpt>
      <trkpt lat="47.86022" lon="6.77355">
        <ele>703</ele>
        <time>2018-06-23T08:08:29.000Z</time>
      </trkpt>
      <trkpt lat="47.86022" lon="6.77355">
        <ele>703</ele>
        <time>2018-06-23T08:08:30.000Z</time>
      </trkpt>
      <trkpt lat="47.86022" lon="6.77358">
        <ele>703</ele>
        <time>2018-06-23T08:08:31.000Z</time>
      </trkpt>
      <trkpt lat="47.86022" lon="6.77358">
        <ele>703</ele>
        <time>2018-06-23T08:08:32.000Z</time>
      </trkpt>
      <trkpt lat="47.86023" lon="6.7736">
        <ele>702</ele>
        <time>2018-06-23T08:08:33.000Z</time>
      </trkpt>
      <trkpt lat="47.86023" lon="6.77361">
        <ele>702</ele>
        <time>2018-06-23T08:08:34.000Z</time>
      </trkpt>
      <trkpt lat="47.86023" lon="6.77362">
        <ele>702</ele>
        <time>2018-06-23T08:08:35.000Z</time>
      </trkpt>
      <trkpt lat="47.86024" lon="6.77365">
        <ele>702</ele>
        <time>2018-06-23T08:08:36.000Z</time>
      </trkpt>
      <trkpt lat="47.86024" lon="6.77366">
        <ele>702</ele>
        <time>2018-06-23T08:08:37.000Z</time>
      </trkpt>
      <trkpt lat="47.86024" lon="6.77366">
        <ele>702</ele>
        <time>2018-06-23T08:08:38.000Z</time>
      </trkpt>
      <trkpt lat="47.86024" lon="6.77369">
        <ele>702</ele>
        <time>2018-06-23T08:08:39.000Z</time>
      </trkpt>
      <trkpt lat="47.86025" lon="6.7737">
        <ele>702</ele>
        <time>2018-06-23T08:08:40.000Z</time>
      </trkpt>
      <trkpt lat="47.86025" lon="6.77371">
        <ele>702</ele>
        <time>2018-06-23T08:08:41.000Z</time>
      </trkpt>
      <trkpt lat="47.86025" lon="6.77373">
        <ele>702</ele>
        <time>2018-06-23T08:08:42.000Z</time>
      </trkpt>
      <trkpt lat="47.86025" lon="6.77374">
        <ele>702</ele>
        <time>2018-06-23T08:08:43.000Z</time>
      </trkpt>
      <trkpt lat="47.86026" lon="6.77376">
        <ele>702</ele>
        <time>2018-06-23T08:08:44.000Z</time>
      </trkpt>
      <trkpt lat="47.86026" lon="6.77377">
        <ele>702</ele>
        <time>2018-06-23T08:08:45.000Z</time>
      </trkpt>
      <trkpt lat="47.86027" lon="6.77379">
        <ele>702</ele>
        <time>2018-06-23T08:08:46.000Z</time>
      </trkpt>
      <trkpt lat="47.86027" lon="6.7738">
        <ele>702</ele>
        <time>2018-06-23T08:08:47.000Z</time>
      </trkpt>
      <trkpt lat="47.86027" lon="6.7738">
        <ele>702</ele>
        <time>2018-06-23T08:08:48.000Z</time>
      </trkpt>
      <trkpt lat="47.86028" lon="6.77383">
        <ele>702</ele>
        <time>2018-06-23T08:08:49.000Z</time>
      </trkpt>
      <trkpt lat="47.86028" lon="6.77383">
        <ele>702</ele>
        <time>2018-06-23T08:08:50.000Z</time>
      </trkpt>
      <trkpt lat="47.86028" lon="6.77385">
        <ele>702</ele>
        <time>2018-06-23T08:08:51.000Z</time>
      </trkpt>
      <trkpt lat="47.86029" lon="6.77386">
        <ele>702</ele>
        <time>2018-06-23T08:08:52.000Z</time>
      </trkpt>
      <trkpt lat="47.86029" lon="6.77386">
        <ele>702</ele>
        <time>2018-06-23T08:08:53.000Z</time>
      </trkpt>
      <trkpt lat="47.86029" lon="6.77386">
        <ele>702</ele>
        <time>2018-06-23T08:08:54.000Z</time>
      </trkpt>
      <trkpt lat="47.86029" lon="6.77387">
        <ele>702</ele>
        <time>2018-06-23T08:08:55.000Z</time>
      </trkpt>
      <trkpt lat="47.86029" lon="6.77387">
        <ele>702</ele>
        <time>2018-06-23T08:08:56.000Z</time>
      </trkpt>
      <trkpt lat="47.86029" lon="6.7739">
        <ele>702</ele>
        <time>2018-06-23T08:08:58.000Z</time>
      </trkpt>
      <trkpt lat="47.86029" lon="6.77391">
        <ele>702</ele>
        <time>2018-06-23T08:08:59.000Z</time>
      </trkpt>
      <trkpt lat="47.86029" lon="6.77392">
        <ele>702</ele>
        <time>2018-06-23T08:09:00.000Z</time>
      </trkpt>
      <trkpt lat="47.86029" lon="6.77393">
        <ele>702</ele>
        <time>2018-06-23T08:09:01.000Z</time>
      </trkpt>
      <trkpt lat="47.86029" lon="6.77394">
        <ele>702</ele>
        <time>2018-06-23T08:09:02.000Z</time>
      </trkpt>
      <trkpt lat="47.8603" lon="6.77395">
        <ele>702</ele>
        <time>2018-06-23T08:09:03.000Z</time>
      </trkpt>
      <trkpt lat="47.8603" lon="6.77397">
        <ele>702</ele>
        <time>2018-06-23T08:09:04.000Z</time>
      </trkpt>
      <trkpt lat="47.86029" lon="6.77397">
        <ele>702</ele>
        <time>2018-06-23T08:09:05.000Z</time>
      </trkpt>
      <trkpt lat="47.86029" lon="6.77397">
        <ele>702</ele>
        <time>2018-06-23T08:09:06.000Z</time>
      </trkpt>
      <trkpt lat="47.86029" lon="6.77398">
        <ele>703</ele>
        <time>2018-06-23T08:09:07.000Z</time>
      </trkpt>
      <trkpt lat="47.86029" lon="6.77398">
        <ele>703</ele>
        <time>2018-06-23T08:09:08.000Z</time>
      </trkpt>
      <trkpt lat="47.8603" lon="6.774">
        <ele>702</ele>
        <time>2018-06-23T08:09:09.000Z</time>
      </trkpt>
      <trkpt lat="47.8603" lon="6.77401">
        <ele>702</ele>
        <time>2018-06-23T08:09:10.000Z</time>
      </trkpt>
      <trkpt lat="47.86031" lon="6.77401">
        <ele>702</ele>
        <time>2018-06-23T08:09:11.000Z</time>
      </trkpt>
      <trkpt lat="47.86031" lon="6.77402">
        <ele>702</ele>
        <time>2018-06-23T08:09:12.000Z</time>
      </trkpt>
      <trkpt lat="47.86031" lon="6.77403">
        <ele>702</ele>
        <time>2018-06-23T08:09:13.000Z</time>
      </trkpt>
      <trkpt lat="47.86032" lon="6.77404">
        <ele>702</ele>
        <time>2018-06-23T08:09:14.000Z</time>
      </trkpt>
      <trkpt lat="47.86032" lon="6.77405">
        <ele>702</ele>
        <time>2018-06-23T08:09:15.000Z</time>
      </trkpt>
      <trkpt lat="47.86033" lon="6.77407">
        <ele>702</ele>
        <time>2018-06-23T08:09:16.000Z</time>
      </trkpt>
      <trkpt lat="47.86033" lon="6.77408">
        <ele>702</ele>
        <time>2018-06-23T08:09:17.000Z</time>
      </trkpt>
      <trkpt lat="47.86033" lon="6.77409">
        <ele>702</ele>
        <time>2018-06-23T08:09:18.000Z</time>
      </trkpt>
      <trkpt lat="47.86034" lon="6.77411">
        <ele>702</ele>
        <time>2018-06-23T08:09:19.000Z</time>
      </trkpt>
      <trkpt lat="47.86034" lon="6.77412">
        <ele>702</ele>
        <time>2018-06-23T08:09:20.000Z</time>
      </trkpt>
      <trkpt lat="47.86034" lon="6.77413">
        <ele>702</ele>
        <time>2018-06-23T08:09:21.000Z</time>
      </trkpt>
      <trkpt lat="47.86035" lon="6.77414">
        <ele>702</ele>
        <time>2018-06-23T08:09:22.000Z</time>
      </trkpt>
      <trkpt lat="47.86035" lon="6.77416">
        <ele>702</ele>
        <time>2018-06-23T08:09:23.000Z</time>
      </trkpt>
      <trkpt lat="47.86035" lon="6.77417">
        <ele>704</ele>
        <time>2018-06-23T08:09:24.000Z</time>
      </trkpt>
      <trkpt lat="47.86035" lon="6.77418">
        <ele>704</ele>
        <time>2018-06-23T08:09:25.000Z</time>
      </trkpt>
      <trkpt lat="47.86035" lon="6.77419">
        <ele>704</ele>
        <time>2018-06-23T08:09:26.000Z</time>
      </trkpt>
      <trkpt lat="47.86035" lon="6.77421">
        <ele>704</ele>
        <time>2018-06-23T08:09:27.000Z</time>
      </trkpt>
      <trkpt lat="47.86035" lon="6.77422">
        <ele>704</ele>
        <time>2018-06-23T08:09:28.000Z</time>
      </trkpt>
      <trkpt lat="47.86035" lon="6.77423">
        <ele>704</ele>
        <time>2018-06-23T08:09:29.000Z</time>
      </trkpt>
      <trkpt lat="47.86036" lon="6.77425">
        <ele>704</ele>
        <time>2018-06-23T08:09:30.000Z</time>
      </trkpt>
      <trkpt lat="47.86036" lon="6.77427">
        <ele>704</ele>
        <time>2018-06-23T08:09:31.000Z</time>
      </trkpt>
      <trkpt lat="47.86036" lon="6.77428">
        <ele>704</ele>
        <time>2018-06-23T08:09:32.000Z</time>
      </trkpt>
      <trkpt lat="47.86036" lon="6.77429">
        <ele>704</ele>
        <time>2018-06-23T08:09:33.000Z</time>
      </trkpt>
      <trkpt lat="47.86036" lon="6.77431">
        <ele>704</ele>
        <time>2018-06-23T08:09:34.000Z</time>
      </trkpt>
      <trkpt lat="47.86036" lon="6.77432">
        <ele>704</ele>
        <time>2018-06-23T08:09:35.000Z</time>
      </trkpt>
      <trkpt lat="47.86036" lon="6.77433">
        <ele>704</ele>
        <time>2018-06-23T08:09:36.000Z</time>
      </trkpt>
      <trkpt lat="47.86037" lon="6.77435">
        <ele>704</ele>
        <time>2018-06-23T08:09:37.000Z</time>
      </trkpt>
      <trkpt lat="47.86037" lon="6.77436">
        <ele>704</ele>
        <time>2018-06-23T08:09:38.000Z</time>
      </trkpt>
      <trkpt lat="47.86037" lon="6.77438">
        <ele>704</ele>
        <time>2018-06-23T08:09:39.000Z</time>
      </trkpt>
      <trkpt lat="47.86037" lon="6.7744">
        <ele>704</ele>
        <time>2018-06-23T08:09:40.000Z</time>
      </trkpt>
      <trkpt lat="47.86038" lon="6.77442">
        <ele>704</ele>
        <time>2018-06-23T08:09:41.000Z</time>
      </trkpt>
      <trkpt lat="47.86038" lon="6.77443">
        <ele>703</ele>
        <time>2018-06-23T08:09:42.000Z</time>
      </trkpt>
      <trkpt lat="47.86038" lon="6.77443">
        <ele>703</ele>
        <time>2018-06-23T08:09:43.000Z</time>
      </trkpt>
      <trkpt lat="47.86039" lon="6.77444">
        <ele>703</ele>
        <time>2018-06-23T08:09:44.000Z</time>
      </trkpt>
      <trkpt lat="47.86039" lon="6.77445">
        <ele>703</ele>
        <time>2018-06-23T08:09:45.000Z</time>
      </trkpt>
      <trkpt lat="47.8604" lon="6.77445">
        <ele>703</ele>
        <time>2018-06-23T08:09:46.000Z</time>
      </trkpt>
      <trkpt lat="47.8604" lon="6.77446">
        <ele>703</ele>
        <time>2018-06-23T08:09:47.000Z</time>
      </trkpt>
      <trkpt lat="47.8604" lon="6.77446">
        <ele>703</ele>
        <time>2018-06-23T08:09:48.000Z</time>
      </trkpt>
      <trkpt lat="47.8604" lon="6.77448">
        <ele>703</ele>
        <time>2018-06-23T08:09:49.000Z</time>
      </trkpt>
      <trkpt lat="47.86039" lon="6.77449">
        <ele>703</ele>
        <time>2018-06-23T08:09:50.000Z</time>
      </trkpt>
      <trkpt lat="47.86039" lon="6.7745">
        <ele>703</ele>
        <time>2018-06-23T08:09:51.000Z</time>
      </trkpt>
      <trkpt lat="47.86038" lon="6.77451">
        <ele>704</ele>
        <time>2018-06-23T08:09:52.000Z</time>
      </trkpt>
      <trkpt lat="47.86038" lon="6.77453">
        <ele>704</ele>
        <time>2018-06-23T08:09:53.000Z</time>
      </trkpt>
      <trkpt lat="47.86038" lon="6.77454">
        <ele>704</ele>
        <time>2018-06-23T08:09:54.000Z</time>
      </trkpt>
      <trkpt lat="47.86038" lon="6.77456">
        <ele>704</ele>
        <time>2018-06-23T08:09:55.000Z</time>
      </trkpt>
      <trkpt lat="47.86038" lon="6.77457">
        <ele>704</ele>
        <time>2018-06-23T08:09:56.000Z</time>
      </trkpt>
      <trkpt lat="47.86038" lon="6.77458">
        <ele>704</ele>
        <time>2018-06-23T08:09:57.000Z</time>
      </trkpt>
      <trkpt lat="47.86038" lon="6.7746">
        <ele>704</ele>
        <time>2018-06-23T08:09:58.000Z</time>
      </trkpt>
      <trkpt lat="47.86037" lon="6.77462">
        <ele>704</ele>
        <time>2018-06-23T08:09:59.000Z</time>
      </trkpt>
      <trkpt lat="47.86037" lon="6.77463">
        <ele>704</ele>
        <time>2018-06-23T08:10:00.000Z</time>
      </trkpt>
      <trkpt lat="47.86037" lon="6.77465">
        <ele>704</ele>
        <time>2018-06-23T08:10:01.000Z</time>
      </trkpt>
      <trkpt lat="47.86037" lon="6.77466">
        <ele>704</ele>
        <time>2018-06-23T08:10:02.000Z</time>
      </trkpt>
      <trkpt lat="47.86037" lon="6.77467">
        <ele>704</ele>
        <time>2018-06-23T08:10:03.000Z</time>
      </trkpt>
      <trkpt lat="47.86036" lon="6.77469">
        <ele>704</ele>
        <time>2018-06-23T08:10:04.000Z</time>
      </trkpt>
      <trkpt lat="47.86036" lon="6.7747">
        <ele>705</ele>
        <time>2018-06-23T08:10:05.000Z</time>
      </trkpt>
      <trkpt lat="47.86035" lon="6.77471">
        <ele>705</ele>
        <time>2018-06-23T08:10:06.000Z</time>
      </trkpt>
      <trkpt lat="47.86035" lon="6.77473">
        <ele>705</ele>
        <time>2018-06-23T08:10:07.000Z</time>
      </trkpt>
      <trkpt lat="47.86034" lon="6.77474">
        <ele>705</ele>
        <time>2018-06-23T08:10:08.000Z</time>
      </trkpt>
      <trkpt lat="47.86034" lon="6.77475">
        <ele>705</ele>
        <time>2018-06-23T08:10:09.000Z</time>
      </trkpt>
      <trkpt lat="47.86034" lon="6.77475">
        <ele>705</ele>
        <time>2018-06-23T08:10:10.000Z</time>
      </trkpt>
      <trkpt lat="47.86034" lon="6.77476">
        <ele>705</ele>
        <time>2018-06-23T08:10:11.000Z</time>
      </trkpt>
      <trkpt lat="47.86034" lon="6.77477">
        <ele>705</ele>
        <time>2018-06-23T08:10:12.000Z</time>
      </trkpt>
      <trkpt lat="47.86034" lon="6.77477">
        <ele>705</ele>
        <time>2018-06-23T08:10:13.000Z</time>
      </trkpt>
      <trkpt lat="47.86034" lon="6.77478">
        <ele>705</ele>
        <time>2018-06-23T08:10:14.000Z</time>
      </trkpt>
      <trkpt lat="47.86033" lon="6.77479">
        <ele>705</ele>
        <time>2018-06-23T08:10:15.000Z</time>
      </trkpt>
      <trkpt lat="47.86033" lon="6.7748">
        <ele>706</ele>
        <time>2018-06-23T08:10:16.000Z</time>
      </trkpt>
      <trkpt lat="47.86032" lon="6.77481">
        <ele>706</ele>
        <time>2018-06-23T08:10:17.000Z</time>
      </trkpt>
      <trkpt lat="47.86032" lon="6.77482">
        <ele>706</ele>
        <time>2018-06-23T08:10:18.000Z</time>
      </trkpt>
      <trkpt lat="47.86031" lon="6.77483">
        <ele>706</ele>
        <time>2018-06-23T08:10:19.000Z</time>
      </trkpt>
      <trkpt lat="47.8603" lon="6.77484">
        <ele>706</ele>
        <time>2018-06-23T08:10:20.000Z</time>
      </trkpt>
      <trkpt lat="47.8603" lon="6.77485">
        <ele>707</ele>
        <time>2018-06-23T08:10:21.000Z</time>
      </trkpt>
      <trkpt lat="47.8603" lon="6.77487">
        <ele>707</ele>
        <time>2018-06-23T08:10:22.000Z</time>
      </trkpt>
      <trkpt lat="47.86029" lon="6.77488">
        <ele>707</ele>
        <time>2018-06-23T08:10:23.000Z</time>
      </trkpt>
      <trkpt lat="47.86028" lon="6.77489">
        <ele>707</ele>
        <time>2018-06-23T08:10:24.000Z</time>
      </trkpt>
      <trkpt lat="47.86028" lon="6.7749">
        <ele>707</ele>
        <time>2018-06-23T08:10:25.000Z</time>
      </trkpt>
      <trkpt lat="47.86027" lon="6.77491">
        <ele>708</ele>
        <time>2018-06-23T08:10:26.000Z</time>
      </trkpt>
      <trkpt lat="47.86026" lon="6.77493">
        <ele>708</ele>
        <time>2018-06-23T08:10:27.000Z</time>
      </trkpt>
      <trkpt lat="47.86025" lon="6.77494">
        <ele>708</ele>
        <time>2018-06-23T08:10:28.000Z</time>
      </trkpt>
      <trkpt lat="47.86024" lon="6.77495">
        <ele>709</ele>
        <time>2018-06-23T08:10:29.000Z</time>
      </trkpt>
      <trkpt lat="47.86024" lon="6.77497">
        <ele>709</ele>
        <time>2018-06-23T08:10:30.000Z</time>
      </trkpt>
      <trkpt lat="47.86023" lon="6.77498">
        <ele>709</ele>
        <time>2018-06-23T08:10:31.000Z</time>
      </trkpt>
      <trkpt lat="47.86022" lon="6.77499">
        <ele>710</ele>
        <time>2018-06-23T08:10:32.000Z</time>
      </trkpt>
      <trkpt lat="47.86022" lon="6.77501">
        <ele>712</ele>
        <time>2018-06-23T08:10:33.000Z</time>
      </trkpt>
      <trkpt lat="47.86021" lon="6.77502">
        <ele>712</ele>
        <time>2018-06-23T08:10:34.000Z</time>
      </trkpt>
      <trkpt lat="47.86021" lon="6.77504">
        <ele>712</ele>
        <time>2018-06-23T08:10:35.000Z</time>
      </trkpt>
      <trkpt lat="47.8602" lon="6.77505">
        <ele>713</ele>
        <time>2018-06-23T08:10:36.000Z</time>
      </trkpt>
      <trkpt lat="47.8602" lon="6.77507">
        <ele>713</ele>
        <time>2018-06-23T08:10:37.000Z</time>
      </trkpt>
      <trkpt lat="47.86019" lon="6.77508">
        <ele>713</ele>
        <time>2018-06-23T08:10:38.000Z</time>
      </trkpt>
      <trkpt lat="47.86019" lon="6.77509">
        <ele>713</ele>
        <time>2018-06-23T08:10:39.000Z</time>
      </trkpt>
      <trkpt lat="47.86019" lon="6.7751">
        <ele>713</ele>
        <time>2018-06-23T08:10:40.000Z</time>
      </trkpt>
      <trkpt lat="47.86019" lon="6.77511">
        <ele>713</ele>
        <time>2018-06-23T08:10:41.000Z</time>
      </trkpt>
      <trkpt lat="47.86019" lon="6.77512">
        <ele>712</ele>
        <time>2018-06-23T08:10:42.000Z</time>
      </trkpt>
      <trkpt lat="47.86019" lon="6.77513">
        <ele>712</ele>
        <time>2018-06-23T08:10:43.000Z</time>
      </trkpt>
      <trkpt lat="47.86018" lon="6.77514">
        <ele>712</ele>
        <time>2018-06-23T08:10:44.000Z</time>
      </trkpt>
      <trkpt lat="47.86018" lon="6.77516">
        <ele>712</ele>
        <time>2018-06-23T08:10:45.000Z</time>
      </trkpt>
      <trkpt lat="47.86018" lon="6.77517">
        <ele>712</ele>
        <time>2018-06-23T08:10:46.000Z</time>
      </trkpt>
      <trkpt lat="47.86018" lon="6.77518">
        <ele>712</ele>
        <time>2018-06-23T08:10:47.000Z</time>
      </trkpt>
      <trkpt lat="47.86018" lon="6.77519">
        <ele>712</ele>
        <time>2018-06-23T08:10:48.000Z</time>
      </trkpt>
      <trkpt lat="47.86018" lon="6.7752">
        <ele>712</ele>
        <time>2018-06-23T08:10:49.000Z</time>
      </trkpt>
      <trkpt lat="47.86018" lon="6.77522">
        <ele>712</ele>
        <time>2018-06-23T08:10:50.000Z</time>
      </trkpt>
      <trkpt lat="47.86018" lon="6.77523">
        <ele>712</ele>
        <time>2018-06-23T08:10:51.000Z</time>
      </trkpt>
      <trkpt lat="47.86018" lon="6.77525">
        <ele>712</ele>
        <time>2018-06-23T08:10:52.000Z</time>
      </trkpt>
      <trkpt lat="47.86017" lon="6.77526">
        <ele>712</ele>
        <time>2018-06-23T08:10:53.000Z</time>
      </trkpt>
      <trkpt lat="47.86017" lon="6.77527">
        <ele>712</ele>
        <time>2018-06-23T08:10:54.000Z</time>
      </trkpt>
      <trkpt lat="47.86017" lon="6.77529">
        <ele>712</ele>
        <time>2018-06-23T08:10:55.000Z</time>
      </trkpt>
      <trkpt lat="47.86016" lon="6.7753">
        <ele>712</ele>
        <time>2018-06-23T08:10:56.000Z</time>
      </trkpt>
      <trkpt lat="47.86016" lon="6.77532">
        <ele>712</ele>
        <time>2018-06-23T08:10:57.000Z</time>
      </trkpt>
      <trkpt lat="47.86016" lon="6.77533">
        <ele>712</ele>
        <time>2018-06-23T08:10:58.000Z</time>
      </trkpt>
      <trkpt lat="47.86016" lon="6.77535">
        <ele>712</ele>
        <time>2018-06-23T08:10:59.000Z</time>
      </trkpt>
      <trkpt lat="47.86015" lon="6.77536">
        <ele>712</ele>
        <time>2018-06-23T08:11:00.000Z</time>
      </trkpt>
      <trkpt lat="47.86015" lon="6.77537">
        <ele>712</ele>
        <time>2018-06-23T08:11:01.000Z</time>
      </trkpt>
      <trkpt lat="47.86015" lon="6.77539">
        <ele>712</ele>
        <time>2018-06-23T08:11:02.000Z</time>
      </trkpt>
      <trkpt lat="47.86014" lon="6.7754">
        <ele>712</ele>
        <time>2018-06-23T08:11:03.000Z</time>
      </trkpt>
      <trkpt lat="47.86014" lon="6.77542">
        <ele>712</ele>
        <time>2018-06-23T08:11:04.000Z</time>
      </trkpt>
      <trkpt lat="47.86014" lon="6.77543">
        <ele>713</ele>
        <time>2018-06-23T08:11:05.000Z</time>
      </trkpt>
      <trkpt lat="47.86013" lon="6.77544">
        <ele>713</ele>
        <time>2018-06-23T08:11:06.000Z</time>
      </trkpt>
      <trkpt lat="47.86013" lon="6.77546">
        <ele>713</ele>
        <time>2018-06-23T08:11:07.000Z</time>
      </trkpt>
      <trkpt lat="47.86012" lon="6.77547">
        <ele>713</ele>
        <time>2018-06-23T08:11:08.000Z</time>
      </trkpt>
      <trkpt lat="47.86012" lon="6.77548">
        <ele>713</ele>
        <time>2018-06-23T08:11:09.000Z</time>
      </trkpt>
      <trkpt lat="47.86012" lon="6.7755">
        <ele>713</ele>
        <time>2018-06-23T08:11:10.000Z</time>
      </trkpt>
      <trkpt lat="47.86012" lon="6.77551">
        <ele>714</ele>
        <time>2018-06-23T08:11:11.000Z</time>
      </trkpt>
      <trkpt lat="47.86011" lon="6.77553">
        <ele>714</ele>
        <time>2018-06-23T08:11:12.000Z</time>
      </trkpt>
      <trkpt lat="47.86011" lon="6.77554">
        <ele>714</ele>
        <time>2018-06-23T08:11:13.000Z</time>
      </trkpt>
      <trkpt lat="47.8601" lon="6.77555">
        <ele>714</ele>
        <time>2018-06-23T08:11:14.000Z</time>
      </trkpt>
      <trkpt lat="47.8601" lon="6.77557">
        <ele>715</ele>
        <time>2018-06-23T08:11:15.000Z</time>
      </trkpt>
      <trkpt lat="47.86009" lon="6.77558">
        <ele>715</ele>
        <time>2018-06-23T08:11:16.000Z</time>
      </trkpt>
      <trkpt lat="47.86009" lon="6.7756">
        <ele>715</ele>
        <time>2018-06-23T08:11:17.000Z</time>
      </trkpt>
      <trkpt lat="47.86009" lon="6.77561">
        <ele>716</ele>
        <time>2018-06-23T08:11:18.000Z</time>
      </trkpt>
      <trkpt lat="47.86009" lon="6.77562">
        <ele>716</ele>
        <time>2018-06-23T08:11:19.000Z</time>
      </trkpt>
      <trkpt lat="47.86009" lon="6.77564">
        <ele>716</ele>
        <time>2018-06-23T08:11:20.000Z</time>
      </trkpt>
      <trkpt lat="47.86008" lon="6.77565">
        <ele>717</ele>
        <time>2018-06-23T08:11:21.000Z</time>
      </trkpt>
      <trkpt lat="47.86008" lon="6.77566">
        <ele>717</ele>
        <time>2018-06-23T08:11:22.000Z</time>
      </trkpt>
      <trkpt lat="47.86008" lon="6.77568">
        <ele>718</ele>
        <time>2018-06-23T08:11:23.000Z</time>
      </trkpt>
      <trkpt lat="47.86008" lon="6.77569">
        <ele>718</ele>
        <time>2018-06-23T08:11:24.000Z</time>
      </trkpt>
      <trkpt lat="47.86008" lon="6.77571">
        <ele>718</ele>
        <time>2018-06-23T08:11:25.000Z</time>
      </trkpt>
      <trkpt lat="47.86008" lon="6.77572">
        <ele>719</ele>
        <time>2018-06-23T08:11:26.000Z</time>
      </trkpt>
      <trkpt lat="47.86008" lon="6.77573">
        <ele>719</ele>
        <time>2018-06-23T08:11:27.000Z</time>
      </trkpt>
      <trkpt lat="47.86007" lon="6.77574">
        <ele>720</ele>
        <time>2018-06-23T08:11:28.000Z</time>
      </trkpt>
      <trkpt lat="47.86007" lon="6.77576">
        <ele>720</ele>
        <time>2018-06-23T08:11:29.000Z</time>
      </trkpt>
      <trkpt lat="47.86007" lon="6.77577">
        <ele>721</ele>
        <time>2018-06-23T08:11:30.000Z</time>
      </trkpt>
      <trkpt lat="47.86007" lon="6.77578">
        <ele>721</ele>
        <time>2018-06-23T08:11:31.000Z</time>
      </trkpt>
      <trkpt lat="47.86007" lon="6.77579">
        <ele>721</ele>
        <time>2018-06-23T08:11:32.000Z</time>
      </trkpt>
      <trkpt lat="47.86007" lon="6.7758">
        <ele>722</ele>
        <time>2018-06-23T08:11:33.000Z</time>
      </trkpt>
      <trkpt lat="47.86007" lon="6.77582">
        <ele>722</ele>
        <time>2018-06-23T08:11:34.000Z</time>
      </trkpt>
      <trkpt lat="47.86007" lon="6.77583">
        <ele>722</ele>
        <time>2018-06-23T08:11:35.000Z</time>
      </trkpt>
      <trkpt lat="47.86007" lon="6.77585">
        <ele>723</ele>
        <time>2018-06-23T08:11:36.000Z</time>
      </trkpt>
      <trkpt lat="47.86007" lon="6.77586">
        <ele>723</ele>
        <time>2018-06-23T08:11:37.000Z</time>
      </trkpt>
      <trkpt lat="47.86007" lon="6.77588">
        <ele>722</ele>
        <time>2018-06-23T08:11:38.000Z</time>
      </trkpt>
      <trkpt lat="47.86008" lon="6.77589">
        <ele>722</ele>
        <time>2018-06-23T08:11:39.000Z</time>
      </trkpt>
      <trkpt lat="47.86008" lon="6.77591">
        <ele>722</ele>
        <time>2018-06-23T08:11:40.000Z</time>
      </trkpt>
      <trkpt lat="47.86008" lon="6.77592">
        <ele>721</ele>
        <time>2018-06-23T08:11:41.000Z</time>
      </trkpt>
      <trkpt lat="47.86008" lon="6.77594">
        <ele>721</ele>
        <time>2018-06-23T08:11:42.000Z</time>
      </trkpt>
      <trkpt lat="47.86008" lon="6.77595">
        <ele>721</ele>
        <time>2018-06-23T08:11:43.000Z</time>
      </trkpt>
      <trkpt lat="47.86008" lon="6.77596">
        <ele>720</ele>
        <time>2018-06-23T08:11:44.000Z</time>
      </trkpt>
      <trkpt lat="47.86008" lon="6.77598">
        <ele>720</ele>
        <time>2018-06-23T08:11:45.000Z</time>
      </trkpt>
      <trkpt lat="47.86008" lon="6.77599">
        <ele>720</ele>
        <time>2018-06-23T08:11:46.000Z</time>
      </trkpt>
      <trkpt lat="47.86009" lon="6.77601">
        <ele>719</ele>
        <time>2018-06-23T08:11:47.000Z</time>
      </trkpt>
      <trkpt lat="47.86009" lon="6.77602">
        <ele>719</ele>
        <time>2018-06-23T08:11:48.000Z</time>
      </trkpt>
      <trkpt lat="47.86009" lon="6.77603">
        <ele>719</ele>
        <time>2018-06-23T08:11:49.000Z</time>
      </trkpt>
      <trkpt lat="47.8601" lon="6.77605">
        <ele>718</ele>
        <time>2018-06-23T08:11:50.000Z</time>
      </trkpt>
      <trkpt lat="47.8601" lon="6.77606">
        <ele>718</ele>
        <time>2018-06-23T08:11:51.000Z</time>
      </trkpt>
      <trkpt lat="47.8601" lon="6.77608">
        <ele>718</ele>
        <time>2018-06-23T08:11:52.000Z</time>
      </trkpt>
      <trkpt lat="47.8601" lon="6.77609">
        <ele>718</ele>
        <time>2018-06-23T08:11:53.000Z</time>
      </trkpt>
      <trkpt lat="47.8601" lon="6.77611">
        <ele>717</ele>
        <time>2018-06-23T08:11:54.000Z</time>
      </trkpt>
      <trkpt lat="47.8601" lon="6.77612">
        <ele>717</ele>
        <time>2018-06-23T08:11:55.000Z</time>
      </trkpt>
      <trkpt lat="47.8601" lon="6.77614">
        <ele>717</ele>
        <time>2018-06-23T08:11:56.000Z</time>
      </trkpt>
      <trkpt lat="47.86011" lon="6.77615">
        <ele>717</ele>
        <time>2018-06-23T08:11:57.000Z</time>
      </trkpt>
      <trkpt lat="47.86011" lon="6.77617">
        <ele>717</ele>
        <time>2018-06-23T08:11:58.000Z</time>
      </trkpt>
      <trkpt lat="47.86012" lon="6.77618">
        <ele>717</ele>
        <time>2018-06-23T08:11:59.000Z</time>
      </trkpt>
      <trkpt lat="47.86012" lon="6.7762">
        <ele>717</ele>
        <time>2018-06-23T08:12:00.000Z</time>
      </trkpt>
      <trkpt lat="47.86012" lon="6.77622">
        <ele>717</ele>
        <time>2018-06-23T08:12:01.000Z</time>
      </trkpt>
      <trkpt lat="47.86013" lon="6.77623">
        <ele>717</ele>
        <time>2018-06-23T08:12:02.000Z</time>
      </trkpt>
      <trkpt lat="47.86013" lon="6.77624">
        <ele>717</ele>
        <time>2018-06-23T08:12:03.000Z</time>
      </trkpt>
      <trkpt lat="47.86013" lon="6.77626">
        <ele>717</ele>
        <time>2018-06-23T08:12:04.000Z</time>
      </trkpt>
      <trkpt lat="47.86013" lon="6.77627">
        <ele>717</ele>
        <time>2018-06-23T08:12:05.000Z</time>
      </trkpt>
      <trkpt lat="47.86013" lon="6.77629">
        <ele>717</ele>
        <time>2018-06-23T08:12:06.000Z</time>
      </trkpt>
      <trkpt lat="47.86013" lon="6.7763">
        <ele>717</ele>
        <time>2018-06-23T08:12:07.000Z</time>
      </trkpt>
      <trkpt lat="47.86013" lon="6.77631">
        <ele>717</ele>
        <time>2018-06-23T08:12:08.000Z</time>
      </trkpt>
      <trkpt lat="47.86013" lon="6.77632">
        <ele>717</ele>
        <time>2018-06-23T08:12:09.000Z</time>
      </trkpt>
      <trkpt lat="47.86013" lon="6.77633">
        <ele>717</ele>
        <time>2018-06-23T08:12:10.000Z</time>
      </trkpt>
      <trkpt lat="47.86013" lon="6.77635">
        <ele>717</ele>
        <time>2018-06-23T08:12:11.000Z</time>
      </trkpt>
      <trkpt lat="47.86013" lon="6.77636">
        <ele>717</ele>
        <time>2018-06-23T08:12:12.000Z</time>
      </trkpt>
      <trkpt lat="47.86012" lon="6.77637">
        <ele>717</ele>
        <time>2018-06-23T08:12:13.000Z</time>
      </trkpt>
      <trkpt lat="47.86012" lon="6.77638">
        <ele>717</ele>
        <time>2018-06-23T08:12:14.000Z</time>
      </trkpt>
      <trkpt lat="47.86012" lon="6.77639">
        <ele>718</ele>
        <time>2018-06-23T08:12:15.000Z</time>
      </trkpt>
      <trkpt lat="47.86012" lon="6.7764">
        <ele>718</ele>
        <time>2018-06-23T08:12:16.000Z</time>
      </trkpt>
      <trkpt lat="47.86012" lon="6.77642">
        <ele>718</ele>
        <time>2018-06-23T08:12:17.000Z</time>
      </trkpt>
      <trkpt lat="47.86012" lon="6.77643">
        <ele>718</ele>
        <time>2018-06-23T08:12:18.000Z</time>
      </trkpt>
      <trkpt lat="47.86012" lon="6.77645">
        <ele>718</ele>
        <time>2018-06-23T08:12:19.000Z</time>
      </trkpt>
      <trkpt lat="47.86012" lon="6.77646">
        <ele>718</ele>
        <time>2018-06-23T08:12:20.000Z</time>
      </trkpt>
      <trkpt lat="47.86012" lon="6.77647">
        <ele>719</ele>
        <time>2018-06-23T08:12:21.000Z</time>
      </trkpt>
      <trkpt lat="47.86012" lon="6.77649">
        <ele>719</ele>
        <time>2018-06-23T08:12:22.000Z</time>
      </trkpt>
      <trkpt lat="47.86012" lon="6.7765">
        <ele>719</ele>
        <time>2018-06-23T08:12:23.000Z</time>
      </trkpt>
      <trkpt lat="47.86012" lon="6.77651">
        <ele>719</ele>
        <time>2018-06-23T08:12:24.000Z</time>
      </trkpt>
      <trkpt lat="47.86012" lon="6.77653">
        <ele>720</ele>
        <time>2018-06-23T08:12:25.000Z</time>
      </trkpt>
      <trkpt lat="47.86012" lon="6.77654">
        <ele>720</ele>
        <time>2018-06-23T08:12:26.000Z</time>
      </trkpt>
      <trkpt lat="47.86011" lon="6.77656">
        <ele>721</ele>
        <time>2018-06-23T08:12:27.000Z</time>
      </trkpt>
      <trkpt lat="47.86011" lon="6.77657">
        <ele>721</ele>
        <time>2018-06-23T08:12:28.000Z</time>
      </trkpt>
      <trkpt lat="47.86011" lon="6.77659">
        <ele>721</ele>
        <time>2018-06-23T08:12:29.000Z</time>
      </trkpt>
      <trkpt lat="47.86011" lon="6.7766">
        <ele>722</ele>
        <time>2018-06-23T08:12:30.000Z</time>
      </trkpt>
      <trkpt lat="47.86011" lon="6.77662">
        <ele>722</ele>
        <time>2018-06-23T08:12:31.000Z</time>
      </trkpt>
      <trkpt lat="47.8601" lon="6.77663">
        <ele>722</ele>
        <time>2018-06-23T08:12:32.000Z</time>
      </trkpt>
      <trkpt lat="47.8601" lon="6.77664">
        <ele>723</ele>
        <time>2018-06-23T08:12:33.000Z</time>
      </trkpt>
      <trkpt lat="47.86009" lon="6.77666">
        <ele>723</ele>
        <time>2018-06-23T08:12:34.000Z</time>
      </trkpt>
      <trkpt lat="47.86009" lon="6.77667">
        <ele>722</ele>
        <time>2018-06-23T08:12:35.000Z</time>
      </trkpt>
      <trkpt lat="47.86008" lon="6.77668">
        <ele>723</ele>
        <time>2018-06-23T08:12:36.000Z</time>
      </trkpt>
      <trkpt lat="47.86008" lon="6.77669">
        <ele>723</ele>
        <time>2018-06-23T08:12:37.000Z</time>
      </trkpt>
      <trkpt lat="47.86008" lon="6.7767">
        <ele>723</ele>
        <time>2018-06-23T08:12:38.000Z</time>
      </trkpt>
      <trkpt lat="47.86007" lon="6.77672">
        <ele>722</ele>
        <time>2018-06-23T08:12:39.000Z</time>
      </trkpt>
      <trkpt lat="47.86007" lon="6.77673">
        <ele>722</ele>
        <time>2018-06-23T08:12:40.000Z</time>
      </trkpt>
      <trkpt lat="47.86007" lon="6.77675">
        <ele>721</ele>
        <time>2018-06-23T08:12:41.000Z</time>
      </trkpt>
      <trkpt lat="47.86006" lon="6.77677">
        <ele>721</ele>
        <time>2018-06-23T08:12:42.000Z</time>
      </trkpt>
      <trkpt lat="47.86006" lon="6.77678">
        <ele>721</ele>
        <time>2018-06-23T08:12:43.000Z</time>
      </trkpt>
      <trkpt lat="47.86006" lon="6.7768">
        <ele>720</ele>
        <time>2018-06-23T08:12:44.000Z</time>
      </trkpt>
      <trkpt lat="47.86005" lon="6.77681">
        <ele>720</ele>
        <time>2018-06-23T08:12:45.000Z</time>
      </trkpt>
      <trkpt lat="47.86005" lon="6.77683">
        <ele>719</ele>
        <time>2018-06-23T08:12:46.000Z</time>
      </trkpt>
      <trkpt lat="47.86005" lon="6.77684">
        <ele>719</ele>
        <time>2018-06-23T08:12:47.000Z</time>
      </trkpt>
      <trkpt lat="47.86004" lon="6.77685">
        <ele>719</ele>
        <time>2018-06-23T08:12:48.000Z</time>
      </trkpt>
      <trkpt lat="47.86004" lon="6.77686">
        <ele>718</ele>
        <time>2018-06-23T08:12:49.000Z</time>
      </trkpt>
      <trkpt lat="47.86003" lon="6.77688">
        <ele>718</ele>
        <time>2018-06-23T08:12:50.000Z</time>
      </trkpt>
      <trkpt lat="47.86003" lon="6.77689">
        <ele>718</ele>
        <time>2018-06-23T08:12:51.000Z</time>
      </trkpt>
      <trkpt lat="47.86002" lon="6.77691">
        <ele>717</ele>
        <time>2018-06-23T08:12:52.000Z</time>
      </trkpt>
      <trkpt lat="47.86002" lon="6.77692">
        <ele>717</ele>
        <time>2018-06-23T08:12:53.000Z</time>
      </trkpt>
      <trkpt lat="47.86001" lon="6.77693">
        <ele>717</ele>
        <time>2018-06-23T08:12:54.000Z</time>
      </trkpt>
      <trkpt lat="47.86001" lon="6.77695">
        <ele>716</ele>
        <time>2018-06-23T08:12:55.000Z</time>
      </trkpt>
      <trkpt lat="47.86001" lon="6.77697">
        <ele>716</ele>
        <time>2018-06-23T08:12:56.000Z</time>
      </trkpt>
      <trkpt lat="47.86" lon="6.77698">
        <ele>716</ele>
        <time>2018-06-23T08:12:57.000Z</time>
      </trkpt>
      <trkpt lat="47.86" lon="6.777">
        <ele>716</ele>
        <time>2018-06-23T08:12:58.000Z</time>
      </trkpt>
      <trkpt lat="47.86" lon="6.77701">
        <ele>731</ele>
        <time>2018-06-23T08:12:59.000Z</time>
      </trkpt>
      <trkpt lat="47.86" lon="6.77703">
        <ele>731</ele>
        <time>2018-06-23T08:13:00.000Z</time>
      </trkpt>
      <trkpt lat="47.86" lon="6.77705">
        <ele>731</ele>
        <time>2018-06-23T08:13:01.000Z</time>
      </trkpt>
      <trkpt lat="47.85999" lon="6.77707">
        <ele>731</ele>
        <time>2018-06-23T08:13:02.000Z</time>
      </trkpt>
      <trkpt lat="47.85999" lon="6.77708">
        <ele>731</ele>
        <time>2018-06-23T08:13:03.000Z</time>
      </trkpt>
      <trkpt lat="47.85999" lon="6.77709">
        <ele>730</ele>
        <time>2018-06-23T08:13:04.000Z</time>
      </trkpt>
      <trkpt lat="47.85998" lon="6.77711">
        <ele>730</ele>
        <time>2018-06-23T08:13:05.000Z</time>
      </trkpt>
      <trkpt lat="47.85998" lon="6.77712">
        <ele>730</ele>
        <time>2018-06-23T08:13:06.000Z</time>
      </trkpt>
      <trkpt lat="47.85998" lon="6.77714">
        <ele>730</ele>
        <time>2018-06-23T08:13:07.000Z</time>
      </trkpt>
      <trkpt lat="47.85997" lon="6.77715">
        <ele>730</ele>
        <time>2018-06-23T08:13:08.000Z</time>
      </trkpt>
      <trkpt lat="47.85997" lon="6.77716">
        <ele>730</ele>
        <time>2018-06-23T08:13:09.000Z</time>
      </trkpt>
      <trkpt lat="47.85997" lon="6.77718">
        <ele>730</ele>
        <time>2018-06-23T08:13:10.000Z</time>
      </trkpt>
      <trkpt lat="47.85996" lon="6.7772">
        <ele>730</ele>
        <time>2018-06-23T08:13:11.000Z</time>
      </trkpt>
      <trkpt lat="47.85996" lon="6.77721">
        <ele>729</ele>
        <time>2018-06-23T08:13:12.000Z</time>
      </trkpt>
      <trkpt lat="47.85995" lon="6.77723">
        <ele>729</ele>
        <time>2018-06-23T08:13:13.000Z</time>
      </trkpt>
      <trkpt lat="47.85994" lon="6.77724">
        <ele>729</ele>
        <time>2018-06-23T08:13:14.000Z</time>
      </trkpt>
      <trkpt lat="47.85993" lon="6.77725">
        <ele>729</ele>
        <time>2018-06-23T08:13:15.000Z</time>
      </trkpt>
      <trkpt lat="47.85992" lon="6.77727">
        <ele>729</ele>
        <time>2018-06-23T08:13:16.000Z</time>
      </trkpt>
      <trkpt lat="47.85991" lon="6.77728">
        <ele>729</ele>
        <time>2018-06-23T08:13:17.000Z</time>
      </trkpt>
      <trkpt lat="47.8599" lon="6.7773">
        <ele>729</ele>
        <time>2018-06-23T08:13:18.000Z</time>
      </trkpt>
      <trkpt lat="47.85989" lon="6.77731">
        <ele>728</ele>
        <time>2018-06-23T08:13:19.000Z</time>
      </trkpt>
      <trkpt lat="47.85988" lon="6.77732">
        <ele>728</ele>
        <time>2018-06-23T08:13:20.000Z</time>
      </trkpt>
      <trkpt lat="47.85987" lon="6.77734">
        <ele>728</ele>
        <time>2018-06-23T08:13:21.000Z</time>
      </trkpt>
      <trkpt lat="47.85986" lon="6.77735">
        <ele>728</ele>
        <time>2018-06-23T08:13:22.000Z</time>
      </trkpt>
      <trkpt lat="47.85985" lon="6.77736">
        <ele>728</ele>
        <time>2018-06-23T08:13:23.000Z</time>
      </trkpt>
      <trkpt lat="47.85984" lon="6.77737">
        <ele>728</ele>
        <time>2018-06-23T08:13:24.000Z</time>
      </trkpt>
      <trkpt lat="47.85983" lon="6.77738">
        <ele>729</ele>
        <time>2018-06-23T08:13:25.000Z</time>
      </trkpt>
      <trkpt lat="47.85981" lon="6.77739">
        <ele>729</ele>
        <time>2018-06-23T08:13:26.000Z</time>
      </trkpt>
      <trkpt lat="47.85981" lon="6.7774">
        <ele>729</ele>
        <time>2018-06-23T08:13:27.000Z</time>
      </trkpt>
      <trkpt lat="47.8598" lon="6.77741">
        <ele>729</ele>
        <time>2018-06-23T08:13:28.000Z</time>
      </trkpt>
      <trkpt lat="47.85979" lon="6.77742">
        <ele>729</ele>
        <time>2018-06-23T08:13:29.000Z</time>
      </trkpt>
      <trkpt lat="47.85978" lon="6.77743">
        <ele>729</ele>
        <time>2018-06-23T08:13:30.000Z</time>
      </trkpt>
      <trkpt lat="47.85977" lon="6.77744">
        <ele>729</ele>
        <time>2018-06-23T08:13:31.000Z</time>
      </trkpt>
      <trkpt lat="47.85977" lon="6.77745">
        <ele>730</ele>
        <time>2018-06-23T08:13:32.000Z</time>
      </trkpt>
      <trkpt lat="47.85976" lon="6.77746">
        <ele>730</ele>
        <time>2018-06-23T08:13:33.000Z</time>
      </trkpt>
      <trkpt lat="47.85975" lon="6.77746">
        <ele>730</ele>
        <time>2018-06-23T08:13:34.000Z</time>
      </trkpt>
      <trkpt lat="47.85974" lon="6.77747">
        <ele>730</ele>
        <time>2018-06-23T08:13:35.000Z</time>
      </trkpt>
      <trkpt lat="47.85973" lon="6.77748">
        <ele>730</ele>
        <time>2018-06-23T08:13:36.000Z</time>
      </trkpt>
      <trkpt lat="47.85972" lon="6.77749">
        <ele>731</ele>
        <time>2018-06-23T08:13:37.000Z</time>
      </trkpt>
      <trkpt lat="47.85971" lon="6.77749">
        <ele>731</ele>
        <time>2018-06-23T08:13:38.000Z</time>
      </trkpt>
      <trkpt lat="47.85971" lon="6.7775">
        <ele>731</ele>
        <time>2018-06-23T08:13:39.000Z</time>
      </trkpt>
      <trkpt lat="47.8597" lon="6.77751">
        <ele>727</ele>
        <time>2018-06-23T08:13:40.000Z</time>
      </trkpt>
      <trkpt lat="47.85969" lon="6.77752">
        <ele>728</ele>
        <time>2018-06-23T08:13:41.000Z</time>
      </trkpt>
      <trkpt lat="47.85968" lon="6.77753">
        <ele>728</ele>
        <time>2018-06-23T08:13:42.000Z</time>
      </trkpt>
      <trkpt lat="47.85967" lon="6.77753">
        <ele>728</ele>
        <time>2018-06-23T08:13:43.000Z</time>
      </trkpt>
      <trkpt lat="47.85966" lon="6.77754">
        <ele>728</ele>
        <time>2018-06-23T08:13:44.000Z</time>
      </trkpt>
      <trkpt lat="47.85966" lon="6.77755">
        <ele>728</ele>
        <time>2018-06-23T08:13:45.000Z</time>
      </trkpt>
      <trkpt lat="47.85965" lon="6.77756">
        <ele>729</ele>
        <time>2018-06-23T08:13:46.000Z</time>
      </trkpt>
      <trkpt lat="47.85964" lon="6.77757">
        <ele>729</ele>
        <time>2018-06-23T08:13:47.000Z</time>
      </trkpt>
      <trkpt lat="47.85963" lon="6.77758">
        <ele>729</ele>
        <time>2018-06-23T08:13:48.000Z</time>
      </trkpt>
      <trkpt lat="47.85962" lon="6.77759">
        <ele>729</ele>
        <time>2018-06-23T08:13:49.000Z</time>
      </trkpt>
      <trkpt lat="47.85961" lon="6.7776">
        <ele>729</ele>
        <time>2018-06-23T08:13:50.000Z</time>
      </trkpt>
      <trkpt lat="47.85959" lon="6.7776">
        <ele>730</ele>
        <time>2018-06-23T08:13:51.000Z</time>
      </trkpt>
      <trkpt lat="47.85958" lon="6.77761">
        <ele>730</ele>
        <time>2018-06-23T08:13:52.000Z</time>
      </trkpt>
      <trkpt lat="47.85957" lon="6.77762">
        <ele>730</ele>
        <time>2018-06-23T08:13:53.000Z</time>
      </trkpt>
      <trkpt lat="47.85955" lon="6.77762">
        <ele>730</ele>
        <time>2018-06-23T08:13:54.000Z</time>
      </trkpt>
      <trkpt lat="47.85954" lon="6.77763">
        <ele>731</ele>
        <time>2018-06-23T08:13:55.000Z</time>
      </trkpt>
      <trkpt lat="47.85952" lon="6.77764">
        <ele>731</ele>
        <time>2018-06-23T08:13:56.000Z</time>
      </trkpt>
      <trkpt lat="47.85951" lon="6.77764">
        <ele>731</ele>
        <time>2018-06-23T08:13:57.000Z</time>
      </trkpt>
      <trkpt lat="47.85949" lon="6.77765">
        <ele>732</ele>
        <time>2018-06-23T08:13:58.000Z</time>
      </trkpt>
      <trkpt lat="47.85948" lon="6.77766">
        <ele>732</ele>
        <time>2018-06-23T08:13:59.000Z</time>
      </trkpt>
      <trkpt lat="47.85947" lon="6.77766">
        <ele>732</ele>
        <time>2018-06-23T08:14:00.000Z</time>
      </trkpt>
      <trkpt lat="47.85946" lon="6.77767">
        <ele>732</ele>
        <time>2018-06-23T08:14:01.000Z</time>
      </trkpt>
      <trkpt lat="47.85944" lon="6.77767">
        <ele>733</ele>
        <time>2018-06-23T08:14:02.000Z</time>
      </trkpt>
      <trkpt lat="47.85943" lon="6.77768">
        <ele>733</ele>
        <time>2018-06-23T08:14:03.000Z</time>
      </trkpt>
      <trkpt lat="47.85942" lon="6.7777">
        <ele>733</ele>
        <time>2018-06-23T08:14:04.000Z</time>
      </trkpt>
      <trkpt lat="47.85941" lon="6.77771">
        <ele>733</ele>
        <time>2018-06-23T08:14:05.000Z</time>
      </trkpt>
      <trkpt lat="47.85939" lon="6.77771">
        <ele>733</ele>
        <time>2018-06-23T08:14:06.000Z</time>
      </trkpt>
      <trkpt lat="47.85938" lon="6.77772">
        <ele>733</ele>
        <time>2018-06-23T08:14:07.000Z</time>
      </trkpt>
      <trkpt lat="47.85937" lon="6.77773">
        <ele>733</ele>
        <time>2018-06-23T08:14:08.000Z</time>
      </trkpt>
      <trkpt lat="47.85936" lon="6.77774">
        <ele>734</ele>
        <time>2018-06-23T08:14:09.000Z</time>
      </trkpt>
      <trkpt lat="47.85934" lon="6.77775">
        <ele>734</ele>
        <time>2018-06-23T08:14:10.000Z</time>
      </trkpt>
      <trkpt lat="47.85934" lon="6.77776">
        <ele>734</ele>
        <time>2018-06-23T08:14:11.000Z</time>
      </trkpt>
      <trkpt lat="47.85933" lon="6.77777">
        <ele>734</ele>
        <time>2018-06-23T08:14:12.000Z</time>
      </trkpt>
      <trkpt lat="47.85932" lon="6.77778">
        <ele>734</ele>
        <time>2018-06-23T08:14:13.000Z</time>
      </trkpt>
      <trkpt lat="47.85931" lon="6.77779">
        <ele>734</ele>
        <time>2018-06-23T08:14:14.000Z</time>
      </trkpt>
      <trkpt lat="47.8593" lon="6.77781">
        <ele>734</ele>
        <time>2018-06-23T08:14:15.000Z</time>
      </trkpt>
      <trkpt lat="47.85929" lon="6.77782">
        <ele>734</ele>
        <time>2018-06-23T08:14:16.000Z</time>
      </trkpt>
      <trkpt lat="47.85928" lon="6.77784">
        <ele>733</ele>
        <time>2018-06-23T08:14:17.000Z</time>
      </trkpt>
      <trkpt lat="47.85927" lon="6.77785">
        <ele>733</ele>
        <time>2018-06-23T08:14:18.000Z</time>
      </trkpt>
      <trkpt lat="47.85926" lon="6.77787">
        <ele>733</ele>
        <time>2018-06-23T08:14:19.000Z</time>
      </trkpt>
      <trkpt lat="47.85925" lon="6.77789">
        <ele>733</ele>
        <time>2018-06-23T08:14:20.000Z</time>
      </trkpt>
      <trkpt lat="47.85925" lon="6.7779">
        <ele>733</ele>
        <time>2018-06-23T08:14:21.000Z</time>
      </trkpt>
      <trkpt lat="47.85924" lon="6.77791">
        <ele>733</ele>
        <time>2018-06-23T08:14:22.000Z</time>
      </trkpt>
      <trkpt lat="47.85924" lon="6.77793">
        <ele>733</ele>
        <time>2018-06-23T08:14:23.000Z</time>
      </trkpt>
      <trkpt lat="47.85923" lon="6.77794">
        <ele>733</ele>
        <time>2018-06-23T08:14:24.000Z</time>
      </trkpt>
      <trkpt lat="47.85922" lon="6.77795">
        <ele>733</ele>
        <time>2018-06-23T08:14:25.000Z</time>
      </trkpt>
      <trkpt lat="47.85921" lon="6.77796">
        <ele>733</ele>
        <time>2018-06-23T08:14:26.000Z</time>
      </trkpt>
      <trkpt lat="47.85921" lon="6.77797">
        <ele>733</ele>
        <time>2018-06-23T08:14:27.000Z</time>
      </trkpt>
      <trkpt lat="47.85921" lon="6.77798">
        <ele>733</ele>
        <time>2018-06-23T08:14:28.000Z</time>
      </trkpt>
      <trkpt lat="47.85921" lon="6.77799">
        <ele>733</ele>
        <time>2018-06-23T08:14:29.000Z</time>
      </trkpt>
      <trkpt lat="47.85921" lon="6.778">
        <ele>733</ele>
        <time>2018-06-23T08:14:30.000Z</time>
      </trkpt>
      <trkpt lat="47.8592" lon="6.778">
        <ele>733</ele>
        <time>2018-06-23T08:14:31.000Z</time>
      </trkpt>
      <trkpt lat="47.8592" lon="6.77801">
        <ele>733</ele>
        <time>2018-06-23T08:14:32.000Z</time>
      </trkpt>
      <trkpt lat="47.8592" lon="6.77802">
        <ele>734</ele>
        <time>2018-06-23T08:14:33.000Z</time>
      </trkpt>
      <trkpt lat="47.85919" lon="6.77803">
        <ele>734</ele>
        <time>2018-06-23T08:14:34.000Z</time>
      </trkpt>
      <trkpt lat="47.85919" lon="6.77804">
        <ele>734</ele>
        <time>2018-06-23T08:14:35.000Z</time>
      </trkpt>
      <trkpt lat="47.85919" lon="6.77805">
        <ele>734</ele>
        <time>2018-06-23T08:14:36.000Z</time>
      </trkpt>
      <trkpt lat="47.85919" lon="6.77806">
        <ele>734</ele>
        <time>2018-06-23T08:14:37.000Z</time>
      </trkpt>
      <trkpt lat="47.85918" lon="6.77807">
        <ele>734</ele>
        <time>2018-06-23T08:14:38.000Z</time>
      </trkpt>
      <trkpt lat="47.85918" lon="6.77809">
        <ele>734</ele>
        <time>2018-06-23T08:14:39.000Z</time>
      </trkpt>
      <trkpt lat="47.85917" lon="6.7781">
        <ele>734</ele>
        <time>2018-06-23T08:14:40.000Z</time>
      </trkpt>
      <trkpt lat="47.85916" lon="6.77811">
        <ele>747</ele>
        <time>2018-06-23T08:14:41.000Z</time>
      </trkpt>
      <trkpt lat="47.85916" lon="6.77812">
        <ele>747</ele>
        <time>2018-06-23T08:14:42.000Z</time>
      </trkpt>
      <trkpt lat="47.85915" lon="6.77814">
        <ele>747</ele>
        <time>2018-06-23T08:14:43.000Z</time>
      </trkpt>
      <trkpt lat="47.85915" lon="6.77815">
        <ele>746</ele>
        <time>2018-06-23T08:14:44.000Z</time>
      </trkpt>
      <trkpt lat="47.85914" lon="6.77816">
        <ele>746</ele>
        <time>2018-06-23T08:14:45.000Z</time>
      </trkpt>
      <trkpt lat="47.85914" lon="6.77818">
        <ele>746</ele>
        <time>2018-06-23T08:14:46.000Z</time>
      </trkpt>
      <trkpt lat="47.85913" lon="6.77819">
        <ele>746</ele>
        <time>2018-06-23T08:14:47.000Z</time>
      </trkpt>
      <trkpt lat="47.85913" lon="6.7782">
        <ele>745</ele>
        <time>2018-06-23T08:14:48.000Z</time>
      </trkpt>
      <trkpt lat="47.85912" lon="6.77821">
        <ele>745</ele>
        <time>2018-06-23T08:14:49.000Z</time>
      </trkpt>
      <trkpt lat="47.85912" lon="6.77822">
        <ele>745</ele>
        <time>2018-06-23T08:14:50.000Z</time>
      </trkpt>
      <trkpt lat="47.85911" lon="6.77824">
        <ele>745</ele>
        <time>2018-06-23T08:14:51.000Z</time>
      </trkpt>
      <trkpt lat="47.85911" lon="6.77825">
        <ele>744</ele>
        <time>2018-06-23T08:14:52.000Z</time>
      </trkpt>
      <trkpt lat="47.8591" lon="6.77827">
        <ele>744</ele>
        <time>2018-06-23T08:14:53.000Z</time>
      </trkpt>
      <trkpt lat="47.8591" lon="6.77828">
        <ele>744</ele>
        <time>2018-06-23T08:14:54.000Z</time>
      </trkpt>
      <trkpt lat="47.85909" lon="6.77829">
        <ele>744</ele>
        <time>2018-06-23T08:14:55.000Z</time>
      </trkpt>
      <trkpt lat="47.85908" lon="6.77831">
        <ele>744</ele>
        <time>2018-06-23T08:14:56.000Z</time>
      </trkpt>
      <trkpt lat="47.85908" lon="6.77832">
        <ele>744</ele>
        <time>2018-06-23T08:14:57.000Z</time>
      </trkpt>
      <trkpt lat="47.85907" lon="6.77834">
        <ele>742</ele>
        <time>2018-06-23T08:14:58.000Z</time>
      </trkpt>
      <trkpt lat="47.85906" lon="6.77835">
        <ele>742</ele>
        <time>2018-06-23T08:14:59.000Z</time>
      </trkpt>
      <trkpt lat="47.85905" lon="6.77836">
        <ele>742</ele>
        <time>2018-06-23T08:15:00.000Z</time>
      </trkpt>
      <trkpt lat="47.85905" lon="6.77838">
        <ele>742</ele>
        <time>2018-06-23T08:15:01.000Z</time>
      </trkpt>
      <trkpt lat="47.85904" lon="6.77839">
        <ele>742</ele>
        <time>2018-06-23T08:15:02.000Z</time>
      </trkpt>
      <trkpt lat="47.85903" lon="6.7784">
        <ele>743</ele>
        <time>2018-06-23T08:15:03.000Z</time>
      </trkpt>
      <trkpt lat="47.85902" lon="6.77842">
        <ele>743</ele>
        <time>2018-06-23T08:15:04.000Z</time>
      </trkpt>
      <trkpt lat="47.85901" lon="6.77843">
        <ele>743</ele>
        <time>2018-06-23T08:15:05.000Z</time>
      </trkpt>
      <trkpt lat="47.859" lon="6.77845">
        <ele>743</ele>
        <time>2018-06-23T08:15:06.000Z</time>
      </trkpt>
      <trkpt lat="47.85899" lon="6.77846">
        <ele>743</ele>
        <time>2018-06-23T08:15:07.000Z</time>
      </trkpt>
      <trkpt lat="47.85898" lon="6.77848">
        <ele>743</ele>
        <time>2018-06-23T08:15:08.000Z</time>
      </trkpt>
      <trkpt lat="47.85897" lon="6.77849">
        <ele>744</ele>
        <time>2018-06-23T08:15:09.000Z</time>
      </trkpt>
      <trkpt lat="47.85896" lon="6.77851">
        <ele>744</ele>
        <time>2018-06-23T08:15:10.000Z</time>
      </trkpt>
      <trkpt lat="47.85895" lon="6.77852">
        <ele>744</ele>
        <time>2018-06-23T08:15:11.000Z</time>
      </trkpt>
      <trkpt lat="47.85894" lon="6.77853">
        <ele>744</ele>
        <time>2018-06-23T08:15:12.000Z</time>
      </trkpt>
      <trkpt lat="47.85893" lon="6.77854">
        <ele>744</ele>
        <time>2018-06-23T08:15:13.000Z</time>
      </trkpt>
      <trkpt lat="47.85891" lon="6.77855">
        <ele>744</ele>
        <time>2018-06-23T08:15:14.000Z</time>
      </trkpt>
      <trkpt lat="47.8589" lon="6.77856">
        <ele>744</ele>
        <time>2018-06-23T08:15:15.000Z</time>
      </trkpt>
      <trkpt lat="47.85889" lon="6.77858">
        <ele>744</ele>
        <time>2018-06-23T08:15:16.000Z</time>
      </trkpt>
      <trkpt lat="47.85888" lon="6.77859">
        <ele>744</ele>
        <time>2018-06-23T08:15:17.000Z</time>
      </trkpt>
      <trkpt lat="47.85888" lon="6.7786">
        <ele>744</ele>
        <time>2018-06-23T08:15:18.000Z</time>
      </trkpt>
      <trkpt lat="47.85887" lon="6.77861">
        <ele>745</ele>
        <time>2018-06-23T08:15:19.000Z</time>
      </trkpt>
      <trkpt lat="47.85886" lon="6.77863">
        <ele>745</ele>
        <time>2018-06-23T08:15:20.000Z</time>
      </trkpt>
      <trkpt lat="47.85885" lon="6.77864">
        <ele>745</ele>
        <time>2018-06-23T08:15:21.000Z</time>
      </trkpt>
      <trkpt lat="47.85884" lon="6.77865">
        <ele>745</ele>
        <time>2018-06-23T08:15:22.000Z</time>
      </trkpt>
      <trkpt lat="47.85883" lon="6.77866">
        <ele>745</ele>
        <time>2018-06-23T08:15:23.000Z</time>
      </trkpt>
      <trkpt lat="47.85882" lon="6.77867">
        <ele>745</ele>
        <time>2018-06-23T08:15:24.000Z</time>
      </trkpt>
      <trkpt lat="47.85881" lon="6.77869">
        <ele>745</ele>
        <time>2018-06-23T08:15:25.000Z</time>
      </trkpt>
      <trkpt lat="47.8588" lon="6.7787">
        <ele>745</ele>
        <time>2018-06-23T08:15:26.000Z</time>
      </trkpt>
      <trkpt lat="47.85879" lon="6.77871">
        <ele>745</ele>
        <time>2018-06-23T08:15:27.000Z</time>
      </trkpt>
      <trkpt lat="47.85878" lon="6.77872">
        <ele>745</ele>
        <time>2018-06-23T08:15:28.000Z</time>
      </trkpt>
      <trkpt lat="47.85878" lon="6.77873">
        <ele>745</ele>
        <time>2018-06-23T08:15:29.000Z</time>
      </trkpt>
      <trkpt lat="47.85876" lon="6.77874">
        <ele>745</ele>
        <time>2018-06-23T08:15:30.000Z</time>
      </trkpt>
      <trkpt lat="47.85875" lon="6.77875">
        <ele>745</ele>
        <time>2018-06-23T08:15:31.000Z</time>
      </trkpt>
      <trkpt lat="47.85874" lon="6.77877">
        <ele>745</ele>
        <time>2018-06-23T08:15:32.000Z</time>
      </trkpt>
      <trkpt lat="47.85874" lon="6.77877">
        <ele>745</ele>
        <time>2018-06-23T08:15:33.000Z</time>
      </trkpt>
      <trkpt lat="47.85873" lon="6.77878">
        <ele>745</ele>
        <time>2018-06-23T08:15:34.000Z</time>
      </trkpt>
      <trkpt lat="47.85872" lon="6.77879">
        <ele>745</ele>
        <time>2018-06-23T08:15:35.000Z</time>
      </trkpt>
      <trkpt lat="47.85871" lon="6.7788">
        <ele>746</ele>
        <time>2018-06-23T08:15:36.000Z</time>
      </trkpt>
      <trkpt lat="47.8587" lon="6.77881">
        <ele>746</ele>
        <time>2018-06-23T08:15:37.000Z</time>
      </trkpt>
      <trkpt lat="47.85868" lon="6.77882">
        <ele>746</ele>
        <time>2018-06-23T08:15:38.000Z</time>
      </trkpt>
      <trkpt lat="47.85867" lon="6.77883">
        <ele>746</ele>
        <time>2018-06-23T08:15:39.000Z</time>
      </trkpt>
      <trkpt lat="47.85866" lon="6.77884">
        <ele>746</ele>
        <time>2018-06-23T08:15:40.000Z</time>
      </trkpt>
      <trkpt lat="47.85865" lon="6.77885">
        <ele>746</ele>
        <time>2018-06-23T08:15:41.000Z</time>
      </trkpt>
      <trkpt lat="47.85864" lon="6.77886">
        <ele>746</ele>
        <time>2018-06-23T08:15:42.000Z</time>
      </trkpt>
      <trkpt lat="47.85863" lon="6.77887">
        <ele>746</ele>
        <time>2018-06-23T08:15:43.000Z</time>
      </trkpt>
      <trkpt lat="47.85862" lon="6.77888">
        <ele>746</ele>
        <time>2018-06-23T08:15:44.000Z</time>
      </trkpt>
      <trkpt lat="47.85861" lon="6.77888">
        <ele>746</ele>
        <time>2018-06-23T08:15:45.000Z</time>
      </trkpt>
      <trkpt lat="47.85861" lon="6.77889">
        <ele>746</ele>
        <time>2018-06-23T08:15:46.000Z</time>
      </trkpt>
      <trkpt lat="47.8586" lon="6.7789">
        <ele>746</ele>
        <time>2018-06-23T08:15:47.000Z</time>
      </trkpt>
      <trkpt lat="47.85859" lon="6.77891">
        <ele>746</ele>
        <time>2018-06-23T08:15:48.000Z</time>
      </trkpt>
      <trkpt lat="47.85858" lon="6.77892">
        <ele>747</ele>
        <time>2018-06-23T08:15:49.000Z</time>
      </trkpt>
      <trkpt lat="47.85857" lon="6.77893">
        <ele>747</ele>
        <time>2018-06-23T08:15:50.000Z</time>
      </trkpt>
      <trkpt lat="47.85856" lon="6.77894">
        <ele>747</ele>
        <time>2018-06-23T08:15:51.000Z</time>
      </trkpt>
      <trkpt lat="47.85854" lon="6.77895">
        <ele>747</ele>
        <time>2018-06-23T08:15:52.000Z</time>
      </trkpt>
      <trkpt lat="47.85853" lon="6.77896">
        <ele>747</ele>
        <time>2018-06-23T08:15:53.000Z</time>
      </trkpt>
      <trkpt lat="47.85852" lon="6.77897">
        <ele>747</ele>
        <time>2018-06-23T08:15:54.000Z</time>
      </trkpt>
      <trkpt lat="47.85851" lon="6.77898">
        <ele>747</ele>
        <time>2018-06-23T08:15:55.000Z</time>
      </trkpt>
      <trkpt lat="47.85851" lon="6.77898">
        <ele>747</ele>
        <time>2018-06-23T08:15:56.000Z</time>
      </trkpt>
      <trkpt lat="47.8585" lon="6.77898">
        <ele>747</ele>
        <time>2018-06-23T08:15:57.000Z</time>
      </trkpt>
      <trkpt lat="47.8585" lon="6.77898">
        <ele>747</ele>
        <time>2018-06-23T08:15:58.000Z</time>
      </trkpt>
      <trkpt lat="47.85849" lon="6.77898">
        <ele>748</ele>
        <time>2018-06-23T08:15:59.000Z</time>
      </trkpt>
      <trkpt lat="47.85848" lon="6.77899">
        <ele>748</ele>
        <time>2018-06-23T08:16:00.000Z</time>
      </trkpt>
      <trkpt lat="47.85847" lon="6.77899">
        <ele>748</ele>
        <time>2018-06-23T08:16:01.000Z</time>
      </trkpt>
      <trkpt lat="47.85847" lon="6.77899">
        <ele>748</ele>
        <time>2018-06-23T08:16:02.000Z</time>
      </trkpt>
      <trkpt lat="47.85847" lon="6.77899">
        <ele>748</ele>
        <time>2018-06-23T08:16:03.000Z</time>
      </trkpt>
      <trkpt lat="47.85847" lon="6.779">
        <ele>748</ele>
        <time>2018-06-23T08:16:04.000Z</time>
      </trkpt>
      <trkpt lat="47.85841" lon="6.77901">
        <ele>748</ele>
        <time>2018-06-23T08:16:05.000Z</time>
      </trkpt>
      <trkpt lat="47.85841" lon="6.779">
        <ele>748</ele>
        <time>2018-06-23T08:16:06.000Z</time>
      </trkpt>
      <trkpt lat="47.85839" lon="6.77898">
        <ele>748</ele>
        <time>2018-06-23T08:16:07.000Z</time>
      </trkpt>
      <trkpt lat="47.85839" lon="6.77898">
        <ele>748</ele>
        <time>2018-06-23T08:16:08.000Z</time>
      </trkpt>
      <trkpt lat="47.85837" lon="6.77897">
        <ele>748</ele>
        <time>2018-06-23T08:16:09.000Z</time>
      </trkpt>
      <trkpt lat="47.85836" lon="6.77897">
        <ele>749</ele>
        <time>2018-06-23T08:16:10.000Z</time>
      </trkpt>
      <trkpt lat="47.85836" lon="6.77897">
        <ele>749</ele>
        <time>2018-06-23T08:16:11.000Z</time>
      </trkpt>
      <trkpt lat="47.85835" lon="6.77898">
        <ele>749</ele>
        <time>2018-06-23T08:16:12.000Z</time>
      </trkpt>
      <trkpt lat="47.85834" lon="6.77898">
        <ele>749</ele>
        <time>2018-06-23T08:16:13.000Z</time>
      </trkpt>
      <trkpt lat="47.85834" lon="6.77899">
        <ele>749</ele>
        <time>2018-06-23T08:16:14.000Z</time>
      </trkpt>
      <trkpt lat="47.85833" lon="6.77899">
        <ele>763</ele>
        <time>2018-06-23T08:16:15.000Z</time>
      </trkpt>
      <trkpt lat="47.85833" lon="6.779">
        <ele>763</ele>
        <time>2018-06-23T08:16:16.000Z</time>
      </trkpt>
      <trkpt lat="47.85832" lon="6.77901">
        <ele>763</ele>
        <time>2018-06-23T08:16:17.000Z</time>
      </trkpt>
      <trkpt lat="47.85832" lon="6.77901">
        <ele>763</ele>
        <time>2018-06-23T08:16:18.000Z</time>
      </trkpt>
      <trkpt lat="47.85832" lon="6.77901">
        <ele>763</ele>
        <time>2018-06-23T08:16:19.000Z</time>
      </trkpt>
      <trkpt lat="47.85832" lon="6.77901">
        <ele>762</ele>
        <time>2018-06-23T08:16:20.000Z</time>
      </trkpt>
      <trkpt lat="47.85833" lon="6.77902">
        <ele>762</ele>
        <time>2018-06-23T08:16:21.000Z</time>
      </trkpt>
      <trkpt lat="47.85833" lon="6.77902">
        <ele>762</ele>
        <time>2018-06-23T08:16:22.000Z</time>
      </trkpt>
      <trkpt lat="47.85834" lon="6.77903">
        <ele>749</ele>
        <time>2018-06-23T08:16:23.000Z</time>
      </trkpt>
      <trkpt lat="47.85834" lon="6.77903">
        <ele>749</ele>
        <time>2018-06-23T08:16:24.000Z</time>
      </trkpt>
      <trkpt lat="47.85834" lon="6.77902">
        <ele>749</ele>
        <time>2018-06-23T08:16:25.000Z</time>
      </trkpt>
      <trkpt lat="47.85835" lon="6.77902">
        <ele>749</ele>
        <time>2018-06-23T08:16:26.000Z</time>
      </trkpt>
      <trkpt lat="47.85835" lon="6.77906">
        <ele>749</ele>
        <time>2018-06-23T08:16:27.000Z</time>
      </trkpt>
      <trkpt lat="47.85834" lon="6.77905">
        <ele>749</ele>
        <time>2018-06-23T08:16:28.000Z</time>
      </trkpt>
      <trkpt lat="47.85833" lon="6.77905">
        <ele>761</ele>
        <time>2018-06-23T08:16:29.000Z</time>
      </trkpt>
      <trkpt lat="47.85832" lon="6.77905">
        <ele>760</ele>
        <time>2018-06-23T08:16:30.000Z</time>
      </trkpt>
      <trkpt lat="47.85831" lon="6.77905">
        <ele>760</ele>
        <time>2018-06-23T08:16:31.000Z</time>
      </trkpt>
      <trkpt lat="47.85831" lon="6.77906">
        <ele>760</ele>
        <time>2018-06-23T08:16:32.000Z</time>
      </trkpt>
      <trkpt lat="47.85831" lon="6.77906">
        <ele>760</ele>
        <time>2018-06-23T08:16:33.000Z</time>
      </trkpt>
      <trkpt lat="47.85829" lon="6.77911">
        <ele>758</ele>
        <time>2018-06-23T08:16:34.000Z</time>
      </trkpt>
      <trkpt lat="47.85829" lon="6.77912">
        <ele>757</ele>
        <time>2018-06-23T08:16:35.000Z</time>
      </trkpt>
      <trkpt lat="47.85829" lon="6.77913">
        <ele>757</ele>
        <time>2018-06-23T08:16:36.000Z</time>
      </trkpt>
      <trkpt lat="47.85829" lon="6.77914">
        <ele>756</ele>
        <time>2018-06-23T08:16:37.000Z</time>
      </trkpt>
      <trkpt lat="47.85828" lon="6.77915">
        <ele>756</ele>
        <time>2018-06-23T08:16:38.000Z</time>
      </trkpt>
      <trkpt lat="47.85828" lon="6.77915">
        <ele>756</ele>
        <time>2018-06-23T08:16:39.000Z</time>
      </trkpt>
      <trkpt lat="47.85828" lon="6.77916">
        <ele>757</ele>
        <time>2018-06-23T08:16:40.000Z</time>
      </trkpt>
      <trkpt lat="47.85827" lon="6.77917">
        <ele>755</ele>
        <time>2018-06-23T08:16:41.000Z</time>
      </trkpt>
      <trkpt lat="47.85827" lon="6.77918">
        <ele>755</ele>
        <time>2018-06-23T08:16:42.000Z</time>
      </trkpt>
      <trkpt lat="47.85827" lon="6.77919">
        <ele>756</ele>
        <time>2018-06-23T08:16:43.000Z</time>
      </trkpt>
      <trkpt lat="47.85827" lon="6.7792">
        <ele>756</ele>
        <time>2018-06-23T08:16:44.000Z</time>
      </trkpt>
      <trkpt lat="47.85827" lon="6.7792">
        <ele>756</ele>
        <time>2018-06-23T08:16:45.000Z</time>
      </trkpt>
      <trkpt lat="47.85827" lon="6.7792">
        <ele>756</ele>
        <time>2018-06-23T08:16:46.000Z</time>
      </trkpt>
      <trkpt lat="47.85826" lon="6.7792">
        <ele>756</ele>
        <time>2018-06-23T08:16:47.000Z</time>
      </trkpt>
      <trkpt lat="47.85832" lon="6.77918">
        <ele>752</ele>
        <time>2018-06-23T08:16:48.000Z</time>
      </trkpt>
      <trkpt lat="47.85832" lon="6.77919">
        <ele>753</ele>
        <time>2018-06-23T08:16:49.000Z</time>
      </trkpt>
      <trkpt lat="47.85832" lon="6.7792">
        <ele>754</ele>
        <time>2018-06-23T08:16:50.000Z</time>
      </trkpt>
      <trkpt lat="47.85832" lon="6.77921">
        <ele>754</ele>
        <time>2018-06-23T08:16:51.000Z</time>
      </trkpt>
      <trkpt lat="47.85832" lon="6.77923">
        <ele>755</ele>
        <time>2018-06-23T08:16:52.000Z</time>
      </trkpt>
      <trkpt lat="47.85832" lon="6.77924">
        <ele>756</ele>
        <time>2018-06-23T08:16:53.000Z</time>
      </trkpt>
      <trkpt lat="47.85832" lon="6.77926">
        <ele>756</ele>
        <time>2018-06-23T08:16:54.000Z</time>
      </trkpt>
      <trkpt lat="47.85831" lon="6.77927">
        <ele>757</ele>
        <time>2018-06-23T08:16:55.000Z</time>
      </trkpt>
      <trkpt lat="47.85831" lon="6.77929">
        <ele>758</ele>
        <time>2018-06-23T08:16:56.000Z</time>
      </trkpt>
      <trkpt lat="47.8583" lon="6.7793">
        <ele>758</ele>
        <time>2018-06-23T08:16:57.000Z</time>
      </trkpt>
      <trkpt lat="47.8583" lon="6.77932">
        <ele>759</ele>
        <time>2018-06-23T08:16:58.000Z</time>
      </trkpt>
      <trkpt lat="47.85829" lon="6.77933">
        <ele>759</ele>
        <time>2018-06-23T08:16:59.000Z</time>
      </trkpt>
      <trkpt lat="47.85829" lon="6.77934">
        <ele>760</ele>
        <time>2018-06-23T08:17:00.000Z</time>
      </trkpt>
      <trkpt lat="47.85829" lon="6.77935">
        <ele>760</ele>
        <time>2018-06-23T08:17:01.000Z</time>
      </trkpt>
      <trkpt lat="47.85829" lon="6.77936">
        <ele>760</ele>
        <time>2018-06-23T08:17:02.000Z</time>
      </trkpt>
      <trkpt lat="47.85829" lon="6.77938">
        <ele>761</ele>
        <time>2018-06-23T08:17:03.000Z</time>
      </trkpt>
      <trkpt lat="47.85829" lon="6.77939">
        <ele>761</ele>
        <time>2018-06-23T08:17:04.000Z</time>
      </trkpt>
      <trkpt lat="47.85828" lon="6.7794">
        <ele>761</ele>
        <time>2018-06-23T08:17:05.000Z</time>
      </trkpt>
      <trkpt lat="47.85828" lon="6.77942">
        <ele>761</ele>
        <time>2018-06-23T08:17:06.000Z</time>
      </trkpt>
      <trkpt lat="47.85828" lon="6.77944">
        <ele>762</ele>
        <time>2018-06-23T08:17:07.000Z</time>
      </trkpt>
      <trkpt lat="47.85828" lon="6.77945">
        <ele>762</ele>
        <time>2018-06-23T08:17:08.000Z</time>
      </trkpt>
      <trkpt lat="47.85828" lon="6.77946">
        <ele>762</ele>
        <time>2018-06-23T08:17:09.000Z</time>
      </trkpt>
      <trkpt lat="47.85828" lon="6.77948">
        <ele>762</ele>
        <time>2018-06-23T08:17:10.000Z</time>
      </trkpt>
      <trkpt lat="47.85827" lon="6.77949">
        <ele>762</ele>
        <time>2018-06-23T08:17:11.000Z</time>
      </trkpt>
      <trkpt lat="47.85827" lon="6.77951">
        <ele>762</ele>
        <time>2018-06-23T08:17:12.000Z</time>
      </trkpt>
      <trkpt lat="47.85827" lon="6.77954">
        <ele>763</ele>
        <time>2018-06-23T08:17:13.000Z</time>
      </trkpt>
      <trkpt lat="47.85827" lon="6.77956">
        <ele>763</ele>
        <time>2018-06-23T08:17:14.000Z</time>
      </trkpt>
      <trkpt lat="47.85826" lon="6.77957">
        <ele>763</ele>
        <time>2018-06-23T08:17:15.000Z</time>
      </trkpt>
      <trkpt lat="47.85825" lon="6.77959">
        <ele>763</ele>
        <time>2018-06-23T08:17:16.000Z</time>
      </trkpt>
      <trkpt lat="47.85825" lon="6.77961">
        <ele>763</ele>
        <time>2018-06-23T08:17:17.000Z</time>
      </trkpt>
      <trkpt lat="47.85825" lon="6.77964">
        <ele>763</ele>
        <time>2018-06-23T08:17:18.000Z</time>
      </trkpt>
      <trkpt lat="47.85824" lon="6.77966">
        <ele>762</ele>
        <time>2018-06-23T08:17:19.000Z</time>
      </trkpt>
      <trkpt lat="47.85824" lon="6.77968">
        <ele>762</ele>
        <time>2018-06-23T08:17:20.000Z</time>
      </trkpt>
      <trkpt lat="47.85824" lon="6.77969">
        <ele>762</ele>
        <time>2018-06-23T08:17:21.000Z</time>
      </trkpt>
      <trkpt lat="47.85824" lon="6.7797">
        <ele>762</ele>
        <time>2018-06-23T08:17:22.000Z</time>
      </trkpt>
      <trkpt lat="47.85824" lon="6.77972">
        <ele>762</ele>
        <time>2018-06-23T08:17:23.000Z</time>
      </trkpt>
      <trkpt lat="47.85824" lon="6.77974">
        <ele>761</ele>
        <time>2018-06-23T08:17:24.000Z</time>
      </trkpt>
      <trkpt lat="47.85824" lon="6.77975">
        <ele>761</ele>
        <time>2018-06-23T08:17:25.000Z</time>
      </trkpt>
      <trkpt lat="47.85824" lon="6.77977">
        <ele>761</ele>
        <time>2018-06-23T08:17:26.000Z</time>
      </trkpt>
      <trkpt lat="47.85824" lon="6.77979">
        <ele>760</ele>
        <time>2018-06-23T08:17:27.000Z</time>
      </trkpt>
      <trkpt lat="47.85824" lon="6.77981">
        <ele>760</ele>
        <time>2018-06-23T08:17:28.000Z</time>
      </trkpt>
      <trkpt lat="47.85823" lon="6.77983">
        <ele>760</ele>
        <time>2018-06-23T08:17:29.000Z</time>
      </trkpt>
      <trkpt lat="47.85823" lon="6.77985">
        <ele>759</ele>
        <time>2018-06-23T08:17:30.000Z</time>
      </trkpt>
      <trkpt lat="47.85823" lon="6.77987">
        <ele>758</ele>
        <time>2018-06-23T08:17:31.000Z</time>
      </trkpt>
      <trkpt lat="47.85823" lon="6.77989">
        <ele>758</ele>
        <time>2018-06-23T08:17:32.000Z</time>
      </trkpt>
      <trkpt lat="47.85823" lon="6.77992">
        <ele>757</ele>
        <time>2018-06-23T08:17:33.000Z</time>
      </trkpt>
      <trkpt lat="47.85823" lon="6.77994">
        <ele>757</ele>
        <time>2018-06-23T08:17:34.000Z</time>
      </trkpt>
      <trkpt lat="47.85823" lon="6.77996">
        <ele>756</ele>
        <time>2018-06-23T08:17:35.000Z</time>
      </trkpt>
      <trkpt lat="47.85823" lon="6.77998">
        <ele>756</ele>
        <time>2018-06-23T08:17:36.000Z</time>
      </trkpt>
      <trkpt lat="47.85823" lon="6.78">
        <ele>755</ele>
        <time>2018-06-23T08:17:37.000Z</time>
      </trkpt>
      <trkpt lat="47.85823" lon="6.78002">
        <ele>755</ele>
        <time>2018-06-23T08:17:38.000Z</time>
      </trkpt>
      <trkpt lat="47.85823" lon="6.78004">
        <ele>755</ele>
        <time>2018-06-23T08:17:39.000Z</time>
      </trkpt>
      <trkpt lat="47.85823" lon="6.78005">
        <ele>755</ele>
        <time>2018-06-23T08:17:40.000Z</time>
      </trkpt>
      <trkpt lat="47.85823" lon="6.78007">
        <ele>755</ele>
        <time>2018-06-23T08:17:41.000Z</time>
      </trkpt>
      <trkpt lat="47.85823" lon="6.78008">
        <ele>755</ele>
        <time>2018-06-23T08:17:42.000Z</time>
      </trkpt>
      <trkpt lat="47.85824" lon="6.7801">
        <ele>756</ele>
        <time>2018-06-23T08:17:43.000Z</time>
      </trkpt>
      <trkpt lat="47.85824" lon="6.78011">
        <ele>756</ele>
        <time>2018-06-23T08:17:44.000Z</time>
      </trkpt>
      <trkpt lat="47.85824" lon="6.78013">
        <ele>756</ele>
        <time>2018-06-23T08:17:45.000Z</time>
      </trkpt>
      <trkpt lat="47.85824" lon="6.78015">
        <ele>757</ele>
        <time>2018-06-23T08:17:46.000Z</time>
      </trkpt>
      <trkpt lat="47.85823" lon="6.78016">
        <ele>757</ele>
        <time>2018-06-23T08:17:47.000Z</time>
      </trkpt>
      <trkpt lat="47.85823" lon="6.78017">
        <ele>757</ele>
        <time>2018-06-23T08:17:48.000Z</time>
      </trkpt>
      <trkpt lat="47.85823" lon="6.78019">
        <ele>758</ele>
        <time>2018-06-23T08:17:49.000Z</time>
      </trkpt>
      <trkpt lat="47.85823" lon="6.78021">
        <ele>758</ele>
        <time>2018-06-23T08:17:50.000Z</time>
      </trkpt>
      <trkpt lat="47.85823" lon="6.78022">
        <ele>758</ele>
        <time>2018-06-23T08:17:51.000Z</time>
      </trkpt>
      <trkpt lat="47.85822" lon="6.78024">
        <ele>759</ele>
        <time>2018-06-23T08:17:52.000Z</time>
      </trkpt>
      <trkpt lat="47.85822" lon="6.78026">
        <ele>759</ele>
        <time>2018-06-23T08:17:53.000Z</time>
      </trkpt>
      <trkpt lat="47.85822" lon="6.78028">
        <ele>759</ele>
        <time>2018-06-23T08:17:54.000Z</time>
      </trkpt>
      <trkpt lat="47.85821" lon="6.7803">
        <ele>759</ele>
        <time>2018-06-23T08:17:55.000Z</time>
      </trkpt>
      <trkpt lat="47.85821" lon="6.78031">
        <ele>759</ele>
        <time>2018-06-23T08:17:56.000Z</time>
      </trkpt>
      <trkpt lat="47.85821" lon="6.78033">
        <ele>760</ele>
        <time>2018-06-23T08:17:57.000Z</time>
      </trkpt>
      <trkpt lat="47.85821" lon="6.78035">
        <ele>760</ele>
        <time>2018-06-23T08:17:58.000Z</time>
      </trkpt>
      <trkpt lat="47.85821" lon="6.78037">
        <ele>760</ele>
        <time>2018-06-23T08:17:59.000Z</time>
      </trkpt>
      <trkpt lat="47.85821" lon="6.78038">
        <ele>760</ele>
        <time>2018-06-23T08:18:00.000Z</time>
      </trkpt>
      <trkpt lat="47.85821" lon="6.7804">
        <ele>760</ele>
        <time>2018-06-23T08:18:01.000Z</time>
      </trkpt>
      <trkpt lat="47.85821" lon="6.78041">
        <ele>760</ele>
        <time>2018-06-23T08:18:02.000Z</time>
      </trkpt>
      <trkpt lat="47.85822" lon="6.78043">
        <ele>760</ele>
        <time>2018-06-23T08:18:03.000Z</time>
      </trkpt>
      <trkpt lat="47.85822" lon="6.78044">
        <ele>760</ele>
        <time>2018-06-23T08:18:04.000Z</time>
      </trkpt>
      <trkpt lat="47.85822" lon="6.78046">
        <ele>759</ele>
        <time>2018-06-23T08:18:05.000Z</time>
      </trkpt>
      <trkpt lat="47.85823" lon="6.78048">
        <ele>759</ele>
        <time>2018-06-23T08:18:06.000Z</time>
      </trkpt>
      <trkpt lat="47.85823" lon="6.78049">
        <ele>759</ele>
        <time>2018-06-23T08:18:07.000Z</time>
      </trkpt>
      <trkpt lat="47.85823" lon="6.78051">
        <ele>759</ele>
        <time>2018-06-23T08:18:08.000Z</time>
      </trkpt>
      <trkpt lat="47.85823" lon="6.78052">
        <ele>759</ele>
        <time>2018-06-23T08:18:09.000Z</time>
      </trkpt>
      <trkpt lat="47.85823" lon="6.78054">
        <ele>759</ele>
        <time>2018-06-23T08:18:10.000Z</time>
      </trkpt>
      <trkpt lat="47.85822" lon="6.78055">
        <ele>759</ele>
        <time>2018-06-23T08:18:11.000Z</time>
      </trkpt>
      <trkpt lat="47.85822" lon="6.78056">
        <ele>759</ele>
        <time>2018-06-23T08:18:12.000Z</time>
      </trkpt>
      <trkpt lat="47.85822" lon="6.78058">
        <ele>758</ele>
        <time>2018-06-23T08:18:13.000Z</time>
      </trkpt>
      <trkpt lat="47.85822" lon="6.78059">
        <ele>758</ele>
        <time>2018-06-23T08:18:14.000Z</time>
      </trkpt>
      <trkpt lat="47.85822" lon="6.78061">
        <ele>758</ele>
        <time>2018-06-23T08:18:15.000Z</time>
      </trkpt>
      <trkpt lat="47.85822" lon="6.78063">
        <ele>758</ele>
        <time>2018-06-23T08:18:16.000Z</time>
      </trkpt>
      <trkpt lat="47.85821" lon="6.78064">
        <ele>758</ele>
        <time>2018-06-23T08:18:17.000Z</time>
      </trkpt>
      <trkpt lat="47.85821" lon="6.78065">
        <ele>757</ele>
        <time>2018-06-23T08:18:18.000Z</time>
      </trkpt>
      <trkpt lat="47.85821" lon="6.78067">
        <ele>757</ele>
        <time>2018-06-23T08:18:19.000Z</time>
      </trkpt>
      <trkpt lat="47.85821" lon="6.78069">
        <ele>757</ele>
        <time>2018-06-23T08:18:20.000Z</time>
      </trkpt>
      <trkpt lat="47.8582" lon="6.78071">
        <ele>757</ele>
        <time>2018-06-23T08:18:21.000Z</time>
      </trkpt>
      <trkpt lat="47.8582" lon="6.78072">
        <ele>757</ele>
        <time>2018-06-23T08:18:22.000Z</time>
      </trkpt>
      <trkpt lat="47.85819" lon="6.78074">
        <ele>756</ele>
        <time>2018-06-23T08:18:23.000Z</time>
      </trkpt>
      <trkpt lat="47.85819" lon="6.78075">
        <ele>756</ele>
        <time>2018-06-23T08:18:24.000Z</time>
      </trkpt>
      <trkpt lat="47.85818" lon="6.78077">
        <ele>756</ele>
        <time>2018-06-23T08:18:25.000Z</time>
      </trkpt>
      <trkpt lat="47.85818" lon="6.78079">
        <ele>756</ele>
        <time>2018-06-23T08:18:26.000Z</time>
      </trkpt>
      <trkpt lat="47.85817" lon="6.7808">
        <ele>756</ele>
        <time>2018-06-23T08:18:27.000Z</time>
      </trkpt>
      <trkpt lat="47.85817" lon="6.78082">
        <ele>756</ele>
        <time>2018-06-23T08:18:28.000Z</time>
      </trkpt>
      <trkpt lat="47.85816" lon="6.78083">
        <ele>757</ele>
        <time>2018-06-23T08:18:29.000Z</time>
      </trkpt>
      <trkpt lat="47.85816" lon="6.78085">
        <ele>755</ele>
        <time>2018-06-23T08:18:30.000Z</time>
      </trkpt>
      <trkpt lat="47.85815" lon="6.78086">
        <ele>755</ele>
        <time>2018-06-23T08:18:31.000Z</time>
      </trkpt>
      <trkpt lat="47.85815" lon="6.78088">
        <ele>755</ele>
        <time>2018-06-23T08:18:32.000Z</time>
      </trkpt>
      <trkpt lat="47.85814" lon="6.78089">
        <ele>755</ele>
        <time>2018-06-23T08:18:33.000Z</time>
      </trkpt>
      <trkpt lat="47.85814" lon="6.78091">
        <ele>756</ele>
        <time>2018-06-23T08:18:34.000Z</time>
      </trkpt>
      <trkpt lat="47.85813" lon="6.78092">
        <ele>756</ele>
        <time>2018-06-23T08:18:35.000Z</time>
      </trkpt>
      <trkpt lat="47.85812" lon="6.78094">
        <ele>756</ele>
        <time>2018-06-23T08:18:36.000Z</time>
      </trkpt>
      <trkpt lat="47.85812" lon="6.78095">
        <ele>756</ele>
        <time>2018-06-23T08:18:37.000Z</time>
      </trkpt>
      <trkpt lat="47.85811" lon="6.78096">
        <ele>757</ele>
        <time>2018-06-23T08:18:38.000Z</time>
      </trkpt>
      <trkpt lat="47.85811" lon="6.78097">
        <ele>757</ele>
        <time>2018-06-23T08:18:39.000Z</time>
      </trkpt>
      <trkpt lat="47.8581" lon="6.78099">
        <ele>757</ele>
        <time>2018-06-23T08:18:40.000Z</time>
      </trkpt>
      <trkpt lat="47.85809" lon="6.781">
        <ele>757</ele>
        <time>2018-06-23T08:18:41.000Z</time>
      </trkpt>
      <trkpt lat="47.85808" lon="6.78101">
        <ele>757</ele>
        <time>2018-06-23T08:18:42.000Z</time>
      </trkpt>
      <trkpt lat="47.85808" lon="6.78102">
        <ele>758</ele>
        <time>2018-06-23T08:18:43.000Z</time>
      </trkpt>
      <trkpt lat="47.85807" lon="6.78103">
        <ele>758</ele>
        <time>2018-06-23T08:18:44.000Z</time>
      </trkpt>
      <trkpt lat="47.85806" lon="6.78105">
        <ele>758</ele>
        <time>2018-06-23T08:18:45.000Z</time>
      </trkpt>
      <trkpt lat="47.85806" lon="6.78106">
        <ele>758</ele>
        <time>2018-06-23T08:18:46.000Z</time>
      </trkpt>
      <trkpt lat="47.85805" lon="6.78107">
        <ele>758</ele>
        <time>2018-06-23T08:18:47.000Z</time>
      </trkpt>
      <trkpt lat="47.85804" lon="6.78108">
        <ele>758</ele>
        <time>2018-06-23T08:18:48.000Z</time>
      </trkpt>
      <trkpt lat="47.85804" lon="6.7811">
        <ele>759</ele>
        <time>2018-06-23T08:18:49.000Z</time>
      </trkpt>
      <trkpt lat="47.85803" lon="6.78112">
        <ele>759</ele>
        <time>2018-06-23T08:18:50.000Z</time>
      </trkpt>
      <trkpt lat="47.85802" lon="6.78113">
        <ele>759</ele>
        <time>2018-06-23T08:18:51.000Z</time>
      </trkpt>
      <trkpt lat="47.85801" lon="6.78114">
        <ele>759</ele>
        <time>2018-06-23T08:18:52.000Z</time>
      </trkpt>
      <trkpt lat="47.858" lon="6.78116">
        <ele>759</ele>
        <time>2018-06-23T08:18:53.000Z</time>
      </trkpt>
      <trkpt lat="47.85799" lon="6.78118">
        <ele>759</ele>
        <time>2018-06-23T08:18:54.000Z</time>
      </trkpt>
      <trkpt lat="47.85798" lon="6.78119">
        <ele>759</ele>
        <time>2018-06-23T08:18:55.000Z</time>
      </trkpt>
      <trkpt lat="47.85797" lon="6.78121">
        <ele>759</ele>
        <time>2018-06-23T08:18:56.000Z</time>
      </trkpt>
      <trkpt lat="47.85797" lon="6.78122">
        <ele>760</ele>
        <time>2018-06-23T08:18:57.000Z</time>
      </trkpt>
      <trkpt lat="47.85796" lon="6.78123">
        <ele>760</ele>
        <time>2018-06-23T08:18:58.000Z</time>
      </trkpt>
      <trkpt lat="47.85795" lon="6.78125">
        <ele>760</ele>
        <time>2018-06-23T08:18:59.000Z</time>
      </trkpt>
      <trkpt lat="47.85794" lon="6.78126">
        <ele>760</ele>
        <time>2018-06-23T08:19:00.000Z</time>
      </trkpt>
      <trkpt lat="47.85793" lon="6.78127">
        <ele>760</ele>
        <time>2018-06-23T08:19:01.000Z</time>
      </trkpt>
      <trkpt lat="47.85792" lon="6.78128">
        <ele>760</ele>
        <time>2018-06-23T08:19:02.000Z</time>
      </trkpt>
      <trkpt lat="47.85791" lon="6.78129">
        <ele>760</ele>
        <time>2018-06-23T08:19:03.000Z</time>
      </trkpt>
      <trkpt lat="47.85791" lon="6.7813">
        <ele>760</ele>
        <time>2018-06-23T08:19:04.000Z</time>
      </trkpt>
      <trkpt lat="47.8579" lon="6.78131">
        <ele>760</ele>
        <time>2018-06-23T08:19:05.000Z</time>
      </trkpt>
      <trkpt lat="47.85789" lon="6.78133">
        <ele>760</ele>
        <time>2018-06-23T08:19:06.000Z</time>
      </trkpt>
      <trkpt lat="47.85788" lon="6.78134">
        <ele>761</ele>
        <time>2018-06-23T08:19:07.000Z</time>
      </trkpt>
      <trkpt lat="47.85787" lon="6.78136">
        <ele>761</ele>
        <time>2018-06-23T08:19:08.000Z</time>
      </trkpt>
      <trkpt lat="47.85786" lon="6.78137">
        <ele>761</ele>
        <time>2018-06-23T08:19:09.000Z</time>
      </trkpt>
      <trkpt lat="47.85785" lon="6.78138">
        <ele>761</ele>
        <time>2018-06-23T08:19:10.000Z</time>
      </trkpt>
      <trkpt lat="47.85784" lon="6.7814">
        <ele>761</ele>
        <time>2018-06-23T08:19:11.000Z</time>
      </trkpt>
      <trkpt lat="47.85783" lon="6.78141">
        <ele>761</ele>
        <time>2018-06-23T08:19:12.000Z</time>
      </trkpt>
      <trkpt lat="47.85782" lon="6.78142">
        <ele>761</ele>
        <time>2018-06-23T08:19:13.000Z</time>
      </trkpt>
      <trkpt lat="47.85781" lon="6.78143">
        <ele>761</ele>
        <time>2018-06-23T08:19:14.000Z</time>
      </trkpt>
      <trkpt lat="47.8578" lon="6.78144">
        <ele>762</ele>
        <time>2018-06-23T08:19:15.000Z</time>
      </trkpt>
      <trkpt lat="47.85779" lon="6.78145">
        <ele>762</ele>
        <time>2018-06-23T08:19:16.000Z</time>
      </trkpt>
      <trkpt lat="47.85778" lon="6.78146">
        <ele>762</ele>
        <time>2018-06-23T08:19:17.000Z</time>
      </trkpt>
      <trkpt lat="47.85777" lon="6.78147">
        <ele>762</ele>
        <time>2018-06-23T08:19:18.000Z</time>
      </trkpt>
      <trkpt lat="47.85776" lon="6.78148">
        <ele>762</ele>
        <time>2018-06-23T08:19:19.000Z</time>
      </trkpt>
      <trkpt lat="47.85775" lon="6.78149">
        <ele>762</ele>
        <time>2018-06-23T08:19:20.000Z</time>
      </trkpt>
      <trkpt lat="47.85774" lon="6.7815">
        <ele>763</ele>
        <time>2018-06-23T08:19:21.000Z</time>
      </trkpt>
      <trkpt lat="47.85774" lon="6.78151">
        <ele>763</ele>
        <time>2018-06-23T08:19:22.000Z</time>
      </trkpt>
      <trkpt lat="47.85773" lon="6.78152">
        <ele>763</ele>
        <time>2018-06-23T08:19:23.000Z</time>
      </trkpt>
      <trkpt lat="47.85773" lon="6.78153">
        <ele>763</ele>
        <time>2018-06-23T08:19:24.000Z</time>
      </trkpt>
      <trkpt lat="47.85772" lon="6.78154">
        <ele>763</ele>
        <time>2018-06-23T08:19:25.000Z</time>
      </trkpt>
      <trkpt lat="47.85771" lon="6.78155">
        <ele>763</ele>
        <time>2018-06-23T08:19:26.000Z</time>
      </trkpt>
      <trkpt lat="47.8577" lon="6.78156">
        <ele>764</ele>
        <time>2018-06-23T08:19:27.000Z</time>
      </trkpt>
      <trkpt lat="47.85769" lon="6.78157">
        <ele>764</ele>
        <time>2018-06-23T08:19:28.000Z</time>
      </trkpt>
      <trkpt lat="47.85769" lon="6.78158">
        <ele>764</ele>
        <time>2018-06-23T08:19:29.000Z</time>
      </trkpt>
      <trkpt lat="47.85768" lon="6.78159">
        <ele>764</ele>
        <time>2018-06-23T08:19:30.000Z</time>
      </trkpt>
      <trkpt lat="47.85767" lon="6.7816">
        <ele>764</ele>
        <time>2018-06-23T08:19:31.000Z</time>
      </trkpt>
      <trkpt lat="47.85766" lon="6.78161">
        <ele>764</ele>
        <time>2018-06-23T08:19:32.000Z</time>
      </trkpt>
      <trkpt lat="47.85766" lon="6.78162">
        <ele>765</ele>
        <time>2018-06-23T08:19:33.000Z</time>
      </trkpt>
      <trkpt lat="47.85765" lon="6.78164">
        <ele>765</ele>
        <time>2018-06-23T08:19:34.000Z</time>
      </trkpt>
      <trkpt lat="47.85764" lon="6.78165">
        <ele>765</ele>
        <time>2018-06-23T08:19:35.000Z</time>
      </trkpt>
      <trkpt lat="47.85763" lon="6.78166">
        <ele>765</ele>
        <time>2018-06-23T08:19:36.000Z</time>
      </trkpt>
      <trkpt lat="47.85763" lon="6.78167">
        <ele>762</ele>
        <time>2018-06-23T08:19:37.000Z</time>
      </trkpt>
      <trkpt lat="47.85762" lon="6.78168">
        <ele>762</ele>
        <time>2018-06-23T08:19:38.000Z</time>
      </trkpt>
      <trkpt lat="47.85761" lon="6.78169">
        <ele>763</ele>
        <time>2018-06-23T08:19:39.000Z</time>
      </trkpt>
      <trkpt lat="47.8576" lon="6.7817">
        <ele>763</ele>
        <time>2018-06-23T08:19:40.000Z</time>
      </trkpt>
      <trkpt lat="47.8576" lon="6.78171">
        <ele>763</ele>
        <time>2018-06-23T08:19:41.000Z</time>
      </trkpt>
      <trkpt lat="47.85759" lon="6.78172">
        <ele>763</ele>
        <time>2018-06-23T08:19:42.000Z</time>
      </trkpt>
      <trkpt lat="47.85759" lon="6.78172">
        <ele>763</ele>
        <time>2018-06-23T08:19:43.000Z</time>
      </trkpt>
      <trkpt lat="47.85758" lon="6.78173">
        <ele>763</ele>
        <time>2018-06-23T08:19:44.000Z</time>
      </trkpt>
      <trkpt lat="47.85757" lon="6.78174">
        <ele>763</ele>
        <time>2018-06-23T08:19:45.000Z</time>
      </trkpt>
      <trkpt lat="47.85756" lon="6.78175">
        <ele>763</ele>
        <time>2018-06-23T08:19:46.000Z</time>
      </trkpt>
      <trkpt lat="47.85756" lon="6.78177">
        <ele>763</ele>
        <time>2018-06-23T08:19:47.000Z</time>
      </trkpt>
      <trkpt lat="47.85755" lon="6.78178">
        <ele>762</ele>
        <time>2018-06-23T08:19:48.000Z</time>
      </trkpt>
      <trkpt lat="47.85754" lon="6.78179">
        <ele>762</ele>
        <time>2018-06-23T08:19:49.000Z</time>
      </trkpt>
      <trkpt lat="47.85753" lon="6.7818">
        <ele>762</ele>
        <time>2018-06-23T08:19:50.000Z</time>
      </trkpt>
      <trkpt lat="47.85752" lon="6.7818">
        <ele>762</ele>
        <time>2018-06-23T08:19:51.000Z</time>
      </trkpt>
      <trkpt lat="47.85751" lon="6.78181">
        <ele>762</ele>
        <time>2018-06-23T08:19:52.000Z</time>
      </trkpt>
      <trkpt lat="47.8575" lon="6.78182">
        <ele>772</ele>
        <time>2018-06-23T08:19:53.000Z</time>
      </trkpt>
      <trkpt lat="47.85749" lon="6.78183">
        <ele>772</ele>
        <time>2018-06-23T08:19:54.000Z</time>
      </trkpt>
      <trkpt lat="47.85748" lon="6.78184">
        <ele>772</ele>
        <time>2018-06-23T08:19:55.000Z</time>
      </trkpt>
      <trkpt lat="47.85747" lon="6.78184">
        <ele>772</ele>
        <time>2018-06-23T08:19:56.000Z</time>
      </trkpt>
      <trkpt lat="47.85746" lon="6.78185">
        <ele>772</ele>
        <time>2018-06-23T08:19:57.000Z</time>
      </trkpt>
      <trkpt lat="47.85745" lon="6.78185">
        <ele>772</ele>
        <time>2018-06-23T08:19:58.000Z</time>
      </trkpt>
      <trkpt lat="47.85744" lon="6.78186">
        <ele>772</ele>
        <time>2018-06-23T08:19:59.000Z</time>
      </trkpt>
      <trkpt lat="47.85743" lon="6.78187">
        <ele>773</ele>
        <time>2018-06-23T08:20:00.000Z</time>
      </trkpt>
      <trkpt lat="47.85742" lon="6.78188">
        <ele>773</ele>
        <time>2018-06-23T08:20:01.000Z</time>
      </trkpt>
      <trkpt lat="47.85741" lon="6.78189">
        <ele>773</ele>
        <time>2018-06-23T08:20:02.000Z</time>
      </trkpt>
      <trkpt lat="47.8574" lon="6.7819">
        <ele>773</ele>
        <time>2018-06-23T08:20:03.000Z</time>
      </trkpt>
      <trkpt lat="47.85738" lon="6.78191">
        <ele>773</ele>
        <time>2018-06-23T08:20:04.000Z</time>
      </trkpt>
      <trkpt lat="47.85737" lon="6.78191">
        <ele>773</ele>
        <time>2018-06-23T08:20:05.000Z</time>
      </trkpt>
      <trkpt lat="47.85736" lon="6.78192">
        <ele>773</ele>
        <time>2018-06-23T08:20:06.000Z</time>
      </trkpt>
      <trkpt lat="47.85735" lon="6.78193">
        <ele>773</ele>
        <time>2018-06-23T08:20:07.000Z</time>
      </trkpt>
      <trkpt lat="47.85734" lon="6.78193">
        <ele>774</ele>
        <time>2018-06-23T08:20:08.000Z</time>
      </trkpt>
      <trkpt lat="47.85733" lon="6.78194">
        <ele>774</ele>
        <time>2018-06-23T08:20:09.000Z</time>
      </trkpt>
      <trkpt lat="47.85732" lon="6.78194">
        <ele>774</ele>
        <time>2018-06-23T08:20:10.000Z</time>
      </trkpt>
      <trkpt lat="47.85731" lon="6.78195">
        <ele>774</ele>
        <time>2018-06-23T08:20:11.000Z</time>
      </trkpt>
      <trkpt lat="47.8573" lon="6.78195">
        <ele>774</ele>
        <time>2018-06-23T08:20:12.000Z</time>
      </trkpt>
      <trkpt lat="47.85729" lon="6.78196">
        <ele>774</ele>
        <time>2018-06-23T08:20:13.000Z</time>
      </trkpt>
      <trkpt lat="47.85728" lon="6.78196">
        <ele>774</ele>
        <time>2018-06-23T08:20:14.000Z</time>
      </trkpt>
      <trkpt lat="47.85727" lon="6.78197">
        <ele>774</ele>
        <time>2018-06-23T08:20:15.000Z</time>
      </trkpt>
      <trkpt lat="47.85726" lon="6.78197">
        <ele>774</ele>
        <time>2018-06-23T08:20:16.000Z</time>
      </trkpt>
      <trkpt lat="47.85725" lon="6.78197">
        <ele>775</ele>
        <time>2018-06-23T08:20:17.000Z</time>
      </trkpt>
      <trkpt lat="47.85724" lon="6.78198">
        <ele>775</ele>
        <time>2018-06-23T08:20:18.000Z</time>
      </trkpt>
      <trkpt lat="47.85723" lon="6.78198">
        <ele>775</ele>
        <time>2018-06-23T08:20:19.000Z</time>
      </trkpt>
      <trkpt lat="47.85722" lon="6.78199">
        <ele>775</ele>
        <time>2018-06-23T08:20:20.000Z</time>
      </trkpt>
      <trkpt lat="47.85721" lon="6.78199">
        <ele>775</ele>
        <time>2018-06-23T08:20:21.000Z</time>
      </trkpt>
      <trkpt lat="47.8572" lon="6.78199">
        <ele>775</ele>
        <time>2018-06-23T08:20:22.000Z</time>
      </trkpt>
      <trkpt lat="47.85719" lon="6.782">
        <ele>775</ele>
        <time>2018-06-23T08:20:23.000Z</time>
      </trkpt>
      <trkpt lat="47.85718" lon="6.78201">
        <ele>775</ele>
        <time>2018-06-23T08:20:24.000Z</time>
      </trkpt>
      <trkpt lat="47.85717" lon="6.78201">
        <ele>775</ele>
        <time>2018-06-23T08:20:25.000Z</time>
      </trkpt>
      <trkpt lat="47.85716" lon="6.78202">
        <ele>776</ele>
        <time>2018-06-23T08:20:26.000Z</time>
      </trkpt>
      <trkpt lat="47.85715" lon="6.78202">
        <ele>776</ele>
        <time>2018-06-23T08:20:27.000Z</time>
      </trkpt>
      <trkpt lat="47.85714" lon="6.78203">
        <ele>776</ele>
        <time>2018-06-23T08:20:28.000Z</time>
      </trkpt>
      <trkpt lat="47.85713" lon="6.78203">
        <ele>776</ele>
        <time>2018-06-23T08:20:29.000Z</time>
      </trkpt>
      <trkpt lat="47.85712" lon="6.78203">
        <ele>776</ele>
        <time>2018-06-23T08:20:30.000Z</time>
      </trkpt>
      <trkpt lat="47.85711" lon="6.78204">
        <ele>776</ele>
        <time>2018-06-23T08:20:31.000Z</time>
      </trkpt>
      <trkpt lat="47.8571" lon="6.78204">
        <ele>776</ele>
        <time>2018-06-23T08:20:32.000Z</time>
      </trkpt>
      <trkpt lat="47.85709" lon="6.78205">
        <ele>776</ele>
        <time>2018-06-23T08:20:33.000Z</time>
      </trkpt>
      <trkpt lat="47.85708" lon="6.78206">
        <ele>777</ele>
        <time>2018-06-23T08:20:34.000Z</time>
      </trkpt>
      <trkpt lat="47.85707" lon="6.78207">
        <ele>777</ele>
        <time>2018-06-23T08:20:35.000Z</time>
      </trkpt>
      <trkpt lat="47.85706" lon="6.78208">
        <ele>777</ele>
        <time>2018-06-23T08:20:36.000Z</time>
      </trkpt>
      <trkpt lat="47.85705" lon="6.78209">
        <ele>777</ele>
        <time>2018-06-23T08:20:37.000Z</time>
      </trkpt>
      <trkpt lat="47.85705" lon="6.78209">
        <ele>777</ele>
        <time>2018-06-23T08:20:38.000Z</time>
      </trkpt>
      <trkpt lat="47.85704" lon="6.78211">
        <ele>777</ele>
        <time>2018-06-23T08:20:39.000Z</time>
      </trkpt>
      <trkpt lat="47.85703" lon="6.78212">
        <ele>777</ele>
        <time>2018-06-23T08:20:40.000Z</time>
      </trkpt>
      <trkpt lat="47.85702" lon="6.78213">
        <ele>777</ele>
        <time>2018-06-23T08:20:41.000Z</time>
      </trkpt>
      <trkpt lat="47.85701" lon="6.78215">
        <ele>777</ele>
        <time>2018-06-23T08:20:42.000Z</time>
      </trkpt>
      <trkpt lat="47.857" lon="6.78216">
        <ele>777</ele>
        <time>2018-06-23T08:20:43.000Z</time>
      </trkpt>
      <trkpt lat="47.85699" lon="6.78217">
        <ele>777</ele>
        <time>2018-06-23T08:20:44.000Z</time>
      </trkpt>
      <trkpt lat="47.85699" lon="6.78219">
        <ele>777</ele>
        <time>2018-06-23T08:20:45.000Z</time>
      </trkpt>
      <trkpt lat="47.85698" lon="6.7822">
        <ele>777</ele>
        <time>2018-06-23T08:20:46.000Z</time>
      </trkpt>
      <trkpt lat="47.85698" lon="6.78221">
        <ele>777</ele>
        <time>2018-06-23T08:20:47.000Z</time>
      </trkpt>
      <trkpt lat="47.85697" lon="6.78223">
        <ele>777</ele>
        <time>2018-06-23T08:20:48.000Z</time>
      </trkpt>
      <trkpt lat="47.85697" lon="6.78224">
        <ele>777</ele>
        <time>2018-06-23T08:20:49.000Z</time>
      </trkpt>
      <trkpt lat="47.85696" lon="6.78226">
        <ele>777</ele>
        <time>2018-06-23T08:20:50.000Z</time>
      </trkpt>
      <trkpt lat="47.85696" lon="6.78227">
        <ele>777</ele>
        <time>2018-06-23T08:20:51.000Z</time>
      </trkpt>
      <trkpt lat="47.85696" lon="6.78229">
        <ele>777</ele>
        <time>2018-06-23T08:20:52.000Z</time>
      </trkpt>
      <trkpt lat="47.85695" lon="6.7823">
        <ele>777</ele>
        <time>2018-06-23T08:20:53.000Z</time>
      </trkpt>
      <trkpt lat="47.85695" lon="6.78231">
        <ele>777</ele>
        <time>2018-06-23T08:20:54.000Z</time>
      </trkpt>
      <trkpt lat="47.85695" lon="6.78232">
        <ele>777</ele>
        <time>2018-06-23T08:20:55.000Z</time>
      </trkpt>
      <trkpt lat="47.85694" lon="6.78234">
        <ele>777</ele>
        <time>2018-06-23T08:20:56.000Z</time>
      </trkpt>
      <trkpt lat="47.85694" lon="6.78236">
        <ele>777</ele>
        <time>2018-06-23T08:20:57.000Z</time>
      </trkpt>
      <trkpt lat="47.85694" lon="6.78237">
        <ele>777</ele>
        <time>2018-06-23T08:20:58.000Z</time>
      </trkpt>
      <trkpt lat="47.85693" lon="6.78238">
        <ele>777</ele>
        <time>2018-06-23T08:20:59.000Z</time>
      </trkpt>
      <trkpt lat="47.85693" lon="6.7824">
        <ele>777</ele>
        <time>2018-06-23T08:21:00.000Z</time>
      </trkpt>
      <trkpt lat="47.85692" lon="6.78241">
        <ele>777</ele>
        <time>2018-06-23T08:21:01.000Z</time>
      </trkpt>
      <trkpt lat="47.85692" lon="6.78242">
        <ele>777</ele>
        <time>2018-06-23T08:21:02.000Z</time>
      </trkpt>
      <trkpt lat="47.85691" lon="6.78244">
        <ele>777</ele>
        <time>2018-06-23T08:21:03.000Z</time>
      </trkpt>
      <trkpt lat="47.85691" lon="6.78245">
        <ele>777</ele>
        <time>2018-06-23T08:21:04.000Z</time>
      </trkpt>
      <trkpt lat="47.85691" lon="6.78247">
        <ele>777</ele>
        <time>2018-06-23T08:21:05.000Z</time>
      </trkpt>
      <trkpt lat="47.8569" lon="6.78248">
        <ele>777</ele>
        <time>2018-06-23T08:21:06.000Z</time>
      </trkpt>
      <trkpt lat="47.8569" lon="6.78249">
        <ele>777</ele>
        <time>2018-06-23T08:21:07.000Z</time>
      </trkpt>
      <trkpt lat="47.85689" lon="6.78251">
        <ele>769</ele>
        <time>2018-06-23T08:21:08.000Z</time>
      </trkpt>
      <trkpt lat="47.85689" lon="6.78253">
        <ele>769</ele>
        <time>2018-06-23T08:21:09.000Z</time>
      </trkpt>
      <trkpt lat="47.85688" lon="6.78254">
        <ele>769</ele>
        <time>2018-06-23T08:21:10.000Z</time>
      </trkpt>
      <trkpt lat="47.85688" lon="6.78256">
        <ele>770</ele>
        <time>2018-06-23T08:21:11.000Z</time>
      </trkpt>
      <trkpt lat="47.85687" lon="6.78257">
        <ele>770</ele>
        <time>2018-06-23T08:21:12.000Z</time>
      </trkpt>
      <trkpt lat="47.85686" lon="6.78259">
        <ele>770</ele>
        <time>2018-06-23T08:21:13.000Z</time>
      </trkpt>
      <trkpt lat="47.85686" lon="6.7826">
        <ele>770</ele>
        <time>2018-06-23T08:21:14.000Z</time>
      </trkpt>
      <trkpt lat="47.85685" lon="6.78262">
        <ele>770</ele>
        <time>2018-06-23T08:21:15.000Z</time>
      </trkpt>
      <trkpt lat="47.85685" lon="6.78263">
        <ele>769</ele>
        <time>2018-06-23T08:21:16.000Z</time>
      </trkpt>
      <trkpt lat="47.85684" lon="6.78264">
        <ele>769</ele>
        <time>2018-06-23T08:21:17.000Z</time>
      </trkpt>
      <trkpt lat="47.85683" lon="6.78265">
        <ele>769</ele>
        <time>2018-06-23T08:21:18.000Z</time>
      </trkpt>
      <trkpt lat="47.85682" lon="6.78266">
        <ele>769</ele>
        <time>2018-06-23T08:21:19.000Z</time>
      </trkpt>
      <trkpt lat="47.85682" lon="6.78268">
        <ele>769</ele>
        <time>2018-06-23T08:21:20.000Z</time>
      </trkpt>
      <trkpt lat="47.85682" lon="6.78269">
        <ele>769</ele>
        <time>2018-06-23T08:21:21.000Z</time>
      </trkpt>
      <trkpt lat="47.85681" lon="6.7827">
        <ele>769</ele>
        <time>2018-06-23T08:21:22.000Z</time>
      </trkpt>
      <trkpt lat="47.85681" lon="6.78271">
        <ele>769</ele>
        <time>2018-06-23T08:21:23.000Z</time>
      </trkpt>
      <trkpt lat="47.8568" lon="6.78272">
        <ele>768</ele>
        <time>2018-06-23T08:21:24.000Z</time>
      </trkpt>
      <trkpt lat="47.85679" lon="6.78274">
        <ele>768</ele>
        <time>2018-06-23T08:21:25.000Z</time>
      </trkpt>
      <trkpt lat="47.85678" lon="6.78276">
        <ele>768</ele>
        <time>2018-06-23T08:21:26.000Z</time>
      </trkpt>
      <trkpt lat="47.85678" lon="6.78277">
        <ele>768</ele>
        <time>2018-06-23T08:21:27.000Z</time>
      </trkpt>
      <trkpt lat="47.85677" lon="6.78278">
        <ele>768</ele>
        <time>2018-06-23T08:21:28.000Z</time>
      </trkpt>
      <trkpt lat="47.85676" lon="6.78279">
        <ele>767</ele>
        <time>2018-06-23T08:21:29.000Z</time>
      </trkpt>
      <trkpt lat="47.85675" lon="6.78281">
        <ele>767</ele>
        <time>2018-06-23T08:21:30.000Z</time>
      </trkpt>
      <trkpt lat="47.85674" lon="6.78282">
        <ele>767</ele>
        <time>2018-06-23T08:21:31.000Z</time>
      </trkpt>
      <trkpt lat="47.85674" lon="6.78283">
        <ele>767</ele>
        <time>2018-06-23T08:21:32.000Z</time>
      </trkpt>
      <trkpt lat="47.85673" lon="6.78284">
        <ele>767</ele>
        <time>2018-06-23T08:21:33.000Z</time>
      </trkpt>
      <trkpt lat="47.85673" lon="6.78286">
        <ele>767</ele>
        <time>2018-06-23T08:21:34.000Z</time>
      </trkpt>
      <trkpt lat="47.85672" lon="6.78287">
        <ele>766</ele>
        <time>2018-06-23T08:21:35.000Z</time>
      </trkpt>
      <trkpt lat="47.85671" lon="6.78288">
        <ele>766</ele>
        <time>2018-06-23T08:21:36.000Z</time>
      </trkpt>
      <trkpt lat="47.85671" lon="6.7829">
        <ele>766</ele>
        <time>2018-06-23T08:21:37.000Z</time>
      </trkpt>
      <trkpt lat="47.8567" lon="6.78291">
        <ele>766</ele>
        <time>2018-06-23T08:21:38.000Z</time>
      </trkpt>
      <trkpt lat="47.85669" lon="6.78293">
        <ele>766</ele>
        <time>2018-06-23T08:21:39.000Z</time>
      </trkpt>
      <trkpt lat="47.85669" lon="6.78294">
        <ele>765</ele>
        <time>2018-06-23T08:21:40.000Z</time>
      </trkpt>
      <trkpt lat="47.85668" lon="6.78296">
        <ele>765</ele>
        <time>2018-06-23T08:21:41.000Z</time>
      </trkpt>
      <trkpt lat="47.85667" lon="6.78297">
        <ele>782</ele>
        <time>2018-06-23T08:21:42.000Z</time>
      </trkpt>
      <trkpt lat="47.85666" lon="6.78299">
        <ele>782</ele>
        <time>2018-06-23T08:21:43.000Z</time>
      </trkpt>
      <trkpt lat="47.85665" lon="6.78301">
        <ele>781</ele>
        <time>2018-06-23T08:21:44.000Z</time>
      </trkpt>
      <trkpt lat="47.85664" lon="6.78303">
        <ele>781</ele>
        <time>2018-06-23T08:21:45.000Z</time>
      </trkpt>
      <trkpt lat="47.85663" lon="6.78304">
        <ele>781</ele>
        <time>2018-06-23T08:21:46.000Z</time>
      </trkpt>
      <trkpt lat="47.85662" lon="6.78305">
        <ele>780</ele>
        <time>2018-06-23T08:21:47.000Z</time>
      </trkpt>
      <trkpt lat="47.85662" lon="6.78307">
        <ele>780</ele>
        <time>2018-06-23T08:21:48.000Z</time>
      </trkpt>
      <trkpt lat="47.8566" lon="6.78309">
        <ele>780</ele>
        <time>2018-06-23T08:21:49.000Z</time>
      </trkpt>
      <trkpt lat="47.8566" lon="6.7831">
        <ele>779</ele>
        <time>2018-06-23T08:21:50.000Z</time>
      </trkpt>
      <trkpt lat="47.85659" lon="6.78312">
        <ele>779</ele>
        <time>2018-06-23T08:21:51.000Z</time>
      </trkpt>
      <trkpt lat="47.85658" lon="6.78313">
        <ele>779</ele>
        <time>2018-06-23T08:21:52.000Z</time>
      </trkpt>
      <trkpt lat="47.85657" lon="6.78314">
        <ele>779</ele>
        <time>2018-06-23T08:21:53.000Z</time>
      </trkpt>
      <trkpt lat="47.85656" lon="6.78315">
        <ele>779</ele>
        <time>2018-06-23T08:21:54.000Z</time>
      </trkpt>
      <trkpt lat="47.85655" lon="6.78316">
        <ele>779</ele>
        <time>2018-06-23T08:21:55.000Z</time>
      </trkpt>
      <trkpt lat="47.85654" lon="6.78317">
        <ele>778</ele>
        <time>2018-06-23T08:21:56.000Z</time>
      </trkpt>
      <trkpt lat="47.85654" lon="6.78319">
        <ele>778</ele>
        <time>2018-06-23T08:21:57.000Z</time>
      </trkpt>
      <trkpt lat="47.85653" lon="6.78321">
        <ele>778</ele>
        <time>2018-06-23T08:21:58.000Z</time>
      </trkpt>
      <trkpt lat="47.85652" lon="6.78323">
        <ele>778</ele>
        <time>2018-06-23T08:21:59.000Z</time>
      </trkpt>
      <trkpt lat="47.85651" lon="6.78325">
        <ele>778</ele>
        <time>2018-06-23T08:22:00.000Z</time>
      </trkpt>
      <trkpt lat="47.8565" lon="6.78326">
        <ele>778</ele>
        <time>2018-06-23T08:22:01.000Z</time>
      </trkpt>
      <trkpt lat="47.85649" lon="6.78328">
        <ele>778</ele>
        <time>2018-06-23T08:22:02.000Z</time>
      </trkpt>
      <trkpt lat="47.85648" lon="6.7833">
        <ele>778</ele>
        <time>2018-06-23T08:22:03.000Z</time>
      </trkpt>
      <trkpt lat="47.85648" lon="6.78331">
        <ele>778</ele>
        <time>2018-06-23T08:22:04.000Z</time>
      </trkpt>
      <trkpt lat="47.85647" lon="6.78333">
        <ele>778</ele>
        <time>2018-06-23T08:22:05.000Z</time>
      </trkpt>
      <trkpt lat="47.85646" lon="6.78335">
        <ele>773</ele>
        <time>2018-06-23T08:22:06.000Z</time>
      </trkpt>
      <trkpt lat="47.85646" lon="6.78337">
        <ele>773</ele>
        <time>2018-06-23T08:22:07.000Z</time>
      </trkpt>
      <trkpt lat="47.85645" lon="6.78339">
        <ele>773</ele>
        <time>2018-06-23T08:22:08.000Z</time>
      </trkpt>
      <trkpt lat="47.85645" lon="6.78341">
        <ele>773</ele>
        <time>2018-06-23T08:22:09.000Z</time>
      </trkpt>
      <trkpt lat="47.85644" lon="6.78342">
        <ele>773</ele>
        <time>2018-06-23T08:22:10.000Z</time>
      </trkpt>
      <trkpt lat="47.85644" lon="6.78343">
        <ele>773</ele>
        <time>2018-06-23T08:22:11.000Z</time>
      </trkpt>
      <trkpt lat="47.85643" lon="6.78345">
        <ele>774</ele>
        <time>2018-06-23T08:22:12.000Z</time>
      </trkpt>
      <trkpt lat="47.85643" lon="6.78346">
        <ele>774</ele>
        <time>2018-06-23T08:22:13.000Z</time>
      </trkpt>
      <trkpt lat="47.85643" lon="6.78348">
        <ele>774</ele>
        <time>2018-06-23T08:22:14.000Z</time>
      </trkpt>
      <trkpt lat="47.85642" lon="6.7835">
        <ele>774</ele>
        <time>2018-06-23T08:22:15.000Z</time>
      </trkpt>
      <trkpt lat="47.85642" lon="6.78351">
        <ele>774</ele>
        <time>2018-06-23T08:22:16.000Z</time>
      </trkpt>
      <trkpt lat="47.85641" lon="6.78353">
        <ele>774</ele>
        <time>2018-06-23T08:22:17.000Z</time>
      </trkpt>
      <trkpt lat="47.8564" lon="6.78355">
        <ele>774</ele>
        <time>2018-06-23T08:22:18.000Z</time>
      </trkpt>
      <trkpt lat="47.85639" lon="6.78356">
        <ele>774</ele>
        <time>2018-06-23T08:22:19.000Z</time>
      </trkpt>
      <trkpt lat="47.85639" lon="6.78357">
        <ele>775</ele>
        <time>2018-06-23T08:22:20.000Z</time>
      </trkpt>
      <trkpt lat="47.85638" lon="6.78359">
        <ele>775</ele>
        <time>2018-06-23T08:22:21.000Z</time>
      </trkpt>
      <trkpt lat="47.85637" lon="6.7836">
        <ele>775</ele>
        <time>2018-06-23T08:22:22.000Z</time>
      </trkpt>
      <trkpt lat="47.85636" lon="6.78361">
        <ele>775</ele>
        <time>2018-06-23T08:22:23.000Z</time>
      </trkpt>
      <trkpt lat="47.85636" lon="6.78363">
        <ele>775</ele>
        <time>2018-06-23T08:22:24.000Z</time>
      </trkpt>
      <trkpt lat="47.85635" lon="6.78364">
        <ele>775</ele>
        <time>2018-06-23T08:22:25.000Z</time>
      </trkpt>
      <trkpt lat="47.85634" lon="6.78366">
        <ele>775</ele>
        <time>2018-06-23T08:22:26.000Z</time>
      </trkpt>
      <trkpt lat="47.85633" lon="6.78367">
        <ele>775</ele>
        <time>2018-06-23T08:22:27.000Z</time>
      </trkpt>
      <trkpt lat="47.85632" lon="6.78367">
        <ele>776</ele>
        <time>2018-06-23T08:22:28.000Z</time>
      </trkpt>
      <trkpt lat="47.85631" lon="6.78368">
        <ele>776</ele>
        <time>2018-06-23T08:22:29.000Z</time>
      </trkpt>
      <trkpt lat="47.8563" lon="6.78369">
        <ele>776</ele>
        <time>2018-06-23T08:22:30.000Z</time>
      </trkpt>
      <trkpt lat="47.8563" lon="6.7837">
        <ele>776</ele>
        <time>2018-06-23T08:22:31.000Z</time>
      </trkpt>
      <trkpt lat="47.85628" lon="6.78371">
        <ele>776</ele>
        <time>2018-06-23T08:22:32.000Z</time>
      </trkpt>
      <trkpt lat="47.85627" lon="6.78372">
        <ele>776</ele>
        <time>2018-06-23T08:22:33.000Z</time>
      </trkpt>
      <trkpt lat="47.85626" lon="6.78374">
        <ele>776</ele>
        <time>2018-06-23T08:22:34.000Z</time>
      </trkpt>
      <trkpt lat="47.85625" lon="6.78375">
        <ele>776</ele>
        <time>2018-06-23T08:22:35.000Z</time>
      </trkpt>
      <trkpt lat="47.85624" lon="6.78376">
        <ele>777</ele>
        <time>2018-06-23T08:22:36.000Z</time>
      </trkpt>
      <trkpt lat="47.85623" lon="6.78378">
        <ele>777</ele>
        <time>2018-06-23T08:22:37.000Z</time>
      </trkpt>
      <trkpt lat="47.85621" lon="6.78379">
        <ele>777</ele>
        <time>2018-06-23T08:22:38.000Z</time>
      </trkpt>
      <trkpt lat="47.8562" lon="6.7838">
        <ele>777</ele>
        <time>2018-06-23T08:22:39.000Z</time>
      </trkpt>
      <trkpt lat="47.85618" lon="6.78381">
        <ele>777</ele>
        <time>2018-06-23T08:22:40.000Z</time>
      </trkpt>
      <trkpt lat="47.85617" lon="6.78382">
        <ele>778</ele>
        <time>2018-06-23T08:22:41.000Z</time>
      </trkpt>
      <trkpt lat="47.85616" lon="6.78383">
        <ele>778</ele>
        <time>2018-06-23T08:22:42.000Z</time>
      </trkpt>
      <trkpt lat="47.85615" lon="6.78384">
        <ele>778</ele>
        <time>2018-06-23T08:22:43.000Z</time>
      </trkpt>
      <trkpt lat="47.85614" lon="6.78386">
        <ele>778</ele>
        <time>2018-06-23T08:22:44.000Z</time>
      </trkpt>
      <trkpt lat="47.85613" lon="6.78387">
        <ele>778</ele>
        <time>2018-06-23T08:22:45.000Z</time>
      </trkpt>
      <trkpt lat="47.85611" lon="6.78389">
        <ele>779</ele>
        <time>2018-06-23T08:22:46.000Z</time>
      </trkpt>
      <trkpt lat="47.85611" lon="6.7839">
        <ele>779</ele>
        <time>2018-06-23T08:22:47.000Z</time>
      </trkpt>
      <trkpt lat="47.8561" lon="6.78391">
        <ele>779</ele>
        <time>2018-06-23T08:22:48.000Z</time>
      </trkpt>
      <trkpt lat="47.85609" lon="6.78392">
        <ele>779</ele>
        <time>2018-06-23T08:22:49.000Z</time>
      </trkpt>
      <trkpt lat="47.85608" lon="6.78394">
        <ele>779</ele>
        <time>2018-06-23T08:22:50.000Z</time>
      </trkpt>
      <trkpt lat="47.85607" lon="6.78395">
        <ele>779</ele>
        <time>2018-06-23T08:22:51.000Z</time>
      </trkpt>
      <trkpt lat="47.85606" lon="6.78397">
        <ele>780</ele>
        <time>2018-06-23T08:22:52.000Z</time>
      </trkpt>
      <trkpt lat="47.85605" lon="6.78398">
        <ele>780</ele>
        <time>2018-06-23T08:22:53.000Z</time>
      </trkpt>
      <trkpt lat="47.85605" lon="6.784">
        <ele>780</ele>
        <time>2018-06-23T08:22:54.000Z</time>
      </trkpt>
      <trkpt lat="47.85604" lon="6.78401">
        <ele>780</ele>
        <time>2018-06-23T08:22:55.000Z</time>
      </trkpt>
      <trkpt lat="47.85604" lon="6.78402">
        <ele>781</ele>
        <time>2018-06-23T08:22:56.000Z</time>
      </trkpt>
      <trkpt lat="47.85603" lon="6.78404">
        <ele>781</ele>
        <time>2018-06-23T08:22:57.000Z</time>
      </trkpt>
      <trkpt lat="47.85603" lon="6.78405">
        <ele>781</ele>
        <time>2018-06-23T08:22:58.000Z</time>
      </trkpt>
      <trkpt lat="47.85603" lon="6.78407">
        <ele>781</ele>
        <time>2018-06-23T08:22:59.000Z</time>
      </trkpt>
      <trkpt lat="47.85603" lon="6.78409">
        <ele>781</ele>
        <time>2018-06-23T08:23:00.000Z</time>
      </trkpt>
      <trkpt lat="47.85602" lon="6.78411">
        <ele>781</ele>
        <time>2018-06-23T08:23:01.000Z</time>
      </trkpt>
      <trkpt lat="47.85602" lon="6.78413">
        <ele>782</ele>
        <time>2018-06-23T08:23:02.000Z</time>
      </trkpt>
      <trkpt lat="47.85602" lon="6.78415">
        <ele>782</ele>
        <time>2018-06-23T08:23:03.000Z</time>
      </trkpt>
      <trkpt lat="47.85602" lon="6.78417">
        <ele>782</ele>
        <time>2018-06-23T08:23:04.000Z</time>
      </trkpt>
      <trkpt lat="47.85602" lon="6.78418">
        <ele>780</ele>
        <time>2018-06-23T08:23:05.000Z</time>
      </trkpt>
      <trkpt lat="47.85602" lon="6.7842">
        <ele>780</ele>
        <time>2018-06-23T08:23:06.000Z</time>
      </trkpt>
      <trkpt lat="47.85602" lon="6.78422">
        <ele>779</ele>
        <time>2018-06-23T08:23:07.000Z</time>
      </trkpt>
      <trkpt lat="47.85602" lon="6.78424">
        <ele>779</ele>
        <time>2018-06-23T08:23:08.000Z</time>
      </trkpt>
      <trkpt lat="47.85602" lon="6.78426">
        <ele>779</ele>
        <time>2018-06-23T08:23:09.000Z</time>
      </trkpt>
      <trkpt lat="47.85602" lon="6.78428">
        <ele>779</ele>
        <time>2018-06-23T08:23:10.000Z</time>
      </trkpt>
      <trkpt lat="47.85602" lon="6.7843">
        <ele>779</ele>
        <time>2018-06-23T08:23:11.000Z</time>
      </trkpt>
      <trkpt lat="47.85602" lon="6.78432">
        <ele>778</ele>
        <time>2018-06-23T08:23:12.000Z</time>
      </trkpt>
      <trkpt lat="47.85602" lon="6.78434">
        <ele>778</ele>
        <time>2018-06-23T08:23:13.000Z</time>
      </trkpt>
      <trkpt lat="47.85602" lon="6.78435">
        <ele>778</ele>
        <time>2018-06-23T08:23:14.000Z</time>
      </trkpt>
      <trkpt lat="47.85602" lon="6.78437">
        <ele>778</ele>
        <time>2018-06-23T08:23:15.000Z</time>
      </trkpt>
      <trkpt lat="47.85602" lon="6.78438">
        <ele>778</ele>
        <time>2018-06-23T08:23:16.000Z</time>
      </trkpt>
      <trkpt lat="47.85602" lon="6.7844">
        <ele>777</ele>
        <time>2018-06-23T08:23:17.000Z</time>
      </trkpt>
      <trkpt lat="47.85602" lon="6.78442">
        <ele>777</ele>
        <time>2018-06-23T08:23:18.000Z</time>
      </trkpt>
      <trkpt lat="47.85602" lon="6.78444">
        <ele>777</ele>
        <time>2018-06-23T08:23:19.000Z</time>
      </trkpt>
      <trkpt lat="47.85602" lon="6.78446">
        <ele>777</ele>
        <time>2018-06-23T08:23:20.000Z</time>
      </trkpt>
      <trkpt lat="47.85602" lon="6.78448">
        <ele>777</ele>
        <time>2018-06-23T08:23:21.000Z</time>
      </trkpt>
      <trkpt lat="47.85602" lon="6.7845">
        <ele>777</ele>
        <time>2018-06-23T08:23:22.000Z</time>
      </trkpt>
      <trkpt lat="47.85602" lon="6.78451">
        <ele>777</ele>
        <time>2018-06-23T08:23:23.000Z</time>
      </trkpt>
      <trkpt lat="47.85602" lon="6.78453">
        <ele>776</ele>
        <time>2018-06-23T08:23:24.000Z</time>
      </trkpt>
      <trkpt lat="47.85603" lon="6.78454">
        <ele>776</ele>
        <time>2018-06-23T08:23:25.000Z</time>
      </trkpt>
      <trkpt lat="47.85603" lon="6.78456">
        <ele>776</ele>
        <time>2018-06-23T08:23:26.000Z</time>
      </trkpt>
      <trkpt lat="47.85603" lon="6.78458">
        <ele>776</ele>
        <time>2018-06-23T08:23:27.000Z</time>
      </trkpt>
      <trkpt lat="47.85603" lon="6.78459">
        <ele>776</ele>
        <time>2018-06-23T08:23:28.000Z</time>
      </trkpt>
      <trkpt lat="47.85604" lon="6.78461">
        <ele>776</ele>
        <time>2018-06-23T08:23:29.000Z</time>
      </trkpt>
      <trkpt lat="47.85604" lon="6.78462">
        <ele>776</ele>
        <time>2018-06-23T08:23:30.000Z</time>
      </trkpt>
      <trkpt lat="47.85604" lon="6.78464">
        <ele>776</ele>
        <time>2018-06-23T08:23:31.000Z</time>
      </trkpt>
      <trkpt lat="47.85605" lon="6.78466">
        <ele>776</ele>
        <time>2018-06-23T08:23:32.000Z</time>
      </trkpt>
      <trkpt lat="47.85605" lon="6.78468">
        <ele>776</ele>
        <time>2018-06-23T08:23:33.000Z</time>
      </trkpt>
      <trkpt lat="47.85605" lon="6.7847">
        <ele>776</ele>
        <time>2018-06-23T08:23:34.000Z</time>
      </trkpt>
      <trkpt lat="47.85605" lon="6.78472">
        <ele>777</ele>
        <time>2018-06-23T08:23:35.000Z</time>
      </trkpt>
      <trkpt lat="47.85605" lon="6.78474">
        <ele>777</ele>
        <time>2018-06-23T08:23:36.000Z</time>
      </trkpt>
      <trkpt lat="47.85605" lon="6.78476">
        <ele>777</ele>
        <time>2018-06-23T08:23:37.000Z</time>
      </trkpt>
      <trkpt lat="47.85605" lon="6.78478">
        <ele>777</ele>
        <time>2018-06-23T08:23:38.000Z</time>
      </trkpt>
      <trkpt lat="47.85605" lon="6.78479">
        <ele>777</ele>
        <time>2018-06-23T08:23:39.000Z</time>
      </trkpt>
      <trkpt lat="47.85605" lon="6.78481">
        <ele>777</ele>
        <time>2018-06-23T08:23:40.000Z</time>
      </trkpt>
      <trkpt lat="47.85605" lon="6.78482">
        <ele>778</ele>
        <time>2018-06-23T08:23:41.000Z</time>
      </trkpt>
      <trkpt lat="47.85605" lon="6.78484">
        <ele>778</ele>
        <time>2018-06-23T08:23:42.000Z</time>
      </trkpt>
      <trkpt lat="47.85605" lon="6.78485">
        <ele>778</ele>
        <time>2018-06-23T08:23:43.000Z</time>
      </trkpt>
      <trkpt lat="47.85604" lon="6.78487">
        <ele>778</ele>
        <time>2018-06-23T08:23:44.000Z</time>
      </trkpt>
      <trkpt lat="47.85604" lon="6.78488">
        <ele>778</ele>
        <time>2018-06-23T08:23:45.000Z</time>
      </trkpt>
      <trkpt lat="47.85604" lon="6.7849">
        <ele>779</ele>
        <time>2018-06-23T08:23:46.000Z</time>
      </trkpt>
      <trkpt lat="47.85604" lon="6.78491">
        <ele>779</ele>
        <time>2018-06-23T08:23:47.000Z</time>
      </trkpt>
      <trkpt lat="47.85604" lon="6.78493">
        <ele>779</ele>
        <time>2018-06-23T08:23:48.000Z</time>
      </trkpt>
      <trkpt lat="47.85604" lon="6.78494">
        <ele>779</ele>
        <time>2018-06-23T08:23:49.000Z</time>
      </trkpt>
      <trkpt lat="47.85605" lon="6.78496">
        <ele>779</ele>
        <time>2018-06-23T08:23:50.000Z</time>
      </trkpt>
      <trkpt lat="47.85605" lon="6.78497">
        <ele>779</ele>
        <time>2018-06-23T08:23:51.000Z</time>
      </trkpt>
      <trkpt lat="47.85605" lon="6.78499">
        <ele>779</ele>
        <time>2018-06-23T08:23:52.000Z</time>
      </trkpt>
      <trkpt lat="47.85605" lon="6.78501">
        <ele>781</ele>
        <time>2018-06-23T08:23:53.000Z</time>
      </trkpt>
      <trkpt lat="47.85606" lon="6.78503">
        <ele>781</ele>
        <time>2018-06-23T08:23:54.000Z</time>
      </trkpt>
      <trkpt lat="47.85606" lon="6.78505">
        <ele>781</ele>
        <time>2018-06-23T08:23:55.000Z</time>
      </trkpt>
      <trkpt lat="47.85606" lon="6.78507">
        <ele>781</ele>
        <time>2018-06-23T08:23:56.000Z</time>
      </trkpt>
      <trkpt lat="47.85606" lon="6.78509">
        <ele>781</ele>
        <time>2018-06-23T08:23:57.000Z</time>
      </trkpt>
      <trkpt lat="47.85606" lon="6.7851">
        <ele>780</ele>
        <time>2018-06-23T08:23:58.000Z</time>
      </trkpt>
      <trkpt lat="47.85606" lon="6.78512">
        <ele>780</ele>
        <time>2018-06-23T08:23:59.000Z</time>
      </trkpt>
      <trkpt lat="47.85606" lon="6.78515">
        <ele>780</ele>
        <time>2018-06-23T08:24:00.000Z</time>
      </trkpt>
      <trkpt lat="47.85606" lon="6.78516">
        <ele>780</ele>
        <time>2018-06-23T08:24:01.000Z</time>
      </trkpt>
      <trkpt lat="47.85606" lon="6.78518">
        <ele>780</ele>
        <time>2018-06-23T08:24:02.000Z</time>
      </trkpt>
      <trkpt lat="47.85607" lon="6.7852">
        <ele>780</ele>
        <time>2018-06-23T08:24:03.000Z</time>
      </trkpt>
      <trkpt lat="47.85607" lon="6.78522">
        <ele>780</ele>
        <time>2018-06-23T08:24:04.000Z</time>
      </trkpt>
      <trkpt lat="47.85607" lon="6.78524">
        <ele>780</ele>
        <time>2018-06-23T08:24:05.000Z</time>
      </trkpt>
      <trkpt lat="47.85607" lon="6.78525">
        <ele>780</ele>
        <time>2018-06-23T08:24:06.000Z</time>
      </trkpt>
      <trkpt lat="47.85607" lon="6.78527">
        <ele>779</ele>
        <time>2018-06-23T08:24:07.000Z</time>
      </trkpt>
      <trkpt lat="47.85607" lon="6.78529">
        <ele>779</ele>
        <time>2018-06-23T08:24:08.000Z</time>
      </trkpt>
      <trkpt lat="47.85608" lon="6.7853">
        <ele>779</ele>
        <time>2018-06-23T08:24:09.000Z</time>
      </trkpt>
      <trkpt lat="47.85608" lon="6.78532">
        <ele>779</ele>
        <time>2018-06-23T08:24:10.000Z</time>
      </trkpt>
      <trkpt lat="47.85608" lon="6.78533">
        <ele>779</ele>
        <time>2018-06-23T08:24:11.000Z</time>
      </trkpt>
      <trkpt lat="47.85608" lon="6.78535">
        <ele>779</ele>
        <time>2018-06-23T08:24:12.000Z</time>
      </trkpt>
      <trkpt lat="47.85608" lon="6.78536">
        <ele>779</ele>
        <time>2018-06-23T08:24:13.000Z</time>
      </trkpt>
      <trkpt lat="47.85608" lon="6.78538">
        <ele>779</ele>
        <time>2018-06-23T08:24:14.000Z</time>
      </trkpt>
      <trkpt lat="47.85607" lon="6.7854">
        <ele>780</ele>
        <time>2018-06-23T08:24:15.000Z</time>
      </trkpt>
      <trkpt lat="47.85607" lon="6.78542">
        <ele>780</ele>
        <time>2018-06-23T08:24:16.000Z</time>
      </trkpt>
      <trkpt lat="47.85607" lon="6.78543">
        <ele>780</ele>
        <time>2018-06-23T08:24:17.000Z</time>
      </trkpt>
      <trkpt lat="47.85607" lon="6.78545">
        <ele>780</ele>
        <time>2018-06-23T08:24:18.000Z</time>
      </trkpt>
      <trkpt lat="47.85607" lon="6.78546">
        <ele>780</ele>
        <time>2018-06-23T08:24:19.000Z</time>
      </trkpt>
      <trkpt lat="47.85607" lon="6.78548">
        <ele>780</ele>
        <time>2018-06-23T08:24:20.000Z</time>
      </trkpt>
      <trkpt lat="47.85607" lon="6.7855">
        <ele>780</ele>
        <time>2018-06-23T08:24:21.000Z</time>
      </trkpt>
      <trkpt lat="47.85606" lon="6.78552">
        <ele>781</ele>
        <time>2018-06-23T08:24:22.000Z</time>
      </trkpt>
      <trkpt lat="47.85607" lon="6.78553">
        <ele>781</ele>
        <time>2018-06-23T08:24:23.000Z</time>
      </trkpt>
      <trkpt lat="47.85607" lon="6.78555">
        <ele>781</ele>
        <time>2018-06-23T08:24:24.000Z</time>
      </trkpt>
      <trkpt lat="47.85607" lon="6.78557">
        <ele>781</ele>
        <time>2018-06-23T08:24:25.000Z</time>
      </trkpt>
      <trkpt lat="47.85607" lon="6.78559">
        <ele>781</ele>
        <time>2018-06-23T08:24:26.000Z</time>
      </trkpt>
      <trkpt lat="47.85607" lon="6.78561">
        <ele>782</ele>
        <time>2018-06-23T08:24:27.000Z</time>
      </trkpt>
      <trkpt lat="47.85606" lon="6.78562">
        <ele>782</ele>
        <time>2018-06-23T08:24:28.000Z</time>
      </trkpt>
      <trkpt lat="47.85606" lon="6.78564">
        <ele>782</ele>
        <time>2018-06-23T08:24:29.000Z</time>
      </trkpt>
      <trkpt lat="47.85606" lon="6.78566">
        <ele>782</ele>
        <time>2018-06-23T08:24:30.000Z</time>
      </trkpt>
      <trkpt lat="47.85606" lon="6.78568">
        <ele>783</ele>
        <time>2018-06-23T08:24:31.000Z</time>
      </trkpt>
      <trkpt lat="47.85606" lon="6.78569">
        <ele>783</ele>
        <time>2018-06-23T08:24:32.000Z</time>
      </trkpt>
      <trkpt lat="47.85606" lon="6.78571">
        <ele>783</ele>
        <time>2018-06-23T08:24:33.000Z</time>
      </trkpt>
      <trkpt lat="47.85606" lon="6.78573">
        <ele>783</ele>
        <time>2018-06-23T08:24:34.000Z</time>
      </trkpt>
      <trkpt lat="47.85606" lon="6.78574">
        <ele>784</ele>
        <time>2018-06-23T08:24:35.000Z</time>
      </trkpt>
      <trkpt lat="47.85606" lon="6.78576">
        <ele>784</ele>
        <time>2018-06-23T08:24:36.000Z</time>
      </trkpt>
      <trkpt lat="47.85606" lon="6.78577">
        <ele>784</ele>
        <time>2018-06-23T08:24:37.000Z</time>
      </trkpt>
      <trkpt lat="47.85606" lon="6.78579">
        <ele>784</ele>
        <time>2018-06-23T08:24:38.000Z</time>
      </trkpt>
      <trkpt lat="47.85606" lon="6.78581">
        <ele>784</ele>
        <time>2018-06-23T08:24:39.000Z</time>
      </trkpt>
      <trkpt lat="47.85606" lon="6.78582">
        <ele>784</ele>
        <time>2018-06-23T08:24:40.000Z</time>
      </trkpt>
      <trkpt lat="47.85606" lon="6.78584">
        <ele>787</ele>
        <time>2018-06-23T08:24:41.000Z</time>
      </trkpt>
      <trkpt lat="47.85606" lon="6.78585">
        <ele>787</ele>
        <time>2018-06-23T08:24:42.000Z</time>
      </trkpt>
      <trkpt lat="47.85606" lon="6.78587">
        <ele>787</ele>
        <time>2018-06-23T08:24:43.000Z</time>
      </trkpt>
      <trkpt lat="47.85606" lon="6.78589">
        <ele>787</ele>
        <time>2018-06-23T08:24:44.000Z</time>
      </trkpt>
      <trkpt lat="47.85606" lon="6.78591">
        <ele>787</ele>
        <time>2018-06-23T08:24:45.000Z</time>
      </trkpt>
      <trkpt lat="47.85606" lon="6.78592">
        <ele>787</ele>
        <time>2018-06-23T08:24:46.000Z</time>
      </trkpt>
      <trkpt lat="47.85606" lon="6.78593">
        <ele>787</ele>
        <time>2018-06-23T08:24:47.000Z</time>
      </trkpt>
      <trkpt lat="47.85605" lon="6.78595">
        <ele>787</ele>
        <time>2018-06-23T08:24:48.000Z</time>
      </trkpt>
      <trkpt lat="47.85605" lon="6.78596">
        <ele>787</ele>
        <time>2018-06-23T08:24:49.000Z</time>
      </trkpt>
      <trkpt lat="47.85606" lon="6.78597">
        <ele>786</ele>
        <time>2018-06-23T08:24:50.000Z</time>
      </trkpt>
      <trkpt lat="47.85606" lon="6.78599">
        <ele>786</ele>
        <time>2018-06-23T08:24:51.000Z</time>
      </trkpt>
      <trkpt lat="47.85606" lon="6.78601">
        <ele>786</ele>
        <time>2018-06-23T08:24:52.000Z</time>
      </trkpt>
      <trkpt lat="47.85607" lon="6.78602">
        <ele>786</ele>
        <time>2018-06-23T08:24:53.000Z</time>
      </trkpt>
      <trkpt lat="47.85607" lon="6.78603">
        <ele>786</ele>
        <time>2018-06-23T08:24:54.000Z</time>
      </trkpt>
      <trkpt lat="47.85607" lon="6.78605">
        <ele>785</ele>
        <time>2018-06-23T08:24:55.000Z</time>
      </trkpt>
      <trkpt lat="47.85607" lon="6.78607">
        <ele>785</ele>
        <time>2018-06-23T08:24:56.000Z</time>
      </trkpt>
      <trkpt lat="47.85608" lon="6.78608">
        <ele>785</ele>
        <time>2018-06-23T08:24:57.000Z</time>
      </trkpt>
      <trkpt lat="47.85608" lon="6.78609">
        <ele>785</ele>
        <time>2018-06-23T08:24:58.000Z</time>
      </trkpt>
      <trkpt lat="47.85608" lon="6.7861">
        <ele>785</ele>
        <time>2018-06-23T08:24:59.000Z</time>
      </trkpt>
      <trkpt lat="47.85608" lon="6.78612">
        <ele>785</ele>
        <time>2018-06-23T08:25:00.000Z</time>
      </trkpt>
      <trkpt lat="47.85609" lon="6.78613">
        <ele>785</ele>
        <time>2018-06-23T08:25:01.000Z</time>
      </trkpt>
      <trkpt lat="47.85609" lon="6.78615">
        <ele>785</ele>
        <time>2018-06-23T08:25:02.000Z</time>
      </trkpt>
      <trkpt lat="47.85609" lon="6.78616">
        <ele>784</ele>
        <time>2018-06-23T08:25:03.000Z</time>
      </trkpt>
      <trkpt lat="47.85609" lon="6.78618">
        <ele>784</ele>
        <time>2018-06-23T08:25:04.000Z</time>
      </trkpt>
      <trkpt lat="47.85609" lon="6.78618">
        <ele>784</ele>
        <time>2018-06-23T08:25:05.000Z</time>
      </trkpt>
      <trkpt lat="47.85609" lon="6.78619">
        <ele>784</ele>
        <time>2018-06-23T08:25:06.000Z</time>
      </trkpt>
      <trkpt lat="47.85609" lon="6.78621">
        <ele>784</ele>
        <time>2018-06-23T08:25:07.000Z</time>
      </trkpt>
      <trkpt lat="47.85609" lon="6.78623">
        <ele>784</ele>
        <time>2018-06-23T08:25:08.000Z</time>
      </trkpt>
      <trkpt lat="47.85609" lon="6.78625">
        <ele>784</ele>
        <time>2018-06-23T08:25:09.000Z</time>
      </trkpt>
      <trkpt lat="47.85609" lon="6.78627">
        <ele>784</ele>
        <time>2018-06-23T08:25:10.000Z</time>
      </trkpt>
      <trkpt lat="47.85609" lon="6.78629">
        <ele>784</ele>
        <time>2018-06-23T08:25:11.000Z</time>
      </trkpt>
      <trkpt lat="47.85609" lon="6.7863">
        <ele>784</ele>
        <time>2018-06-23T08:25:12.000Z</time>
      </trkpt>
      <trkpt lat="47.85609" lon="6.78632">
        <ele>784</ele>
        <time>2018-06-23T08:25:13.000Z</time>
      </trkpt>
      <trkpt lat="47.85609" lon="6.78634">
        <ele>784</ele>
        <time>2018-06-23T08:25:14.000Z</time>
      </trkpt>
      <trkpt lat="47.85609" lon="6.78636">
        <ele>784</ele>
        <time>2018-06-23T08:25:15.000Z</time>
      </trkpt>
      <trkpt lat="47.85609" lon="6.78637">
        <ele>784</ele>
        <time>2018-06-23T08:25:16.000Z</time>
      </trkpt>
      <trkpt lat="47.8561" lon="6.78639">
        <ele>784</ele>
        <time>2018-06-23T08:25:17.000Z</time>
      </trkpt>
      <trkpt lat="47.8561" lon="6.7864">
        <ele>785</ele>
        <time>2018-06-23T08:25:18.000Z</time>
      </trkpt>
      <trkpt lat="47.8561" lon="6.78642">
        <ele>785</ele>
        <time>2018-06-23T08:25:19.000Z</time>
      </trkpt>
      <trkpt lat="47.8561" lon="6.78644">
        <ele>785</ele>
        <time>2018-06-23T08:25:20.000Z</time>
      </trkpt>
      <trkpt lat="47.8561" lon="6.78646">
        <ele>785</ele>
        <time>2018-06-23T08:25:21.000Z</time>
      </trkpt>
      <trkpt lat="47.8561" lon="6.78647">
        <ele>785</ele>
        <time>2018-06-23T08:25:22.000Z</time>
      </trkpt>
      <trkpt lat="47.85611" lon="6.78649">
        <ele>785</ele>
        <time>2018-06-23T08:25:23.000Z</time>
      </trkpt>
      <trkpt lat="47.85611" lon="6.78651">
        <ele>785</ele>
        <time>2018-06-23T08:25:24.000Z</time>
      </trkpt>
      <trkpt lat="47.85611" lon="6.78653">
        <ele>785</ele>
        <time>2018-06-23T08:25:25.000Z</time>
      </trkpt>
      <trkpt lat="47.8561" lon="6.78654">
        <ele>785</ele>
        <time>2018-06-23T08:25:26.000Z</time>
      </trkpt>
      <trkpt lat="47.8561" lon="6.78656">
        <ele>785</ele>
        <time>2018-06-23T08:25:27.000Z</time>
      </trkpt>
      <trkpt lat="47.8561" lon="6.78658">
        <ele>785</ele>
        <time>2018-06-23T08:25:28.000Z</time>
      </trkpt>
      <trkpt lat="47.8561" lon="6.7866">
        <ele>785</ele>
        <time>2018-06-23T08:25:29.000Z</time>
      </trkpt>
      <trkpt lat="47.85609" lon="6.78662">
        <ele>786</ele>
        <time>2018-06-23T08:25:30.000Z</time>
      </trkpt>
      <trkpt lat="47.85609" lon="6.78664">
        <ele>786</ele>
        <time>2018-06-23T08:25:31.000Z</time>
      </trkpt>
      <trkpt lat="47.85609" lon="6.78666">
        <ele>786</ele>
        <time>2018-06-23T08:25:32.000Z</time>
      </trkpt>
      <trkpt lat="47.85608" lon="6.78668">
        <ele>786</ele>
        <time>2018-06-23T08:25:33.000Z</time>
      </trkpt>
      <trkpt lat="47.85608" lon="6.78669">
        <ele>786</ele>
        <time>2018-06-23T08:25:34.000Z</time>
      </trkpt>
      <trkpt lat="47.85608" lon="6.78671">
        <ele>786</ele>
        <time>2018-06-23T08:25:35.000Z</time>
      </trkpt>
      <trkpt lat="47.85608" lon="6.78673">
        <ele>786</ele>
        <time>2018-06-23T08:25:36.000Z</time>
      </trkpt>
      <trkpt lat="47.85607" lon="6.78674">
        <ele>786</ele>
        <time>2018-06-23T08:25:37.000Z</time>
      </trkpt>
      <trkpt lat="47.85607" lon="6.78676">
        <ele>786</ele>
        <time>2018-06-23T08:25:38.000Z</time>
      </trkpt>
      <trkpt lat="47.85606" lon="6.78678">
        <ele>786</ele>
        <time>2018-06-23T08:25:39.000Z</time>
      </trkpt>
      <trkpt lat="47.85606" lon="6.7868">
        <ele>785</ele>
        <time>2018-06-23T08:25:40.000Z</time>
      </trkpt>
      <trkpt lat="47.85606" lon="6.78682">
        <ele>785</ele>
        <time>2018-06-23T08:25:41.000Z</time>
      </trkpt>
      <trkpt lat="47.85606" lon="6.78683">
        <ele>785</ele>
        <time>2018-06-23T08:25:42.000Z</time>
      </trkpt>
      <trkpt lat="47.85606" lon="6.78685">
        <ele>785</ele>
        <time>2018-06-23T08:25:43.000Z</time>
      </trkpt>
      <trkpt lat="47.85606" lon="6.78686">
        <ele>785</ele>
        <time>2018-06-23T08:25:44.000Z</time>
      </trkpt>
      <trkpt lat="47.85605" lon="6.78688">
        <ele>785</ele>
        <time>2018-06-23T08:25:45.000Z</time>
      </trkpt>
      <trkpt lat="47.85605" lon="6.7869">
        <ele>785</ele>
        <time>2018-06-23T08:25:46.000Z</time>
      </trkpt>
      <trkpt lat="47.85605" lon="6.78691">
        <ele>785</ele>
        <time>2018-06-23T08:25:47.000Z</time>
      </trkpt>
      <trkpt lat="47.85604" lon="6.78693">
        <ele>785</ele>
        <time>2018-06-23T08:25:48.000Z</time>
      </trkpt>
      <trkpt lat="47.85604" lon="6.78694">
        <ele>785</ele>
        <time>2018-06-23T08:25:49.000Z</time>
      </trkpt>
      <trkpt lat="47.85604" lon="6.78695">
        <ele>785</ele>
        <time>2018-06-23T08:25:50.000Z</time>
      </trkpt>
      <trkpt lat="47.85604" lon="6.78697">
        <ele>785</ele>
        <time>2018-06-23T08:25:51.000Z</time>
      </trkpt>
      <trkpt lat="47.85603" lon="6.78698">
        <ele>784</ele>
        <time>2018-06-23T08:25:52.000Z</time>
      </trkpt>
      <trkpt lat="47.85603" lon="6.78699">
        <ele>784</ele>
        <time>2018-06-23T08:25:53.000Z</time>
      </trkpt>
      <trkpt lat="47.85603" lon="6.787">
        <ele>784</ele>
        <time>2018-06-23T08:25:54.000Z</time>
      </trkpt>
      <trkpt lat="47.85603" lon="6.78701">
        <ele>784</ele>
        <time>2018-06-23T08:25:55.000Z</time>
      </trkpt>
      <trkpt lat="47.85602" lon="6.78702">
        <ele>784</ele>
        <time>2018-06-23T08:25:56.000Z</time>
      </trkpt>
      <trkpt lat="47.85601" lon="6.78704">
        <ele>784</ele>
        <time>2018-06-23T08:25:57.000Z</time>
      </trkpt>
      <trkpt lat="47.85601" lon="6.78705">
        <ele>784</ele>
        <time>2018-06-23T08:25:58.000Z</time>
      </trkpt>
      <trkpt lat="47.856" lon="6.78706">
        <ele>784</ele>
        <time>2018-06-23T08:25:59.000Z</time>
      </trkpt>
      <trkpt lat="47.856" lon="6.78707">
        <ele>784</ele>
        <time>2018-06-23T08:26:00.000Z</time>
      </trkpt>
      <trkpt lat="47.85599" lon="6.78709">
        <ele>784</ele>
        <time>2018-06-23T08:26:01.000Z</time>
      </trkpt>
      <trkpt lat="47.85598" lon="6.7871">
        <ele>784</ele>
        <time>2018-06-23T08:26:02.000Z</time>
      </trkpt>
      <trkpt lat="47.85598" lon="6.78712">
        <ele>784</ele>
        <time>2018-06-23T08:26:03.000Z</time>
      </trkpt>
      <trkpt lat="47.85597" lon="6.78713">
        <ele>784</ele>
        <time>2018-06-23T08:26:04.000Z</time>
      </trkpt>
      <trkpt lat="47.85597" lon="6.78715">
        <ele>784</ele>
        <time>2018-06-23T08:26:05.000Z</time>
      </trkpt>
      <trkpt lat="47.85596" lon="6.78716">
        <ele>784</ele>
        <time>2018-06-23T08:26:06.000Z</time>
      </trkpt>
      <trkpt lat="47.85596" lon="6.78718">
        <ele>784</ele>
        <time>2018-06-23T08:26:07.000Z</time>
      </trkpt>
      <trkpt lat="47.85595" lon="6.78719">
        <ele>784</ele>
        <time>2018-06-23T08:26:08.000Z</time>
      </trkpt>
      <trkpt lat="47.85594" lon="6.78721">
        <ele>784</ele>
        <time>2018-06-23T08:26:09.000Z</time>
      </trkpt>
      <trkpt lat="47.85593" lon="6.78722">
        <ele>784</ele>
        <time>2018-06-23T08:26:10.000Z</time>
      </trkpt>
      <trkpt lat="47.85592" lon="6.78723">
        <ele>784</ele>
        <time>2018-06-23T08:26:11.000Z</time>
      </trkpt>
      <trkpt lat="47.85591" lon="6.78725">
        <ele>784</ele>
        <time>2018-06-23T08:26:12.000Z</time>
      </trkpt>
      <trkpt lat="47.8559" lon="6.78726">
        <ele>785</ele>
        <time>2018-06-23T08:26:13.000Z</time>
      </trkpt>
      <trkpt lat="47.85588" lon="6.78728">
        <ele>785</ele>
        <time>2018-06-23T08:26:14.000Z</time>
      </trkpt>
      <trkpt lat="47.85587" lon="6.78729">
        <ele>785</ele>
        <time>2018-06-23T08:26:15.000Z</time>
      </trkpt>
      <trkpt lat="47.85586" lon="6.7873">
        <ele>785</ele>
        <time>2018-06-23T08:26:16.000Z</time>
      </trkpt>
      <trkpt lat="47.85585" lon="6.78731">
        <ele>785</ele>
        <time>2018-06-23T08:26:17.000Z</time>
      </trkpt>
      <trkpt lat="47.85584" lon="6.78732">
        <ele>785</ele>
        <time>2018-06-23T08:26:18.000Z</time>
      </trkpt>
      <trkpt lat="47.85583" lon="6.78733">
        <ele>791</ele>
        <time>2018-06-23T08:26:19.000Z</time>
      </trkpt>
      <trkpt lat="47.85582" lon="6.78733">
        <ele>791</ele>
        <time>2018-06-23T08:26:20.000Z</time>
      </trkpt>
      <trkpt lat="47.85581" lon="6.78732">
        <ele>791</ele>
        <time>2018-06-23T08:26:21.000Z</time>
      </trkpt>
      <trkpt lat="47.85581" lon="6.78731">
        <ele>791</ele>
        <time>2018-06-23T08:26:22.000Z</time>
      </trkpt>
      <trkpt lat="47.8558" lon="6.78729">
        <ele>791</ele>
        <time>2018-06-23T08:26:23.000Z</time>
      </trkpt>
      <trkpt lat="47.8558" lon="6.78728">
        <ele>791</ele>
        <time>2018-06-23T08:26:24.000Z</time>
      </trkpt>
      <trkpt lat="47.85579" lon="6.78727">
        <ele>791</ele>
        <time>2018-06-23T08:26:25.000Z</time>
      </trkpt>
      <trkpt lat="47.85579" lon="6.78726">
        <ele>792</ele>
        <time>2018-06-23T08:26:26.000Z</time>
      </trkpt>
      <trkpt lat="47.85578" lon="6.78724">
        <ele>792</ele>
        <time>2018-06-23T08:26:27.000Z</time>
      </trkpt>
      <trkpt lat="47.85578" lon="6.78722">
        <ele>792</ele>
        <time>2018-06-23T08:26:28.000Z</time>
      </trkpt>
      <trkpt lat="47.85578" lon="6.78721">
        <ele>792</ele>
        <time>2018-06-23T08:26:29.000Z</time>
      </trkpt>
      <trkpt lat="47.85578" lon="6.7872">
        <ele>792</ele>
        <time>2018-06-23T08:26:30.000Z</time>
      </trkpt>
      <trkpt lat="47.85578" lon="6.78718">
        <ele>792</ele>
        <time>2018-06-23T08:26:31.000Z</time>
      </trkpt>
      <trkpt lat="47.85578" lon="6.78717">
        <ele>792</ele>
        <time>2018-06-23T08:26:32.000Z</time>
      </trkpt>
      <trkpt lat="47.85578" lon="6.78717">
        <ele>792</ele>
        <time>2018-06-23T08:26:33.000Z</time>
      </trkpt>
      <trkpt lat="47.85578" lon="6.78716">
        <ele>792</ele>
        <time>2018-06-23T08:26:34.000Z</time>
      </trkpt>
      <trkpt lat="47.85577" lon="6.78715">
        <ele>793</ele>
        <time>2018-06-23T08:26:35.000Z</time>
      </trkpt>
      <trkpt lat="47.85577" lon="6.78714">
        <ele>793</ele>
        <time>2018-06-23T08:26:36.000Z</time>
      </trkpt>
      <trkpt lat="47.85577" lon="6.78714">
        <ele>793</ele>
        <time>2018-06-23T08:26:37.000Z</time>
      </trkpt>
      <trkpt lat="47.85577" lon="6.78713">
        <ele>793</ele>
        <time>2018-06-23T08:26:38.000Z</time>
      </trkpt>
      <trkpt lat="47.85577" lon="6.78712">
        <ele>793</ele>
        <time>2018-06-23T08:26:39.000Z</time>
      </trkpt>
      <trkpt lat="47.85577" lon="6.7871">
        <ele>793</ele>
        <time>2018-06-23T08:26:40.000Z</time>
      </trkpt>
      <trkpt lat="47.85577" lon="6.78709">
        <ele>793</ele>
        <time>2018-06-23T08:26:41.000Z</time>
      </trkpt>
      <trkpt lat="47.85577" lon="6.78708">
        <ele>793</ele>
        <time>2018-06-23T08:26:42.000Z</time>
      </trkpt>
      <trkpt lat="47.85577" lon="6.78707">
        <ele>793</ele>
        <time>2018-06-23T08:26:43.000Z</time>
      </trkpt>
      <trkpt lat="47.85577" lon="6.78706">
        <ele>793</ele>
        <time>2018-06-23T08:26:44.000Z</time>
      </trkpt>
      <trkpt lat="47.85577" lon="6.78704">
        <ele>793</ele>
        <time>2018-06-23T08:26:45.000Z</time>
      </trkpt>
      <trkpt lat="47.85577" lon="6.78703">
        <ele>793</ele>
        <time>2018-06-23T08:26:46.000Z</time>
      </trkpt>
      <trkpt lat="47.85577" lon="6.78702">
        <ele>794</ele>
        <time>2018-06-23T08:26:47.000Z</time>
      </trkpt>
      <trkpt lat="47.85577" lon="6.78701">
        <ele>794</ele>
        <time>2018-06-23T08:26:48.000Z</time>
      </trkpt>
      <trkpt lat="47.85576" lon="6.78699">
        <ele>794</ele>
        <time>2018-06-23T08:26:49.000Z</time>
      </trkpt>
      <trkpt lat="47.85576" lon="6.78698">
        <ele>794</ele>
        <time>2018-06-23T08:26:50.000Z</time>
      </trkpt>
      <trkpt lat="47.85576" lon="6.78696">
        <ele>794</ele>
        <time>2018-06-23T08:26:51.000Z</time>
      </trkpt>
      <trkpt lat="47.85576" lon="6.78695">
        <ele>794</ele>
        <time>2018-06-23T08:26:52.000Z</time>
      </trkpt>
      <trkpt lat="47.85576" lon="6.78694">
        <ele>794</ele>
        <time>2018-06-23T08:26:53.000Z</time>
      </trkpt>
      <trkpt lat="47.85576" lon="6.78692">
        <ele>794</ele>
        <time>2018-06-23T08:26:54.000Z</time>
      </trkpt>
      <trkpt lat="47.85575" lon="6.78691">
        <ele>794</ele>
        <time>2018-06-23T08:26:55.000Z</time>
      </trkpt>
      <trkpt lat="47.85575" lon="6.78689">
        <ele>794</ele>
        <time>2018-06-23T08:26:56.000Z</time>
      </trkpt>
      <trkpt lat="47.85575" lon="6.78688">
        <ele>794</ele>
        <time>2018-06-23T08:26:57.000Z</time>
      </trkpt>
      <trkpt lat="47.85575" lon="6.78687">
        <ele>794</ele>
        <time>2018-06-23T08:26:58.000Z</time>
      </trkpt>
      <trkpt lat="47.85575" lon="6.78685">
        <ele>794</ele>
        <time>2018-06-23T08:26:59.000Z</time>
      </trkpt>
      <trkpt lat="47.85575" lon="6.78684">
        <ele>794</ele>
        <time>2018-06-23T08:27:00.000Z</time>
      </trkpt>
      <trkpt lat="47.85574" lon="6.78683">
        <ele>794</ele>
        <time>2018-06-23T08:27:01.000Z</time>
      </trkpt>
      <trkpt lat="47.85574" lon="6.78682">
        <ele>794</ele>
        <time>2018-06-23T08:27:02.000Z</time>
      </trkpt>
      <trkpt lat="47.85574" lon="6.7868">
        <ele>794</ele>
        <time>2018-06-23T08:27:03.000Z</time>
      </trkpt>
      <trkpt lat="47.85573" lon="6.78679">
        <ele>794</ele>
        <time>2018-06-23T08:27:04.000Z</time>
      </trkpt>
      <trkpt lat="47.85573" lon="6.78677">
        <ele>794</ele>
        <time>2018-06-23T08:27:05.000Z</time>
      </trkpt>
      <trkpt lat="47.85572" lon="6.78676">
        <ele>794</ele>
        <time>2018-06-23T08:27:06.000Z</time>
      </trkpt>
      <trkpt lat="47.85572" lon="6.78675">
        <ele>794</ele>
        <time>2018-06-23T08:27:07.000Z</time>
      </trkpt>
      <trkpt lat="47.85571" lon="6.78674">
        <ele>795</ele>
        <time>2018-06-23T08:27:08.000Z</time>
      </trkpt>
      <trkpt lat="47.8557" lon="6.78673">
        <ele>795</ele>
        <time>2018-06-23T08:27:09.000Z</time>
      </trkpt>
      <trkpt lat="47.85569" lon="6.78672">
        <ele>795</ele>
        <time>2018-06-23T08:27:10.000Z</time>
      </trkpt>
      <trkpt lat="47.85568" lon="6.78671">
        <ele>795</ele>
        <time>2018-06-23T08:27:11.000Z</time>
      </trkpt>
      <trkpt lat="47.85567" lon="6.78671">
        <ele>795</ele>
        <time>2018-06-23T08:27:12.000Z</time>
      </trkpt>
      <trkpt lat="47.85567" lon="6.7867">
        <ele>795</ele>
        <time>2018-06-23T08:27:13.000Z</time>
      </trkpt>
      <trkpt lat="47.85565" lon="6.7867">
        <ele>795</ele>
        <time>2018-06-23T08:27:14.000Z</time>
      </trkpt>
      <trkpt lat="47.85565" lon="6.7867">
        <ele>795</ele>
        <time>2018-06-23T08:27:15.000Z</time>
      </trkpt>
      <trkpt lat="47.85564" lon="6.7867">
        <ele>795</ele>
        <time>2018-06-23T08:27:16.000Z</time>
      </trkpt>
      <trkpt lat="47.85563" lon="6.7867">
        <ele>795</ele>
        <time>2018-06-23T08:27:17.000Z</time>
      </trkpt>
      <trkpt lat="47.85563" lon="6.78671">
        <ele>795</ele>
        <time>2018-06-23T08:27:18.000Z</time>
      </trkpt>
      <trkpt lat="47.85562" lon="6.78671">
        <ele>795</ele>
        <time>2018-06-23T08:27:19.000Z</time>
      </trkpt>
      <trkpt lat="47.85562" lon="6.78672">
        <ele>795</ele>
        <time>2018-06-23T08:27:20.000Z</time>
      </trkpt>
      <trkpt lat="47.85561" lon="6.78673">
        <ele>795</ele>
        <time>2018-06-23T08:27:21.000Z</time>
      </trkpt>
      <trkpt lat="47.8556" lon="6.78673">
        <ele>795</ele>
        <time>2018-06-23T08:27:22.000Z</time>
      </trkpt>
      <trkpt lat="47.85559" lon="6.78674">
        <ele>795</ele>
        <time>2018-06-23T08:27:23.000Z</time>
      </trkpt>
      <trkpt lat="47.85559" lon="6.78676">
        <ele>795</ele>
        <time>2018-06-23T08:27:24.000Z</time>
      </trkpt>
      <trkpt lat="47.85558" lon="6.78677">
        <ele>795</ele>
        <time>2018-06-23T08:27:25.000Z</time>
      </trkpt>
      <trkpt lat="47.85557" lon="6.78678">
        <ele>795</ele>
        <time>2018-06-23T08:27:26.000Z</time>
      </trkpt>
      <trkpt lat="47.85556" lon="6.78679">
        <ele>795</ele>
        <time>2018-06-23T08:27:27.000Z</time>
      </trkpt>
      <trkpt lat="47.85556" lon="6.7868">
        <ele>795</ele>
        <time>2018-06-23T08:27:28.000Z</time>
      </trkpt>
      <trkpt lat="47.85555" lon="6.78681">
        <ele>795</ele>
        <time>2018-06-23T08:27:29.000Z</time>
      </trkpt>
      <trkpt lat="47.85555" lon="6.78682">
        <ele>795</ele>
        <time>2018-06-23T08:27:30.000Z</time>
      </trkpt>
      <trkpt lat="47.85554" lon="6.78683">
        <ele>795</ele>
        <time>2018-06-23T08:27:31.000Z</time>
      </trkpt>
      <trkpt lat="47.85553" lon="6.78685">
        <ele>795</ele>
        <time>2018-06-23T08:27:32.000Z</time>
      </trkpt>
      <trkpt lat="47.85552" lon="6.78686">
        <ele>795</ele>
        <time>2018-06-23T08:27:33.000Z</time>
      </trkpt>
      <trkpt lat="47.85552" lon="6.78687">
        <ele>795</ele>
        <time>2018-06-23T08:27:34.000Z</time>
      </trkpt>
      <trkpt lat="47.85551" lon="6.78688">
        <ele>795</ele>
        <time>2018-06-23T08:27:35.000Z</time>
      </trkpt>
      <trkpt lat="47.8555" lon="6.78689">
        <ele>795</ele>
        <time>2018-06-23T08:27:36.000Z</time>
      </trkpt>
      <trkpt lat="47.85549" lon="6.7869">
        <ele>795</ele>
        <time>2018-06-23T08:27:37.000Z</time>
      </trkpt>
      <trkpt lat="47.85548" lon="6.78691">
        <ele>795</ele>
        <time>2018-06-23T08:27:38.000Z</time>
      </trkpt>
      <trkpt lat="47.85547" lon="6.78691">
        <ele>795</ele>
        <time>2018-06-23T08:27:39.000Z</time>
      </trkpt>
      <trkpt lat="47.85546" lon="6.78692">
        <ele>795</ele>
        <time>2018-06-23T08:27:40.000Z</time>
      </trkpt>
      <trkpt lat="47.85545" lon="6.78693">
        <ele>795</ele>
        <time>2018-06-23T08:27:41.000Z</time>
      </trkpt>
      <trkpt lat="47.85544" lon="6.78693">
        <ele>795</ele>
        <time>2018-06-23T08:27:42.000Z</time>
      </trkpt>
      <trkpt lat="47.85543" lon="6.78694">
        <ele>795</ele>
        <time>2018-06-23T08:27:43.000Z</time>
      </trkpt>
      <trkpt lat="47.85543" lon="6.78695">
        <ele>795</ele>
        <time>2018-06-23T08:27:44.000Z</time>
      </trkpt>
      <trkpt lat="47.85542" lon="6.78695">
        <ele>795</ele>
        <time>2018-06-23T08:27:45.000Z</time>
      </trkpt>
      <trkpt lat="47.85541" lon="6.78696">
        <ele>795</ele>
        <time>2018-06-23T08:27:46.000Z</time>
      </trkpt>
      <trkpt lat="47.8554" lon="6.78696">
        <ele>796</ele>
        <time>2018-06-23T08:27:47.000Z</time>
      </trkpt>
      <trkpt lat="47.85538" lon="6.78697">
        <ele>796</ele>
        <time>2018-06-23T08:27:48.000Z</time>
      </trkpt>
      <trkpt lat="47.85537" lon="6.78697">
        <ele>796</ele>
        <time>2018-06-23T08:27:49.000Z</time>
      </trkpt>
      <trkpt lat="47.85536" lon="6.78698">
        <ele>796</ele>
        <time>2018-06-23T08:27:50.000Z</time>
      </trkpt>
      <trkpt lat="47.85535" lon="6.78698">
        <ele>796</ele>
        <time>2018-06-23T08:27:51.000Z</time>
      </trkpt>
      <trkpt lat="47.85534" lon="6.78698">
        <ele>796</ele>
        <time>2018-06-23T08:27:52.000Z</time>
      </trkpt>
      <trkpt lat="47.85532" lon="6.78699">
        <ele>796</ele>
        <time>2018-06-23T08:27:53.000Z</time>
      </trkpt>
      <trkpt lat="47.85531" lon="6.78699">
        <ele>796</ele>
        <time>2018-06-23T08:27:54.000Z</time>
      </trkpt>
      <trkpt lat="47.8553" lon="6.78699">
        <ele>796</ele>
        <time>2018-06-23T08:27:55.000Z</time>
      </trkpt>
      <trkpt lat="47.85529" lon="6.78699">
        <ele>796</ele>
        <time>2018-06-23T08:27:56.000Z</time>
      </trkpt>
      <trkpt lat="47.85527" lon="6.78699">
        <ele>796</ele>
        <time>2018-06-23T08:27:57.000Z</time>
      </trkpt>
      <trkpt lat="47.85526" lon="6.78699">
        <ele>796</ele>
        <time>2018-06-23T08:27:58.000Z</time>
      </trkpt>
      <trkpt lat="47.85525" lon="6.78698">
        <ele>796</ele>
        <time>2018-06-23T08:27:59.000Z</time>
      </trkpt>
      <trkpt lat="47.85524" lon="6.78698">
        <ele>796</ele>
        <time>2018-06-23T08:28:00.000Z</time>
      </trkpt>
      <trkpt lat="47.85523" lon="6.78698">
        <ele>796</ele>
        <time>2018-06-23T08:28:01.000Z</time>
      </trkpt>
      <trkpt lat="47.85522" lon="6.78698">
        <ele>797</ele>
        <time>2018-06-23T08:28:02.000Z</time>
      </trkpt>
      <trkpt lat="47.85521" lon="6.78698">
        <ele>797</ele>
        <time>2018-06-23T08:28:03.000Z</time>
      </trkpt>
      <trkpt lat="47.85519" lon="6.78698">
        <ele>797</ele>
        <time>2018-06-23T08:28:04.000Z</time>
      </trkpt>
      <trkpt lat="47.85518" lon="6.78698">
        <ele>797</ele>
        <time>2018-06-23T08:28:05.000Z</time>
      </trkpt>
      <trkpt lat="47.85517" lon="6.78698">
        <ele>797</ele>
        <time>2018-06-23T08:28:06.000Z</time>
      </trkpt>
      <trkpt lat="47.85516" lon="6.78698">
        <ele>797</ele>
        <time>2018-06-23T08:28:07.000Z</time>
      </trkpt>
      <trkpt lat="47.85514" lon="6.78697">
        <ele>797</ele>
        <time>2018-06-23T08:28:08.000Z</time>
      </trkpt>
      <trkpt lat="47.85513" lon="6.78697">
        <ele>797</ele>
        <time>2018-06-23T08:28:09.000Z</time>
      </trkpt>
      <trkpt lat="47.85512" lon="6.78696">
        <ele>797</ele>
        <time>2018-06-23T08:28:10.000Z</time>
      </trkpt>
      <trkpt lat="47.85511" lon="6.78696">
        <ele>798</ele>
        <time>2018-06-23T08:28:11.000Z</time>
      </trkpt>
      <trkpt lat="47.8551" lon="6.78695">
        <ele>798</ele>
        <time>2018-06-23T08:28:12.000Z</time>
      </trkpt>
      <trkpt lat="47.85509" lon="6.78695">
        <ele>798</ele>
        <time>2018-06-23T08:28:13.000Z</time>
      </trkpt>
      <trkpt lat="47.85508" lon="6.78694">
        <ele>798</ele>
        <time>2018-06-23T08:28:14.000Z</time>
      </trkpt>
      <trkpt lat="47.85506" lon="6.78693">
        <ele>798</ele>
        <time>2018-06-23T08:28:15.000Z</time>
      </trkpt>
      <trkpt lat="47.85505" lon="6.78693">
        <ele>799</ele>
        <time>2018-06-23T08:28:16.000Z</time>
      </trkpt>
      <trkpt lat="47.85504" lon="6.78692">
        <ele>799</ele>
        <time>2018-06-23T08:28:17.000Z</time>
      </trkpt>
      <trkpt lat="47.85503" lon="6.78691">
        <ele>799</ele>
        <time>2018-06-23T08:28:18.000Z</time>
      </trkpt>
      <trkpt lat="47.85502" lon="6.7869">
        <ele>799</ele>
        <time>2018-06-23T08:28:19.000Z</time>
      </trkpt>
      <trkpt lat="47.85502" lon="6.7869">
        <ele>799</ele>
        <time>2018-06-23T08:28:20.000Z</time>
      </trkpt>
      <trkpt lat="47.85501" lon="6.78689">
        <ele>799</ele>
        <time>2018-06-23T08:28:21.000Z</time>
      </trkpt>
      <trkpt lat="47.855" lon="6.78688">
        <ele>800</ele>
        <time>2018-06-23T08:28:22.000Z</time>
      </trkpt>
      <trkpt lat="47.85499" lon="6.78688">
        <ele>801</ele>
        <time>2018-06-23T08:28:23.000Z</time>
      </trkpt>
      <trkpt lat="47.85499" lon="6.78687">
        <ele>801</ele>
        <time>2018-06-23T08:28:24.000Z</time>
      </trkpt>
      <trkpt lat="47.85497" lon="6.78687">
        <ele>801</ele>
        <time>2018-06-23T08:28:25.000Z</time>
      </trkpt>
      <trkpt lat="47.85496" lon="6.78686">
        <ele>801</ele>
        <time>2018-06-23T08:28:26.000Z</time>
      </trkpt>
      <trkpt lat="47.85495" lon="6.78686">
        <ele>801</ele>
        <time>2018-06-23T08:28:27.000Z</time>
      </trkpt>
      <trkpt lat="47.85494" lon="6.78685">
        <ele>801</ele>
        <time>2018-06-23T08:28:28.000Z</time>
      </trkpt>
      <trkpt lat="47.85494" lon="6.78684">
        <ele>801</ele>
        <time>2018-06-23T08:28:29.000Z</time>
      </trkpt>
      <trkpt lat="47.85492" lon="6.78684">
        <ele>802</ele>
        <time>2018-06-23T08:28:30.000Z</time>
      </trkpt>
      <trkpt lat="47.85491" lon="6.78683">
        <ele>802</ele>
        <time>2018-06-23T08:28:31.000Z</time>
      </trkpt>
      <trkpt lat="47.8549" lon="6.78683">
        <ele>802</ele>
        <time>2018-06-23T08:28:32.000Z</time>
      </trkpt>
      <trkpt lat="47.85489" lon="6.78682">
        <ele>802</ele>
        <time>2018-06-23T08:28:33.000Z</time>
      </trkpt>
      <trkpt lat="47.85488" lon="6.78682">
        <ele>802</ele>
        <time>2018-06-23T08:28:34.000Z</time>
      </trkpt>
      <trkpt lat="47.85487" lon="6.78681">
        <ele>802</ele>
        <time>2018-06-23T08:28:35.000Z</time>
      </trkpt>
      <trkpt lat="47.85486" lon="6.7868">
        <ele>802</ele>
        <time>2018-06-23T08:28:36.000Z</time>
      </trkpt>
      <trkpt lat="47.85485" lon="6.78679">
        <ele>802</ele>
        <time>2018-06-23T08:28:37.000Z</time>
      </trkpt>
      <trkpt lat="47.85484" lon="6.78679">
        <ele>802</ele>
        <time>2018-06-23T08:28:38.000Z</time>
      </trkpt>
      <trkpt lat="47.85483" lon="6.78678">
        <ele>802</ele>
        <time>2018-06-23T08:28:39.000Z</time>
      </trkpt>
      <trkpt lat="47.85482" lon="6.78677">
        <ele>802</ele>
        <time>2018-06-23T08:28:40.000Z</time>
      </trkpt>
      <trkpt lat="47.85482" lon="6.78677">
        <ele>801</ele>
        <time>2018-06-23T08:28:41.000Z</time>
      </trkpt>
      <trkpt lat="47.85481" lon="6.78677">
        <ele>801</ele>
        <time>2018-06-23T08:28:42.000Z</time>
      </trkpt>
      <trkpt lat="47.8548" lon="6.78676">
        <ele>801</ele>
        <time>2018-06-23T08:28:43.000Z</time>
      </trkpt>
      <trkpt lat="47.85479" lon="6.78676">
        <ele>801</ele>
        <time>2018-06-23T08:28:44.000Z</time>
      </trkpt>
      <trkpt lat="47.85478" lon="6.78676">
        <ele>801</ele>
        <time>2018-06-23T08:28:45.000Z</time>
      </trkpt>
      <trkpt lat="47.85477" lon="6.78676">
        <ele>801</ele>
        <time>2018-06-23T08:28:46.000Z</time>
      </trkpt>
      <trkpt lat="47.85476" lon="6.78675">
        <ele>801</ele>
        <time>2018-06-23T08:28:47.000Z</time>
      </trkpt>
      <trkpt lat="47.85475" lon="6.78674">
        <ele>801</ele>
        <time>2018-06-23T08:28:48.000Z</time>
      </trkpt>
      <trkpt lat="47.85474" lon="6.78674">
        <ele>801</ele>
        <time>2018-06-23T08:28:49.000Z</time>
      </trkpt>
      <trkpt lat="47.85473" lon="6.78673">
        <ele>801</ele>
        <time>2018-06-23T08:28:50.000Z</time>
      </trkpt>
      <trkpt lat="47.85472" lon="6.78672">
        <ele>801</ele>
        <time>2018-06-23T08:28:51.000Z</time>
      </trkpt>
      <trkpt lat="47.85471" lon="6.78672">
        <ele>801</ele>
        <time>2018-06-23T08:28:52.000Z</time>
      </trkpt>
      <trkpt lat="47.8547" lon="6.78671">
        <ele>801</ele>
        <time>2018-06-23T08:28:53.000Z</time>
      </trkpt>
      <trkpt lat="47.85469" lon="6.7867">
        <ele>801</ele>
        <time>2018-06-23T08:28:54.000Z</time>
      </trkpt>
      <trkpt lat="47.85468" lon="6.78669">
        <ele>801</ele>
        <time>2018-06-23T08:28:55.000Z</time>
      </trkpt>
      <trkpt lat="47.85467" lon="6.78668">
        <ele>801</ele>
        <time>2018-06-23T08:28:56.000Z</time>
      </trkpt>
      <trkpt lat="47.85466" lon="6.78667">
        <ele>801</ele>
        <time>2018-06-23T08:28:57.000Z</time>
      </trkpt>
      <trkpt lat="47.85465" lon="6.78666">
        <ele>812</ele>
        <time>2018-06-23T08:28:58.000Z</time>
      </trkpt>
      <trkpt lat="47.85465" lon="6.78665">
        <ele>812</ele>
        <time>2018-06-23T08:28:59.000Z</time>
      </trkpt>
      <trkpt lat="47.85464" lon="6.78665">
        <ele>812</ele>
        <time>2018-06-23T08:29:00.000Z</time>
      </trkpt>
      <trkpt lat="47.85464" lon="6.78664">
        <ele>812</ele>
        <time>2018-06-23T08:29:01.000Z</time>
      </trkpt>
      <trkpt lat="47.85464" lon="6.78662">
        <ele>812</ele>
        <time>2018-06-23T08:29:02.000Z</time>
      </trkpt>
      <trkpt lat="47.85464" lon="6.78661">
        <ele>812</ele>
        <time>2018-06-23T08:29:03.000Z</time>
      </trkpt>
      <trkpt lat="47.85464" lon="6.7866">
        <ele>812</ele>
        <time>2018-06-23T08:29:04.000Z</time>
      </trkpt>
      <trkpt lat="47.85464" lon="6.78659">
        <ele>812</ele>
        <time>2018-06-23T08:29:05.000Z</time>
      </trkpt>
      <trkpt lat="47.85464" lon="6.78658">
        <ele>812</ele>
        <time>2018-06-23T08:29:06.000Z</time>
      </trkpt>
      <trkpt lat="47.85465" lon="6.78658">
        <ele>812</ele>
        <time>2018-06-23T08:29:07.000Z</time>
      </trkpt>
      <trkpt lat="47.85466" lon="6.78657">
        <ele>812</ele>
        <time>2018-06-23T08:29:08.000Z</time>
      </trkpt>
      <trkpt lat="47.85466" lon="6.78656">
        <ele>812</ele>
        <time>2018-06-23T08:29:09.000Z</time>
      </trkpt>
      <trkpt lat="47.85467" lon="6.78655">
        <ele>812</ele>
        <time>2018-06-23T08:29:10.000Z</time>
      </trkpt>
      <trkpt lat="47.85467" lon="6.78654">
        <ele>812</ele>
        <time>2018-06-23T08:29:11.000Z</time>
      </trkpt>
      <trkpt lat="47.85468" lon="6.78654">
        <ele>812</ele>
        <time>2018-06-23T08:29:12.000Z</time>
      </trkpt>
      <trkpt lat="47.85469" lon="6.78653">
        <ele>812</ele>
        <time>2018-06-23T08:29:13.000Z</time>
      </trkpt>
      <trkpt lat="47.85469" lon="6.78652">
        <ele>812</ele>
        <time>2018-06-23T08:29:14.000Z</time>
      </trkpt>
      <trkpt lat="47.8547" lon="6.78651">
        <ele>812</ele>
        <time>2018-06-23T08:29:15.000Z</time>
      </trkpt>
      <trkpt lat="47.85471" lon="6.7865">
        <ele>812</ele>
        <time>2018-06-23T08:29:16.000Z</time>
      </trkpt>
      <trkpt lat="47.85471" lon="6.7865">
        <ele>812</ele>
        <time>2018-06-23T08:29:17.000Z</time>
      </trkpt>
      <trkpt lat="47.85472" lon="6.78649">
        <ele>812</ele>
        <time>2018-06-23T08:29:18.000Z</time>
      </trkpt>
      <trkpt lat="47.85472" lon="6.78648">
        <ele>812</ele>
        <time>2018-06-23T08:29:19.000Z</time>
      </trkpt>
      <trkpt lat="47.85472" lon="6.78648">
        <ele>813</ele>
        <time>2018-06-23T08:29:20.000Z</time>
      </trkpt>
      <trkpt lat="47.85474" lon="6.78631">
        <ele>814</ele>
        <time>2018-06-23T08:29:21.000Z</time>
      </trkpt>
      <trkpt lat="47.85475" lon="6.7863">
        <ele>814</ele>
        <time>2018-06-23T08:29:22.000Z</time>
      </trkpt>
      <trkpt lat="47.85475" lon="6.78629">
        <ele>814</ele>
        <time>2018-06-23T08:29:23.000Z</time>
      </trkpt>
      <trkpt lat="47.85475" lon="6.78629">
        <ele>814</ele>
        <time>2018-06-23T08:29:24.000Z</time>
      </trkpt>
      <trkpt lat="47.85475" lon="6.78627">
        <ele>814</ele>
        <time>2018-06-23T08:29:25.000Z</time>
      </trkpt>
      <trkpt lat="47.85475" lon="6.78626">
        <ele>814</ele>
        <time>2018-06-23T08:29:26.000Z</time>
      </trkpt>
      <trkpt lat="47.85476" lon="6.78625">
        <ele>814</ele>
        <time>2018-06-23T08:29:27.000Z</time>
      </trkpt>
      <trkpt lat="47.85476" lon="6.78624">
        <ele>814</ele>
        <time>2018-06-23T08:29:28.000Z</time>
      </trkpt>
      <trkpt lat="47.85476" lon="6.78624">
        <ele>814</ele>
        <time>2018-06-23T08:29:29.000Z</time>
      </trkpt>
      <trkpt lat="47.85476" lon="6.78623">
        <ele>814</ele>
        <time>2018-06-23T08:29:30.000Z</time>
      </trkpt>
      <trkpt lat="47.85477" lon="6.78622">
        <ele>814</ele>
        <time>2018-06-23T08:29:31.000Z</time>
      </trkpt>
      <trkpt lat="47.85477" lon="6.78621">
        <ele>814</ele>
        <time>2018-06-23T08:29:32.000Z</time>
      </trkpt>
      <trkpt lat="47.85477" lon="6.78621">
        <ele>814</ele>
        <time>2018-06-23T08:29:33.000Z</time>
      </trkpt>
      <trkpt lat="47.85477" lon="6.7862">
        <ele>814</ele>
        <time>2018-06-23T08:29:34.000Z</time>
      </trkpt>
      <trkpt lat="47.85478" lon="6.78618">
        <ele>814</ele>
        <time>2018-06-23T08:29:35.000Z</time>
      </trkpt>
      <trkpt lat="47.85478" lon="6.78617">
        <ele>815</ele>
        <time>2018-06-23T08:29:36.000Z</time>
      </trkpt>
      <trkpt lat="47.85478" lon="6.78616">
        <ele>815</ele>
        <time>2018-06-23T08:29:37.000Z</time>
      </trkpt>
      <trkpt lat="47.85479" lon="6.78615">
        <ele>815</ele>
        <time>2018-06-23T08:29:38.000Z</time>
      </trkpt>
      <trkpt lat="47.85479" lon="6.78613">
        <ele>815</ele>
        <time>2018-06-23T08:29:39.000Z</time>
      </trkpt>
      <trkpt lat="47.8548" lon="6.78612">
        <ele>815</ele>
        <time>2018-06-23T08:29:40.000Z</time>
      </trkpt>
      <trkpt lat="47.8548" lon="6.7861">
        <ele>815</ele>
        <time>2018-06-23T08:29:41.000Z</time>
      </trkpt>
      <trkpt lat="47.8548" lon="6.78609">
        <ele>815</ele>
        <time>2018-06-23T08:29:42.000Z</time>
      </trkpt>
      <trkpt lat="47.8548" lon="6.78608">
        <ele>815</ele>
        <time>2018-06-23T08:29:43.000Z</time>
      </trkpt>
      <trkpt lat="47.8548" lon="6.78607">
        <ele>815</ele>
        <time>2018-06-23T08:29:44.000Z</time>
      </trkpt>
      <trkpt lat="47.85481" lon="6.78606">
        <ele>815</ele>
        <time>2018-06-23T08:29:45.000Z</time>
      </trkpt>
      <trkpt lat="47.85481" lon="6.78606">
        <ele>815</ele>
        <time>2018-06-23T08:29:46.000Z</time>
      </trkpt>
      <trkpt lat="47.85482" lon="6.78605">
        <ele>815</ele>
        <time>2018-06-23T08:29:47.000Z</time>
      </trkpt>
      <trkpt lat="47.85482" lon="6.78604">
        <ele>815</ele>
        <time>2018-06-23T08:29:48.000Z</time>
      </trkpt>
      <trkpt lat="47.85483" lon="6.78603">
        <ele>815</ele>
        <time>2018-06-23T08:29:49.000Z</time>
      </trkpt>
      <trkpt lat="47.85483" lon="6.78601">
        <ele>815</ele>
        <time>2018-06-23T08:29:50.000Z</time>
      </trkpt>
      <trkpt lat="47.85484" lon="6.786">
        <ele>815</ele>
        <time>2018-06-23T08:29:51.000Z</time>
      </trkpt>
      <trkpt lat="47.85484" lon="6.78599">
        <ele>815</ele>
        <time>2018-06-23T08:29:52.000Z</time>
      </trkpt>
      <trkpt lat="47.85484" lon="6.78598">
        <ele>815</ele>
        <time>2018-06-23T08:29:53.000Z</time>
      </trkpt>
      <trkpt lat="47.85484" lon="6.78596">
        <ele>815</ele>
        <time>2018-06-23T08:29:54.000Z</time>
      </trkpt>
      <trkpt lat="47.85484" lon="6.78595">
        <ele>815</ele>
        <time>2018-06-23T08:29:55.000Z</time>
      </trkpt>
      <trkpt lat="47.85483" lon="6.78593">
        <ele>815</ele>
        <time>2018-06-23T08:29:56.000Z</time>
      </trkpt>
      <trkpt lat="47.85483" lon="6.78592">
        <ele>815</ele>
        <time>2018-06-23T08:29:57.000Z</time>
      </trkpt>
      <trkpt lat="47.85483" lon="6.7859">
        <ele>815</ele>
        <time>2018-06-23T08:29:58.000Z</time>
      </trkpt>
      <trkpt lat="47.85484" lon="6.78589">
        <ele>815</ele>
        <time>2018-06-23T08:29:59.000Z</time>
      </trkpt>
      <trkpt lat="47.85483" lon="6.78588">
        <ele>815</ele>
        <time>2018-06-23T08:30:00.000Z</time>
      </trkpt>
      <trkpt lat="47.85484" lon="6.78586">
        <ele>815</ele>
        <time>2018-06-23T08:30:01.000Z</time>
      </trkpt>
      <trkpt lat="47.85483" lon="6.78585">
        <ele>815</ele>
        <time>2018-06-23T08:30:02.000Z</time>
      </trkpt>
      <trkpt lat="47.85483" lon="6.78583">
        <ele>820</ele>
        <time>2018-06-23T08:30:03.000Z</time>
      </trkpt>
      <trkpt lat="47.85483" lon="6.78582">
        <ele>820</ele>
        <time>2018-06-23T08:30:04.000Z</time>
      </trkpt>
      <trkpt lat="47.85483" lon="6.7858">
        <ele>820</ele>
        <time>2018-06-23T08:30:05.000Z</time>
      </trkpt>
      <trkpt lat="47.85483" lon="6.78579">
        <ele>820</ele>
        <time>2018-06-23T08:30:06.000Z</time>
      </trkpt>
      <trkpt lat="47.85482" lon="6.78577">
        <ele>821</ele>
        <time>2018-06-23T08:30:07.000Z</time>
      </trkpt>
      <trkpt lat="47.85482" lon="6.78576">
        <ele>821</ele>
        <time>2018-06-23T08:30:08.000Z</time>
      </trkpt>
      <trkpt lat="47.85482" lon="6.78574">
        <ele>821</ele>
        <time>2018-06-23T08:30:09.000Z</time>
      </trkpt>
      <trkpt lat="47.85481" lon="6.78572">
        <ele>821</ele>
        <time>2018-06-23T08:30:10.000Z</time>
      </trkpt>
      <trkpt lat="47.85481" lon="6.78571">
        <ele>822</ele>
        <time>2018-06-23T08:30:11.000Z</time>
      </trkpt>
      <trkpt lat="47.85481" lon="6.7857">
        <ele>822</ele>
        <time>2018-06-23T08:30:12.000Z</time>
      </trkpt>
      <trkpt lat="47.85481" lon="6.78569">
        <ele>822</ele>
        <time>2018-06-23T08:30:13.000Z</time>
      </trkpt>
      <trkpt lat="47.85481" lon="6.78568">
        <ele>822</ele>
        <time>2018-06-23T08:30:14.000Z</time>
      </trkpt>
      <trkpt lat="47.8548" lon="6.78568">
        <ele>822</ele>
        <time>2018-06-23T08:30:15.000Z</time>
      </trkpt>
      <trkpt lat="47.8548" lon="6.78567">
        <ele>822</ele>
        <time>2018-06-23T08:30:16.000Z</time>
      </trkpt>
      <trkpt lat="47.85479" lon="6.78566">
        <ele>822</ele>
        <time>2018-06-23T08:30:17.000Z</time>
      </trkpt>
      <trkpt lat="47.85479" lon="6.78565">
        <ele>822</ele>
        <time>2018-06-23T08:30:18.000Z</time>
      </trkpt>
      <trkpt lat="47.85479" lon="6.78563">
        <ele>823</ele>
        <time>2018-06-23T08:30:19.000Z</time>
      </trkpt>
      <trkpt lat="47.85479" lon="6.78562">
        <ele>823</ele>
        <time>2018-06-23T08:30:20.000Z</time>
      </trkpt>
      <trkpt lat="47.85478" lon="6.78561">
        <ele>823</ele>
        <time>2018-06-23T08:30:21.000Z</time>
      </trkpt>
      <trkpt lat="47.85478" lon="6.7856">
        <ele>823</ele>
        <time>2018-06-23T08:30:22.000Z</time>
      </trkpt>
      <trkpt lat="47.85478" lon="6.78558">
        <ele>823</ele>
        <time>2018-06-23T08:30:23.000Z</time>
      </trkpt>
      <trkpt lat="47.85478" lon="6.78557">
        <ele>823</ele>
        <time>2018-06-23T08:30:24.000Z</time>
      </trkpt>
      <trkpt lat="47.85477" lon="6.78556">
        <ele>824</ele>
        <time>2018-06-23T08:30:25.000Z</time>
      </trkpt>
      <trkpt lat="47.85477" lon="6.78555">
        <ele>824</ele>
        <time>2018-06-23T08:30:26.000Z</time>
      </trkpt>
      <trkpt lat="47.85476" lon="6.78554">
        <ele>824</ele>
        <time>2018-06-23T08:30:27.000Z</time>
      </trkpt>
      <trkpt lat="47.85476" lon="6.78552">
        <ele>824</ele>
        <time>2018-06-23T08:30:28.000Z</time>
      </trkpt>
      <trkpt lat="47.85476" lon="6.78551">
        <ele>824</ele>
        <time>2018-06-23T08:30:29.000Z</time>
      </trkpt>
      <trkpt lat="47.85476" lon="6.7855">
        <ele>824</ele>
        <time>2018-06-23T08:30:30.000Z</time>
      </trkpt>
      <trkpt lat="47.85476" lon="6.78549">
        <ele>824</ele>
        <time>2018-06-23T08:30:31.000Z</time>
      </trkpt>
      <trkpt lat="47.85476" lon="6.78548">
        <ele>824</ele>
        <time>2018-06-23T08:30:32.000Z</time>
      </trkpt>
      <trkpt lat="47.85475" lon="6.78547">
        <ele>824</ele>
        <time>2018-06-23T08:30:33.000Z</time>
      </trkpt>
      <trkpt lat="47.85475" lon="6.78546">
        <ele>824</ele>
        <time>2018-06-23T08:30:34.000Z</time>
      </trkpt>
      <trkpt lat="47.85475" lon="6.78545">
        <ele>825</ele>
        <time>2018-06-23T08:30:35.000Z</time>
      </trkpt>
      <trkpt lat="47.85474" lon="6.78544">
        <ele>825</ele>
        <time>2018-06-23T08:30:36.000Z</time>
      </trkpt>
      <trkpt lat="47.85473" lon="6.78543">
        <ele>825</ele>
        <time>2018-06-23T08:30:37.000Z</time>
      </trkpt>
      <trkpt lat="47.85473" lon="6.78542">
        <ele>825</ele>
        <time>2018-06-23T08:30:38.000Z</time>
      </trkpt>
      <trkpt lat="47.85472" lon="6.78541">
        <ele>825</ele>
        <time>2018-06-23T08:30:39.000Z</time>
      </trkpt>
      <trkpt lat="47.85472" lon="6.7854">
        <ele>825</ele>
        <time>2018-06-23T08:30:40.000Z</time>
      </trkpt>
      <trkpt lat="47.85471" lon="6.78539">
        <ele>825</ele>
        <time>2018-06-23T08:30:41.000Z</time>
      </trkpt>
      <trkpt lat="47.85471" lon="6.78538">
        <ele>825</ele>
        <time>2018-06-23T08:30:42.000Z</time>
      </trkpt>
      <trkpt lat="47.8547" lon="6.78537">
        <ele>825</ele>
        <time>2018-06-23T08:30:43.000Z</time>
      </trkpt>
      <trkpt lat="47.8547" lon="6.78537">
        <ele>825</ele>
        <time>2018-06-23T08:30:44.000Z</time>
      </trkpt>
      <trkpt lat="47.8547" lon="6.78536">
        <ele>825</ele>
        <time>2018-06-23T08:30:45.000Z</time>
      </trkpt>
      <trkpt lat="47.85469" lon="6.78535">
        <ele>826</ele>
        <time>2018-06-23T08:30:46.000Z</time>
      </trkpt>
      <trkpt lat="47.85469" lon="6.78534">
        <ele>826</ele>
        <time>2018-06-23T08:30:47.000Z</time>
      </trkpt>
      <trkpt lat="47.85468" lon="6.78533">
        <ele>826</ele>
        <time>2018-06-23T08:30:48.000Z</time>
      </trkpt>
      <trkpt lat="47.85468" lon="6.78532">
        <ele>826</ele>
        <time>2018-06-23T08:30:49.000Z</time>
      </trkpt>
      <trkpt lat="47.85468" lon="6.78532">
        <ele>826</ele>
        <time>2018-06-23T08:30:50.000Z</time>
      </trkpt>
      <trkpt lat="47.85467" lon="6.78531">
        <ele>826</ele>
        <time>2018-06-23T08:30:51.000Z</time>
      </trkpt>
      <trkpt lat="47.85467" lon="6.7853">
        <ele>826</ele>
        <time>2018-06-23T08:30:52.000Z</time>
      </trkpt>
      <trkpt lat="47.85467" lon="6.78529">
        <ele>826</ele>
        <time>2018-06-23T08:30:53.000Z</time>
      </trkpt>
      <trkpt lat="47.85466" lon="6.78528">
        <ele>826</ele>
        <time>2018-06-23T08:30:54.000Z</time>
      </trkpt>
      <trkpt lat="47.85466" lon="6.78528">
        <ele>826</ele>
        <time>2018-06-23T08:30:55.000Z</time>
      </trkpt>
      <trkpt lat="47.85466" lon="6.78527">
        <ele>826</ele>
        <time>2018-06-23T08:30:56.000Z</time>
      </trkpt>
      <trkpt lat="47.85466" lon="6.78527">
        <ele>826</ele>
        <time>2018-06-23T08:30:57.000Z</time>
      </trkpt>
      <trkpt lat="47.85466" lon="6.78527">
        <ele>826</ele>
        <time>2018-06-23T08:30:58.000Z</time>
      </trkpt>
      <trkpt lat="47.85466" lon="6.78526">
        <ele>826</ele>
        <time>2018-06-23T08:30:59.000Z</time>
      </trkpt>
      <trkpt lat="47.85466" lon="6.78526">
        <ele>826</ele>
        <time>2018-06-23T08:31:00.000Z</time>
      </trkpt>
      <trkpt lat="47.85466" lon="6.78525">
        <ele>826</ele>
        <time>2018-06-23T08:31:01.000Z</time>
      </trkpt>
      <trkpt lat="47.85466" lon="6.78525">
        <ele>826</ele>
        <time>2018-06-23T08:31:02.000Z</time>
      </trkpt>
      <trkpt lat="47.85466" lon="6.78524">
        <ele>826</ele>
        <time>2018-06-23T08:31:03.000Z</time>
      </trkpt>
      <trkpt lat="47.85465" lon="6.78523">
        <ele>826</ele>
        <time>2018-06-23T08:31:04.000Z</time>
      </trkpt>
      <trkpt lat="47.85465" lon="6.78522">
        <ele>826</ele>
        <time>2018-06-23T08:31:05.000Z</time>
      </trkpt>
      <trkpt lat="47.85465" lon="6.78521">
        <ele>827</ele>
        <time>2018-06-23T08:31:06.000Z</time>
      </trkpt>
      <trkpt lat="47.85464" lon="6.7852">
        <ele>827</ele>
        <time>2018-06-23T08:31:07.000Z</time>
      </trkpt>
      <trkpt lat="47.85464" lon="6.78519">
        <ele>827</ele>
        <time>2018-06-23T08:31:08.000Z</time>
      </trkpt>
      <trkpt lat="47.85463" lon="6.78518">
        <ele>827</ele>
        <time>2018-06-23T08:31:09.000Z</time>
      </trkpt>
      <trkpt lat="47.85462" lon="6.78518">
        <ele>827</ele>
        <time>2018-06-23T08:31:10.000Z</time>
      </trkpt>
      <trkpt lat="47.85462" lon="6.78517">
        <ele>827</ele>
        <time>2018-06-23T08:31:11.000Z</time>
      </trkpt>
      <trkpt lat="47.85461" lon="6.78517">
        <ele>827</ele>
        <time>2018-06-23T08:31:12.000Z</time>
      </trkpt>
      <trkpt lat="47.85461" lon="6.78516">
        <ele>827</ele>
        <time>2018-06-23T08:31:13.000Z</time>
      </trkpt>
      <trkpt lat="47.8546" lon="6.78516">
        <ele>827</ele>
        <time>2018-06-23T08:31:14.000Z</time>
      </trkpt>
      <trkpt lat="47.8546" lon="6.78516">
        <ele>827</ele>
        <time>2018-06-23T08:31:15.000Z</time>
      </trkpt>
      <trkpt lat="47.85459" lon="6.78516">
        <ele>828</ele>
        <time>2018-06-23T08:31:16.000Z</time>
      </trkpt>
      <trkpt lat="47.85458" lon="6.78516">
        <ele>828</ele>
        <time>2018-06-23T08:31:17.000Z</time>
      </trkpt>
      <trkpt lat="47.85457" lon="6.78515">
        <ele>828</ele>
        <time>2018-06-23T08:31:18.000Z</time>
      </trkpt>
      <trkpt lat="47.85456" lon="6.78515">
        <ele>828</ele>
        <time>2018-06-23T08:31:19.000Z</time>
      </trkpt>
      <trkpt lat="47.85456" lon="6.78515">
        <ele>828</ele>
        <time>2018-06-23T08:31:20.000Z</time>
      </trkpt>
      <trkpt lat="47.85455" lon="6.78515">
        <ele>828</ele>
        <time>2018-06-23T08:31:21.000Z</time>
      </trkpt>
      <trkpt lat="47.85454" lon="6.78515">
        <ele>828</ele>
        <time>2018-06-23T08:31:22.000Z</time>
      </trkpt>
      <trkpt lat="47.85454" lon="6.78515">
        <ele>828</ele>
        <time>2018-06-23T08:31:23.000Z</time>
      </trkpt>
      <trkpt lat="47.85453" lon="6.78515">
        <ele>829</ele>
        <time>2018-06-23T08:31:24.000Z</time>
      </trkpt>
      <trkpt lat="47.85452" lon="6.78516">
        <ele>829</ele>
        <time>2018-06-23T08:31:25.000Z</time>
      </trkpt>
      <trkpt lat="47.85452" lon="6.78516">
        <ele>829</ele>
        <time>2018-06-23T08:31:26.000Z</time>
      </trkpt>
      <trkpt lat="47.85451" lon="6.78517">
        <ele>829</ele>
        <time>2018-06-23T08:31:27.000Z</time>
      </trkpt>
      <trkpt lat="47.8545" lon="6.78518">
        <ele>829</ele>
        <time>2018-06-23T08:31:28.000Z</time>
      </trkpt>
      <trkpt lat="47.8545" lon="6.78519">
        <ele>829</ele>
        <time>2018-06-23T08:31:29.000Z</time>
      </trkpt>
      <trkpt lat="47.85449" lon="6.78519">
        <ele>829</ele>
        <time>2018-06-23T08:31:30.000Z</time>
      </trkpt>
      <trkpt lat="47.85449" lon="6.7852">
        <ele>829</ele>
        <time>2018-06-23T08:31:31.000Z</time>
      </trkpt>
      <trkpt lat="47.85449" lon="6.78521">
        <ele>829</ele>
        <time>2018-06-23T08:31:32.000Z</time>
      </trkpt>
      <trkpt lat="47.85448" lon="6.78522">
        <ele>829</ele>
        <time>2018-06-23T08:31:33.000Z</time>
      </trkpt>
      <trkpt lat="47.85448" lon="6.78523">
        <ele>829</ele>
        <time>2018-06-23T08:31:34.000Z</time>
      </trkpt>
      <trkpt lat="47.85448" lon="6.78524">
        <ele>829</ele>
        <time>2018-06-23T08:31:35.000Z</time>
      </trkpt>
      <trkpt lat="47.85447" lon="6.78524">
        <ele>829</ele>
        <time>2018-06-23T08:31:36.000Z</time>
      </trkpt>
      <trkpt lat="47.85447" lon="6.78525">
        <ele>829</ele>
        <time>2018-06-23T08:31:37.000Z</time>
      </trkpt>
      <trkpt lat="47.85447" lon="6.78527">
        <ele>829</ele>
        <time>2018-06-23T08:31:38.000Z</time>
      </trkpt>
      <trkpt lat="47.85447" lon="6.78528">
        <ele>829</ele>
        <time>2018-06-23T08:31:39.000Z</time>
      </trkpt>
      <trkpt lat="47.85446" lon="6.78529">
        <ele>829</ele>
        <time>2018-06-23T08:31:40.000Z</time>
      </trkpt>
      <trkpt lat="47.85446" lon="6.7853">
        <ele>829</ele>
        <time>2018-06-23T08:31:41.000Z</time>
      </trkpt>
      <trkpt lat="47.85446" lon="6.7853">
        <ele>829</ele>
        <time>2018-06-23T08:31:42.000Z</time>
      </trkpt>
      <trkpt lat="47.85445" lon="6.78531">
        <ele>829</ele>
        <time>2018-06-23T08:31:43.000Z</time>
      </trkpt>
      <trkpt lat="47.85445" lon="6.78532">
        <ele>829</ele>
        <time>2018-06-23T08:31:44.000Z</time>
      </trkpt>
      <trkpt lat="47.85445" lon="6.78533">
        <ele>829</ele>
        <time>2018-06-23T08:31:45.000Z</time>
      </trkpt>
      <trkpt lat="47.85445" lon="6.78534">
        <ele>828</ele>
        <time>2018-06-23T08:31:46.000Z</time>
      </trkpt>
      <trkpt lat="47.85445" lon="6.78535">
        <ele>828</ele>
        <time>2018-06-23T08:31:47.000Z</time>
      </trkpt>
      <trkpt lat="47.85445" lon="6.78537">
        <ele>828</ele>
        <time>2018-06-23T08:31:48.000Z</time>
      </trkpt>
      <trkpt lat="47.85445" lon="6.78539">
        <ele>828</ele>
        <time>2018-06-23T08:31:49.000Z</time>
      </trkpt>
      <trkpt lat="47.85445" lon="6.7854">
        <ele>828</ele>
        <time>2018-06-23T08:31:50.000Z</time>
      </trkpt>
      <trkpt lat="47.85445" lon="6.78541">
        <ele>828</ele>
        <time>2018-06-23T08:31:51.000Z</time>
      </trkpt>
      <trkpt lat="47.85444" lon="6.78543">
        <ele>828</ele>
        <time>2018-06-23T08:31:52.000Z</time>
      </trkpt>
      <trkpt lat="47.85444" lon="6.78544">
        <ele>828</ele>
        <time>2018-06-23T08:31:53.000Z</time>
      </trkpt>
      <trkpt lat="47.85444" lon="6.78545">
        <ele>828</ele>
        <time>2018-06-23T08:31:54.000Z</time>
      </trkpt>
      <trkpt lat="47.85443" lon="6.78546">
        <ele>828</ele>
        <time>2018-06-23T08:31:55.000Z</time>
      </trkpt>
      <trkpt lat="47.85443" lon="6.78547">
        <ele>828</ele>
        <time>2018-06-23T08:31:56.000Z</time>
      </trkpt>
      <trkpt lat="47.85443" lon="6.78548">
        <ele>828</ele>
        <time>2018-06-23T08:31:57.000Z</time>
      </trkpt>
      <trkpt lat="47.85442" lon="6.78549">
        <ele>828</ele>
        <time>2018-06-23T08:31:58.000Z</time>
      </trkpt>
      <trkpt lat="47.85442" lon="6.7855">
        <ele>828</ele>
        <time>2018-06-23T08:31:59.000Z</time>
      </trkpt>
      <trkpt lat="47.85441" lon="6.78551">
        <ele>828</ele>
        <time>2018-06-23T08:32:00.000Z</time>
      </trkpt>
      <trkpt lat="47.85441" lon="6.78553">
        <ele>828</ele>
        <time>2018-06-23T08:32:01.000Z</time>
      </trkpt>
      <trkpt lat="47.8544" lon="6.78554">
        <ele>828</ele>
        <time>2018-06-23T08:32:02.000Z</time>
      </trkpt>
      <trkpt lat="47.8544" lon="6.78555">
        <ele>828</ele>
        <time>2018-06-23T08:32:03.000Z</time>
      </trkpt>
      <trkpt lat="47.8544" lon="6.78556">
        <ele>828</ele>
        <time>2018-06-23T08:32:04.000Z</time>
      </trkpt>
      <trkpt lat="47.85439" lon="6.78556">
        <ele>828</ele>
        <time>2018-06-23T08:32:05.000Z</time>
      </trkpt>
      <trkpt lat="47.85439" lon="6.78557">
        <ele>828</ele>
        <time>2018-06-23T08:32:06.000Z</time>
      </trkpt>
      <trkpt lat="47.85438" lon="6.78558">
        <ele>828</ele>
        <time>2018-06-23T08:32:07.000Z</time>
      </trkpt>
      <trkpt lat="47.85438" lon="6.78559">
        <ele>828</ele>
        <time>2018-06-23T08:32:08.000Z</time>
      </trkpt>
      <trkpt lat="47.85437" lon="6.7856">
        <ele>828</ele>
        <time>2018-06-23T08:32:09.000Z</time>
      </trkpt>
      <trkpt lat="47.85436" lon="6.7856">
        <ele>828</ele>
        <time>2018-06-23T08:32:10.000Z</time>
      </trkpt>
      <trkpt lat="47.85436" lon="6.78561">
        <ele>828</ele>
        <time>2018-06-23T08:32:11.000Z</time>
      </trkpt>
      <trkpt lat="47.85435" lon="6.78562">
        <ele>828</ele>
        <time>2018-06-23T08:32:12.000Z</time>
      </trkpt>
      <trkpt lat="47.85434" lon="6.78563">
        <ele>828</ele>
        <time>2018-06-23T08:32:13.000Z</time>
      </trkpt>
      <trkpt lat="47.85434" lon="6.78564">
        <ele>828</ele>
        <time>2018-06-23T08:32:14.000Z</time>
      </trkpt>
      <trkpt lat="47.85433" lon="6.78565">
        <ele>828</ele>
        <time>2018-06-23T08:32:15.000Z</time>
      </trkpt>
      <trkpt lat="47.85432" lon="6.78566">
        <ele>828</ele>
        <time>2018-06-23T08:32:16.000Z</time>
      </trkpt>
      <trkpt lat="47.85432" lon="6.78567">
        <ele>829</ele>
        <time>2018-06-23T08:32:17.000Z</time>
      </trkpt>
      <trkpt lat="47.85431" lon="6.78568">
        <ele>829</ele>
        <time>2018-06-23T08:32:18.000Z</time>
      </trkpt>
      <trkpt lat="47.8543" lon="6.78568">
        <ele>829</ele>
        <time>2018-06-23T08:32:19.000Z</time>
      </trkpt>
      <trkpt lat="47.85429" lon="6.78569">
        <ele>829</ele>
        <time>2018-06-23T08:32:20.000Z</time>
      </trkpt>
      <trkpt lat="47.85428" lon="6.7857">
        <ele>829</ele>
        <time>2018-06-23T08:32:21.000Z</time>
      </trkpt>
      <trkpt lat="47.85428" lon="6.78571">
        <ele>829</ele>
        <time>2018-06-23T08:32:22.000Z</time>
      </trkpt>
      <trkpt lat="47.85427" lon="6.78572">
        <ele>829</ele>
        <time>2018-06-23T08:32:23.000Z</time>
      </trkpt>
      <trkpt lat="47.85426" lon="6.78573">
        <ele>829</ele>
        <time>2018-06-23T08:32:24.000Z</time>
      </trkpt>
      <trkpt lat="47.85425" lon="6.78574">
        <ele>829</ele>
        <time>2018-06-23T08:32:25.000Z</time>
      </trkpt>
      <trkpt lat="47.85424" lon="6.78574">
        <ele>829</ele>
        <time>2018-06-23T08:32:26.000Z</time>
      </trkpt>
      <trkpt lat="47.85423" lon="6.78575">
        <ele>830</ele>
        <time>2018-06-23T08:32:27.000Z</time>
      </trkpt>
      <trkpt lat="47.85422" lon="6.78575">
        <ele>830</ele>
        <time>2018-06-23T08:32:28.000Z</time>
      </trkpt>
      <trkpt lat="47.85421" lon="6.78577">
        <ele>830</ele>
        <time>2018-06-23T08:32:29.000Z</time>
      </trkpt>
      <trkpt lat="47.85421" lon="6.78578">
        <ele>830</ele>
        <time>2018-06-23T08:32:30.000Z</time>
      </trkpt>
      <trkpt lat="47.8542" lon="6.78579">
        <ele>830</ele>
        <time>2018-06-23T08:32:31.000Z</time>
      </trkpt>
      <trkpt lat="47.85419" lon="6.7858">
        <ele>830</ele>
        <time>2018-06-23T08:32:32.000Z</time>
      </trkpt>
      <trkpt lat="47.85418" lon="6.78581">
        <ele>831</ele>
        <time>2018-06-23T08:32:33.000Z</time>
      </trkpt>
      <trkpt lat="47.85418" lon="6.78582">
        <ele>831</ele>
        <time>2018-06-23T08:32:34.000Z</time>
      </trkpt>
      <trkpt lat="47.85417" lon="6.78583">
        <ele>831</ele>
        <time>2018-06-23T08:32:35.000Z</time>
      </trkpt>
      <trkpt lat="47.85416" lon="6.78584">
        <ele>831</ele>
        <time>2018-06-23T08:32:36.000Z</time>
      </trkpt>
      <trkpt lat="47.85416" lon="6.78585">
        <ele>830</ele>
        <time>2018-06-23T08:32:37.000Z</time>
      </trkpt>
      <trkpt lat="47.85415" lon="6.78585">
        <ele>830</ele>
        <time>2018-06-23T08:32:38.000Z</time>
      </trkpt>
      <trkpt lat="47.85414" lon="6.78586">
        <ele>830</ele>
        <time>2018-06-23T08:32:39.000Z</time>
      </trkpt>
      <trkpt lat="47.85414" lon="6.78586">
        <ele>830</ele>
        <time>2018-06-23T08:32:40.000Z</time>
      </trkpt>
      <trkpt lat="47.85413" lon="6.78587">
        <ele>829</ele>
        <time>2018-06-23T08:32:41.000Z</time>
      </trkpt>
      <trkpt lat="47.85412" lon="6.78587">
        <ele>829</ele>
        <time>2018-06-23T08:32:42.000Z</time>
      </trkpt>
      <trkpt lat="47.85412" lon="6.78587">
        <ele>829</ele>
        <time>2018-06-23T08:32:43.000Z</time>
      </trkpt>
      <trkpt lat="47.85411" lon="6.78588">
        <ele>829</ele>
        <time>2018-06-23T08:32:44.000Z</time>
      </trkpt>
      <trkpt lat="47.8541" lon="6.78588">
        <ele>828</ele>
        <time>2018-06-23T08:32:45.000Z</time>
      </trkpt>
      <trkpt lat="47.8541" lon="6.78587">
        <ele>828</ele>
        <time>2018-06-23T08:32:46.000Z</time>
      </trkpt>
      <trkpt lat="47.85409" lon="6.78587">
        <ele>828</ele>
        <time>2018-06-23T08:32:47.000Z</time>
      </trkpt>
      <trkpt lat="47.85408" lon="6.78587">
        <ele>828</ele>
        <time>2018-06-23T08:32:48.000Z</time>
      </trkpt>
      <trkpt lat="47.85407" lon="6.78587">
        <ele>828</ele>
        <time>2018-06-23T08:32:49.000Z</time>
      </trkpt>
      <trkpt lat="47.85405" lon="6.78587">
        <ele>828</ele>
        <time>2018-06-23T08:32:50.000Z</time>
      </trkpt>
      <trkpt lat="47.85404" lon="6.78587">
        <ele>827</ele>
        <time>2018-06-23T08:32:51.000Z</time>
      </trkpt>
      <trkpt lat="47.85403" lon="6.78586">
        <ele>827</ele>
        <time>2018-06-23T08:32:52.000Z</time>
      </trkpt>
      <trkpt lat="47.85402" lon="6.78586">
        <ele>827</ele>
        <time>2018-06-23T08:32:53.000Z</time>
      </trkpt>
      <trkpt lat="47.85401" lon="6.78586">
        <ele>827</ele>
        <time>2018-06-23T08:32:54.000Z</time>
      </trkpt>
      <trkpt lat="47.854" lon="6.78586">
        <ele>827</ele>
        <time>2018-06-23T08:32:55.000Z</time>
      </trkpt>
      <trkpt lat="47.85399" lon="6.78586">
        <ele>827</ele>
        <time>2018-06-23T08:32:56.000Z</time>
      </trkpt>
      <trkpt lat="47.85398" lon="6.78587">
        <ele>827</ele>
        <time>2018-06-23T08:32:57.000Z</time>
      </trkpt>
      <trkpt lat="47.85397" lon="6.78587">
        <ele>826</ele>
        <time>2018-06-23T08:32:58.000Z</time>
      </trkpt>
      <trkpt lat="47.85396" lon="6.78587">
        <ele>826</ele>
        <time>2018-06-23T08:32:59.000Z</time>
      </trkpt>
      <trkpt lat="47.85395" lon="6.78587">
        <ele>826</ele>
        <time>2018-06-23T08:33:00.000Z</time>
      </trkpt>
      <trkpt lat="47.85394" lon="6.78587">
        <ele>826</ele>
        <time>2018-06-23T08:33:01.000Z</time>
      </trkpt>
      <trkpt lat="47.85393" lon="6.78587">
        <ele>826</ele>
        <time>2018-06-23T08:33:02.000Z</time>
      </trkpt>
      <trkpt lat="47.85392" lon="6.78587">
        <ele>826</ele>
        <time>2018-06-23T08:33:03.000Z</time>
      </trkpt>
      <trkpt lat="47.85391" lon="6.78587">
        <ele>826</ele>
        <time>2018-06-23T08:33:04.000Z</time>
      </trkpt>
      <trkpt lat="47.8539" lon="6.78587">
        <ele>826</ele>
        <time>2018-06-23T08:33:05.000Z</time>
      </trkpt>
      <trkpt lat="47.85389" lon="6.78587">
        <ele>826</ele>
        <time>2018-06-23T08:33:06.000Z</time>
      </trkpt>
      <trkpt lat="47.85388" lon="6.78587">
        <ele>826</ele>
        <time>2018-06-23T08:33:07.000Z</time>
      </trkpt>
      <trkpt lat="47.85387" lon="6.78587">
        <ele>826</ele>
        <time>2018-06-23T08:33:08.000Z</time>
      </trkpt>
      <trkpt lat="47.85386" lon="6.78586">
        <ele>826</ele>
        <time>2018-06-23T08:33:09.000Z</time>
      </trkpt>
      <trkpt lat="47.85385" lon="6.78586">
        <ele>826</ele>
        <time>2018-06-23T08:33:10.000Z</time>
      </trkpt>
      <trkpt lat="47.85383" lon="6.78586">
        <ele>826</ele>
        <time>2018-06-23T08:33:11.000Z</time>
      </trkpt>
      <trkpt lat="47.85382" lon="6.78585">
        <ele>826</ele>
        <time>2018-06-23T08:33:12.000Z</time>
      </trkpt>
      <trkpt lat="47.8538" lon="6.78585">
        <ele>826</ele>
        <time>2018-06-23T08:33:13.000Z</time>
      </trkpt>
      <trkpt lat="47.85379" lon="6.78585">
        <ele>826</ele>
        <time>2018-06-23T08:33:14.000Z</time>
      </trkpt>
      <trkpt lat="47.85378" lon="6.78584">
        <ele>826</ele>
        <time>2018-06-23T08:33:15.000Z</time>
      </trkpt>
      <trkpt lat="47.85377" lon="6.78584">
        <ele>826</ele>
        <time>2018-06-23T08:33:16.000Z</time>
      </trkpt>
      <trkpt lat="47.85375" lon="6.78584">
        <ele>826</ele>
        <time>2018-06-23T08:33:17.000Z</time>
      </trkpt>
      <trkpt lat="47.85375" lon="6.78583">
        <ele>841</ele>
        <time>2018-06-23T08:33:18.000Z</time>
      </trkpt>
      <trkpt lat="47.85374" lon="6.78583">
        <ele>841</ele>
        <time>2018-06-23T08:33:19.000Z</time>
      </trkpt>
      <trkpt lat="47.85373" lon="6.78583">
        <ele>841</ele>
        <time>2018-06-23T08:33:20.000Z</time>
      </trkpt>
      <trkpt lat="47.85371" lon="6.78582">
        <ele>841</ele>
        <time>2018-06-23T08:33:21.000Z</time>
      </trkpt>
      <trkpt lat="47.8537" lon="6.78582">
        <ele>842</ele>
        <time>2018-06-23T08:33:22.000Z</time>
      </trkpt>
      <trkpt lat="47.85369" lon="6.78582">
        <ele>842</ele>
        <time>2018-06-23T08:33:23.000Z</time>
      </trkpt>
      <trkpt lat="47.85368" lon="6.78581">
        <ele>842</ele>
        <time>2018-06-23T08:33:24.000Z</time>
      </trkpt>
      <trkpt lat="47.85366" lon="6.7858">
        <ele>842</ele>
        <time>2018-06-23T08:33:25.000Z</time>
      </trkpt>
      <trkpt lat="47.85365" lon="6.7858">
        <ele>842</ele>
        <time>2018-06-23T08:33:26.000Z</time>
      </trkpt>
      <trkpt lat="47.85364" lon="6.7858">
        <ele>842</ele>
        <time>2018-06-23T08:33:27.000Z</time>
      </trkpt>
      <trkpt lat="47.85363" lon="6.7858">
        <ele>842</ele>
        <time>2018-06-23T08:33:28.000Z</time>
      </trkpt>
      <trkpt lat="47.85362" lon="6.7858">
        <ele>842</ele>
        <time>2018-06-23T08:33:29.000Z</time>
      </trkpt>
      <trkpt lat="47.85362" lon="6.7858">
        <ele>842</ele>
        <time>2018-06-23T08:33:30.000Z</time>
      </trkpt>
      <trkpt lat="47.85361" lon="6.78579">
        <ele>842</ele>
        <time>2018-06-23T08:33:31.000Z</time>
      </trkpt>
      <trkpt lat="47.8536" lon="6.78579">
        <ele>842</ele>
        <time>2018-06-23T08:33:32.000Z</time>
      </trkpt>
      <trkpt lat="47.85359" lon="6.78578">
        <ele>842</ele>
        <time>2018-06-23T08:33:33.000Z</time>
      </trkpt>
      <trkpt lat="47.85357" lon="6.78578">
        <ele>842</ele>
        <time>2018-06-23T08:33:34.000Z</time>
      </trkpt>
      <trkpt lat="47.85356" lon="6.78577">
        <ele>842</ele>
        <time>2018-06-23T08:33:35.000Z</time>
      </trkpt>
      <trkpt lat="47.85355" lon="6.78577">
        <ele>842</ele>
        <time>2018-06-23T08:33:36.000Z</time>
      </trkpt>
      <trkpt lat="47.85354" lon="6.78577">
        <ele>842</ele>
        <time>2018-06-23T08:33:37.000Z</time>
      </trkpt>
      <trkpt lat="47.85353" lon="6.78576">
        <ele>842</ele>
        <time>2018-06-23T08:33:38.000Z</time>
      </trkpt>
      <trkpt lat="47.85352" lon="6.78575">
        <ele>842</ele>
        <time>2018-06-23T08:33:39.000Z</time>
      </trkpt>
      <trkpt lat="47.85351" lon="6.78575">
        <ele>842</ele>
        <time>2018-06-23T08:33:40.000Z</time>
      </trkpt>
      <trkpt lat="47.8535" lon="6.78574">
        <ele>842</ele>
        <time>2018-06-23T08:33:41.000Z</time>
      </trkpt>
      <trkpt lat="47.85349" lon="6.78574">
        <ele>842</ele>
        <time>2018-06-23T08:33:42.000Z</time>
      </trkpt>
      <trkpt lat="47.85348" lon="6.78574">
        <ele>842</ele>
        <time>2018-06-23T08:33:43.000Z</time>
      </trkpt>
      <trkpt lat="47.85347" lon="6.78573">
        <ele>842</ele>
        <time>2018-06-23T08:33:44.000Z</time>
      </trkpt>
      <trkpt lat="47.85346" lon="6.78573">
        <ele>842</ele>
        <time>2018-06-23T08:33:45.000Z</time>
      </trkpt>
      <trkpt lat="47.85345" lon="6.78572">
        <ele>842</ele>
        <time>2018-06-23T08:33:46.000Z</time>
      </trkpt>
      <trkpt lat="47.85345" lon="6.78572">
        <ele>842</ele>
        <time>2018-06-23T08:33:47.000Z</time>
      </trkpt>
      <trkpt lat="47.85344" lon="6.78572">
        <ele>842</ele>
        <time>2018-06-23T08:33:48.000Z</time>
      </trkpt>
      <trkpt lat="47.85343" lon="6.78571">
        <ele>842</ele>
        <time>2018-06-23T08:33:49.000Z</time>
      </trkpt>
      <trkpt lat="47.85343" lon="6.78571">
        <ele>842</ele>
        <time>2018-06-23T08:33:50.000Z</time>
      </trkpt>
      <trkpt lat="47.85342" lon="6.78571">
        <ele>842</ele>
        <time>2018-06-23T08:33:51.000Z</time>
      </trkpt>
      <trkpt lat="47.85341" lon="6.78571">
        <ele>842</ele>
        <time>2018-06-23T08:33:52.000Z</time>
      </trkpt>
      <trkpt lat="47.85341" lon="6.7857">
        <ele>843</ele>
        <time>2018-06-23T08:33:53.000Z</time>
      </trkpt>
      <trkpt lat="47.8534" lon="6.7857">
        <ele>843</ele>
        <time>2018-06-23T08:33:54.000Z</time>
      </trkpt>
      <trkpt lat="47.85339" lon="6.7857">
        <ele>843</ele>
        <time>2018-06-23T08:33:55.000Z</time>
      </trkpt>
      <trkpt lat="47.85338" lon="6.78569">
        <ele>843</ele>
        <time>2018-06-23T08:33:56.000Z</time>
      </trkpt>
      <trkpt lat="47.85337" lon="6.78568">
        <ele>843</ele>
        <time>2018-06-23T08:33:57.000Z</time>
      </trkpt>
      <trkpt lat="47.85336" lon="6.78568">
        <ele>843</ele>
        <time>2018-06-23T08:33:58.000Z</time>
      </trkpt>
      <trkpt lat="47.85335" lon="6.78568">
        <ele>843</ele>
        <time>2018-06-23T08:33:59.000Z</time>
      </trkpt>
      <trkpt lat="47.85333" lon="6.78567">
        <ele>849</ele>
        <time>2018-06-23T08:34:00.000Z</time>
      </trkpt>
      <trkpt lat="47.85332" lon="6.78567">
        <ele>849</ele>
        <time>2018-06-23T08:34:01.000Z</time>
      </trkpt>
      <trkpt lat="47.85331" lon="6.78566">
        <ele>850</ele>
        <time>2018-06-23T08:34:02.000Z</time>
      </trkpt>
      <trkpt lat="47.8533" lon="6.78566">
        <ele>850</ele>
        <time>2018-06-23T08:34:03.000Z</time>
      </trkpt>
      <trkpt lat="47.85329" lon="6.78566">
        <ele>850</ele>
        <time>2018-06-23T08:34:04.000Z</time>
      </trkpt>
      <trkpt lat="47.85328" lon="6.78565">
        <ele>850</ele>
        <time>2018-06-23T08:34:05.000Z</time>
      </trkpt>
      <trkpt lat="47.85327" lon="6.78565">
        <ele>851</ele>
        <time>2018-06-23T08:34:06.000Z</time>
      </trkpt>
      <trkpt lat="47.85326" lon="6.78564">
        <ele>851</ele>
        <time>2018-06-23T08:34:07.000Z</time>
      </trkpt>
      <trkpt lat="47.85325" lon="6.78564">
        <ele>851</ele>
        <time>2018-06-23T08:34:08.000Z</time>
      </trkpt>
      <trkpt lat="47.85324" lon="6.78564">
        <ele>851</ele>
        <time>2018-06-23T08:34:09.000Z</time>
      </trkpt>
      <trkpt lat="47.85324" lon="6.78564">
        <ele>851</ele>
        <time>2018-06-23T08:34:10.000Z</time>
      </trkpt>
      <trkpt lat="47.85323" lon="6.78564">
        <ele>851</ele>
        <time>2018-06-23T08:34:11.000Z</time>
      </trkpt>
      <trkpt lat="47.85322" lon="6.78564">
        <ele>852</ele>
        <time>2018-06-23T08:34:12.000Z</time>
      </trkpt>
      <trkpt lat="47.85321" lon="6.78564">
        <ele>852</ele>
        <time>2018-06-23T08:34:13.000Z</time>
      </trkpt>
      <trkpt lat="47.8532" lon="6.78564">
        <ele>852</ele>
        <time>2018-06-23T08:34:14.000Z</time>
      </trkpt>
      <trkpt lat="47.85319" lon="6.78563">
        <ele>852</ele>
        <time>2018-06-23T08:34:15.000Z</time>
      </trkpt>
      <trkpt lat="47.85318" lon="6.78563">
        <ele>853</ele>
        <time>2018-06-23T08:34:16.000Z</time>
      </trkpt>
      <trkpt lat="47.85317" lon="6.78563">
        <ele>853</ele>
        <time>2018-06-23T08:34:17.000Z</time>
      </trkpt>
      <trkpt lat="47.85316" lon="6.78562">
        <ele>853</ele>
        <time>2018-06-23T08:34:18.000Z</time>
      </trkpt>
      <trkpt lat="47.85315" lon="6.78562">
        <ele>853</ele>
        <time>2018-06-23T08:34:19.000Z</time>
      </trkpt>
      <trkpt lat="47.85314" lon="6.78562">
        <ele>853</ele>
        <time>2018-06-23T08:34:20.000Z</time>
      </trkpt>
      <trkpt lat="47.85314" lon="6.78561">
        <ele>854</ele>
        <time>2018-06-23T08:34:21.000Z</time>
      </trkpt>
      <trkpt lat="47.85314" lon="6.78561">
        <ele>854</ele>
        <time>2018-06-23T08:34:22.000Z</time>
      </trkpt>
      <trkpt lat="47.85313" lon="6.78561">
        <ele>854</ele>
        <time>2018-06-23T08:34:23.000Z</time>
      </trkpt>
      <trkpt lat="47.85311" lon="6.78561">
        <ele>854</ele>
        <time>2018-06-23T08:34:24.000Z</time>
      </trkpt>
      <trkpt lat="47.8531" lon="6.78561">
        <ele>854</ele>
        <time>2018-06-23T08:34:25.000Z</time>
      </trkpt>
      <trkpt lat="47.85309" lon="6.7856">
        <ele>854</ele>
        <time>2018-06-23T08:34:26.000Z</time>
      </trkpt>
      <trkpt lat="47.85308" lon="6.7856">
        <ele>855</ele>
        <time>2018-06-23T08:34:27.000Z</time>
      </trkpt>
      <trkpt lat="47.85308" lon="6.78559">
        <ele>855</ele>
        <time>2018-06-23T08:34:28.000Z</time>
      </trkpt>
      <trkpt lat="47.85307" lon="6.78559">
        <ele>855</ele>
        <time>2018-06-23T08:34:29.000Z</time>
      </trkpt>
      <trkpt lat="47.85306" lon="6.78559">
        <ele>855</ele>
        <time>2018-06-23T08:34:30.000Z</time>
      </trkpt>
      <trkpt lat="47.85304" lon="6.78558">
        <ele>855</ele>
        <time>2018-06-23T08:34:31.000Z</time>
      </trkpt>
      <trkpt lat="47.85303" lon="6.78558">
        <ele>856</ele>
        <time>2018-06-23T08:34:32.000Z</time>
      </trkpt>
      <trkpt lat="47.85302" lon="6.78557">
        <ele>856</ele>
        <time>2018-06-23T08:34:33.000Z</time>
      </trkpt>
      <trkpt lat="47.85302" lon="6.78556">
        <ele>856</ele>
        <time>2018-06-23T08:34:34.000Z</time>
      </trkpt>
      <trkpt lat="47.85301" lon="6.78556">
        <ele>856</ele>
        <time>2018-06-23T08:34:35.000Z</time>
      </trkpt>
      <trkpt lat="47.853" lon="6.78555">
        <ele>857</ele>
        <time>2018-06-23T08:34:36.000Z</time>
      </trkpt>
      <trkpt lat="47.853" lon="6.78554">
        <ele>857</ele>
        <time>2018-06-23T08:34:37.000Z</time>
      </trkpt>
      <trkpt lat="47.85299" lon="6.78554">
        <ele>857</ele>
        <time>2018-06-23T08:34:38.000Z</time>
      </trkpt>
      <trkpt lat="47.85298" lon="6.78554">
        <ele>857</ele>
        <time>2018-06-23T08:34:39.000Z</time>
      </trkpt>
      <trkpt lat="47.85297" lon="6.78554">
        <ele>857</ele>
        <time>2018-06-23T08:34:40.000Z</time>
      </trkpt>
      <trkpt lat="47.85295" lon="6.78554">
        <ele>857</ele>
        <time>2018-06-23T08:34:41.000Z</time>
      </trkpt>
      <trkpt lat="47.85294" lon="6.78554">
        <ele>857</ele>
        <time>2018-06-23T08:34:42.000Z</time>
      </trkpt>
      <trkpt lat="47.85293" lon="6.78554">
        <ele>857</ele>
        <time>2018-06-23T08:34:43.000Z</time>
      </trkpt>
      <trkpt lat="47.85292" lon="6.78554">
        <ele>857</ele>
        <time>2018-06-23T08:34:44.000Z</time>
      </trkpt>
      <trkpt lat="47.85291" lon="6.78553">
        <ele>857</ele>
        <time>2018-06-23T08:34:45.000Z</time>
      </trkpt>
      <trkpt lat="47.8529" lon="6.78553">
        <ele>858</ele>
        <time>2018-06-23T08:34:46.000Z</time>
      </trkpt>
      <trkpt lat="47.85289" lon="6.78553">
        <ele>858</ele>
        <time>2018-06-23T08:34:47.000Z</time>
      </trkpt>
      <trkpt lat="47.85289" lon="6.78553">
        <ele>858</ele>
        <time>2018-06-23T08:34:48.000Z</time>
      </trkpt>
      <trkpt lat="47.85288" lon="6.78553">
        <ele>858</ele>
        <time>2018-06-23T08:34:49.000Z</time>
      </trkpt>
      <trkpt lat="47.85287" lon="6.78552">
        <ele>858</ele>
        <time>2018-06-23T08:34:50.000Z</time>
      </trkpt>
      <trkpt lat="47.85287" lon="6.78552">
        <ele>858</ele>
        <time>2018-06-23T08:34:51.000Z</time>
      </trkpt>
      <trkpt lat="47.85286" lon="6.78552">
        <ele>858</ele>
        <time>2018-06-23T08:34:52.000Z</time>
      </trkpt>
      <trkpt lat="47.85286" lon="6.78552">
        <ele>858</ele>
        <time>2018-06-23T08:34:53.000Z</time>
      </trkpt>
      <trkpt lat="47.85285" lon="6.78551">
        <ele>858</ele>
        <time>2018-06-23T08:34:54.000Z</time>
      </trkpt>
      <trkpt lat="47.85283" lon="6.7855">
        <ele>859</ele>
        <time>2018-06-23T08:34:55.000Z</time>
      </trkpt>
      <trkpt lat="47.85283" lon="6.7855">
        <ele>859</ele>
        <time>2018-06-23T08:34:56.000Z</time>
      </trkpt>
      <trkpt lat="47.85282" lon="6.7855">
        <ele>859</ele>
        <time>2018-06-23T08:34:57.000Z</time>
      </trkpt>
      <trkpt lat="47.85282" lon="6.78549">
        <ele>859</ele>
        <time>2018-06-23T08:34:58.000Z</time>
      </trkpt>
      <trkpt lat="47.85282" lon="6.78549">
        <ele>859</ele>
        <time>2018-06-23T08:34:59.000Z</time>
      </trkpt>
      <trkpt lat="47.85282" lon="6.78549">
        <ele>859</ele>
        <time>2018-06-23T08:35:00.000Z</time>
      </trkpt>
      <trkpt lat="47.85282" lon="6.78549">
        <ele>859</ele>
        <time>2018-06-23T08:35:01.000Z</time>
      </trkpt>
      <trkpt lat="47.85281" lon="6.78549">
        <ele>859</ele>
        <time>2018-06-23T08:35:02.000Z</time>
      </trkpt>
      <trkpt lat="47.85279" lon="6.78549">
        <ele>859</ele>
        <time>2018-06-23T08:35:03.000Z</time>
      </trkpt>
      <trkpt lat="47.85278" lon="6.78549">
        <ele>859</ele>
        <time>2018-06-23T08:35:04.000Z</time>
      </trkpt>
      <trkpt lat="47.85277" lon="6.78548">
        <ele>859</ele>
        <time>2018-06-23T08:35:05.000Z</time>
      </trkpt>
      <trkpt lat="47.85276" lon="6.78548">
        <ele>859</ele>
        <time>2018-06-23T08:35:06.000Z</time>
      </trkpt>
      <trkpt lat="47.85275" lon="6.78548">
        <ele>859</ele>
        <time>2018-06-23T08:35:07.000Z</time>
      </trkpt>
      <trkpt lat="47.85274" lon="6.78548">
        <ele>859</ele>
        <time>2018-06-23T08:35:08.000Z</time>
      </trkpt>
      <trkpt lat="47.85273" lon="6.78548">
        <ele>860</ele>
        <time>2018-06-23T08:35:09.000Z</time>
      </trkpt>
      <trkpt lat="47.85273" lon="6.78548">
        <ele>859</ele>
        <time>2018-06-23T08:35:10.000Z</time>
      </trkpt>
      <trkpt lat="47.85272" lon="6.78548">
        <ele>859</ele>
        <time>2018-06-23T08:35:11.000Z</time>
      </trkpt>
      <trkpt lat="47.85271" lon="6.78548">
        <ele>859</ele>
        <time>2018-06-23T08:35:12.000Z</time>
      </trkpt>
      <trkpt lat="47.85271" lon="6.78548">
        <ele>859</ele>
        <time>2018-06-23T08:35:13.000Z</time>
      </trkpt>
      <trkpt lat="47.85271" lon="6.78548">
        <ele>860</ele>
        <time>2018-06-23T08:35:14.000Z</time>
      </trkpt>
      <trkpt lat="47.8527" lon="6.78548">
        <ele>860</ele>
        <time>2018-06-23T08:35:15.000Z</time>
      </trkpt>
      <trkpt lat="47.85269" lon="6.7855">
        <ele>859</ele>
        <time>2018-06-23T08:35:16.000Z</time>
      </trkpt>
      <trkpt lat="47.85268" lon="6.7855">
        <ele>859</ele>
        <time>2018-06-23T08:35:17.000Z</time>
      </trkpt>
      <trkpt lat="47.85267" lon="6.7855">
        <ele>859</ele>
        <time>2018-06-23T08:35:18.000Z</time>
      </trkpt>
      <trkpt lat="47.85267" lon="6.7855">
        <ele>859</ele>
        <time>2018-06-23T08:35:19.000Z</time>
      </trkpt>
      <trkpt lat="47.85266" lon="6.78551">
        <ele>859</ele>
        <time>2018-06-23T08:35:20.000Z</time>
      </trkpt>
      <trkpt lat="47.85264" lon="6.78551">
        <ele>859</ele>
        <time>2018-06-23T08:35:21.000Z</time>
      </trkpt>
      <trkpt lat="47.85263" lon="6.78552">
        <ele>859</ele>
        <time>2018-06-23T08:35:22.000Z</time>
      </trkpt>
      <trkpt lat="47.85262" lon="6.78552">
        <ele>859</ele>
        <time>2018-06-23T08:35:23.000Z</time>
      </trkpt>
      <trkpt lat="47.85261" lon="6.78552">
        <ele>859</ele>
        <time>2018-06-23T08:35:24.000Z</time>
      </trkpt>
      <trkpt lat="47.8526" lon="6.78553">
        <ele>859</ele>
        <time>2018-06-23T08:35:25.000Z</time>
      </trkpt>
      <trkpt lat="47.85259" lon="6.78553">
        <ele>859</ele>
        <time>2018-06-23T08:35:26.000Z</time>
      </trkpt>
      <trkpt lat="47.85258" lon="6.78553">
        <ele>859</ele>
        <time>2018-06-23T08:35:27.000Z</time>
      </trkpt>
      <trkpt lat="47.85257" lon="6.78554">
        <ele>858</ele>
        <time>2018-06-23T08:35:28.000Z</time>
      </trkpt>
      <trkpt lat="47.85256" lon="6.78554">
        <ele>858</ele>
        <time>2018-06-23T08:35:29.000Z</time>
      </trkpt>
      <trkpt lat="47.85255" lon="6.78555">
        <ele>858</ele>
        <time>2018-06-23T08:35:30.000Z</time>
      </trkpt>
      <trkpt lat="47.85254" lon="6.78555">
        <ele>858</ele>
        <time>2018-06-23T08:35:31.000Z</time>
      </trkpt>
      <trkpt lat="47.85253" lon="6.78555">
        <ele>858</ele>
        <time>2018-06-23T08:35:32.000Z</time>
      </trkpt>
      <trkpt lat="47.85253" lon="6.78555">
        <ele>858</ele>
        <time>2018-06-23T08:35:33.000Z</time>
      </trkpt>
      <trkpt lat="47.85252" lon="6.78555">
        <ele>858</ele>
        <time>2018-06-23T08:35:34.000Z</time>
      </trkpt>
      <trkpt lat="47.85251" lon="6.78555">
        <ele>858</ele>
        <time>2018-06-23T08:35:35.000Z</time>
      </trkpt>
      <trkpt lat="47.8525" lon="6.78556">
        <ele>866</ele>
        <time>2018-06-23T08:35:36.000Z</time>
      </trkpt>
      <trkpt lat="47.85249" lon="6.78556">
        <ele>866</ele>
        <time>2018-06-23T08:35:37.000Z</time>
      </trkpt>
      <trkpt lat="47.85248" lon="6.78556">
        <ele>866</ele>
        <time>2018-06-23T08:35:38.000Z</time>
      </trkpt>
      <trkpt lat="47.85248" lon="6.78556">
        <ele>866</ele>
        <time>2018-06-23T08:35:39.000Z</time>
      </trkpt>
      <trkpt lat="47.85247" lon="6.78557">
        <ele>866</ele>
        <time>2018-06-23T08:35:40.000Z</time>
      </trkpt>
      <trkpt lat="47.85246" lon="6.78557">
        <ele>866</ele>
        <time>2018-06-23T08:35:41.000Z</time>
      </trkpt>
      <trkpt lat="47.85246" lon="6.78558">
        <ele>866</ele>
        <time>2018-06-23T08:35:42.000Z</time>
      </trkpt>
      <trkpt lat="47.85245" lon="6.78558">
        <ele>866</ele>
        <time>2018-06-23T08:35:43.000Z</time>
      </trkpt>
      <trkpt lat="47.85244" lon="6.78558">
        <ele>866</ele>
        <time>2018-06-23T08:35:44.000Z</time>
      </trkpt>
      <trkpt lat="47.85244" lon="6.78559">
        <ele>865</ele>
        <time>2018-06-23T08:35:45.000Z</time>
      </trkpt>
      <trkpt lat="47.85243" lon="6.78559">
        <ele>865</ele>
        <time>2018-06-23T08:35:46.000Z</time>
      </trkpt>
      <trkpt lat="47.85242" lon="6.7856">
        <ele>865</ele>
        <time>2018-06-23T08:35:47.000Z</time>
      </trkpt>
      <trkpt lat="47.85242" lon="6.7856">
        <ele>865</ele>
        <time>2018-06-23T08:35:48.000Z</time>
      </trkpt>
      <trkpt lat="47.85241" lon="6.7856">
        <ele>865</ele>
        <time>2018-06-23T08:35:49.000Z</time>
      </trkpt>
      <trkpt lat="47.8524" lon="6.7856">
        <ele>865</ele>
        <time>2018-06-23T08:35:50.000Z</time>
      </trkpt>
      <trkpt lat="47.8524" lon="6.78561">
        <ele>865</ele>
        <time>2018-06-23T08:35:51.000Z</time>
      </trkpt>
      <trkpt lat="47.85239" lon="6.78561">
        <ele>865</ele>
        <time>2018-06-23T08:35:52.000Z</time>
      </trkpt>
      <trkpt lat="47.85238" lon="6.78562">
        <ele>865</ele>
        <time>2018-06-23T08:35:53.000Z</time>
      </trkpt>
      <trkpt lat="47.85238" lon="6.78562">
        <ele>865</ele>
        <time>2018-06-23T08:35:54.000Z</time>
      </trkpt>
      <trkpt lat="47.85237" lon="6.78562">
        <ele>865</ele>
        <time>2018-06-23T08:35:55.000Z</time>
      </trkpt>
      <trkpt lat="47.85236" lon="6.78563">
        <ele>865</ele>
        <time>2018-06-23T08:35:56.000Z</time>
      </trkpt>
      <trkpt lat="47.85235" lon="6.78563">
        <ele>865</ele>
        <time>2018-06-23T08:35:57.000Z</time>
      </trkpt>
      <trkpt lat="47.85234" lon="6.78563">
        <ele>866</ele>
        <time>2018-06-23T08:35:58.000Z</time>
      </trkpt>
      <trkpt lat="47.85233" lon="6.78563">
        <ele>866</ele>
        <time>2018-06-23T08:35:59.000Z</time>
      </trkpt>
      <trkpt lat="47.85232" lon="6.78563">
        <ele>866</ele>
        <time>2018-06-23T08:36:00.000Z</time>
      </trkpt>
      <trkpt lat="47.8523" lon="6.78563">
        <ele>866</ele>
        <time>2018-06-23T08:36:01.000Z</time>
      </trkpt>
      <trkpt lat="47.85229" lon="6.78564">
        <ele>866</ele>
        <time>2018-06-23T08:36:02.000Z</time>
      </trkpt>
      <trkpt lat="47.85228" lon="6.78564">
        <ele>867</ele>
        <time>2018-06-23T08:36:03.000Z</time>
      </trkpt>
      <trkpt lat="47.85227" lon="6.78564">
        <ele>867</ele>
        <time>2018-06-23T08:36:04.000Z</time>
      </trkpt>
      <trkpt lat="47.85226" lon="6.78565">
        <ele>867</ele>
        <time>2018-06-23T08:36:05.000Z</time>
      </trkpt>
      <trkpt lat="47.85225" lon="6.78565">
        <ele>867</ele>
        <time>2018-06-23T08:36:06.000Z</time>
      </trkpt>
      <trkpt lat="47.85224" lon="6.78566">
        <ele>867</ele>
        <time>2018-06-23T08:36:07.000Z</time>
      </trkpt>
      <trkpt lat="47.85223" lon="6.78566">
        <ele>867</ele>
        <time>2018-06-23T08:36:08.000Z</time>
      </trkpt>
      <trkpt lat="47.85222" lon="6.78566">
        <ele>867</ele>
        <time>2018-06-23T08:36:09.000Z</time>
      </trkpt>
      <trkpt lat="47.85221" lon="6.78566">
        <ele>867</ele>
        <time>2018-06-23T08:36:10.000Z</time>
      </trkpt>
      <trkpt lat="47.8522" lon="6.78567">
        <ele>868</ele>
        <time>2018-06-23T08:36:11.000Z</time>
      </trkpt>
      <trkpt lat="47.85219" lon="6.78567">
        <ele>868</ele>
        <time>2018-06-23T08:36:12.000Z</time>
      </trkpt>
      <trkpt lat="47.85218" lon="6.78568">
        <ele>868</ele>
        <time>2018-06-23T08:36:13.000Z</time>
      </trkpt>
      <trkpt lat="47.85217" lon="6.78568">
        <ele>868</ele>
        <time>2018-06-23T08:36:14.000Z</time>
      </trkpt>
      <trkpt lat="47.85217" lon="6.78569">
        <ele>868</ele>
        <time>2018-06-23T08:36:15.000Z</time>
      </trkpt>
      <trkpt lat="47.85216" lon="6.7857">
        <ele>868</ele>
        <time>2018-06-23T08:36:16.000Z</time>
      </trkpt>
      <trkpt lat="47.85214" lon="6.7857">
        <ele>868</ele>
        <time>2018-06-23T08:36:17.000Z</time>
      </trkpt>
      <trkpt lat="47.85213" lon="6.78571">
        <ele>868</ele>
        <time>2018-06-23T08:36:18.000Z</time>
      </trkpt>
      <trkpt lat="47.85213" lon="6.78571">
        <ele>868</ele>
        <time>2018-06-23T08:36:19.000Z</time>
      </trkpt>
      <trkpt lat="47.85212" lon="6.78572">
        <ele>868</ele>
        <time>2018-06-23T08:36:20.000Z</time>
      </trkpt>
      <trkpt lat="47.85211" lon="6.78573">
        <ele>868</ele>
        <time>2018-06-23T08:36:21.000Z</time>
      </trkpt>
      <trkpt lat="47.8521" lon="6.78573">
        <ele>868</ele>
        <time>2018-06-23T08:36:22.000Z</time>
      </trkpt>
      <trkpt lat="47.8521" lon="6.78574">
        <ele>868</ele>
        <time>2018-06-23T08:36:23.000Z</time>
      </trkpt>
      <trkpt lat="47.85209" lon="6.78575">
        <ele>868</ele>
        <time>2018-06-23T08:36:24.000Z</time>
      </trkpt>
      <trkpt lat="47.85209" lon="6.78576">
        <ele>868</ele>
        <time>2018-06-23T08:36:25.000Z</time>
      </trkpt>
      <trkpt lat="47.85208" lon="6.78577">
        <ele>868</ele>
        <time>2018-06-23T08:36:26.000Z</time>
      </trkpt>
      <trkpt lat="47.85208" lon="6.78577">
        <ele>868</ele>
        <time>2018-06-23T08:36:27.000Z</time>
      </trkpt>
      <trkpt lat="47.85207" lon="6.78578">
        <ele>868</ele>
        <time>2018-06-23T08:36:28.000Z</time>
      </trkpt>
      <trkpt lat="47.85207" lon="6.78578">
        <ele>868</ele>
        <time>2018-06-23T08:36:29.000Z</time>
      </trkpt>
      <trkpt lat="47.85206" lon="6.78578">
        <ele>868</ele>
        <time>2018-06-23T08:36:30.000Z</time>
      </trkpt>
      <trkpt lat="47.85206" lon="6.78578">
        <ele>868</ele>
        <time>2018-06-23T08:36:31.000Z</time>
      </trkpt>
      <trkpt lat="47.85205" lon="6.78578">
        <ele>868</ele>
        <time>2018-06-23T08:36:32.000Z</time>
      </trkpt>
      <trkpt lat="47.85204" lon="6.78578">
        <ele>869</ele>
        <time>2018-06-23T08:36:33.000Z</time>
      </trkpt>
      <trkpt lat="47.85202" lon="6.78578">
        <ele>869</ele>
        <time>2018-06-23T08:36:34.000Z</time>
      </trkpt>
      <trkpt lat="47.85201" lon="6.78579">
        <ele>869</ele>
        <time>2018-06-23T08:36:35.000Z</time>
      </trkpt>
      <trkpt lat="47.852" lon="6.78579">
        <ele>869</ele>
        <time>2018-06-23T08:36:36.000Z</time>
      </trkpt>
      <trkpt lat="47.85198" lon="6.78579">
        <ele>869</ele>
        <time>2018-06-23T08:36:37.000Z</time>
      </trkpt>
      <trkpt lat="47.85197" lon="6.78579">
        <ele>869</ele>
        <time>2018-06-23T08:36:38.000Z</time>
      </trkpt>
      <trkpt lat="47.85196" lon="6.78579">
        <ele>869</ele>
        <time>2018-06-23T08:36:39.000Z</time>
      </trkpt>
      <trkpt lat="47.85195" lon="6.78579">
        <ele>869</ele>
        <time>2018-06-23T08:36:40.000Z</time>
      </trkpt>
      <trkpt lat="47.85194" lon="6.78578">
        <ele>869</ele>
        <time>2018-06-23T08:36:41.000Z</time>
      </trkpt>
      <trkpt lat="47.85193" lon="6.78578">
        <ele>869</ele>
        <time>2018-06-23T08:36:42.000Z</time>
      </trkpt>
      <trkpt lat="47.85192" lon="6.78578">
        <ele>869</ele>
        <time>2018-06-23T08:36:43.000Z</time>
      </trkpt>
      <trkpt lat="47.85192" lon="6.78578">
        <ele>869</ele>
        <time>2018-06-23T08:36:44.000Z</time>
      </trkpt>
      <trkpt lat="47.85191" lon="6.78577">
        <ele>869</ele>
        <time>2018-06-23T08:36:45.000Z</time>
      </trkpt>
      <trkpt lat="47.85188" lon="6.78577">
        <ele>869</ele>
        <time>2018-06-23T08:36:46.000Z</time>
      </trkpt>
      <trkpt lat="47.85187" lon="6.78576">
        <ele>869</ele>
        <time>2018-06-23T08:36:47.000Z</time>
      </trkpt>
      <trkpt lat="47.85185" lon="6.78576">
        <ele>869</ele>
        <time>2018-06-23T08:36:48.000Z</time>
      </trkpt>
      <trkpt lat="47.85185" lon="6.78576">
        <ele>869</ele>
        <time>2018-06-23T08:36:49.000Z</time>
      </trkpt>
      <trkpt lat="47.85183" lon="6.78576">
        <ele>869</ele>
        <time>2018-06-23T08:36:50.000Z</time>
      </trkpt>
      <trkpt lat="47.85182" lon="6.78576">
        <ele>869</ele>
        <time>2018-06-23T08:36:51.000Z</time>
      </trkpt>
      <trkpt lat="47.85181" lon="6.78576">
        <ele>868</ele>
        <time>2018-06-23T08:36:52.000Z</time>
      </trkpt>
      <trkpt lat="47.8518" lon="6.78576">
        <ele>868</ele>
        <time>2018-06-23T08:36:53.000Z</time>
      </trkpt>
      <trkpt lat="47.85179" lon="6.78576">
        <ele>868</ele>
        <time>2018-06-23T08:36:54.000Z</time>
      </trkpt>
      <trkpt lat="47.85178" lon="6.78576">
        <ele>868</ele>
        <time>2018-06-23T08:36:55.000Z</time>
      </trkpt>
      <trkpt lat="47.85178" lon="6.78576">
        <ele>868</ele>
        <time>2018-06-23T08:36:56.000Z</time>
      </trkpt>
      <trkpt lat="47.85177" lon="6.78575">
        <ele>868</ele>
        <time>2018-06-23T08:36:57.000Z</time>
      </trkpt>
      <trkpt lat="47.85176" lon="6.78575">
        <ele>868</ele>
        <time>2018-06-23T08:36:58.000Z</time>
      </trkpt>
      <trkpt lat="47.85176" lon="6.78575">
        <ele>868</ele>
        <time>2018-06-23T08:36:59.000Z</time>
      </trkpt>
      <trkpt lat="47.85175" lon="6.78576">
        <ele>868</ele>
        <time>2018-06-23T08:37:00.000Z</time>
      </trkpt>
      <trkpt lat="47.85174" lon="6.78576">
        <ele>868</ele>
        <time>2018-06-23T08:37:01.000Z</time>
      </trkpt>
      <trkpt lat="47.85173" lon="6.78576">
        <ele>867</ele>
        <time>2018-06-23T08:37:02.000Z</time>
      </trkpt>
      <trkpt lat="47.85172" lon="6.78576">
        <ele>867</ele>
        <time>2018-06-23T08:37:03.000Z</time>
      </trkpt>
      <trkpt lat="47.85171" lon="6.78576">
        <ele>867</ele>
        <time>2018-06-23T08:37:04.000Z</time>
      </trkpt>
      <trkpt lat="47.8517" lon="6.78576">
        <ele>867</ele>
        <time>2018-06-23T08:37:05.000Z</time>
      </trkpt>
      <trkpt lat="47.85169" lon="6.78576">
        <ele>867</ele>
        <time>2018-06-23T08:37:06.000Z</time>
      </trkpt>
      <trkpt lat="47.85168" lon="6.78576">
        <ele>867</ele>
        <time>2018-06-23T08:37:07.000Z</time>
      </trkpt>
      <trkpt lat="47.85167" lon="6.78577">
        <ele>867</ele>
        <time>2018-06-23T08:37:08.000Z</time>
      </trkpt>
      <trkpt lat="47.85166" lon="6.78576">
        <ele>870</ele>
        <time>2018-06-23T08:37:09.000Z</time>
      </trkpt>
      <trkpt lat="47.85165" lon="6.78576">
        <ele>870</ele>
        <time>2018-06-23T08:37:10.000Z</time>
      </trkpt>
      <trkpt lat="47.85164" lon="6.78577">
        <ele>870</ele>
        <time>2018-06-23T08:37:11.000Z</time>
      </trkpt>
      <trkpt lat="47.85164" lon="6.78577">
        <ele>870</ele>
        <time>2018-06-23T08:37:12.000Z</time>
      </trkpt>
      <trkpt lat="47.85163" lon="6.78577">
        <ele>871</ele>
        <time>2018-06-23T08:37:13.000Z</time>
      </trkpt>
      <trkpt lat="47.85162" lon="6.78577">
        <ele>871</ele>
        <time>2018-06-23T08:37:14.000Z</time>
      </trkpt>
      <trkpt lat="47.85161" lon="6.78577">
        <ele>871</ele>
        <time>2018-06-23T08:37:15.000Z</time>
      </trkpt>
      <trkpt lat="47.85161" lon="6.78577">
        <ele>871</ele>
        <time>2018-06-23T08:37:16.000Z</time>
      </trkpt>
      <trkpt lat="47.8516" lon="6.78577">
        <ele>872</ele>
        <time>2018-06-23T08:37:17.000Z</time>
      </trkpt>
      <trkpt lat="47.85159" lon="6.78577">
        <ele>872</ele>
        <time>2018-06-23T08:37:18.000Z</time>
      </trkpt>
      <trkpt lat="47.85158" lon="6.78577">
        <ele>873</ele>
        <time>2018-06-23T08:37:19.000Z</time>
      </trkpt>
      <trkpt lat="47.85157" lon="6.78577">
        <ele>873</ele>
        <time>2018-06-23T08:37:20.000Z</time>
      </trkpt>
      <trkpt lat="47.85156" lon="6.78577">
        <ele>873</ele>
        <time>2018-06-23T08:37:21.000Z</time>
      </trkpt>
      <trkpt lat="47.85156" lon="6.78578">
        <ele>874</ele>
        <time>2018-06-23T08:37:22.000Z</time>
      </trkpt>
      <trkpt lat="47.85155" lon="6.78578">
        <ele>874</ele>
        <time>2018-06-23T08:37:23.000Z</time>
      </trkpt>
      <trkpt lat="47.85153" lon="6.78579">
        <ele>875</ele>
        <time>2018-06-23T08:37:24.000Z</time>
      </trkpt>
      <trkpt lat="47.85153" lon="6.78578">
        <ele>875</ele>
        <time>2018-06-23T08:37:25.000Z</time>
      </trkpt>
      <trkpt lat="47.85152" lon="6.78578">
        <ele>875</ele>
        <time>2018-06-23T08:37:26.000Z</time>
      </trkpt>
      <trkpt lat="47.85151" lon="6.78578">
        <ele>876</ele>
        <time>2018-06-23T08:37:27.000Z</time>
      </trkpt>
      <trkpt lat="47.8515" lon="6.78578">
        <ele>876</ele>
        <time>2018-06-23T08:37:28.000Z</time>
      </trkpt>
      <trkpt lat="47.8515" lon="6.78578">
        <ele>876</ele>
        <time>2018-06-23T08:37:29.000Z</time>
      </trkpt>
      <trkpt lat="47.85149" lon="6.78578">
        <ele>877</ele>
        <time>2018-06-23T08:37:30.000Z</time>
      </trkpt>
      <trkpt lat="47.85148" lon="6.78578">
        <ele>877</ele>
        <time>2018-06-23T08:37:31.000Z</time>
      </trkpt>
      <trkpt lat="47.85148" lon="6.78578">
        <ele>877</ele>
        <time>2018-06-23T08:37:32.000Z</time>
      </trkpt>
      <trkpt lat="47.85147" lon="6.78578">
        <ele>877</ele>
        <time>2018-06-23T08:37:33.000Z</time>
      </trkpt>
      <trkpt lat="47.85146" lon="6.78578">
        <ele>878</ele>
        <time>2018-06-23T08:37:34.000Z</time>
      </trkpt>
      <trkpt lat="47.85146" lon="6.78578">
        <ele>878</ele>
        <time>2018-06-23T08:37:35.000Z</time>
      </trkpt>
      <trkpt lat="47.85145" lon="6.78577">
        <ele>878</ele>
        <time>2018-06-23T08:37:36.000Z</time>
      </trkpt>
      <trkpt lat="47.85144" lon="6.78577">
        <ele>879</ele>
        <time>2018-06-23T08:37:37.000Z</time>
      </trkpt>
      <trkpt lat="47.85144" lon="6.78577">
        <ele>879</ele>
        <time>2018-06-23T08:37:38.000Z</time>
      </trkpt>
      <trkpt lat="47.85143" lon="6.78577">
        <ele>879</ele>
        <time>2018-06-23T08:37:39.000Z</time>
      </trkpt>
      <trkpt lat="47.85142" lon="6.78577">
        <ele>879</ele>
        <time>2018-06-23T08:37:40.000Z</time>
      </trkpt>
      <trkpt lat="47.85141" lon="6.78577">
        <ele>880</ele>
        <time>2018-06-23T08:37:41.000Z</time>
      </trkpt>
      <trkpt lat="47.8514" lon="6.78577">
        <ele>880</ele>
        <time>2018-06-23T08:37:42.000Z</time>
      </trkpt>
      <trkpt lat="47.85139" lon="6.78577">
        <ele>880</ele>
        <time>2018-06-23T08:37:43.000Z</time>
      </trkpt>
      <trkpt lat="47.85138" lon="6.78577">
        <ele>880</ele>
        <time>2018-06-23T08:37:44.000Z</time>
      </trkpt>
      <trkpt lat="47.85137" lon="6.78577">
        <ele>881</ele>
        <time>2018-06-23T08:37:45.000Z</time>
      </trkpt>
      <trkpt lat="47.85136" lon="6.78577">
        <ele>881</ele>
        <time>2018-06-23T08:37:46.000Z</time>
      </trkpt>
      <trkpt lat="47.85135" lon="6.78577">
        <ele>881</ele>
        <time>2018-06-23T08:37:47.000Z</time>
      </trkpt>
      <trkpt lat="47.85134" lon="6.78577">
        <ele>881</ele>
        <time>2018-06-23T08:37:48.000Z</time>
      </trkpt>
      <trkpt lat="47.85134" lon="6.78576">
        <ele>881</ele>
        <time>2018-06-23T08:37:49.000Z</time>
      </trkpt>
      <trkpt lat="47.85133" lon="6.78576">
        <ele>882</ele>
        <time>2018-06-23T08:37:50.000Z</time>
      </trkpt>
      <trkpt lat="47.85132" lon="6.78576">
        <ele>882</ele>
        <time>2018-06-23T08:37:51.000Z</time>
      </trkpt>
      <trkpt lat="47.85131" lon="6.78576">
        <ele>882</ele>
        <time>2018-06-23T08:37:52.000Z</time>
      </trkpt>
      <trkpt lat="47.8513" lon="6.78576">
        <ele>882</ele>
        <time>2018-06-23T08:37:53.000Z</time>
      </trkpt>
      <trkpt lat="47.8513" lon="6.78575">
        <ele>882</ele>
        <time>2018-06-23T08:37:54.000Z</time>
      </trkpt>
      <trkpt lat="47.85129" lon="6.78575">
        <ele>883</ele>
        <time>2018-06-23T08:37:55.000Z</time>
      </trkpt>
      <trkpt lat="47.85128" lon="6.78574">
        <ele>883</ele>
        <time>2018-06-23T08:37:56.000Z</time>
      </trkpt>
      <trkpt lat="47.85127" lon="6.78574">
        <ele>883</ele>
        <time>2018-06-23T08:37:57.000Z</time>
      </trkpt>
      <trkpt lat="47.85127" lon="6.78574">
        <ele>883</ele>
        <time>2018-06-23T08:37:58.000Z</time>
      </trkpt>
      <trkpt lat="47.85126" lon="6.78573">
        <ele>883</ele>
        <time>2018-06-23T08:37:59.000Z</time>
      </trkpt>
      <trkpt lat="47.85125" lon="6.78573">
        <ele>883</ele>
        <time>2018-06-23T08:38:00.000Z</time>
      </trkpt>
      <trkpt lat="47.85124" lon="6.78573">
        <ele>883</ele>
        <time>2018-06-23T08:38:01.000Z</time>
      </trkpt>
      <trkpt lat="47.85124" lon="6.78573">
        <ele>884</ele>
        <time>2018-06-23T08:38:02.000Z</time>
      </trkpt>
      <trkpt lat="47.85123" lon="6.78572">
        <ele>884</ele>
        <time>2018-06-23T08:38:03.000Z</time>
      </trkpt>
      <trkpt lat="47.85122" lon="6.78573">
        <ele>884</ele>
        <time>2018-06-23T08:38:04.000Z</time>
      </trkpt>
      <trkpt lat="47.85121" lon="6.78572">
        <ele>884</ele>
        <time>2018-06-23T08:38:05.000Z</time>
      </trkpt>
      <trkpt lat="47.8512" lon="6.78572">
        <ele>884</ele>
        <time>2018-06-23T08:38:06.000Z</time>
      </trkpt>
      <trkpt lat="47.85119" lon="6.78572">
        <ele>884</ele>
        <time>2018-06-23T08:38:07.000Z</time>
      </trkpt>
      <trkpt lat="47.85119" lon="6.78572">
        <ele>884</ele>
        <time>2018-06-23T08:38:08.000Z</time>
      </trkpt>
      <trkpt lat="47.85118" lon="6.78571">
        <ele>884</ele>
        <time>2018-06-23T08:38:09.000Z</time>
      </trkpt>
      <trkpt lat="47.85117" lon="6.78571">
        <ele>884</ele>
        <time>2018-06-23T08:38:10.000Z</time>
      </trkpt>
      <trkpt lat="47.85116" lon="6.78571">
        <ele>885</ele>
        <time>2018-06-23T08:38:11.000Z</time>
      </trkpt>
      <trkpt lat="47.85115" lon="6.78571">
        <ele>885</ele>
        <time>2018-06-23T08:38:12.000Z</time>
      </trkpt>
      <trkpt lat="47.85115" lon="6.7857">
        <ele>885</ele>
        <time>2018-06-23T08:38:13.000Z</time>
      </trkpt>
      <trkpt lat="47.85114" lon="6.7857">
        <ele>885</ele>
        <time>2018-06-23T08:38:14.000Z</time>
      </trkpt>
      <trkpt lat="47.85113" lon="6.7857">
        <ele>885</ele>
        <time>2018-06-23T08:38:15.000Z</time>
      </trkpt>
      <trkpt lat="47.85112" lon="6.7857">
        <ele>885</ele>
        <time>2018-06-23T08:38:16.000Z</time>
      </trkpt>
      <trkpt lat="47.85111" lon="6.7857">
        <ele>885</ele>
        <time>2018-06-23T08:38:17.000Z</time>
      </trkpt>
      <trkpt lat="47.8511" lon="6.7857">
        <ele>885</ele>
        <time>2018-06-23T08:38:18.000Z</time>
      </trkpt>
      <trkpt lat="47.85109" lon="6.7857">
        <ele>885</ele>
        <time>2018-06-23T08:38:19.000Z</time>
      </trkpt>
      <trkpt lat="47.85108" lon="6.78571">
        <ele>885</ele>
        <time>2018-06-23T08:38:20.000Z</time>
      </trkpt>
      <trkpt lat="47.85108" lon="6.78571">
        <ele>885</ele>
        <time>2018-06-23T08:38:21.000Z</time>
      </trkpt>
      <trkpt lat="47.85107" lon="6.78572">
        <ele>885</ele>
        <time>2018-06-23T08:38:22.000Z</time>
      </trkpt>
      <trkpt lat="47.85106" lon="6.78572">
        <ele>885</ele>
        <time>2018-06-23T08:38:23.000Z</time>
      </trkpt>
      <trkpt lat="47.85106" lon="6.78572">
        <ele>885</ele>
        <time>2018-06-23T08:38:24.000Z</time>
      </trkpt>
      <trkpt lat="47.85105" lon="6.78572">
        <ele>885</ele>
        <time>2018-06-23T08:38:25.000Z</time>
      </trkpt>
      <trkpt lat="47.85104" lon="6.78572">
        <ele>885</ele>
        <time>2018-06-23T08:38:26.000Z</time>
      </trkpt>
      <trkpt lat="47.85104" lon="6.78572">
        <ele>885</ele>
        <time>2018-06-23T08:38:27.000Z</time>
      </trkpt>
      <trkpt lat="47.85103" lon="6.78572">
        <ele>885</ele>
        <time>2018-06-23T08:38:28.000Z</time>
      </trkpt>
      <trkpt lat="47.85102" lon="6.78572">
        <ele>885</ele>
        <time>2018-06-23T08:38:29.000Z</time>
      </trkpt>
      <trkpt lat="47.85101" lon="6.78572">
        <ele>885</ele>
        <time>2018-06-23T08:38:30.000Z</time>
      </trkpt>
      <trkpt lat="47.851" lon="6.78571">
        <ele>885</ele>
        <time>2018-06-23T08:38:31.000Z</time>
      </trkpt>
      <trkpt lat="47.85099" lon="6.78571">
        <ele>885</ele>
        <time>2018-06-23T08:38:32.000Z</time>
      </trkpt>
      <trkpt lat="47.85098" lon="6.78571">
        <ele>885</ele>
        <time>2018-06-23T08:38:33.000Z</time>
      </trkpt>
      <trkpt lat="47.85097" lon="6.78571">
        <ele>885</ele>
        <time>2018-06-23T08:38:34.000Z</time>
      </trkpt>
      <trkpt lat="47.85096" lon="6.78571">
        <ele>885</ele>
        <time>2018-06-23T08:38:35.000Z</time>
      </trkpt>
      <trkpt lat="47.85093" lon="6.78571">
        <ele>884</ele>
        <time>2018-06-23T08:38:36.000Z</time>
      </trkpt>
      <trkpt lat="47.85091" lon="6.78571">
        <ele>884</ele>
        <time>2018-06-23T08:38:37.000Z</time>
      </trkpt>
      <trkpt lat="47.85091" lon="6.78571">
        <ele>884</ele>
        <time>2018-06-23T08:38:38.000Z</time>
      </trkpt>
      <trkpt lat="47.8509" lon="6.78571">
        <ele>884</ele>
        <time>2018-06-23T08:38:39.000Z</time>
      </trkpt>
      <trkpt lat="47.85089" lon="6.78571">
        <ele>884</ele>
        <time>2018-06-23T08:38:40.000Z</time>
      </trkpt>
      <trkpt lat="47.85088" lon="6.78571">
        <ele>884</ele>
        <time>2018-06-23T08:38:41.000Z</time>
      </trkpt>
      <trkpt lat="47.85085" lon="6.78571">
        <ele>884</ele>
        <time>2018-06-23T08:38:42.000Z</time>
      </trkpt>
      <trkpt lat="47.85084" lon="6.78571">
        <ele>884</ele>
        <time>2018-06-23T08:38:43.000Z</time>
      </trkpt>
      <trkpt lat="47.85083" lon="6.78571">
        <ele>886</ele>
        <time>2018-06-23T08:38:44.000Z</time>
      </trkpt>
      <trkpt lat="47.85082" lon="6.78571">
        <ele>886</ele>
        <time>2018-06-23T08:38:45.000Z</time>
      </trkpt>
      <trkpt lat="47.85081" lon="6.78571">
        <ele>886</ele>
        <time>2018-06-23T08:38:46.000Z</time>
      </trkpt>
      <trkpt lat="47.8508" lon="6.78571">
        <ele>886</ele>
        <time>2018-06-23T08:38:47.000Z</time>
      </trkpt>
      <trkpt lat="47.85079" lon="6.78572">
        <ele>886</ele>
        <time>2018-06-23T08:38:48.000Z</time>
      </trkpt>
      <trkpt lat="47.85078" lon="6.78572">
        <ele>886</ele>
        <time>2018-06-23T08:38:49.000Z</time>
      </trkpt>
      <trkpt lat="47.85077" lon="6.78573">
        <ele>886</ele>
        <time>2018-06-23T08:38:50.000Z</time>
      </trkpt>
      <trkpt lat="47.85076" lon="6.78574">
        <ele>886</ele>
        <time>2018-06-23T08:38:51.000Z</time>
      </trkpt>
      <trkpt lat="47.85075" lon="6.78575">
        <ele>886</ele>
        <time>2018-06-23T08:38:52.000Z</time>
      </trkpt>
      <trkpt lat="47.85075" lon="6.78575">
        <ele>886</ele>
        <time>2018-06-23T08:38:53.000Z</time>
      </trkpt>
      <trkpt lat="47.85074" lon="6.78576">
        <ele>886</ele>
        <time>2018-06-23T08:38:54.000Z</time>
      </trkpt>
      <trkpt lat="47.85072" lon="6.78576">
        <ele>887</ele>
        <time>2018-06-23T08:38:55.000Z</time>
      </trkpt>
      <trkpt lat="47.85071" lon="6.78576">
        <ele>887</ele>
        <time>2018-06-23T08:38:56.000Z</time>
      </trkpt>
      <trkpt lat="47.85071" lon="6.78576">
        <ele>887</ele>
        <time>2018-06-23T08:38:57.000Z</time>
      </trkpt>
      <trkpt lat="47.8507" lon="6.78576">
        <ele>887</ele>
        <time>2018-06-23T08:38:58.000Z</time>
      </trkpt>
      <trkpt lat="47.85069" lon="6.78577">
        <ele>887</ele>
        <time>2018-06-23T08:38:59.000Z</time>
      </trkpt>
      <trkpt lat="47.85068" lon="6.78577">
        <ele>887</ele>
        <time>2018-06-23T08:39:00.000Z</time>
      </trkpt>
      <trkpt lat="47.85067" lon="6.78577">
        <ele>888</ele>
        <time>2018-06-23T08:39:01.000Z</time>
      </trkpt>
      <trkpt lat="47.85066" lon="6.78577">
        <ele>888</ele>
        <time>2018-06-23T08:39:02.000Z</time>
      </trkpt>
      <trkpt lat="47.85065" lon="6.78577">
        <ele>888</ele>
        <time>2018-06-23T08:39:03.000Z</time>
      </trkpt>
      <trkpt lat="47.85065" lon="6.78577">
        <ele>888</ele>
        <time>2018-06-23T08:39:04.000Z</time>
      </trkpt>
      <trkpt lat="47.85064" lon="6.78578">
        <ele>888</ele>
        <time>2018-06-23T08:39:05.000Z</time>
      </trkpt>
      <trkpt lat="47.85063" lon="6.78578">
        <ele>888</ele>
        <time>2018-06-23T08:39:06.000Z</time>
      </trkpt>
      <trkpt lat="47.85062" lon="6.78578">
        <ele>889</ele>
        <time>2018-06-23T08:39:07.000Z</time>
      </trkpt>
      <trkpt lat="47.85061" lon="6.78579">
        <ele>889</ele>
        <time>2018-06-23T08:39:08.000Z</time>
      </trkpt>
      <trkpt lat="47.8506" lon="6.78579">
        <ele>889</ele>
        <time>2018-06-23T08:39:09.000Z</time>
      </trkpt>
      <trkpt lat="47.85058" lon="6.7858">
        <ele>889</ele>
        <time>2018-06-23T08:39:10.000Z</time>
      </trkpt>
      <trkpt lat="47.85057" lon="6.7858">
        <ele>889</ele>
        <time>2018-06-23T08:39:11.000Z</time>
      </trkpt>
      <trkpt lat="47.85056" lon="6.7858">
        <ele>889</ele>
        <time>2018-06-23T08:39:12.000Z</time>
      </trkpt>
      <trkpt lat="47.85055" lon="6.78581">
        <ele>889</ele>
        <time>2018-06-23T08:39:13.000Z</time>
      </trkpt>
      <trkpt lat="47.85054" lon="6.78581">
        <ele>890</ele>
        <time>2018-06-23T08:39:14.000Z</time>
      </trkpt>
      <trkpt lat="47.85053" lon="6.78582">
        <ele>890</ele>
        <time>2018-06-23T08:39:15.000Z</time>
      </trkpt>
      <trkpt lat="47.85052" lon="6.78582">
        <ele>890</ele>
        <time>2018-06-23T08:39:16.000Z</time>
      </trkpt>
      <trkpt lat="47.85051" lon="6.78582">
        <ele>890</ele>
        <time>2018-06-23T08:39:17.000Z</time>
      </trkpt>
      <trkpt lat="47.85051" lon="6.78582">
        <ele>890</ele>
        <time>2018-06-23T08:39:18.000Z</time>
      </trkpt>
      <trkpt lat="47.8505" lon="6.78582">
        <ele>890</ele>
        <time>2018-06-23T08:39:19.000Z</time>
      </trkpt>
      <trkpt lat="47.85046" lon="6.78583">
        <ele>890</ele>
        <time>2018-06-23T08:39:20.000Z</time>
      </trkpt>
      <trkpt lat="47.85046" lon="6.78583">
        <ele>890</ele>
        <time>2018-06-23T08:39:21.000Z</time>
      </trkpt>
      <trkpt lat="47.85044" lon="6.78586">
        <ele>877</ele>
        <time>2018-06-23T08:39:22.000Z</time>
      </trkpt>
      <trkpt lat="47.85044" lon="6.78586">
        <ele>877</ele>
        <time>2018-06-23T08:39:23.000Z</time>
      </trkpt>
      <trkpt lat="47.85043" lon="6.78587">
        <ele>877</ele>
        <time>2018-06-23T08:39:24.000Z</time>
      </trkpt>
      <trkpt lat="47.85043" lon="6.78587">
        <ele>877</ele>
        <time>2018-06-23T08:39:25.000Z</time>
      </trkpt>
      <trkpt lat="47.85038" lon="6.7859">
        <ele>877</ele>
        <time>2018-06-23T08:39:26.000Z</time>
      </trkpt>
      <trkpt lat="47.85038" lon="6.78591">
        <ele>877</ele>
        <time>2018-06-23T08:39:27.000Z</time>
      </trkpt>
      <trkpt lat="47.85035" lon="6.78587">
        <ele>878</ele>
        <time>2018-06-23T08:39:28.000Z</time>
      </trkpt>
      <trkpt lat="47.85035" lon="6.78586">
        <ele>878</ele>
        <time>2018-06-23T08:39:29.000Z</time>
      </trkpt>
      <trkpt lat="47.85036" lon="6.78586">
        <ele>878</ele>
        <time>2018-06-23T08:39:30.000Z</time>
      </trkpt>
      <trkpt lat="47.85036" lon="6.78585">
        <ele>878</ele>
        <time>2018-06-23T08:39:31.000Z</time>
      </trkpt>
      <trkpt lat="47.85036" lon="6.78584">
        <ele>878</ele>
        <time>2018-06-23T08:39:32.000Z</time>
      </trkpt>
      <trkpt lat="47.85036" lon="6.78584">
        <ele>878</ele>
        <time>2018-06-23T08:39:33.000Z</time>
      </trkpt>
      <trkpt lat="47.85036" lon="6.78585">
        <ele>878</ele>
        <time>2018-06-23T08:39:34.000Z</time>
      </trkpt>
      <trkpt lat="47.85035" lon="6.78584">
        <ele>878</ele>
        <time>2018-06-23T08:39:36.000Z</time>
      </trkpt>
      <trkpt lat="47.85035" lon="6.7858">
        <ele>891</ele>
        <time>2018-06-23T08:39:37.000Z</time>
      </trkpt>
      <trkpt lat="47.85035" lon="6.7858">
        <ele>891</ele>
        <time>2018-06-23T08:39:38.000Z</time>
      </trkpt>
      <trkpt lat="47.85035" lon="6.7858">
        <ele>891</ele>
        <time>2018-06-23T08:39:39.000Z</time>
      </trkpt>
      <trkpt lat="47.85035" lon="6.7858">
        <ele>891</ele>
        <time>2018-06-23T08:39:40.000Z</time>
      </trkpt>
      <trkpt lat="47.85035" lon="6.7858">
        <ele>891</ele>
        <time>2018-06-23T08:39:41.000Z</time>
      </trkpt>
      <trkpt lat="47.85034" lon="6.78585">
        <ele>878</ele>
        <time>2018-06-23T08:39:43.000Z</time>
      </trkpt>
      <trkpt lat="47.85035" lon="6.78586">
        <ele>878</ele>
        <time>2018-06-23T08:39:47.000Z</time>
      </trkpt>
      <trkpt lat="47.85035" lon="6.78588">
        <ele>878</ele>
        <time>2018-06-23T08:39:49.000Z</time>
      </trkpt>
      <trkpt lat="47.85035" lon="6.78588">
        <ele>878</ele>
        <time>2018-06-23T08:39:50.000Z</time>
      </trkpt>
      <trkpt lat="47.85035" lon="6.78588">
        <ele>878</ele>
        <time>2018-06-23T08:39:51.000Z</time>
      </trkpt>
      <trkpt lat="47.85031" lon="6.78595">
        <ele>878</ele>
        <time>2018-06-23T08:39:52.000Z</time>
      </trkpt>
      <trkpt lat="47.85032" lon="6.78595">
        <ele>877</ele>
        <time>2018-06-23T08:39:53.000Z</time>
      </trkpt>
      <trkpt lat="47.85032" lon="6.78596">
        <ele>877</ele>
        <time>2018-06-23T08:39:54.000Z</time>
      </trkpt>
      <trkpt lat="47.85032" lon="6.78596">
        <ele>877</ele>
        <time>2018-06-23T08:39:55.000Z</time>
      </trkpt>
      <trkpt lat="47.85032" lon="6.78596">
        <ele>877</ele>
        <time>2018-06-23T08:39:56.000Z</time>
      </trkpt>
      <trkpt lat="47.85034" lon="6.78588">
        <ele>878</ele>
        <time>2018-06-23T08:39:57.000Z</time>
      </trkpt>
      <trkpt lat="47.85034" lon="6.78588">
        <ele>878</ele>
        <time>2018-06-23T08:39:58.000Z</time>
      </trkpt>
      <trkpt lat="47.85033" lon="6.78589">
        <ele>878</ele>
        <time>2018-06-23T08:39:59.000Z</time>
      </trkpt>
      <trkpt lat="47.85033" lon="6.78589">
        <ele>878</ele>
        <time>2018-06-23T08:40:00.000Z</time>
      </trkpt>
      <trkpt lat="47.85032" lon="6.78589">
        <ele>878</ele>
        <time>2018-06-23T08:40:01.000Z</time>
      </trkpt>
      <trkpt lat="47.85032" lon="6.78589">
        <ele>878</ele>
        <time>2018-06-23T08:40:02.000Z</time>
      </trkpt>
      <trkpt lat="47.85031" lon="6.78588">
        <ele>878</ele>
        <time>2018-06-23T08:40:03.000Z</time>
      </trkpt>
      <trkpt lat="47.85031" lon="6.78588">
        <ele>878</ele>
        <time>2018-06-23T08:40:04.000Z</time>
      </trkpt>
      <trkpt lat="47.8503" lon="6.78586">
        <ele>878</ele>
        <time>2018-06-23T08:40:05.000Z</time>
      </trkpt>
      <trkpt lat="47.8503" lon="6.78586">
        <ele>879</ele>
        <time>2018-06-23T08:40:06.000Z</time>
      </trkpt>
      <trkpt lat="47.8503" lon="6.78585">
        <ele>879</ele>
        <time>2018-06-23T08:40:07.000Z</time>
      </trkpt>
      <trkpt lat="47.8503" lon="6.78584">
        <ele>879</ele>
        <time>2018-06-23T08:40:08.000Z</time>
      </trkpt>
      <trkpt lat="47.8503" lon="6.78583">
        <ele>891</ele>
        <time>2018-06-23T08:40:09.000Z</time>
      </trkpt>
      <trkpt lat="47.8503" lon="6.78582">
        <ele>891</ele>
        <time>2018-06-23T08:40:10.000Z</time>
      </trkpt>
      <trkpt lat="47.85031" lon="6.78582">
        <ele>891</ele>
        <time>2018-06-23T08:40:11.000Z</time>
      </trkpt>
      <trkpt lat="47.85031" lon="6.78582">
        <ele>891</ele>
        <time>2018-06-23T08:40:12.000Z</time>
      </trkpt>
      <trkpt lat="47.85031" lon="6.78582">
        <ele>891</ele>
        <time>2018-06-23T08:40:13.000Z</time>
      </trkpt>
      <trkpt lat="47.8503" lon="6.78582">
        <ele>891</ele>
        <time>2018-06-23T08:40:14.000Z</time>
      </trkpt>
      <trkpt lat="47.8503" lon="6.78583">
        <ele>891</ele>
        <time>2018-06-23T08:40:15.000Z</time>
      </trkpt>
      <trkpt lat="47.85029" lon="6.78584">
        <ele>879</ele>
        <time>2018-06-23T08:40:16.000Z</time>
      </trkpt>
      <trkpt lat="47.85029" lon="6.78585">
        <ele>879</ele>
        <time>2018-06-23T08:40:17.000Z</time>
      </trkpt>
      <trkpt lat="47.85029" lon="6.78586">
        <ele>879</ele>
        <time>2018-06-23T08:40:18.000Z</time>
      </trkpt>
      <trkpt lat="47.85028" lon="6.78587">
        <ele>879</ele>
        <time>2018-06-23T08:40:19.000Z</time>
      </trkpt>
      <trkpt lat="47.85028" lon="6.78587">
        <ele>879</ele>
        <time>2018-06-23T08:40:20.000Z</time>
      </trkpt>
      <trkpt lat="47.85028" lon="6.78588">
        <ele>879</ele>
        <time>2018-06-23T08:40:21.000Z</time>
      </trkpt>
      <trkpt lat="47.85028" lon="6.78589">
        <ele>879</ele>
        <time>2018-06-23T08:40:22.000Z</time>
      </trkpt>
      <trkpt lat="47.85028" lon="6.7859">
        <ele>879</ele>
        <time>2018-06-23T08:40:23.000Z</time>
      </trkpt>
      <trkpt lat="47.85028" lon="6.78591">
        <ele>879</ele>
        <time>2018-06-23T08:40:24.000Z</time>
      </trkpt>
      <trkpt lat="47.85027" lon="6.78591">
        <ele>879</ele>
        <time>2018-06-23T08:40:25.000Z</time>
      </trkpt>
      <trkpt lat="47.85025" lon="6.78592">
        <ele>879</ele>
        <time>2018-06-23T08:40:26.000Z</time>
      </trkpt>
      <trkpt lat="47.85024" lon="6.78592">
        <ele>879</ele>
        <time>2018-06-23T08:40:27.000Z</time>
      </trkpt>
      <trkpt lat="47.85022" lon="6.78592">
        <ele>879</ele>
        <time>2018-06-23T08:40:28.000Z</time>
      </trkpt>
      <trkpt lat="47.85021" lon="6.78593">
        <ele>880</ele>
        <time>2018-06-23T08:40:29.000Z</time>
      </trkpt>
      <trkpt lat="47.85019" lon="6.78593">
        <ele>880</ele>
        <time>2018-06-23T08:40:30.000Z</time>
      </trkpt>
      <trkpt lat="47.85018" lon="6.78593">
        <ele>880</ele>
        <time>2018-06-23T08:40:31.000Z</time>
      </trkpt>
      <trkpt lat="47.85016" lon="6.78593">
        <ele>881</ele>
        <time>2018-06-23T08:40:32.000Z</time>
      </trkpt>
      <trkpt lat="47.85015" lon="6.78593">
        <ele>881</ele>
        <time>2018-06-23T08:40:33.000Z</time>
      </trkpt>
      <trkpt lat="47.85014" lon="6.78594">
        <ele>881</ele>
        <time>2018-06-23T08:40:34.000Z</time>
      </trkpt>
      <trkpt lat="47.85013" lon="6.78594">
        <ele>881</ele>
        <time>2018-06-23T08:40:35.000Z</time>
      </trkpt>
      <trkpt lat="47.85012" lon="6.78595">
        <ele>881</ele>
        <time>2018-06-23T08:40:36.000Z</time>
      </trkpt>
      <trkpt lat="47.85011" lon="6.78595">
        <ele>881</ele>
        <time>2018-06-23T08:40:37.000Z</time>
      </trkpt>
      <trkpt lat="47.85009" lon="6.78596">
        <ele>882</ele>
        <time>2018-06-23T08:40:38.000Z</time>
      </trkpt>
      <trkpt lat="47.85008" lon="6.78596">
        <ele>882</ele>
        <time>2018-06-23T08:40:39.000Z</time>
      </trkpt>
      <trkpt lat="47.85007" lon="6.78597">
        <ele>882</ele>
        <time>2018-06-23T08:40:40.000Z</time>
      </trkpt>
      <trkpt lat="47.85005" lon="6.78597">
        <ele>882</ele>
        <time>2018-06-23T08:40:41.000Z</time>
      </trkpt>
      <trkpt lat="47.85004" lon="6.78598">
        <ele>882</ele>
        <time>2018-06-23T08:40:42.000Z</time>
      </trkpt>
      <trkpt lat="47.85003" lon="6.78599">
        <ele>882</ele>
        <time>2018-06-23T08:40:43.000Z</time>
      </trkpt>
      <trkpt lat="47.85002" lon="6.786">
        <ele>881</ele>
        <time>2018-06-23T08:40:44.000Z</time>
      </trkpt>
      <trkpt lat="47.85" lon="6.786">
        <ele>881</ele>
        <time>2018-06-23T08:40:45.000Z</time>
      </trkpt>
      <trkpt lat="47.84999" lon="6.78601">
        <ele>886</ele>
        <time>2018-06-23T08:40:46.000Z</time>
      </trkpt>
      <trkpt lat="47.84998" lon="6.78602">
        <ele>886</ele>
        <time>2018-06-23T08:40:47.000Z</time>
      </trkpt>
      <trkpt lat="47.84997" lon="6.78602">
        <ele>886</ele>
        <time>2018-06-23T08:40:48.000Z</time>
      </trkpt>
      <trkpt lat="47.84996" lon="6.78603">
        <ele>886</ele>
        <time>2018-06-23T08:40:49.000Z</time>
      </trkpt>
      <trkpt lat="47.84995" lon="6.78603">
        <ele>886</ele>
        <time>2018-06-23T08:40:50.000Z</time>
      </trkpt>
      <trkpt lat="47.84995" lon="6.78604">
        <ele>886</ele>
        <time>2018-06-23T08:40:51.000Z</time>
      </trkpt>
      <trkpt lat="47.84994" lon="6.78604">
        <ele>886</ele>
        <time>2018-06-23T08:40:52.000Z</time>
      </trkpt>
      <trkpt lat="47.84992" lon="6.78604">
        <ele>886</ele>
        <time>2018-06-23T08:40:53.000Z</time>
      </trkpt>
      <trkpt lat="47.84991" lon="6.78605">
        <ele>886</ele>
        <time>2018-06-23T08:40:54.000Z</time>
      </trkpt>
      <trkpt lat="47.8499" lon="6.78605">
        <ele>886</ele>
        <time>2018-06-23T08:40:55.000Z</time>
      </trkpt>
      <trkpt lat="47.84989" lon="6.78604">
        <ele>886</ele>
        <time>2018-06-23T08:40:56.000Z</time>
      </trkpt>
      <trkpt lat="47.84988" lon="6.78604">
        <ele>886</ele>
        <time>2018-06-23T08:40:57.000Z</time>
      </trkpt>
      <trkpt lat="47.84987" lon="6.78603">
        <ele>886</ele>
        <time>2018-06-23T08:40:58.000Z</time>
      </trkpt>
      <trkpt lat="47.84986" lon="6.78602">
        <ele>886</ele>
        <time>2018-06-23T08:40:59.000Z</time>
      </trkpt>
      <trkpt lat="47.84985" lon="6.78601">
        <ele>886</ele>
        <time>2018-06-23T08:41:00.000Z</time>
      </trkpt>
      <trkpt lat="47.84984" lon="6.786">
        <ele>886</ele>
        <time>2018-06-23T08:41:01.000Z</time>
      </trkpt>
      <trkpt lat="47.84982" lon="6.78599">
        <ele>886</ele>
        <time>2018-06-23T08:41:02.000Z</time>
      </trkpt>
      <trkpt lat="47.84982" lon="6.78597">
        <ele>886</ele>
        <time>2018-06-23T08:41:03.000Z</time>
      </trkpt>
      <trkpt lat="47.84981" lon="6.78596">
        <ele>887</ele>
        <time>2018-06-23T08:41:04.000Z</time>
      </trkpt>
      <trkpt lat="47.8498" lon="6.78594">
        <ele>887</ele>
        <time>2018-06-23T08:41:05.000Z</time>
      </trkpt>
      <trkpt lat="47.84979" lon="6.78593">
        <ele>887</ele>
        <time>2018-06-23T08:41:06.000Z</time>
      </trkpt>
      <trkpt lat="47.84979" lon="6.78592">
        <ele>887</ele>
        <time>2018-06-23T08:41:07.000Z</time>
      </trkpt>
      <trkpt lat="47.84978" lon="6.78591">
        <ele>887</ele>
        <time>2018-06-23T08:41:08.000Z</time>
      </trkpt>
      <trkpt lat="47.84977" lon="6.78591">
        <ele>887</ele>
        <time>2018-06-23T08:41:09.000Z</time>
      </trkpt>
      <trkpt lat="47.84976" lon="6.7859">
        <ele>887</ele>
        <time>2018-06-23T08:41:10.000Z</time>
      </trkpt>
      <trkpt lat="47.84975" lon="6.78588">
        <ele>887</ele>
        <time>2018-06-23T08:41:11.000Z</time>
      </trkpt>
      <trkpt lat="47.84974" lon="6.78587">
        <ele>887</ele>
        <time>2018-06-23T08:41:12.000Z</time>
      </trkpt>
      <trkpt lat="47.84974" lon="6.78586">
        <ele>887</ele>
        <time>2018-06-23T08:41:13.000Z</time>
      </trkpt>
      <trkpt lat="47.84973" lon="6.78584">
        <ele>887</ele>
        <time>2018-06-23T08:41:14.000Z</time>
      </trkpt>
      <trkpt lat="47.84972" lon="6.78582">
        <ele>891</ele>
        <time>2018-06-23T08:41:15.000Z</time>
      </trkpt>
      <trkpt lat="47.84971" lon="6.78581">
        <ele>891</ele>
        <time>2018-06-23T08:41:16.000Z</time>
      </trkpt>
      <trkpt lat="47.8497" lon="6.78579">
        <ele>891</ele>
        <time>2018-06-23T08:41:17.000Z</time>
      </trkpt>
      <trkpt lat="47.84968" lon="6.78578">
        <ele>891</ele>
        <time>2018-06-23T08:41:18.000Z</time>
      </trkpt>
      <trkpt lat="47.84968" lon="6.78577">
        <ele>891</ele>
        <time>2018-06-23T08:41:19.000Z</time>
      </trkpt>
      <trkpt lat="47.84967" lon="6.78575">
        <ele>891</ele>
        <time>2018-06-23T08:41:20.000Z</time>
      </trkpt>
      <trkpt lat="47.84966" lon="6.78573">
        <ele>891</ele>
        <time>2018-06-23T08:41:21.000Z</time>
      </trkpt>
      <trkpt lat="47.84965" lon="6.78572">
        <ele>891</ele>
        <time>2018-06-23T08:41:22.000Z</time>
      </trkpt>
      <trkpt lat="47.84964" lon="6.78571">
        <ele>891</ele>
        <time>2018-06-23T08:41:23.000Z</time>
      </trkpt>
      <trkpt lat="47.84963" lon="6.7857">
        <ele>891</ele>
        <time>2018-06-23T08:41:24.000Z</time>
      </trkpt>
      <trkpt lat="47.84961" lon="6.78568">
        <ele>891</ele>
        <time>2018-06-23T08:41:25.000Z</time>
      </trkpt>
      <trkpt lat="47.84961" lon="6.78567">
        <ele>891</ele>
        <time>2018-06-23T08:41:26.000Z</time>
      </trkpt>
      <trkpt lat="47.84959" lon="6.78566">
        <ele>891</ele>
        <time>2018-06-23T08:41:27.000Z</time>
      </trkpt>
      <trkpt lat="47.84958" lon="6.78565">
        <ele>891</ele>
        <time>2018-06-23T08:41:28.000Z</time>
      </trkpt>
      <trkpt lat="47.84957" lon="6.78565">
        <ele>891</ele>
        <time>2018-06-23T08:41:29.000Z</time>
      </trkpt>
      <trkpt lat="47.84956" lon="6.78563">
        <ele>891</ele>
        <time>2018-06-23T08:41:30.000Z</time>
      </trkpt>
      <trkpt lat="47.84955" lon="6.78562">
        <ele>891</ele>
        <time>2018-06-23T08:41:31.000Z</time>
      </trkpt>
      <trkpt lat="47.84955" lon="6.7856">
        <ele>891</ele>
        <time>2018-06-23T08:41:32.000Z</time>
      </trkpt>
      <trkpt lat="47.84954" lon="6.78559">
        <ele>891</ele>
        <time>2018-06-23T08:41:33.000Z</time>
      </trkpt>
      <trkpt lat="47.84954" lon="6.78557">
        <ele>891</ele>
        <time>2018-06-23T08:41:34.000Z</time>
      </trkpt>
      <trkpt lat="47.84953" lon="6.78556">
        <ele>891</ele>
        <time>2018-06-23T08:41:35.000Z</time>
      </trkpt>
      <trkpt lat="47.84953" lon="6.78554">
        <ele>891</ele>
        <time>2018-06-23T08:41:36.000Z</time>
      </trkpt>
      <trkpt lat="47.84953" lon="6.78553">
        <ele>891</ele>
        <time>2018-06-23T08:41:37.000Z</time>
      </trkpt>
      <trkpt lat="47.84953" lon="6.78551">
        <ele>891</ele>
        <time>2018-06-23T08:41:38.000Z</time>
      </trkpt>
      <trkpt lat="47.84952" lon="6.7855">
        <ele>891</ele>
        <time>2018-06-23T08:41:39.000Z</time>
      </trkpt>
      <trkpt lat="47.84952" lon="6.78549">
        <ele>891</ele>
        <time>2018-06-23T08:41:40.000Z</time>
      </trkpt>
      <trkpt lat="47.84951" lon="6.78547">
        <ele>891</ele>
        <time>2018-06-23T08:41:41.000Z</time>
      </trkpt>
      <trkpt lat="47.84951" lon="6.78547">
        <ele>891</ele>
        <time>2018-06-23T08:41:42.000Z</time>
      </trkpt>
      <trkpt lat="47.84951" lon="6.78546">
        <ele>891</ele>
        <time>2018-06-23T08:41:43.000Z</time>
      </trkpt>
      <trkpt lat="47.84951" lon="6.78546">
        <ele>891</ele>
        <time>2018-06-23T08:41:44.000Z</time>
      </trkpt>
      <trkpt lat="47.84951" lon="6.78545">
        <ele>891</ele>
        <time>2018-06-23T08:41:45.000Z</time>
      </trkpt>
      <trkpt lat="47.84952" lon="6.78546">
        <ele>891</ele>
        <time>2018-06-23T08:41:46.000Z</time>
      </trkpt>
      <trkpt lat="47.84952" lon="6.78547">
        <ele>891</ele>
        <time>2018-06-23T08:41:47.000Z</time>
      </trkpt>
      <trkpt lat="47.84952" lon="6.78547">
        <ele>891</ele>
        <time>2018-06-23T08:41:48.000Z</time>
      </trkpt>
      <trkpt lat="47.84955" lon="6.78542">
        <ele>891</ele>
        <time>2018-06-23T08:41:49.000Z</time>
      </trkpt>
      <trkpt lat="47.84956" lon="6.78541">
        <ele>891</ele>
        <time>2018-06-23T08:41:50.000Z</time>
      </trkpt>
      <trkpt lat="47.84956" lon="6.7854">
        <ele>891</ele>
        <time>2018-06-23T08:41:51.000Z</time>
      </trkpt>
      <trkpt lat="47.84956" lon="6.78539">
        <ele>891</ele>
        <time>2018-06-23T08:41:52.000Z</time>
      </trkpt>
      <trkpt lat="47.84956" lon="6.78539">
        <ele>891</ele>
        <time>2018-06-23T08:41:53.000Z</time>
      </trkpt>
      <trkpt lat="47.84957" lon="6.78537">
        <ele>891</ele>
        <time>2018-06-23T08:41:54.000Z</time>
      </trkpt>
      <trkpt lat="47.84958" lon="6.78536">
        <ele>892</ele>
        <time>2018-06-23T08:41:55.000Z</time>
      </trkpt>
      <trkpt lat="47.84959" lon="6.78536">
        <ele>892</ele>
        <time>2018-06-23T08:41:56.000Z</time>
      </trkpt>
      <trkpt lat="47.84959" lon="6.78536">
        <ele>892</ele>
        <time>2018-06-23T08:41:57.000Z</time>
      </trkpt>
      <trkpt lat="47.8496" lon="6.78536">
        <ele>892</ele>
        <time>2018-06-23T08:41:58.000Z</time>
      </trkpt>
      <trkpt lat="47.84961" lon="6.78535">
        <ele>892</ele>
        <time>2018-06-23T08:41:59.000Z</time>
      </trkpt>
      <trkpt lat="47.84962" lon="6.78535">
        <ele>892</ele>
        <time>2018-06-23T08:42:00.000Z</time>
      </trkpt>
      <trkpt lat="47.84962" lon="6.78535">
        <ele>892</ele>
        <time>2018-06-23T08:42:01.000Z</time>
      </trkpt>
      <trkpt lat="47.84965" lon="6.78534">
        <ele>892</ele>
        <time>2018-06-23T08:42:02.000Z</time>
      </trkpt>
      <trkpt lat="47.84966" lon="6.78533">
        <ele>892</ele>
        <time>2018-06-23T08:42:03.000Z</time>
      </trkpt>
      <trkpt lat="47.84966" lon="6.78533">
        <ele>892</ele>
        <time>2018-06-23T08:42:04.000Z</time>
      </trkpt>
      <trkpt lat="47.84967" lon="6.78532">
        <ele>892</ele>
        <time>2018-06-23T08:42:05.000Z</time>
      </trkpt>
      <trkpt lat="47.84968" lon="6.78531">
        <ele>892</ele>
        <time>2018-06-23T08:42:06.000Z</time>
      </trkpt>
      <trkpt lat="47.84968" lon="6.78531">
        <ele>892</ele>
        <time>2018-06-23T08:42:07.000Z</time>
      </trkpt>
      <trkpt lat="47.84968" lon="6.7853">
        <ele>892</ele>
        <time>2018-06-23T08:42:08.000Z</time>
      </trkpt>
      <trkpt lat="47.84968" lon="6.7853">
        <ele>892</ele>
        <time>2018-06-23T08:42:09.000Z</time>
      </trkpt>
      <trkpt lat="47.84969" lon="6.78529">
        <ele>892</ele>
        <time>2018-06-23T08:42:10.000Z</time>
      </trkpt>
      <trkpt lat="47.8497" lon="6.78528">
        <ele>892</ele>
        <time>2018-06-23T08:42:11.000Z</time>
      </trkpt>
      <trkpt lat="47.8497" lon="6.78528">
        <ele>892</ele>
        <time>2018-06-23T08:42:12.000Z</time>
      </trkpt>
      <trkpt lat="47.8497" lon="6.78527">
        <ele>892</ele>
        <time>2018-06-23T08:42:13.000Z</time>
      </trkpt>
      <trkpt lat="47.8497" lon="6.78527">
        <ele>892</ele>
        <time>2018-06-23T08:42:14.000Z</time>
      </trkpt>
      <trkpt lat="47.84971" lon="6.78527">
        <ele>892</ele>
        <time>2018-06-23T08:42:15.000Z</time>
      </trkpt>
      <trkpt lat="47.84972" lon="6.78526">
        <ele>892</ele>
        <time>2018-06-23T08:42:16.000Z</time>
      </trkpt>
      <trkpt lat="47.84972" lon="6.78526">
        <ele>892</ele>
        <time>2018-06-23T08:42:17.000Z</time>
      </trkpt>
      <trkpt lat="47.84973" lon="6.78525">
        <ele>892</ele>
        <time>2018-06-23T08:42:18.000Z</time>
      </trkpt>
      <trkpt lat="47.84974" lon="6.78524">
        <ele>893</ele>
        <time>2018-06-23T08:42:19.000Z</time>
      </trkpt>
      <trkpt lat="47.84975" lon="6.78523">
        <ele>893</ele>
        <time>2018-06-23T08:42:20.000Z</time>
      </trkpt>
      <trkpt lat="47.84975" lon="6.78523">
        <ele>893</ele>
        <time>2018-06-23T08:42:21.000Z</time>
      </trkpt>
      <trkpt lat="47.84976" lon="6.78522">
        <ele>893</ele>
        <time>2018-06-23T08:42:22.000Z</time>
      </trkpt>
      <trkpt lat="47.84977" lon="6.78521">
        <ele>893</ele>
        <time>2018-06-23T08:42:23.000Z</time>
      </trkpt>
      <trkpt lat="47.84977" lon="6.7852">
        <ele>893</ele>
        <time>2018-06-23T08:42:24.000Z</time>
      </trkpt>
      <trkpt lat="47.84978" lon="6.78519">
        <ele>893</ele>
        <time>2018-06-23T08:42:25.000Z</time>
      </trkpt>
      <trkpt lat="47.84979" lon="6.78518">
        <ele>893</ele>
        <time>2018-06-23T08:42:26.000Z</time>
      </trkpt>
      <trkpt lat="47.84979" lon="6.78517">
        <ele>893</ele>
        <time>2018-06-23T08:42:27.000Z</time>
      </trkpt>
      <trkpt lat="47.8498" lon="6.78517">
        <ele>893</ele>
        <time>2018-06-23T08:42:28.000Z</time>
      </trkpt>
      <trkpt lat="47.84981" lon="6.78516">
        <ele>893</ele>
        <time>2018-06-23T08:42:29.000Z</time>
      </trkpt>
      <trkpt lat="47.84981" lon="6.78516">
        <ele>893</ele>
        <time>2018-06-23T08:42:30.000Z</time>
      </trkpt>
      <trkpt lat="47.84983" lon="6.78515">
        <ele>894</ele>
        <time>2018-06-23T08:42:31.000Z</time>
      </trkpt>
      <trkpt lat="47.84984" lon="6.78514">
        <ele>894</ele>
        <time>2018-06-23T08:42:32.000Z</time>
      </trkpt>
      <trkpt lat="47.84985" lon="6.78513">
        <ele>894</ele>
        <time>2018-06-23T08:42:33.000Z</time>
      </trkpt>
      <trkpt lat="47.84986" lon="6.78512">
        <ele>894</ele>
        <time>2018-06-23T08:42:34.000Z</time>
      </trkpt>
      <trkpt lat="47.84987" lon="6.78512">
        <ele>894</ele>
        <time>2018-06-23T08:42:35.000Z</time>
      </trkpt>
      <trkpt lat="47.84988" lon="6.78511">
        <ele>895</ele>
        <time>2018-06-23T08:42:36.000Z</time>
      </trkpt>
      <trkpt lat="47.84989" lon="6.78511">
        <ele>895</ele>
        <time>2018-06-23T08:42:37.000Z</time>
      </trkpt>
      <trkpt lat="47.84989" lon="6.78511">
        <ele>895</ele>
        <time>2018-06-23T08:42:38.000Z</time>
      </trkpt>
      <trkpt lat="47.8499" lon="6.7851">
        <ele>895</ele>
        <time>2018-06-23T08:42:39.000Z</time>
      </trkpt>
      <trkpt lat="47.84992" lon="6.78509">
        <ele>895</ele>
        <time>2018-06-23T08:42:40.000Z</time>
      </trkpt>
      <trkpt lat="47.84994" lon="6.78508">
        <ele>896</ele>
        <time>2018-06-23T08:42:41.000Z</time>
      </trkpt>
      <trkpt lat="47.84995" lon="6.78508">
        <ele>896</ele>
        <time>2018-06-23T08:42:42.000Z</time>
      </trkpt>
      <trkpt lat="47.84996" lon="6.78507">
        <ele>896</ele>
        <time>2018-06-23T08:42:43.000Z</time>
      </trkpt>
      <trkpt lat="47.84996" lon="6.78507">
        <ele>896</ele>
        <time>2018-06-23T08:42:44.000Z</time>
      </trkpt>
      <trkpt lat="47.84998" lon="6.78506">
        <ele>896</ele>
        <time>2018-06-23T08:42:45.000Z</time>
      </trkpt>
      <trkpt lat="47.85" lon="6.78505">
        <ele>897</ele>
        <time>2018-06-23T08:42:46.000Z</time>
      </trkpt>
      <trkpt lat="47.85001" lon="6.78505">
        <ele>897</ele>
        <time>2018-06-23T08:42:47.000Z</time>
      </trkpt>
      <trkpt lat="47.85002" lon="6.78505">
        <ele>897</ele>
        <time>2018-06-23T08:42:48.000Z</time>
      </trkpt>
      <trkpt lat="47.85003" lon="6.78505">
        <ele>897</ele>
        <time>2018-06-23T08:42:49.000Z</time>
      </trkpt>
      <trkpt lat="47.85005" lon="6.78506">
        <ele>897</ele>
        <time>2018-06-23T08:42:50.000Z</time>
      </trkpt>
      <trkpt lat="47.85006" lon="6.78506">
        <ele>897</ele>
        <time>2018-06-23T08:42:51.000Z</time>
      </trkpt>
      <trkpt lat="47.85006" lon="6.78506">
        <ele>897</ele>
        <time>2018-06-23T08:42:52.000Z</time>
      </trkpt>
      <trkpt lat="47.85008" lon="6.78506">
        <ele>897</ele>
        <time>2018-06-23T08:42:53.000Z</time>
      </trkpt>
      <trkpt lat="47.85009" lon="6.78506">
        <ele>897</ele>
        <time>2018-06-23T08:42:54.000Z</time>
      </trkpt>
      <trkpt lat="47.85009" lon="6.78506">
        <ele>897</ele>
        <time>2018-06-23T08:42:55.000Z</time>
      </trkpt>
      <trkpt lat="47.85011" lon="6.78506">
        <ele>897</ele>
        <time>2018-06-23T08:42:56.000Z</time>
      </trkpt>
      <trkpt lat="47.85011" lon="6.78506">
        <ele>897</ele>
        <time>2018-06-23T08:42:57.000Z</time>
      </trkpt>
      <trkpt lat="47.85013" lon="6.78507">
        <ele>897</ele>
        <time>2018-06-23T08:42:58.000Z</time>
      </trkpt>
      <trkpt lat="47.85014" lon="6.78507">
        <ele>897</ele>
        <time>2018-06-23T08:42:59.000Z</time>
      </trkpt>
      <trkpt lat="47.85014" lon="6.78507">
        <ele>897</ele>
        <time>2018-06-23T08:43:00.000Z</time>
      </trkpt>
      <trkpt lat="47.85016" lon="6.78507">
        <ele>897</ele>
        <time>2018-06-23T08:43:01.000Z</time>
      </trkpt>
      <trkpt lat="47.85018" lon="6.78508">
        <ele>897</ele>
        <time>2018-06-23T08:43:02.000Z</time>
      </trkpt>
      <trkpt lat="47.85018" lon="6.78508">
        <ele>896</ele>
        <time>2018-06-23T08:43:03.000Z</time>
      </trkpt>
      <trkpt lat="47.85018" lon="6.78508">
        <ele>896</ele>
        <time>2018-06-23T08:43:04.000Z</time>
      </trkpt>
      <trkpt lat="47.8502" lon="6.78509">
        <ele>896</ele>
        <time>2018-06-23T08:43:05.000Z</time>
      </trkpt>
      <trkpt lat="47.85021" lon="6.78509">
        <ele>896</ele>
        <time>2018-06-23T08:43:06.000Z</time>
      </trkpt>
      <trkpt lat="47.85021" lon="6.78509">
        <ele>896</ele>
        <time>2018-06-23T08:43:07.000Z</time>
      </trkpt>
      <trkpt lat="47.85021" lon="6.78509">
        <ele>896</ele>
        <time>2018-06-23T08:43:08.000Z</time>
      </trkpt>
      <trkpt lat="47.85022" lon="6.78509">
        <ele>896</ele>
        <time>2018-06-23T08:43:09.000Z</time>
      </trkpt>
      <trkpt lat="47.85023" lon="6.7851">
        <ele>896</ele>
        <time>2018-06-23T08:43:10.000Z</time>
      </trkpt>
      <trkpt lat="47.85023" lon="6.7851">
        <ele>896</ele>
        <time>2018-06-23T08:43:11.000Z</time>
      </trkpt>
      <trkpt lat="47.85025" lon="6.78509">
        <ele>896</ele>
        <time>2018-06-23T08:43:12.000Z</time>
      </trkpt>
      <trkpt lat="47.85025" lon="6.78509">
        <ele>896</ele>
        <time>2018-06-23T08:43:13.000Z</time>
      </trkpt>
      <trkpt lat="47.85026" lon="6.78509">
        <ele>896</ele>
        <time>2018-06-23T08:43:14.000Z</time>
      </trkpt>
      <trkpt lat="47.85026" lon="6.78508">
        <ele>896</ele>
        <time>2018-06-23T08:43:15.000Z</time>
      </trkpt>
      <trkpt lat="47.85027" lon="6.78507">
        <ele>896</ele>
        <time>2018-06-23T08:43:16.000Z</time>
      </trkpt>
      <trkpt lat="47.85027" lon="6.78507">
        <ele>897</ele>
        <time>2018-06-23T08:43:17.000Z</time>
      </trkpt>
      <trkpt lat="47.85027" lon="6.78506">
        <ele>897</ele>
        <time>2018-06-23T08:43:18.000Z</time>
      </trkpt>
      <trkpt lat="47.85028" lon="6.78506">
        <ele>897</ele>
        <time>2018-06-23T08:43:19.000Z</time>
      </trkpt>
      <trkpt lat="47.85029" lon="6.78506">
        <ele>897</ele>
        <time>2018-06-23T08:43:20.000Z</time>
      </trkpt>
      <trkpt lat="47.8503" lon="6.78507">
        <ele>897</ele>
        <time>2018-06-23T08:43:21.000Z</time>
      </trkpt>
      <trkpt lat="47.85031" lon="6.78507">
        <ele>897</ele>
        <time>2018-06-23T08:43:22.000Z</time>
      </trkpt>
      <trkpt lat="47.85032" lon="6.78508">
        <ele>897</ele>
        <time>2018-06-23T08:43:23.000Z</time>
      </trkpt>
      <trkpt lat="47.85033" lon="6.78508">
        <ele>897</ele>
        <time>2018-06-23T08:43:24.000Z</time>
      </trkpt>
      <trkpt lat="47.85033" lon="6.78508">
        <ele>897</ele>
        <time>2018-06-23T08:43:25.000Z</time>
      </trkpt>
      <trkpt lat="47.85034" lon="6.78508">
        <ele>897</ele>
        <time>2018-06-23T08:43:26.000Z</time>
      </trkpt>
      <trkpt lat="47.85035" lon="6.78508">
        <ele>897</ele>
        <time>2018-06-23T08:43:27.000Z</time>
      </trkpt>
      <trkpt lat="47.85035" lon="6.78508">
        <ele>897</ele>
        <time>2018-06-23T08:43:28.000Z</time>
      </trkpt>
      <trkpt lat="47.85036" lon="6.78508">
        <ele>897</ele>
        <time>2018-06-23T08:43:29.000Z</time>
      </trkpt>
      <trkpt lat="47.85036" lon="6.78508">
        <ele>897</ele>
        <time>2018-06-23T08:43:30.000Z</time>
      </trkpt>
      <trkpt lat="47.85038" lon="6.78507">
        <ele>897</ele>
        <time>2018-06-23T08:43:31.000Z</time>
      </trkpt>
      <trkpt lat="47.85038" lon="6.78506">
        <ele>897</ele>
        <time>2018-06-23T08:43:32.000Z</time>
      </trkpt>
      <trkpt lat="47.85039" lon="6.78505">
        <ele>897</ele>
        <time>2018-06-23T08:43:33.000Z</time>
      </trkpt>
      <trkpt lat="47.8504" lon="6.78505">
        <ele>897</ele>
        <time>2018-06-23T08:43:34.000Z</time>
      </trkpt>
      <trkpt lat="47.85041" lon="6.78504">
        <ele>897</ele>
        <time>2018-06-23T08:43:35.000Z</time>
      </trkpt>
      <trkpt lat="47.85041" lon="6.78504">
        <ele>897</ele>
        <time>2018-06-23T08:43:36.000Z</time>
      </trkpt>
      <trkpt lat="47.85041" lon="6.78503">
        <ele>897</ele>
        <time>2018-06-23T08:43:37.000Z</time>
      </trkpt>
      <trkpt lat="47.85041" lon="6.78503">
        <ele>897</ele>
        <time>2018-06-23T08:43:38.000Z</time>
      </trkpt>
      <trkpt lat="47.85042" lon="6.785">
        <ele>897</ele>
        <time>2018-06-23T08:43:39.000Z</time>
      </trkpt>
      <trkpt lat="47.85043" lon="6.78499">
        <ele>905</ele>
        <time>2018-06-23T08:43:40.000Z</time>
      </trkpt>
      <trkpt lat="47.85043" lon="6.78498">
        <ele>905</ele>
        <time>2018-06-23T08:43:41.000Z</time>
      </trkpt>
      <trkpt lat="47.85044" lon="6.78498">
        <ele>905</ele>
        <time>2018-06-23T08:43:42.000Z</time>
      </trkpt>
      <trkpt lat="47.85044" lon="6.78497">
        <ele>905</ele>
        <time>2018-06-23T08:43:43.000Z</time>
      </trkpt>
      <trkpt lat="47.85044" lon="6.78496">
        <ele>905</ele>
        <time>2018-06-23T08:43:44.000Z</time>
      </trkpt>
      <trkpt lat="47.85044" lon="6.78495">
        <ele>905</ele>
        <time>2018-06-23T08:43:45.000Z</time>
      </trkpt>
      <trkpt lat="47.85044" lon="6.78494">
        <ele>905</ele>
        <time>2018-06-23T08:43:46.000Z</time>
      </trkpt>
      <trkpt lat="47.85044" lon="6.78493">
        <ele>905</ele>
        <time>2018-06-23T08:43:47.000Z</time>
      </trkpt>
      <trkpt lat="47.85044" lon="6.78493">
        <ele>905</ele>
        <time>2018-06-23T08:43:48.000Z</time>
      </trkpt>
      <trkpt lat="47.85046" lon="6.78487">
        <ele>905</ele>
        <time>2018-06-23T08:43:49.000Z</time>
      </trkpt>
      <trkpt lat="47.85047" lon="6.78486">
        <ele>906</ele>
        <time>2018-06-23T08:43:50.000Z</time>
      </trkpt>
      <trkpt lat="47.85048" lon="6.78485">
        <ele>906</ele>
        <time>2018-06-23T08:43:51.000Z</time>
      </trkpt>
      <trkpt lat="47.85049" lon="6.78485">
        <ele>906</ele>
        <time>2018-06-23T08:43:52.000Z</time>
      </trkpt>
      <trkpt lat="47.8505" lon="6.78484">
        <ele>906</ele>
        <time>2018-06-23T08:43:53.000Z</time>
      </trkpt>
      <trkpt lat="47.85051" lon="6.78484">
        <ele>906</ele>
        <time>2018-06-23T08:43:54.000Z</time>
      </trkpt>
      <trkpt lat="47.85051" lon="6.78483">
        <ele>906</ele>
        <time>2018-06-23T08:43:55.000Z</time>
      </trkpt>
      <trkpt lat="47.85052" lon="6.78483">
        <ele>906</ele>
        <time>2018-06-23T08:43:56.000Z</time>
      </trkpt>
      <trkpt lat="47.85053" lon="6.78482">
        <ele>906</ele>
        <time>2018-06-23T08:43:57.000Z</time>
      </trkpt>
      <trkpt lat="47.85054" lon="6.78481">
        <ele>906</ele>
        <time>2018-06-23T08:43:58.000Z</time>
      </trkpt>
      <trkpt lat="47.85055" lon="6.7848">
        <ele>906</ele>
        <time>2018-06-23T08:43:59.000Z</time>
      </trkpt>
      <trkpt lat="47.85055" lon="6.7848">
        <ele>906</ele>
        <time>2018-06-23T08:44:00.000Z</time>
      </trkpt>
      <trkpt lat="47.85056" lon="6.78479">
        <ele>906</ele>
        <time>2018-06-23T08:44:01.000Z</time>
      </trkpt>
      <trkpt lat="47.85058" lon="6.78478">
        <ele>906</ele>
        <time>2018-06-23T08:44:02.000Z</time>
      </trkpt>
      <trkpt lat="47.85059" lon="6.78477">
        <ele>907</ele>
        <time>2018-06-23T08:44:03.000Z</time>
      </trkpt>
      <trkpt lat="47.8506" lon="6.78477">
        <ele>907</ele>
        <time>2018-06-23T08:44:04.000Z</time>
      </trkpt>
      <trkpt lat="47.85061" lon="6.78476">
        <ele>907</ele>
        <time>2018-06-23T08:44:05.000Z</time>
      </trkpt>
      <trkpt lat="47.85062" lon="6.78475">
        <ele>907</ele>
        <time>2018-06-23T08:44:06.000Z</time>
      </trkpt>
      <trkpt lat="47.85063" lon="6.78475">
        <ele>907</ele>
        <time>2018-06-23T08:44:07.000Z</time>
      </trkpt>
      <trkpt lat="47.85064" lon="6.78474">
        <ele>907</ele>
        <time>2018-06-23T08:44:08.000Z</time>
      </trkpt>
      <trkpt lat="47.85065" lon="6.78473">
        <ele>907</ele>
        <time>2018-06-23T08:44:09.000Z</time>
      </trkpt>
      <trkpt lat="47.85066" lon="6.78473">
        <ele>907</ele>
        <time>2018-06-23T08:44:10.000Z</time>
      </trkpt>
      <trkpt lat="47.85067" lon="6.78472">
        <ele>907</ele>
        <time>2018-06-23T08:44:11.000Z</time>
      </trkpt>
      <trkpt lat="47.85068" lon="6.78472">
        <ele>907</ele>
        <time>2018-06-23T08:44:12.000Z</time>
      </trkpt>
      <trkpt lat="47.85068" lon="6.78471">
        <ele>907</ele>
        <time>2018-06-23T08:44:13.000Z</time>
      </trkpt>
      <trkpt lat="47.85069" lon="6.78471">
        <ele>907</ele>
        <time>2018-06-23T08:44:14.000Z</time>
      </trkpt>
      <trkpt lat="47.8507" lon="6.7847">
        <ele>907</ele>
        <time>2018-06-23T08:44:15.000Z</time>
      </trkpt>
      <trkpt lat="47.8507" lon="6.78469">
        <ele>907</ele>
        <time>2018-06-23T08:44:16.000Z</time>
      </trkpt>
      <trkpt lat="47.85071" lon="6.78469">
        <ele>907</ele>
        <time>2018-06-23T08:44:17.000Z</time>
      </trkpt>
      <trkpt lat="47.85072" lon="6.78468">
        <ele>908</ele>
        <time>2018-06-23T08:44:18.000Z</time>
      </trkpt>
      <trkpt lat="47.85073" lon="6.78466">
        <ele>908</ele>
        <time>2018-06-23T08:44:19.000Z</time>
      </trkpt>
      <trkpt lat="47.85074" lon="6.78465">
        <ele>908</ele>
        <time>2018-06-23T08:44:20.000Z</time>
      </trkpt>
      <trkpt lat="47.85075" lon="6.78464">
        <ele>908</ele>
        <time>2018-06-23T08:44:21.000Z</time>
      </trkpt>
      <trkpt lat="47.85076" lon="6.78462">
        <ele>908</ele>
        <time>2018-06-23T08:44:22.000Z</time>
      </trkpt>
      <trkpt lat="47.85077" lon="6.78462">
        <ele>908</ele>
        <time>2018-06-23T08:44:23.000Z</time>
      </trkpt>
      <trkpt lat="47.85078" lon="6.7846">
        <ele>908</ele>
        <time>2018-06-23T08:44:24.000Z</time>
      </trkpt>
      <trkpt lat="47.85079" lon="6.7846">
        <ele>908</ele>
        <time>2018-06-23T08:44:25.000Z</time>
      </trkpt>
      <trkpt lat="47.85079" lon="6.78458">
        <ele>908</ele>
        <time>2018-06-23T08:44:26.000Z</time>
      </trkpt>
      <trkpt lat="47.8508" lon="6.78457">
        <ele>909</ele>
        <time>2018-06-23T08:44:27.000Z</time>
      </trkpt>
      <trkpt lat="47.85081" lon="6.78455">
        <ele>909</ele>
        <time>2018-06-23T08:44:28.000Z</time>
      </trkpt>
      <trkpt lat="47.85081" lon="6.78453">
        <ele>909</ele>
        <time>2018-06-23T08:44:29.000Z</time>
      </trkpt>
      <trkpt lat="47.85082" lon="6.78452">
        <ele>909</ele>
        <time>2018-06-23T08:44:30.000Z</time>
      </trkpt>
      <trkpt lat="47.85083" lon="6.7845">
        <ele>909</ele>
        <time>2018-06-23T08:44:31.000Z</time>
      </trkpt>
      <trkpt lat="47.85084" lon="6.78448">
        <ele>912</ele>
        <time>2018-06-23T08:44:32.000Z</time>
      </trkpt>
      <trkpt lat="47.85085" lon="6.78447">
        <ele>912</ele>
        <time>2018-06-23T08:44:33.000Z</time>
      </trkpt>
      <trkpt lat="47.85086" lon="6.78445">
        <ele>912</ele>
        <time>2018-06-23T08:44:34.000Z</time>
      </trkpt>
      <trkpt lat="47.85087" lon="6.78444">
        <ele>912</ele>
        <time>2018-06-23T08:44:35.000Z</time>
      </trkpt>
      <trkpt lat="47.85088" lon="6.78443">
        <ele>913</ele>
        <time>2018-06-23T08:44:36.000Z</time>
      </trkpt>
      <trkpt lat="47.85088" lon="6.78442">
        <ele>913</ele>
        <time>2018-06-23T08:44:37.000Z</time>
      </trkpt>
      <trkpt lat="47.85088" lon="6.78441">
        <ele>913</ele>
        <time>2018-06-23T08:44:38.000Z</time>
      </trkpt>
      <trkpt lat="47.85089" lon="6.7844">
        <ele>913</ele>
        <time>2018-06-23T08:44:39.000Z</time>
      </trkpt>
      <trkpt lat="47.85089" lon="6.7844">
        <ele>913</ele>
        <time>2018-06-23T08:44:40.000Z</time>
      </trkpt>
      <trkpt lat="47.85089" lon="6.78439">
        <ele>913</ele>
        <time>2018-06-23T08:44:41.000Z</time>
      </trkpt>
      <trkpt lat="47.8509" lon="6.78435">
        <ele>913</ele>
        <time>2018-06-23T08:44:42.000Z</time>
      </trkpt>
      <trkpt lat="47.85091" lon="6.78433">
        <ele>914</ele>
        <time>2018-06-23T08:44:43.000Z</time>
      </trkpt>
      <trkpt lat="47.85091" lon="6.78432">
        <ele>914</ele>
        <time>2018-06-23T08:44:44.000Z</time>
      </trkpt>
      <trkpt lat="47.85091" lon="6.7843">
        <ele>914</ele>
        <time>2018-06-23T08:44:45.000Z</time>
      </trkpt>
      <trkpt lat="47.85092" lon="6.78429">
        <ele>914</ele>
        <time>2018-06-23T08:44:46.000Z</time>
      </trkpt>
      <trkpt lat="47.85092" lon="6.78428">
        <ele>914</ele>
        <time>2018-06-23T08:44:47.000Z</time>
      </trkpt>
      <trkpt lat="47.85091" lon="6.78427">
        <ele>914</ele>
        <time>2018-06-23T08:44:48.000Z</time>
      </trkpt>
      <trkpt lat="47.85091" lon="6.78426">
        <ele>914</ele>
        <time>2018-06-23T08:44:49.000Z</time>
      </trkpt>
      <trkpt lat="47.85091" lon="6.78425">
        <ele>915</ele>
        <time>2018-06-23T08:44:50.000Z</time>
      </trkpt>
      <trkpt lat="47.85091" lon="6.78424">
        <ele>915</ele>
        <time>2018-06-23T08:44:51.000Z</time>
      </trkpt>
      <trkpt lat="47.8509" lon="6.78423">
        <ele>915</ele>
        <time>2018-06-23T08:44:52.000Z</time>
      </trkpt>
      <trkpt lat="47.8509" lon="6.78421">
        <ele>915</ele>
        <time>2018-06-23T08:44:53.000Z</time>
      </trkpt>
      <trkpt lat="47.8509" lon="6.7842">
        <ele>915</ele>
        <time>2018-06-23T08:44:54.000Z</time>
      </trkpt>
      <trkpt lat="47.8509" lon="6.78418">
        <ele>915</ele>
        <time>2018-06-23T08:44:55.000Z</time>
      </trkpt>
      <trkpt lat="47.8509" lon="6.78417">
        <ele>918</ele>
        <time>2018-06-23T08:44:56.000Z</time>
      </trkpt>
      <trkpt lat="47.85091" lon="6.78415">
        <ele>918</ele>
        <time>2018-06-23T08:44:57.000Z</time>
      </trkpt>
      <trkpt lat="47.85091" lon="6.78413">
        <ele>918</ele>
        <time>2018-06-23T08:44:58.000Z</time>
      </trkpt>
      <trkpt lat="47.85091" lon="6.78411">
        <ele>918</ele>
        <time>2018-06-23T08:44:59.000Z</time>
      </trkpt>
      <trkpt lat="47.85091" lon="6.78408">
        <ele>918</ele>
        <time>2018-06-23T08:45:00.000Z</time>
      </trkpt>
      <trkpt lat="47.8509" lon="6.78406">
        <ele>918</ele>
        <time>2018-06-23T08:45:01.000Z</time>
      </trkpt>
      <trkpt lat="47.8509" lon="6.78404">
        <ele>918</ele>
        <time>2018-06-23T08:45:02.000Z</time>
      </trkpt>
      <trkpt lat="47.8509" lon="6.78401">
        <ele>918</ele>
        <time>2018-06-23T08:45:03.000Z</time>
      </trkpt>
      <trkpt lat="47.8509" lon="6.78399">
        <ele>919</ele>
        <time>2018-06-23T08:45:04.000Z</time>
      </trkpt>
      <trkpt lat="47.8509" lon="6.78397">
        <ele>919</ele>
        <time>2018-06-23T08:45:05.000Z</time>
      </trkpt>
      <trkpt lat="47.8509" lon="6.78395">
        <ele>919</ele>
        <time>2018-06-23T08:45:06.000Z</time>
      </trkpt>
      <trkpt lat="47.8509" lon="6.78393">
        <ele>919</ele>
        <time>2018-06-23T08:45:07.000Z</time>
      </trkpt>
      <trkpt lat="47.8509" lon="6.78391">
        <ele>919</ele>
        <time>2018-06-23T08:45:08.000Z</time>
      </trkpt>
      <trkpt lat="47.8509" lon="6.78389">
        <ele>919</ele>
        <time>2018-06-23T08:45:09.000Z</time>
      </trkpt>
      <trkpt lat="47.8509" lon="6.78387">
        <ele>919</ele>
        <time>2018-06-23T08:45:10.000Z</time>
      </trkpt>
      <trkpt lat="47.8509" lon="6.78386">
        <ele>919</ele>
        <time>2018-06-23T08:45:11.000Z</time>
      </trkpt>
      <trkpt lat="47.8509" lon="6.78384">
        <ele>919</ele>
        <time>2018-06-23T08:45:12.000Z</time>
      </trkpt>
      <trkpt lat="47.8509" lon="6.78383">
        <ele>919</ele>
        <time>2018-06-23T08:45:13.000Z</time>
      </trkpt>
      <trkpt lat="47.8509" lon="6.78381">
        <ele>920</ele>
        <time>2018-06-23T08:45:14.000Z</time>
      </trkpt>
      <trkpt lat="47.8509" lon="6.7838">
        <ele>920</ele>
        <time>2018-06-23T08:45:15.000Z</time>
      </trkpt>
      <trkpt lat="47.85091" lon="6.78378">
        <ele>920</ele>
        <time>2018-06-23T08:45:16.000Z</time>
      </trkpt>
      <trkpt lat="47.85091" lon="6.78377">
        <ele>920</ele>
        <time>2018-06-23T08:45:17.000Z</time>
      </trkpt>
      <trkpt lat="47.85091" lon="6.78375">
        <ele>920</ele>
        <time>2018-06-23T08:45:18.000Z</time>
      </trkpt>
      <trkpt lat="47.85092" lon="6.78374">
        <ele>920</ele>
        <time>2018-06-23T08:45:19.000Z</time>
      </trkpt>
      <trkpt lat="47.85092" lon="6.78372">
        <ele>920</ele>
        <time>2018-06-23T08:45:20.000Z</time>
      </trkpt>
      <trkpt lat="47.85092" lon="6.78371">
        <ele>920</ele>
        <time>2018-06-23T08:45:21.000Z</time>
      </trkpt>
      <trkpt lat="47.85092" lon="6.78369">
        <ele>920</ele>
        <time>2018-06-23T08:45:22.000Z</time>
      </trkpt>
      <trkpt lat="47.85092" lon="6.78368">
        <ele>920</ele>
        <time>2018-06-23T08:45:23.000Z</time>
      </trkpt>
      <trkpt lat="47.85092" lon="6.78366">
        <ele>920</ele>
        <time>2018-06-23T08:45:24.000Z</time>
      </trkpt>
      <trkpt lat="47.85092" lon="6.78364">
        <ele>920</ele>
        <time>2018-06-23T08:45:25.000Z</time>
      </trkpt>
      <trkpt lat="47.85093" lon="6.78363">
        <ele>920</ele>
        <time>2018-06-23T08:45:26.000Z</time>
      </trkpt>
      <trkpt lat="47.85093" lon="6.78362">
        <ele>920</ele>
        <time>2018-06-23T08:45:27.000Z</time>
      </trkpt>
      <trkpt lat="47.85093" lon="6.78361">
        <ele>920</ele>
        <time>2018-06-23T08:45:28.000Z</time>
      </trkpt>
      <trkpt lat="47.85093" lon="6.78359">
        <ele>920</ele>
        <time>2018-06-23T08:45:29.000Z</time>
      </trkpt>
      <trkpt lat="47.85094" lon="6.78357">
        <ele>921</ele>
        <time>2018-06-23T08:45:30.000Z</time>
      </trkpt>
      <trkpt lat="47.85094" lon="6.78356">
        <ele>921</ele>
        <time>2018-06-23T08:45:31.000Z</time>
      </trkpt>
      <trkpt lat="47.85094" lon="6.78355">
        <ele>921</ele>
        <time>2018-06-23T08:45:32.000Z</time>
      </trkpt>
      <trkpt lat="47.85095" lon="6.78354">
        <ele>921</ele>
        <time>2018-06-23T08:45:33.000Z</time>
      </trkpt>
      <trkpt lat="47.85095" lon="6.78354">
        <ele>921</ele>
        <time>2018-06-23T08:45:34.000Z</time>
      </trkpt>
      <trkpt lat="47.85095" lon="6.78353">
        <ele>921</ele>
        <time>2018-06-23T08:45:35.000Z</time>
      </trkpt>
      <trkpt lat="47.85095" lon="6.78352">
        <ele>921</ele>
        <time>2018-06-23T08:45:36.000Z</time>
      </trkpt>
      <trkpt lat="47.85095" lon="6.78348">
        <ele>921</ele>
        <time>2018-06-23T08:45:37.000Z</time>
      </trkpt>
      <trkpt lat="47.85095" lon="6.78347">
        <ele>921</ele>
        <time>2018-06-23T08:45:38.000Z</time>
      </trkpt>
      <trkpt lat="47.85094" lon="6.78346">
        <ele>921</ele>
        <time>2018-06-23T08:45:39.000Z</time>
      </trkpt>
      <trkpt lat="47.85094" lon="6.78345">
        <ele>921</ele>
        <time>2018-06-23T08:45:40.000Z</time>
      </trkpt>
      <trkpt lat="47.85094" lon="6.78345">
        <ele>921</ele>
        <time>2018-06-23T08:45:41.000Z</time>
      </trkpt>
      <trkpt lat="47.85094" lon="6.78344">
        <ele>921</ele>
        <time>2018-06-23T08:45:42.000Z</time>
      </trkpt>
      <trkpt lat="47.85094" lon="6.78341">
        <ele>921</ele>
        <time>2018-06-23T08:45:43.000Z</time>
      </trkpt>
      <trkpt lat="47.85094" lon="6.7834">
        <ele>921</ele>
        <time>2018-06-23T08:45:44.000Z</time>
      </trkpt>
      <trkpt lat="47.85094" lon="6.78338">
        <ele>921</ele>
        <time>2018-06-23T08:45:45.000Z</time>
      </trkpt>
      <trkpt lat="47.85093" lon="6.78336">
        <ele>921</ele>
        <time>2018-06-23T08:45:46.000Z</time>
      </trkpt>
      <trkpt lat="47.85093" lon="6.78334">
        <ele>921</ele>
        <time>2018-06-23T08:45:47.000Z</time>
      </trkpt>
      <trkpt lat="47.85093" lon="6.78332">
        <ele>923</ele>
        <time>2018-06-23T08:45:48.000Z</time>
      </trkpt>
      <trkpt lat="47.85093" lon="6.7833">
        <ele>923</ele>
        <time>2018-06-23T08:45:49.000Z</time>
      </trkpt>
      <trkpt lat="47.85093" lon="6.78328">
        <ele>924</ele>
        <time>2018-06-23T08:45:50.000Z</time>
      </trkpt>
      <trkpt lat="47.85093" lon="6.78326">
        <ele>924</ele>
        <time>2018-06-23T08:45:51.000Z</time>
      </trkpt>
      <trkpt lat="47.85093" lon="6.78324">
        <ele>924</ele>
        <time>2018-06-23T08:45:52.000Z</time>
      </trkpt>
      <trkpt lat="47.85093" lon="6.78323">
        <ele>924</ele>
        <time>2018-06-23T08:45:53.000Z</time>
      </trkpt>
      <trkpt lat="47.85093" lon="6.78321">
        <ele>924</ele>
        <time>2018-06-23T08:45:54.000Z</time>
      </trkpt>
      <trkpt lat="47.85092" lon="6.7832">
        <ele>924</ele>
        <time>2018-06-23T08:45:55.000Z</time>
      </trkpt>
      <trkpt lat="47.85091" lon="6.78319">
        <ele>924</ele>
        <time>2018-06-23T08:45:56.000Z</time>
      </trkpt>
      <trkpt lat="47.85091" lon="6.78317">
        <ele>925</ele>
        <time>2018-06-23T08:45:57.000Z</time>
      </trkpt>
      <trkpt lat="47.8509" lon="6.78316">
        <ele>925</ele>
        <time>2018-06-23T08:45:58.000Z</time>
      </trkpt>
      <trkpt lat="47.8509" lon="6.78315">
        <ele>925</ele>
        <time>2018-06-23T08:45:59.000Z</time>
      </trkpt>
      <trkpt lat="47.85089" lon="6.78313">
        <ele>925</ele>
        <time>2018-06-23T08:46:00.000Z</time>
      </trkpt>
      <trkpt lat="47.85088" lon="6.78312">
        <ele>925</ele>
        <time>2018-06-23T08:46:01.000Z</time>
      </trkpt>
      <trkpt lat="47.85088" lon="6.7831">
        <ele>925</ele>
        <time>2018-06-23T08:46:02.000Z</time>
      </trkpt>
      <trkpt lat="47.85087" lon="6.78309">
        <ele>925</ele>
        <time>2018-06-23T08:46:03.000Z</time>
      </trkpt>
      <trkpt lat="47.85087" lon="6.78307">
        <ele>926</ele>
        <time>2018-06-23T08:46:04.000Z</time>
      </trkpt>
      <trkpt lat="47.85086" lon="6.78305">
        <ele>926</ele>
        <time>2018-06-23T08:46:05.000Z</time>
      </trkpt>
      <trkpt lat="47.85085" lon="6.78303">
        <ele>926</ele>
        <time>2018-06-23T08:46:06.000Z</time>
      </trkpt>
      <trkpt lat="47.85084" lon="6.78302">
        <ele>926</ele>
        <time>2018-06-23T08:46:07.000Z</time>
      </trkpt>
      <trkpt lat="47.85083" lon="6.78301">
        <ele>919</ele>
        <time>2018-06-23T08:46:08.000Z</time>
      </trkpt>
      <trkpt lat="47.85083" lon="6.78299">
        <ele>919</ele>
        <time>2018-06-23T08:46:09.000Z</time>
      </trkpt>
      <trkpt lat="47.85082" lon="6.78298">
        <ele>919</ele>
        <time>2018-06-23T08:46:10.000Z</time>
      </trkpt>
      <trkpt lat="47.85082" lon="6.78297">
        <ele>919</ele>
        <time>2018-06-23T08:46:11.000Z</time>
      </trkpt>
      <trkpt lat="47.85081" lon="6.78295">
        <ele>919</ele>
        <time>2018-06-23T08:46:12.000Z</time>
      </trkpt>
      <trkpt lat="47.8508" lon="6.78294">
        <ele>919</ele>
        <time>2018-06-23T08:46:13.000Z</time>
      </trkpt>
      <trkpt lat="47.85078" lon="6.78293">
        <ele>919</ele>
        <time>2018-06-23T08:46:14.000Z</time>
      </trkpt>
      <trkpt lat="47.85078" lon="6.78291">
        <ele>919</ele>
        <time>2018-06-23T08:46:15.000Z</time>
      </trkpt>
      <trkpt lat="47.85077" lon="6.7829">
        <ele>919</ele>
        <time>2018-06-23T08:46:16.000Z</time>
      </trkpt>
      <trkpt lat="47.85076" lon="6.78288">
        <ele>919</ele>
        <time>2018-06-23T08:46:17.000Z</time>
      </trkpt>
      <trkpt lat="47.85076" lon="6.78287">
        <ele>919</ele>
        <time>2018-06-23T08:46:18.000Z</time>
      </trkpt>
      <trkpt lat="47.85075" lon="6.78286">
        <ele>919</ele>
        <time>2018-06-23T08:46:19.000Z</time>
      </trkpt>
      <trkpt lat="47.85075" lon="6.78285">
        <ele>920</ele>
        <time>2018-06-23T08:46:20.000Z</time>
      </trkpt>
      <trkpt lat="47.85074" lon="6.78284">
        <ele>920</ele>
        <time>2018-06-23T08:46:21.000Z</time>
      </trkpt>
      <trkpt lat="47.85074" lon="6.78283">
        <ele>920</ele>
        <time>2018-06-23T08:46:22.000Z</time>
      </trkpt>
      <trkpt lat="47.85073" lon="6.78281">
        <ele>920</ele>
        <time>2018-06-23T08:46:23.000Z</time>
      </trkpt>
      <trkpt lat="47.85072" lon="6.7828">
        <ele>920</ele>
        <time>2018-06-23T08:46:24.000Z</time>
      </trkpt>
      <trkpt lat="47.85072" lon="6.78279">
        <ele>920</ele>
        <time>2018-06-23T08:46:25.000Z</time>
      </trkpt>
      <trkpt lat="47.85071" lon="6.78278">
        <ele>920</ele>
        <time>2018-06-23T08:46:26.000Z</time>
      </trkpt>
      <trkpt lat="47.8507" lon="6.78277">
        <ele>920</ele>
        <time>2018-06-23T08:46:27.000Z</time>
      </trkpt>
      <trkpt lat="47.85069" lon="6.78276">
        <ele>920</ele>
        <time>2018-06-23T08:46:28.000Z</time>
      </trkpt>
      <trkpt lat="47.85068" lon="6.78275">
        <ele>920</ele>
        <time>2018-06-23T08:46:29.000Z</time>
      </trkpt>
      <trkpt lat="47.85067" lon="6.78274">
        <ele>920</ele>
        <time>2018-06-23T08:46:30.000Z</time>
      </trkpt>
      <trkpt lat="47.85067" lon="6.78273">
        <ele>920</ele>
        <time>2018-06-23T08:46:31.000Z</time>
      </trkpt>
      <trkpt lat="47.85066" lon="6.78272">
        <ele>920</ele>
        <time>2018-06-23T08:46:32.000Z</time>
      </trkpt>
      <trkpt lat="47.85066" lon="6.78271">
        <ele>920</ele>
        <time>2018-06-23T08:46:33.000Z</time>
      </trkpt>
      <trkpt lat="47.85065" lon="6.7827">
        <ele>920</ele>
        <time>2018-06-23T08:46:34.000Z</time>
      </trkpt>
      <trkpt lat="47.85065" lon="6.78269">
        <ele>920</ele>
        <time>2018-06-23T08:46:35.000Z</time>
      </trkpt>
      <trkpt lat="47.85064" lon="6.78268">
        <ele>920</ele>
        <time>2018-06-23T08:46:36.000Z</time>
      </trkpt>
      <trkpt lat="47.85063" lon="6.78266">
        <ele>920</ele>
        <time>2018-06-23T08:46:37.000Z</time>
      </trkpt>
      <trkpt lat="47.85063" lon="6.78265">
        <ele>920</ele>
        <time>2018-06-23T08:46:38.000Z</time>
      </trkpt>
      <trkpt lat="47.85062" lon="6.78264">
        <ele>920</ele>
        <time>2018-06-23T08:46:39.000Z</time>
      </trkpt>
      <trkpt lat="47.85062" lon="6.78263">
        <ele>920</ele>
        <time>2018-06-23T08:46:40.000Z</time>
      </trkpt>
      <trkpt lat="47.85061" lon="6.78262">
        <ele>920</ele>
        <time>2018-06-23T08:46:41.000Z</time>
      </trkpt>
      <trkpt lat="47.85061" lon="6.78262">
        <ele>920</ele>
        <time>2018-06-23T08:46:42.000Z</time>
      </trkpt>
      <trkpt lat="47.8506" lon="6.78261">
        <ele>920</ele>
        <time>2018-06-23T08:46:43.000Z</time>
      </trkpt>
      <trkpt lat="47.8506" lon="6.7826">
        <ele>920</ele>
        <time>2018-06-23T08:46:44.000Z</time>
      </trkpt>
      <trkpt lat="47.85059" lon="6.78259">
        <ele>920</ele>
        <time>2018-06-23T08:46:45.000Z</time>
      </trkpt>
      <trkpt lat="47.85059" lon="6.78259">
        <ele>920</ele>
        <time>2018-06-23T08:46:46.000Z</time>
      </trkpt>
      <trkpt lat="47.85058" lon="6.78258">
        <ele>920</ele>
        <time>2018-06-23T08:46:47.000Z</time>
      </trkpt>
      <trkpt lat="47.85058" lon="6.78257">
        <ele>920</ele>
        <time>2018-06-23T08:46:48.000Z</time>
      </trkpt>
      <trkpt lat="47.85058" lon="6.78257">
        <ele>920</ele>
        <time>2018-06-23T08:46:49.000Z</time>
      </trkpt>
      <trkpt lat="47.85058" lon="6.7825">
        <ele>924</ele>
        <time>2018-06-23T08:46:50.000Z</time>
      </trkpt>
      <trkpt lat="47.85058" lon="6.78249">
        <ele>924</ele>
        <time>2018-06-23T08:46:51.000Z</time>
      </trkpt>
      <trkpt lat="47.85057" lon="6.78248">
        <ele>924</ele>
        <time>2018-06-23T08:46:52.000Z</time>
      </trkpt>
      <trkpt lat="47.85056" lon="6.78247">
        <ele>923</ele>
        <time>2018-06-23T08:46:53.000Z</time>
      </trkpt>
      <trkpt lat="47.85056" lon="6.78246">
        <ele>923</ele>
        <time>2018-06-23T08:46:54.000Z</time>
      </trkpt>
      <trkpt lat="47.85055" lon="6.78245">
        <ele>923</ele>
        <time>2018-06-23T08:46:55.000Z</time>
      </trkpt>
      <trkpt lat="47.85054" lon="6.78244">
        <ele>923</ele>
        <time>2018-06-23T08:46:56.000Z</time>
      </trkpt>
      <trkpt lat="47.85054" lon="6.78243">
        <ele>923</ele>
        <time>2018-06-23T08:46:57.000Z</time>
      </trkpt>
      <trkpt lat="47.85053" lon="6.78241">
        <ele>923</ele>
        <time>2018-06-23T08:46:58.000Z</time>
      </trkpt>
      <trkpt lat="47.85052" lon="6.7824">
        <ele>923</ele>
        <time>2018-06-23T08:46:59.000Z</time>
      </trkpt>
      <trkpt lat="47.85051" lon="6.78238">
        <ele>923</ele>
        <time>2018-06-23T08:47:00.000Z</time>
      </trkpt>
      <trkpt lat="47.8505" lon="6.78237">
        <ele>922</ele>
        <time>2018-06-23T08:47:01.000Z</time>
      </trkpt>
      <trkpt lat="47.8505" lon="6.78235">
        <ele>922</ele>
        <time>2018-06-23T08:47:02.000Z</time>
      </trkpt>
      <trkpt lat="47.85049" lon="6.78234">
        <ele>922</ele>
        <time>2018-06-23T08:47:03.000Z</time>
      </trkpt>
      <trkpt lat="47.85049" lon="6.78232">
        <ele>922</ele>
        <time>2018-06-23T08:47:04.000Z</time>
      </trkpt>
      <trkpt lat="47.85049" lon="6.78232">
        <ele>922</ele>
        <time>2018-06-23T08:47:05.000Z</time>
      </trkpt>
      <trkpt lat="47.85049" lon="6.78231">
        <ele>922</ele>
        <time>2018-06-23T08:47:06.000Z</time>
      </trkpt>
      <trkpt lat="47.85049" lon="6.78231">
        <ele>922</ele>
        <time>2018-06-23T08:47:07.000Z</time>
      </trkpt>
      <trkpt lat="47.8505" lon="6.7823">
        <ele>922</ele>
        <time>2018-06-23T08:47:08.000Z</time>
      </trkpt>
      <trkpt lat="47.8505" lon="6.78227">
        <ele>923</ele>
        <time>2018-06-23T08:47:09.000Z</time>
      </trkpt>
      <trkpt lat="47.8505" lon="6.78225">
        <ele>923</ele>
        <time>2018-06-23T08:47:10.000Z</time>
      </trkpt>
      <trkpt lat="47.85051" lon="6.78224">
        <ele>923</ele>
        <time>2018-06-23T08:47:11.000Z</time>
      </trkpt>
      <trkpt lat="47.85051" lon="6.78222">
        <ele>923</ele>
        <time>2018-06-23T08:47:12.000Z</time>
      </trkpt>
      <trkpt lat="47.85051" lon="6.7822">
        <ele>923</ele>
        <time>2018-06-23T08:47:13.000Z</time>
      </trkpt>
      <trkpt lat="47.85052" lon="6.78219">
        <ele>923</ele>
        <time>2018-06-23T08:47:14.000Z</time>
      </trkpt>
      <trkpt lat="47.85052" lon="6.78218">
        <ele>923</ele>
        <time>2018-06-23T08:47:15.000Z</time>
      </trkpt>
      <trkpt lat="47.85052" lon="6.78216">
        <ele>923</ele>
        <time>2018-06-23T08:47:16.000Z</time>
      </trkpt>
      <trkpt lat="47.85052" lon="6.78215">
        <ele>923</ele>
        <time>2018-06-23T08:47:17.000Z</time>
      </trkpt>
      <trkpt lat="47.85053" lon="6.78214">
        <ele>923</ele>
        <time>2018-06-23T08:47:18.000Z</time>
      </trkpt>
      <trkpt lat="47.85053" lon="6.78213">
        <ele>923</ele>
        <time>2018-06-23T08:47:19.000Z</time>
      </trkpt>
      <trkpt lat="47.85053" lon="6.78212">
        <ele>923</ele>
        <time>2018-06-23T08:47:20.000Z</time>
      </trkpt>
      <trkpt lat="47.85053" lon="6.78211">
        <ele>923</ele>
        <time>2018-06-23T08:47:21.000Z</time>
      </trkpt>
      <trkpt lat="47.85053" lon="6.7821">
        <ele>923</ele>
        <time>2018-06-23T08:47:22.000Z</time>
      </trkpt>
      <trkpt lat="47.85054" lon="6.78208">
        <ele>923</ele>
        <time>2018-06-23T08:47:23.000Z</time>
      </trkpt>
      <trkpt lat="47.85054" lon="6.78207">
        <ele>924</ele>
        <time>2018-06-23T08:47:24.000Z</time>
      </trkpt>
      <trkpt lat="47.85054" lon="6.78206">
        <ele>924</ele>
        <time>2018-06-23T08:47:25.000Z</time>
      </trkpt>
      <trkpt lat="47.85055" lon="6.78205">
        <ele>924</ele>
        <time>2018-06-23T08:47:26.000Z</time>
      </trkpt>
      <trkpt lat="47.85055" lon="6.78203">
        <ele>924</ele>
        <time>2018-06-23T08:47:27.000Z</time>
      </trkpt>
      <trkpt lat="47.85055" lon="6.78202">
        <ele>924</ele>
        <time>2018-06-23T08:47:28.000Z</time>
      </trkpt>
      <trkpt lat="47.85055" lon="6.78201">
        <ele>924</ele>
        <time>2018-06-23T08:47:29.000Z</time>
      </trkpt>
      <trkpt lat="47.85055" lon="6.782">
        <ele>924</ele>
        <time>2018-06-23T08:47:30.000Z</time>
      </trkpt>
      <trkpt lat="47.85055" lon="6.78199">
        <ele>924</ele>
        <time>2018-06-23T08:47:31.000Z</time>
      </trkpt>
      <trkpt lat="47.85056" lon="6.78198">
        <ele>924</ele>
        <time>2018-06-23T08:47:32.000Z</time>
      </trkpt>
      <trkpt lat="47.85056" lon="6.78197">
        <ele>924</ele>
        <time>2018-06-23T08:47:33.000Z</time>
      </trkpt>
      <trkpt lat="47.85056" lon="6.78196">
        <ele>925</ele>
        <time>2018-06-23T08:47:34.000Z</time>
      </trkpt>
      <trkpt lat="47.85057" lon="6.78195">
        <ele>925</ele>
        <time>2018-06-23T08:47:35.000Z</time>
      </trkpt>
      <trkpt lat="47.85057" lon="6.78194">
        <ele>925</ele>
        <time>2018-06-23T08:47:36.000Z</time>
      </trkpt>
      <trkpt lat="47.85058" lon="6.78192">
        <ele>925</ele>
        <time>2018-06-23T08:47:37.000Z</time>
      </trkpt>
      <trkpt lat="47.85058" lon="6.78191">
        <ele>925</ele>
        <time>2018-06-23T08:47:38.000Z</time>
      </trkpt>
      <trkpt lat="47.85059" lon="6.7819">
        <ele>925</ele>
        <time>2018-06-23T08:47:39.000Z</time>
      </trkpt>
      <trkpt lat="47.8506" lon="6.78189">
        <ele>926</ele>
        <time>2018-06-23T08:47:40.000Z</time>
      </trkpt>
      <trkpt lat="47.8506" lon="6.78187">
        <ele>926</ele>
        <time>2018-06-23T08:47:41.000Z</time>
      </trkpt>
      <trkpt lat="47.85061" lon="6.78186">
        <ele>926</ele>
        <time>2018-06-23T08:47:42.000Z</time>
      </trkpt>
      <trkpt lat="47.85062" lon="6.78185">
        <ele>926</ele>
        <time>2018-06-23T08:47:43.000Z</time>
      </trkpt>
      <trkpt lat="47.85062" lon="6.78184">
        <ele>927</ele>
        <time>2018-06-23T08:47:44.000Z</time>
      </trkpt>
      <trkpt lat="47.85063" lon="6.78183">
        <ele>927</ele>
        <time>2018-06-23T08:47:45.000Z</time>
      </trkpt>
      <trkpt lat="47.85063" lon="6.78182">
        <ele>927</ele>
        <time>2018-06-23T08:47:46.000Z</time>
      </trkpt>
      <trkpt lat="47.85063" lon="6.78181">
        <ele>927</ele>
        <time>2018-06-23T08:47:47.000Z</time>
      </trkpt>
      <trkpt lat="47.85063" lon="6.7818">
        <ele>927</ele>
        <time>2018-06-23T08:47:48.000Z</time>
      </trkpt>
      <trkpt lat="47.85064" lon="6.78176">
        <ele>928</ele>
        <time>2018-06-23T08:47:49.000Z</time>
      </trkpt>
      <trkpt lat="47.85064" lon="6.78174">
        <ele>928</ele>
        <time>2018-06-23T08:47:50.000Z</time>
      </trkpt>
      <trkpt lat="47.85064" lon="6.78173">
        <ele>928</ele>
        <time>2018-06-23T08:47:51.000Z</time>
      </trkpt>
      <trkpt lat="47.85064" lon="6.78172">
        <ele>928</ele>
        <time>2018-06-23T08:47:52.000Z</time>
      </trkpt>
      <trkpt lat="47.85064" lon="6.78171">
        <ele>928</ele>
        <time>2018-06-23T08:47:53.000Z</time>
      </trkpt>
      <trkpt lat="47.85063" lon="6.7817">
        <ele>928</ele>
        <time>2018-06-23T08:47:54.000Z</time>
      </trkpt>
      <trkpt lat="47.85063" lon="6.78169">
        <ele>928</ele>
        <time>2018-06-23T08:47:55.000Z</time>
      </trkpt>
      <trkpt lat="47.85062" lon="6.78168">
        <ele>928</ele>
        <time>2018-06-23T08:47:56.000Z</time>
      </trkpt>
      <trkpt lat="47.85062" lon="6.78166">
        <ele>931</ele>
        <time>2018-06-23T08:47:57.000Z</time>
      </trkpt>
      <trkpt lat="47.85062" lon="6.78165">
        <ele>931</ele>
        <time>2018-06-23T08:47:58.000Z</time>
      </trkpt>
      <trkpt lat="47.85061" lon="6.78164">
        <ele>931</ele>
        <time>2018-06-23T08:47:59.000Z</time>
      </trkpt>
      <trkpt lat="47.85061" lon="6.78163">
        <ele>930</ele>
        <time>2018-06-23T08:48:00.000Z</time>
      </trkpt>
      <trkpt lat="47.8506" lon="6.78162">
        <ele>930</ele>
        <time>2018-06-23T08:48:01.000Z</time>
      </trkpt>
      <trkpt lat="47.8506" lon="6.78161">
        <ele>930</ele>
        <time>2018-06-23T08:48:02.000Z</time>
      </trkpt>
      <trkpt lat="47.85059" lon="6.7816">
        <ele>930</ele>
        <time>2018-06-23T08:48:03.000Z</time>
      </trkpt>
      <trkpt lat="47.85059" lon="6.7816">
        <ele>930</ele>
        <time>2018-06-23T08:48:04.000Z</time>
      </trkpt>
      <trkpt lat="47.85058" lon="6.78159">
        <ele>930</ele>
        <time>2018-06-23T08:48:05.000Z</time>
      </trkpt>
      <trkpt lat="47.85058" lon="6.78158">
        <ele>930</ele>
        <time>2018-06-23T08:48:06.000Z</time>
      </trkpt>
      <trkpt lat="47.85057" lon="6.78157">
        <ele>930</ele>
        <time>2018-06-23T08:48:07.000Z</time>
      </trkpt>
      <trkpt lat="47.85056" lon="6.78156">
        <ele>930</ele>
        <time>2018-06-23T08:48:08.000Z</time>
      </trkpt>
      <trkpt lat="47.85055" lon="6.78154">
        <ele>929</ele>
        <time>2018-06-23T08:48:09.000Z</time>
      </trkpt>
      <trkpt lat="47.85054" lon="6.78153">
        <ele>929</ele>
        <time>2018-06-23T08:48:10.000Z</time>
      </trkpt>
      <trkpt lat="47.85053" lon="6.78152">
        <ele>929</ele>
        <time>2018-06-23T08:48:11.000Z</time>
      </trkpt>
      <trkpt lat="47.85053" lon="6.7815">
        <ele>929</ele>
        <time>2018-06-23T08:48:12.000Z</time>
      </trkpt>
      <trkpt lat="47.85052" lon="6.78149">
        <ele>929</ele>
        <time>2018-06-23T08:48:13.000Z</time>
      </trkpt>
      <trkpt lat="47.85052" lon="6.78147">
        <ele>929</ele>
        <time>2018-06-23T08:48:14.000Z</time>
      </trkpt>
      <trkpt lat="47.85051" lon="6.78146">
        <ele>929</ele>
        <time>2018-06-23T08:48:15.000Z</time>
      </trkpt>
      <trkpt lat="47.85051" lon="6.78144">
        <ele>929</ele>
        <time>2018-06-23T08:48:16.000Z</time>
      </trkpt>
      <trkpt lat="47.85051" lon="6.78142">
        <ele>929</ele>
        <time>2018-06-23T08:48:17.000Z</time>
      </trkpt>
      <trkpt lat="47.85051" lon="6.78141">
        <ele>929</ele>
        <time>2018-06-23T08:48:18.000Z</time>
      </trkpt>
      <trkpt lat="47.8505" lon="6.78139">
        <ele>929</ele>
        <time>2018-06-23T08:48:19.000Z</time>
      </trkpt>
      <trkpt lat="47.8505" lon="6.78137">
        <ele>929</ele>
        <time>2018-06-23T08:48:20.000Z</time>
      </trkpt>
      <trkpt lat="47.8505" lon="6.78135">
        <ele>929</ele>
        <time>2018-06-23T08:48:21.000Z</time>
      </trkpt>
      <trkpt lat="47.85049" lon="6.78134">
        <ele>929</ele>
        <time>2018-06-23T08:48:22.000Z</time>
      </trkpt>
      <trkpt lat="47.85049" lon="6.78132">
        <ele>929</ele>
        <time>2018-06-23T08:48:23.000Z</time>
      </trkpt>
      <trkpt lat="47.85048" lon="6.78131">
        <ele>929</ele>
        <time>2018-06-23T08:48:24.000Z</time>
      </trkpt>
      <trkpt lat="47.85048" lon="6.78129">
        <ele>929</ele>
        <time>2018-06-23T08:48:25.000Z</time>
      </trkpt>
      <trkpt lat="47.85047" lon="6.78128">
        <ele>929</ele>
        <time>2018-06-23T08:48:26.000Z</time>
      </trkpt>
      <trkpt lat="47.85047" lon="6.78126">
        <ele>929</ele>
        <time>2018-06-23T08:48:27.000Z</time>
      </trkpt>
      <trkpt lat="47.85047" lon="6.78124">
        <ele>929</ele>
        <time>2018-06-23T08:48:28.000Z</time>
      </trkpt>
      <trkpt lat="47.85046" lon="6.78122">
        <ele>929</ele>
        <time>2018-06-23T08:48:29.000Z</time>
      </trkpt>
      <trkpt lat="47.85046" lon="6.78121">
        <ele>929</ele>
        <time>2018-06-23T08:48:30.000Z</time>
      </trkpt>
      <trkpt lat="47.85046" lon="6.78119">
        <ele>929</ele>
        <time>2018-06-23T08:48:31.000Z</time>
      </trkpt>
      <trkpt lat="47.85045" lon="6.78117">
        <ele>929</ele>
        <time>2018-06-23T08:48:32.000Z</time>
      </trkpt>
      <trkpt lat="47.85045" lon="6.78115">
        <ele>929</ele>
        <time>2018-06-23T08:48:33.000Z</time>
      </trkpt>
      <trkpt lat="47.85044" lon="6.78114">
        <ele>929</ele>
        <time>2018-06-23T08:48:34.000Z</time>
      </trkpt>
      <trkpt lat="47.85044" lon="6.78112">
        <ele>929</ele>
        <time>2018-06-23T08:48:35.000Z</time>
      </trkpt>
      <trkpt lat="47.85043" lon="6.78111">
        <ele>929</ele>
        <time>2018-06-23T08:48:36.000Z</time>
      </trkpt>
      <trkpt lat="47.85043" lon="6.78109">
        <ele>929</ele>
        <time>2018-06-23T08:48:37.000Z</time>
      </trkpt>
      <trkpt lat="47.85043" lon="6.78107">
        <ele>929</ele>
        <time>2018-06-23T08:48:38.000Z</time>
      </trkpt>
      <trkpt lat="47.85043" lon="6.78105">
        <ele>929</ele>
        <time>2018-06-23T08:48:39.000Z</time>
      </trkpt>
      <trkpt lat="47.85042" lon="6.78103">
        <ele>929</ele>
        <time>2018-06-23T08:48:40.000Z</time>
      </trkpt>
      <trkpt lat="47.85042" lon="6.78101">
        <ele>929</ele>
        <time>2018-06-23T08:48:41.000Z</time>
      </trkpt>
      <trkpt lat="47.85042" lon="6.78099">
        <ele>929</ele>
        <time>2018-06-23T08:48:42.000Z</time>
      </trkpt>
      <trkpt lat="47.85042" lon="6.78098">
        <ele>929</ele>
        <time>2018-06-23T08:48:43.000Z</time>
      </trkpt>
      <trkpt lat="47.85041" lon="6.78096">
        <ele>929</ele>
        <time>2018-06-23T08:48:44.000Z</time>
      </trkpt>
      <trkpt lat="47.85041" lon="6.78095">
        <ele>929</ele>
        <time>2018-06-23T08:48:45.000Z</time>
      </trkpt>
      <trkpt lat="47.8504" lon="6.78093">
        <ele>929</ele>
        <time>2018-06-23T08:48:46.000Z</time>
      </trkpt>
      <trkpt lat="47.8504" lon="6.78092">
        <ele>929</ele>
        <time>2018-06-23T08:48:47.000Z</time>
      </trkpt>
      <trkpt lat="47.8504" lon="6.78091">
        <ele>929</ele>
        <time>2018-06-23T08:48:48.000Z</time>
      </trkpt>
      <trkpt lat="47.8504" lon="6.7809">
        <ele>929</ele>
        <time>2018-06-23T08:48:49.000Z</time>
      </trkpt>
      <trkpt lat="47.8504" lon="6.7809">
        <ele>929</ele>
        <time>2018-06-23T08:48:50.000Z</time>
      </trkpt>
      <trkpt lat="47.8504" lon="6.78089">
        <ele>929</ele>
        <time>2018-06-23T08:48:51.000Z</time>
      </trkpt>
      <trkpt lat="47.85039" lon="6.78086">
        <ele>929</ele>
        <time>2018-06-23T08:48:52.000Z</time>
      </trkpt>
      <trkpt lat="47.85039" lon="6.78085">
        <ele>929</ele>
        <time>2018-06-23T08:48:53.000Z</time>
      </trkpt>
      <trkpt lat="47.85038" lon="6.78083">
        <ele>931</ele>
        <time>2018-06-23T08:48:54.000Z</time>
      </trkpt>
      <trkpt lat="47.85038" lon="6.78082">
        <ele>931</ele>
        <time>2018-06-23T08:48:55.000Z</time>
      </trkpt>
      <trkpt lat="47.85038" lon="6.7808">
        <ele>931</ele>
        <time>2018-06-23T08:48:56.000Z</time>
      </trkpt>
      <trkpt lat="47.85037" lon="6.78078">
        <ele>931</ele>
        <time>2018-06-23T08:48:57.000Z</time>
      </trkpt>
      <trkpt lat="47.85037" lon="6.78077">
        <ele>931</ele>
        <time>2018-06-23T08:48:58.000Z</time>
      </trkpt>
      <trkpt lat="47.85036" lon="6.78075">
        <ele>931</ele>
        <time>2018-06-23T08:48:59.000Z</time>
      </trkpt>
      <trkpt lat="47.85036" lon="6.78074">
        <ele>931</ele>
        <time>2018-06-23T08:49:00.000Z</time>
      </trkpt>
      <trkpt lat="47.85036" lon="6.78072">
        <ele>931</ele>
        <time>2018-06-23T08:49:01.000Z</time>
      </trkpt>
      <trkpt lat="47.85035" lon="6.78071">
        <ele>931</ele>
        <time>2018-06-23T08:49:02.000Z</time>
      </trkpt>
      <trkpt lat="47.85035" lon="6.78069">
        <ele>931</ele>
        <time>2018-06-23T08:49:03.000Z</time>
      </trkpt>
      <trkpt lat="47.85035" lon="6.78068">
        <ele>930</ele>
        <time>2018-06-23T08:49:04.000Z</time>
      </trkpt>
      <trkpt lat="47.85035" lon="6.78066">
        <ele>931</ele>
        <time>2018-06-23T08:49:05.000Z</time>
      </trkpt>
      <trkpt lat="47.85035" lon="6.78064">
        <ele>931</ele>
        <time>2018-06-23T08:49:06.000Z</time>
      </trkpt>
      <trkpt lat="47.85035" lon="6.78063">
        <ele>931</ele>
        <time>2018-06-23T08:49:07.000Z</time>
      </trkpt>
      <trkpt lat="47.85035" lon="6.78061">
        <ele>931</ele>
        <time>2018-06-23T08:49:08.000Z</time>
      </trkpt>
      <trkpt lat="47.85035" lon="6.78059">
        <ele>931</ele>
        <time>2018-06-23T08:49:09.000Z</time>
      </trkpt>
      <trkpt lat="47.85035" lon="6.78057">
        <ele>931</ele>
        <time>2018-06-23T08:49:10.000Z</time>
      </trkpt>
      <trkpt lat="47.85034" lon="6.78056">
        <ele>931</ele>
        <time>2018-06-23T08:49:11.000Z</time>
      </trkpt>
      <trkpt lat="47.85034" lon="6.78055">
        <ele>931</ele>
        <time>2018-06-23T08:49:12.000Z</time>
      </trkpt>
      <trkpt lat="47.85034" lon="6.78054">
        <ele>931</ele>
        <time>2018-06-23T08:49:13.000Z</time>
      </trkpt>
      <trkpt lat="47.85033" lon="6.78052">
        <ele>931</ele>
        <time>2018-06-23T08:49:14.000Z</time>
      </trkpt>
      <trkpt lat="47.85033" lon="6.7805">
        <ele>931</ele>
        <time>2018-06-23T08:49:15.000Z</time>
      </trkpt>
      <trkpt lat="47.85032" lon="6.78049">
        <ele>931</ele>
        <time>2018-06-23T08:49:16.000Z</time>
      </trkpt>
      <trkpt lat="47.85032" lon="6.78048">
        <ele>931</ele>
        <time>2018-06-23T08:49:17.000Z</time>
      </trkpt>
      <trkpt lat="47.85032" lon="6.78047">
        <ele>931</ele>
        <time>2018-06-23T08:49:18.000Z</time>
      </trkpt>
      <trkpt lat="47.85031" lon="6.78045">
        <ele>931</ele>
        <time>2018-06-23T08:49:19.000Z</time>
      </trkpt>
      <trkpt lat="47.85031" lon="6.78044">
        <ele>931</ele>
        <time>2018-06-23T08:49:20.000Z</time>
      </trkpt>
      <trkpt lat="47.85031" lon="6.78042">
        <ele>931</ele>
        <time>2018-06-23T08:49:21.000Z</time>
      </trkpt>
      <trkpt lat="47.8503" lon="6.7804">
        <ele>931</ele>
        <time>2018-06-23T08:49:22.000Z</time>
      </trkpt>
      <trkpt lat="47.8503" lon="6.78039">
        <ele>931</ele>
        <time>2018-06-23T08:49:23.000Z</time>
      </trkpt>
      <trkpt lat="47.85029" lon="6.78037">
        <ele>931</ele>
        <time>2018-06-23T08:49:24.000Z</time>
      </trkpt>
      <trkpt lat="47.85029" lon="6.78035">
        <ele>931</ele>
        <time>2018-06-23T08:49:25.000Z</time>
      </trkpt>
      <trkpt lat="47.85028" lon="6.78032">
        <ele>931</ele>
        <time>2018-06-23T08:49:26.000Z</time>
      </trkpt>
      <trkpt lat="47.85028" lon="6.7803">
        <ele>931</ele>
        <time>2018-06-23T08:49:27.000Z</time>
      </trkpt>
      <trkpt lat="47.85028" lon="6.78028">
        <ele>931</ele>
        <time>2018-06-23T08:49:28.000Z</time>
      </trkpt>
      <trkpt lat="47.85028" lon="6.78027">
        <ele>931</ele>
        <time>2018-06-23T08:49:29.000Z</time>
      </trkpt>
      <trkpt lat="47.85027" lon="6.78025">
        <ele>930</ele>
        <time>2018-06-23T08:49:30.000Z</time>
      </trkpt>
      <trkpt lat="47.85027" lon="6.78024">
        <ele>930</ele>
        <time>2018-06-23T08:49:31.000Z</time>
      </trkpt>
      <trkpt lat="47.85027" lon="6.78022">
        <ele>930</ele>
        <time>2018-06-23T08:49:32.000Z</time>
      </trkpt>
      <trkpt lat="47.85027" lon="6.78021">
        <ele>930</ele>
        <time>2018-06-23T08:49:33.000Z</time>
      </trkpt>
      <trkpt lat="47.85027" lon="6.78019">
        <ele>930</ele>
        <time>2018-06-23T08:49:34.000Z</time>
      </trkpt>
      <trkpt lat="47.85027" lon="6.78018">
        <ele>930</ele>
        <time>2018-06-23T08:49:35.000Z</time>
      </trkpt>
      <trkpt lat="47.85027" lon="6.78016">
        <ele>930</ele>
        <time>2018-06-23T08:49:36.000Z</time>
      </trkpt>
      <trkpt lat="47.85027" lon="6.78015">
        <ele>930</ele>
        <time>2018-06-23T08:49:37.000Z</time>
      </trkpt>
      <trkpt lat="47.85026" lon="6.78013">
        <ele>930</ele>
        <time>2018-06-23T08:49:38.000Z</time>
      </trkpt>
      <trkpt lat="47.85025" lon="6.78012">
        <ele>930</ele>
        <time>2018-06-23T08:49:39.000Z</time>
      </trkpt>
      <trkpt lat="47.85025" lon="6.7801">
        <ele>930</ele>
        <time>2018-06-23T08:49:40.000Z</time>
      </trkpt>
      <trkpt lat="47.85024" lon="6.78008">
        <ele>930</ele>
        <time>2018-06-23T08:49:41.000Z</time>
      </trkpt>
      <trkpt lat="47.85023" lon="6.78007">
        <ele>930</ele>
        <time>2018-06-23T08:49:42.000Z</time>
      </trkpt>
      <trkpt lat="47.85023" lon="6.78006">
        <ele>930</ele>
        <time>2018-06-23T08:49:43.000Z</time>
      </trkpt>
      <trkpt lat="47.85023" lon="6.78004">
        <ele>930</ele>
        <time>2018-06-23T08:49:44.000Z</time>
      </trkpt>
      <trkpt lat="47.85022" lon="6.78002">
        <ele>930</ele>
        <time>2018-06-23T08:49:45.000Z</time>
      </trkpt>
      <trkpt lat="47.85022" lon="6.78001">
        <ele>930</ele>
        <time>2018-06-23T08:49:46.000Z</time>
      </trkpt>
      <trkpt lat="47.85021" lon="6.78">
        <ele>930</ele>
        <time>2018-06-23T08:49:47.000Z</time>
      </trkpt>
      <trkpt lat="47.85021" lon="6.77999">
        <ele>930</ele>
        <time>2018-06-23T08:49:48.000Z</time>
      </trkpt>
      <trkpt lat="47.8502" lon="6.77998">
        <ele>930</ele>
        <time>2018-06-23T08:49:49.000Z</time>
      </trkpt>
      <trkpt lat="47.8502" lon="6.77997">
        <ele>930</ele>
        <time>2018-06-23T08:49:50.000Z</time>
      </trkpt>
      <trkpt lat="47.8502" lon="6.77996">
        <ele>930</ele>
        <time>2018-06-23T08:49:51.000Z</time>
      </trkpt>
      <trkpt lat="47.85019" lon="6.77996">
        <ele>930</ele>
        <time>2018-06-23T08:49:52.000Z</time>
      </trkpt>
      <trkpt lat="47.85019" lon="6.77995">
        <ele>930</ele>
        <time>2018-06-23T08:49:53.000Z</time>
      </trkpt>
      <trkpt lat="47.8502" lon="6.77995">
        <ele>930</ele>
        <time>2018-06-23T08:49:54.000Z</time>
      </trkpt>
      <trkpt lat="47.8502" lon="6.77994">
        <ele>930</ele>
        <time>2018-06-23T08:49:55.000Z</time>
      </trkpt>
      <trkpt lat="47.8502" lon="6.77993">
        <ele>930</ele>
        <time>2018-06-23T08:49:56.000Z</time>
      </trkpt>
      <trkpt lat="47.8502" lon="6.77992">
        <ele>930</ele>
        <time>2018-06-23T08:49:57.000Z</time>
      </trkpt>
      <trkpt lat="47.8502" lon="6.7799">
        <ele>931</ele>
        <time>2018-06-23T08:49:58.000Z</time>
      </trkpt>
      <trkpt lat="47.85021" lon="6.77988">
        <ele>931</ele>
        <time>2018-06-23T08:49:59.000Z</time>
      </trkpt>
      <trkpt lat="47.85021" lon="6.77987">
        <ele>931</ele>
        <time>2018-06-23T08:50:00.000Z</time>
      </trkpt>
      <trkpt lat="47.85022" lon="6.77985">
        <ele>931</ele>
        <time>2018-06-23T08:50:01.000Z</time>
      </trkpt>
      <trkpt lat="47.85022" lon="6.77984">
        <ele>931</ele>
        <time>2018-06-23T08:50:02.000Z</time>
      </trkpt>
      <trkpt lat="47.85023" lon="6.77982">
        <ele>931</ele>
        <time>2018-06-23T08:50:03.000Z</time>
      </trkpt>
      <trkpt lat="47.85023" lon="6.77981">
        <ele>931</ele>
        <time>2018-06-23T08:50:04.000Z</time>
      </trkpt>
      <trkpt lat="47.85023" lon="6.77979">
        <ele>931</ele>
        <time>2018-06-23T08:50:05.000Z</time>
      </trkpt>
      <trkpt lat="47.85023" lon="6.77977">
        <ele>931</ele>
        <time>2018-06-23T08:50:06.000Z</time>
      </trkpt>
      <trkpt lat="47.85024" lon="6.77975">
        <ele>931</ele>
        <time>2018-06-23T08:50:07.000Z</time>
      </trkpt>
      <trkpt lat="47.85024" lon="6.77973">
        <ele>932</ele>
        <time>2018-06-23T08:50:08.000Z</time>
      </trkpt>
      <trkpt lat="47.85024" lon="6.77972">
        <ele>932</ele>
        <time>2018-06-23T08:50:09.000Z</time>
      </trkpt>
      <trkpt lat="47.85024" lon="6.77971">
        <ele>932</ele>
        <time>2018-06-23T08:50:10.000Z</time>
      </trkpt>
      <trkpt lat="47.85024" lon="6.7797">
        <ele>932</ele>
        <time>2018-06-23T08:50:11.000Z</time>
      </trkpt>
      <trkpt lat="47.85024" lon="6.77968">
        <ele>932</ele>
        <time>2018-06-23T08:50:12.000Z</time>
      </trkpt>
      <trkpt lat="47.85024" lon="6.77967">
        <ele>932</ele>
        <time>2018-06-23T08:50:13.000Z</time>
      </trkpt>
      <trkpt lat="47.85023" lon="6.77966">
        <ele>932</ele>
        <time>2018-06-23T08:50:14.000Z</time>
      </trkpt>
      <trkpt lat="47.85023" lon="6.77965">
        <ele>932</ele>
        <time>2018-06-23T08:50:15.000Z</time>
      </trkpt>
      <trkpt lat="47.85023" lon="6.77963">
        <ele>932</ele>
        <time>2018-06-23T08:50:16.000Z</time>
      </trkpt>
      <trkpt lat="47.85022" lon="6.77962">
        <ele>932</ele>
        <time>2018-06-23T08:50:17.000Z</time>
      </trkpt>
      <trkpt lat="47.85022" lon="6.77961">
        <ele>932</ele>
        <time>2018-06-23T08:50:18.000Z</time>
      </trkpt>
      <trkpt lat="47.85022" lon="6.77959">
        <ele>932</ele>
        <time>2018-06-23T08:50:19.000Z</time>
      </trkpt>
      <trkpt lat="47.85021" lon="6.77958">
        <ele>932</ele>
        <time>2018-06-23T08:50:20.000Z</time>
      </trkpt>
      <trkpt lat="47.85021" lon="6.77956">
        <ele>932</ele>
        <time>2018-06-23T08:50:21.000Z</time>
      </trkpt>
      <trkpt lat="47.85021" lon="6.77955">
        <ele>932</ele>
        <time>2018-06-23T08:50:22.000Z</time>
      </trkpt>
      <trkpt lat="47.85021" lon="6.77953">
        <ele>932</ele>
        <time>2018-06-23T08:50:23.000Z</time>
      </trkpt>
      <trkpt lat="47.8502" lon="6.77952">
        <ele>932</ele>
        <time>2018-06-23T08:50:24.000Z</time>
      </trkpt>
      <trkpt lat="47.85019" lon="6.77951">
        <ele>932</ele>
        <time>2018-06-23T08:50:25.000Z</time>
      </trkpt>
      <trkpt lat="47.85019" lon="6.77949">
        <ele>932</ele>
        <time>2018-06-23T08:50:26.000Z</time>
      </trkpt>
      <trkpt lat="47.85019" lon="6.77948">
        <ele>932</ele>
        <time>2018-06-23T08:50:27.000Z</time>
      </trkpt>
      <trkpt lat="47.85018" lon="6.77947">
        <ele>932</ele>
        <time>2018-06-23T08:50:28.000Z</time>
      </trkpt>
      <trkpt lat="47.85018" lon="6.77946">
        <ele>932</ele>
        <time>2018-06-23T08:50:29.000Z</time>
      </trkpt>
      <trkpt lat="47.85017" lon="6.77944">
        <ele>932</ele>
        <time>2018-06-23T08:50:30.000Z</time>
      </trkpt>
      <trkpt lat="47.85017" lon="6.77943">
        <ele>932</ele>
        <time>2018-06-23T08:50:31.000Z</time>
      </trkpt>
      <trkpt lat="47.85016" lon="6.77942">
        <ele>932</ele>
        <time>2018-06-23T08:50:32.000Z</time>
      </trkpt>
      <trkpt lat="47.85016" lon="6.77941">
        <ele>932</ele>
        <time>2018-06-23T08:50:33.000Z</time>
      </trkpt>
      <trkpt lat="47.85015" lon="6.7794">
        <ele>932</ele>
        <time>2018-06-23T08:50:34.000Z</time>
      </trkpt>
      <trkpt lat="47.85014" lon="6.77939">
        <ele>932</ele>
        <time>2018-06-23T08:50:35.000Z</time>
      </trkpt>
      <trkpt lat="47.85014" lon="6.77938">
        <ele>932</ele>
        <time>2018-06-23T08:50:36.000Z</time>
      </trkpt>
      <trkpt lat="47.85013" lon="6.77937">
        <ele>932</ele>
        <time>2018-06-23T08:50:37.000Z</time>
      </trkpt>
      <trkpt lat="47.85013" lon="6.77937">
        <ele>932</ele>
        <time>2018-06-23T08:50:38.000Z</time>
      </trkpt>
      <trkpt lat="47.85013" lon="6.77936">
        <ele>932</ele>
        <time>2018-06-23T08:50:39.000Z</time>
      </trkpt>
      <trkpt lat="47.85013" lon="6.77935">
        <ele>932</ele>
        <time>2018-06-23T08:50:40.000Z</time>
      </trkpt>
      <trkpt lat="47.85014" lon="6.77934">
        <ele>932</ele>
        <time>2018-06-23T08:50:41.000Z</time>
      </trkpt>
      <trkpt lat="47.85014" lon="6.77933">
        <ele>932</ele>
        <time>2018-06-23T08:50:42.000Z</time>
      </trkpt>
      <trkpt lat="47.85014" lon="6.77932">
        <ele>932</ele>
        <time>2018-06-23T08:50:43.000Z</time>
      </trkpt>
      <trkpt lat="47.85015" lon="6.7793">
        <ele>932</ele>
        <time>2018-06-23T08:50:44.000Z</time>
      </trkpt>
      <trkpt lat="47.85014" lon="6.77929">
        <ele>932</ele>
        <time>2018-06-23T08:50:45.000Z</time>
      </trkpt>
      <trkpt lat="47.85014" lon="6.77927">
        <ele>932</ele>
        <time>2018-06-23T08:50:46.000Z</time>
      </trkpt>
      <trkpt lat="47.85014" lon="6.77926">
        <ele>932</ele>
        <time>2018-06-23T08:50:47.000Z</time>
      </trkpt>
      <trkpt lat="47.85014" lon="6.77925">
        <ele>932</ele>
        <time>2018-06-23T08:50:48.000Z</time>
      </trkpt>
      <trkpt lat="47.85014" lon="6.77924">
        <ele>932</ele>
        <time>2018-06-23T08:50:49.000Z</time>
      </trkpt>
      <trkpt lat="47.85014" lon="6.77922">
        <ele>932</ele>
        <time>2018-06-23T08:50:50.000Z</time>
      </trkpt>
      <trkpt lat="47.85014" lon="6.77921">
        <ele>932</ele>
        <time>2018-06-23T08:50:51.000Z</time>
      </trkpt>
      <trkpt lat="47.85013" lon="6.7792">
        <ele>932</ele>
        <time>2018-06-23T08:50:52.000Z</time>
      </trkpt>
      <trkpt lat="47.85013" lon="6.77918">
        <ele>932</ele>
        <time>2018-06-23T08:50:53.000Z</time>
      </trkpt>
      <trkpt lat="47.85012" lon="6.77916">
        <ele>933</ele>
        <time>2018-06-23T08:50:54.000Z</time>
      </trkpt>
      <trkpt lat="47.85012" lon="6.77915">
        <ele>933</ele>
        <time>2018-06-23T08:50:55.000Z</time>
      </trkpt>
      <trkpt lat="47.85012" lon="6.77913">
        <ele>933</ele>
        <time>2018-06-23T08:50:56.000Z</time>
      </trkpt>
      <trkpt lat="47.85012" lon="6.77912">
        <ele>933</ele>
        <time>2018-06-23T08:50:57.000Z</time>
      </trkpt>
      <trkpt lat="47.85012" lon="6.7791">
        <ele>933</ele>
        <time>2018-06-23T08:50:58.000Z</time>
      </trkpt>
      <trkpt lat="47.85012" lon="6.77909">
        <ele>933</ele>
        <time>2018-06-23T08:50:59.000Z</time>
      </trkpt>
      <trkpt lat="47.85012" lon="6.77907">
        <ele>933</ele>
        <time>2018-06-23T08:51:00.000Z</time>
      </trkpt>
      <trkpt lat="47.85011" lon="6.77906">
        <ele>933</ele>
        <time>2018-06-23T08:51:01.000Z</time>
      </trkpt>
      <trkpt lat="47.85011" lon="6.77904">
        <ele>933</ele>
        <time>2018-06-23T08:51:02.000Z</time>
      </trkpt>
      <trkpt lat="47.8501" lon="6.77902">
        <ele>934</ele>
        <time>2018-06-23T08:51:03.000Z</time>
      </trkpt>
      <trkpt lat="47.8501" lon="6.77901">
        <ele>934</ele>
        <time>2018-06-23T08:51:04.000Z</time>
      </trkpt>
      <trkpt lat="47.8501" lon="6.779">
        <ele>934</ele>
        <time>2018-06-23T08:51:05.000Z</time>
      </trkpt>
      <trkpt lat="47.8501" lon="6.77898">
        <ele>934</ele>
        <time>2018-06-23T08:51:06.000Z</time>
      </trkpt>
      <trkpt lat="47.8501" lon="6.77897">
        <ele>934</ele>
        <time>2018-06-23T08:51:07.000Z</time>
      </trkpt>
      <trkpt lat="47.8501" lon="6.77896">
        <ele>934</ele>
        <time>2018-06-23T08:51:08.000Z</time>
      </trkpt>
      <trkpt lat="47.85009" lon="6.77895">
        <ele>934</ele>
        <time>2018-06-23T08:51:09.000Z</time>
      </trkpt>
      <trkpt lat="47.85009" lon="6.77893">
        <ele>934</ele>
        <time>2018-06-23T08:51:10.000Z</time>
      </trkpt>
      <trkpt lat="47.85009" lon="6.77891">
        <ele>934</ele>
        <time>2018-06-23T08:51:11.000Z</time>
      </trkpt>
      <trkpt lat="47.85009" lon="6.7789">
        <ele>935</ele>
        <time>2018-06-23T08:51:12.000Z</time>
      </trkpt>
      <trkpt lat="47.85008" lon="6.77888">
        <ele>935</ele>
        <time>2018-06-23T08:51:13.000Z</time>
      </trkpt>
      <trkpt lat="47.85008" lon="6.77887">
        <ele>935</ele>
        <time>2018-06-23T08:51:14.000Z</time>
      </trkpt>
      <trkpt lat="47.85008" lon="6.77885">
        <ele>935</ele>
        <time>2018-06-23T08:51:15.000Z</time>
      </trkpt>
      <trkpt lat="47.85007" lon="6.77884">
        <ele>935</ele>
        <time>2018-06-23T08:51:16.000Z</time>
      </trkpt>
      <trkpt lat="47.85007" lon="6.77883">
        <ele>935</ele>
        <time>2018-06-23T08:51:17.000Z</time>
      </trkpt>
      <trkpt lat="47.85007" lon="6.77882">
        <ele>935</ele>
        <time>2018-06-23T08:51:18.000Z</time>
      </trkpt>
      <trkpt lat="47.85007" lon="6.7788">
        <ele>935</ele>
        <time>2018-06-23T08:51:19.000Z</time>
      </trkpt>
      <trkpt lat="47.85007" lon="6.77879">
        <ele>935</ele>
        <time>2018-06-23T08:51:20.000Z</time>
      </trkpt>
      <trkpt lat="47.85007" lon="6.77878">
        <ele>935</ele>
        <time>2018-06-23T08:51:21.000Z</time>
      </trkpt>
      <trkpt lat="47.85006" lon="6.77876">
        <ele>935</ele>
        <time>2018-06-23T08:51:22.000Z</time>
      </trkpt>
      <trkpt lat="47.85006" lon="6.77874">
        <ele>936</ele>
        <time>2018-06-23T08:51:23.000Z</time>
      </trkpt>
      <trkpt lat="47.85006" lon="6.77872">
        <ele>936</ele>
        <time>2018-06-23T08:51:24.000Z</time>
      </trkpt>
      <trkpt lat="47.85005" lon="6.77871">
        <ele>936</ele>
        <time>2018-06-23T08:51:25.000Z</time>
      </trkpt>
      <trkpt lat="47.85005" lon="6.77869">
        <ele>936</ele>
        <time>2018-06-23T08:51:26.000Z</time>
      </trkpt>
      <trkpt lat="47.85005" lon="6.77868">
        <ele>936</ele>
        <time>2018-06-23T08:51:27.000Z</time>
      </trkpt>
      <trkpt lat="47.85004" lon="6.77866">
        <ele>936</ele>
        <time>2018-06-23T08:51:28.000Z</time>
      </trkpt>
      <trkpt lat="47.85004" lon="6.77864">
        <ele>936</ele>
        <time>2018-06-23T08:51:29.000Z</time>
      </trkpt>
      <trkpt lat="47.85004" lon="6.77863">
        <ele>936</ele>
        <time>2018-06-23T08:51:30.000Z</time>
      </trkpt>
      <trkpt lat="47.85004" lon="6.77862">
        <ele>936</ele>
        <time>2018-06-23T08:51:31.000Z</time>
      </trkpt>
      <trkpt lat="47.85004" lon="6.7786">
        <ele>936</ele>
        <time>2018-06-23T08:51:32.000Z</time>
      </trkpt>
      <trkpt lat="47.85004" lon="6.77859">
        <ele>937</ele>
        <time>2018-06-23T08:51:33.000Z</time>
      </trkpt>
      <trkpt lat="47.85003" lon="6.77858">
        <ele>937</ele>
        <time>2018-06-23T08:51:34.000Z</time>
      </trkpt>
      <trkpt lat="47.85003" lon="6.77857">
        <ele>937</ele>
        <time>2018-06-23T08:51:35.000Z</time>
      </trkpt>
      <trkpt lat="47.85003" lon="6.77855">
        <ele>937</ele>
        <time>2018-06-23T08:51:36.000Z</time>
      </trkpt>
      <trkpt lat="47.85002" lon="6.77854">
        <ele>937</ele>
        <time>2018-06-23T08:51:37.000Z</time>
      </trkpt>
      <trkpt lat="47.85001" lon="6.77853">
        <ele>937</ele>
        <time>2018-06-23T08:51:38.000Z</time>
      </trkpt>
      <trkpt lat="47.85" lon="6.77852">
        <ele>937</ele>
        <time>2018-06-23T08:51:39.000Z</time>
      </trkpt>
      <trkpt lat="47.84999" lon="6.77851">
        <ele>933</ele>
        <time>2018-06-23T08:51:40.000Z</time>
      </trkpt>
      <trkpt lat="47.84998" lon="6.7785">
        <ele>934</ele>
        <time>2018-06-23T08:51:41.000Z</time>
      </trkpt>
      <trkpt lat="47.84997" lon="6.77849">
        <ele>934</ele>
        <time>2018-06-23T08:51:42.000Z</time>
      </trkpt>
      <trkpt lat="47.84996" lon="6.77848">
        <ele>934</ele>
        <time>2018-06-23T08:51:43.000Z</time>
      </trkpt>
      <trkpt lat="47.84995" lon="6.77847">
        <ele>934</ele>
        <time>2018-06-23T08:51:44.000Z</time>
      </trkpt>
      <trkpt lat="47.84994" lon="6.77846">
        <ele>934</ele>
        <time>2018-06-23T08:51:45.000Z</time>
      </trkpt>
      <trkpt lat="47.84994" lon="6.77846">
        <ele>934</ele>
        <time>2018-06-23T08:51:46.000Z</time>
      </trkpt>
      <trkpt lat="47.84993" lon="6.77845">
        <ele>934</ele>
        <time>2018-06-23T08:51:47.000Z</time>
      </trkpt>
      <trkpt lat="47.84992" lon="6.77845">
        <ele>934</ele>
        <time>2018-06-23T08:51:48.000Z</time>
      </trkpt>
      <trkpt lat="47.84991" lon="6.77844">
        <ele>934</ele>
        <time>2018-06-23T08:51:49.000Z</time>
      </trkpt>
      <trkpt lat="47.8499" lon="6.77844">
        <ele>934</ele>
        <time>2018-06-23T08:51:50.000Z</time>
      </trkpt>
      <trkpt lat="47.84989" lon="6.77843">
        <ele>934</ele>
        <time>2018-06-23T08:51:51.000Z</time>
      </trkpt>
      <trkpt lat="47.84987" lon="6.77843">
        <ele>933</ele>
        <time>2018-06-23T08:51:52.000Z</time>
      </trkpt>
      <trkpt lat="47.84986" lon="6.77842">
        <ele>933</ele>
        <time>2018-06-23T08:51:53.000Z</time>
      </trkpt>
      <trkpt lat="47.84985" lon="6.77842">
        <ele>933</ele>
        <time>2018-06-23T08:51:54.000Z</time>
      </trkpt>
      <trkpt lat="47.84984" lon="6.77841">
        <ele>933</ele>
        <time>2018-06-23T08:51:55.000Z</time>
      </trkpt>
      <trkpt lat="47.84984" lon="6.77841">
        <ele>933</ele>
        <time>2018-06-23T08:51:56.000Z</time>
      </trkpt>
      <trkpt lat="47.84983" lon="6.77841">
        <ele>933</ele>
        <time>2018-06-23T08:51:57.000Z</time>
      </trkpt>
      <trkpt lat="47.84983" lon="6.7784">
        <ele>933</ele>
        <time>2018-06-23T08:51:58.000Z</time>
      </trkpt>
      <trkpt lat="47.84981" lon="6.7784">
        <ele>932</ele>
        <time>2018-06-23T08:51:59.000Z</time>
      </trkpt>
      <trkpt lat="47.8498" lon="6.7784">
        <ele>932</ele>
        <time>2018-06-23T08:52:00.000Z</time>
      </trkpt>
      <trkpt lat="47.84979" lon="6.77839">
        <ele>932</ele>
        <time>2018-06-23T08:52:01.000Z</time>
      </trkpt>
      <trkpt lat="47.84978" lon="6.77838">
        <ele>932</ele>
        <time>2018-06-23T08:52:02.000Z</time>
      </trkpt>
      <trkpt lat="47.84977" lon="6.77837">
        <ele>932</ele>
        <time>2018-06-23T08:52:03.000Z</time>
      </trkpt>
      <trkpt lat="47.84976" lon="6.77837">
        <ele>932</ele>
        <time>2018-06-23T08:52:04.000Z</time>
      </trkpt>
      <trkpt lat="47.84975" lon="6.77836">
        <ele>931</ele>
        <time>2018-06-23T08:52:05.000Z</time>
      </trkpt>
      <trkpt lat="47.84974" lon="6.77835">
        <ele>931</ele>
        <time>2018-06-23T08:52:06.000Z</time>
      </trkpt>
      <trkpt lat="47.84973" lon="6.77834">
        <ele>931</ele>
        <time>2018-06-23T08:52:07.000Z</time>
      </trkpt>
      <trkpt lat="47.84973" lon="6.77833">
        <ele>934</ele>
        <time>2018-06-23T08:52:08.000Z</time>
      </trkpt>
      <trkpt lat="47.84972" lon="6.77831">
        <ele>934</ele>
        <time>2018-06-23T08:52:09.000Z</time>
      </trkpt>
      <trkpt lat="47.84971" lon="6.7783">
        <ele>934</ele>
        <time>2018-06-23T08:52:10.000Z</time>
      </trkpt>
      <trkpt lat="47.84971" lon="6.77828">
        <ele>934</ele>
        <time>2018-06-23T08:52:11.000Z</time>
      </trkpt>
      <trkpt lat="47.8497" lon="6.77826">
        <ele>934</ele>
        <time>2018-06-23T08:52:12.000Z</time>
      </trkpt>
      <trkpt lat="47.8497" lon="6.77825">
        <ele>934</ele>
        <time>2018-06-23T08:52:13.000Z</time>
      </trkpt>
      <trkpt lat="47.8497" lon="6.77823">
        <ele>934</ele>
        <time>2018-06-23T08:52:14.000Z</time>
      </trkpt>
      <trkpt lat="47.8497" lon="6.77822">
        <ele>934</ele>
        <time>2018-06-23T08:52:15.000Z</time>
      </trkpt>
      <trkpt lat="47.84969" lon="6.77821">
        <ele>934</ele>
        <time>2018-06-23T08:52:16.000Z</time>
      </trkpt>
      <trkpt lat="47.84968" lon="6.7782">
        <ele>934</ele>
        <time>2018-06-23T08:52:17.000Z</time>
      </trkpt>
      <trkpt lat="47.84968" lon="6.77818">
        <ele>934</ele>
        <time>2018-06-23T08:52:18.000Z</time>
      </trkpt>
      <trkpt lat="47.84967" lon="6.77817">
        <ele>934</ele>
        <time>2018-06-23T08:52:19.000Z</time>
      </trkpt>
      <trkpt lat="47.84966" lon="6.77816">
        <ele>934</ele>
        <time>2018-06-23T08:52:20.000Z</time>
      </trkpt>
      <trkpt lat="47.84965" lon="6.77815">
        <ele>933</ele>
        <time>2018-06-23T08:52:21.000Z</time>
      </trkpt>
      <trkpt lat="47.84964" lon="6.77814">
        <ele>933</ele>
        <time>2018-06-23T08:52:22.000Z</time>
      </trkpt>
      <trkpt lat="47.84963" lon="6.77812">
        <ele>933</ele>
        <time>2018-06-23T08:52:23.000Z</time>
      </trkpt>
      <trkpt lat="47.84963" lon="6.7781">
        <ele>933</ele>
        <time>2018-06-23T08:52:24.000Z</time>
      </trkpt>
      <trkpt lat="47.84962" lon="6.77809">
        <ele>933</ele>
        <time>2018-06-23T08:52:25.000Z</time>
      </trkpt>
      <trkpt lat="47.84962" lon="6.77807">
        <ele>933</ele>
        <time>2018-06-23T08:52:26.000Z</time>
      </trkpt>
      <trkpt lat="47.84961" lon="6.77806">
        <ele>933</ele>
        <time>2018-06-23T08:52:27.000Z</time>
      </trkpt>
      <trkpt lat="47.8496" lon="6.77804">
        <ele>933</ele>
        <time>2018-06-23T08:52:28.000Z</time>
      </trkpt>
      <trkpt lat="47.84959" lon="6.77803">
        <ele>933</ele>
        <time>2018-06-23T08:52:29.000Z</time>
      </trkpt>
      <trkpt lat="47.84958" lon="6.77801">
        <ele>933</ele>
        <time>2018-06-23T08:52:30.000Z</time>
      </trkpt>
      <trkpt lat="47.84958" lon="6.778">
        <ele>933</ele>
        <time>2018-06-23T08:52:31.000Z</time>
      </trkpt>
      <trkpt lat="47.84958" lon="6.77798">
        <ele>933</ele>
        <time>2018-06-23T08:52:32.000Z</time>
      </trkpt>
      <trkpt lat="47.84957" lon="6.77797">
        <ele>933</ele>
        <time>2018-06-23T08:52:33.000Z</time>
      </trkpt>
      <trkpt lat="47.84956" lon="6.77796">
        <ele>933</ele>
        <time>2018-06-23T08:52:34.000Z</time>
      </trkpt>
      <trkpt lat="47.84956" lon="6.77794">
        <ele>933</ele>
        <time>2018-06-23T08:52:35.000Z</time>
      </trkpt>
      <trkpt lat="47.84955" lon="6.77794">
        <ele>933</ele>
        <time>2018-06-23T08:52:36.000Z</time>
      </trkpt>
      <trkpt lat="47.84954" lon="6.77793">
        <ele>933</ele>
        <time>2018-06-23T08:52:37.000Z</time>
      </trkpt>
      <trkpt lat="47.84953" lon="6.77792">
        <ele>933</ele>
        <time>2018-06-23T08:52:38.000Z</time>
      </trkpt>
      <trkpt lat="47.84952" lon="6.77791">
        <ele>933</ele>
        <time>2018-06-23T08:52:39.000Z</time>
      </trkpt>
      <trkpt lat="47.84952" lon="6.7779">
        <ele>933</ele>
        <time>2018-06-23T08:52:40.000Z</time>
      </trkpt>
      <trkpt lat="47.84951" lon="6.77789">
        <ele>933</ele>
        <time>2018-06-23T08:52:41.000Z</time>
      </trkpt>
      <trkpt lat="47.84951" lon="6.77788">
        <ele>933</ele>
        <time>2018-06-23T08:52:42.000Z</time>
      </trkpt>
      <trkpt lat="47.8495" lon="6.77787">
        <ele>933</ele>
        <time>2018-06-23T08:52:43.000Z</time>
      </trkpt>
      <trkpt lat="47.8495" lon="6.77787">
        <ele>933</ele>
        <time>2018-06-23T08:52:44.000Z</time>
      </trkpt>
      <trkpt lat="47.84949" lon="6.77786">
        <ele>933</ele>
        <time>2018-06-23T08:52:45.000Z</time>
      </trkpt>
      <trkpt lat="47.84949" lon="6.77785">
        <ele>933</ele>
        <time>2018-06-23T08:52:46.000Z</time>
      </trkpt>
      <trkpt lat="47.84948" lon="6.77785">
        <ele>933</ele>
        <time>2018-06-23T08:52:47.000Z</time>
      </trkpt>
      <trkpt lat="47.84947" lon="6.77783">
        <ele>933</ele>
        <time>2018-06-23T08:52:48.000Z</time>
      </trkpt>
      <trkpt lat="47.84946" lon="6.77782">
        <ele>933</ele>
        <time>2018-06-23T08:52:49.000Z</time>
      </trkpt>
      <trkpt lat="47.84946" lon="6.77781">
        <ele>933</ele>
        <time>2018-06-23T08:52:50.000Z</time>
      </trkpt>
      <trkpt lat="47.84945" lon="6.7778">
        <ele>933</ele>
        <time>2018-06-23T08:52:51.000Z</time>
      </trkpt>
      <trkpt lat="47.84944" lon="6.77779">
        <ele>933</ele>
        <time>2018-06-23T08:52:52.000Z</time>
      </trkpt>
      <trkpt lat="47.84943" lon="6.77778">
        <ele>933</ele>
        <time>2018-06-23T08:52:53.000Z</time>
      </trkpt>
      <trkpt lat="47.84942" lon="6.77778">
        <ele>933</ele>
        <time>2018-06-23T08:52:54.000Z</time>
      </trkpt>
      <trkpt lat="47.84941" lon="6.77777">
        <ele>932</ele>
        <time>2018-06-23T08:52:55.000Z</time>
      </trkpt>
      <trkpt lat="47.8494" lon="6.77776">
        <ele>932</ele>
        <time>2018-06-23T08:52:56.000Z</time>
      </trkpt>
      <trkpt lat="47.84939" lon="6.77775">
        <ele>932</ele>
        <time>2018-06-23T08:52:57.000Z</time>
      </trkpt>
      <trkpt lat="47.84938" lon="6.77774">
        <ele>932</ele>
        <time>2018-06-23T08:52:58.000Z</time>
      </trkpt>
      <trkpt lat="47.84937" lon="6.77773">
        <ele>932</ele>
        <time>2018-06-23T08:52:59.000Z</time>
      </trkpt>
      <trkpt lat="47.84937" lon="6.77772">
        <ele>932</ele>
        <time>2018-06-23T08:53:00.000Z</time>
      </trkpt>
      <trkpt lat="47.84937" lon="6.7777">
        <ele>932</ele>
        <time>2018-06-23T08:53:01.000Z</time>
      </trkpt>
      <trkpt lat="47.84936" lon="6.77769">
        <ele>932</ele>
        <time>2018-06-23T08:53:02.000Z</time>
      </trkpt>
      <trkpt lat="47.84935" lon="6.77768">
        <ele>932</ele>
        <time>2018-06-23T08:53:03.000Z</time>
      </trkpt>
      <trkpt lat="47.84935" lon="6.77767">
        <ele>932</ele>
        <time>2018-06-23T08:53:04.000Z</time>
      </trkpt>
      <trkpt lat="47.84934" lon="6.77766">
        <ele>932</ele>
        <time>2018-06-23T08:53:05.000Z</time>
      </trkpt>
      <trkpt lat="47.84933" lon="6.77765">
        <ele>932</ele>
        <time>2018-06-23T08:53:06.000Z</time>
      </trkpt>
      <trkpt lat="47.84932" lon="6.77764">
        <ele>932</ele>
        <time>2018-06-23T08:53:07.000Z</time>
      </trkpt>
      <trkpt lat="47.84931" lon="6.77764">
        <ele>932</ele>
        <time>2018-06-23T08:53:08.000Z</time>
      </trkpt>
      <trkpt lat="47.8493" lon="6.77762">
        <ele>932</ele>
        <time>2018-06-23T08:53:09.000Z</time>
      </trkpt>
      <trkpt lat="47.8493" lon="6.77762">
        <ele>932</ele>
        <time>2018-06-23T08:53:10.000Z</time>
      </trkpt>
      <trkpt lat="47.84929" lon="6.7776">
        <ele>932</ele>
        <time>2018-06-23T08:53:11.000Z</time>
      </trkpt>
      <trkpt lat="47.84928" lon="6.77759">
        <ele>932</ele>
        <time>2018-06-23T08:53:12.000Z</time>
      </trkpt>
      <trkpt lat="47.84927" lon="6.77758">
        <ele>932</ele>
        <time>2018-06-23T08:53:13.000Z</time>
      </trkpt>
      <trkpt lat="47.84926" lon="6.77757">
        <ele>932</ele>
        <time>2018-06-23T08:53:14.000Z</time>
      </trkpt>
      <trkpt lat="47.84925" lon="6.77756">
        <ele>932</ele>
        <time>2018-06-23T08:53:15.000Z</time>
      </trkpt>
      <trkpt lat="47.84923" lon="6.77755">
        <ele>932</ele>
        <time>2018-06-23T08:53:16.000Z</time>
      </trkpt>
      <trkpt lat="47.84922" lon="6.77755">
        <ele>931</ele>
        <time>2018-06-23T08:53:17.000Z</time>
      </trkpt>
      <trkpt lat="47.84921" lon="6.77754">
        <ele>931</ele>
        <time>2018-06-23T08:53:18.000Z</time>
      </trkpt>
      <trkpt lat="47.8492" lon="6.77753">
        <ele>931</ele>
        <time>2018-06-23T08:53:19.000Z</time>
      </trkpt>
      <trkpt lat="47.84919" lon="6.77752">
        <ele>931</ele>
        <time>2018-06-23T08:53:20.000Z</time>
      </trkpt>
      <trkpt lat="47.84918" lon="6.77751">
        <ele>931</ele>
        <time>2018-06-23T08:53:21.000Z</time>
      </trkpt>
      <trkpt lat="47.84916" lon="6.77749">
        <ele>931</ele>
        <time>2018-06-23T08:53:22.000Z</time>
      </trkpt>
      <trkpt lat="47.84915" lon="6.77748">
        <ele>930</ele>
        <time>2018-06-23T08:53:23.000Z</time>
      </trkpt>
      <trkpt lat="47.84914" lon="6.77747">
        <ele>930</ele>
        <time>2018-06-23T08:53:24.000Z</time>
      </trkpt>
      <trkpt lat="47.84913" lon="6.77746">
        <ele>929</ele>
        <time>2018-06-23T08:53:25.000Z</time>
      </trkpt>
      <trkpt lat="47.84912" lon="6.77744">
        <ele>929</ele>
        <time>2018-06-23T08:53:26.000Z</time>
      </trkpt>
      <trkpt lat="47.84911" lon="6.77742">
        <ele>928</ele>
        <time>2018-06-23T08:53:27.000Z</time>
      </trkpt>
      <trkpt lat="47.8491" lon="6.77741">
        <ele>928</ele>
        <time>2018-06-23T08:53:28.000Z</time>
      </trkpt>
      <trkpt lat="47.8491" lon="6.7774">
        <ele>928</ele>
        <time>2018-06-23T08:53:29.000Z</time>
      </trkpt>
      <trkpt lat="47.8491" lon="6.77738">
        <ele>927</ele>
        <time>2018-06-23T08:53:30.000Z</time>
      </trkpt>
      <trkpt lat="47.84909" lon="6.77736">
        <ele>927</ele>
        <time>2018-06-23T08:53:31.000Z</time>
      </trkpt>
      <trkpt lat="47.84908" lon="6.77734">
        <ele>927</ele>
        <time>2018-06-23T08:53:32.000Z</time>
      </trkpt>
      <trkpt lat="47.84907" lon="6.77733">
        <ele>927</ele>
        <time>2018-06-23T08:53:33.000Z</time>
      </trkpt>
      <trkpt lat="47.84907" lon="6.77731">
        <ele>926</ele>
        <time>2018-06-23T08:53:34.000Z</time>
      </trkpt>
      <trkpt lat="47.84906" lon="6.77729">
        <ele>926</ele>
        <time>2018-06-23T08:53:35.000Z</time>
      </trkpt>
      <trkpt lat="47.84905" lon="6.77727">
        <ele>926</ele>
        <time>2018-06-23T08:53:36.000Z</time>
      </trkpt>
      <trkpt lat="47.84904" lon="6.77725">
        <ele>926</ele>
        <time>2018-06-23T08:53:37.000Z</time>
      </trkpt>
      <trkpt lat="47.84904" lon="6.77723">
        <ele>926</ele>
        <time>2018-06-23T08:53:38.000Z</time>
      </trkpt>
      <trkpt lat="47.84904" lon="6.77721">
        <ele>926</ele>
        <time>2018-06-23T08:53:39.000Z</time>
      </trkpt>
      <trkpt lat="47.84904" lon="6.7772">
        <ele>926</ele>
        <time>2018-06-23T08:53:40.000Z</time>
      </trkpt>
      <trkpt lat="47.84904" lon="6.77718">
        <ele>926</ele>
        <time>2018-06-23T08:53:41.000Z</time>
      </trkpt>
      <trkpt lat="47.84904" lon="6.77717">
        <ele>926</ele>
        <time>2018-06-23T08:53:42.000Z</time>
      </trkpt>
      <trkpt lat="47.84904" lon="6.77715">
        <ele>926</ele>
        <time>2018-06-23T08:53:43.000Z</time>
      </trkpt>
      <trkpt lat="47.84904" lon="6.77713">
        <ele>926</ele>
        <time>2018-06-23T08:53:44.000Z</time>
      </trkpt>
      <trkpt lat="47.84904" lon="6.77711">
        <ele>926</ele>
        <time>2018-06-23T08:53:45.000Z</time>
      </trkpt>
      <trkpt lat="47.84904" lon="6.7771">
        <ele>926</ele>
        <time>2018-06-23T08:53:46.000Z</time>
      </trkpt>
      <trkpt lat="47.84904" lon="6.77708">
        <ele>926</ele>
        <time>2018-06-23T08:53:47.000Z</time>
      </trkpt>
      <trkpt lat="47.84904" lon="6.77706">
        <ele>926</ele>
        <time>2018-06-23T08:53:48.000Z</time>
      </trkpt>
      <trkpt lat="47.84904" lon="6.77705">
        <ele>926</ele>
        <time>2018-06-23T08:53:49.000Z</time>
      </trkpt>
      <trkpt lat="47.84905" lon="6.77703">
        <ele>926</ele>
        <time>2018-06-23T08:53:50.000Z</time>
      </trkpt>
      <trkpt lat="47.84905" lon="6.77702">
        <ele>926</ele>
        <time>2018-06-23T08:53:51.000Z</time>
      </trkpt>
      <trkpt lat="47.84905" lon="6.77699">
        <ele>927</ele>
        <time>2018-06-23T08:53:52.000Z</time>
      </trkpt>
      <trkpt lat="47.84905" lon="6.77698">
        <ele>927</ele>
        <time>2018-06-23T08:53:53.000Z</time>
      </trkpt>
      <trkpt lat="47.84905" lon="6.77696">
        <ele>927</ele>
        <time>2018-06-23T08:53:54.000Z</time>
      </trkpt>
      <trkpt lat="47.84905" lon="6.77694">
        <ele>927</ele>
        <time>2018-06-23T08:53:55.000Z</time>
      </trkpt>
      <trkpt lat="47.84905" lon="6.77692">
        <ele>927</ele>
        <time>2018-06-23T08:53:56.000Z</time>
      </trkpt>
      <trkpt lat="47.84905" lon="6.77691">
        <ele>927</ele>
        <time>2018-06-23T08:53:57.000Z</time>
      </trkpt>
      <trkpt lat="47.84905" lon="6.77689">
        <ele>928</ele>
        <time>2018-06-23T08:53:58.000Z</time>
      </trkpt>
      <trkpt lat="47.84905" lon="6.77687">
        <ele>928</ele>
        <time>2018-06-23T08:53:59.000Z</time>
      </trkpt>
      <trkpt lat="47.84905" lon="6.77685">
        <ele>928</ele>
        <time>2018-06-23T08:54:00.000Z</time>
      </trkpt>
      <trkpt lat="47.84905" lon="6.77684">
        <ele>929</ele>
        <time>2018-06-23T08:54:01.000Z</time>
      </trkpt>
      <trkpt lat="47.84905" lon="6.77683">
        <ele>929</ele>
        <time>2018-06-23T08:54:02.000Z</time>
      </trkpt>
      <trkpt lat="47.84905" lon="6.77682">
        <ele>929</ele>
        <time>2018-06-23T08:54:03.000Z</time>
      </trkpt>
      <trkpt lat="47.84905" lon="6.77681">
        <ele>929</ele>
        <time>2018-06-23T08:54:04.000Z</time>
      </trkpt>
      <trkpt lat="47.84905" lon="6.77679">
        <ele>929</ele>
        <time>2018-06-23T08:54:05.000Z</time>
      </trkpt>
      <trkpt lat="47.84904" lon="6.77678">
        <ele>929</ele>
        <time>2018-06-23T08:54:06.000Z</time>
      </trkpt>
      <trkpt lat="47.84904" lon="6.77677">
        <ele>930</ele>
        <time>2018-06-23T08:54:07.000Z</time>
      </trkpt>
      <trkpt lat="47.84904" lon="6.77675">
        <ele>930</ele>
        <time>2018-06-23T08:54:08.000Z</time>
      </trkpt>
      <trkpt lat="47.84904" lon="6.77674">
        <ele>930</ele>
        <time>2018-06-23T08:54:09.000Z</time>
      </trkpt>
      <trkpt lat="47.84904" lon="6.77673">
        <ele>930</ele>
        <time>2018-06-23T08:54:10.000Z</time>
      </trkpt>
      <trkpt lat="47.84904" lon="6.77671">
        <ele>930</ele>
        <time>2018-06-23T08:54:11.000Z</time>
      </trkpt>
      <trkpt lat="47.84904" lon="6.7767">
        <ele>931</ele>
        <time>2018-06-23T08:54:12.000Z</time>
      </trkpt>
      <trkpt lat="47.84905" lon="6.77668">
        <ele>931</ele>
        <time>2018-06-23T08:54:13.000Z</time>
      </trkpt>
      <trkpt lat="47.84905" lon="6.77666">
        <ele>933</ele>
        <time>2018-06-23T08:54:14.000Z</time>
      </trkpt>
      <trkpt lat="47.84906" lon="6.77665">
        <ele>933</ele>
        <time>2018-06-23T08:54:15.000Z</time>
      </trkpt>
      <trkpt lat="47.84906" lon="6.77663">
        <ele>933</ele>
        <time>2018-06-23T08:54:16.000Z</time>
      </trkpt>
      <trkpt lat="47.84907" lon="6.77662">
        <ele>933</ele>
        <time>2018-06-23T08:54:17.000Z</time>
      </trkpt>
      <trkpt lat="47.84908" lon="6.7766">
        <ele>933</ele>
        <time>2018-06-23T08:54:18.000Z</time>
      </trkpt>
      <trkpt lat="47.84909" lon="6.77659">
        <ele>933</ele>
        <time>2018-06-23T08:54:19.000Z</time>
      </trkpt>
      <trkpt lat="47.8491" lon="6.77658">
        <ele>933</ele>
        <time>2018-06-23T08:54:20.000Z</time>
      </trkpt>
      <trkpt lat="47.84911" lon="6.77656">
        <ele>933</ele>
        <time>2018-06-23T08:54:21.000Z</time>
      </trkpt>
      <trkpt lat="47.84912" lon="6.77654">
        <ele>933</ele>
        <time>2018-06-23T08:54:22.000Z</time>
      </trkpt>
      <trkpt lat="47.84913" lon="6.77653">
        <ele>933</ele>
        <time>2018-06-23T08:54:23.000Z</time>
      </trkpt>
      <trkpt lat="47.84914" lon="6.77652">
        <ele>933</ele>
        <time>2018-06-23T08:54:24.000Z</time>
      </trkpt>
      <trkpt lat="47.84914" lon="6.77651">
        <ele>933</ele>
        <time>2018-06-23T08:54:25.000Z</time>
      </trkpt>
      <trkpt lat="47.84914" lon="6.7765">
        <ele>933</ele>
        <time>2018-06-23T08:54:26.000Z</time>
      </trkpt>
      <trkpt lat="47.84914" lon="6.77648">
        <ele>932</ele>
        <time>2018-06-23T08:54:27.000Z</time>
      </trkpt>
      <trkpt lat="47.84914" lon="6.77647">
        <ele>932</ele>
        <time>2018-06-23T08:54:28.000Z</time>
      </trkpt>
      <trkpt lat="47.84914" lon="6.77645">
        <ele>932</ele>
        <time>2018-06-23T08:54:29.000Z</time>
      </trkpt>
      <trkpt lat="47.84914" lon="6.77644">
        <ele>932</ele>
        <time>2018-06-23T08:54:30.000Z</time>
      </trkpt>
      <trkpt lat="47.84914" lon="6.77643">
        <ele>932</ele>
        <time>2018-06-23T08:54:31.000Z</time>
      </trkpt>
      <trkpt lat="47.84913" lon="6.77641">
        <ele>932</ele>
        <time>2018-06-23T08:54:32.000Z</time>
      </trkpt>
      <trkpt lat="47.84913" lon="6.7764">
        <ele>932</ele>
        <time>2018-06-23T08:54:33.000Z</time>
      </trkpt>
      <trkpt lat="47.84913" lon="6.77638">
        <ele>932</ele>
        <time>2018-06-23T08:54:34.000Z</time>
      </trkpt>
      <trkpt lat="47.84913" lon="6.77637">
        <ele>932</ele>
        <time>2018-06-23T08:54:35.000Z</time>
      </trkpt>
      <trkpt lat="47.84913" lon="6.77635">
        <ele>932</ele>
        <time>2018-06-23T08:54:36.000Z</time>
      </trkpt>
      <trkpt lat="47.84913" lon="6.77634">
        <ele>932</ele>
        <time>2018-06-23T08:54:37.000Z</time>
      </trkpt>
      <trkpt lat="47.84913" lon="6.77633">
        <ele>932</ele>
        <time>2018-06-23T08:54:38.000Z</time>
      </trkpt>
      <trkpt lat="47.84913" lon="6.77632">
        <ele>932</ele>
        <time>2018-06-23T08:54:39.000Z</time>
      </trkpt>
      <trkpt lat="47.84913" lon="6.7763">
        <ele>932</ele>
        <time>2018-06-23T08:54:40.000Z</time>
      </trkpt>
      <trkpt lat="47.84913" lon="6.77629">
        <ele>932</ele>
        <time>2018-06-23T08:54:41.000Z</time>
      </trkpt>
      <trkpt lat="47.84914" lon="6.77627">
        <ele>932</ele>
        <time>2018-06-23T08:54:42.000Z</time>
      </trkpt>
      <trkpt lat="47.84914" lon="6.77626">
        <ele>932</ele>
        <time>2018-06-23T08:54:43.000Z</time>
      </trkpt>
      <trkpt lat="47.84914" lon="6.77626">
        <ele>932</ele>
        <time>2018-06-23T08:54:44.000Z</time>
      </trkpt>
      <trkpt lat="47.84915" lon="6.77625">
        <ele>932</ele>
        <time>2018-06-23T08:54:45.000Z</time>
      </trkpt>
      <trkpt lat="47.84915" lon="6.77625">
        <ele>932</ele>
        <time>2018-06-23T08:54:46.000Z</time>
      </trkpt>
      <trkpt lat="47.84915" lon="6.77625">
        <ele>932</ele>
        <time>2018-06-23T08:54:47.000Z</time>
      </trkpt>
      <trkpt lat="47.84915" lon="6.77624">
        <ele>932</ele>
        <time>2018-06-23T08:54:48.000Z</time>
      </trkpt>
      <trkpt lat="47.84915" lon="6.77624">
        <ele>932</ele>
        <time>2018-06-23T08:54:49.000Z</time>
      </trkpt>
      <trkpt lat="47.84915" lon="6.77624">
        <ele>932</ele>
        <time>2018-06-23T08:54:50.000Z</time>
      </trkpt>
      <trkpt lat="47.84915" lon="6.77624">
        <ele>932</ele>
        <time>2018-06-23T08:54:51.000Z</time>
      </trkpt>
      <trkpt lat="47.84915" lon="6.77623">
        <ele>932</ele>
        <time>2018-06-23T08:54:52.000Z</time>
      </trkpt>
      <trkpt lat="47.84915" lon="6.77623">
        <ele>932</ele>
        <time>2018-06-23T08:54:53.000Z</time>
      </trkpt>
      <trkpt lat="47.84914" lon="6.77623">
        <ele>932</ele>
        <time>2018-06-23T08:54:54.000Z</time>
      </trkpt>
      <trkpt lat="47.84914" lon="6.77623">
        <ele>932</ele>
        <time>2018-06-23T08:54:55.000Z</time>
      </trkpt>
      <trkpt lat="47.84914" lon="6.77623">
        <ele>932</ele>
        <time>2018-06-23T08:54:56.000Z</time>
      </trkpt>
      <trkpt lat="47.84913" lon="6.77622">
        <ele>932</ele>
        <time>2018-06-23T08:54:57.000Z</time>
      </trkpt>
      <trkpt lat="47.84913" lon="6.77621">
        <ele>932</ele>
        <time>2018-06-23T08:54:58.000Z</time>
      </trkpt>
      <trkpt lat="47.84913" lon="6.77621">
        <ele>932</ele>
        <time>2018-06-23T08:54:59.000Z</time>
      </trkpt>
      <trkpt lat="47.84912" lon="6.7762">
        <ele>932</ele>
        <time>2018-06-23T08:55:00.000Z</time>
      </trkpt>
      <trkpt lat="47.84912" lon="6.77619">
        <ele>932</ele>
        <time>2018-06-23T08:55:01.000Z</time>
      </trkpt>
      <trkpt lat="47.84911" lon="6.77618">
        <ele>932</ele>
        <time>2018-06-23T08:55:02.000Z</time>
      </trkpt>
      <trkpt lat="47.8491" lon="6.77616">
        <ele>932</ele>
        <time>2018-06-23T08:55:03.000Z</time>
      </trkpt>
      <trkpt lat="47.84909" lon="6.77615">
        <ele>932</ele>
        <time>2018-06-23T08:55:04.000Z</time>
      </trkpt>
      <trkpt lat="47.84909" lon="6.77614">
        <ele>932</ele>
        <time>2018-06-23T08:55:05.000Z</time>
      </trkpt>
      <trkpt lat="47.84909" lon="6.77613">
        <ele>932</ele>
        <time>2018-06-23T08:55:06.000Z</time>
      </trkpt>
      <trkpt lat="47.84908" lon="6.77611">
        <ele>932</ele>
        <time>2018-06-23T08:55:07.000Z</time>
      </trkpt>
      <trkpt lat="47.84908" lon="6.7761">
        <ele>932</ele>
        <time>2018-06-23T08:55:08.000Z</time>
      </trkpt>
      <trkpt lat="47.84908" lon="6.77609">
        <ele>932</ele>
        <time>2018-06-23T08:55:09.000Z</time>
      </trkpt>
      <trkpt lat="47.84907" lon="6.77607">
        <ele>932</ele>
        <time>2018-06-23T08:55:10.000Z</time>
      </trkpt>
      <trkpt lat="47.84907" lon="6.77606">
        <ele>932</ele>
        <time>2018-06-23T08:55:11.000Z</time>
      </trkpt>
      <trkpt lat="47.84907" lon="6.77605">
        <ele>933</ele>
        <time>2018-06-23T08:55:12.000Z</time>
      </trkpt>
      <trkpt lat="47.84907" lon="6.77604">
        <ele>933</ele>
        <time>2018-06-23T08:55:13.000Z</time>
      </trkpt>
      <trkpt lat="47.84906" lon="6.77602">
        <ele>933</ele>
        <time>2018-06-23T08:55:14.000Z</time>
      </trkpt>
      <trkpt lat="47.84906" lon="6.77601">
        <ele>933</ele>
        <time>2018-06-23T08:55:15.000Z</time>
      </trkpt>
      <trkpt lat="47.84906" lon="6.77599">
        <ele>933</ele>
        <time>2018-06-23T08:55:16.000Z</time>
      </trkpt>
      <trkpt lat="47.84906" lon="6.77598">
        <ele>933</ele>
        <time>2018-06-23T08:55:17.000Z</time>
      </trkpt>
      <trkpt lat="47.84906" lon="6.77597">
        <ele>933</ele>
        <time>2018-06-23T08:55:18.000Z</time>
      </trkpt>
      <trkpt lat="47.84906" lon="6.77595">
        <ele>934</ele>
        <time>2018-06-23T08:55:19.000Z</time>
      </trkpt>
      <trkpt lat="47.84906" lon="6.77593">
        <ele>934</ele>
        <time>2018-06-23T08:55:20.000Z</time>
      </trkpt>
      <trkpt lat="47.84905" lon="6.77592">
        <ele>934</ele>
        <time>2018-06-23T08:55:21.000Z</time>
      </trkpt>
      <trkpt lat="47.84905" lon="6.7759">
        <ele>934</ele>
        <time>2018-06-23T08:55:22.000Z</time>
      </trkpt>
      <trkpt lat="47.84904" lon="6.77589">
        <ele>934</ele>
        <time>2018-06-23T08:55:23.000Z</time>
      </trkpt>
      <trkpt lat="47.84904" lon="6.77587">
        <ele>934</ele>
        <time>2018-06-23T08:55:24.000Z</time>
      </trkpt>
      <trkpt lat="47.84904" lon="6.77586">
        <ele>934</ele>
        <time>2018-06-23T08:55:25.000Z</time>
      </trkpt>
      <trkpt lat="47.84903" lon="6.77584">
        <ele>934</ele>
        <time>2018-06-23T08:55:26.000Z</time>
      </trkpt>
      <trkpt lat="47.84903" lon="6.77583">
        <ele>935</ele>
        <time>2018-06-23T08:55:27.000Z</time>
      </trkpt>
      <trkpt lat="47.84903" lon="6.77582">
        <ele>935</ele>
        <time>2018-06-23T08:55:28.000Z</time>
      </trkpt>
      <trkpt lat="47.84903" lon="6.7758">
        <ele>935</ele>
        <time>2018-06-23T08:55:29.000Z</time>
      </trkpt>
      <trkpt lat="47.84903" lon="6.77579">
        <ele>935</ele>
        <time>2018-06-23T08:55:30.000Z</time>
      </trkpt>
      <trkpt lat="47.84903" lon="6.77577">
        <ele>935</ele>
        <time>2018-06-23T08:55:31.000Z</time>
      </trkpt>
      <trkpt lat="47.84903" lon="6.77576">
        <ele>935</ele>
        <time>2018-06-23T08:55:32.000Z</time>
      </trkpt>
      <trkpt lat="47.84902" lon="6.77575">
        <ele>935</ele>
        <time>2018-06-23T08:55:33.000Z</time>
      </trkpt>
      <trkpt lat="47.84901" lon="6.77574">
        <ele>934</ele>
        <time>2018-06-23T08:55:34.000Z</time>
      </trkpt>
      <trkpt lat="47.84901" lon="6.77572">
        <ele>934</ele>
        <time>2018-06-23T08:55:35.000Z</time>
      </trkpt>
      <trkpt lat="47.84901" lon="6.77571">
        <ele>934</ele>
        <time>2018-06-23T08:55:36.000Z</time>
      </trkpt>
      <trkpt lat="47.849" lon="6.7757">
        <ele>934</ele>
        <time>2018-06-23T08:55:37.000Z</time>
      </trkpt>
      <trkpt lat="47.849" lon="6.77568">
        <ele>934</ele>
        <time>2018-06-23T08:55:38.000Z</time>
      </trkpt>
      <trkpt lat="47.849" lon="6.77567">
        <ele>934</ele>
        <time>2018-06-23T08:55:39.000Z</time>
      </trkpt>
      <trkpt lat="47.849" lon="6.77566">
        <ele>934</ele>
        <time>2018-06-23T08:55:40.000Z</time>
      </trkpt>
      <trkpt lat="47.84899" lon="6.77564">
        <ele>934</ele>
        <time>2018-06-23T08:55:41.000Z</time>
      </trkpt>
      <trkpt lat="47.84899" lon="6.77562">
        <ele>934</ele>
        <time>2018-06-23T08:55:42.000Z</time>
      </trkpt>
      <trkpt lat="47.84899" lon="6.77561">
        <ele>933</ele>
        <time>2018-06-23T08:55:43.000Z</time>
      </trkpt>
      <trkpt lat="47.84898" lon="6.77559">
        <ele>933</ele>
        <time>2018-06-23T08:55:44.000Z</time>
      </trkpt>
      <trkpt lat="47.84898" lon="6.77557">
        <ele>933</ele>
        <time>2018-06-23T08:55:45.000Z</time>
      </trkpt>
      <trkpt lat="47.84898" lon="6.77556">
        <ele>933</ele>
        <time>2018-06-23T08:55:46.000Z</time>
      </trkpt>
      <trkpt lat="47.84898" lon="6.77554">
        <ele>933</ele>
        <time>2018-06-23T08:55:47.000Z</time>
      </trkpt>
      <trkpt lat="47.84899" lon="6.77552">
        <ele>933</ele>
        <time>2018-06-23T08:55:48.000Z</time>
      </trkpt>
      <trkpt lat="47.84899" lon="6.77551">
        <ele>933</ele>
        <time>2018-06-23T08:55:49.000Z</time>
      </trkpt>
      <trkpt lat="47.84899" lon="6.7755">
        <ele>933</ele>
        <time>2018-06-23T08:55:50.000Z</time>
      </trkpt>
      <trkpt lat="47.84899" lon="6.77549">
        <ele>933</ele>
        <time>2018-06-23T08:55:51.000Z</time>
      </trkpt>
      <trkpt lat="47.84899" lon="6.77547">
        <ele>933</ele>
        <time>2018-06-23T08:55:52.000Z</time>
      </trkpt>
      <trkpt lat="47.84899" lon="6.77546">
        <ele>933</ele>
        <time>2018-06-23T08:55:53.000Z</time>
      </trkpt>
      <trkpt lat="47.84899" lon="6.77545">
        <ele>933</ele>
        <time>2018-06-23T08:55:54.000Z</time>
      </trkpt>
      <trkpt lat="47.84899" lon="6.77543">
        <ele>933</ele>
        <time>2018-06-23T08:55:55.000Z</time>
      </trkpt>
      <trkpt lat="47.84899" lon="6.77542">
        <ele>933</ele>
        <time>2018-06-23T08:55:56.000Z</time>
      </trkpt>
      <trkpt lat="47.84899" lon="6.7754">
        <ele>933</ele>
        <time>2018-06-23T08:55:57.000Z</time>
      </trkpt>
      <trkpt lat="47.84899" lon="6.77538">
        <ele>933</ele>
        <time>2018-06-23T08:55:58.000Z</time>
      </trkpt>
      <trkpt lat="47.84899" lon="6.77536">
        <ele>933</ele>
        <time>2018-06-23T08:55:59.000Z</time>
      </trkpt>
      <trkpt lat="47.84899" lon="6.77534">
        <ele>933</ele>
        <time>2018-06-23T08:56:00.000Z</time>
      </trkpt>
      <trkpt lat="47.84898" lon="6.77532">
        <ele>933</ele>
        <time>2018-06-23T08:56:01.000Z</time>
      </trkpt>
      <trkpt lat="47.84897" lon="6.77529">
        <ele>933</ele>
        <time>2018-06-23T08:56:02.000Z</time>
      </trkpt>
      <trkpt lat="47.84897" lon="6.77527">
        <ele>933</ele>
        <time>2018-06-23T08:56:03.000Z</time>
      </trkpt>
      <trkpt lat="47.84896" lon="6.77526">
        <ele>933</ele>
        <time>2018-06-23T08:56:04.000Z</time>
      </trkpt>
      <trkpt lat="47.84896" lon="6.77524">
        <ele>933</ele>
        <time>2018-06-23T08:56:05.000Z</time>
      </trkpt>
      <trkpt lat="47.84895" lon="6.77523">
        <ele>933</ele>
        <time>2018-06-23T08:56:06.000Z</time>
      </trkpt>
      <trkpt lat="47.84894" lon="6.77523">
        <ele>933</ele>
        <time>2018-06-23T08:56:07.000Z</time>
      </trkpt>
      <trkpt lat="47.84893" lon="6.77522">
        <ele>933</ele>
        <time>2018-06-23T08:56:08.000Z</time>
      </trkpt>
      <trkpt lat="47.84892" lon="6.77521">
        <ele>933</ele>
        <time>2018-06-23T08:56:09.000Z</time>
      </trkpt>
      <trkpt lat="47.84891" lon="6.77519">
        <ele>933</ele>
        <time>2018-06-23T08:56:10.000Z</time>
      </trkpt>
      <trkpt lat="47.8489" lon="6.77517">
        <ele>933</ele>
        <time>2018-06-23T08:56:11.000Z</time>
      </trkpt>
      <trkpt lat="47.84889" lon="6.77516">
        <ele>933</ele>
        <time>2018-06-23T08:56:12.000Z</time>
      </trkpt>
      <trkpt lat="47.84888" lon="6.77514">
        <ele>933</ele>
        <time>2018-06-23T08:56:13.000Z</time>
      </trkpt>
      <trkpt lat="47.84887" lon="6.77512">
        <ele>933</ele>
        <time>2018-06-23T08:56:14.000Z</time>
      </trkpt>
      <trkpt lat="47.84887" lon="6.77511">
        <ele>933</ele>
        <time>2018-06-23T08:56:15.000Z</time>
      </trkpt>
      <trkpt lat="47.84886" lon="6.77509">
        <ele>933</ele>
        <time>2018-06-23T08:56:16.000Z</time>
      </trkpt>
      <trkpt lat="47.84886" lon="6.77507">
        <ele>932</ele>
        <time>2018-06-23T08:56:17.000Z</time>
      </trkpt>
      <trkpt lat="47.84886" lon="6.77505">
        <ele>932</ele>
        <time>2018-06-23T08:56:18.000Z</time>
      </trkpt>
      <trkpt lat="47.84885" lon="6.77503">
        <ele>932</ele>
        <time>2018-06-23T08:56:19.000Z</time>
      </trkpt>
      <trkpt lat="47.84885" lon="6.77502">
        <ele>932</ele>
        <time>2018-06-23T08:56:20.000Z</time>
      </trkpt>
      <trkpt lat="47.84884" lon="6.775">
        <ele>932</ele>
        <time>2018-06-23T08:56:21.000Z</time>
      </trkpt>
      <trkpt lat="47.84884" lon="6.775">
        <ele>933</ele>
        <time>2018-06-23T08:56:22.000Z</time>
      </trkpt>
      <trkpt lat="47.84884" lon="6.77499">
        <ele>933</ele>
        <time>2018-06-23T08:56:23.000Z</time>
      </trkpt>
      <trkpt lat="47.84885" lon="6.775">
        <ele>933</ele>
        <time>2018-06-23T08:56:24.000Z</time>
      </trkpt>
      <trkpt lat="47.84885" lon="6.775">
        <ele>933</ele>
        <time>2018-06-23T08:56:25.000Z</time>
      </trkpt>
      <trkpt lat="47.84886" lon="6.775">
        <ele>933</ele>
        <time>2018-06-23T08:56:26.000Z</time>
      </trkpt>
      <trkpt lat="47.84886" lon="6.775">
        <ele>933</ele>
        <time>2018-06-23T08:56:27.000Z</time>
      </trkpt>
      <trkpt lat="47.84886" lon="6.77499">
        <ele>933</ele>
        <time>2018-06-23T08:56:28.000Z</time>
      </trkpt>
      <trkpt lat="47.84886" lon="6.77499">
        <ele>933</ele>
        <time>2018-06-23T08:56:29.000Z</time>
      </trkpt>
      <trkpt lat="47.84886" lon="6.77499">
        <ele>933</ele>
        <time>2018-06-23T08:56:30.000Z</time>
      </trkpt>
      <trkpt lat="47.84886" lon="6.77499">
        <ele>933</ele>
        <time>2018-06-23T08:56:31.000Z</time>
      </trkpt>
      <trkpt lat="47.84887" lon="6.77498">
        <ele>933</ele>
        <time>2018-06-23T08:56:32.000Z</time>
      </trkpt>
      <trkpt lat="47.84887" lon="6.77498">
        <ele>933</ele>
        <time>2018-06-23T08:56:33.000Z</time>
      </trkpt>
      <trkpt lat="47.84887" lon="6.77498">
        <ele>933</ele>
        <time>2018-06-23T08:56:34.000Z</time>
      </trkpt>
      <trkpt lat="47.84887" lon="6.77498">
        <ele>933</ele>
        <time>2018-06-23T08:56:35.000Z</time>
      </trkpt>
      <trkpt lat="47.84887" lon="6.77497">
        <ele>933</ele>
        <time>2018-06-23T08:56:36.000Z</time>
      </trkpt>
      <trkpt lat="47.84887" lon="6.77498">
        <ele>933</ele>
        <time>2018-06-23T08:56:37.000Z</time>
      </trkpt>
      <trkpt lat="47.84887" lon="6.77497">
        <ele>933</ele>
        <time>2018-06-23T08:56:38.000Z</time>
      </trkpt>
      <trkpt lat="47.84887" lon="6.77497">
        <ele>933</ele>
        <time>2018-06-23T08:56:39.000Z</time>
      </trkpt>
      <trkpt lat="47.84887" lon="6.77496">
        <ele>933</ele>
        <time>2018-06-23T08:56:40.000Z</time>
      </trkpt>
      <trkpt lat="47.84887" lon="6.77496">
        <ele>933</ele>
        <time>2018-06-23T08:56:41.000Z</time>
      </trkpt>
      <trkpt lat="47.84887" lon="6.77496">
        <ele>933</ele>
        <time>2018-06-23T08:56:42.000Z</time>
      </trkpt>
      <trkpt lat="47.84887" lon="6.77495">
        <ele>933</ele>
        <time>2018-06-23T08:56:43.000Z</time>
      </trkpt>
      <trkpt lat="47.84887" lon="6.77495">
        <ele>933</ele>
        <time>2018-06-23T08:56:44.000Z</time>
      </trkpt>
      <trkpt lat="47.84887" lon="6.77495">
        <ele>933</ele>
        <time>2018-06-23T08:56:45.000Z</time>
      </trkpt>
      <trkpt lat="47.84887" lon="6.77494">
        <ele>933</ele>
        <time>2018-06-23T08:56:46.000Z</time>
      </trkpt>
      <trkpt lat="47.84887" lon="6.77493">
        <ele>933</ele>
        <time>2018-06-23T08:56:47.000Z</time>
      </trkpt>
      <trkpt lat="47.84886" lon="6.77492">
        <ele>933</ele>
        <time>2018-06-23T08:56:48.000Z</time>
      </trkpt>
      <trkpt lat="47.84886" lon="6.77491">
        <ele>933</ele>
        <time>2018-06-23T08:56:49.000Z</time>
      </trkpt>
      <trkpt lat="47.84885" lon="6.7749">
        <ele>933</ele>
        <time>2018-06-23T08:56:50.000Z</time>
      </trkpt>
      <trkpt lat="47.84884" lon="6.77489">
        <ele>933</ele>
        <time>2018-06-23T08:56:51.000Z</time>
      </trkpt>
      <trkpt lat="47.84883" lon="6.77488">
        <ele>933</ele>
        <time>2018-06-23T08:56:52.000Z</time>
      </trkpt>
      <trkpt lat="47.84883" lon="6.77487">
        <ele>933</ele>
        <time>2018-06-23T08:56:53.000Z</time>
      </trkpt>
      <trkpt lat="47.84882" lon="6.77486">
        <ele>933</ele>
        <time>2018-06-23T08:56:54.000Z</time>
      </trkpt>
      <trkpt lat="47.84882" lon="6.77485">
        <ele>933</ele>
        <time>2018-06-23T08:56:55.000Z</time>
      </trkpt>
      <trkpt lat="47.84881" lon="6.77484">
        <ele>933</ele>
        <time>2018-06-23T08:56:56.000Z</time>
      </trkpt>
      <trkpt lat="47.84881" lon="6.77482">
        <ele>933</ele>
        <time>2018-06-23T08:56:57.000Z</time>
      </trkpt>
      <trkpt lat="47.8488" lon="6.77481">
        <ele>933</ele>
        <time>2018-06-23T08:56:58.000Z</time>
      </trkpt>
      <trkpt lat="47.8488" lon="6.7748">
        <ele>933</ele>
        <time>2018-06-23T08:56:59.000Z</time>
      </trkpt>
      <trkpt lat="47.8488" lon="6.77479">
        <ele>933</ele>
        <time>2018-06-23T08:57:00.000Z</time>
      </trkpt>
      <trkpt lat="47.84879" lon="6.77477">
        <ele>933</ele>
        <time>2018-06-23T08:57:01.000Z</time>
      </trkpt>
      <trkpt lat="47.84878" lon="6.77476">
        <ele>933</ele>
        <time>2018-06-23T08:57:02.000Z</time>
      </trkpt>
      <trkpt lat="47.84878" lon="6.77475">
        <ele>933</ele>
        <time>2018-06-23T08:57:03.000Z</time>
      </trkpt>
      <trkpt lat="47.84877" lon="6.77474">
        <ele>933</ele>
        <time>2018-06-23T08:57:04.000Z</time>
      </trkpt>
      <trkpt lat="47.84877" lon="6.77473">
        <ele>932</ele>
        <time>2018-06-23T08:57:05.000Z</time>
      </trkpt>
      <trkpt lat="47.84877" lon="6.77473">
        <ele>932</ele>
        <time>2018-06-23T08:57:06.000Z</time>
      </trkpt>
      <trkpt lat="47.84876" lon="6.77472">
        <ele>932</ele>
        <time>2018-06-23T08:57:07.000Z</time>
      </trkpt>
      <trkpt lat="47.84875" lon="6.77471">
        <ele>932</ele>
        <time>2018-06-23T08:57:08.000Z</time>
      </trkpt>
      <trkpt lat="47.84875" lon="6.7747">
        <ele>932</ele>
        <time>2018-06-23T08:57:09.000Z</time>
      </trkpt>
      <trkpt lat="47.84874" lon="6.77469">
        <ele>932</ele>
        <time>2018-06-23T08:57:10.000Z</time>
      </trkpt>
      <trkpt lat="47.84874" lon="6.77468">
        <ele>932</ele>
        <time>2018-06-23T08:57:11.000Z</time>
      </trkpt>
      <trkpt lat="47.84873" lon="6.77467">
        <ele>932</ele>
        <time>2018-06-23T08:57:12.000Z</time>
      </trkpt>
      <trkpt lat="47.84873" lon="6.77466">
        <ele>932</ele>
        <time>2018-06-23T08:57:13.000Z</time>
      </trkpt>
      <trkpt lat="47.84872" lon="6.77464">
        <ele>932</ele>
        <time>2018-06-23T08:57:14.000Z</time>
      </trkpt>
      <trkpt lat="47.84872" lon="6.77463">
        <ele>932</ele>
        <time>2018-06-23T08:57:15.000Z</time>
      </trkpt>
      <trkpt lat="47.84872" lon="6.77461">
        <ele>932</ele>
        <time>2018-06-23T08:57:16.000Z</time>
      </trkpt>
      <trkpt lat="47.84871" lon="6.77459">
        <ele>932</ele>
        <time>2018-06-23T08:57:17.000Z</time>
      </trkpt>
      <trkpt lat="47.84871" lon="6.77458">
        <ele>932</ele>
        <time>2018-06-23T08:57:18.000Z</time>
      </trkpt>
      <trkpt lat="47.8487" lon="6.77457">
        <ele>932</ele>
        <time>2018-06-23T08:57:19.000Z</time>
      </trkpt>
      <trkpt lat="47.8487" lon="6.77455">
        <ele>932</ele>
        <time>2018-06-23T08:57:20.000Z</time>
      </trkpt>
      <trkpt lat="47.84869" lon="6.77454">
        <ele>932</ele>
        <time>2018-06-23T08:57:21.000Z</time>
      </trkpt>
      <trkpt lat="47.84868" lon="6.77452">
        <ele>932</ele>
        <time>2018-06-23T08:57:22.000Z</time>
      </trkpt>
      <trkpt lat="47.84867" lon="6.77451">
        <ele>932</ele>
        <time>2018-06-23T08:57:23.000Z</time>
      </trkpt>
      <trkpt lat="47.84867" lon="6.77449">
        <ele>932</ele>
        <time>2018-06-23T08:57:24.000Z</time>
      </trkpt>
      <trkpt lat="47.84866" lon="6.77448">
        <ele>932</ele>
        <time>2018-06-23T08:57:25.000Z</time>
      </trkpt>
      <trkpt lat="47.84865" lon="6.77447">
        <ele>932</ele>
        <time>2018-06-23T08:57:26.000Z</time>
      </trkpt>
      <trkpt lat="47.84865" lon="6.77445">
        <ele>932</ele>
        <time>2018-06-23T08:57:27.000Z</time>
      </trkpt>
      <trkpt lat="47.84865" lon="6.77443">
        <ele>932</ele>
        <time>2018-06-23T08:57:28.000Z</time>
      </trkpt>
      <trkpt lat="47.84865" lon="6.77441">
        <ele>932</ele>
        <time>2018-06-23T08:57:29.000Z</time>
      </trkpt>
      <trkpt lat="47.84865" lon="6.77439">
        <ele>932</ele>
        <time>2018-06-23T08:57:30.000Z</time>
      </trkpt>
      <trkpt lat="47.84865" lon="6.77437">
        <ele>933</ele>
        <time>2018-06-23T08:57:31.000Z</time>
      </trkpt>
      <trkpt lat="47.84865" lon="6.77435">
        <ele>933</ele>
        <time>2018-06-23T08:57:32.000Z</time>
      </trkpt>
      <trkpt lat="47.84864" lon="6.77433">
        <ele>933</ele>
        <time>2018-06-23T08:57:33.000Z</time>
      </trkpt>
      <trkpt lat="47.84864" lon="6.77431">
        <ele>933</ele>
        <time>2018-06-23T08:57:34.000Z</time>
      </trkpt>
      <trkpt lat="47.84864" lon="6.77429">
        <ele>933</ele>
        <time>2018-06-23T08:57:35.000Z</time>
      </trkpt>
      <trkpt lat="47.84864" lon="6.77427">
        <ele>933</ele>
        <time>2018-06-23T08:57:36.000Z</time>
      </trkpt>
      <trkpt lat="47.84864" lon="6.77426">
        <ele>933</ele>
        <time>2018-06-23T08:57:37.000Z</time>
      </trkpt>
      <trkpt lat="47.84864" lon="6.77425">
        <ele>933</ele>
        <time>2018-06-23T08:57:38.000Z</time>
      </trkpt>
      <trkpt lat="47.84864" lon="6.77423">
        <ele>933</ele>
        <time>2018-06-23T08:57:39.000Z</time>
      </trkpt>
      <trkpt lat="47.84864" lon="6.77421">
        <ele>933</ele>
        <time>2018-06-23T08:57:40.000Z</time>
      </trkpt>
      <trkpt lat="47.84864" lon="6.7742">
        <ele>933</ele>
        <time>2018-06-23T08:57:41.000Z</time>
      </trkpt>
      <trkpt lat="47.84864" lon="6.77418">
        <ele>933</ele>
        <time>2018-06-23T08:57:42.000Z</time>
      </trkpt>
      <trkpt lat="47.84864" lon="6.77416">
        <ele>932</ele>
        <time>2018-06-23T08:57:43.000Z</time>
      </trkpt>
      <trkpt lat="47.84864" lon="6.77415">
        <ele>932</ele>
        <time>2018-06-23T08:57:44.000Z</time>
      </trkpt>
      <trkpt lat="47.84864" lon="6.77413">
        <ele>932</ele>
        <time>2018-06-23T08:57:45.000Z</time>
      </trkpt>
      <trkpt lat="47.84864" lon="6.77411">
        <ele>932</ele>
        <time>2018-06-23T08:57:46.000Z</time>
      </trkpt>
      <trkpt lat="47.84864" lon="6.77409">
        <ele>932</ele>
        <time>2018-06-23T08:57:47.000Z</time>
      </trkpt>
      <trkpt lat="47.84865" lon="6.77407">
        <ele>932</ele>
        <time>2018-06-23T08:57:48.000Z</time>
      </trkpt>
      <trkpt lat="47.84865" lon="6.77405">
        <ele>932</ele>
        <time>2018-06-23T08:57:49.000Z</time>
      </trkpt>
      <trkpt lat="47.84865" lon="6.77403">
        <ele>932</ele>
        <time>2018-06-23T08:57:50.000Z</time>
      </trkpt>
      <trkpt lat="47.84865" lon="6.77401">
        <ele>932</ele>
        <time>2018-06-23T08:57:51.000Z</time>
      </trkpt>
      <trkpt lat="47.84866" lon="6.77399">
        <ele>932</ele>
        <time>2018-06-23T08:57:52.000Z</time>
      </trkpt>
      <trkpt lat="47.84866" lon="6.77397">
        <ele>932</ele>
        <time>2018-06-23T08:57:53.000Z</time>
      </trkpt>
      <trkpt lat="47.84866" lon="6.77396">
        <ele>932</ele>
        <time>2018-06-23T08:57:54.000Z</time>
      </trkpt>
      <trkpt lat="47.84867" lon="6.77394">
        <ele>932</ele>
        <time>2018-06-23T08:57:55.000Z</time>
      </trkpt>
      <trkpt lat="47.84867" lon="6.77392">
        <ele>932</ele>
        <time>2018-06-23T08:57:56.000Z</time>
      </trkpt>
      <trkpt lat="47.84867" lon="6.77391">
        <ele>932</ele>
        <time>2018-06-23T08:57:57.000Z</time>
      </trkpt>
      <trkpt lat="47.84868" lon="6.77389">
        <ele>932</ele>
        <time>2018-06-23T08:57:58.000Z</time>
      </trkpt>
      <trkpt lat="47.84868" lon="6.77387">
        <ele>932</ele>
        <time>2018-06-23T08:57:59.000Z</time>
      </trkpt>
      <trkpt lat="47.84869" lon="6.77386">
        <ele>932</ele>
        <time>2018-06-23T08:58:00.000Z</time>
      </trkpt>
      <trkpt lat="47.84869" lon="6.77384">
        <ele>931</ele>
        <time>2018-06-23T08:58:01.000Z</time>
      </trkpt>
      <trkpt lat="47.8487" lon="6.77383">
        <ele>931</ele>
        <time>2018-06-23T08:58:02.000Z</time>
      </trkpt>
      <trkpt lat="47.8487" lon="6.77381">
        <ele>931</ele>
        <time>2018-06-23T08:58:03.000Z</time>
      </trkpt>
      <trkpt lat="47.8487" lon="6.77379">
        <ele>931</ele>
        <time>2018-06-23T08:58:04.000Z</time>
      </trkpt>
      <trkpt lat="47.8487" lon="6.77377">
        <ele>931</ele>
        <time>2018-06-23T08:58:05.000Z</time>
      </trkpt>
      <trkpt lat="47.8487" lon="6.77375">
        <ele>931</ele>
        <time>2018-06-23T08:58:06.000Z</time>
      </trkpt>
      <trkpt lat="47.84871" lon="6.77373">
        <ele>931</ele>
        <time>2018-06-23T08:58:07.000Z</time>
      </trkpt>
      <trkpt lat="47.84871" lon="6.77371">
        <ele>931</ele>
        <time>2018-06-23T08:58:08.000Z</time>
      </trkpt>
      <trkpt lat="47.84871" lon="6.77369">
        <ele>931</ele>
        <time>2018-06-23T08:58:09.000Z</time>
      </trkpt>
      <trkpt lat="47.84872" lon="6.77367">
        <ele>931</ele>
        <time>2018-06-23T08:58:10.000Z</time>
      </trkpt>
      <trkpt lat="47.84872" lon="6.77365">
        <ele>931</ele>
        <time>2018-06-23T08:58:11.000Z</time>
      </trkpt>
      <trkpt lat="47.84872" lon="6.77364">
        <ele>931</ele>
        <time>2018-06-23T08:58:12.000Z</time>
      </trkpt>
      <trkpt lat="47.84872" lon="6.77362">
        <ele>931</ele>
        <time>2018-06-23T08:58:13.000Z</time>
      </trkpt>
      <trkpt lat="47.84872" lon="6.7736">
        <ele>931</ele>
        <time>2018-06-23T08:58:14.000Z</time>
      </trkpt>
      <trkpt lat="47.84873" lon="6.77359">
        <ele>931</ele>
        <time>2018-06-23T08:58:15.000Z</time>
      </trkpt>
      <trkpt lat="47.84873" lon="6.77357">
        <ele>931</ele>
        <time>2018-06-23T08:58:16.000Z</time>
      </trkpt>
      <trkpt lat="47.84873" lon="6.77355">
        <ele>931</ele>
        <time>2018-06-23T08:58:17.000Z</time>
      </trkpt>
      <trkpt lat="47.84873" lon="6.77354">
        <ele>931</ele>
        <time>2018-06-23T08:58:18.000Z</time>
      </trkpt>
      <trkpt lat="47.84872" lon="6.77352">
        <ele>931</ele>
        <time>2018-06-23T08:58:19.000Z</time>
      </trkpt>
      <trkpt lat="47.84872" lon="6.7735">
        <ele>931</ele>
        <time>2018-06-23T08:58:20.000Z</time>
      </trkpt>
      <trkpt lat="47.84872" lon="6.77348">
        <ele>931</ele>
        <time>2018-06-23T08:58:21.000Z</time>
      </trkpt>
      <trkpt lat="47.84871" lon="6.77346">
        <ele>931</ele>
        <time>2018-06-23T08:58:22.000Z</time>
      </trkpt>
      <trkpt lat="47.8487" lon="6.77343">
        <ele>931</ele>
        <time>2018-06-23T08:58:23.000Z</time>
      </trkpt>
      <trkpt lat="47.84869" lon="6.77341">
        <ele>931</ele>
        <time>2018-06-23T08:58:24.000Z</time>
      </trkpt>
      <trkpt lat="47.84869" lon="6.7734">
        <ele>931</ele>
        <time>2018-06-23T08:58:25.000Z</time>
      </trkpt>
      <trkpt lat="47.84868" lon="6.77338">
        <ele>931</ele>
        <time>2018-06-23T08:58:26.000Z</time>
      </trkpt>
      <trkpt lat="47.84869" lon="6.77336">
        <ele>931</ele>
        <time>2018-06-23T08:58:27.000Z</time>
      </trkpt>
      <trkpt lat="47.84869" lon="6.77334">
        <ele>931</ele>
        <time>2018-06-23T08:58:28.000Z</time>
      </trkpt>
      <trkpt lat="47.84869" lon="6.77333">
        <ele>929</ele>
        <time>2018-06-23T08:58:29.000Z</time>
      </trkpt>
      <trkpt lat="47.84869" lon="6.77331">
        <ele>929</ele>
        <time>2018-06-23T08:58:30.000Z</time>
      </trkpt>
      <trkpt lat="47.84869" lon="6.77329">
        <ele>929</ele>
        <time>2018-06-23T08:58:31.000Z</time>
      </trkpt>
      <trkpt lat="47.84869" lon="6.77328">
        <ele>929</ele>
        <time>2018-06-23T08:58:32.000Z</time>
      </trkpt>
      <trkpt lat="47.84869" lon="6.77327">
        <ele>929</ele>
        <time>2018-06-23T08:58:33.000Z</time>
      </trkpt>
      <trkpt lat="47.84869" lon="6.77326">
        <ele>929</ele>
        <time>2018-06-23T08:58:34.000Z</time>
      </trkpt>
      <trkpt lat="47.84869" lon="6.77324">
        <ele>929</ele>
        <time>2018-06-23T08:58:35.000Z</time>
      </trkpt>
      <trkpt lat="47.84869" lon="6.77323">
        <ele>929</ele>
        <time>2018-06-23T08:58:36.000Z</time>
      </trkpt>
      <trkpt lat="47.84868" lon="6.77322">
        <ele>929</ele>
        <time>2018-06-23T08:58:37.000Z</time>
      </trkpt>
      <trkpt lat="47.84868" lon="6.7732">
        <ele>929</ele>
        <time>2018-06-23T08:58:38.000Z</time>
      </trkpt>
      <trkpt lat="47.84868" lon="6.77319">
        <ele>929</ele>
        <time>2018-06-23T08:58:39.000Z</time>
      </trkpt>
      <trkpt lat="47.84867" lon="6.77318">
        <ele>929</ele>
        <time>2018-06-23T08:58:40.000Z</time>
      </trkpt>
      <trkpt lat="47.84866" lon="6.77317">
        <ele>929</ele>
        <time>2018-06-23T08:58:41.000Z</time>
      </trkpt>
      <trkpt lat="47.84865" lon="6.77316">
        <ele>929</ele>
        <time>2018-06-23T08:58:42.000Z</time>
      </trkpt>
      <trkpt lat="47.84865" lon="6.77315">
        <ele>929</ele>
        <time>2018-06-23T08:58:43.000Z</time>
      </trkpt>
      <trkpt lat="47.84865" lon="6.77313">
        <ele>929</ele>
        <time>2018-06-23T08:58:44.000Z</time>
      </trkpt>
      <trkpt lat="47.84864" lon="6.77311">
        <ele>929</ele>
        <time>2018-06-23T08:58:45.000Z</time>
      </trkpt>
      <trkpt lat="47.84864" lon="6.77309">
        <ele>929</ele>
        <time>2018-06-23T08:58:46.000Z</time>
      </trkpt>
      <trkpt lat="47.84865" lon="6.77308">
        <ele>929</ele>
        <time>2018-06-23T08:58:47.000Z</time>
      </trkpt>
      <trkpt lat="47.84865" lon="6.77306">
        <ele>929</ele>
        <time>2018-06-23T08:58:48.000Z</time>
      </trkpt>
      <trkpt lat="47.84866" lon="6.77304">
        <ele>929</ele>
        <time>2018-06-23T08:58:49.000Z</time>
      </trkpt>
      <trkpt lat="47.84866" lon="6.77302">
        <ele>929</ele>
        <time>2018-06-23T08:58:50.000Z</time>
      </trkpt>
      <trkpt lat="47.84867" lon="6.77301">
        <ele>929</ele>
        <time>2018-06-23T08:58:51.000Z</time>
      </trkpt>
      <trkpt lat="47.84867" lon="6.77299">
        <ele>929</ele>
        <time>2018-06-23T08:58:52.000Z</time>
      </trkpt>
      <trkpt lat="47.84867" lon="6.77297">
        <ele>929</ele>
        <time>2018-06-23T08:58:53.000Z</time>
      </trkpt>
      <trkpt lat="47.84867" lon="6.77295">
        <ele>929</ele>
        <time>2018-06-23T08:58:54.000Z</time>
      </trkpt>
      <trkpt lat="47.84867" lon="6.77292">
        <ele>929</ele>
        <time>2018-06-23T08:58:55.000Z</time>
      </trkpt>
      <trkpt lat="47.84867" lon="6.7729">
        <ele>929</ele>
        <time>2018-06-23T08:58:56.000Z</time>
      </trkpt>
      <trkpt lat="47.84866" lon="6.77288">
        <ele>929</ele>
        <time>2018-06-23T08:58:57.000Z</time>
      </trkpt>
      <trkpt lat="47.84866" lon="6.77287">
        <ele>929</ele>
        <time>2018-06-23T08:58:58.000Z</time>
      </trkpt>
      <trkpt lat="47.84865" lon="6.77285">
        <ele>929</ele>
        <time>2018-06-23T08:58:59.000Z</time>
      </trkpt>
      <trkpt lat="47.84864" lon="6.77284">
        <ele>929</ele>
        <time>2018-06-23T08:59:00.000Z</time>
      </trkpt>
      <trkpt lat="47.84863" lon="6.77281">
        <ele>929</ele>
        <time>2018-06-23T08:59:01.000Z</time>
      </trkpt>
      <trkpt lat="47.84862" lon="6.7728">
        <ele>929</ele>
        <time>2018-06-23T08:59:02.000Z</time>
      </trkpt>
      <trkpt lat="47.84861" lon="6.77278">
        <ele>929</ele>
        <time>2018-06-23T08:59:03.000Z</time>
      </trkpt>
      <trkpt lat="47.8486" lon="6.77277">
        <ele>929</ele>
        <time>2018-06-23T08:59:04.000Z</time>
      </trkpt>
      <trkpt lat="47.8486" lon="6.77275">
        <ele>929</ele>
        <time>2018-06-23T08:59:05.000Z</time>
      </trkpt>
      <trkpt lat="47.8486" lon="6.77274">
        <ele>929</ele>
        <time>2018-06-23T08:59:06.000Z</time>
      </trkpt>
      <trkpt lat="47.8486" lon="6.77273">
        <ele>929</ele>
        <time>2018-06-23T08:59:07.000Z</time>
      </trkpt>
      <trkpt lat="47.84859" lon="6.77271">
        <ele>929</ele>
        <time>2018-06-23T08:59:08.000Z</time>
      </trkpt>
      <trkpt lat="47.84859" lon="6.7727">
        <ele>929</ele>
        <time>2018-06-23T08:59:09.000Z</time>
      </trkpt>
      <trkpt lat="47.84859" lon="6.77269">
        <ele>929</ele>
        <time>2018-06-23T08:59:10.000Z</time>
      </trkpt>
      <trkpt lat="47.84858" lon="6.77268">
        <ele>929</ele>
        <time>2018-06-23T08:59:11.000Z</time>
      </trkpt>
      <trkpt lat="47.84858" lon="6.77267">
        <ele>929</ele>
        <time>2018-06-23T08:59:12.000Z</time>
      </trkpt>
      <trkpt lat="47.84858" lon="6.77266">
        <ele>929</ele>
        <time>2018-06-23T08:59:13.000Z</time>
      </trkpt>
      <trkpt lat="47.84857" lon="6.77264">
        <ele>929</ele>
        <time>2018-06-23T08:59:14.000Z</time>
      </trkpt>
      <trkpt lat="47.84857" lon="6.77263">
        <ele>929</ele>
        <time>2018-06-23T08:59:15.000Z</time>
      </trkpt>
      <trkpt lat="47.84856" lon="6.77261">
        <ele>929</ele>
        <time>2018-06-23T08:59:16.000Z</time>
      </trkpt>
      <trkpt lat="47.84856" lon="6.7726">
        <ele>929</ele>
        <time>2018-06-23T08:59:17.000Z</time>
      </trkpt>
      <trkpt lat="47.84855" lon="6.77259">
        <ele>929</ele>
        <time>2018-06-23T08:59:18.000Z</time>
      </trkpt>
      <trkpt lat="47.84854" lon="6.77257">
        <ele>929</ele>
        <time>2018-06-23T08:59:19.000Z</time>
      </trkpt>
      <trkpt lat="47.84854" lon="6.77256">
        <ele>929</ele>
        <time>2018-06-23T08:59:20.000Z</time>
      </trkpt>
      <trkpt lat="47.84853" lon="6.77254">
        <ele>929</ele>
        <time>2018-06-23T08:59:21.000Z</time>
      </trkpt>
      <trkpt lat="47.84852" lon="6.77253">
        <ele>929</ele>
        <time>2018-06-23T08:59:22.000Z</time>
      </trkpt>
      <trkpt lat="47.84852" lon="6.77252">
        <ele>929</ele>
        <time>2018-06-23T08:59:23.000Z</time>
      </trkpt>
      <trkpt lat="47.84852" lon="6.7725">
        <ele>930</ele>
        <time>2018-06-23T08:59:24.000Z</time>
      </trkpt>
      <trkpt lat="47.84852" lon="6.77248">
        <ele>930</ele>
        <time>2018-06-23T08:59:25.000Z</time>
      </trkpt>
      <trkpt lat="47.84852" lon="6.77247">
        <ele>930</ele>
        <time>2018-06-23T08:59:26.000Z</time>
      </trkpt>
      <trkpt lat="47.84851" lon="6.77245">
        <ele>930</ele>
        <time>2018-06-23T08:59:27.000Z</time>
      </trkpt>
      <trkpt lat="47.84851" lon="6.77243">
        <ele>930</ele>
        <time>2018-06-23T08:59:28.000Z</time>
      </trkpt>
      <trkpt lat="47.84851" lon="6.77242">
        <ele>930</ele>
        <time>2018-06-23T08:59:29.000Z</time>
      </trkpt>
      <trkpt lat="47.84851" lon="6.7724">
        <ele>930</ele>
        <time>2018-06-23T08:59:30.000Z</time>
      </trkpt>
      <trkpt lat="47.84851" lon="6.77238">
        <ele>930</ele>
        <time>2018-06-23T08:59:31.000Z</time>
      </trkpt>
      <trkpt lat="47.84851" lon="6.77236">
        <ele>930</ele>
        <time>2018-06-23T08:59:32.000Z</time>
      </trkpt>
      <trkpt lat="47.84852" lon="6.77234">
        <ele>930</ele>
        <time>2018-06-23T08:59:33.000Z</time>
      </trkpt>
      <trkpt lat="47.84853" lon="6.77232">
        <ele>930</ele>
        <time>2018-06-23T08:59:34.000Z</time>
      </trkpt>
      <trkpt lat="47.84853" lon="6.7723">
        <ele>930</ele>
        <time>2018-06-23T08:59:35.000Z</time>
      </trkpt>
      <trkpt lat="47.84854" lon="6.77228">
        <ele>930</ele>
        <time>2018-06-23T08:59:36.000Z</time>
      </trkpt>
      <trkpt lat="47.84855" lon="6.77227">
        <ele>930</ele>
        <time>2018-06-23T08:59:37.000Z</time>
      </trkpt>
      <trkpt lat="47.84856" lon="6.77225">
        <ele>930</ele>
        <time>2018-06-23T08:59:38.000Z</time>
      </trkpt>
      <trkpt lat="47.84857" lon="6.77224">
        <ele>930</ele>
        <time>2018-06-23T08:59:39.000Z</time>
      </trkpt>
      <trkpt lat="47.84857" lon="6.77222">
        <ele>930</ele>
        <time>2018-06-23T08:59:40.000Z</time>
      </trkpt>
      <trkpt lat="47.84858" lon="6.77219">
        <ele>930</ele>
        <time>2018-06-23T08:59:41.000Z</time>
      </trkpt>
      <trkpt lat="47.84858" lon="6.77218">
        <ele>930</ele>
        <time>2018-06-23T08:59:42.000Z</time>
      </trkpt>
      <trkpt lat="47.84859" lon="6.77216">
        <ele>930</ele>
        <time>2018-06-23T08:59:43.000Z</time>
      </trkpt>
      <trkpt lat="47.8486" lon="6.77214">
        <ele>930</ele>
        <time>2018-06-23T08:59:44.000Z</time>
      </trkpt>
      <trkpt lat="47.8486" lon="6.77212">
        <ele>930</ele>
        <time>2018-06-23T08:59:45.000Z</time>
      </trkpt>
      <trkpt lat="47.84861" lon="6.7721">
        <ele>930</ele>
        <time>2018-06-23T08:59:46.000Z</time>
      </trkpt>
      <trkpt lat="47.84862" lon="6.77209">
        <ele>930</ele>
        <time>2018-06-23T08:59:47.000Z</time>
      </trkpt>
      <trkpt lat="47.84862" lon="6.77207">
        <ele>930</ele>
        <time>2018-06-23T08:59:48.000Z</time>
      </trkpt>
      <trkpt lat="47.84863" lon="6.77206">
        <ele>930</ele>
        <time>2018-06-23T08:59:49.000Z</time>
      </trkpt>
      <trkpt lat="47.84863" lon="6.77205">
        <ele>930</ele>
        <time>2018-06-23T08:59:50.000Z</time>
      </trkpt>
      <trkpt lat="47.84863" lon="6.77203">
        <ele>930</ele>
        <time>2018-06-23T08:59:51.000Z</time>
      </trkpt>
      <trkpt lat="47.84863" lon="6.77201">
        <ele>930</ele>
        <time>2018-06-23T08:59:52.000Z</time>
      </trkpt>
      <trkpt lat="47.84863" lon="6.77199">
        <ele>930</ele>
        <time>2018-06-23T08:59:53.000Z</time>
      </trkpt>
      <trkpt lat="47.84863" lon="6.77197">
        <ele>930</ele>
        <time>2018-06-23T08:59:54.000Z</time>
      </trkpt>
      <trkpt lat="47.84863" lon="6.77195">
        <ele>930</ele>
        <time>2018-06-23T08:59:55.000Z</time>
      </trkpt>
      <trkpt lat="47.84864" lon="6.77194">
        <ele>930</ele>
        <time>2018-06-23T08:59:56.000Z</time>
      </trkpt>
      <trkpt lat="47.84864" lon="6.77192">
        <ele>930</ele>
        <time>2018-06-23T08:59:57.000Z</time>
      </trkpt>
      <trkpt lat="47.84864" lon="6.7719">
        <ele>930</ele>
        <time>2018-06-23T08:59:58.000Z</time>
      </trkpt>
      <trkpt lat="47.84864" lon="6.77189">
        <ele>930</ele>
        <time>2018-06-23T08:59:59.000Z</time>
      </trkpt>
      <trkpt lat="47.84865" lon="6.77187">
        <ele>930</ele>
        <time>2018-06-23T09:00:00.000Z</time>
      </trkpt>
      <trkpt lat="47.84865" lon="6.77184">
        <ele>930</ele>
        <time>2018-06-23T09:00:01.000Z</time>
      </trkpt>
      <trkpt lat="47.84866" lon="6.77182">
        <ele>930</ele>
        <time>2018-06-23T09:00:02.000Z</time>
      </trkpt>
      <trkpt lat="47.84867" lon="6.77181">
        <ele>930</ele>
        <time>2018-06-23T09:00:03.000Z</time>
      </trkpt>
      <trkpt lat="47.84867" lon="6.77179">
        <ele>930</ele>
        <time>2018-06-23T09:00:04.000Z</time>
      </trkpt>
      <trkpt lat="47.84868" lon="6.77177">
        <ele>930</ele>
        <time>2018-06-23T09:00:05.000Z</time>
      </trkpt>
      <trkpt lat="47.84868" lon="6.77175">
        <ele>930</ele>
        <time>2018-06-23T09:00:06.000Z</time>
      </trkpt>
      <trkpt lat="47.84869" lon="6.77173">
        <ele>930</ele>
        <time>2018-06-23T09:00:07.000Z</time>
      </trkpt>
      <trkpt lat="47.84869" lon="6.77172">
        <ele>930</ele>
        <time>2018-06-23T09:00:08.000Z</time>
      </trkpt>
      <trkpt lat="47.8487" lon="6.7717">
        <ele>930</ele>
        <time>2018-06-23T09:00:09.000Z</time>
      </trkpt>
      <trkpt lat="47.8487" lon="6.77169">
        <ele>930</ele>
        <time>2018-06-23T09:00:10.000Z</time>
      </trkpt>
      <trkpt lat="47.84871" lon="6.77167">
        <ele>930</ele>
        <time>2018-06-23T09:00:11.000Z</time>
      </trkpt>
      <trkpt lat="47.84871" lon="6.77166">
        <ele>931</ele>
        <time>2018-06-23T09:00:12.000Z</time>
      </trkpt>
      <trkpt lat="47.84872" lon="6.77164">
        <ele>931</ele>
        <time>2018-06-23T09:00:13.000Z</time>
      </trkpt>
      <trkpt lat="47.84873" lon="6.77163">
        <ele>931</ele>
        <time>2018-06-23T09:00:14.000Z</time>
      </trkpt>
      <trkpt lat="47.84874" lon="6.77161">
        <ele>931</ele>
        <time>2018-06-23T09:00:15.000Z</time>
      </trkpt>
      <trkpt lat="47.84875" lon="6.7716">
        <ele>931</ele>
        <time>2018-06-23T09:00:16.000Z</time>
      </trkpt>
      <trkpt lat="47.84875" lon="6.77159">
        <ele>931</ele>
        <time>2018-06-23T09:00:17.000Z</time>
      </trkpt>
      <trkpt lat="47.84876" lon="6.77157">
        <ele>931</ele>
        <time>2018-06-23T09:00:18.000Z</time>
      </trkpt>
      <trkpt lat="47.84877" lon="6.77155">
        <ele>931</ele>
        <time>2018-06-23T09:00:19.000Z</time>
      </trkpt>
      <trkpt lat="47.84878" lon="6.77154">
        <ele>931</ele>
        <time>2018-06-23T09:00:20.000Z</time>
      </trkpt>
      <trkpt lat="47.84878" lon="6.77152">
        <ele>931</ele>
        <time>2018-06-23T09:00:21.000Z</time>
      </trkpt>
      <trkpt lat="47.84878" lon="6.77151">
        <ele>931</ele>
        <time>2018-06-23T09:00:22.000Z</time>
      </trkpt>
      <trkpt lat="47.84879" lon="6.77149">
        <ele>931</ele>
        <time>2018-06-23T09:00:23.000Z</time>
      </trkpt>
      <trkpt lat="47.84879" lon="6.77147">
        <ele>931</ele>
        <time>2018-06-23T09:00:24.000Z</time>
      </trkpt>
      <trkpt lat="47.84879" lon="6.77146">
        <ele>931</ele>
        <time>2018-06-23T09:00:25.000Z</time>
      </trkpt>
      <trkpt lat="47.84879" lon="6.77145">
        <ele>931</ele>
        <time>2018-06-23T09:00:26.000Z</time>
      </trkpt>
      <trkpt lat="47.84879" lon="6.77144">
        <ele>931</ele>
        <time>2018-06-23T09:00:27.000Z</time>
      </trkpt>
      <trkpt lat="47.84879" lon="6.77142">
        <ele>931</ele>
        <time>2018-06-23T09:00:28.000Z</time>
      </trkpt>
      <trkpt lat="47.8488" lon="6.77141">
        <ele>931</ele>
        <time>2018-06-23T09:00:29.000Z</time>
      </trkpt>
      <trkpt lat="47.8488" lon="6.77139">
        <ele>931</ele>
        <time>2018-06-23T09:00:30.000Z</time>
      </trkpt>
      <trkpt lat="47.8488" lon="6.77138">
        <ele>931</ele>
        <time>2018-06-23T09:00:31.000Z</time>
      </trkpt>
      <trkpt lat="47.8488" lon="6.77137">
        <ele>931</ele>
        <time>2018-06-23T09:00:32.000Z</time>
      </trkpt>
      <trkpt lat="47.84881" lon="6.77135">
        <ele>931</ele>
        <time>2018-06-23T09:00:33.000Z</time>
      </trkpt>
      <trkpt lat="47.84881" lon="6.77134">
        <ele>931</ele>
        <time>2018-06-23T09:00:34.000Z</time>
      </trkpt>
      <trkpt lat="47.84881" lon="6.77132">
        <ele>931</ele>
        <time>2018-06-23T09:00:35.000Z</time>
      </trkpt>
      <trkpt lat="47.84882" lon="6.77131">
        <ele>931</ele>
        <time>2018-06-23T09:00:36.000Z</time>
      </trkpt>
      <trkpt lat="47.84882" lon="6.7713">
        <ele>931</ele>
        <time>2018-06-23T09:00:37.000Z</time>
      </trkpt>
      <trkpt lat="47.84882" lon="6.77128">
        <ele>931</ele>
        <time>2018-06-23T09:00:38.000Z</time>
      </trkpt>
      <trkpt lat="47.84883" lon="6.77127">
        <ele>931</ele>
        <time>2018-06-23T09:00:39.000Z</time>
      </trkpt>
      <trkpt lat="47.84883" lon="6.77126">
        <ele>931</ele>
        <time>2018-06-23T09:00:40.000Z</time>
      </trkpt>
      <trkpt lat="47.84883" lon="6.77125">
        <ele>931</ele>
        <time>2018-06-23T09:00:41.000Z</time>
      </trkpt>
      <trkpt lat="47.84883" lon="6.77124">
        <ele>931</ele>
        <time>2018-06-23T09:00:42.000Z</time>
      </trkpt>
      <trkpt lat="47.84883" lon="6.77124">
        <ele>931</ele>
        <time>2018-06-23T09:00:43.000Z</time>
      </trkpt>
      <trkpt lat="47.84883" lon="6.77123">
        <ele>931</ele>
        <time>2018-06-23T09:00:44.000Z</time>
      </trkpt>
      <trkpt lat="47.84884" lon="6.77123">
        <ele>931</ele>
        <time>2018-06-23T09:00:45.000Z</time>
      </trkpt>
      <trkpt lat="47.84884" lon="6.77122">
        <ele>931</ele>
        <time>2018-06-23T09:00:46.000Z</time>
      </trkpt>
      <trkpt lat="47.84884" lon="6.77122">
        <ele>931</ele>
        <time>2018-06-23T09:00:47.000Z</time>
      </trkpt>
      <trkpt lat="47.84884" lon="6.77121">
        <ele>931</ele>
        <time>2018-06-23T09:00:48.000Z</time>
      </trkpt>
      <trkpt lat="47.84884" lon="6.77121">
        <ele>931</ele>
        <time>2018-06-23T09:00:49.000Z</time>
      </trkpt>
      <trkpt lat="47.84884" lon="6.7712">
        <ele>931</ele>
        <time>2018-06-23T09:00:50.000Z</time>
      </trkpt>
      <trkpt lat="47.84884" lon="6.7712">
        <ele>931</ele>
        <time>2018-06-23T09:00:51.000Z</time>
      </trkpt>
      <trkpt lat="47.84884" lon="6.7712">
        <ele>931</ele>
        <time>2018-06-23T09:00:52.000Z</time>
      </trkpt>
      <trkpt lat="47.84883" lon="6.77119">
        <ele>931</ele>
        <time>2018-06-23T09:00:53.000Z</time>
      </trkpt>
      <trkpt lat="47.84883" lon="6.77119">
        <ele>931</ele>
        <time>2018-06-23T09:00:54.000Z</time>
      </trkpt>
      <trkpt lat="47.84883" lon="6.77119">
        <ele>931</ele>
        <time>2018-06-23T09:00:55.000Z</time>
      </trkpt>
      <trkpt lat="47.84883" lon="6.77119">
        <ele>931</ele>
        <time>2018-06-23T09:00:56.000Z</time>
      </trkpt>
      <trkpt lat="47.84883" lon="6.77118">
        <ele>931</ele>
        <time>2018-06-23T09:00:57.000Z</time>
      </trkpt>
      <trkpt lat="47.84883" lon="6.77118">
        <ele>931</ele>
        <time>2018-06-23T09:00:58.000Z</time>
      </trkpt>
      <trkpt lat="47.84883" lon="6.77118">
        <ele>931</ele>
        <time>2018-06-23T09:00:59.000Z</time>
      </trkpt>
      <trkpt lat="47.84883" lon="6.77118">
        <ele>931</ele>
        <time>2018-06-23T09:01:00.000Z</time>
      </trkpt>
      <trkpt lat="47.84883" lon="6.77118">
        <ele>931</ele>
        <time>2018-06-23T09:01:01.000Z</time>
      </trkpt>
      <trkpt lat="47.84883" lon="6.77118">
        <ele>931</ele>
        <time>2018-06-23T09:01:02.000Z</time>
      </trkpt>
      <trkpt lat="47.84883" lon="6.77118">
        <ele>931</ele>
        <time>2018-06-23T09:01:03.000Z</time>
      </trkpt>
      <trkpt lat="47.84883" lon="6.77117">
        <ele>931</ele>
        <time>2018-06-23T09:01:04.000Z</time>
      </trkpt>
      <trkpt lat="47.84883" lon="6.77117">
        <ele>931</ele>
        <time>2018-06-23T09:01:05.000Z</time>
      </trkpt>
      <trkpt lat="47.84883" lon="6.77116">
        <ele>931</ele>
        <time>2018-06-23T09:01:06.000Z</time>
      </trkpt>
      <trkpt lat="47.84883" lon="6.77116">
        <ele>931</ele>
        <time>2018-06-23T09:01:07.000Z</time>
      </trkpt>
      <trkpt lat="47.84883" lon="6.77116">
        <ele>931</ele>
        <time>2018-06-23T09:01:08.000Z</time>
      </trkpt>
      <trkpt lat="47.84883" lon="6.77116">
        <ele>931</ele>
        <time>2018-06-23T09:01:09.000Z</time>
      </trkpt>
      <trkpt lat="47.84883" lon="6.77116">
        <ele>931</ele>
        <time>2018-06-23T09:01:10.000Z</time>
      </trkpt>
      <trkpt lat="47.84883" lon="6.77116">
        <ele>931</ele>
        <time>2018-06-23T09:01:11.000Z</time>
      </trkpt>
      <trkpt lat="47.84883" lon="6.77116">
        <ele>931</ele>
        <time>2018-06-23T09:01:12.000Z</time>
      </trkpt>
      <trkpt lat="47.84883" lon="6.77116">
        <ele>931</ele>
        <time>2018-06-23T09:01:13.000Z</time>
      </trkpt>
      <trkpt lat="47.84883" lon="6.77116">
        <ele>931</ele>
        <time>2018-06-23T09:01:14.000Z</time>
      </trkpt>
      <trkpt lat="47.84883" lon="6.77116">
        <ele>931</ele>
        <time>2018-06-23T09:01:15.000Z</time>
      </trkpt>
      <trkpt lat="47.84883" lon="6.77116">
        <ele>931</ele>
        <time>2018-06-23T09:01:16.000Z</time>
      </trkpt>
      <trkpt lat="47.84882" lon="6.77116">
        <ele>931</ele>
        <time>2018-06-23T09:01:17.000Z</time>
      </trkpt>
      <trkpt lat="47.84882" lon="6.77116">
        <ele>931</ele>
        <time>2018-06-23T09:01:18.000Z</time>
      </trkpt>
      <trkpt lat="47.84882" lon="6.77116">
        <ele>931</ele>
        <time>2018-06-23T09:01:19.000Z</time>
      </trkpt>
      <trkpt lat="47.84882" lon="6.77116">
        <ele>931</ele>
        <time>2018-06-23T09:01:20.000Z</time>
      </trkpt>
      <trkpt lat="47.84883" lon="6.77116">
        <ele>931</ele>
        <time>2018-06-23T09:01:21.000Z</time>
      </trkpt>
      <trkpt lat="47.84883" lon="6.77115">
        <ele>931</ele>
        <time>2018-06-23T09:01:22.000Z</time>
      </trkpt>
      <trkpt lat="47.84883" lon="6.77115">
        <ele>931</ele>
        <time>2018-06-23T09:01:23.000Z</time>
      </trkpt>
      <trkpt lat="47.84883" lon="6.77115">
        <ele>931</ele>
        <time>2018-06-23T09:01:24.000Z</time>
      </trkpt>
      <trkpt lat="47.84883" lon="6.77115">
        <ele>931</ele>
        <time>2018-06-23T09:01:25.000Z</time>
      </trkpt>
      <trkpt lat="47.84883" lon="6.77115">
        <ele>931</ele>
        <time>2018-06-23T09:01:26.000Z</time>
      </trkpt>
      <trkpt lat="47.84883" lon="6.77114">
        <ele>931</ele>
        <time>2018-06-23T09:01:27.000Z</time>
      </trkpt>
      <trkpt lat="47.84883" lon="6.77114">
        <ele>931</ele>
        <time>2018-06-23T09:01:28.000Z</time>
      </trkpt>
      <trkpt lat="47.84883" lon="6.77114">
        <ele>931</ele>
        <time>2018-06-23T09:01:29.000Z</time>
      </trkpt>
      <trkpt lat="47.84883" lon="6.77114">
        <ele>931</ele>
        <time>2018-06-23T09:01:30.000Z</time>
      </trkpt>
      <trkpt lat="47.84883" lon="6.77114">
        <ele>931</ele>
        <time>2018-06-23T09:01:31.000Z</time>
      </trkpt>
      <trkpt lat="47.84882" lon="6.77113">
        <ele>931</ele>
        <time>2018-06-23T09:01:32.000Z</time>
      </trkpt>
      <trkpt lat="47.84882" lon="6.77113">
        <ele>931</ele>
        <time>2018-06-23T09:01:33.000Z</time>
      </trkpt>
      <trkpt lat="47.84882" lon="6.77113">
        <ele>931</ele>
        <time>2018-06-23T09:01:34.000Z</time>
      </trkpt>
      <trkpt lat="47.84882" lon="6.77113">
        <ele>931</ele>
        <time>2018-06-23T09:01:35.000Z</time>
      </trkpt>
      <trkpt lat="47.84882" lon="6.77113">
        <ele>931</ele>
        <time>2018-06-23T09:01:36.000Z</time>
      </trkpt>
      <trkpt lat="47.84882" lon="6.77113">
        <ele>931</ele>
        <time>2018-06-23T09:01:37.000Z</time>
      </trkpt>
      <trkpt lat="47.84882" lon="6.77113">
        <ele>931</ele>
        <time>2018-06-23T09:01:38.000Z</time>
      </trkpt>
      <trkpt lat="47.84882" lon="6.77113">
        <ele>931</ele>
        <time>2018-06-23T09:01:39.000Z</time>
      </trkpt>
      <trkpt lat="47.84882" lon="6.77112">
        <ele>931</ele>
        <time>2018-06-23T09:01:40.000Z</time>
      </trkpt>
      <trkpt lat="47.84882" lon="6.77112">
        <ele>931</ele>
        <time>2018-06-23T09:01:41.000Z</time>
      </trkpt>
      <trkpt lat="47.84882" lon="6.77112">
        <ele>931</ele>
        <time>2018-06-23T09:01:42.000Z</time>
      </trkpt>
      <trkpt lat="47.84882" lon="6.77112">
        <ele>931</ele>
        <time>2018-06-23T09:01:43.000Z</time>
      </trkpt>
      <trkpt lat="47.84882" lon="6.77112">
        <ele>931</ele>
        <time>2018-06-23T09:01:44.000Z</time>
      </trkpt>
      <trkpt lat="47.84883" lon="6.77112">
        <ele>931</ele>
        <time>2018-06-23T09:01:45.000Z</time>
      </trkpt>
      <trkpt lat="47.84883" lon="6.77111">
        <ele>931</ele>
        <time>2018-06-23T09:01:46.000Z</time>
      </trkpt>
      <trkpt lat="47.84883" lon="6.77111">
        <ele>931</ele>
        <time>2018-06-23T09:01:47.000Z</time>
      </trkpt>
      <trkpt lat="47.84884" lon="6.77111">
        <ele>931</ele>
        <time>2018-06-23T09:01:48.000Z</time>
      </trkpt>
      <trkpt lat="47.84884" lon="6.77111">
        <ele>931</ele>
        <time>2018-06-23T09:01:49.000Z</time>
      </trkpt>
      <trkpt lat="47.84884" lon="6.77111">
        <ele>931</ele>
        <time>2018-06-23T09:01:50.000Z</time>
      </trkpt>
      <trkpt lat="47.84884" lon="6.77111">
        <ele>931</ele>
        <time>2018-06-23T09:01:51.000Z</time>
      </trkpt>
      <trkpt lat="47.84884" lon="6.77111">
        <ele>931</ele>
        <time>2018-06-23T09:01:52.000Z</time>
      </trkpt>
      <trkpt lat="47.84884" lon="6.7711">
        <ele>931</ele>
        <time>2018-06-23T09:01:53.000Z</time>
      </trkpt>
      <trkpt lat="47.84884" lon="6.7711">
        <ele>931</ele>
        <time>2018-06-23T09:01:54.000Z</time>
      </trkpt>
      <trkpt lat="47.84884" lon="6.77111">
        <ele>931</ele>
        <time>2018-06-23T09:01:55.000Z</time>
      </trkpt>
      <trkpt lat="47.84885" lon="6.77111">
        <ele>930</ele>
        <time>2018-06-23T09:01:56.000Z</time>
      </trkpt>
      <trkpt lat="47.84886" lon="6.77112">
        <ele>930</ele>
        <time>2018-06-23T09:01:57.000Z</time>
      </trkpt>
      <trkpt lat="47.84886" lon="6.77112">
        <ele>930</ele>
        <time>2018-06-23T09:01:58.000Z</time>
      </trkpt>
      <trkpt lat="47.84887" lon="6.77112">
        <ele>930</ele>
        <time>2018-06-23T09:01:59.000Z</time>
      </trkpt>
      <trkpt lat="47.84887" lon="6.77113">
        <ele>930</ele>
        <time>2018-06-23T09:02:00.000Z</time>
      </trkpt>
      <trkpt lat="47.84887" lon="6.77113">
        <ele>930</ele>
        <time>2018-06-23T09:02:01.000Z</time>
      </trkpt>
      <trkpt lat="47.84887" lon="6.77113">
        <ele>930</ele>
        <time>2018-06-23T09:02:02.000Z</time>
      </trkpt>
      <trkpt lat="47.84887" lon="6.77113">
        <ele>930</ele>
        <time>2018-06-23T09:02:03.000Z</time>
      </trkpt>
      <trkpt lat="47.84887" lon="6.77113">
        <ele>930</ele>
        <time>2018-06-23T09:02:04.000Z</time>
      </trkpt>
      <trkpt lat="47.84887" lon="6.77113">
        <ele>930</ele>
        <time>2018-06-23T09:02:05.000Z</time>
      </trkpt>
      <trkpt lat="47.84887" lon="6.77113">
        <ele>930</ele>
        <time>2018-06-23T09:02:06.000Z</time>
      </trkpt>
      <trkpt lat="47.84886" lon="6.77113">
        <ele>930</ele>
        <time>2018-06-23T09:02:07.000Z</time>
      </trkpt>
      <trkpt lat="47.84886" lon="6.77113">
        <ele>930</ele>
        <time>2018-06-23T09:02:08.000Z</time>
      </trkpt>
      <trkpt lat="47.84886" lon="6.77112">
        <ele>930</ele>
        <time>2018-06-23T09:02:09.000Z</time>
      </trkpt>
      <trkpt lat="47.84886" lon="6.77112">
        <ele>930</ele>
        <time>2018-06-23T09:02:10.000Z</time>
      </trkpt>
      <trkpt lat="47.84886" lon="6.77112">
        <ele>930</ele>
        <time>2018-06-23T09:02:11.000Z</time>
      </trkpt>
      <trkpt lat="47.84886" lon="6.77111">
        <ele>930</ele>
        <time>2018-06-23T09:02:12.000Z</time>
      </trkpt>
      <trkpt lat="47.84886" lon="6.7711">
        <ele>930</ele>
        <time>2018-06-23T09:02:13.000Z</time>
      </trkpt>
      <trkpt lat="47.84887" lon="6.7711">
        <ele>930</ele>
        <time>2018-06-23T09:02:14.000Z</time>
      </trkpt>
      <trkpt lat="47.84887" lon="6.77109">
        <ele>930</ele>
        <time>2018-06-23T09:02:15.000Z</time>
      </trkpt>
      <trkpt lat="47.84887" lon="6.77107">
        <ele>930</ele>
        <time>2018-06-23T09:02:16.000Z</time>
      </trkpt>
      <trkpt lat="47.84888" lon="6.77106">
        <ele>930</ele>
        <time>2018-06-23T09:02:17.000Z</time>
      </trkpt>
      <trkpt lat="47.84888" lon="6.77105">
        <ele>930</ele>
        <time>2018-06-23T09:02:18.000Z</time>
      </trkpt>
      <trkpt lat="47.84888" lon="6.77104">
        <ele>930</ele>
        <time>2018-06-23T09:02:19.000Z</time>
      </trkpt>
      <trkpt lat="47.84888" lon="6.77102">
        <ele>930</ele>
        <time>2018-06-23T09:02:20.000Z</time>
      </trkpt>
      <trkpt lat="47.84888" lon="6.77101">
        <ele>930</ele>
        <time>2018-06-23T09:02:21.000Z</time>
      </trkpt>
      <trkpt lat="47.84888" lon="6.771">
        <ele>930</ele>
        <time>2018-06-23T09:02:22.000Z</time>
      </trkpt>
      <trkpt lat="47.84889" lon="6.77099">
        <ele>930</ele>
        <time>2018-06-23T09:02:23.000Z</time>
      </trkpt>
      <trkpt lat="47.84889" lon="6.77098">
        <ele>930</ele>
        <time>2018-06-23T09:02:24.000Z</time>
      </trkpt>
      <trkpt lat="47.84889" lon="6.77096">
        <ele>930</ele>
        <time>2018-06-23T09:02:25.000Z</time>
      </trkpt>
      <trkpt lat="47.84889" lon="6.77095">
        <ele>930</ele>
        <time>2018-06-23T09:02:26.000Z</time>
      </trkpt>
      <trkpt lat="47.8489" lon="6.77094">
        <ele>930</ele>
        <time>2018-06-23T09:02:27.000Z</time>
      </trkpt>
      <trkpt lat="47.84889" lon="6.77093">
        <ele>930</ele>
        <time>2018-06-23T09:02:28.000Z</time>
      </trkpt>
      <trkpt lat="47.84889" lon="6.77091">
        <ele>930</ele>
        <time>2018-06-23T09:02:29.000Z</time>
      </trkpt>
      <trkpt lat="47.8489" lon="6.7709">
        <ele>930</ele>
        <time>2018-06-23T09:02:30.000Z</time>
      </trkpt>
      <trkpt lat="47.8489" lon="6.77088">
        <ele>930</ele>
        <time>2018-06-23T09:02:31.000Z</time>
      </trkpt>
      <trkpt lat="47.8489" lon="6.77087">
        <ele>930</ele>
        <time>2018-06-23T09:02:32.000Z</time>
      </trkpt>
      <trkpt lat="47.8489" lon="6.77085">
        <ele>930</ele>
        <time>2018-06-23T09:02:33.000Z</time>
      </trkpt>
      <trkpt lat="47.8489" lon="6.77083">
        <ele>929</ele>
        <time>2018-06-23T09:02:34.000Z</time>
      </trkpt>
      <trkpt lat="47.8489" lon="6.77082">
        <ele>929</ele>
        <time>2018-06-23T09:02:35.000Z</time>
      </trkpt>
      <trkpt lat="47.84891" lon="6.7708">
        <ele>929</ele>
        <time>2018-06-23T09:02:36.000Z</time>
      </trkpt>
      <trkpt lat="47.84891" lon="6.77079">
        <ele>929</ele>
        <time>2018-06-23T09:02:37.000Z</time>
      </trkpt>
      <trkpt lat="47.84891" lon="6.77077">
        <ele>929</ele>
        <time>2018-06-23T09:02:38.000Z</time>
      </trkpt>
      <trkpt lat="47.84891" lon="6.77075">
        <ele>929</ele>
        <time>2018-06-23T09:02:39.000Z</time>
      </trkpt>
      <trkpt lat="47.84892" lon="6.77074">
        <ele>929</ele>
        <time>2018-06-23T09:02:40.000Z</time>
      </trkpt>
      <trkpt lat="47.84892" lon="6.77072">
        <ele>929</ele>
        <time>2018-06-23T09:02:41.000Z</time>
      </trkpt>
      <trkpt lat="47.84892" lon="6.77071">
        <ele>929</ele>
        <time>2018-06-23T09:02:42.000Z</time>
      </trkpt>
      <trkpt lat="47.84892" lon="6.77069">
        <ele>929</ele>
        <time>2018-06-23T09:02:43.000Z</time>
      </trkpt>
      <trkpt lat="47.84892" lon="6.77067">
        <ele>929</ele>
        <time>2018-06-23T09:02:44.000Z</time>
      </trkpt>
      <trkpt lat="47.84893" lon="6.77066">
        <ele>929</ele>
        <time>2018-06-23T09:02:45.000Z</time>
      </trkpt>
      <trkpt lat="47.84893" lon="6.77064">
        <ele>929</ele>
        <time>2018-06-23T09:02:46.000Z</time>
      </trkpt>
      <trkpt lat="47.84893" lon="6.77063">
        <ele>929</ele>
        <time>2018-06-23T09:02:47.000Z</time>
      </trkpt>
      <trkpt lat="47.84893" lon="6.77061">
        <ele>929</ele>
        <time>2018-06-23T09:02:48.000Z</time>
      </trkpt>
      <trkpt lat="47.84893" lon="6.77059">
        <ele>929</ele>
        <time>2018-06-23T09:02:49.000Z</time>
      </trkpt>
      <trkpt lat="47.84894" lon="6.77057">
        <ele>929</ele>
        <time>2018-06-23T09:02:50.000Z</time>
      </trkpt>
      <trkpt lat="47.84894" lon="6.77056">
        <ele>929</ele>
        <time>2018-06-23T09:02:51.000Z</time>
      </trkpt>
      <trkpt lat="47.84894" lon="6.77054">
        <ele>929</ele>
        <time>2018-06-23T09:02:52.000Z</time>
      </trkpt>
      <trkpt lat="47.84895" lon="6.77052">
        <ele>929</ele>
        <time>2018-06-23T09:02:53.000Z</time>
      </trkpt>
      <trkpt lat="47.84895" lon="6.7705">
        <ele>929</ele>
        <time>2018-06-23T09:02:54.000Z</time>
      </trkpt>
      <trkpt lat="47.84895" lon="6.77048">
        <ele>929</ele>
        <time>2018-06-23T09:02:55.000Z</time>
      </trkpt>
      <trkpt lat="47.84895" lon="6.77047">
        <ele>929</ele>
        <time>2018-06-23T09:02:56.000Z</time>
      </trkpt>
      <trkpt lat="47.84896" lon="6.77045">
        <ele>929</ele>
        <time>2018-06-23T09:02:57.000Z</time>
      </trkpt>
      <trkpt lat="47.84896" lon="6.77044">
        <ele>929</ele>
        <time>2018-06-23T09:02:58.000Z</time>
      </trkpt>
      <trkpt lat="47.84896" lon="6.77042">
        <ele>929</ele>
        <time>2018-06-23T09:02:59.000Z</time>
      </trkpt>
      <trkpt lat="47.84896" lon="6.77041">
        <ele>929</ele>
        <time>2018-06-23T09:03:00.000Z</time>
      </trkpt>
      <trkpt lat="47.84896" lon="6.7704">
        <ele>929</ele>
        <time>2018-06-23T09:03:01.000Z</time>
      </trkpt>
      <trkpt lat="47.84896" lon="6.77038">
        <ele>929</ele>
        <time>2018-06-23T09:03:02.000Z</time>
      </trkpt>
      <trkpt lat="47.84896" lon="6.77037">
        <ele>929</ele>
        <time>2018-06-23T09:03:03.000Z</time>
      </trkpt>
      <trkpt lat="47.84897" lon="6.77035">
        <ele>929</ele>
        <time>2018-06-23T09:03:04.000Z</time>
      </trkpt>
      <trkpt lat="47.84898" lon="6.77033">
        <ele>929</ele>
        <time>2018-06-23T09:03:05.000Z</time>
      </trkpt>
      <trkpt lat="47.84898" lon="6.77032">
        <ele>929</ele>
        <time>2018-06-23T09:03:06.000Z</time>
      </trkpt>
      <trkpt lat="47.84899" lon="6.77031">
        <ele>929</ele>
        <time>2018-06-23T09:03:07.000Z</time>
      </trkpt>
      <trkpt lat="47.84899" lon="6.77029">
        <ele>928</ele>
        <time>2018-06-23T09:03:08.000Z</time>
      </trkpt>
      <trkpt lat="47.84899" lon="6.77027">
        <ele>928</ele>
        <time>2018-06-23T09:03:09.000Z</time>
      </trkpt>
      <trkpt lat="47.84899" lon="6.77026">
        <ele>928</ele>
        <time>2018-06-23T09:03:10.000Z</time>
      </trkpt>
      <trkpt lat="47.84899" lon="6.77024">
        <ele>928</ele>
        <time>2018-06-23T09:03:11.000Z</time>
      </trkpt>
      <trkpt lat="47.84899" lon="6.77023">
        <ele>928</ele>
        <time>2018-06-23T09:03:12.000Z</time>
      </trkpt>
      <trkpt lat="47.84899" lon="6.77022">
        <ele>928</ele>
        <time>2018-06-23T09:03:13.000Z</time>
      </trkpt>
      <trkpt lat="47.849" lon="6.7702">
        <ele>928</ele>
        <time>2018-06-23T09:03:14.000Z</time>
      </trkpt>
      <trkpt lat="47.849" lon="6.77018">
        <ele>928</ele>
        <time>2018-06-23T09:03:15.000Z</time>
      </trkpt>
      <trkpt lat="47.849" lon="6.77016">
        <ele>928</ele>
        <time>2018-06-23T09:03:16.000Z</time>
      </trkpt>
      <trkpt lat="47.84901" lon="6.77014">
        <ele>928</ele>
        <time>2018-06-23T09:03:17.000Z</time>
      </trkpt>
      <trkpt lat="47.84901" lon="6.77013">
        <ele>928</ele>
        <time>2018-06-23T09:03:18.000Z</time>
      </trkpt>
      <trkpt lat="47.84902" lon="6.77011">
        <ele>927</ele>
        <time>2018-06-23T09:03:19.000Z</time>
      </trkpt>
      <trkpt lat="47.84903" lon="6.7701">
        <ele>927</ele>
        <time>2018-06-23T09:03:20.000Z</time>
      </trkpt>
      <trkpt lat="47.84903" lon="6.77008">
        <ele>927</ele>
        <time>2018-06-23T09:03:21.000Z</time>
      </trkpt>
      <trkpt lat="47.84904" lon="6.77006">
        <ele>927</ele>
        <time>2018-06-23T09:03:22.000Z</time>
      </trkpt>
      <trkpt lat="47.84904" lon="6.77005">
        <ele>927</ele>
        <time>2018-06-23T09:03:23.000Z</time>
      </trkpt>
      <trkpt lat="47.84904" lon="6.77003">
        <ele>927</ele>
        <time>2018-06-23T09:03:24.000Z</time>
      </trkpt>
      <trkpt lat="47.84904" lon="6.77001">
        <ele>927</ele>
        <time>2018-06-23T09:03:25.000Z</time>
      </trkpt>
      <trkpt lat="47.84905" lon="6.76999">
        <ele>925</ele>
        <time>2018-06-23T09:03:26.000Z</time>
      </trkpt>
      <trkpt lat="47.84905" lon="6.76997">
        <ele>925</ele>
        <time>2018-06-23T09:03:27.000Z</time>
      </trkpt>
      <trkpt lat="47.84906" lon="6.76995">
        <ele>925</ele>
        <time>2018-06-23T09:03:28.000Z</time>
      </trkpt>
      <trkpt lat="47.84907" lon="6.76993">
        <ele>925</ele>
        <time>2018-06-23T09:03:29.000Z</time>
      </trkpt>
      <trkpt lat="47.84908" lon="6.76992">
        <ele>925</ele>
        <time>2018-06-23T09:03:30.000Z</time>
      </trkpt>
      <trkpt lat="47.84908" lon="6.7699">
        <ele>925</ele>
        <time>2018-06-23T09:03:31.000Z</time>
      </trkpt>
      <trkpt lat="47.84909" lon="6.76989">
        <ele>925</ele>
        <time>2018-06-23T09:03:32.000Z</time>
      </trkpt>
      <trkpt lat="47.84909" lon="6.76987">
        <ele>925</ele>
        <time>2018-06-23T09:03:33.000Z</time>
      </trkpt>
      <trkpt lat="47.8491" lon="6.76986">
        <ele>925</ele>
        <time>2018-06-23T09:03:34.000Z</time>
      </trkpt>
      <trkpt lat="47.8491" lon="6.76984">
        <ele>925</ele>
        <time>2018-06-23T09:03:35.000Z</time>
      </trkpt>
      <trkpt lat="47.8491" lon="6.76983">
        <ele>925</ele>
        <time>2018-06-23T09:03:36.000Z</time>
      </trkpt>
      <trkpt lat="47.84911" lon="6.76981">
        <ele>925</ele>
        <time>2018-06-23T09:03:37.000Z</time>
      </trkpt>
      <trkpt lat="47.84911" lon="6.7698">
        <ele>925</ele>
        <time>2018-06-23T09:03:38.000Z</time>
      </trkpt>
      <trkpt lat="47.84912" lon="6.76978">
        <ele>925</ele>
        <time>2018-06-23T09:03:39.000Z</time>
      </trkpt>
      <trkpt lat="47.84912" lon="6.76976">
        <ele>925</ele>
        <time>2018-06-23T09:03:40.000Z</time>
      </trkpt>
      <trkpt lat="47.84912" lon="6.76975">
        <ele>925</ele>
        <time>2018-06-23T09:03:41.000Z</time>
      </trkpt>
      <trkpt lat="47.84912" lon="6.76973">
        <ele>925</ele>
        <time>2018-06-23T09:03:42.000Z</time>
      </trkpt>
      <trkpt lat="47.84912" lon="6.76972">
        <ele>925</ele>
        <time>2018-06-23T09:03:43.000Z</time>
      </trkpt>
      <trkpt lat="47.84912" lon="6.7697">
        <ele>925</ele>
        <time>2018-06-23T09:03:44.000Z</time>
      </trkpt>
      <trkpt lat="47.84911" lon="6.76968">
        <ele>925</ele>
        <time>2018-06-23T09:03:45.000Z</time>
      </trkpt>
      <trkpt lat="47.8491" lon="6.76966">
        <ele>925</ele>
        <time>2018-06-23T09:03:46.000Z</time>
      </trkpt>
      <trkpt lat="47.84909" lon="6.76964">
        <ele>925</ele>
        <time>2018-06-23T09:03:47.000Z</time>
      </trkpt>
      <trkpt lat="47.84908" lon="6.76962">
        <ele>925</ele>
        <time>2018-06-23T09:03:48.000Z</time>
      </trkpt>
      <trkpt lat="47.84908" lon="6.7696">
        <ele>925</ele>
        <time>2018-06-23T09:03:49.000Z</time>
      </trkpt>
      <trkpt lat="47.84908" lon="6.76958">
        <ele>924</ele>
        <time>2018-06-23T09:03:50.000Z</time>
      </trkpt>
      <trkpt lat="47.84907" lon="6.76956">
        <ele>924</ele>
        <time>2018-06-23T09:03:51.000Z</time>
      </trkpt>
      <trkpt lat="47.84907" lon="6.76954">
        <ele>924</ele>
        <time>2018-06-23T09:03:52.000Z</time>
      </trkpt>
      <trkpt lat="47.84907" lon="6.76952">
        <ele>924</ele>
        <time>2018-06-23T09:03:53.000Z</time>
      </trkpt>
      <trkpt lat="47.84907" lon="6.76951">
        <ele>924</ele>
        <time>2018-06-23T09:03:54.000Z</time>
      </trkpt>
      <trkpt lat="47.84908" lon="6.7695">
        <ele>924</ele>
        <time>2018-06-23T09:03:55.000Z</time>
      </trkpt>
      <trkpt lat="47.84908" lon="6.76948">
        <ele>924</ele>
        <time>2018-06-23T09:03:56.000Z</time>
      </trkpt>
      <trkpt lat="47.84908" lon="6.76946">
        <ele>924</ele>
        <time>2018-06-23T09:03:57.000Z</time>
      </trkpt>
      <trkpt lat="47.84909" lon="6.76945">
        <ele>924</ele>
        <time>2018-06-23T09:03:58.000Z</time>
      </trkpt>
      <trkpt lat="47.84909" lon="6.76943">
        <ele>923</ele>
        <time>2018-06-23T09:03:59.000Z</time>
      </trkpt>
      <trkpt lat="47.8491" lon="6.76941">
        <ele>923</ele>
        <time>2018-06-23T09:04:00.000Z</time>
      </trkpt>
      <trkpt lat="47.84911" lon="6.76939">
        <ele>923</ele>
        <time>2018-06-23T09:04:01.000Z</time>
      </trkpt>
      <trkpt lat="47.84911" lon="6.76937">
        <ele>923</ele>
        <time>2018-06-23T09:04:02.000Z</time>
      </trkpt>
      <trkpt lat="47.84912" lon="6.76934">
        <ele>922</ele>
        <time>2018-06-23T09:04:03.000Z</time>
      </trkpt>
      <trkpt lat="47.84913" lon="6.76932">
        <ele>922</ele>
        <time>2018-06-23T09:04:04.000Z</time>
      </trkpt>
      <trkpt lat="47.84914" lon="6.76931">
        <ele>922</ele>
        <time>2018-06-23T09:04:05.000Z</time>
      </trkpt>
      <trkpt lat="47.84915" lon="6.76929">
        <ele>922</ele>
        <time>2018-06-23T09:04:06.000Z</time>
      </trkpt>
      <trkpt lat="47.84915" lon="6.76927">
        <ele>921</ele>
        <time>2018-06-23T09:04:07.000Z</time>
      </trkpt>
      <trkpt lat="47.84916" lon="6.76925">
        <ele>921</ele>
        <time>2018-06-23T09:04:08.000Z</time>
      </trkpt>
      <trkpt lat="47.84917" lon="6.76923">
        <ele>921</ele>
        <time>2018-06-23T09:04:09.000Z</time>
      </trkpt>
      <trkpt lat="47.84917" lon="6.76921">
        <ele>918</ele>
        <time>2018-06-23T09:04:10.000Z</time>
      </trkpt>
      <trkpt lat="47.84918" lon="6.7692">
        <ele>918</ele>
        <time>2018-06-23T09:04:11.000Z</time>
      </trkpt>
      <trkpt lat="47.84919" lon="6.76918">
        <ele>918</ele>
        <time>2018-06-23T09:04:12.000Z</time>
      </trkpt>
      <trkpt lat="47.8492" lon="6.76916">
        <ele>918</ele>
        <time>2018-06-23T09:04:13.000Z</time>
      </trkpt>
      <trkpt lat="47.84921" lon="6.76914">
        <ele>917</ele>
        <time>2018-06-23T09:04:14.000Z</time>
      </trkpt>
      <trkpt lat="47.84922" lon="6.76913">
        <ele>916</ele>
        <time>2018-06-23T09:04:15.000Z</time>
      </trkpt>
      <trkpt lat="47.84923" lon="6.76911">
        <ele>916</ele>
        <time>2018-06-23T09:04:16.000Z</time>
      </trkpt>
      <trkpt lat="47.84923" lon="6.7691">
        <ele>915</ele>
        <time>2018-06-23T09:04:17.000Z</time>
      </trkpt>
      <trkpt lat="47.84924" lon="6.76909">
        <ele>915</ele>
        <time>2018-06-23T09:04:18.000Z</time>
      </trkpt>
      <trkpt lat="47.84925" lon="6.76907">
        <ele>915</ele>
        <time>2018-06-23T09:04:19.000Z</time>
      </trkpt>
      <trkpt lat="47.84925" lon="6.76906">
        <ele>914</ele>
        <time>2018-06-23T09:04:20.000Z</time>
      </trkpt>
      <trkpt lat="47.84925" lon="6.76905">
        <ele>914</ele>
        <time>2018-06-23T09:04:21.000Z</time>
      </trkpt>
      <trkpt lat="47.84925" lon="6.76904">
        <ele>914</ele>
        <time>2018-06-23T09:04:22.000Z</time>
      </trkpt>
      <trkpt lat="47.84926" lon="6.76903">
        <ele>914</ele>
        <time>2018-06-23T09:04:23.000Z</time>
      </trkpt>
      <trkpt lat="47.84926" lon="6.76902">
        <ele>914</ele>
        <time>2018-06-23T09:04:24.000Z</time>
      </trkpt>
      <trkpt lat="47.84926" lon="6.76901">
        <ele>913</ele>
        <time>2018-06-23T09:04:25.000Z</time>
      </trkpt>
      <trkpt lat="47.84926" lon="6.76899">
        <ele>913</ele>
        <time>2018-06-23T09:04:26.000Z</time>
      </trkpt>
      <trkpt lat="47.84927" lon="6.76897">
        <ele>913</ele>
        <time>2018-06-23T09:04:27.000Z</time>
      </trkpt>
      <trkpt lat="47.84927" lon="6.76896">
        <ele>912</ele>
        <time>2018-06-23T09:04:28.000Z</time>
      </trkpt>
      <trkpt lat="47.84927" lon="6.76894">
        <ele>912</ele>
        <time>2018-06-23T09:04:29.000Z</time>
      </trkpt>
      <trkpt lat="47.84928" lon="6.76893">
        <ele>912</ele>
        <time>2018-06-23T09:04:30.000Z</time>
      </trkpt>
      <trkpt lat="47.84928" lon="6.76891">
        <ele>912</ele>
        <time>2018-06-23T09:04:31.000Z</time>
      </trkpt>
      <trkpt lat="47.84929" lon="6.7689">
        <ele>911</ele>
        <time>2018-06-23T09:04:32.000Z</time>
      </trkpt>
      <trkpt lat="47.84929" lon="6.76888">
        <ele>911</ele>
        <time>2018-06-23T09:04:33.000Z</time>
      </trkpt>
      <trkpt lat="47.8493" lon="6.76887">
        <ele>911</ele>
        <time>2018-06-23T09:04:34.000Z</time>
      </trkpt>
      <trkpt lat="47.84931" lon="6.76885">
        <ele>911</ele>
        <time>2018-06-23T09:04:35.000Z</time>
      </trkpt>
      <trkpt lat="47.84931" lon="6.76884">
        <ele>911</ele>
        <time>2018-06-23T09:04:36.000Z</time>
      </trkpt>
      <trkpt lat="47.84932" lon="6.76883">
        <ele>910</ele>
        <time>2018-06-23T09:04:37.000Z</time>
      </trkpt>
      <trkpt lat="47.84933" lon="6.76881">
        <ele>910</ele>
        <time>2018-06-23T09:04:38.000Z</time>
      </trkpt>
      <trkpt lat="47.84934" lon="6.7688">
        <ele>910</ele>
        <time>2018-06-23T09:04:39.000Z</time>
      </trkpt>
      <trkpt lat="47.84934" lon="6.76879">
        <ele>910</ele>
        <time>2018-06-23T09:04:40.000Z</time>
      </trkpt>
      <trkpt lat="47.84935" lon="6.76877">
        <ele>910</ele>
        <time>2018-06-23T09:04:41.000Z</time>
      </trkpt>
      <trkpt lat="47.84936" lon="6.76875">
        <ele>910</ele>
        <time>2018-06-23T09:04:42.000Z</time>
      </trkpt>
      <trkpt lat="47.84938" lon="6.76874">
        <ele>909</ele>
        <time>2018-06-23T09:04:43.000Z</time>
      </trkpt>
      <trkpt lat="47.84939" lon="6.76872">
        <ele>909</ele>
        <time>2018-06-23T09:04:44.000Z</time>
      </trkpt>
      <trkpt lat="47.8494" lon="6.76871">
        <ele>909</ele>
        <time>2018-06-23T09:04:45.000Z</time>
      </trkpt>
      <trkpt lat="47.8494" lon="6.76869">
        <ele>909</ele>
        <time>2018-06-23T09:04:46.000Z</time>
      </trkpt>
      <trkpt lat="47.84941" lon="6.76867">
        <ele>909</ele>
        <time>2018-06-23T09:04:47.000Z</time>
      </trkpt>
      <trkpt lat="47.84942" lon="6.76866">
        <ele>909</ele>
        <time>2018-06-23T09:04:48.000Z</time>
      </trkpt>
      <trkpt lat="47.84943" lon="6.76863">
        <ele>909</ele>
        <time>2018-06-23T09:04:49.000Z</time>
      </trkpt>
      <trkpt lat="47.84944" lon="6.76861">
        <ele>909</ele>
        <time>2018-06-23T09:04:50.000Z</time>
      </trkpt>
      <trkpt lat="47.84944" lon="6.76859">
        <ele>909</ele>
        <time>2018-06-23T09:04:51.000Z</time>
      </trkpt>
      <trkpt lat="47.84945" lon="6.76858">
        <ele>908</ele>
        <time>2018-06-23T09:04:52.000Z</time>
      </trkpt>
      <trkpt lat="47.84945" lon="6.76856">
        <ele>908</ele>
        <time>2018-06-23T09:04:53.000Z</time>
      </trkpt>
      <trkpt lat="47.84945" lon="6.76855">
        <ele>908</ele>
        <time>2018-06-23T09:04:54.000Z</time>
      </trkpt>
      <trkpt lat="47.84946" lon="6.76853">
        <ele>908</ele>
        <time>2018-06-23T09:04:55.000Z</time>
      </trkpt>
      <trkpt lat="47.84946" lon="6.76851">
        <ele>908</ele>
        <time>2018-06-23T09:04:56.000Z</time>
      </trkpt>
      <trkpt lat="47.84946" lon="6.7685">
        <ele>908</ele>
        <time>2018-06-23T09:04:57.000Z</time>
      </trkpt>
      <trkpt lat="47.84946" lon="6.76849">
        <ele>908</ele>
        <time>2018-06-23T09:04:58.000Z</time>
      </trkpt>
      <trkpt lat="47.84946" lon="6.76847">
        <ele>908</ele>
        <time>2018-06-23T09:04:59.000Z</time>
      </trkpt>
      <trkpt lat="47.84946" lon="6.76846">
        <ele>908</ele>
        <time>2018-06-23T09:05:00.000Z</time>
      </trkpt>
      <trkpt lat="47.84946" lon="6.76844">
        <ele>908</ele>
        <time>2018-06-23T09:05:01.000Z</time>
      </trkpt>
      <trkpt lat="47.84946" lon="6.76841">
        <ele>908</ele>
        <time>2018-06-23T09:05:02.000Z</time>
      </trkpt>
      <trkpt lat="47.84946" lon="6.76839">
        <ele>908</ele>
        <time>2018-06-23T09:05:03.000Z</time>
      </trkpt>
      <trkpt lat="47.84946" lon="6.76837">
        <ele>908</ele>
        <time>2018-06-23T09:05:04.000Z</time>
      </trkpt>
      <trkpt lat="47.84946" lon="6.76835">
        <ele>908</ele>
        <time>2018-06-23T09:05:05.000Z</time>
      </trkpt>
      <trkpt lat="47.84946" lon="6.76832">
        <ele>904</ele>
        <time>2018-06-23T09:05:06.000Z</time>
      </trkpt>
      <trkpt lat="47.84946" lon="6.7683">
        <ele>904</ele>
        <time>2018-06-23T09:05:07.000Z</time>
      </trkpt>
      <trkpt lat="47.84946" lon="6.76829">
        <ele>904</ele>
        <time>2018-06-23T09:05:08.000Z</time>
      </trkpt>
      <trkpt lat="47.84946" lon="6.76827">
        <ele>904</ele>
        <time>2018-06-23T09:05:09.000Z</time>
      </trkpt>
      <trkpt lat="47.84947" lon="6.76826">
        <ele>904</ele>
        <time>2018-06-23T09:05:10.000Z</time>
      </trkpt>
      <trkpt lat="47.84947" lon="6.76824">
        <ele>904</ele>
        <time>2018-06-23T09:05:11.000Z</time>
      </trkpt>
      <trkpt lat="47.84947" lon="6.76823">
        <ele>904</ele>
        <time>2018-06-23T09:05:12.000Z</time>
      </trkpt>
      <trkpt lat="47.84947" lon="6.76822">
        <ele>904</ele>
        <time>2018-06-23T09:05:13.000Z</time>
      </trkpt>
      <trkpt lat="47.84948" lon="6.76821">
        <ele>904</ele>
        <time>2018-06-23T09:05:14.000Z</time>
      </trkpt>
      <trkpt lat="47.84948" lon="6.7682">
        <ele>904</ele>
        <time>2018-06-23T09:05:15.000Z</time>
      </trkpt>
      <trkpt lat="47.84948" lon="6.76818">
        <ele>904</ele>
        <time>2018-06-23T09:05:16.000Z</time>
      </trkpt>
      <trkpt lat="47.84947" lon="6.76817">
        <ele>904</ele>
        <time>2018-06-23T09:05:17.000Z</time>
      </trkpt>
      <trkpt lat="47.84947" lon="6.76816">
        <ele>904</ele>
        <time>2018-06-23T09:05:18.000Z</time>
      </trkpt>
      <trkpt lat="47.84946" lon="6.76815">
        <ele>904</ele>
        <time>2018-06-23T09:05:19.000Z</time>
      </trkpt>
      <trkpt lat="47.84946" lon="6.76814">
        <ele>904</ele>
        <time>2018-06-23T09:05:20.000Z</time>
      </trkpt>
      <trkpt lat="47.84945" lon="6.76813">
        <ele>904</ele>
        <time>2018-06-23T09:05:21.000Z</time>
      </trkpt>
      <trkpt lat="47.84945" lon="6.76812">
        <ele>904</ele>
        <time>2018-06-23T09:05:22.000Z</time>
      </trkpt>
      <trkpt lat="47.84944" lon="6.76811">
        <ele>904</ele>
        <time>2018-06-23T09:05:23.000Z</time>
      </trkpt>
      <trkpt lat="47.84943" lon="6.76809">
        <ele>904</ele>
        <time>2018-06-23T09:05:24.000Z</time>
      </trkpt>
      <trkpt lat="47.84943" lon="6.76808">
        <ele>904</ele>
        <time>2018-06-23T09:05:25.000Z</time>
      </trkpt>
      <trkpt lat="47.84942" lon="6.76807">
        <ele>904</ele>
        <time>2018-06-23T09:05:26.000Z</time>
      </trkpt>
      <trkpt lat="47.84941" lon="6.76806">
        <ele>904</ele>
        <time>2018-06-23T09:05:27.000Z</time>
      </trkpt>
      <trkpt lat="47.84941" lon="6.76804">
        <ele>904</ele>
        <time>2018-06-23T09:05:28.000Z</time>
      </trkpt>
      <trkpt lat="47.8494" lon="6.76803">
        <ele>904</ele>
        <time>2018-06-23T09:05:29.000Z</time>
      </trkpt>
      <trkpt lat="47.8494" lon="6.76801">
        <ele>904</ele>
        <time>2018-06-23T09:05:30.000Z</time>
      </trkpt>
      <trkpt lat="47.8494" lon="6.768">
        <ele>903</ele>
        <time>2018-06-23T09:05:31.000Z</time>
      </trkpt>
      <trkpt lat="47.8494" lon="6.76799">
        <ele>903</ele>
        <time>2018-06-23T09:05:32.000Z</time>
      </trkpt>
      <trkpt lat="47.8494" lon="6.76797">
        <ele>903</ele>
        <time>2018-06-23T09:05:33.000Z</time>
      </trkpt>
      <trkpt lat="47.8494" lon="6.76795">
        <ele>903</ele>
        <time>2018-06-23T09:05:34.000Z</time>
      </trkpt>
      <trkpt lat="47.8494" lon="6.76793">
        <ele>903</ele>
        <time>2018-06-23T09:05:35.000Z</time>
      </trkpt>
      <trkpt lat="47.8494" lon="6.76792">
        <ele>903</ele>
        <time>2018-06-23T09:05:36.000Z</time>
      </trkpt>
      <trkpt lat="47.8494" lon="6.76791">
        <ele>903</ele>
        <time>2018-06-23T09:05:37.000Z</time>
      </trkpt>
      <trkpt lat="47.84941" lon="6.76789">
        <ele>903</ele>
        <time>2018-06-23T09:05:38.000Z</time>
      </trkpt>
      <trkpt lat="47.84941" lon="6.76788">
        <ele>903</ele>
        <time>2018-06-23T09:05:39.000Z</time>
      </trkpt>
      <trkpt lat="47.84941" lon="6.76787">
        <ele>903</ele>
        <time>2018-06-23T09:05:40.000Z</time>
      </trkpt>
      <trkpt lat="47.84941" lon="6.76785">
        <ele>903</ele>
        <time>2018-06-23T09:05:41.000Z</time>
      </trkpt>
      <trkpt lat="47.84942" lon="6.76784">
        <ele>903</ele>
        <time>2018-06-23T09:05:42.000Z</time>
      </trkpt>
      <trkpt lat="47.84942" lon="6.76782">
        <ele>903</ele>
        <time>2018-06-23T09:05:43.000Z</time>
      </trkpt>
      <trkpt lat="47.84942" lon="6.76781">
        <ele>903</ele>
        <time>2018-06-23T09:05:44.000Z</time>
      </trkpt>
      <trkpt lat="47.84942" lon="6.7678">
        <ele>903</ele>
        <time>2018-06-23T09:05:45.000Z</time>
      </trkpt>
      <trkpt lat="47.84942" lon="6.76778">
        <ele>903</ele>
        <time>2018-06-23T09:05:46.000Z</time>
      </trkpt>
      <trkpt lat="47.84942" lon="6.76777">
        <ele>903</ele>
        <time>2018-06-23T09:05:47.000Z</time>
      </trkpt>
      <trkpt lat="47.84942" lon="6.76775">
        <ele>903</ele>
        <time>2018-06-23T09:05:48.000Z</time>
      </trkpt>
      <trkpt lat="47.84942" lon="6.76773">
        <ele>903</ele>
        <time>2018-06-23T09:05:49.000Z</time>
      </trkpt>
      <trkpt lat="47.84942" lon="6.76771">
        <ele>903</ele>
        <time>2018-06-23T09:05:50.000Z</time>
      </trkpt>
      <trkpt lat="47.84941" lon="6.76769">
        <ele>903</ele>
        <time>2018-06-23T09:05:51.000Z</time>
      </trkpt>
      <trkpt lat="47.84941" lon="6.76767">
        <ele>903</ele>
        <time>2018-06-23T09:05:52.000Z</time>
      </trkpt>
      <trkpt lat="47.8494" lon="6.76765">
        <ele>903</ele>
        <time>2018-06-23T09:05:53.000Z</time>
      </trkpt>
      <trkpt lat="47.8494" lon="6.76764">
        <ele>903</ele>
        <time>2018-06-23T09:05:54.000Z</time>
      </trkpt>
      <trkpt lat="47.8494" lon="6.76763">
        <ele>903</ele>
        <time>2018-06-23T09:05:55.000Z</time>
      </trkpt>
      <trkpt lat="47.8494" lon="6.76761">
        <ele>903</ele>
        <time>2018-06-23T09:05:56.000Z</time>
      </trkpt>
      <trkpt lat="47.8494" lon="6.7676">
        <ele>903</ele>
        <time>2018-06-23T09:05:57.000Z</time>
      </trkpt>
      <trkpt lat="47.8494" lon="6.76759">
        <ele>903</ele>
        <time>2018-06-23T09:05:58.000Z</time>
      </trkpt>
      <trkpt lat="47.8494" lon="6.76758">
        <ele>903</ele>
        <time>2018-06-23T09:05:59.000Z</time>
      </trkpt>
      <trkpt lat="47.8494" lon="6.76757">
        <ele>903</ele>
        <time>2018-06-23T09:06:00.000Z</time>
      </trkpt>
      <trkpt lat="47.8494" lon="6.76756">
        <ele>903</ele>
        <time>2018-06-23T09:06:01.000Z</time>
      </trkpt>
      <trkpt lat="47.84939" lon="6.76754">
        <ele>903</ele>
        <time>2018-06-23T09:06:02.000Z</time>
      </trkpt>
      <trkpt lat="47.84939" lon="6.76753">
        <ele>903</ele>
        <time>2018-06-23T09:06:03.000Z</time>
      </trkpt>
      <trkpt lat="47.84938" lon="6.76751">
        <ele>903</ele>
        <time>2018-06-23T09:06:04.000Z</time>
      </trkpt>
      <trkpt lat="47.84938" lon="6.76749">
        <ele>901</ele>
        <time>2018-06-23T09:06:05.000Z</time>
      </trkpt>
      <trkpt lat="47.84938" lon="6.76747">
        <ele>901</ele>
        <time>2018-06-23T09:06:06.000Z</time>
      </trkpt>
      <trkpt lat="47.84938" lon="6.76746">
        <ele>901</ele>
        <time>2018-06-23T09:06:07.000Z</time>
      </trkpt>
      <trkpt lat="47.84937" lon="6.76744">
        <ele>901</ele>
        <time>2018-06-23T09:06:08.000Z</time>
      </trkpt>
      <trkpt lat="47.84937" lon="6.76743">
        <ele>901</ele>
        <time>2018-06-23T09:06:09.000Z</time>
      </trkpt>
      <trkpt lat="47.84937" lon="6.76741">
        <ele>901</ele>
        <time>2018-06-23T09:06:10.000Z</time>
      </trkpt>
      <trkpt lat="47.84937" lon="6.7674">
        <ele>901</ele>
        <time>2018-06-23T09:06:11.000Z</time>
      </trkpt>
      <trkpt lat="47.84937" lon="6.76738">
        <ele>901</ele>
        <time>2018-06-23T09:06:12.000Z</time>
      </trkpt>
      <trkpt lat="47.84937" lon="6.76737">
        <ele>901</ele>
        <time>2018-06-23T09:06:13.000Z</time>
      </trkpt>
      <trkpt lat="47.84938" lon="6.76735">
        <ele>901</ele>
        <time>2018-06-23T09:06:14.000Z</time>
      </trkpt>
      <trkpt lat="47.84938" lon="6.76733">
        <ele>900</ele>
        <time>2018-06-23T09:06:15.000Z</time>
      </trkpt>
      <trkpt lat="47.84938" lon="6.76731">
        <ele>900</ele>
        <time>2018-06-23T09:06:16.000Z</time>
      </trkpt>
      <trkpt lat="47.84938" lon="6.7673">
        <ele>900</ele>
        <time>2018-06-23T09:06:17.000Z</time>
      </trkpt>
      <trkpt lat="47.84938" lon="6.76729">
        <ele>900</ele>
        <time>2018-06-23T09:06:18.000Z</time>
      </trkpt>
      <trkpt lat="47.84938" lon="6.76727">
        <ele>900</ele>
        <time>2018-06-23T09:06:19.000Z</time>
      </trkpt>
      <trkpt lat="47.84938" lon="6.76726">
        <ele>900</ele>
        <time>2018-06-23T09:06:20.000Z</time>
      </trkpt>
      <trkpt lat="47.84939" lon="6.76724">
        <ele>900</ele>
        <time>2018-06-23T09:06:21.000Z</time>
      </trkpt>
      <trkpt lat="47.84939" lon="6.76723">
        <ele>900</ele>
        <time>2018-06-23T09:06:22.000Z</time>
      </trkpt>
      <trkpt lat="47.8494" lon="6.76721">
        <ele>899</ele>
        <time>2018-06-23T09:06:23.000Z</time>
      </trkpt>
      <trkpt lat="47.8494" lon="6.76719">
        <ele>899</ele>
        <time>2018-06-23T09:06:24.000Z</time>
      </trkpt>
      <trkpt lat="47.8494" lon="6.76718">
        <ele>899</ele>
        <time>2018-06-23T09:06:25.000Z</time>
      </trkpt>
      <trkpt lat="47.84941" lon="6.76716">
        <ele>899</ele>
        <time>2018-06-23T09:06:26.000Z</time>
      </trkpt>
      <trkpt lat="47.84941" lon="6.76715">
        <ele>899</ele>
        <time>2018-06-23T09:06:27.000Z</time>
      </trkpt>
      <trkpt lat="47.84941" lon="6.76714">
        <ele>899</ele>
        <time>2018-06-23T09:06:28.000Z</time>
      </trkpt>
      <trkpt lat="47.84941" lon="6.76713">
        <ele>899</ele>
        <time>2018-06-23T09:06:29.000Z</time>
      </trkpt>
      <trkpt lat="47.84941" lon="6.76711">
        <ele>899</ele>
        <time>2018-06-23T09:06:30.000Z</time>
      </trkpt>
      <trkpt lat="47.84942" lon="6.76709">
        <ele>899</ele>
        <time>2018-06-23T09:06:31.000Z</time>
      </trkpt>
      <trkpt lat="47.84943" lon="6.76707">
        <ele>899</ele>
        <time>2018-06-23T09:06:32.000Z</time>
      </trkpt>
      <trkpt lat="47.84944" lon="6.76705">
        <ele>899</ele>
        <time>2018-06-23T09:06:33.000Z</time>
      </trkpt>
      <trkpt lat="47.84945" lon="6.76704">
        <ele>899</ele>
        <time>2018-06-23T09:06:34.000Z</time>
      </trkpt>
      <trkpt lat="47.84945" lon="6.76702">
        <ele>898</ele>
        <time>2018-06-23T09:06:35.000Z</time>
      </trkpt>
      <trkpt lat="47.84946" lon="6.76701">
        <ele>898</ele>
        <time>2018-06-23T09:06:36.000Z</time>
      </trkpt>
      <trkpt lat="47.84947" lon="6.76699">
        <ele>898</ele>
        <time>2018-06-23T09:06:37.000Z</time>
      </trkpt>
      <trkpt lat="47.84948" lon="6.76698">
        <ele>898</ele>
        <time>2018-06-23T09:06:38.000Z</time>
      </trkpt>
      <trkpt lat="47.84948" lon="6.76697">
        <ele>898</ele>
        <time>2018-06-23T09:06:39.000Z</time>
      </trkpt>
      <trkpt lat="47.84949" lon="6.76696">
        <ele>898</ele>
        <time>2018-06-23T09:06:40.000Z</time>
      </trkpt>
      <trkpt lat="47.84949" lon="6.76694">
        <ele>898</ele>
        <time>2018-06-23T09:06:41.000Z</time>
      </trkpt>
      <trkpt lat="47.84949" lon="6.76693">
        <ele>898</ele>
        <time>2018-06-23T09:06:42.000Z</time>
      </trkpt>
      <trkpt lat="47.84949" lon="6.76692">
        <ele>898</ele>
        <time>2018-06-23T09:06:43.000Z</time>
      </trkpt>
      <trkpt lat="47.84949" lon="6.7669">
        <ele>898</ele>
        <time>2018-06-23T09:06:44.000Z</time>
      </trkpt>
      <trkpt lat="47.84949" lon="6.76689">
        <ele>898</ele>
        <time>2018-06-23T09:06:45.000Z</time>
      </trkpt>
      <trkpt lat="47.84949" lon="6.76687">
        <ele>898</ele>
        <time>2018-06-23T09:06:46.000Z</time>
      </trkpt>
      <trkpt lat="47.8495" lon="6.76685">
        <ele>898</ele>
        <time>2018-06-23T09:06:47.000Z</time>
      </trkpt>
      <trkpt lat="47.8495" lon="6.76684">
        <ele>898</ele>
        <time>2018-06-23T09:06:48.000Z</time>
      </trkpt>
      <trkpt lat="47.8495" lon="6.76682">
        <ele>898</ele>
        <time>2018-06-23T09:06:49.000Z</time>
      </trkpt>
      <trkpt lat="47.84951" lon="6.7668">
        <ele>898</ele>
        <time>2018-06-23T09:06:50.000Z</time>
      </trkpt>
      <trkpt lat="47.84951" lon="6.76678">
        <ele>898</ele>
        <time>2018-06-23T09:06:51.000Z</time>
      </trkpt>
      <trkpt lat="47.84952" lon="6.76676">
        <ele>898</ele>
        <time>2018-06-23T09:06:52.000Z</time>
      </trkpt>
      <trkpt lat="47.84953" lon="6.76674">
        <ele>898</ele>
        <time>2018-06-23T09:06:53.000Z</time>
      </trkpt>
      <trkpt lat="47.84953" lon="6.76673">
        <ele>897</ele>
        <time>2018-06-23T09:06:54.000Z</time>
      </trkpt>
      <trkpt lat="47.84953" lon="6.76671">
        <ele>897</ele>
        <time>2018-06-23T09:06:55.000Z</time>
      </trkpt>
      <trkpt lat="47.84953" lon="6.76669">
        <ele>897</ele>
        <time>2018-06-23T09:06:56.000Z</time>
      </trkpt>
      <trkpt lat="47.84953" lon="6.76668">
        <ele>897</ele>
        <time>2018-06-23T09:06:57.000Z</time>
      </trkpt>
      <trkpt lat="47.84953" lon="6.76667">
        <ele>897</ele>
        <time>2018-06-23T09:06:58.000Z</time>
      </trkpt>
      <trkpt lat="47.84953" lon="6.76665">
        <ele>895</ele>
        <time>2018-06-23T09:06:59.000Z</time>
      </trkpt>
      <trkpt lat="47.84954" lon="6.76664">
        <ele>895</ele>
        <time>2018-06-23T09:07:00.000Z</time>
      </trkpt>
      <trkpt lat="47.84954" lon="6.76663">
        <ele>895</ele>
        <time>2018-06-23T09:07:01.000Z</time>
      </trkpt>
      <trkpt lat="47.84954" lon="6.76661">
        <ele>895</ele>
        <time>2018-06-23T09:07:02.000Z</time>
      </trkpt>
      <trkpt lat="47.84954" lon="6.7666">
        <ele>895</ele>
        <time>2018-06-23T09:07:03.000Z</time>
      </trkpt>
      <trkpt lat="47.84954" lon="6.76658">
        <ele>895</ele>
        <time>2018-06-23T09:07:04.000Z</time>
      </trkpt>
      <trkpt lat="47.84954" lon="6.76656">
        <ele>895</ele>
        <time>2018-06-23T09:07:05.000Z</time>
      </trkpt>
      <trkpt lat="47.84954" lon="6.76655">
        <ele>895</ele>
        <time>2018-06-23T09:07:06.000Z</time>
      </trkpt>
      <trkpt lat="47.84955" lon="6.76653">
        <ele>895</ele>
        <time>2018-06-23T09:07:07.000Z</time>
      </trkpt>
      <trkpt lat="47.84956" lon="6.76651">
        <ele>895</ele>
        <time>2018-06-23T09:07:08.000Z</time>
      </trkpt>
      <trkpt lat="47.84956" lon="6.76649">
        <ele>894</ele>
        <time>2018-06-23T09:07:09.000Z</time>
      </trkpt>
      <trkpt lat="47.84957" lon="6.76647">
        <ele>894</ele>
        <time>2018-06-23T09:07:10.000Z</time>
      </trkpt>
      <trkpt lat="47.84957" lon="6.76645">
        <ele>894</ele>
        <time>2018-06-23T09:07:11.000Z</time>
      </trkpt>
      <trkpt lat="47.84958" lon="6.76643">
        <ele>894</ele>
        <time>2018-06-23T09:07:12.000Z</time>
      </trkpt>
      <trkpt lat="47.84958" lon="6.76641">
        <ele>894</ele>
        <time>2018-06-23T09:07:13.000Z</time>
      </trkpt>
      <trkpt lat="47.84959" lon="6.76639">
        <ele>894</ele>
        <time>2018-06-23T09:07:14.000Z</time>
      </trkpt>
      <trkpt lat="47.84959" lon="6.76638">
        <ele>894</ele>
        <time>2018-06-23T09:07:15.000Z</time>
      </trkpt>
      <trkpt lat="47.84959" lon="6.76636">
        <ele>894</ele>
        <time>2018-06-23T09:07:16.000Z</time>
      </trkpt>
      <trkpt lat="47.84959" lon="6.76635">
        <ele>894</ele>
        <time>2018-06-23T09:07:17.000Z</time>
      </trkpt>
      <trkpt lat="47.8496" lon="6.76633">
        <ele>893</ele>
        <time>2018-06-23T09:07:18.000Z</time>
      </trkpt>
      <trkpt lat="47.8496" lon="6.76632">
        <ele>893</ele>
        <time>2018-06-23T09:07:19.000Z</time>
      </trkpt>
      <trkpt lat="47.8496" lon="6.76631">
        <ele>893</ele>
        <time>2018-06-23T09:07:20.000Z</time>
      </trkpt>
      <trkpt lat="47.8496" lon="6.76629">
        <ele>893</ele>
        <time>2018-06-23T09:07:21.000Z</time>
      </trkpt>
      <trkpt lat="47.84961" lon="6.76628">
        <ele>893</ele>
        <time>2018-06-23T09:07:22.000Z</time>
      </trkpt>
      <trkpt lat="47.84961" lon="6.76626">
        <ele>893</ele>
        <time>2018-06-23T09:07:23.000Z</time>
      </trkpt>
      <trkpt lat="47.84961" lon="6.76625">
        <ele>893</ele>
        <time>2018-06-23T09:07:24.000Z</time>
      </trkpt>
      <trkpt lat="47.84962" lon="6.76624">
        <ele>893</ele>
        <time>2018-06-23T09:07:25.000Z</time>
      </trkpt>
      <trkpt lat="47.84962" lon="6.76623">
        <ele>893</ele>
        <time>2018-06-23T09:07:26.000Z</time>
      </trkpt>
      <trkpt lat="47.84963" lon="6.76622">
        <ele>893</ele>
        <time>2018-06-23T09:07:27.000Z</time>
      </trkpt>
      <trkpt lat="47.84964" lon="6.7662">
        <ele>893</ele>
        <time>2018-06-23T09:07:28.000Z</time>
      </trkpt>
      <trkpt lat="47.84964" lon="6.76619">
        <ele>892</ele>
        <time>2018-06-23T09:07:29.000Z</time>
      </trkpt>
      <trkpt lat="47.84965" lon="6.76618">
        <ele>892</ele>
        <time>2018-06-23T09:07:30.000Z</time>
      </trkpt>
      <trkpt lat="47.84966" lon="6.76617">
        <ele>892</ele>
        <time>2018-06-23T09:07:31.000Z</time>
      </trkpt>
      <trkpt lat="47.84966" lon="6.76615">
        <ele>892</ele>
        <time>2018-06-23T09:07:32.000Z</time>
      </trkpt>
      <trkpt lat="47.84967" lon="6.76614">
        <ele>892</ele>
        <time>2018-06-23T09:07:33.000Z</time>
      </trkpt>
      <trkpt lat="47.84968" lon="6.76613">
        <ele>892</ele>
        <time>2018-06-23T09:07:34.000Z</time>
      </trkpt>
      <trkpt lat="47.84968" lon="6.76612">
        <ele>891</ele>
        <time>2018-06-23T09:07:35.000Z</time>
      </trkpt>
      <trkpt lat="47.84969" lon="6.76611">
        <ele>891</ele>
        <time>2018-06-23T09:07:36.000Z</time>
      </trkpt>
      <trkpt lat="47.8497" lon="6.7661">
        <ele>891</ele>
        <time>2018-06-23T09:07:37.000Z</time>
      </trkpt>
      <trkpt lat="47.8497" lon="6.76609">
        <ele>891</ele>
        <time>2018-06-23T09:07:38.000Z</time>
      </trkpt>
      <trkpt lat="47.84971" lon="6.76608">
        <ele>891</ele>
        <time>2018-06-23T09:07:39.000Z</time>
      </trkpt>
      <trkpt lat="47.84971" lon="6.76606">
        <ele>891</ele>
        <time>2018-06-23T09:07:40.000Z</time>
      </trkpt>
      <trkpt lat="47.84972" lon="6.76605">
        <ele>890</ele>
        <time>2018-06-23T09:07:41.000Z</time>
      </trkpt>
      <trkpt lat="47.84972" lon="6.76603">
        <ele>890</ele>
        <time>2018-06-23T09:07:42.000Z</time>
      </trkpt>
      <trkpt lat="47.84973" lon="6.76602">
        <ele>890</ele>
        <time>2018-06-23T09:07:43.000Z</time>
      </trkpt>
      <trkpt lat="47.84974" lon="6.766">
        <ele>890</ele>
        <time>2018-06-23T09:07:44.000Z</time>
      </trkpt>
      <trkpt lat="47.84975" lon="6.76599">
        <ele>889</ele>
        <time>2018-06-23T09:07:45.000Z</time>
      </trkpt>
      <trkpt lat="47.84976" lon="6.76598">
        <ele>889</ele>
        <time>2018-06-23T09:07:46.000Z</time>
      </trkpt>
      <trkpt lat="47.84977" lon="6.76597">
        <ele>889</ele>
        <time>2018-06-23T09:07:47.000Z</time>
      </trkpt>
      <trkpt lat="47.84977" lon="6.76595">
        <ele>888</ele>
        <time>2018-06-23T09:07:48.000Z</time>
      </trkpt>
      <trkpt lat="47.84978" lon="6.76594">
        <ele>888</ele>
        <time>2018-06-23T09:07:49.000Z</time>
      </trkpt>
      <trkpt lat="47.84978" lon="6.76593">
        <ele>888</ele>
        <time>2018-06-23T09:07:50.000Z</time>
      </trkpt>
      <trkpt lat="47.84978" lon="6.76591">
        <ele>888</ele>
        <time>2018-06-23T09:07:51.000Z</time>
      </trkpt>
      <trkpt lat="47.84978" lon="6.76589">
        <ele>888</ele>
        <time>2018-06-23T09:07:52.000Z</time>
      </trkpt>
      <trkpt lat="47.84978" lon="6.76587">
        <ele>888</ele>
        <time>2018-06-23T09:07:53.000Z</time>
      </trkpt>
      <trkpt lat="47.84978" lon="6.76586">
        <ele>888</ele>
        <time>2018-06-23T09:07:54.000Z</time>
      </trkpt>
      <trkpt lat="47.84978" lon="6.76584">
        <ele>888</ele>
        <time>2018-06-23T09:07:55.000Z</time>
      </trkpt>
      <trkpt lat="47.84977" lon="6.76582">
        <ele>886</ele>
        <time>2018-06-23T09:07:56.000Z</time>
      </trkpt>
      <trkpt lat="47.84977" lon="6.7658">
        <ele>886</ele>
        <time>2018-06-23T09:07:57.000Z</time>
      </trkpt>
      <trkpt lat="47.84977" lon="6.76579">
        <ele>886</ele>
        <time>2018-06-23T09:07:58.000Z</time>
      </trkpt>
      <trkpt lat="47.84977" lon="6.76577">
        <ele>886</ele>
        <time>2018-06-23T09:07:59.000Z</time>
      </trkpt>
      <trkpt lat="47.84977" lon="6.76575">
        <ele>886</ele>
        <time>2018-06-23T09:08:00.000Z</time>
      </trkpt>
      <trkpt lat="47.84978" lon="6.76573">
        <ele>886</ele>
        <time>2018-06-23T09:08:01.000Z</time>
      </trkpt>
      <trkpt lat="47.84978" lon="6.76572">
        <ele>886</ele>
        <time>2018-06-23T09:08:02.000Z</time>
      </trkpt>
      <trkpt lat="47.84979" lon="6.7657">
        <ele>886</ele>
        <time>2018-06-23T09:08:03.000Z</time>
      </trkpt>
      <trkpt lat="47.8498" lon="6.76568">
        <ele>886</ele>
        <time>2018-06-23T09:08:04.000Z</time>
      </trkpt>
      <trkpt lat="47.8498" lon="6.76566">
        <ele>886</ele>
        <time>2018-06-23T09:08:05.000Z</time>
      </trkpt>
      <trkpt lat="47.8498" lon="6.76564">
        <ele>887</ele>
        <time>2018-06-23T09:08:06.000Z</time>
      </trkpt>
      <trkpt lat="47.8498" lon="6.76562">
        <ele>887</ele>
        <time>2018-06-23T09:08:07.000Z</time>
      </trkpt>
      <trkpt lat="47.8498" lon="6.7656">
        <ele>887</ele>
        <time>2018-06-23T09:08:08.000Z</time>
      </trkpt>
      <trkpt lat="47.8498" lon="6.76557">
        <ele>887</ele>
        <time>2018-06-23T09:08:09.000Z</time>
      </trkpt>
      <trkpt lat="47.8498" lon="6.76555">
        <ele>887</ele>
        <time>2018-06-23T09:08:10.000Z</time>
      </trkpt>
      <trkpt lat="47.84981" lon="6.76553">
        <ele>887</ele>
        <time>2018-06-23T09:08:11.000Z</time>
      </trkpt>
      <trkpt lat="47.84982" lon="6.76551">
        <ele>887</ele>
        <time>2018-06-23T09:08:12.000Z</time>
      </trkpt>
      <trkpt lat="47.84982" lon="6.76549">
        <ele>887</ele>
        <time>2018-06-23T09:08:13.000Z</time>
      </trkpt>
      <trkpt lat="47.84983" lon="6.76547">
        <ele>887</ele>
        <time>2018-06-23T09:08:14.000Z</time>
      </trkpt>
      <trkpt lat="47.84983" lon="6.76545">
        <ele>887</ele>
        <time>2018-06-23T09:08:15.000Z</time>
      </trkpt>
      <trkpt lat="47.84984" lon="6.76543">
        <ele>887</ele>
        <time>2018-06-23T09:08:16.000Z</time>
      </trkpt>
      <trkpt lat="47.84984" lon="6.76541">
        <ele>887</ele>
        <time>2018-06-23T09:08:17.000Z</time>
      </trkpt>
      <trkpt lat="47.84984" lon="6.76539">
        <ele>887</ele>
        <time>2018-06-23T09:08:18.000Z</time>
      </trkpt>
      <trkpt lat="47.84984" lon="6.76537">
        <ele>887</ele>
        <time>2018-06-23T09:08:19.000Z</time>
      </trkpt>
      <trkpt lat="47.84985" lon="6.76536">
        <ele>887</ele>
        <time>2018-06-23T09:08:20.000Z</time>
      </trkpt>
      <trkpt lat="47.84985" lon="6.76534">
        <ele>887</ele>
        <time>2018-06-23T09:08:21.000Z</time>
      </trkpt>
      <trkpt lat="47.84985" lon="6.76533">
        <ele>886</ele>
        <time>2018-06-23T09:08:22.000Z</time>
      </trkpt>
      <trkpt lat="47.84985" lon="6.76531">
        <ele>886</ele>
        <time>2018-06-23T09:08:23.000Z</time>
      </trkpt>
      <trkpt lat="47.84985" lon="6.76529">
        <ele>886</ele>
        <time>2018-06-23T09:08:24.000Z</time>
      </trkpt>
      <trkpt lat="47.84985" lon="6.76528">
        <ele>886</ele>
        <time>2018-06-23T09:08:25.000Z</time>
      </trkpt>
      <trkpt lat="47.84985" lon="6.76526">
        <ele>886</ele>
        <time>2018-06-23T09:08:26.000Z</time>
      </trkpt>
      <trkpt lat="47.84984" lon="6.76525">
        <ele>886</ele>
        <time>2018-06-23T09:08:27.000Z</time>
      </trkpt>
      <trkpt lat="47.84984" lon="6.76524">
        <ele>886</ele>
        <time>2018-06-23T09:08:28.000Z</time>
      </trkpt>
      <trkpt lat="47.84984" lon="6.76522">
        <ele>886</ele>
        <time>2018-06-23T09:08:29.000Z</time>
      </trkpt>
      <trkpt lat="47.84984" lon="6.76521">
        <ele>886</ele>
        <time>2018-06-23T09:08:30.000Z</time>
      </trkpt>
      <trkpt lat="47.84984" lon="6.7652">
        <ele>885</ele>
        <time>2018-06-23T09:08:31.000Z</time>
      </trkpt>
      <trkpt lat="47.84984" lon="6.76519">
        <ele>885</ele>
        <time>2018-06-23T09:08:32.000Z</time>
      </trkpt>
      <trkpt lat="47.84984" lon="6.76518">
        <ele>885</ele>
        <time>2018-06-23T09:08:33.000Z</time>
      </trkpt>
      <trkpt lat="47.84984" lon="6.76517">
        <ele>885</ele>
        <time>2018-06-23T09:08:34.000Z</time>
      </trkpt>
      <trkpt lat="47.84984" lon="6.76516">
        <ele>885</ele>
        <time>2018-06-23T09:08:35.000Z</time>
      </trkpt>
      <trkpt lat="47.84984" lon="6.76515">
        <ele>885</ele>
        <time>2018-06-23T09:08:36.000Z</time>
      </trkpt>
      <trkpt lat="47.84985" lon="6.76514">
        <ele>884</ele>
        <time>2018-06-23T09:08:37.000Z</time>
      </trkpt>
      <trkpt lat="47.84985" lon="6.76513">
        <ele>884</ele>
        <time>2018-06-23T09:08:38.000Z</time>
      </trkpt>
      <trkpt lat="47.84985" lon="6.76512">
        <ele>884</ele>
        <time>2018-06-23T09:08:39.000Z</time>
      </trkpt>
      <trkpt lat="47.84985" lon="6.76511">
        <ele>884</ele>
        <time>2018-06-23T09:08:40.000Z</time>
      </trkpt>
      <trkpt lat="47.84986" lon="6.7651">
        <ele>884</ele>
        <time>2018-06-23T09:08:41.000Z</time>
      </trkpt>
      <trkpt lat="47.84986" lon="6.76508">
        <ele>883</ele>
        <time>2018-06-23T09:08:42.000Z</time>
      </trkpt>
      <trkpt lat="47.84986" lon="6.76507">
        <ele>883</ele>
        <time>2018-06-23T09:08:43.000Z</time>
      </trkpt>
      <trkpt lat="47.84985" lon="6.76506">
        <ele>883</ele>
        <time>2018-06-23T09:08:44.000Z</time>
      </trkpt>
      <trkpt lat="47.84986" lon="6.76505">
        <ele>883</ele>
        <time>2018-06-23T09:08:45.000Z</time>
      </trkpt>
      <trkpt lat="47.84985" lon="6.76504">
        <ele>883</ele>
        <time>2018-06-23T09:08:46.000Z</time>
      </trkpt>
      <trkpt lat="47.84985" lon="6.76502">
        <ele>883</ele>
        <time>2018-06-23T09:08:47.000Z</time>
      </trkpt>
      <trkpt lat="47.84985" lon="6.76501">
        <ele>883</ele>
        <time>2018-06-23T09:08:48.000Z</time>
      </trkpt>
      <trkpt lat="47.84985" lon="6.76499">
        <ele>882</ele>
        <time>2018-06-23T09:08:49.000Z</time>
      </trkpt>
      <trkpt lat="47.84985" lon="6.76498">
        <ele>882</ele>
        <time>2018-06-23T09:08:50.000Z</time>
      </trkpt>
      <trkpt lat="47.84985" lon="6.76496">
        <ele>882</ele>
        <time>2018-06-23T09:08:51.000Z</time>
      </trkpt>
      <trkpt lat="47.84985" lon="6.76494">
        <ele>882</ele>
        <time>2018-06-23T09:08:52.000Z</time>
      </trkpt>
      <trkpt lat="47.84985" lon="6.76492">
        <ele>882</ele>
        <time>2018-06-23T09:08:53.000Z</time>
      </trkpt>
      <trkpt lat="47.84986" lon="6.76491">
        <ele>882</ele>
        <time>2018-06-23T09:08:54.000Z</time>
      </trkpt>
      <trkpt lat="47.84986" lon="6.76489">
        <ele>882</ele>
        <time>2018-06-23T09:08:55.000Z</time>
      </trkpt>
      <trkpt lat="47.84987" lon="6.76488">
        <ele>882</ele>
        <time>2018-06-23T09:08:56.000Z</time>
      </trkpt>
      <trkpt lat="47.84987" lon="6.76486">
        <ele>882</ele>
        <time>2018-06-23T09:08:57.000Z</time>
      </trkpt>
      <trkpt lat="47.84988" lon="6.76485">
        <ele>882</ele>
        <time>2018-06-23T09:08:58.000Z</time>
      </trkpt>
      <trkpt lat="47.84988" lon="6.76483">
        <ele>882</ele>
        <time>2018-06-23T09:08:59.000Z</time>
      </trkpt>
      <trkpt lat="47.84989" lon="6.76481">
        <ele>882</ele>
        <time>2018-06-23T09:09:00.000Z</time>
      </trkpt>
      <trkpt lat="47.84989" lon="6.76479">
        <ele>882</ele>
        <time>2018-06-23T09:09:01.000Z</time>
      </trkpt>
      <trkpt lat="47.8499" lon="6.76478">
        <ele>883</ele>
        <time>2018-06-23T09:09:02.000Z</time>
      </trkpt>
      <trkpt lat="47.8499" lon="6.76476">
        <ele>883</ele>
        <time>2018-06-23T09:09:03.000Z</time>
      </trkpt>
      <trkpt lat="47.8499" lon="6.76475">
        <ele>883</ele>
        <time>2018-06-23T09:09:04.000Z</time>
      </trkpt>
      <trkpt lat="47.8499" lon="6.76473">
        <ele>883</ele>
        <time>2018-06-23T09:09:05.000Z</time>
      </trkpt>
      <trkpt lat="47.84991" lon="6.76472">
        <ele>883</ele>
        <time>2018-06-23T09:09:06.000Z</time>
      </trkpt>
      <trkpt lat="47.84991" lon="6.7647">
        <ele>883</ele>
        <time>2018-06-23T09:09:07.000Z</time>
      </trkpt>
      <trkpt lat="47.84991" lon="6.76469">
        <ele>883</ele>
        <time>2018-06-23T09:09:08.000Z</time>
      </trkpt>
      <trkpt lat="47.84992" lon="6.76467">
        <ele>883</ele>
        <time>2018-06-23T09:09:09.000Z</time>
      </trkpt>
      <trkpt lat="47.84992" lon="6.76465">
        <ele>883</ele>
        <time>2018-06-23T09:09:10.000Z</time>
      </trkpt>
      <trkpt lat="47.84992" lon="6.76463">
        <ele>883</ele>
        <time>2018-06-23T09:09:11.000Z</time>
      </trkpt>
      <trkpt lat="47.84992" lon="6.76461">
        <ele>883</ele>
        <time>2018-06-23T09:09:12.000Z</time>
      </trkpt>
      <trkpt lat="47.84992" lon="6.76459">
        <ele>883</ele>
        <time>2018-06-23T09:09:13.000Z</time>
      </trkpt>
      <trkpt lat="47.84992" lon="6.76458">
        <ele>883</ele>
        <time>2018-06-23T09:09:14.000Z</time>
      </trkpt>
      <trkpt lat="47.84992" lon="6.76457">
        <ele>883</ele>
        <time>2018-06-23T09:09:15.000Z</time>
      </trkpt>
      <trkpt lat="47.84991" lon="6.76455">
        <ele>882</ele>
        <time>2018-06-23T09:09:16.000Z</time>
      </trkpt>
      <trkpt lat="47.84991" lon="6.76454">
        <ele>882</ele>
        <time>2018-06-23T09:09:17.000Z</time>
      </trkpt>
      <trkpt lat="47.84991" lon="6.76452">
        <ele>882</ele>
        <time>2018-06-23T09:09:18.000Z</time>
      </trkpt>
      <trkpt lat="47.84991" lon="6.76451">
        <ele>882</ele>
        <time>2018-06-23T09:09:19.000Z</time>
      </trkpt>
      <trkpt lat="47.84991" lon="6.76449">
        <ele>882</ele>
        <time>2018-06-23T09:09:20.000Z</time>
      </trkpt>
      <trkpt lat="47.8499" lon="6.76448">
        <ele>882</ele>
        <time>2018-06-23T09:09:21.000Z</time>
      </trkpt>
      <trkpt lat="47.8499" lon="6.76446">
        <ele>882</ele>
        <time>2018-06-23T09:09:22.000Z</time>
      </trkpt>
      <trkpt lat="47.8499" lon="6.76445">
        <ele>881</ele>
        <time>2018-06-23T09:09:23.000Z</time>
      </trkpt>
      <trkpt lat="47.8499" lon="6.76443">
        <ele>881</ele>
        <time>2018-06-23T09:09:24.000Z</time>
      </trkpt>
      <trkpt lat="47.84989" lon="6.76442">
        <ele>881</ele>
        <time>2018-06-23T09:09:25.000Z</time>
      </trkpt>
      <trkpt lat="47.84989" lon="6.76441">
        <ele>881</ele>
        <time>2018-06-23T09:09:26.000Z</time>
      </trkpt>
      <trkpt lat="47.84989" lon="6.7644">
        <ele>881</ele>
        <time>2018-06-23T09:09:27.000Z</time>
      </trkpt>
      <trkpt lat="47.84989" lon="6.76439">
        <ele>880</ele>
        <time>2018-06-23T09:09:28.000Z</time>
      </trkpt>
      <trkpt lat="47.84989" lon="6.76438">
        <ele>880</ele>
        <time>2018-06-23T09:09:29.000Z</time>
      </trkpt>
      <trkpt lat="47.8499" lon="6.76436">
        <ele>880</ele>
        <time>2018-06-23T09:09:30.000Z</time>
      </trkpt>
      <trkpt lat="47.8499" lon="6.76435">
        <ele>879</ele>
        <time>2018-06-23T09:09:31.000Z</time>
      </trkpt>
      <trkpt lat="47.8499" lon="6.76434">
        <ele>879</ele>
        <time>2018-06-23T09:09:32.000Z</time>
      </trkpt>
      <trkpt lat="47.8499" lon="6.76432">
        <ele>879</ele>
        <time>2018-06-23T09:09:33.000Z</time>
      </trkpt>
      <trkpt lat="47.8499" lon="6.76431">
        <ele>878</ele>
        <time>2018-06-23T09:09:34.000Z</time>
      </trkpt>
      <trkpt lat="47.84989" lon="6.76429">
        <ele>878</ele>
        <time>2018-06-23T09:09:35.000Z</time>
      </trkpt>
      <trkpt lat="47.84989" lon="6.76428">
        <ele>878</ele>
        <time>2018-06-23T09:09:36.000Z</time>
      </trkpt>
      <trkpt lat="47.84989" lon="6.76426">
        <ele>878</ele>
        <time>2018-06-23T09:09:37.000Z</time>
      </trkpt>
      <trkpt lat="47.84989" lon="6.76425">
        <ele>877</ele>
        <time>2018-06-23T09:09:38.000Z</time>
      </trkpt>
      <trkpt lat="47.84989" lon="6.76423">
        <ele>877</ele>
        <time>2018-06-23T09:09:39.000Z</time>
      </trkpt>
      <trkpt lat="47.84989" lon="6.76421">
        <ele>876</ele>
        <time>2018-06-23T09:09:40.000Z</time>
      </trkpt>
      <trkpt lat="47.84989" lon="6.7642">
        <ele>876</ele>
        <time>2018-06-23T09:09:41.000Z</time>
      </trkpt>
      <trkpt lat="47.84989" lon="6.76418">
        <ele>876</ele>
        <time>2018-06-23T09:09:42.000Z</time>
      </trkpt>
      <trkpt lat="47.84989" lon="6.76416">
        <ele>874</ele>
        <time>2018-06-23T09:09:43.000Z</time>
      </trkpt>
      <trkpt lat="47.84989" lon="6.76414">
        <ele>874</ele>
        <time>2018-06-23T09:09:44.000Z</time>
      </trkpt>
      <trkpt lat="47.84989" lon="6.76412">
        <ele>875</ele>
        <time>2018-06-23T09:09:45.000Z</time>
      </trkpt>
      <trkpt lat="47.84989" lon="6.7641">
        <ele>875</ele>
        <time>2018-06-23T09:09:46.000Z</time>
      </trkpt>
      <trkpt lat="47.84989" lon="6.76409">
        <ele>875</ele>
        <time>2018-06-23T09:09:47.000Z</time>
      </trkpt>
      <trkpt lat="47.8499" lon="6.76407">
        <ele>875</ele>
        <time>2018-06-23T09:09:48.000Z</time>
      </trkpt>
      <trkpt lat="47.8499" lon="6.76405">
        <ele>876</ele>
        <time>2018-06-23T09:09:49.000Z</time>
      </trkpt>
      <trkpt lat="47.8499" lon="6.76403">
        <ele>876</ele>
        <time>2018-06-23T09:09:50.000Z</time>
      </trkpt>
      <trkpt lat="47.8499" lon="6.76402">
        <ele>876</ele>
        <time>2018-06-23T09:09:51.000Z</time>
      </trkpt>
      <trkpt lat="47.8499" lon="6.764">
        <ele>876</ele>
        <time>2018-06-23T09:09:52.000Z</time>
      </trkpt>
      <trkpt lat="47.8499" lon="6.76399">
        <ele>877</ele>
        <time>2018-06-23T09:09:53.000Z</time>
      </trkpt>
      <trkpt lat="47.8499" lon="6.76397">
        <ele>877</ele>
        <time>2018-06-23T09:09:54.000Z</time>
      </trkpt>
      <trkpt lat="47.8499" lon="6.76396">
        <ele>877</ele>
        <time>2018-06-23T09:09:55.000Z</time>
      </trkpt>
      <trkpt lat="47.8499" lon="6.76395">
        <ele>877</ele>
        <time>2018-06-23T09:09:56.000Z</time>
      </trkpt>
      <trkpt lat="47.8499" lon="6.76394">
        <ele>877</ele>
        <time>2018-06-23T09:09:57.000Z</time>
      </trkpt>
      <trkpt lat="47.8499" lon="6.76392">
        <ele>877</ele>
        <time>2018-06-23T09:09:58.000Z</time>
      </trkpt>
      <trkpt lat="47.8499" lon="6.76391">
        <ele>877</ele>
        <time>2018-06-23T09:09:59.000Z</time>
      </trkpt>
      <trkpt lat="47.8499" lon="6.76389">
        <ele>878</ele>
        <time>2018-06-23T09:10:00.000Z</time>
      </trkpt>
      <trkpt lat="47.8499" lon="6.76387">
        <ele>878</ele>
        <time>2018-06-23T09:10:01.000Z</time>
      </trkpt>
      <trkpt lat="47.8499" lon="6.76386">
        <ele>878</ele>
        <time>2018-06-23T09:10:02.000Z</time>
      </trkpt>
      <trkpt lat="47.84991" lon="6.76384">
        <ele>878</ele>
        <time>2018-06-23T09:10:03.000Z</time>
      </trkpt>
      <trkpt lat="47.84991" lon="6.76383">
        <ele>878</ele>
        <time>2018-06-23T09:10:04.000Z</time>
      </trkpt>
      <trkpt lat="47.84991" lon="6.76381">
        <ele>878</ele>
        <time>2018-06-23T09:10:05.000Z</time>
      </trkpt>
      <trkpt lat="47.84992" lon="6.76379">
        <ele>878</ele>
        <time>2018-06-23T09:10:06.000Z</time>
      </trkpt>
      <trkpt lat="47.84992" lon="6.76378">
        <ele>877</ele>
        <time>2018-06-23T09:10:07.000Z</time>
      </trkpt>
      <trkpt lat="47.84992" lon="6.76376">
        <ele>877</ele>
        <time>2018-06-23T09:10:08.000Z</time>
      </trkpt>
      <trkpt lat="47.84993" lon="6.76375">
        <ele>877</ele>
        <time>2018-06-23T09:10:09.000Z</time>
      </trkpt>
      <trkpt lat="47.84993" lon="6.76373">
        <ele>877</ele>
        <time>2018-06-23T09:10:10.000Z</time>
      </trkpt>
      <trkpt lat="47.84993" lon="6.76371">
        <ele>877</ele>
        <time>2018-06-23T09:10:11.000Z</time>
      </trkpt>
      <trkpt lat="47.84993" lon="6.7637">
        <ele>877</ele>
        <time>2018-06-23T09:10:12.000Z</time>
      </trkpt>
      <trkpt lat="47.84993" lon="6.76368">
        <ele>877</ele>
        <time>2018-06-23T09:10:13.000Z</time>
      </trkpt>
      <trkpt lat="47.84993" lon="6.76367">
        <ele>877</ele>
        <time>2018-06-23T09:10:14.000Z</time>
      </trkpt>
      <trkpt lat="47.84993" lon="6.76365">
        <ele>876</ele>
        <time>2018-06-23T09:10:15.000Z</time>
      </trkpt>
      <trkpt lat="47.84993" lon="6.76363">
        <ele>876</ele>
        <time>2018-06-23T09:10:16.000Z</time>
      </trkpt>
      <trkpt lat="47.84994" lon="6.76361">
        <ele>876</ele>
        <time>2018-06-23T09:10:17.000Z</time>
      </trkpt>
      <trkpt lat="47.84994" lon="6.7636">
        <ele>875</ele>
        <time>2018-06-23T09:10:18.000Z</time>
      </trkpt>
      <trkpt lat="47.84994" lon="6.76358">
        <ele>875</ele>
        <time>2018-06-23T09:10:19.000Z</time>
      </trkpt>
      <trkpt lat="47.84994" lon="6.76356">
        <ele>875</ele>
        <time>2018-06-23T09:10:20.000Z</time>
      </trkpt>
      <trkpt lat="47.84993" lon="6.76355">
        <ele>874</ele>
        <time>2018-06-23T09:10:21.000Z</time>
      </trkpt>
      <trkpt lat="47.84993" lon="6.76354">
        <ele>874</ele>
        <time>2018-06-23T09:10:22.000Z</time>
      </trkpt>
      <trkpt lat="47.84993" lon="6.76352">
        <ele>874</ele>
        <time>2018-06-23T09:10:23.000Z</time>
      </trkpt>
      <trkpt lat="47.84993" lon="6.76351">
        <ele>873</ele>
        <time>2018-06-23T09:10:24.000Z</time>
      </trkpt>
      <trkpt lat="47.84994" lon="6.76349">
        <ele>873</ele>
        <time>2018-06-23T09:10:25.000Z</time>
      </trkpt>
      <trkpt lat="47.84993" lon="6.76348">
        <ele>872</ele>
        <time>2018-06-23T09:10:26.000Z</time>
      </trkpt>
      <trkpt lat="47.84994" lon="6.76346">
        <ele>872</ele>
        <time>2018-06-23T09:10:27.000Z</time>
      </trkpt>
      <trkpt lat="47.84994" lon="6.76345">
        <ele>871</ele>
        <time>2018-06-23T09:10:28.000Z</time>
      </trkpt>
      <trkpt lat="47.84994" lon="6.76344">
        <ele>871</ele>
        <time>2018-06-23T09:10:29.000Z</time>
      </trkpt>
      <trkpt lat="47.84994" lon="6.76342">
        <ele>870</ele>
        <time>2018-06-23T09:10:30.000Z</time>
      </trkpt>
      <trkpt lat="47.84994" lon="6.7634">
        <ele>869</ele>
        <time>2018-06-23T09:10:31.000Z</time>
      </trkpt>
      <trkpt lat="47.84993" lon="6.76339">
        <ele>869</ele>
        <time>2018-06-23T09:10:32.000Z</time>
      </trkpt>
      <trkpt lat="47.84993" lon="6.76337">
        <ele>869</ele>
        <time>2018-06-23T09:10:33.000Z</time>
      </trkpt>
      <trkpt lat="47.84993" lon="6.76335">
        <ele>868</ele>
        <time>2018-06-23T09:10:34.000Z</time>
      </trkpt>
      <trkpt lat="47.84993" lon="6.76333">
        <ele>867</ele>
        <time>2018-06-23T09:10:35.000Z</time>
      </trkpt>
      <trkpt lat="47.84993" lon="6.76332">
        <ele>868</ele>
        <time>2018-06-23T09:10:36.000Z</time>
      </trkpt>
      <trkpt lat="47.84993" lon="6.7633">
        <ele>868</ele>
        <time>2018-06-23T09:10:37.000Z</time>
      </trkpt>
      <trkpt lat="47.84993" lon="6.76328">
        <ele>868</ele>
        <time>2018-06-23T09:10:38.000Z</time>
      </trkpt>
      <trkpt lat="47.84994" lon="6.76326">
        <ele>868</ele>
        <time>2018-06-23T09:10:39.000Z</time>
      </trkpt>
      <trkpt lat="47.84993" lon="6.76324">
        <ele>869</ele>
        <time>2018-06-23T09:10:40.000Z</time>
      </trkpt>
      <trkpt lat="47.84994" lon="6.76322">
        <ele>870</ele>
        <time>2018-06-23T09:10:41.000Z</time>
      </trkpt>
      <trkpt lat="47.84994" lon="6.7632">
        <ele>870</ele>
        <time>2018-06-23T09:10:42.000Z</time>
      </trkpt>
      <trkpt lat="47.84994" lon="6.76318">
        <ele>871</ele>
        <time>2018-06-23T09:10:43.000Z</time>
      </trkpt>
      <trkpt lat="47.84995" lon="6.76316">
        <ele>871</ele>
        <time>2018-06-23T09:10:44.000Z</time>
      </trkpt>
      <trkpt lat="47.84995" lon="6.76315">
        <ele>872</ele>
        <time>2018-06-23T09:10:45.000Z</time>
      </trkpt>
      <trkpt lat="47.84995" lon="6.76313">
        <ele>872</ele>
        <time>2018-06-23T09:10:46.000Z</time>
      </trkpt>
      <trkpt lat="47.84994" lon="6.76311">
        <ele>872</ele>
        <time>2018-06-23T09:10:47.000Z</time>
      </trkpt>
      <trkpt lat="47.84994" lon="6.76309">
        <ele>873</ele>
        <time>2018-06-23T09:10:48.000Z</time>
      </trkpt>
      <trkpt lat="47.84994" lon="6.76307">
        <ele>873</ele>
        <time>2018-06-23T09:10:49.000Z</time>
      </trkpt>
      <trkpt lat="47.84993" lon="6.76306">
        <ele>873</ele>
        <time>2018-06-23T09:10:50.000Z</time>
      </trkpt>
      <trkpt lat="47.84993" lon="6.76304">
        <ele>873</ele>
        <time>2018-06-23T09:10:51.000Z</time>
      </trkpt>
      <trkpt lat="47.84992" lon="6.76302">
        <ele>874</ele>
        <time>2018-06-23T09:10:52.000Z</time>
      </trkpt>
      <trkpt lat="47.84992" lon="6.763">
        <ele>874</ele>
        <time>2018-06-23T09:10:53.000Z</time>
      </trkpt>
      <trkpt lat="47.84991" lon="6.76299">
        <ele>874</ele>
        <time>2018-06-23T09:10:54.000Z</time>
      </trkpt>
      <trkpt lat="47.84991" lon="6.76297">
        <ele>874</ele>
        <time>2018-06-23T09:10:55.000Z</time>
      </trkpt>
      <trkpt lat="47.8499" lon="6.76296">
        <ele>874</ele>
        <time>2018-06-23T09:10:56.000Z</time>
      </trkpt>
      <trkpt lat="47.8499" lon="6.76294">
        <ele>874</ele>
        <time>2018-06-23T09:10:57.000Z</time>
      </trkpt>
      <trkpt lat="47.8499" lon="6.76292">
        <ele>874</ele>
        <time>2018-06-23T09:10:58.000Z</time>
      </trkpt>
      <trkpt lat="47.8499" lon="6.7629">
        <ele>874</ele>
        <time>2018-06-23T09:10:59.000Z</time>
      </trkpt>
      <trkpt lat="47.8499" lon="6.76289">
        <ele>874</ele>
        <time>2018-06-23T09:11:00.000Z</time>
      </trkpt>
      <trkpt lat="47.8499" lon="6.76287">
        <ele>874</ele>
        <time>2018-06-23T09:11:01.000Z</time>
      </trkpt>
      <trkpt lat="47.8499" lon="6.76285">
        <ele>874</ele>
        <time>2018-06-23T09:11:02.000Z</time>
      </trkpt>
      <trkpt lat="47.8499" lon="6.76283">
        <ele>874</ele>
        <time>2018-06-23T09:11:03.000Z</time>
      </trkpt>
      <trkpt lat="47.8499" lon="6.76282">
        <ele>874</ele>
        <time>2018-06-23T09:11:04.000Z</time>
      </trkpt>
      <trkpt lat="47.84991" lon="6.7628">
        <ele>873</ele>
        <time>2018-06-23T09:11:05.000Z</time>
      </trkpt>
      <trkpt lat="47.84991" lon="6.76279">
        <ele>873</ele>
        <time>2018-06-23T09:11:06.000Z</time>
      </trkpt>
      <trkpt lat="47.84991" lon="6.76277">
        <ele>873</ele>
        <time>2018-06-23T09:11:07.000Z</time>
      </trkpt>
      <trkpt lat="47.84992" lon="6.76275">
        <ele>872</ele>
        <time>2018-06-23T09:11:08.000Z</time>
      </trkpt>
      <trkpt lat="47.84992" lon="6.76273">
        <ele>872</ele>
        <time>2018-06-23T09:11:09.000Z</time>
      </trkpt>
      <trkpt lat="47.84993" lon="6.76272">
        <ele>872</ele>
        <time>2018-06-23T09:11:10.000Z</time>
      </trkpt>
      <trkpt lat="47.84993" lon="6.7627">
        <ele>871</ele>
        <time>2018-06-23T09:11:11.000Z</time>
      </trkpt>
      <trkpt lat="47.84993" lon="6.76268">
        <ele>871</ele>
        <time>2018-06-23T09:11:12.000Z</time>
      </trkpt>
      <trkpt lat="47.84993" lon="6.76267">
        <ele>871</ele>
        <time>2018-06-23T09:11:13.000Z</time>
      </trkpt>
      <trkpt lat="47.84993" lon="6.76265">
        <ele>870</ele>
        <time>2018-06-23T09:11:14.000Z</time>
      </trkpt>
      <trkpt lat="47.84993" lon="6.76263">
        <ele>869</ele>
        <time>2018-06-23T09:11:15.000Z</time>
      </trkpt>
      <trkpt lat="47.84993" lon="6.76261">
        <ele>869</ele>
        <time>2018-06-23T09:11:16.000Z</time>
      </trkpt>
      <trkpt lat="47.84993" lon="6.7626">
        <ele>868</ele>
        <time>2018-06-23T09:11:17.000Z</time>
      </trkpt>
      <trkpt lat="47.84993" lon="6.76258">
        <ele>868</ele>
        <time>2018-06-23T09:11:18.000Z</time>
      </trkpt>
      <trkpt lat="47.84993" lon="6.76256">
        <ele>867</ele>
        <time>2018-06-23T09:11:19.000Z</time>
      </trkpt>
      <trkpt lat="47.84993" lon="6.76255">
        <ele>867</ele>
        <time>2018-06-23T09:11:20.000Z</time>
      </trkpt>
      <trkpt lat="47.84992" lon="6.76253">
        <ele>866</ele>
        <time>2018-06-23T09:11:21.000Z</time>
      </trkpt>
      <trkpt lat="47.84992" lon="6.76251">
        <ele>866</ele>
        <time>2018-06-23T09:11:22.000Z</time>
      </trkpt>
      <trkpt lat="47.84992" lon="6.76249">
        <ele>866</ele>
        <time>2018-06-23T09:11:23.000Z</time>
      </trkpt>
      <trkpt lat="47.84992" lon="6.76247">
        <ele>866</ele>
        <time>2018-06-23T09:11:24.000Z</time>
      </trkpt>
      <trkpt lat="47.84992" lon="6.76245">
        <ele>866</ele>
        <time>2018-06-23T09:11:25.000Z</time>
      </trkpt>
      <trkpt lat="47.84992" lon="6.76243">
        <ele>867</ele>
        <time>2018-06-23T09:11:26.000Z</time>
      </trkpt>
      <trkpt lat="47.84993" lon="6.76241">
        <ele>867</ele>
        <time>2018-06-23T09:11:27.000Z</time>
      </trkpt>
      <trkpt lat="47.84994" lon="6.76238">
        <ele>868</ele>
        <time>2018-06-23T09:11:28.000Z</time>
      </trkpt>
      <trkpt lat="47.84995" lon="6.76236">
        <ele>868</ele>
        <time>2018-06-23T09:11:29.000Z</time>
      </trkpt>
      <trkpt lat="47.84996" lon="6.76233">
        <ele>869</ele>
        <time>2018-06-23T09:11:30.000Z</time>
      </trkpt>
      <trkpt lat="47.84997" lon="6.76231">
        <ele>869</ele>
        <time>2018-06-23T09:11:31.000Z</time>
      </trkpt>
      <trkpt lat="47.84998" lon="6.76229">
        <ele>870</ele>
        <time>2018-06-23T09:11:32.000Z</time>
      </trkpt>
      <trkpt lat="47.84998" lon="6.76228">
        <ele>870</ele>
        <time>2018-06-23T09:11:33.000Z</time>
      </trkpt>
      <trkpt lat="47.84999" lon="6.76226">
        <ele>870</ele>
        <time>2018-06-23T09:11:34.000Z</time>
      </trkpt>
      <trkpt lat="47.84999" lon="6.76224">
        <ele>870</ele>
        <time>2018-06-23T09:11:35.000Z</time>
      </trkpt>
      <trkpt lat="47.84999" lon="6.76221">
        <ele>871</ele>
        <time>2018-06-23T09:11:36.000Z</time>
      </trkpt>
      <trkpt lat="47.85" lon="6.76219">
        <ele>871</ele>
        <time>2018-06-23T09:11:37.000Z</time>
      </trkpt>
      <trkpt lat="47.85" lon="6.76218">
        <ele>852</ele>
        <time>2018-06-23T09:11:38.000Z</time>
      </trkpt>
      <trkpt lat="47.85001" lon="6.76216">
        <ele>851</ele>
        <time>2018-06-23T09:11:39.000Z</time>
      </trkpt>
      <trkpt lat="47.85001" lon="6.76215">
        <ele>851</ele>
        <time>2018-06-23T09:11:40.000Z</time>
      </trkpt>
      <trkpt lat="47.85001" lon="6.76213">
        <ele>851</ele>
        <time>2018-06-23T09:11:41.000Z</time>
      </trkpt>
      <trkpt lat="47.85002" lon="6.76211">
        <ele>851</ele>
        <time>2018-06-23T09:11:42.000Z</time>
      </trkpt>
      <trkpt lat="47.85002" lon="6.7621">
        <ele>851</ele>
        <time>2018-06-23T09:11:43.000Z</time>
      </trkpt>
      <trkpt lat="47.85003" lon="6.76208">
        <ele>851</ele>
        <time>2018-06-23T09:11:44.000Z</time>
      </trkpt>
      <trkpt lat="47.85003" lon="6.76206">
        <ele>851</ele>
        <time>2018-06-23T09:11:45.000Z</time>
      </trkpt>
      <trkpt lat="47.85004" lon="6.76204">
        <ele>851</ele>
        <time>2018-06-23T09:11:46.000Z</time>
      </trkpt>
      <trkpt lat="47.85004" lon="6.76203">
        <ele>851</ele>
        <time>2018-06-23T09:11:47.000Z</time>
      </trkpt>
      <trkpt lat="47.85005" lon="6.76201">
        <ele>851</ele>
        <time>2018-06-23T09:11:48.000Z</time>
      </trkpt>
      <trkpt lat="47.85005" lon="6.76199">
        <ele>851</ele>
        <time>2018-06-23T09:11:49.000Z</time>
      </trkpt>
      <trkpt lat="47.85005" lon="6.76197">
        <ele>851</ele>
        <time>2018-06-23T09:11:50.000Z</time>
      </trkpt>
      <trkpt lat="47.85005" lon="6.76195">
        <ele>851</ele>
        <time>2018-06-23T09:11:51.000Z</time>
      </trkpt>
      <trkpt lat="47.85006" lon="6.76193">
        <ele>851</ele>
        <time>2018-06-23T09:11:52.000Z</time>
      </trkpt>
      <trkpt lat="47.85006" lon="6.76191">
        <ele>851</ele>
        <time>2018-06-23T09:11:53.000Z</time>
      </trkpt>
      <trkpt lat="47.85006" lon="6.76189">
        <ele>851</ele>
        <time>2018-06-23T09:11:54.000Z</time>
      </trkpt>
      <trkpt lat="47.85006" lon="6.76188">
        <ele>851</ele>
        <time>2018-06-23T09:11:55.000Z</time>
      </trkpt>
      <trkpt lat="47.85007" lon="6.76186">
        <ele>851</ele>
        <time>2018-06-23T09:11:56.000Z</time>
      </trkpt>
      <trkpt lat="47.85007" lon="6.76185">
        <ele>852</ele>
        <time>2018-06-23T09:11:57.000Z</time>
      </trkpt>
      <trkpt lat="47.85007" lon="6.76183">
        <ele>852</ele>
        <time>2018-06-23T09:11:58.000Z</time>
      </trkpt>
      <trkpt lat="47.85007" lon="6.76181">
        <ele>852</ele>
        <time>2018-06-23T09:11:59.000Z</time>
      </trkpt>
      <trkpt lat="47.85008" lon="6.76179">
        <ele>852</ele>
        <time>2018-06-23T09:12:00.000Z</time>
      </trkpt>
      <trkpt lat="47.85008" lon="6.76177">
        <ele>853</ele>
        <time>2018-06-23T09:12:01.000Z</time>
      </trkpt>
      <trkpt lat="47.85008" lon="6.76176">
        <ele>853</ele>
        <time>2018-06-23T09:12:02.000Z</time>
      </trkpt>
      <trkpt lat="47.85008" lon="6.76174">
        <ele>853</ele>
        <time>2018-06-23T09:12:03.000Z</time>
      </trkpt>
      <trkpt lat="47.85008" lon="6.76173">
        <ele>853</ele>
        <time>2018-06-23T09:12:04.000Z</time>
      </trkpt>
      <trkpt lat="47.85009" lon="6.76171">
        <ele>853</ele>
        <time>2018-06-23T09:12:05.000Z</time>
      </trkpt>
      <trkpt lat="47.85009" lon="6.76169">
        <ele>854</ele>
        <time>2018-06-23T09:12:06.000Z</time>
      </trkpt>
      <trkpt lat="47.85009" lon="6.76166">
        <ele>852</ele>
        <time>2018-06-23T09:12:07.000Z</time>
      </trkpt>
      <trkpt lat="47.8501" lon="6.76164">
        <ele>852</ele>
        <time>2018-06-23T09:12:08.000Z</time>
      </trkpt>
      <trkpt lat="47.8501" lon="6.76162">
        <ele>851</ele>
        <time>2018-06-23T09:12:09.000Z</time>
      </trkpt>
      <trkpt lat="47.85011" lon="6.7616">
        <ele>851</ele>
        <time>2018-06-23T09:12:10.000Z</time>
      </trkpt>
      <trkpt lat="47.85011" lon="6.76158">
        <ele>851</ele>
        <time>2018-06-23T09:12:11.000Z</time>
      </trkpt>
      <trkpt lat="47.85011" lon="6.76157">
        <ele>850</ele>
        <time>2018-06-23T09:12:12.000Z</time>
      </trkpt>
      <trkpt lat="47.85011" lon="6.76155">
        <ele>850</ele>
        <time>2018-06-23T09:12:13.000Z</time>
      </trkpt>
      <trkpt lat="47.85012" lon="6.76153">
        <ele>849</ele>
        <time>2018-06-23T09:12:14.000Z</time>
      </trkpt>
      <trkpt lat="47.85013" lon="6.76151">
        <ele>849</ele>
        <time>2018-06-23T09:12:15.000Z</time>
      </trkpt>
      <trkpt lat="47.85014" lon="6.76149">
        <ele>848</ele>
        <time>2018-06-23T09:12:16.000Z</time>
      </trkpt>
      <trkpt lat="47.85014" lon="6.76147">
        <ele>848</ele>
        <time>2018-06-23T09:12:17.000Z</time>
      </trkpt>
      <trkpt lat="47.85015" lon="6.76146">
        <ele>848</ele>
        <time>2018-06-23T09:12:18.000Z</time>
      </trkpt>
      <trkpt lat="47.85015" lon="6.76144">
        <ele>847</ele>
        <time>2018-06-23T09:12:19.000Z</time>
      </trkpt>
      <trkpt lat="47.85016" lon="6.76142">
        <ele>847</ele>
        <time>2018-06-23T09:12:20.000Z</time>
      </trkpt>
      <trkpt lat="47.85016" lon="6.76141">
        <ele>847</ele>
        <time>2018-06-23T09:12:21.000Z</time>
      </trkpt>
      <trkpt lat="47.85017" lon="6.7614">
        <ele>847</ele>
        <time>2018-06-23T09:12:22.000Z</time>
      </trkpt>
      <trkpt lat="47.85017" lon="6.76138">
        <ele>846</ele>
        <time>2018-06-23T09:12:23.000Z</time>
      </trkpt>
      <trkpt lat="47.85018" lon="6.76136">
        <ele>846</ele>
        <time>2018-06-23T09:12:24.000Z</time>
      </trkpt>
      <trkpt lat="47.85019" lon="6.76134">
        <ele>846</ele>
        <time>2018-06-23T09:12:25.000Z</time>
      </trkpt>
      <trkpt lat="47.8502" lon="6.76132">
        <ele>846</ele>
        <time>2018-06-23T09:12:26.000Z</time>
      </trkpt>
      <trkpt lat="47.8502" lon="6.7613">
        <ele>846</ele>
        <time>2018-06-23T09:12:27.000Z</time>
      </trkpt>
      <trkpt lat="47.85021" lon="6.76128">
        <ele>845</ele>
        <time>2018-06-23T09:12:28.000Z</time>
      </trkpt>
      <trkpt lat="47.85021" lon="6.76126">
        <ele>845</ele>
        <time>2018-06-23T09:12:29.000Z</time>
      </trkpt>
      <trkpt lat="47.85022" lon="6.76123">
        <ele>845</ele>
        <time>2018-06-23T09:12:30.000Z</time>
      </trkpt>
      <trkpt lat="47.85023" lon="6.76121">
        <ele>845</ele>
        <time>2018-06-23T09:12:31.000Z</time>
      </trkpt>
      <trkpt lat="47.85024" lon="6.76119">
        <ele>845</ele>
        <time>2018-06-23T09:12:32.000Z</time>
      </trkpt>
      <trkpt lat="47.85025" lon="6.76117">
        <ele>845</ele>
        <time>2018-06-23T09:12:33.000Z</time>
      </trkpt>
      <trkpt lat="47.85025" lon="6.76115">
        <ele>845</ele>
        <time>2018-06-23T09:12:34.000Z</time>
      </trkpt>
      <trkpt lat="47.85026" lon="6.76113">
        <ele>845</ele>
        <time>2018-06-23T09:12:35.000Z</time>
      </trkpt>
      <trkpt lat="47.85026" lon="6.76112">
        <ele>845</ele>
        <time>2018-06-23T09:12:36.000Z</time>
      </trkpt>
      <trkpt lat="47.85027" lon="6.76111">
        <ele>845</ele>
        <time>2018-06-23T09:12:37.000Z</time>
      </trkpt>
      <trkpt lat="47.85027" lon="6.76109">
        <ele>845</ele>
        <time>2018-06-23T09:12:38.000Z</time>
      </trkpt>
      <trkpt lat="47.85027" lon="6.76108">
        <ele>845</ele>
        <time>2018-06-23T09:12:39.000Z</time>
      </trkpt>
      <trkpt lat="47.85027" lon="6.76106">
        <ele>845</ele>
        <time>2018-06-23T09:12:40.000Z</time>
      </trkpt>
      <trkpt lat="47.85027" lon="6.76104">
        <ele>845</ele>
        <time>2018-06-23T09:12:41.000Z</time>
      </trkpt>
      <trkpt lat="47.85028" lon="6.76103">
        <ele>845</ele>
        <time>2018-06-23T09:12:42.000Z</time>
      </trkpt>
      <trkpt lat="47.85028" lon="6.76101">
        <ele>845</ele>
        <time>2018-06-23T09:12:43.000Z</time>
      </trkpt>
      <trkpt lat="47.85028" lon="6.76099">
        <ele>845</ele>
        <time>2018-06-23T09:12:44.000Z</time>
      </trkpt>
      <trkpt lat="47.85028" lon="6.76097">
        <ele>845</ele>
        <time>2018-06-23T09:12:45.000Z</time>
      </trkpt>
      <trkpt lat="47.85028" lon="6.76095">
        <ele>845</ele>
        <time>2018-06-23T09:12:46.000Z</time>
      </trkpt>
      <trkpt lat="47.85029" lon="6.76093">
        <ele>845</ele>
        <time>2018-06-23T09:12:47.000Z</time>
      </trkpt>
      <trkpt lat="47.85029" lon="6.7609">
        <ele>845</ele>
        <time>2018-06-23T09:12:48.000Z</time>
      </trkpt>
      <trkpt lat="47.85029" lon="6.76088">
        <ele>845</ele>
        <time>2018-06-23T09:12:49.000Z</time>
      </trkpt>
      <trkpt lat="47.8503" lon="6.76086">
        <ele>845</ele>
        <time>2018-06-23T09:12:50.000Z</time>
      </trkpt>
      <trkpt lat="47.8503" lon="6.76084">
        <ele>845</ele>
        <time>2018-06-23T09:12:51.000Z</time>
      </trkpt>
      <trkpt lat="47.85031" lon="6.76083">
        <ele>843</ele>
        <time>2018-06-23T09:12:52.000Z</time>
      </trkpt>
      <trkpt lat="47.85031" lon="6.76082">
        <ele>843</ele>
        <time>2018-06-23T09:12:53.000Z</time>
      </trkpt>
      <trkpt lat="47.85031" lon="6.7608">
        <ele>843</ele>
        <time>2018-06-23T09:12:54.000Z</time>
      </trkpt>
      <trkpt lat="47.85031" lon="6.76078">
        <ele>843</ele>
        <time>2018-06-23T09:12:55.000Z</time>
      </trkpt>
      <trkpt lat="47.85032" lon="6.76076">
        <ele>842</ele>
        <time>2018-06-23T09:12:56.000Z</time>
      </trkpt>
      <trkpt lat="47.85032" lon="6.76075">
        <ele>842</ele>
        <time>2018-06-23T09:12:57.000Z</time>
      </trkpt>
      <trkpt lat="47.85032" lon="6.76073">
        <ele>842</ele>
        <time>2018-06-23T09:12:58.000Z</time>
      </trkpt>
      <trkpt lat="47.85032" lon="6.76072">
        <ele>842</ele>
        <time>2018-06-23T09:12:59.000Z</time>
      </trkpt>
      <trkpt lat="47.85033" lon="6.7607">
        <ele>842</ele>
        <time>2018-06-23T09:13:00.000Z</time>
      </trkpt>
      <trkpt lat="47.85033" lon="6.76068">
        <ele>842</ele>
        <time>2018-06-23T09:13:01.000Z</time>
      </trkpt>
      <trkpt lat="47.85033" lon="6.76067">
        <ele>842</ele>
        <time>2018-06-23T09:13:02.000Z</time>
      </trkpt>
      <trkpt lat="47.85033" lon="6.76065">
        <ele>841</ele>
        <time>2018-06-23T09:13:03.000Z</time>
      </trkpt>
      <trkpt lat="47.85033" lon="6.76064">
        <ele>841</ele>
        <time>2018-06-23T09:13:04.000Z</time>
      </trkpt>
      <trkpt lat="47.85034" lon="6.76062">
        <ele>841</ele>
        <time>2018-06-23T09:13:05.000Z</time>
      </trkpt>
      <trkpt lat="47.85034" lon="6.7606">
        <ele>841</ele>
        <time>2018-06-23T09:13:06.000Z</time>
      </trkpt>
      <trkpt lat="47.85034" lon="6.76058">
        <ele>841</ele>
        <time>2018-06-23T09:13:07.000Z</time>
      </trkpt>
      <trkpt lat="47.85035" lon="6.76056">
        <ele>841</ele>
        <time>2018-06-23T09:13:08.000Z</time>
      </trkpt>
      <trkpt lat="47.85035" lon="6.76054">
        <ele>840</ele>
        <time>2018-06-23T09:13:09.000Z</time>
      </trkpt>
      <trkpt lat="47.85035" lon="6.76053">
        <ele>840</ele>
        <time>2018-06-23T09:13:10.000Z</time>
      </trkpt>
      <trkpt lat="47.85036" lon="6.76051">
        <ele>840</ele>
        <time>2018-06-23T09:13:11.000Z</time>
      </trkpt>
      <trkpt lat="47.85037" lon="6.7605">
        <ele>840</ele>
        <time>2018-06-23T09:13:12.000Z</time>
      </trkpt>
      <trkpt lat="47.85038" lon="6.76048">
        <ele>840</ele>
        <time>2018-06-23T09:13:13.000Z</time>
      </trkpt>
      <trkpt lat="47.85039" lon="6.76047">
        <ele>839</ele>
        <time>2018-06-23T09:13:14.000Z</time>
      </trkpt>
      <trkpt lat="47.8504" lon="6.76047">
        <ele>839</ele>
        <time>2018-06-23T09:13:15.000Z</time>
      </trkpt>
      <trkpt lat="47.85041" lon="6.76045">
        <ele>839</ele>
        <time>2018-06-23T09:13:16.000Z</time>
      </trkpt>
      <trkpt lat="47.85041" lon="6.76044">
        <ele>839</ele>
        <time>2018-06-23T09:13:17.000Z</time>
      </trkpt>
      <trkpt lat="47.85042" lon="6.76043">
        <ele>838</ele>
        <time>2018-06-23T09:13:18.000Z</time>
      </trkpt>
      <trkpt lat="47.85043" lon="6.76041">
        <ele>838</ele>
        <time>2018-06-23T09:13:19.000Z</time>
      </trkpt>
      <trkpt lat="47.85044" lon="6.7604">
        <ele>838</ele>
        <time>2018-06-23T09:13:20.000Z</time>
      </trkpt>
      <trkpt lat="47.85045" lon="6.76038">
        <ele>838</ele>
        <time>2018-06-23T09:13:21.000Z</time>
      </trkpt>
      <trkpt lat="47.85045" lon="6.76036">
        <ele>838</ele>
        <time>2018-06-23T09:13:22.000Z</time>
      </trkpt>
      <trkpt lat="47.85045" lon="6.76034">
        <ele>838</ele>
        <time>2018-06-23T09:13:23.000Z</time>
      </trkpt>
      <trkpt lat="47.85045" lon="6.76032">
        <ele>837</ele>
        <time>2018-06-23T09:13:24.000Z</time>
      </trkpt>
      <trkpt lat="47.85046" lon="6.7603">
        <ele>837</ele>
        <time>2018-06-23T09:13:25.000Z</time>
      </trkpt>
      <trkpt lat="47.85046" lon="6.76029">
        <ele>837</ele>
        <time>2018-06-23T09:13:26.000Z</time>
      </trkpt>
      <trkpt lat="47.85047" lon="6.76028">
        <ele>837</ele>
        <time>2018-06-23T09:13:27.000Z</time>
      </trkpt>
      <trkpt lat="47.85047" lon="6.76026">
        <ele>837</ele>
        <time>2018-06-23T09:13:28.000Z</time>
      </trkpt>
      <trkpt lat="47.85047" lon="6.76025">
        <ele>837</ele>
        <time>2018-06-23T09:13:29.000Z</time>
      </trkpt>
      <trkpt lat="47.85048" lon="6.76024">
        <ele>837</ele>
        <time>2018-06-23T09:13:30.000Z</time>
      </trkpt>
      <trkpt lat="47.85048" lon="6.76023">
        <ele>837</ele>
        <time>2018-06-23T09:13:31.000Z</time>
      </trkpt>
      <trkpt lat="47.85048" lon="6.76021">
        <ele>836</ele>
        <time>2018-06-23T09:13:32.000Z</time>
      </trkpt>
      <trkpt lat="47.85048" lon="6.7602">
        <ele>836</ele>
        <time>2018-06-23T09:13:33.000Z</time>
      </trkpt>
      <trkpt lat="47.85048" lon="6.76018">
        <ele>836</ele>
        <time>2018-06-23T09:13:34.000Z</time>
      </trkpt>
      <trkpt lat="47.85048" lon="6.76016">
        <ele>836</ele>
        <time>2018-06-23T09:13:35.000Z</time>
      </trkpt>
      <trkpt lat="47.85047" lon="6.76014">
        <ele>836</ele>
        <time>2018-06-23T09:13:36.000Z</time>
      </trkpt>
      <trkpt lat="47.85047" lon="6.76012">
        <ele>836</ele>
        <time>2018-06-23T09:13:37.000Z</time>
      </trkpt>
      <trkpt lat="47.85047" lon="6.7601">
        <ele>836</ele>
        <time>2018-06-23T09:13:38.000Z</time>
      </trkpt>
      <trkpt lat="47.85047" lon="6.76009">
        <ele>836</ele>
        <time>2018-06-23T09:13:39.000Z</time>
      </trkpt>
      <trkpt lat="47.85047" lon="6.76007">
        <ele>836</ele>
        <time>2018-06-23T09:13:40.000Z</time>
      </trkpt>
      <trkpt lat="47.85046" lon="6.76005">
        <ele>836</ele>
        <time>2018-06-23T09:13:41.000Z</time>
      </trkpt>
      <trkpt lat="47.85046" lon="6.76003">
        <ele>836</ele>
        <time>2018-06-23T09:13:42.000Z</time>
      </trkpt>
      <trkpt lat="47.85047" lon="6.76001">
        <ele>836</ele>
        <time>2018-06-23T09:13:43.000Z</time>
      </trkpt>
      <trkpt lat="47.85047" lon="6.75999">
        <ele>834</ele>
        <time>2018-06-23T09:13:44.000Z</time>
      </trkpt>
      <trkpt lat="47.85047" lon="6.75997">
        <ele>834</ele>
        <time>2018-06-23T09:13:45.000Z</time>
      </trkpt>
      <trkpt lat="47.85047" lon="6.75995">
        <ele>834</ele>
        <time>2018-06-23T09:13:46.000Z</time>
      </trkpt>
      <trkpt lat="47.85047" lon="6.75994">
        <ele>834</ele>
        <time>2018-06-23T09:13:47.000Z</time>
      </trkpt>
      <trkpt lat="47.85047" lon="6.75992">
        <ele>834</ele>
        <time>2018-06-23T09:13:48.000Z</time>
      </trkpt>
      <trkpt lat="47.85047" lon="6.7599">
        <ele>833</ele>
        <time>2018-06-23T09:13:49.000Z</time>
      </trkpt>
      <trkpt lat="47.85048" lon="6.75988">
        <ele>833</ele>
        <time>2018-06-23T09:13:50.000Z</time>
      </trkpt>
      <trkpt lat="47.85048" lon="6.75987">
        <ele>833</ele>
        <time>2018-06-23T09:13:51.000Z</time>
      </trkpt>
      <trkpt lat="47.85048" lon="6.75985">
        <ele>833</ele>
        <time>2018-06-23T09:13:52.000Z</time>
      </trkpt>
      <trkpt lat="47.85048" lon="6.75983">
        <ele>833</ele>
        <time>2018-06-23T09:13:53.000Z</time>
      </trkpt>
      <trkpt lat="47.85049" lon="6.75981">
        <ele>833</ele>
        <time>2018-06-23T09:13:54.000Z</time>
      </trkpt>
      <trkpt lat="47.85049" lon="6.7598">
        <ele>833</ele>
        <time>2018-06-23T09:13:55.000Z</time>
      </trkpt>
      <trkpt lat="47.8505" lon="6.75977">
        <ele>833</ele>
        <time>2018-06-23T09:13:56.000Z</time>
      </trkpt>
      <trkpt lat="47.8505" lon="6.75976">
        <ele>833</ele>
        <time>2018-06-23T09:13:57.000Z</time>
      </trkpt>
      <trkpt lat="47.8505" lon="6.75974">
        <ele>833</ele>
        <time>2018-06-23T09:13:58.000Z</time>
      </trkpt>
      <trkpt lat="47.85051" lon="6.75972">
        <ele>833</ele>
        <time>2018-06-23T09:13:59.000Z</time>
      </trkpt>
      <trkpt lat="47.85051" lon="6.75971">
        <ele>833</ele>
        <time>2018-06-23T09:14:00.000Z</time>
      </trkpt>
      <trkpt lat="47.85051" lon="6.75969">
        <ele>833</ele>
        <time>2018-06-23T09:14:01.000Z</time>
      </trkpt>
      <trkpt lat="47.85051" lon="6.75968">
        <ele>833</ele>
        <time>2018-06-23T09:14:02.000Z</time>
      </trkpt>
      <trkpt lat="47.85051" lon="6.75966">
        <ele>833</ele>
        <time>2018-06-23T09:14:03.000Z</time>
      </trkpt>
      <trkpt lat="47.85051" lon="6.75964">
        <ele>832</ele>
        <time>2018-06-23T09:14:04.000Z</time>
      </trkpt>
      <trkpt lat="47.85051" lon="6.75962">
        <ele>833</ele>
        <time>2018-06-23T09:14:05.000Z</time>
      </trkpt>
      <trkpt lat="47.8505" lon="6.7596">
        <ele>833</ele>
        <time>2018-06-23T09:14:06.000Z</time>
      </trkpt>
      <trkpt lat="47.8505" lon="6.75958">
        <ele>833</ele>
        <time>2018-06-23T09:14:07.000Z</time>
      </trkpt>
      <trkpt lat="47.8505" lon="6.75956">
        <ele>833</ele>
        <time>2018-06-23T09:14:08.000Z</time>
      </trkpt>
      <trkpt lat="47.85049" lon="6.75954">
        <ele>833</ele>
        <time>2018-06-23T09:14:09.000Z</time>
      </trkpt>
      <trkpt lat="47.85049" lon="6.75952">
        <ele>833</ele>
        <time>2018-06-23T09:14:10.000Z</time>
      </trkpt>
      <trkpt lat="47.85049" lon="6.7595">
        <ele>833</ele>
        <time>2018-06-23T09:14:11.000Z</time>
      </trkpt>
      <trkpt lat="47.85048" lon="6.75949">
        <ele>833</ele>
        <time>2018-06-23T09:14:12.000Z</time>
      </trkpt>
      <trkpt lat="47.85048" lon="6.75947">
        <ele>833</ele>
        <time>2018-06-23T09:14:13.000Z</time>
      </trkpt>
      <trkpt lat="47.85047" lon="6.75945">
        <ele>833</ele>
        <time>2018-06-23T09:14:14.000Z</time>
      </trkpt>
      <trkpt lat="47.85047" lon="6.75944">
        <ele>833</ele>
        <time>2018-06-23T09:14:15.000Z</time>
      </trkpt>
      <trkpt lat="47.85047" lon="6.75942">
        <ele>833</ele>
        <time>2018-06-23T09:14:16.000Z</time>
      </trkpt>
      <trkpt lat="47.85047" lon="6.75939">
        <ele>833</ele>
        <time>2018-06-23T09:14:17.000Z</time>
      </trkpt>
      <trkpt lat="47.85047" lon="6.75938">
        <ele>832</ele>
        <time>2018-06-23T09:14:18.000Z</time>
      </trkpt>
      <trkpt lat="47.85047" lon="6.75936">
        <ele>832</ele>
        <time>2018-06-23T09:14:19.000Z</time>
      </trkpt>
      <trkpt lat="47.85047" lon="6.75935">
        <ele>832</ele>
        <time>2018-06-23T09:14:20.000Z</time>
      </trkpt>
      <trkpt lat="47.85047" lon="6.75933">
        <ele>832</ele>
        <time>2018-06-23T09:14:21.000Z</time>
      </trkpt>
      <trkpt lat="47.85047" lon="6.75931">
        <ele>832</ele>
        <time>2018-06-23T09:14:22.000Z</time>
      </trkpt>
      <trkpt lat="47.85046" lon="6.7593">
        <ele>832</ele>
        <time>2018-06-23T09:14:23.000Z</time>
      </trkpt>
      <trkpt lat="47.85045" lon="6.75929">
        <ele>833</ele>
        <time>2018-06-23T09:14:24.000Z</time>
      </trkpt>
      <trkpt lat="47.85045" lon="6.75927">
        <ele>833</ele>
        <time>2018-06-23T09:14:25.000Z</time>
      </trkpt>
      <trkpt lat="47.85045" lon="6.75925">
        <ele>833</ele>
        <time>2018-06-23T09:14:26.000Z</time>
      </trkpt>
      <trkpt lat="47.85045" lon="6.75923">
        <ele>833</ele>
        <time>2018-06-23T09:14:27.000Z</time>
      </trkpt>
      <trkpt lat="47.85045" lon="6.75921">
        <ele>833</ele>
        <time>2018-06-23T09:14:28.000Z</time>
      </trkpt>
      <trkpt lat="47.85045" lon="6.7592">
        <ele>833</ele>
        <time>2018-06-23T09:14:29.000Z</time>
      </trkpt>
      <trkpt lat="47.85045" lon="6.75918">
        <ele>833</ele>
        <time>2018-06-23T09:14:30.000Z</time>
      </trkpt>
      <trkpt lat="47.85045" lon="6.75916">
        <ele>829</ele>
        <time>2018-06-23T09:14:31.000Z</time>
      </trkpt>
      <trkpt lat="47.85045" lon="6.75915">
        <ele>829</ele>
        <time>2018-06-23T09:14:32.000Z</time>
      </trkpt>
      <trkpt lat="47.85045" lon="6.75913">
        <ele>829</ele>
        <time>2018-06-23T09:14:33.000Z</time>
      </trkpt>
      <trkpt lat="47.85045" lon="6.75911">
        <ele>829</ele>
        <time>2018-06-23T09:14:34.000Z</time>
      </trkpt>
      <trkpt lat="47.85046" lon="6.7591">
        <ele>829</ele>
        <time>2018-06-23T09:14:35.000Z</time>
      </trkpt>
      <trkpt lat="47.85046" lon="6.75908">
        <ele>829</ele>
        <time>2018-06-23T09:14:36.000Z</time>
      </trkpt>
      <trkpt lat="47.85046" lon="6.75906">
        <ele>828</ele>
        <time>2018-06-23T09:14:37.000Z</time>
      </trkpt>
      <trkpt lat="47.85046" lon="6.75904">
        <ele>828</ele>
        <time>2018-06-23T09:14:38.000Z</time>
      </trkpt>
      <trkpt lat="47.85047" lon="6.75902">
        <ele>828</ele>
        <time>2018-06-23T09:14:39.000Z</time>
      </trkpt>
      <trkpt lat="47.85047" lon="6.759">
        <ele>828</ele>
        <time>2018-06-23T09:14:40.000Z</time>
      </trkpt>
      <trkpt lat="47.85047" lon="6.75898">
        <ele>828</ele>
        <time>2018-06-23T09:14:41.000Z</time>
      </trkpt>
      <trkpt lat="47.85047" lon="6.75896">
        <ele>828</ele>
        <time>2018-06-23T09:14:42.000Z</time>
      </trkpt>
      <trkpt lat="47.85048" lon="6.75894">
        <ele>828</ele>
        <time>2018-06-23T09:14:43.000Z</time>
      </trkpt>
      <trkpt lat="47.85048" lon="6.75893">
        <ele>828</ele>
        <time>2018-06-23T09:14:44.000Z</time>
      </trkpt>
      <trkpt lat="47.85048" lon="6.75891">
        <ele>828</ele>
        <time>2018-06-23T09:14:45.000Z</time>
      </trkpt>
      <trkpt lat="47.85048" lon="6.75889">
        <ele>828</ele>
        <time>2018-06-23T09:14:46.000Z</time>
      </trkpt>
      <trkpt lat="47.85048" lon="6.75887">
        <ele>828</ele>
        <time>2018-06-23T09:14:47.000Z</time>
      </trkpt>
      <trkpt lat="47.85049" lon="6.75885">
        <ele>828</ele>
        <time>2018-06-23T09:14:48.000Z</time>
      </trkpt>
      <trkpt lat="47.85049" lon="6.75884">
        <ele>828</ele>
        <time>2018-06-23T09:14:49.000Z</time>
      </trkpt>
      <trkpt lat="47.8505" lon="6.75882">
        <ele>827</ele>
        <time>2018-06-23T09:14:50.000Z</time>
      </trkpt>
      <trkpt lat="47.85051" lon="6.7588">
        <ele>827</ele>
        <time>2018-06-23T09:14:51.000Z</time>
      </trkpt>
      <trkpt lat="47.85052" lon="6.75878">
        <ele>827</ele>
        <time>2018-06-23T09:14:52.000Z</time>
      </trkpt>
      <trkpt lat="47.85053" lon="6.75876">
        <ele>826</ele>
        <time>2018-06-23T09:14:53.000Z</time>
      </trkpt>
      <trkpt lat="47.85054" lon="6.75874">
        <ele>826</ele>
        <time>2018-06-23T09:14:54.000Z</time>
      </trkpt>
      <trkpt lat="47.85055" lon="6.75873">
        <ele>826</ele>
        <time>2018-06-23T09:14:55.000Z</time>
      </trkpt>
      <trkpt lat="47.85055" lon="6.75871">
        <ele>826</ele>
        <time>2018-06-23T09:14:56.000Z</time>
      </trkpt>
      <trkpt lat="47.85056" lon="6.7587">
        <ele>826</ele>
        <time>2018-06-23T09:14:57.000Z</time>
      </trkpt>
      <trkpt lat="47.85056" lon="6.75868">
        <ele>825</ele>
        <time>2018-06-23T09:14:58.000Z</time>
      </trkpt>
      <trkpt lat="47.85057" lon="6.75866">
        <ele>825</ele>
        <time>2018-06-23T09:14:59.000Z</time>
      </trkpt>
      <trkpt lat="47.85057" lon="6.75864">
        <ele>825</ele>
        <time>2018-06-23T09:15:00.000Z</time>
      </trkpt>
      <trkpt lat="47.85058" lon="6.75863">
        <ele>825</ele>
        <time>2018-06-23T09:15:01.000Z</time>
      </trkpt>
      <trkpt lat="47.85058" lon="6.75861">
        <ele>824</ele>
        <time>2018-06-23T09:15:02.000Z</time>
      </trkpt>
      <trkpt lat="47.85059" lon="6.7586">
        <ele>824</ele>
        <time>2018-06-23T09:15:03.000Z</time>
      </trkpt>
      <trkpt lat="47.85059" lon="6.75858">
        <ele>824</ele>
        <time>2018-06-23T09:15:04.000Z</time>
      </trkpt>
      <trkpt lat="47.8506" lon="6.75856">
        <ele>823</ele>
        <time>2018-06-23T09:15:05.000Z</time>
      </trkpt>
      <trkpt lat="47.8506" lon="6.75854">
        <ele>823</ele>
        <time>2018-06-23T09:15:06.000Z</time>
      </trkpt>
      <trkpt lat="47.85061" lon="6.75853">
        <ele>823</ele>
        <time>2018-06-23T09:15:07.000Z</time>
      </trkpt>
      <trkpt lat="47.85062" lon="6.75851">
        <ele>822</ele>
        <time>2018-06-23T09:15:08.000Z</time>
      </trkpt>
      <trkpt lat="47.85062" lon="6.75849">
        <ele>822</ele>
        <time>2018-06-23T09:15:09.000Z</time>
      </trkpt>
      <trkpt lat="47.85063" lon="6.75848">
        <ele>821</ele>
        <time>2018-06-23T09:15:10.000Z</time>
      </trkpt>
      <trkpt lat="47.85063" lon="6.75846">
        <ele>821</ele>
        <time>2018-06-23T09:15:11.000Z</time>
      </trkpt>
      <trkpt lat="47.85064" lon="6.75844">
        <ele>820</ele>
        <time>2018-06-23T09:15:12.000Z</time>
      </trkpt>
      <trkpt lat="47.85064" lon="6.75843">
        <ele>820</ele>
        <time>2018-06-23T09:15:13.000Z</time>
      </trkpt>
      <trkpt lat="47.85064" lon="6.75841">
        <ele>820</ele>
        <time>2018-06-23T09:15:14.000Z</time>
      </trkpt>
      <trkpt lat="47.85064" lon="6.75839">
        <ele>820</ele>
        <time>2018-06-23T09:15:15.000Z</time>
      </trkpt>
      <trkpt lat="47.85064" lon="6.75838">
        <ele>819</ele>
        <time>2018-06-23T09:15:16.000Z</time>
      </trkpt>
      <trkpt lat="47.85064" lon="6.75837">
        <ele>819</ele>
        <time>2018-06-23T09:15:17.000Z</time>
      </trkpt>
      <trkpt lat="47.85065" lon="6.75835">
        <ele>819</ele>
        <time>2018-06-23T09:15:18.000Z</time>
      </trkpt>
      <trkpt lat="47.85065" lon="6.75834">
        <ele>819</ele>
        <time>2018-06-23T09:15:19.000Z</time>
      </trkpt>
      <trkpt lat="47.85065" lon="6.75833">
        <ele>816</ele>
        <time>2018-06-23T09:15:20.000Z</time>
      </trkpt>
      <trkpt lat="47.85066" lon="6.75832">
        <ele>815</ele>
        <time>2018-06-23T09:15:21.000Z</time>
      </trkpt>
      <trkpt lat="47.85067" lon="6.75831">
        <ele>815</ele>
        <time>2018-06-23T09:15:22.000Z</time>
      </trkpt>
      <trkpt lat="47.85067" lon="6.7583">
        <ele>815</ele>
        <time>2018-06-23T09:15:23.000Z</time>
      </trkpt>
      <trkpt lat="47.85068" lon="6.75829">
        <ele>815</ele>
        <time>2018-06-23T09:15:24.000Z</time>
      </trkpt>
      <trkpt lat="47.85068" lon="6.75828">
        <ele>815</ele>
        <time>2018-06-23T09:15:25.000Z</time>
      </trkpt>
      <trkpt lat="47.85068" lon="6.75828">
        <ele>815</ele>
        <time>2018-06-23T09:15:26.000Z</time>
      </trkpt>
      <trkpt lat="47.85068" lon="6.75827">
        <ele>815</ele>
        <time>2018-06-23T09:15:27.000Z</time>
      </trkpt>
      <trkpt lat="47.85068" lon="6.75826">
        <ele>815</ele>
        <time>2018-06-23T09:15:28.000Z</time>
      </trkpt>
      <trkpt lat="47.85068" lon="6.75826">
        <ele>815</ele>
        <time>2018-06-23T09:15:29.000Z</time>
      </trkpt>
      <trkpt lat="47.85068" lon="6.75825">
        <ele>815</ele>
        <time>2018-06-23T09:15:30.000Z</time>
      </trkpt>
      <trkpt lat="47.85069" lon="6.75824">
        <ele>815</ele>
        <time>2018-06-23T09:15:31.000Z</time>
      </trkpt>
      <trkpt lat="47.8507" lon="6.75823">
        <ele>815</ele>
        <time>2018-06-23T09:15:32.000Z</time>
      </trkpt>
      <trkpt lat="47.85071" lon="6.75822">
        <ele>815</ele>
        <time>2018-06-23T09:15:33.000Z</time>
      </trkpt>
      <trkpt lat="47.85072" lon="6.75821">
        <ele>815</ele>
        <time>2018-06-23T09:15:34.000Z</time>
      </trkpt>
      <trkpt lat="47.85073" lon="6.7582">
        <ele>815</ele>
        <time>2018-06-23T09:15:35.000Z</time>
      </trkpt>
      <trkpt lat="47.85073" lon="6.75819">
        <ele>814</ele>
        <time>2018-06-23T09:15:36.000Z</time>
      </trkpt>
      <trkpt lat="47.85074" lon="6.75818">
        <ele>814</ele>
        <time>2018-06-23T09:15:37.000Z</time>
      </trkpt>
      <trkpt lat="47.85074" lon="6.75818">
        <ele>815</ele>
        <time>2018-06-23T09:15:38.000Z</time>
      </trkpt>
      <trkpt lat="47.85075" lon="6.75817">
        <ele>814</ele>
        <time>2018-06-23T09:15:39.000Z</time>
      </trkpt>
      <trkpt lat="47.85075" lon="6.75817">
        <ele>815</ele>
        <time>2018-06-23T09:15:40.000Z</time>
      </trkpt>
      <trkpt lat="47.85075" lon="6.75816">
        <ele>815</ele>
        <time>2018-06-23T09:15:41.000Z</time>
      </trkpt>
      <trkpt lat="47.85075" lon="6.75816">
        <ele>815</ele>
        <time>2018-06-23T09:15:42.000Z</time>
      </trkpt>
      <trkpt lat="47.85075" lon="6.75815">
        <ele>815</ele>
        <time>2018-06-23T09:15:43.000Z</time>
      </trkpt>
      <trkpt lat="47.85076" lon="6.75814">
        <ele>815</ele>
        <time>2018-06-23T09:15:44.000Z</time>
      </trkpt>
      <trkpt lat="47.85076" lon="6.75813">
        <ele>815</ele>
        <time>2018-06-23T09:15:45.000Z</time>
      </trkpt>
      <trkpt lat="47.85076" lon="6.75812">
        <ele>815</ele>
        <time>2018-06-23T09:15:46.000Z</time>
      </trkpt>
      <trkpt lat="47.85077" lon="6.75811">
        <ele>815</ele>
        <time>2018-06-23T09:15:47.000Z</time>
      </trkpt>
      <trkpt lat="47.85077" lon="6.7581">
        <ele>815</ele>
        <time>2018-06-23T09:15:48.000Z</time>
      </trkpt>
      <trkpt lat="47.85077" lon="6.75809">
        <ele>815</ele>
        <time>2018-06-23T09:15:49.000Z</time>
      </trkpt>
      <trkpt lat="47.85078" lon="6.75807">
        <ele>815</ele>
        <time>2018-06-23T09:15:50.000Z</time>
      </trkpt>
      <trkpt lat="47.85078" lon="6.75806">
        <ele>815</ele>
        <time>2018-06-23T09:15:51.000Z</time>
      </trkpt>
      <trkpt lat="47.85079" lon="6.75805">
        <ele>816</ele>
        <time>2018-06-23T09:15:52.000Z</time>
      </trkpt>
      <trkpt lat="47.85079" lon="6.75804">
        <ele>816</ele>
        <time>2018-06-23T09:15:53.000Z</time>
      </trkpt>
      <trkpt lat="47.8508" lon="6.75803">
        <ele>816</ele>
        <time>2018-06-23T09:15:54.000Z</time>
      </trkpt>
      <trkpt lat="47.8508" lon="6.75802">
        <ele>816</ele>
        <time>2018-06-23T09:15:55.000Z</time>
      </trkpt>
      <trkpt lat="47.8508" lon="6.75801">
        <ele>816</ele>
        <time>2018-06-23T09:15:56.000Z</time>
      </trkpt>
      <trkpt lat="47.8508" lon="6.75801">
        <ele>816</ele>
        <time>2018-06-23T09:15:57.000Z</time>
      </trkpt>
      <trkpt lat="47.8508" lon="6.758">
        <ele>816</ele>
        <time>2018-06-23T09:15:58.000Z</time>
      </trkpt>
      <trkpt lat="47.8508" lon="6.75799">
        <ele>816</ele>
        <time>2018-06-23T09:15:59.000Z</time>
      </trkpt>
      <trkpt lat="47.8508" lon="6.75798">
        <ele>816</ele>
        <time>2018-06-23T09:16:00.000Z</time>
      </trkpt>
      <trkpt lat="47.85081" lon="6.75797">
        <ele>816</ele>
        <time>2018-06-23T09:16:01.000Z</time>
      </trkpt>
      <trkpt lat="47.85081" lon="6.75795">
        <ele>815</ele>
        <time>2018-06-23T09:16:02.000Z</time>
      </trkpt>
      <trkpt lat="47.85082" lon="6.75794">
        <ele>815</ele>
        <time>2018-06-23T09:16:03.000Z</time>
      </trkpt>
      <trkpt lat="47.85082" lon="6.75793">
        <ele>815</ele>
        <time>2018-06-23T09:16:04.000Z</time>
      </trkpt>
      <trkpt lat="47.85083" lon="6.75791">
        <ele>815</ele>
        <time>2018-06-23T09:16:05.000Z</time>
      </trkpt>
      <trkpt lat="47.85084" lon="6.75789">
        <ele>795</ele>
        <time>2018-06-23T09:16:06.000Z</time>
      </trkpt>
      <trkpt lat="47.85085" lon="6.75788">
        <ele>795</ele>
        <time>2018-06-23T09:16:07.000Z</time>
      </trkpt>
      <trkpt lat="47.85086" lon="6.75787">
        <ele>795</ele>
        <time>2018-06-23T09:16:08.000Z</time>
      </trkpt>
      <trkpt lat="47.85087" lon="6.75786">
        <ele>795</ele>
        <time>2018-06-23T09:16:09.000Z</time>
      </trkpt>
      <trkpt lat="47.85088" lon="6.75785">
        <ele>794</ele>
        <time>2018-06-23T09:16:10.000Z</time>
      </trkpt>
      <trkpt lat="47.85089" lon="6.75784">
        <ele>794</ele>
        <time>2018-06-23T09:16:11.000Z</time>
      </trkpt>
      <trkpt lat="47.8509" lon="6.75783">
        <ele>794</ele>
        <time>2018-06-23T09:16:12.000Z</time>
      </trkpt>
      <trkpt lat="47.8509" lon="6.75781">
        <ele>794</ele>
        <time>2018-06-23T09:16:13.000Z</time>
      </trkpt>
      <trkpt lat="47.85091" lon="6.7578">
        <ele>794</ele>
        <time>2018-06-23T09:16:14.000Z</time>
      </trkpt>
      <trkpt lat="47.85092" lon="6.75779">
        <ele>794</ele>
        <time>2018-06-23T09:16:15.000Z</time>
      </trkpt>
      <trkpt lat="47.85093" lon="6.75777">
        <ele>794</ele>
        <time>2018-06-23T09:16:16.000Z</time>
      </trkpt>
      <trkpt lat="47.85094" lon="6.75776">
        <ele>794</ele>
        <time>2018-06-23T09:16:17.000Z</time>
      </trkpt>
      <trkpt lat="47.85094" lon="6.75774">
        <ele>794</ele>
        <time>2018-06-23T09:16:18.000Z</time>
      </trkpt>
      <trkpt lat="47.85094" lon="6.75773">
        <ele>794</ele>
        <time>2018-06-23T09:16:19.000Z</time>
      </trkpt>
      <trkpt lat="47.85094" lon="6.75773">
        <ele>794</ele>
        <time>2018-06-23T09:16:20.000Z</time>
      </trkpt>
      <trkpt lat="47.85094" lon="6.75772">
        <ele>794</ele>
        <time>2018-06-23T09:16:21.000Z</time>
      </trkpt>
      <trkpt lat="47.85093" lon="6.75772">
        <ele>794</ele>
        <time>2018-06-23T09:16:22.000Z</time>
      </trkpt>
      <trkpt lat="47.85093" lon="6.75771">
        <ele>794</ele>
        <time>2018-06-23T09:16:23.000Z</time>
      </trkpt>
      <trkpt lat="47.85093" lon="6.75771">
        <ele>795</ele>
        <time>2018-06-23T09:16:24.000Z</time>
      </trkpt>
      <trkpt lat="47.85093" lon="6.7577">
        <ele>795</ele>
        <time>2018-06-23T09:16:25.000Z</time>
      </trkpt>
      <trkpt lat="47.85093" lon="6.75769">
        <ele>795</ele>
        <time>2018-06-23T09:16:26.000Z</time>
      </trkpt>
      <trkpt lat="47.85093" lon="6.75768">
        <ele>795</ele>
        <time>2018-06-23T09:16:27.000Z</time>
      </trkpt>
      <trkpt lat="47.85094" lon="6.75766">
        <ele>795</ele>
        <time>2018-06-23T09:16:28.000Z</time>
      </trkpt>
      <trkpt lat="47.85094" lon="6.75765">
        <ele>795</ele>
        <time>2018-06-23T09:16:29.000Z</time>
      </trkpt>
      <trkpt lat="47.85095" lon="6.75763">
        <ele>795</ele>
        <time>2018-06-23T09:16:30.000Z</time>
      </trkpt>
      <trkpt lat="47.85095" lon="6.75762">
        <ele>795</ele>
        <time>2018-06-23T09:16:31.000Z</time>
      </trkpt>
      <trkpt lat="47.85095" lon="6.75762">
        <ele>795</ele>
        <time>2018-06-23T09:16:32.000Z</time>
      </trkpt>
      <trkpt lat="47.85095" lon="6.75761">
        <ele>795</ele>
        <time>2018-06-23T09:16:33.000Z</time>
      </trkpt>
      <trkpt lat="47.85095" lon="6.75761">
        <ele>795</ele>
        <time>2018-06-23T09:16:34.000Z</time>
      </trkpt>
      <trkpt lat="47.85095" lon="6.7576">
        <ele>795</ele>
        <time>2018-06-23T09:16:35.000Z</time>
      </trkpt>
      <trkpt lat="47.85095" lon="6.7576">
        <ele>795</ele>
        <time>2018-06-23T09:16:36.000Z</time>
      </trkpt>
      <trkpt lat="47.85095" lon="6.7576">
        <ele>795</ele>
        <time>2018-06-23T09:16:37.000Z</time>
      </trkpt>
      <trkpt lat="47.85095" lon="6.75759">
        <ele>795</ele>
        <time>2018-06-23T09:16:38.000Z</time>
      </trkpt>
      <trkpt lat="47.85095" lon="6.75759">
        <ele>796</ele>
        <time>2018-06-23T09:16:39.000Z</time>
      </trkpt>
      <trkpt lat="47.85095" lon="6.75758">
        <ele>796</ele>
        <time>2018-06-23T09:16:40.000Z</time>
      </trkpt>
      <trkpt lat="47.85095" lon="6.75758">
        <ele>796</ele>
        <time>2018-06-23T09:16:41.000Z</time>
      </trkpt>
      <trkpt lat="47.85095" lon="6.75758">
        <ele>796</ele>
        <time>2018-06-23T09:16:42.000Z</time>
      </trkpt>
      <trkpt lat="47.85095" lon="6.75757">
        <ele>796</ele>
        <time>2018-06-23T09:16:43.000Z</time>
      </trkpt>
      <trkpt lat="47.85095" lon="6.75757">
        <ele>796</ele>
        <time>2018-06-23T09:16:44.000Z</time>
      </trkpt>
      <trkpt lat="47.85095" lon="6.75756">
        <ele>796</ele>
        <time>2018-06-23T09:16:45.000Z</time>
      </trkpt>
      <trkpt lat="47.85096" lon="6.75755">
        <ele>796</ele>
        <time>2018-06-23T09:16:46.000Z</time>
      </trkpt>
      <trkpt lat="47.85096" lon="6.75754">
        <ele>796</ele>
        <time>2018-06-23T09:16:47.000Z</time>
      </trkpt>
      <trkpt lat="47.85096" lon="6.75753">
        <ele>796</ele>
        <time>2018-06-23T09:16:48.000Z</time>
      </trkpt>
      <trkpt lat="47.85097" lon="6.75752">
        <ele>796</ele>
        <time>2018-06-23T09:16:49.000Z</time>
      </trkpt>
      <trkpt lat="47.85098" lon="6.75751">
        <ele>795</ele>
        <time>2018-06-23T09:16:50.000Z</time>
      </trkpt>
      <trkpt lat="47.85099" lon="6.7575">
        <ele>793</ele>
        <time>2018-06-23T09:16:51.000Z</time>
      </trkpt>
      <trkpt lat="47.851" lon="6.75749">
        <ele>793</ele>
        <time>2018-06-23T09:16:52.000Z</time>
      </trkpt>
      <trkpt lat="47.85101" lon="6.75748">
        <ele>792</ele>
        <time>2018-06-23T09:16:53.000Z</time>
      </trkpt>
      <trkpt lat="47.85102" lon="6.75747">
        <ele>792</ele>
        <time>2018-06-23T09:16:54.000Z</time>
      </trkpt>
      <trkpt lat="47.85103" lon="6.75747">
        <ele>791</ele>
        <time>2018-06-23T09:16:55.000Z</time>
      </trkpt>
      <trkpt lat="47.85104" lon="6.75747">
        <ele>791</ele>
        <time>2018-06-23T09:16:56.000Z</time>
      </trkpt>
      <trkpt lat="47.85104" lon="6.75746">
        <ele>791</ele>
        <time>2018-06-23T09:16:57.000Z</time>
      </trkpt>
      <trkpt lat="47.85104" lon="6.75745">
        <ele>791</ele>
        <time>2018-06-23T09:16:58.000Z</time>
      </trkpt>
      <trkpt lat="47.85105" lon="6.75744">
        <ele>791</ele>
        <time>2018-06-23T09:16:59.000Z</time>
      </trkpt>
      <trkpt lat="47.85106" lon="6.75743">
        <ele>791</ele>
        <time>2018-06-23T09:17:00.000Z</time>
      </trkpt>
      <trkpt lat="47.85106" lon="6.75741">
        <ele>790</ele>
        <time>2018-06-23T09:17:01.000Z</time>
      </trkpt>
      <trkpt lat="47.85107" lon="6.7574">
        <ele>790</ele>
        <time>2018-06-23T09:17:02.000Z</time>
      </trkpt>
      <trkpt lat="47.85107" lon="6.75739">
        <ele>790</ele>
        <time>2018-06-23T09:17:03.000Z</time>
      </trkpt>
      <trkpt lat="47.85107" lon="6.75738">
        <ele>790</ele>
        <time>2018-06-23T09:17:04.000Z</time>
      </trkpt>
      <trkpt lat="47.85108" lon="6.75738">
        <ele>790</ele>
        <time>2018-06-23T09:17:05.000Z</time>
      </trkpt>
      <trkpt lat="47.85107" lon="6.75739">
        <ele>790</ele>
        <time>2018-06-23T09:17:06.000Z</time>
      </trkpt>
      <trkpt lat="47.85107" lon="6.7574">
        <ele>790</ele>
        <time>2018-06-23T09:17:07.000Z</time>
      </trkpt>
      <trkpt lat="47.85106" lon="6.75741">
        <ele>790</ele>
        <time>2018-06-23T09:17:08.000Z</time>
      </trkpt>
      <trkpt lat="47.85105" lon="6.75742">
        <ele>791</ele>
        <time>2018-06-23T09:17:09.000Z</time>
      </trkpt>
      <trkpt lat="47.85104" lon="6.75743">
        <ele>791</ele>
        <time>2018-06-23T09:17:10.000Z</time>
      </trkpt>
      <trkpt lat="47.85104" lon="6.75745">
        <ele>791</ele>
        <time>2018-06-23T09:17:11.000Z</time>
      </trkpt>
      <trkpt lat="47.85103" lon="6.75746">
        <ele>791</ele>
        <time>2018-06-23T09:17:12.000Z</time>
      </trkpt>
      <trkpt lat="47.85103" lon="6.75747">
        <ele>791</ele>
        <time>2018-06-23T09:17:13.000Z</time>
      </trkpt>
      <trkpt lat="47.85104" lon="6.75748">
        <ele>791</ele>
        <time>2018-06-23T09:17:14.000Z</time>
      </trkpt>
      <trkpt lat="47.85104" lon="6.75749">
        <ele>791</ele>
        <time>2018-06-23T09:17:15.000Z</time>
      </trkpt>
      <trkpt lat="47.85104" lon="6.75749">
        <ele>791</ele>
        <time>2018-06-23T09:17:16.000Z</time>
      </trkpt>
      <trkpt lat="47.85106" lon="6.75749">
        <ele>791</ele>
        <time>2018-06-23T09:17:17.000Z</time>
      </trkpt>
      <trkpt lat="47.85107" lon="6.75749">
        <ele>790</ele>
        <time>2018-06-23T09:17:18.000Z</time>
      </trkpt>
      <trkpt lat="47.85108" lon="6.75749">
        <ele>790</ele>
        <time>2018-06-23T09:17:19.000Z</time>
      </trkpt>
      <trkpt lat="47.85109" lon="6.75749">
        <ele>790</ele>
        <time>2018-06-23T09:17:20.000Z</time>
      </trkpt>
      <trkpt lat="47.8511" lon="6.75749">
        <ele>790</ele>
        <time>2018-06-23T09:17:21.000Z</time>
      </trkpt>
      <trkpt lat="47.85112" lon="6.75749">
        <ele>789</ele>
        <time>2018-06-23T09:17:22.000Z</time>
      </trkpt>
      <trkpt lat="47.85113" lon="6.7575">
        <ele>789</ele>
        <time>2018-06-23T09:17:23.000Z</time>
      </trkpt>
      <trkpt lat="47.85114" lon="6.75749">
        <ele>789</ele>
        <time>2018-06-23T09:17:24.000Z</time>
      </trkpt>
      <trkpt lat="47.85115" lon="6.75749">
        <ele>788</ele>
        <time>2018-06-23T09:17:25.000Z</time>
      </trkpt>
      <trkpt lat="47.85116" lon="6.7575">
        <ele>788</ele>
        <time>2018-06-23T09:17:26.000Z</time>
      </trkpt>
      <trkpt lat="47.85117" lon="6.7575">
        <ele>788</ele>
        <time>2018-06-23T09:17:27.000Z</time>
      </trkpt>
      <trkpt lat="47.85118" lon="6.7575">
        <ele>788</ele>
        <time>2018-06-23T09:17:28.000Z</time>
      </trkpt>
      <trkpt lat="47.8512" lon="6.7575">
        <ele>787</ele>
        <time>2018-06-23T09:17:29.000Z</time>
      </trkpt>
      <trkpt lat="47.85121" lon="6.7575">
        <ele>787</ele>
        <time>2018-06-23T09:17:30.000Z</time>
      </trkpt>
      <trkpt lat="47.85122" lon="6.7575">
        <ele>787</ele>
        <time>2018-06-23T09:17:31.000Z</time>
      </trkpt>
      <trkpt lat="47.85123" lon="6.7575">
        <ele>787</ele>
        <time>2018-06-23T09:17:32.000Z</time>
      </trkpt>
      <trkpt lat="47.85125" lon="6.7575">
        <ele>786</ele>
        <time>2018-06-23T09:17:33.000Z</time>
      </trkpt>
      <trkpt lat="47.85126" lon="6.7575">
        <ele>789</ele>
        <time>2018-06-23T09:17:34.000Z</time>
      </trkpt>
      <trkpt lat="47.85126" lon="6.7575">
        <ele>789</ele>
        <time>2018-06-23T09:17:35.000Z</time>
      </trkpt>
      <trkpt lat="47.85127" lon="6.75749">
        <ele>786</ele>
        <time>2018-06-23T09:17:36.000Z</time>
      </trkpt>
      <trkpt lat="47.85128" lon="6.75748">
        <ele>786</ele>
        <time>2018-06-23T09:17:37.000Z</time>
      </trkpt>
      <trkpt lat="47.85128" lon="6.75746">
        <ele>785</ele>
        <time>2018-06-23T09:17:38.000Z</time>
      </trkpt>
      <trkpt lat="47.85128" lon="6.75745">
        <ele>785</ele>
        <time>2018-06-23T09:17:39.000Z</time>
      </trkpt>
      <trkpt lat="47.85128" lon="6.75743">
        <ele>785</ele>
        <time>2018-06-23T09:17:40.000Z</time>
      </trkpt>
      <trkpt lat="47.85128" lon="6.75742">
        <ele>785</ele>
        <time>2018-06-23T09:17:41.000Z</time>
      </trkpt>
      <trkpt lat="47.85128" lon="6.7574">
        <ele>785</ele>
        <time>2018-06-23T09:17:42.000Z</time>
      </trkpt>
      <trkpt lat="47.85127" lon="6.75738">
        <ele>785</ele>
        <time>2018-06-23T09:17:43.000Z</time>
      </trkpt>
      <trkpt lat="47.85127" lon="6.75737">
        <ele>786</ele>
        <time>2018-06-23T09:17:44.000Z</time>
      </trkpt>
      <trkpt lat="47.85127" lon="6.75736">
        <ele>786</ele>
        <time>2018-06-23T09:17:45.000Z</time>
      </trkpt>
      <trkpt lat="47.85126" lon="6.75734">
        <ele>786</ele>
        <time>2018-06-23T09:17:46.000Z</time>
      </trkpt>
      <trkpt lat="47.85126" lon="6.75733">
        <ele>786</ele>
        <time>2018-06-23T09:17:47.000Z</time>
      </trkpt>
      <trkpt lat="47.85125" lon="6.75732">
        <ele>786</ele>
        <time>2018-06-23T09:17:48.000Z</time>
      </trkpt>
      <trkpt lat="47.85124" lon="6.7573">
        <ele>786</ele>
        <time>2018-06-23T09:17:49.000Z</time>
      </trkpt>
      <trkpt lat="47.85124" lon="6.75729">
        <ele>786</ele>
        <time>2018-06-23T09:17:50.000Z</time>
      </trkpt>
      <trkpt lat="47.85123" lon="6.75728">
        <ele>786</ele>
        <time>2018-06-23T09:17:51.000Z</time>
      </trkpt>
      <trkpt lat="47.85122" lon="6.75727">
        <ele>786</ele>
        <time>2018-06-23T09:17:52.000Z</time>
      </trkpt>
      <trkpt lat="47.85121" lon="6.75725">
        <ele>786</ele>
        <time>2018-06-23T09:17:53.000Z</time>
      </trkpt>
      <trkpt lat="47.85121" lon="6.75724">
        <ele>786</ele>
        <time>2018-06-23T09:17:54.000Z</time>
      </trkpt>
      <trkpt lat="47.8512" lon="6.75723">
        <ele>786</ele>
        <time>2018-06-23T09:17:55.000Z</time>
      </trkpt>
      <trkpt lat="47.8512" lon="6.75722">
        <ele>786</ele>
        <time>2018-06-23T09:17:56.000Z</time>
      </trkpt>
      <trkpt lat="47.85119" lon="6.75722">
        <ele>786</ele>
        <time>2018-06-23T09:17:57.000Z</time>
      </trkpt>
      <trkpt lat="47.8512" lon="6.75722">
        <ele>786</ele>
        <time>2018-06-23T09:17:58.000Z</time>
      </trkpt>
      <trkpt lat="47.8512" lon="6.75722">
        <ele>786</ele>
        <time>2018-06-23T09:17:59.000Z</time>
      </trkpt>
      <trkpt lat="47.8512" lon="6.75721">
        <ele>786</ele>
        <time>2018-06-23T09:18:00.000Z</time>
      </trkpt>
      <trkpt lat="47.8512" lon="6.75721">
        <ele>786</ele>
        <time>2018-06-23T09:18:01.000Z</time>
      </trkpt>
      <trkpt lat="47.8512" lon="6.75721">
        <ele>786</ele>
        <time>2018-06-23T09:18:02.000Z</time>
      </trkpt>
      <trkpt lat="47.85119" lon="6.75721">
        <ele>786</ele>
        <time>2018-06-23T09:18:03.000Z</time>
      </trkpt>
      <trkpt lat="47.85119" lon="6.75721">
        <ele>786</ele>
        <time>2018-06-23T09:18:04.000Z</time>
      </trkpt>
      <trkpt lat="47.85119" lon="6.7572">
        <ele>786</ele>
        <time>2018-06-23T09:18:05.000Z</time>
      </trkpt>
      <trkpt lat="47.85118" lon="6.75719">
        <ele>786</ele>
        <time>2018-06-23T09:18:06.000Z</time>
      </trkpt>
      <trkpt lat="47.85117" lon="6.75717">
        <ele>786</ele>
        <time>2018-06-23T09:18:07.000Z</time>
      </trkpt>
      <trkpt lat="47.85116" lon="6.75716">
        <ele>787</ele>
        <time>2018-06-23T09:18:08.000Z</time>
      </trkpt>
      <trkpt lat="47.85115" lon="6.75714">
        <ele>787</ele>
        <time>2018-06-23T09:18:09.000Z</time>
      </trkpt>
      <trkpt lat="47.85114" lon="6.75713">
        <ele>787</ele>
        <time>2018-06-23T09:18:10.000Z</time>
      </trkpt>
      <trkpt lat="47.85114" lon="6.75711">
        <ele>787</ele>
        <time>2018-06-23T09:18:11.000Z</time>
      </trkpt>
      <trkpt lat="47.85113" lon="6.7571">
        <ele>787</ele>
        <time>2018-06-23T09:18:12.000Z</time>
      </trkpt>
      <trkpt lat="47.85112" lon="6.75708">
        <ele>787</ele>
        <time>2018-06-23T09:18:13.000Z</time>
      </trkpt>
      <trkpt lat="47.85112" lon="6.75707">
        <ele>787</ele>
        <time>2018-06-23T09:18:14.000Z</time>
      </trkpt>
      <trkpt lat="47.85112" lon="6.75705">
        <ele>787</ele>
        <time>2018-06-23T09:18:15.000Z</time>
      </trkpt>
      <trkpt lat="47.85111" lon="6.75703">
        <ele>787</ele>
        <time>2018-06-23T09:18:16.000Z</time>
      </trkpt>
      <trkpt lat="47.85111" lon="6.75701">
        <ele>787</ele>
        <time>2018-06-23T09:18:17.000Z</time>
      </trkpt>
      <trkpt lat="47.85111" lon="6.757">
        <ele>787</ele>
        <time>2018-06-23T09:18:18.000Z</time>
      </trkpt>
      <trkpt lat="47.8511" lon="6.75698">
        <ele>787</ele>
        <time>2018-06-23T09:18:19.000Z</time>
      </trkpt>
      <trkpt lat="47.8511" lon="6.75697">
        <ele>787</ele>
        <time>2018-06-23T09:18:20.000Z</time>
      </trkpt>
      <trkpt lat="47.85109" lon="6.75696">
        <ele>787</ele>
        <time>2018-06-23T09:18:21.000Z</time>
      </trkpt>
      <trkpt lat="47.85109" lon="6.75694">
        <ele>787</ele>
        <time>2018-06-23T09:18:22.000Z</time>
      </trkpt>
      <trkpt lat="47.85108" lon="6.75693">
        <ele>787</ele>
        <time>2018-06-23T09:18:23.000Z</time>
      </trkpt>
      <trkpt lat="47.85108" lon="6.75692">
        <ele>787</ele>
        <time>2018-06-23T09:18:24.000Z</time>
      </trkpt>
      <trkpt lat="47.85107" lon="6.7569">
        <ele>787</ele>
        <time>2018-06-23T09:18:25.000Z</time>
      </trkpt>
      <trkpt lat="47.85107" lon="6.75688">
        <ele>787</ele>
        <time>2018-06-23T09:18:26.000Z</time>
      </trkpt>
      <trkpt lat="47.85106" lon="6.75687">
        <ele>787</ele>
        <time>2018-06-23T09:18:27.000Z</time>
      </trkpt>
      <trkpt lat="47.85105" lon="6.75685">
        <ele>787</ele>
        <time>2018-06-23T09:18:28.000Z</time>
      </trkpt>
      <trkpt lat="47.85105" lon="6.75684">
        <ele>787</ele>
        <time>2018-06-23T09:18:29.000Z</time>
      </trkpt>
      <trkpt lat="47.85104" lon="6.75682">
        <ele>787</ele>
        <time>2018-06-23T09:18:30.000Z</time>
      </trkpt>
      <trkpt lat="47.85104" lon="6.7568">
        <ele>787</ele>
        <time>2018-06-23T09:18:31.000Z</time>
      </trkpt>
      <trkpt lat="47.85104" lon="6.75678">
        <ele>788</ele>
        <time>2018-06-23T09:18:32.000Z</time>
      </trkpt>
      <trkpt lat="47.85103" lon="6.75676">
        <ele>788</ele>
        <time>2018-06-23T09:18:33.000Z</time>
      </trkpt>
      <trkpt lat="47.85102" lon="6.75675">
        <ele>788</ele>
        <time>2018-06-23T09:18:34.000Z</time>
      </trkpt>
      <trkpt lat="47.85102" lon="6.75673">
        <ele>788</ele>
        <time>2018-06-23T09:18:35.000Z</time>
      </trkpt>
      <trkpt lat="47.85102" lon="6.75672">
        <ele>788</ele>
        <time>2018-06-23T09:18:36.000Z</time>
      </trkpt>
      <trkpt lat="47.85101" lon="6.7567">
        <ele>788</ele>
        <time>2018-06-23T09:18:37.000Z</time>
      </trkpt>
      <trkpt lat="47.85101" lon="6.75669">
        <ele>788</ele>
        <time>2018-06-23T09:18:38.000Z</time>
      </trkpt>
      <trkpt lat="47.85101" lon="6.75668">
        <ele>788</ele>
        <time>2018-06-23T09:18:39.000Z</time>
      </trkpt>
      <trkpt lat="47.85101" lon="6.75666">
        <ele>786</ele>
        <time>2018-06-23T09:18:40.000Z</time>
      </trkpt>
      <trkpt lat="47.85101" lon="6.75665">
        <ele>786</ele>
        <time>2018-06-23T09:18:41.000Z</time>
      </trkpt>
      <trkpt lat="47.851" lon="6.75664">
        <ele>786</ele>
        <time>2018-06-23T09:18:42.000Z</time>
      </trkpt>
      <trkpt lat="47.851" lon="6.75663">
        <ele>786</ele>
        <time>2018-06-23T09:18:43.000Z</time>
      </trkpt>
      <trkpt lat="47.851" lon="6.75662">
        <ele>786</ele>
        <time>2018-06-23T09:18:44.000Z</time>
      </trkpt>
      <trkpt lat="47.85101" lon="6.75661">
        <ele>786</ele>
        <time>2018-06-23T09:18:45.000Z</time>
      </trkpt>
      <trkpt lat="47.85101" lon="6.7566">
        <ele>786</ele>
        <time>2018-06-23T09:18:46.000Z</time>
      </trkpt>
      <trkpt lat="47.85101" lon="6.7566">
        <ele>786</ele>
        <time>2018-06-23T09:18:47.000Z</time>
      </trkpt>
      <trkpt lat="47.85101" lon="6.7566">
        <ele>786</ele>
        <time>2018-06-23T09:18:48.000Z</time>
      </trkpt>
      <trkpt lat="47.85101" lon="6.7566">
        <ele>786</ele>
        <time>2018-06-23T09:18:49.000Z</time>
      </trkpt>
      <trkpt lat="47.85101" lon="6.7566">
        <ele>786</ele>
        <time>2018-06-23T09:18:50.000Z</time>
      </trkpt>
      <trkpt lat="47.85101" lon="6.7566">
        <ele>786</ele>
        <time>2018-06-23T09:18:51.000Z</time>
      </trkpt>
      <trkpt lat="47.85101" lon="6.7566">
        <ele>786</ele>
        <time>2018-06-23T09:18:52.000Z</time>
      </trkpt>
      <trkpt lat="47.85101" lon="6.75659">
        <ele>786</ele>
        <time>2018-06-23T09:18:53.000Z</time>
      </trkpt>
      <trkpt lat="47.85101" lon="6.75659">
        <ele>786</ele>
        <time>2018-06-23T09:18:54.000Z</time>
      </trkpt>
      <trkpt lat="47.85101" lon="6.75659">
        <ele>786</ele>
        <time>2018-06-23T09:18:55.000Z</time>
      </trkpt>
      <trkpt lat="47.85101" lon="6.75659">
        <ele>786</ele>
        <time>2018-06-23T09:18:56.000Z</time>
      </trkpt>
      <trkpt lat="47.851" lon="6.75659">
        <ele>786</ele>
        <time>2018-06-23T09:18:57.000Z</time>
      </trkpt>
      <trkpt lat="47.851" lon="6.75659">
        <ele>786</ele>
        <time>2018-06-23T09:18:58.000Z</time>
      </trkpt>
      <trkpt lat="47.851" lon="6.75659">
        <ele>786</ele>
        <time>2018-06-23T09:18:59.000Z</time>
      </trkpt>
      <trkpt lat="47.851" lon="6.75659">
        <ele>786</ele>
        <time>2018-06-23T09:19:00.000Z</time>
      </trkpt>
      <trkpt lat="47.851" lon="6.75659">
        <ele>786</ele>
        <time>2018-06-23T09:19:01.000Z</time>
      </trkpt>
      <trkpt lat="47.851" lon="6.75658">
        <ele>786</ele>
        <time>2018-06-23T09:19:02.000Z</time>
      </trkpt>
      <trkpt lat="47.851" lon="6.75658">
        <ele>786</ele>
        <time>2018-06-23T09:19:03.000Z</time>
      </trkpt>
      <trkpt lat="47.851" lon="6.75658">
        <ele>786</ele>
        <time>2018-06-23T09:19:04.000Z</time>
      </trkpt>
      <trkpt lat="47.851" lon="6.75658">
        <ele>786</ele>
        <time>2018-06-23T09:19:05.000Z</time>
      </trkpt>
      <trkpt lat="47.851" lon="6.75658">
        <ele>786</ele>
        <time>2018-06-23T09:19:06.000Z</time>
      </trkpt>
      <trkpt lat="47.85101" lon="6.75658">
        <ele>786</ele>
        <time>2018-06-23T09:19:07.000Z</time>
      </trkpt>
      <trkpt lat="47.85101" lon="6.75658">
        <ele>786</ele>
        <time>2018-06-23T09:19:08.000Z</time>
      </trkpt>
      <trkpt lat="47.85101" lon="6.75658">
        <ele>786</ele>
        <time>2018-06-23T09:19:09.000Z</time>
      </trkpt>
      <trkpt lat="47.85101" lon="6.75658">
        <ele>786</ele>
        <time>2018-06-23T09:19:10.000Z</time>
      </trkpt>
      <trkpt lat="47.85101" lon="6.75658">
        <ele>786</ele>
        <time>2018-06-23T09:19:11.000Z</time>
      </trkpt>
      <trkpt lat="47.85101" lon="6.75658">
        <ele>786</ele>
        <time>2018-06-23T09:19:12.000Z</time>
      </trkpt>
      <trkpt lat="47.85101" lon="6.75657">
        <ele>785</ele>
        <time>2018-06-23T09:19:13.000Z</time>
      </trkpt>
      <trkpt lat="47.85101" lon="6.75657">
        <ele>785</ele>
        <time>2018-06-23T09:19:14.000Z</time>
      </trkpt>
      <trkpt lat="47.85101" lon="6.75657">
        <ele>785</ele>
        <time>2018-06-23T09:19:15.000Z</time>
      </trkpt>
      <trkpt lat="47.85101" lon="6.75657">
        <ele>785</ele>
        <time>2018-06-23T09:19:16.000Z</time>
      </trkpt>
      <trkpt lat="47.85101" lon="6.75657">
        <ele>785</ele>
        <time>2018-06-23T09:19:17.000Z</time>
      </trkpt>
      <trkpt lat="47.85101" lon="6.75657">
        <ele>785</ele>
        <time>2018-06-23T09:19:18.000Z</time>
      </trkpt>
      <trkpt lat="47.85101" lon="6.75657">
        <ele>785</ele>
        <time>2018-06-23T09:19:19.000Z</time>
      </trkpt>
      <trkpt lat="47.85102" lon="6.75657">
        <ele>785</ele>
        <time>2018-06-23T09:19:20.000Z</time>
      </trkpt>
      <trkpt lat="47.85102" lon="6.75657">
        <ele>785</ele>
        <time>2018-06-23T09:19:21.000Z</time>
      </trkpt>
      <trkpt lat="47.85102" lon="6.75657">
        <ele>785</ele>
        <time>2018-06-23T09:19:22.000Z</time>
      </trkpt>
      <trkpt lat="47.85102" lon="6.75657">
        <ele>785</ele>
        <time>2018-06-23T09:19:23.000Z</time>
      </trkpt>
      <trkpt lat="47.85102" lon="6.75656">
        <ele>785</ele>
        <time>2018-06-23T09:19:24.000Z</time>
      </trkpt>
      <trkpt lat="47.85101" lon="6.75656">
        <ele>785</ele>
        <time>2018-06-23T09:19:25.000Z</time>
      </trkpt>
      <trkpt lat="47.85101" lon="6.75655">
        <ele>785</ele>
        <time>2018-06-23T09:19:26.000Z</time>
      </trkpt>
      <trkpt lat="47.85101" lon="6.75654">
        <ele>785</ele>
        <time>2018-06-23T09:19:27.000Z</time>
      </trkpt>
      <trkpt lat="47.85101" lon="6.75654">
        <ele>785</ele>
        <time>2018-06-23T09:19:28.000Z</time>
      </trkpt>
      <trkpt lat="47.85101" lon="6.75653">
        <ele>785</ele>
        <time>2018-06-23T09:19:29.000Z</time>
      </trkpt>
      <trkpt lat="47.85101" lon="6.75652">
        <ele>785</ele>
        <time>2018-06-23T09:19:30.000Z</time>
      </trkpt>
      <trkpt lat="47.85101" lon="6.75651">
        <ele>785</ele>
        <time>2018-06-23T09:19:31.000Z</time>
      </trkpt>
      <trkpt lat="47.85101" lon="6.7565">
        <ele>785</ele>
        <time>2018-06-23T09:19:32.000Z</time>
      </trkpt>
      <trkpt lat="47.85101" lon="6.7565">
        <ele>785</ele>
        <time>2018-06-23T09:19:33.000Z</time>
      </trkpt>
      <trkpt lat="47.85101" lon="6.75649">
        <ele>785</ele>
        <time>2018-06-23T09:19:34.000Z</time>
      </trkpt>
      <trkpt lat="47.85101" lon="6.75648">
        <ele>785</ele>
        <time>2018-06-23T09:19:35.000Z</time>
      </trkpt>
      <trkpt lat="47.85101" lon="6.75648">
        <ele>784</ele>
        <time>2018-06-23T09:19:36.000Z</time>
      </trkpt>
      <trkpt lat="47.85101" lon="6.75648">
        <ele>784</ele>
        <time>2018-06-23T09:19:37.000Z</time>
      </trkpt>
      <trkpt lat="47.85101" lon="6.75647">
        <ele>784</ele>
        <time>2018-06-23T09:19:38.000Z</time>
      </trkpt>
      <trkpt lat="47.85101" lon="6.75647">
        <ele>784</ele>
        <time>2018-06-23T09:19:39.000Z</time>
      </trkpt>
      <trkpt lat="47.85101" lon="6.75647">
        <ele>784</ele>
        <time>2018-06-23T09:19:40.000Z</time>
      </trkpt>
      <trkpt lat="47.85101" lon="6.75647">
        <ele>785</ele>
        <time>2018-06-23T09:19:41.000Z</time>
      </trkpt>
      <trkpt lat="47.85101" lon="6.75647">
        <ele>784</ele>
        <time>2018-06-23T09:19:42.000Z</time>
      </trkpt>
      <trkpt lat="47.85101" lon="6.75647">
        <ele>784</ele>
        <time>2018-06-23T09:19:43.000Z</time>
      </trkpt>
      <trkpt lat="47.85101" lon="6.75647">
        <ele>784</ele>
        <time>2018-06-23T09:19:44.000Z</time>
      </trkpt>
      <trkpt lat="47.85102" lon="6.75647">
        <ele>784</ele>
        <time>2018-06-23T09:19:45.000Z</time>
      </trkpt>
      <trkpt lat="47.85102" lon="6.75647">
        <ele>784</ele>
        <time>2018-06-23T09:19:46.000Z</time>
      </trkpt>
      <trkpt lat="47.85102" lon="6.75647">
        <ele>784</ele>
        <time>2018-06-23T09:19:47.000Z</time>
      </trkpt>
      <trkpt lat="47.85102" lon="6.75647">
        <ele>784</ele>
        <time>2018-06-23T09:19:48.000Z</time>
      </trkpt>
      <trkpt lat="47.85102" lon="6.75648">
        <ele>784</ele>
        <time>2018-06-23T09:19:49.000Z</time>
      </trkpt>
      <trkpt lat="47.85102" lon="6.75648">
        <ele>784</ele>
        <time>2018-06-23T09:19:50.000Z</time>
      </trkpt>
      <trkpt lat="47.85102" lon="6.75648">
        <ele>784</ele>
        <time>2018-06-23T09:19:51.000Z</time>
      </trkpt>
      <trkpt lat="47.85102" lon="6.75648">
        <ele>784</ele>
        <time>2018-06-23T09:19:52.000Z</time>
      </trkpt>
      <trkpt lat="47.85102" lon="6.75649">
        <ele>784</ele>
        <time>2018-06-23T09:19:53.000Z</time>
      </trkpt>
      <trkpt lat="47.85102" lon="6.75649">
        <ele>784</ele>
        <time>2018-06-23T09:19:54.000Z</time>
      </trkpt>
      <trkpt lat="47.85102" lon="6.75649">
        <ele>784</ele>
        <time>2018-06-23T09:19:55.000Z</time>
      </trkpt>
      <trkpt lat="47.85102" lon="6.75649">
        <ele>785</ele>
        <time>2018-06-23T09:19:56.000Z</time>
      </trkpt>
      <trkpt lat="47.85101" lon="6.75649">
        <ele>785</ele>
        <time>2018-06-23T09:19:57.000Z</time>
      </trkpt>
      <trkpt lat="47.85102" lon="6.75649">
        <ele>785</ele>
        <time>2018-06-23T09:19:58.000Z</time>
      </trkpt>
      <trkpt lat="47.85102" lon="6.75649">
        <ele>785</ele>
        <time>2018-06-23T09:19:59.000Z</time>
      </trkpt>
      <trkpt lat="47.85101" lon="6.75649">
        <ele>785</ele>
        <time>2018-06-23T09:20:00.000Z</time>
      </trkpt>
      <trkpt lat="47.85101" lon="6.75649">
        <ele>785</ele>
        <time>2018-06-23T09:20:01.000Z</time>
      </trkpt>
      <trkpt lat="47.85101" lon="6.75649">
        <ele>785</ele>
        <time>2018-06-23T09:20:02.000Z</time>
      </trkpt>
      <trkpt lat="47.85101" lon="6.75649">
        <ele>785</ele>
        <time>2018-06-23T09:20:03.000Z</time>
      </trkpt>
      <trkpt lat="47.85101" lon="6.75649">
        <ele>785</ele>
        <time>2018-06-23T09:20:04.000Z</time>
      </trkpt>
      <trkpt lat="47.85101" lon="6.75649">
        <ele>785</ele>
        <time>2018-06-23T09:20:05.000Z</time>
      </trkpt>
      <trkpt lat="47.851" lon="6.75649">
        <ele>785</ele>
        <time>2018-06-23T09:20:06.000Z</time>
      </trkpt>
      <trkpt lat="47.851" lon="6.75649">
        <ele>785</ele>
        <time>2018-06-23T09:20:07.000Z</time>
      </trkpt>
      <trkpt lat="47.851" lon="6.7565">
        <ele>785</ele>
        <time>2018-06-23T09:20:08.000Z</time>
      </trkpt>
      <trkpt lat="47.851" lon="6.7565">
        <ele>785</ele>
        <time>2018-06-23T09:20:09.000Z</time>
      </trkpt>
      <trkpt lat="47.851" lon="6.7565">
        <ele>785</ele>
        <time>2018-06-23T09:20:10.000Z</time>
      </trkpt>
      <trkpt lat="47.851" lon="6.7565">
        <ele>785</ele>
        <time>2018-06-23T09:20:11.000Z</time>
      </trkpt>
      <trkpt lat="47.851" lon="6.7565">
        <ele>785</ele>
        <time>2018-06-23T09:20:12.000Z</time>
      </trkpt>
      <trkpt lat="47.851" lon="6.7565">
        <ele>785</ele>
        <time>2018-06-23T09:20:13.000Z</time>
      </trkpt>
      <trkpt lat="47.851" lon="6.7565">
        <ele>785</ele>
        <time>2018-06-23T09:20:14.000Z</time>
      </trkpt>
      <trkpt lat="47.851" lon="6.7565">
        <ele>785</ele>
        <time>2018-06-23T09:20:15.000Z</time>
      </trkpt>
      <trkpt lat="47.851" lon="6.7565">
        <ele>785</ele>
        <time>2018-06-23T09:20:16.000Z</time>
      </trkpt>
      <trkpt lat="47.851" lon="6.75651">
        <ele>785</ele>
        <time>2018-06-23T09:20:17.000Z</time>
      </trkpt>
      <trkpt lat="47.851" lon="6.75651">
        <ele>785</ele>
        <time>2018-06-23T09:20:18.000Z</time>
      </trkpt>
      <trkpt lat="47.851" lon="6.75651">
        <ele>785</ele>
        <time>2018-06-23T09:20:19.000Z</time>
      </trkpt>
      <trkpt lat="47.851" lon="6.75651">
        <ele>785</ele>
        <time>2018-06-23T09:20:20.000Z</time>
      </trkpt>
      <trkpt lat="47.851" lon="6.75651">
        <ele>785</ele>
        <time>2018-06-23T09:20:21.000Z</time>
      </trkpt>
      <trkpt lat="47.85099" lon="6.75651">
        <ele>785</ele>
        <time>2018-06-23T09:20:22.000Z</time>
      </trkpt>
      <trkpt lat="47.85099" lon="6.75651">
        <ele>785</ele>
        <time>2018-06-23T09:20:23.000Z</time>
      </trkpt>
      <trkpt lat="47.85099" lon="6.75651">
        <ele>785</ele>
        <time>2018-06-23T09:20:24.000Z</time>
      </trkpt>
      <trkpt lat="47.85099" lon="6.75651">
        <ele>785</ele>
        <time>2018-06-23T09:20:25.000Z</time>
      </trkpt>
      <trkpt lat="47.85099" lon="6.75651">
        <ele>785</ele>
        <time>2018-06-23T09:20:26.000Z</time>
      </trkpt>
      <trkpt lat="47.85099" lon="6.75651">
        <ele>785</ele>
        <time>2018-06-23T09:20:27.000Z</time>
      </trkpt>
      <trkpt lat="47.85099" lon="6.75651">
        <ele>785</ele>
        <time>2018-06-23T09:20:28.000Z</time>
      </trkpt>
      <trkpt lat="47.85099" lon="6.75651">
        <ele>785</ele>
        <time>2018-06-23T09:20:29.000Z</time>
      </trkpt>
      <trkpt lat="47.85099" lon="6.7565">
        <ele>785</ele>
        <time>2018-06-23T09:20:30.000Z</time>
      </trkpt>
      <trkpt lat="47.85099" lon="6.75649">
        <ele>785</ele>
        <time>2018-06-23T09:20:31.000Z</time>
      </trkpt>
      <trkpt lat="47.85099" lon="6.75649">
        <ele>785</ele>
        <time>2018-06-23T09:20:32.000Z</time>
      </trkpt>
      <trkpt lat="47.85098" lon="6.75647">
        <ele>785</ele>
        <time>2018-06-23T09:20:33.000Z</time>
      </trkpt>
      <trkpt lat="47.85098" lon="6.75647">
        <ele>785</ele>
        <time>2018-06-23T09:20:34.000Z</time>
      </trkpt>
      <trkpt lat="47.85098" lon="6.75646">
        <ele>785</ele>
        <time>2018-06-23T09:20:35.000Z</time>
      </trkpt>
      <trkpt lat="47.85098" lon="6.75645">
        <ele>785</ele>
        <time>2018-06-23T09:20:36.000Z</time>
      </trkpt>
      <trkpt lat="47.85098" lon="6.75645">
        <ele>785</ele>
        <time>2018-06-23T09:20:37.000Z</time>
      </trkpt>
      <trkpt lat="47.85098" lon="6.75645">
        <ele>785</ele>
        <time>2018-06-23T09:20:38.000Z</time>
      </trkpt>
      <trkpt lat="47.85098" lon="6.75644">
        <ele>785</ele>
        <time>2018-06-23T09:20:39.000Z</time>
      </trkpt>
      <trkpt lat="47.85097" lon="6.75643">
        <ele>785</ele>
        <time>2018-06-23T09:20:40.000Z</time>
      </trkpt>
      <trkpt lat="47.85097" lon="6.75642">
        <ele>784</ele>
        <time>2018-06-23T09:20:41.000Z</time>
      </trkpt>
      <trkpt lat="47.85097" lon="6.75641">
        <ele>784</ele>
        <time>2018-06-23T09:20:42.000Z</time>
      </trkpt>
      <trkpt lat="47.85097" lon="6.75641">
        <ele>784</ele>
        <time>2018-06-23T09:20:43.000Z</time>
      </trkpt>
      <trkpt lat="47.85096" lon="6.7564">
        <ele>784</ele>
        <time>2018-06-23T09:20:44.000Z</time>
      </trkpt>
      <trkpt lat="47.85095" lon="6.75639">
        <ele>784</ele>
        <time>2018-06-23T09:20:45.000Z</time>
      </trkpt>
      <trkpt lat="47.85095" lon="6.75638">
        <ele>784</ele>
        <time>2018-06-23T09:20:46.000Z</time>
      </trkpt>
      <trkpt lat="47.85094" lon="6.75636">
        <ele>784</ele>
        <time>2018-06-23T09:20:47.000Z</time>
      </trkpt>
      <trkpt lat="47.85094" lon="6.75635">
        <ele>784</ele>
        <time>2018-06-23T09:20:48.000Z</time>
      </trkpt>
      <trkpt lat="47.85094" lon="6.75634">
        <ele>784</ele>
        <time>2018-06-23T09:20:49.000Z</time>
      </trkpt>
      <trkpt lat="47.85093" lon="6.75633">
        <ele>784</ele>
        <time>2018-06-23T09:20:50.000Z</time>
      </trkpt>
      <trkpt lat="47.85093" lon="6.75632">
        <ele>784</ele>
        <time>2018-06-23T09:20:51.000Z</time>
      </trkpt>
      <trkpt lat="47.85092" lon="6.75631">
        <ele>784</ele>
        <time>2018-06-23T09:20:52.000Z</time>
      </trkpt>
      <trkpt lat="47.85092" lon="6.75629">
        <ele>784</ele>
        <time>2018-06-23T09:20:53.000Z</time>
      </trkpt>
      <trkpt lat="47.85091" lon="6.75628">
        <ele>784</ele>
        <time>2018-06-23T09:20:54.000Z</time>
      </trkpt>
      <trkpt lat="47.8509" lon="6.75627">
        <ele>784</ele>
        <time>2018-06-23T09:20:55.000Z</time>
      </trkpt>
      <trkpt lat="47.8509" lon="6.75625">
        <ele>784</ele>
        <time>2018-06-23T09:20:56.000Z</time>
      </trkpt>
      <trkpt lat="47.8509" lon="6.75624">
        <ele>784</ele>
        <time>2018-06-23T09:20:57.000Z</time>
      </trkpt>
      <trkpt lat="47.85089" lon="6.75622">
        <ele>784</ele>
        <time>2018-06-23T09:20:58.000Z</time>
      </trkpt>
      <trkpt lat="47.85089" lon="6.75621">
        <ele>784</ele>
        <time>2018-06-23T09:20:59.000Z</time>
      </trkpt>
      <trkpt lat="47.85089" lon="6.7562">
        <ele>784</ele>
        <time>2018-06-23T09:21:00.000Z</time>
      </trkpt>
      <trkpt lat="47.85089" lon="6.75618">
        <ele>784</ele>
        <time>2018-06-23T09:21:01.000Z</time>
      </trkpt>
      <trkpt lat="47.85088" lon="6.75616">
        <ele>784</ele>
        <time>2018-06-23T09:21:02.000Z</time>
      </trkpt>
      <trkpt lat="47.85088" lon="6.75615">
        <ele>784</ele>
        <time>2018-06-23T09:21:03.000Z</time>
      </trkpt>
      <trkpt lat="47.85087" lon="6.75613">
        <ele>784</ele>
        <time>2018-06-23T09:21:04.000Z</time>
      </trkpt>
      <trkpt lat="47.85087" lon="6.75612">
        <ele>784</ele>
        <time>2018-06-23T09:21:05.000Z</time>
      </trkpt>
      <trkpt lat="47.85086" lon="6.7561">
        <ele>785</ele>
        <time>2018-06-23T09:21:06.000Z</time>
      </trkpt>
      <trkpt lat="47.85086" lon="6.75608">
        <ele>785</ele>
        <time>2018-06-23T09:21:07.000Z</time>
      </trkpt>
      <trkpt lat="47.85086" lon="6.75607">
        <ele>785</ele>
        <time>2018-06-23T09:21:08.000Z</time>
      </trkpt>
      <trkpt lat="47.85085" lon="6.75605">
        <ele>785</ele>
        <time>2018-06-23T09:21:09.000Z</time>
      </trkpt>
      <trkpt lat="47.85085" lon="6.75603">
        <ele>785</ele>
        <time>2018-06-23T09:21:10.000Z</time>
      </trkpt>
      <trkpt lat="47.85085" lon="6.75601">
        <ele>785</ele>
        <time>2018-06-23T09:21:11.000Z</time>
      </trkpt>
      <trkpt lat="47.85085" lon="6.756">
        <ele>786</ele>
        <time>2018-06-23T09:21:12.000Z</time>
      </trkpt>
      <trkpt lat="47.85085" lon="6.75599">
        <ele>786</ele>
        <time>2018-06-23T09:21:13.000Z</time>
      </trkpt>
      <trkpt lat="47.85085" lon="6.75597">
        <ele>786</ele>
        <time>2018-06-23T09:21:14.000Z</time>
      </trkpt>
      <trkpt lat="47.85085" lon="6.75595">
        <ele>787</ele>
        <time>2018-06-23T09:21:15.000Z</time>
      </trkpt>
      <trkpt lat="47.85085" lon="6.75594">
        <ele>787</ele>
        <time>2018-06-23T09:21:16.000Z</time>
      </trkpt>
      <trkpt lat="47.85085" lon="6.75593">
        <ele>787</ele>
        <time>2018-06-23T09:21:17.000Z</time>
      </trkpt>
      <trkpt lat="47.85085" lon="6.75591">
        <ele>787</ele>
        <time>2018-06-23T09:21:18.000Z</time>
      </trkpt>
      <trkpt lat="47.85085" lon="6.75589">
        <ele>788</ele>
        <time>2018-06-23T09:21:19.000Z</time>
      </trkpt>
      <trkpt lat="47.85085" lon="6.75587">
        <ele>788</ele>
        <time>2018-06-23T09:21:20.000Z</time>
      </trkpt>
      <trkpt lat="47.85085" lon="6.75586">
        <ele>789</ele>
        <time>2018-06-23T09:21:21.000Z</time>
      </trkpt>
      <trkpt lat="47.85085" lon="6.75585">
        <ele>789</ele>
        <time>2018-06-23T09:21:22.000Z</time>
      </trkpt>
      <trkpt lat="47.85085" lon="6.75584">
        <ele>789</ele>
        <time>2018-06-23T09:21:23.000Z</time>
      </trkpt>
      <trkpt lat="47.85085" lon="6.75582">
        <ele>789</ele>
        <time>2018-06-23T09:21:24.000Z</time>
      </trkpt>
      <trkpt lat="47.85085" lon="6.75581">
        <ele>789</ele>
        <time>2018-06-23T09:21:25.000Z</time>
      </trkpt>
      <trkpt lat="47.85085" lon="6.75581">
        <ele>789</ele>
        <time>2018-06-23T09:21:26.000Z</time>
      </trkpt>
      <trkpt lat="47.85085" lon="6.75581">
        <ele>789</ele>
        <time>2018-06-23T09:21:27.000Z</time>
      </trkpt>
      <trkpt lat="47.85085" lon="6.75581">
        <ele>789</ele>
        <time>2018-06-23T09:21:28.000Z</time>
      </trkpt>
      <trkpt lat="47.85085" lon="6.75581">
        <ele>789</ele>
        <time>2018-06-23T09:21:29.000Z</time>
      </trkpt>
      <trkpt lat="47.85085" lon="6.75581">
        <ele>789</ele>
        <time>2018-06-23T09:21:30.000Z</time>
      </trkpt>
      <trkpt lat="47.85086" lon="6.75581">
        <ele>789</ele>
        <time>2018-06-23T09:21:31.000Z</time>
      </trkpt>
      <trkpt lat="47.85086" lon="6.75581">
        <ele>789</ele>
        <time>2018-06-23T09:21:32.000Z</time>
      </trkpt>
      <trkpt lat="47.85086" lon="6.75581">
        <ele>789</ele>
        <time>2018-06-23T09:21:33.000Z</time>
      </trkpt>
      <trkpt lat="47.85086" lon="6.75581">
        <ele>789</ele>
        <time>2018-06-23T09:21:34.000Z</time>
      </trkpt>
      <trkpt lat="47.85086" lon="6.75582">
        <ele>789</ele>
        <time>2018-06-23T09:21:35.000Z</time>
      </trkpt>
      <trkpt lat="47.85086" lon="6.75582">
        <ele>789</ele>
        <time>2018-06-23T09:21:36.000Z</time>
      </trkpt>
      <trkpt lat="47.85086" lon="6.75583">
        <ele>789</ele>
        <time>2018-06-23T09:21:37.000Z</time>
      </trkpt>
      <trkpt lat="47.85086" lon="6.75583">
        <ele>789</ele>
        <time>2018-06-23T09:21:38.000Z</time>
      </trkpt>
      <trkpt lat="47.85086" lon="6.75583">
        <ele>789</ele>
        <time>2018-06-23T09:21:39.000Z</time>
      </trkpt>
      <trkpt lat="47.85086" lon="6.75583">
        <ele>789</ele>
        <time>2018-06-23T09:21:40.000Z</time>
      </trkpt>
      <trkpt lat="47.85086" lon="6.75582">
        <ele>789</ele>
        <time>2018-06-23T09:21:41.000Z</time>
      </trkpt>
      <trkpt lat="47.85086" lon="6.75582">
        <ele>789</ele>
        <time>2018-06-23T09:21:42.000Z</time>
      </trkpt>
      <trkpt lat="47.85086" lon="6.75582">
        <ele>789</ele>
        <time>2018-06-23T09:21:43.000Z</time>
      </trkpt>
      <trkpt lat="47.85086" lon="6.75582">
        <ele>789</ele>
        <time>2018-06-23T09:21:44.000Z</time>
      </trkpt>
      <trkpt lat="47.85086" lon="6.75582">
        <ele>789</ele>
        <time>2018-06-23T09:21:45.000Z</time>
      </trkpt>
      <trkpt lat="47.85086" lon="6.75582">
        <ele>789</ele>
        <time>2018-06-23T09:21:46.000Z</time>
      </trkpt>
      <trkpt lat="47.85086" lon="6.75582">
        <ele>789</ele>
        <time>2018-06-23T09:21:47.000Z</time>
      </trkpt>
      <trkpt lat="47.85086" lon="6.75582">
        <ele>789</ele>
        <time>2018-06-23T09:21:48.000Z</time>
      </trkpt>
      <trkpt lat="47.85086" lon="6.75582">
        <ele>789</ele>
        <time>2018-06-23T09:21:49.000Z</time>
      </trkpt>
      <trkpt lat="47.85087" lon="6.75582">
        <ele>789</ele>
        <time>2018-06-23T09:21:50.000Z</time>
      </trkpt>
      <trkpt lat="47.85087" lon="6.75582">
        <ele>789</ele>
        <time>2018-06-23T09:21:51.000Z</time>
      </trkpt>
      <trkpt lat="47.85087" lon="6.75582">
        <ele>789</ele>
        <time>2018-06-23T09:21:52.000Z</time>
      </trkpt>
      <trkpt lat="47.85087" lon="6.75582">
        <ele>789</ele>
        <time>2018-06-23T09:21:53.000Z</time>
      </trkpt>
      <trkpt lat="47.85087" lon="6.75582">
        <ele>789</ele>
        <time>2018-06-23T09:21:54.000Z</time>
      </trkpt>
      <trkpt lat="47.85087" lon="6.75582">
        <ele>789</ele>
        <time>2018-06-23T09:21:55.000Z</time>
      </trkpt>
      <trkpt lat="47.85087" lon="6.75582">
        <ele>789</ele>
        <time>2018-06-23T09:21:56.000Z</time>
      </trkpt>
      <trkpt lat="47.85087" lon="6.75582">
        <ele>789</ele>
        <time>2018-06-23T09:21:57.000Z</time>
      </trkpt>
      <trkpt lat="47.85087" lon="6.75582">
        <ele>789</ele>
        <time>2018-06-23T09:21:58.000Z</time>
      </trkpt>
      <trkpt lat="47.85087" lon="6.75582">
        <ele>789</ele>
        <time>2018-06-23T09:21:59.000Z</time>
      </trkpt>
      <trkpt lat="47.85087" lon="6.75582">
        <ele>789</ele>
        <time>2018-06-23T09:22:00.000Z</time>
      </trkpt>
      <trkpt lat="47.85087" lon="6.75582">
        <ele>789</ele>
        <time>2018-06-23T09:22:01.000Z</time>
      </trkpt>
      <trkpt lat="47.85087" lon="6.75582">
        <ele>789</ele>
        <time>2018-06-23T09:22:02.000Z</time>
      </trkpt>
      <trkpt lat="47.85087" lon="6.75581">
        <ele>789</ele>
        <time>2018-06-23T09:22:03.000Z</time>
      </trkpt>
      <trkpt lat="47.85087" lon="6.75581">
        <ele>788</ele>
        <time>2018-06-23T09:22:04.000Z</time>
      </trkpt>
      <trkpt lat="47.85087" lon="6.7558">
        <ele>788</ele>
        <time>2018-06-23T09:22:05.000Z</time>
      </trkpt>
      <trkpt lat="47.85087" lon="6.75579">
        <ele>788</ele>
        <time>2018-06-23T09:22:06.000Z</time>
      </trkpt>
      <trkpt lat="47.85087" lon="6.75578">
        <ele>788</ele>
        <time>2018-06-23T09:22:07.000Z</time>
      </trkpt>
      <trkpt lat="47.85087" lon="6.75576">
        <ele>787</ele>
        <time>2018-06-23T09:22:08.000Z</time>
      </trkpt>
      <trkpt lat="47.85087" lon="6.75575">
        <ele>787</ele>
        <time>2018-06-23T09:22:09.000Z</time>
      </trkpt>
      <trkpt lat="47.85087" lon="6.75574">
        <ele>787</ele>
        <time>2018-06-23T09:22:10.000Z</time>
      </trkpt>
      <trkpt lat="47.85087" lon="6.75573">
        <ele>787</ele>
        <time>2018-06-23T09:22:11.000Z</time>
      </trkpt>
      <trkpt lat="47.85087" lon="6.75571">
        <ele>786</ele>
        <time>2018-06-23T09:22:12.000Z</time>
      </trkpt>
      <trkpt lat="47.85087" lon="6.7557">
        <ele>786</ele>
        <time>2018-06-23T09:22:13.000Z</time>
      </trkpt>
      <trkpt lat="47.85087" lon="6.75568">
        <ele>786</ele>
        <time>2018-06-23T09:22:14.000Z</time>
      </trkpt>
      <trkpt lat="47.85087" lon="6.75567">
        <ele>786</ele>
        <time>2018-06-23T09:22:15.000Z</time>
      </trkpt>
      <trkpt lat="47.85086" lon="6.75566">
        <ele>785</ele>
        <time>2018-06-23T09:22:16.000Z</time>
      </trkpt>
      <trkpt lat="47.85086" lon="6.75565">
        <ele>785</ele>
        <time>2018-06-23T09:22:17.000Z</time>
      </trkpt>
      <trkpt lat="47.85086" lon="6.75564">
        <ele>785</ele>
        <time>2018-06-23T09:22:18.000Z</time>
      </trkpt>
      <trkpt lat="47.85086" lon="6.75563">
        <ele>785</ele>
        <time>2018-06-23T09:22:19.000Z</time>
      </trkpt>
      <trkpt lat="47.85087" lon="6.75562">
        <ele>785</ele>
        <time>2018-06-23T09:22:20.000Z</time>
      </trkpt>
      <trkpt lat="47.85087" lon="6.7556">
        <ele>785</ele>
        <time>2018-06-23T09:22:21.000Z</time>
      </trkpt>
      <trkpt lat="47.85087" lon="6.75559">
        <ele>785</ele>
        <time>2018-06-23T09:22:22.000Z</time>
      </trkpt>
      <trkpt lat="47.85087" lon="6.75557">
        <ele>785</ele>
        <time>2018-06-23T09:22:23.000Z</time>
      </trkpt>
      <trkpt lat="47.85087" lon="6.75556">
        <ele>784</ele>
        <time>2018-06-23T09:22:24.000Z</time>
      </trkpt>
      <trkpt lat="47.85087" lon="6.75554">
        <ele>784</ele>
        <time>2018-06-23T09:22:25.000Z</time>
      </trkpt>
      <trkpt lat="47.85087" lon="6.75553">
        <ele>784</ele>
        <time>2018-06-23T09:22:26.000Z</time>
      </trkpt>
      <trkpt lat="47.85087" lon="6.75552">
        <ele>784</ele>
        <time>2018-06-23T09:22:27.000Z</time>
      </trkpt>
      <trkpt lat="47.85086" lon="6.75551">
        <ele>784</ele>
        <time>2018-06-23T09:22:28.000Z</time>
      </trkpt>
      <trkpt lat="47.85086" lon="6.75551">
        <ele>784</ele>
        <time>2018-06-23T09:22:29.000Z</time>
      </trkpt>
      <trkpt lat="47.85086" lon="6.75551">
        <ele>784</ele>
        <time>2018-06-23T09:22:30.000Z</time>
      </trkpt>
      <trkpt lat="47.85086" lon="6.75551">
        <ele>784</ele>
        <time>2018-06-23T09:22:31.000Z</time>
      </trkpt>
      <trkpt lat="47.85086" lon="6.7555">
        <ele>784</ele>
        <time>2018-06-23T09:22:32.000Z</time>
      </trkpt>
      <trkpt lat="47.85086" lon="6.7555">
        <ele>784</ele>
        <time>2018-06-23T09:22:33.000Z</time>
      </trkpt>
      <trkpt lat="47.85086" lon="6.7555">
        <ele>784</ele>
        <time>2018-06-23T09:22:34.000Z</time>
      </trkpt>
      <trkpt lat="47.85086" lon="6.75549">
        <ele>784</ele>
        <time>2018-06-23T09:22:35.000Z</time>
      </trkpt>
      <trkpt lat="47.85086" lon="6.75549">
        <ele>784</ele>
        <time>2018-06-23T09:22:36.000Z</time>
      </trkpt>
      <trkpt lat="47.85086" lon="6.75548">
        <ele>784</ele>
        <time>2018-06-23T09:22:37.000Z</time>
      </trkpt>
      <trkpt lat="47.85086" lon="6.75547">
        <ele>784</ele>
        <time>2018-06-23T09:22:38.000Z</time>
      </trkpt>
      <trkpt lat="47.85087" lon="6.75546">
        <ele>784</ele>
        <time>2018-06-23T09:22:39.000Z</time>
      </trkpt>
      <trkpt lat="47.85087" lon="6.75545">
        <ele>784</ele>
        <time>2018-06-23T09:22:40.000Z</time>
      </trkpt>
      <trkpt lat="47.85087" lon="6.75544">
        <ele>784</ele>
        <time>2018-06-23T09:22:41.000Z</time>
      </trkpt>
      <trkpt lat="47.85088" lon="6.75542">
        <ele>784</ele>
        <time>2018-06-23T09:22:42.000Z</time>
      </trkpt>
      <trkpt lat="47.85088" lon="6.75541">
        <ele>784</ele>
        <time>2018-06-23T09:22:43.000Z</time>
      </trkpt>
      <trkpt lat="47.85088" lon="6.75539">
        <ele>784</ele>
        <time>2018-06-23T09:22:44.000Z</time>
      </trkpt>
      <trkpt lat="47.85088" lon="6.75537">
        <ele>784</ele>
        <time>2018-06-23T09:22:45.000Z</time>
      </trkpt>
      <trkpt lat="47.85088" lon="6.75536">
        <ele>784</ele>
        <time>2018-06-23T09:22:46.000Z</time>
      </trkpt>
      <trkpt lat="47.85088" lon="6.75535">
        <ele>784</ele>
        <time>2018-06-23T09:22:47.000Z</time>
      </trkpt>
      <trkpt lat="47.85088" lon="6.75533">
        <ele>785</ele>
        <time>2018-06-23T09:22:48.000Z</time>
      </trkpt>
      <trkpt lat="47.85088" lon="6.75531">
        <ele>785</ele>
        <time>2018-06-23T09:22:49.000Z</time>
      </trkpt>
      <trkpt lat="47.85088" lon="6.7553">
        <ele>785</ele>
        <time>2018-06-23T09:22:50.000Z</time>
      </trkpt>
      <trkpt lat="47.85088" lon="6.75529">
        <ele>785</ele>
        <time>2018-06-23T09:22:51.000Z</time>
      </trkpt>
      <trkpt lat="47.85088" lon="6.75528">
        <ele>785</ele>
        <time>2018-06-23T09:22:52.000Z</time>
      </trkpt>
      <trkpt lat="47.85088" lon="6.75527">
        <ele>785</ele>
        <time>2018-06-23T09:22:53.000Z</time>
      </trkpt>
      <trkpt lat="47.85088" lon="6.75526">
        <ele>785</ele>
        <time>2018-06-23T09:22:54.000Z</time>
      </trkpt>
      <trkpt lat="47.85088" lon="6.75525">
        <ele>785</ele>
        <time>2018-06-23T09:22:55.000Z</time>
      </trkpt>
      <trkpt lat="47.85089" lon="6.75523">
        <ele>786</ele>
        <time>2018-06-23T09:22:56.000Z</time>
      </trkpt>
      <trkpt lat="47.85089" lon="6.75522">
        <ele>786</ele>
        <time>2018-06-23T09:22:57.000Z</time>
      </trkpt>
      <trkpt lat="47.8509" lon="6.7552">
        <ele>786</ele>
        <time>2018-06-23T09:22:58.000Z</time>
      </trkpt>
      <trkpt lat="47.8509" lon="6.75518">
        <ele>786</ele>
        <time>2018-06-23T09:22:59.000Z</time>
      </trkpt>
      <trkpt lat="47.8509" lon="6.75516">
        <ele>787</ele>
        <time>2018-06-23T09:23:00.000Z</time>
      </trkpt>
      <trkpt lat="47.8509" lon="6.75514">
        <ele>787</ele>
        <time>2018-06-23T09:23:01.000Z</time>
      </trkpt>
      <trkpt lat="47.8509" lon="6.75513">
        <ele>788</ele>
        <time>2018-06-23T09:23:02.000Z</time>
      </trkpt>
      <trkpt lat="47.8509" lon="6.75511">
        <ele>788</ele>
        <time>2018-06-23T09:23:03.000Z</time>
      </trkpt>
      <trkpt lat="47.85091" lon="6.7551">
        <ele>788</ele>
        <time>2018-06-23T09:23:04.000Z</time>
      </trkpt>
      <trkpt lat="47.85091" lon="6.75508">
        <ele>788</ele>
        <time>2018-06-23T09:23:05.000Z</time>
      </trkpt>
      <trkpt lat="47.85091" lon="6.75506">
        <ele>789</ele>
        <time>2018-06-23T09:23:06.000Z</time>
      </trkpt>
      <trkpt lat="47.85091" lon="6.75504">
        <ele>789</ele>
        <time>2018-06-23T09:23:07.000Z</time>
      </trkpt>
      <trkpt lat="47.85091" lon="6.75502">
        <ele>789</ele>
        <time>2018-06-23T09:23:08.000Z</time>
      </trkpt>
      <trkpt lat="47.85091" lon="6.755">
        <ele>790</ele>
        <time>2018-06-23T09:23:09.000Z</time>
      </trkpt>
      <trkpt lat="47.85091" lon="6.75499">
        <ele>790</ele>
        <time>2018-06-23T09:23:10.000Z</time>
      </trkpt>
      <trkpt lat="47.85091" lon="6.75497">
        <ele>790</ele>
        <time>2018-06-23T09:23:11.000Z</time>
      </trkpt>
      <trkpt lat="47.85091" lon="6.75496">
        <ele>790</ele>
        <time>2018-06-23T09:23:12.000Z</time>
      </trkpt>
      <trkpt lat="47.85091" lon="6.75494">
        <ele>789</ele>
        <time>2018-06-23T09:23:13.000Z</time>
      </trkpt>
      <trkpt lat="47.85091" lon="6.75492">
        <ele>789</ele>
        <time>2018-06-23T09:23:14.000Z</time>
      </trkpt>
      <trkpt lat="47.85091" lon="6.75491">
        <ele>789</ele>
        <time>2018-06-23T09:23:15.000Z</time>
      </trkpt>
      <trkpt lat="47.85091" lon="6.75489">
        <ele>788</ele>
        <time>2018-06-23T09:23:16.000Z</time>
      </trkpt>
      <trkpt lat="47.85091" lon="6.75488">
        <ele>788</ele>
        <time>2018-06-23T09:23:17.000Z</time>
      </trkpt>
      <trkpt lat="47.85091" lon="6.75486">
        <ele>788</ele>
        <time>2018-06-23T09:23:18.000Z</time>
      </trkpt>
      <trkpt lat="47.85091" lon="6.75485">
        <ele>787</ele>
        <time>2018-06-23T09:23:19.000Z</time>
      </trkpt>
      <trkpt lat="47.85091" lon="6.75483">
        <ele>787</ele>
        <time>2018-06-23T09:23:20.000Z</time>
      </trkpt>
      <trkpt lat="47.85091" lon="6.75481">
        <ele>787</ele>
        <time>2018-06-23T09:23:21.000Z</time>
      </trkpt>
      <trkpt lat="47.85091" lon="6.75479">
        <ele>787</ele>
        <time>2018-06-23T09:23:22.000Z</time>
      </trkpt>
      <trkpt lat="47.85091" lon="6.75478">
        <ele>786</ele>
        <time>2018-06-23T09:23:23.000Z</time>
      </trkpt>
      <trkpt lat="47.85091" lon="6.75476">
        <ele>786</ele>
        <time>2018-06-23T09:23:24.000Z</time>
      </trkpt>
      <trkpt lat="47.85092" lon="6.75474">
        <ele>786</ele>
        <time>2018-06-23T09:23:25.000Z</time>
      </trkpt>
      <trkpt lat="47.85092" lon="6.75472">
        <ele>786</ele>
        <time>2018-06-23T09:23:26.000Z</time>
      </trkpt>
      <trkpt lat="47.85091" lon="6.7547">
        <ele>786</ele>
        <time>2018-06-23T09:23:27.000Z</time>
      </trkpt>
      <trkpt lat="47.85091" lon="6.75469">
        <ele>786</ele>
        <time>2018-06-23T09:23:28.000Z</time>
      </trkpt>
      <trkpt lat="47.85092" lon="6.75467">
        <ele>785</ele>
        <time>2018-06-23T09:23:29.000Z</time>
      </trkpt>
      <trkpt lat="47.85092" lon="6.75465">
        <ele>785</ele>
        <time>2018-06-23T09:23:30.000Z</time>
      </trkpt>
      <trkpt lat="47.85092" lon="6.75464">
        <ele>785</ele>
        <time>2018-06-23T09:23:31.000Z</time>
      </trkpt>
      <trkpt lat="47.85092" lon="6.75462">
        <ele>785</ele>
        <time>2018-06-23T09:23:32.000Z</time>
      </trkpt>
      <trkpt lat="47.85092" lon="6.75461">
        <ele>785</ele>
        <time>2018-06-23T09:23:33.000Z</time>
      </trkpt>
      <trkpt lat="47.85092" lon="6.75459">
        <ele>785</ele>
        <time>2018-06-23T09:23:34.000Z</time>
      </trkpt>
      <trkpt lat="47.85091" lon="6.75457">
        <ele>785</ele>
        <time>2018-06-23T09:23:35.000Z</time>
      </trkpt>
      <trkpt lat="47.85091" lon="6.75455">
        <ele>785</ele>
        <time>2018-06-23T09:23:36.000Z</time>
      </trkpt>
      <trkpt lat="47.85091" lon="6.75453">
        <ele>785</ele>
        <time>2018-06-23T09:23:37.000Z</time>
      </trkpt>
      <trkpt lat="47.85091" lon="6.75452">
        <ele>785</ele>
        <time>2018-06-23T09:23:38.000Z</time>
      </trkpt>
      <trkpt lat="47.85091" lon="6.7545">
        <ele>785</ele>
        <time>2018-06-23T09:23:39.000Z</time>
      </trkpt>
      <trkpt lat="47.8509" lon="6.75448">
        <ele>786</ele>
        <time>2018-06-23T09:23:40.000Z</time>
      </trkpt>
      <trkpt lat="47.8509" lon="6.75446">
        <ele>786</ele>
        <time>2018-06-23T09:23:41.000Z</time>
      </trkpt>
      <trkpt lat="47.85089" lon="6.75445">
        <ele>786</ele>
        <time>2018-06-23T09:23:42.000Z</time>
      </trkpt>
      <trkpt lat="47.85089" lon="6.75443">
        <ele>786</ele>
        <time>2018-06-23T09:23:43.000Z</time>
      </trkpt>
      <trkpt lat="47.85088" lon="6.75442">
        <ele>786</ele>
        <time>2018-06-23T09:23:44.000Z</time>
      </trkpt>
      <trkpt lat="47.85088" lon="6.7544">
        <ele>786</ele>
        <time>2018-06-23T09:23:45.000Z</time>
      </trkpt>
      <trkpt lat="47.85088" lon="6.75439">
        <ele>786</ele>
        <time>2018-06-23T09:23:46.000Z</time>
      </trkpt>
      <trkpt lat="47.85088" lon="6.75437">
        <ele>787</ele>
        <time>2018-06-23T09:23:47.000Z</time>
      </trkpt>
      <trkpt lat="47.85087" lon="6.75436">
        <ele>787</ele>
        <time>2018-06-23T09:23:48.000Z</time>
      </trkpt>
      <trkpt lat="47.85087" lon="6.75434">
        <ele>787</ele>
        <time>2018-06-23T09:23:49.000Z</time>
      </trkpt>
      <trkpt lat="47.85087" lon="6.75433">
        <ele>787</ele>
        <time>2018-06-23T09:23:50.000Z</time>
      </trkpt>
      <trkpt lat="47.85086" lon="6.75431">
        <ele>788</ele>
        <time>2018-06-23T09:23:51.000Z</time>
      </trkpt>
      <trkpt lat="47.85086" lon="6.7543">
        <ele>788</ele>
        <time>2018-06-23T09:23:52.000Z</time>
      </trkpt>
      <trkpt lat="47.85086" lon="6.75429">
        <ele>788</ele>
        <time>2018-06-23T09:23:53.000Z</time>
      </trkpt>
      <trkpt lat="47.85086" lon="6.75428">
        <ele>788</ele>
        <time>2018-06-23T09:23:54.000Z</time>
      </trkpt>
      <trkpt lat="47.85086" lon="6.75427">
        <ele>789</ele>
        <time>2018-06-23T09:23:55.000Z</time>
      </trkpt>
      <trkpt lat="47.85086" lon="6.75425">
        <ele>789</ele>
        <time>2018-06-23T09:23:56.000Z</time>
      </trkpt>
      <trkpt lat="47.85086" lon="6.75423">
        <ele>790</ele>
        <time>2018-06-23T09:23:57.000Z</time>
      </trkpt>
      <trkpt lat="47.85086" lon="6.75422">
        <ele>790</ele>
        <time>2018-06-23T09:23:58.000Z</time>
      </trkpt>
      <trkpt lat="47.85086" lon="6.75421">
        <ele>790</ele>
        <time>2018-06-23T09:23:59.000Z</time>
      </trkpt>
      <trkpt lat="47.85086" lon="6.75419">
        <ele>791</ele>
        <time>2018-06-23T09:24:00.000Z</time>
      </trkpt>
      <trkpt lat="47.85086" lon="6.75418">
        <ele>791</ele>
        <time>2018-06-23T09:24:01.000Z</time>
      </trkpt>
      <trkpt lat="47.85086" lon="6.75416">
        <ele>791</ele>
        <time>2018-06-23T09:24:02.000Z</time>
      </trkpt>
      <trkpt lat="47.85085" lon="6.75415">
        <ele>791</ele>
        <time>2018-06-23T09:24:03.000Z</time>
      </trkpt>
      <trkpt lat="47.85085" lon="6.75413">
        <ele>790</ele>
        <time>2018-06-23T09:24:04.000Z</time>
      </trkpt>
      <trkpt lat="47.85085" lon="6.75412">
        <ele>790</ele>
        <time>2018-06-23T09:24:05.000Z</time>
      </trkpt>
      <trkpt lat="47.85085" lon="6.7541">
        <ele>789</ele>
        <time>2018-06-23T09:24:06.000Z</time>
      </trkpt>
      <trkpt lat="47.85085" lon="6.75409">
        <ele>789</ele>
        <time>2018-06-23T09:24:07.000Z</time>
      </trkpt>
      <trkpt lat="47.85085" lon="6.75407">
        <ele>789</ele>
        <time>2018-06-23T09:24:08.000Z</time>
      </trkpt>
      <trkpt lat="47.85084" lon="6.75406">
        <ele>788</ele>
        <time>2018-06-23T09:24:09.000Z</time>
      </trkpt>
      <trkpt lat="47.85084" lon="6.75404">
        <ele>788</ele>
        <time>2018-06-23T09:24:10.000Z</time>
      </trkpt>
      <trkpt lat="47.85084" lon="6.75402">
        <ele>788</ele>
        <time>2018-06-23T09:24:11.000Z</time>
      </trkpt>
      <trkpt lat="47.85083" lon="6.75401">
        <ele>795</ele>
        <time>2018-06-23T09:24:12.000Z</time>
      </trkpt>
      <trkpt lat="47.85083" lon="6.75399">
        <ele>795</ele>
        <time>2018-06-23T09:24:13.000Z</time>
      </trkpt>
      <trkpt lat="47.85083" lon="6.75398">
        <ele>795</ele>
        <time>2018-06-23T09:24:14.000Z</time>
      </trkpt>
      <trkpt lat="47.85083" lon="6.75396">
        <ele>795</ele>
        <time>2018-06-23T09:24:15.000Z</time>
      </trkpt>
      <trkpt lat="47.85083" lon="6.75395">
        <ele>795</ele>
        <time>2018-06-23T09:24:16.000Z</time>
      </trkpt>
      <trkpt lat="47.85083" lon="6.75394">
        <ele>795</ele>
        <time>2018-06-23T09:24:17.000Z</time>
      </trkpt>
      <trkpt lat="47.85082" lon="6.75392">
        <ele>796</ele>
        <time>2018-06-23T09:24:18.000Z</time>
      </trkpt>
      <trkpt lat="47.85082" lon="6.7539">
        <ele>796</ele>
        <time>2018-06-23T09:24:19.000Z</time>
      </trkpt>
      <trkpt lat="47.85082" lon="6.75389">
        <ele>796</ele>
        <time>2018-06-23T09:24:20.000Z</time>
      </trkpt>
      <trkpt lat="47.85082" lon="6.75387">
        <ele>796</ele>
        <time>2018-06-23T09:24:21.000Z</time>
      </trkpt>
      <trkpt lat="47.85081" lon="6.75386">
        <ele>796</ele>
        <time>2018-06-23T09:24:22.000Z</time>
      </trkpt>
      <trkpt lat="47.85081" lon="6.75385">
        <ele>796</ele>
        <time>2018-06-23T09:24:23.000Z</time>
      </trkpt>
      <trkpt lat="47.8508" lon="6.75383">
        <ele>796</ele>
        <time>2018-06-23T09:24:24.000Z</time>
      </trkpt>
      <trkpt lat="47.85079" lon="6.75382">
        <ele>796</ele>
        <time>2018-06-23T09:24:25.000Z</time>
      </trkpt>
      <trkpt lat="47.85079" lon="6.75381">
        <ele>796</ele>
        <time>2018-06-23T09:24:26.000Z</time>
      </trkpt>
      <trkpt lat="47.85078" lon="6.7538">
        <ele>796</ele>
        <time>2018-06-23T09:24:27.000Z</time>
      </trkpt>
      <trkpt lat="47.85078" lon="6.75378">
        <ele>796</ele>
        <time>2018-06-23T09:24:28.000Z</time>
      </trkpt>
      <trkpt lat="47.85077" lon="6.75377">
        <ele>796</ele>
        <time>2018-06-23T09:24:29.000Z</time>
      </trkpt>
      <trkpt lat="47.85077" lon="6.75375">
        <ele>796</ele>
        <time>2018-06-23T09:24:30.000Z</time>
      </trkpt>
      <trkpt lat="47.85077" lon="6.75374">
        <ele>796</ele>
        <time>2018-06-23T09:24:31.000Z</time>
      </trkpt>
      <trkpt lat="47.85077" lon="6.75372">
        <ele>796</ele>
        <time>2018-06-23T09:24:32.000Z</time>
      </trkpt>
      <trkpt lat="47.85077" lon="6.75371">
        <ele>796</ele>
        <time>2018-06-23T09:24:33.000Z</time>
      </trkpt>
      <trkpt lat="47.85077" lon="6.75369">
        <ele>796</ele>
        <time>2018-06-23T09:24:34.000Z</time>
      </trkpt>
      <trkpt lat="47.85077" lon="6.75368">
        <ele>796</ele>
        <time>2018-06-23T09:24:35.000Z</time>
      </trkpt>
      <trkpt lat="47.85076" lon="6.75366">
        <ele>796</ele>
        <time>2018-06-23T09:24:36.000Z</time>
      </trkpt>
      <trkpt lat="47.85076" lon="6.75364">
        <ele>796</ele>
        <time>2018-06-23T09:24:37.000Z</time>
      </trkpt>
      <trkpt lat="47.85076" lon="6.75363">
        <ele>796</ele>
        <time>2018-06-23T09:24:38.000Z</time>
      </trkpt>
      <trkpt lat="47.85076" lon="6.75361">
        <ele>796</ele>
        <time>2018-06-23T09:24:39.000Z</time>
      </trkpt>
      <trkpt lat="47.85075" lon="6.7536">
        <ele>796</ele>
        <time>2018-06-23T09:24:40.000Z</time>
      </trkpt>
      <trkpt lat="47.85075" lon="6.75358">
        <ele>796</ele>
        <time>2018-06-23T09:24:41.000Z</time>
      </trkpt>
      <trkpt lat="47.85074" lon="6.75357">
        <ele>796</ele>
        <time>2018-06-23T09:24:42.000Z</time>
      </trkpt>
      <trkpt lat="47.85074" lon="6.75356">
        <ele>796</ele>
        <time>2018-06-23T09:24:43.000Z</time>
      </trkpt>
      <trkpt lat="47.85073" lon="6.75354">
        <ele>796</ele>
        <time>2018-06-23T09:24:44.000Z</time>
      </trkpt>
      <trkpt lat="47.85073" lon="6.75353">
        <ele>796</ele>
        <time>2018-06-23T09:24:45.000Z</time>
      </trkpt>
      <trkpt lat="47.85072" lon="6.75351">
        <ele>795</ele>
        <time>2018-06-23T09:24:46.000Z</time>
      </trkpt>
      <trkpt lat="47.85071" lon="6.7535">
        <ele>795</ele>
        <time>2018-06-23T09:24:47.000Z</time>
      </trkpt>
      <trkpt lat="47.85071" lon="6.75348">
        <ele>795</ele>
        <time>2018-06-23T09:24:48.000Z</time>
      </trkpt>
      <trkpt lat="47.8507" lon="6.75347">
        <ele>795</ele>
        <time>2018-06-23T09:24:49.000Z</time>
      </trkpt>
      <trkpt lat="47.8507" lon="6.75346">
        <ele>795</ele>
        <time>2018-06-23T09:24:50.000Z</time>
      </trkpt>
      <trkpt lat="47.85069" lon="6.75344">
        <ele>795</ele>
        <time>2018-06-23T09:24:51.000Z</time>
      </trkpt>
      <trkpt lat="47.85069" lon="6.75343">
        <ele>795</ele>
        <time>2018-06-23T09:24:52.000Z</time>
      </trkpt>
      <trkpt lat="47.85068" lon="6.75341">
        <ele>795</ele>
        <time>2018-06-23T09:24:53.000Z</time>
      </trkpt>
      <trkpt lat="47.85068" lon="6.7534">
        <ele>795</ele>
        <time>2018-06-23T09:24:54.000Z</time>
      </trkpt>
      <trkpt lat="47.85067" lon="6.75338">
        <ele>795</ele>
        <time>2018-06-23T09:24:55.000Z</time>
      </trkpt>
      <trkpt lat="47.85067" lon="6.75336">
        <ele>795</ele>
        <time>2018-06-23T09:24:56.000Z</time>
      </trkpt>
      <trkpt lat="47.85066" lon="6.75335">
        <ele>795</ele>
        <time>2018-06-23T09:24:57.000Z</time>
      </trkpt>
      <trkpt lat="47.85065" lon="6.75334">
        <ele>795</ele>
        <time>2018-06-23T09:24:58.000Z</time>
      </trkpt>
      <trkpt lat="47.85065" lon="6.75332">
        <ele>794</ele>
        <time>2018-06-23T09:24:59.000Z</time>
      </trkpt>
      <trkpt lat="47.85064" lon="6.75331">
        <ele>794</ele>
        <time>2018-06-23T09:25:00.000Z</time>
      </trkpt>
      <trkpt lat="47.85063" lon="6.75329">
        <ele>794</ele>
        <time>2018-06-23T09:25:01.000Z</time>
      </trkpt>
      <trkpt lat="47.85063" lon="6.75328">
        <ele>794</ele>
        <time>2018-06-23T09:25:02.000Z</time>
      </trkpt>
      <trkpt lat="47.85062" lon="6.75326">
        <ele>794</ele>
        <time>2018-06-23T09:25:03.000Z</time>
      </trkpt>
      <trkpt lat="47.85062" lon="6.75325">
        <ele>794</ele>
        <time>2018-06-23T09:25:04.000Z</time>
      </trkpt>
      <trkpt lat="47.85061" lon="6.75323">
        <ele>794</ele>
        <time>2018-06-23T09:25:05.000Z</time>
      </trkpt>
      <trkpt lat="47.85061" lon="6.75321">
        <ele>794</ele>
        <time>2018-06-23T09:25:06.000Z</time>
      </trkpt>
      <trkpt lat="47.85061" lon="6.7532">
        <ele>794</ele>
        <time>2018-06-23T09:25:07.000Z</time>
      </trkpt>
      <trkpt lat="47.8506" lon="6.75318">
        <ele>794</ele>
        <time>2018-06-23T09:25:08.000Z</time>
      </trkpt>
      <trkpt lat="47.85059" lon="6.75316">
        <ele>794</ele>
        <time>2018-06-23T09:25:09.000Z</time>
      </trkpt>
      <trkpt lat="47.85059" lon="6.75314">
        <ele>794</ele>
        <time>2018-06-23T09:25:10.000Z</time>
      </trkpt>
      <trkpt lat="47.85058" lon="6.75313">
        <ele>794</ele>
        <time>2018-06-23T09:25:11.000Z</time>
      </trkpt>
      <trkpt lat="47.85058" lon="6.75311">
        <ele>794</ele>
        <time>2018-06-23T09:25:12.000Z</time>
      </trkpt>
      <trkpt lat="47.85057" lon="6.7531">
        <ele>794</ele>
        <time>2018-06-23T09:25:13.000Z</time>
      </trkpt>
      <trkpt lat="47.85057" lon="6.75309">
        <ele>794</ele>
        <time>2018-06-23T09:25:14.000Z</time>
      </trkpt>
      <trkpt lat="47.85057" lon="6.75307">
        <ele>794</ele>
        <time>2018-06-23T09:25:15.000Z</time>
      </trkpt>
      <trkpt lat="47.85057" lon="6.75306">
        <ele>794</ele>
        <time>2018-06-23T09:25:16.000Z</time>
      </trkpt>
      <trkpt lat="47.85057" lon="6.75304">
        <ele>794</ele>
        <time>2018-06-23T09:25:17.000Z</time>
      </trkpt>
      <trkpt lat="47.85057" lon="6.75302">
        <ele>794</ele>
        <time>2018-06-23T09:25:18.000Z</time>
      </trkpt>
      <trkpt lat="47.85057" lon="6.753">
        <ele>794</ele>
        <time>2018-06-23T09:25:19.000Z</time>
      </trkpt>
      <trkpt lat="47.85056" lon="6.75298">
        <ele>794</ele>
        <time>2018-06-23T09:25:20.000Z</time>
      </trkpt>
      <trkpt lat="47.85056" lon="6.75297">
        <ele>794</ele>
        <time>2018-06-23T09:25:21.000Z</time>
      </trkpt>
      <trkpt lat="47.85057" lon="6.75295">
        <ele>794</ele>
        <time>2018-06-23T09:25:22.000Z</time>
      </trkpt>
      <trkpt lat="47.85057" lon="6.75293">
        <ele>794</ele>
        <time>2018-06-23T09:25:23.000Z</time>
      </trkpt>
      <trkpt lat="47.85056" lon="6.75291">
        <ele>794</ele>
        <time>2018-06-23T09:25:24.000Z</time>
      </trkpt>
      <trkpt lat="47.85056" lon="6.75289">
        <ele>793</ele>
        <time>2018-06-23T09:25:25.000Z</time>
      </trkpt>
      <trkpt lat="47.85056" lon="6.75287">
        <ele>793</ele>
        <time>2018-06-23T09:25:26.000Z</time>
      </trkpt>
      <trkpt lat="47.85056" lon="6.75286">
        <ele>793</ele>
        <time>2018-06-23T09:25:27.000Z</time>
      </trkpt>
      <trkpt lat="47.85056" lon="6.75284">
        <ele>793</ele>
        <time>2018-06-23T09:25:28.000Z</time>
      </trkpt>
      <trkpt lat="47.85056" lon="6.75282">
        <ele>793</ele>
        <time>2018-06-23T09:25:29.000Z</time>
      </trkpt>
      <trkpt lat="47.85056" lon="6.7528">
        <ele>793</ele>
        <time>2018-06-23T09:25:30.000Z</time>
      </trkpt>
      <trkpt lat="47.85055" lon="6.75278">
        <ele>793</ele>
        <time>2018-06-23T09:25:31.000Z</time>
      </trkpt>
      <trkpt lat="47.85055" lon="6.75277">
        <ele>793</ele>
        <time>2018-06-23T09:25:32.000Z</time>
      </trkpt>
      <trkpt lat="47.85055" lon="6.75275">
        <ele>793</ele>
        <time>2018-06-23T09:25:33.000Z</time>
      </trkpt>
      <trkpt lat="47.85055" lon="6.75273">
        <ele>793</ele>
        <time>2018-06-23T09:25:34.000Z</time>
      </trkpt>
      <trkpt lat="47.85055" lon="6.75271">
        <ele>793</ele>
        <time>2018-06-23T09:25:35.000Z</time>
      </trkpt>
      <trkpt lat="47.85055" lon="6.7527">
        <ele>793</ele>
        <time>2018-06-23T09:25:36.000Z</time>
      </trkpt>
      <trkpt lat="47.85055" lon="6.75268">
        <ele>793</ele>
        <time>2018-06-23T09:25:37.000Z</time>
      </trkpt>
      <trkpt lat="47.85055" lon="6.75266">
        <ele>792</ele>
        <time>2018-06-23T09:25:38.000Z</time>
      </trkpt>
      <trkpt lat="47.85055" lon="6.75265">
        <ele>792</ele>
        <time>2018-06-23T09:25:39.000Z</time>
      </trkpt>
      <trkpt lat="47.85055" lon="6.75264">
        <ele>792</ele>
        <time>2018-06-23T09:25:40.000Z</time>
      </trkpt>
      <trkpt lat="47.85055" lon="6.75263">
        <ele>792</ele>
        <time>2018-06-23T09:25:41.000Z</time>
      </trkpt>
      <trkpt lat="47.85055" lon="6.75261">
        <ele>792</ele>
        <time>2018-06-23T09:25:42.000Z</time>
      </trkpt>
      <trkpt lat="47.85055" lon="6.75259">
        <ele>792</ele>
        <time>2018-06-23T09:25:43.000Z</time>
      </trkpt>
      <trkpt lat="47.85055" lon="6.75257">
        <ele>792</ele>
        <time>2018-06-23T09:25:44.000Z</time>
      </trkpt>
      <trkpt lat="47.85055" lon="6.75256">
        <ele>792</ele>
        <time>2018-06-23T09:25:45.000Z</time>
      </trkpt>
      <trkpt lat="47.85055" lon="6.75254">
        <ele>792</ele>
        <time>2018-06-23T09:25:46.000Z</time>
      </trkpt>
      <trkpt lat="47.85055" lon="6.75252">
        <ele>792</ele>
        <time>2018-06-23T09:25:47.000Z</time>
      </trkpt>
      <trkpt lat="47.85055" lon="6.7525">
        <ele>787</ele>
        <time>2018-06-23T09:25:48.000Z</time>
      </trkpt>
      <trkpt lat="47.85054" lon="6.75248">
        <ele>787</ele>
        <time>2018-06-23T09:25:49.000Z</time>
      </trkpt>
      <trkpt lat="47.85054" lon="6.75246">
        <ele>787</ele>
        <time>2018-06-23T09:25:50.000Z</time>
      </trkpt>
      <trkpt lat="47.85053" lon="6.75244">
        <ele>787</ele>
        <time>2018-06-23T09:25:51.000Z</time>
      </trkpt>
      <trkpt lat="47.85053" lon="6.75242">
        <ele>787</ele>
        <time>2018-06-23T09:25:52.000Z</time>
      </trkpt>
      <trkpt lat="47.85053" lon="6.7524">
        <ele>787</ele>
        <time>2018-06-23T09:25:53.000Z</time>
      </trkpt>
      <trkpt lat="47.85053" lon="6.75239">
        <ele>787</ele>
        <time>2018-06-23T09:25:54.000Z</time>
      </trkpt>
      <trkpt lat="47.85053" lon="6.75239">
        <ele>787</ele>
        <time>2018-06-23T09:25:55.000Z</time>
      </trkpt>
      <trkpt lat="47.85053" lon="6.75237">
        <ele>787</ele>
        <time>2018-06-23T09:25:56.000Z</time>
      </trkpt>
      <trkpt lat="47.85052" lon="6.75235">
        <ele>787</ele>
        <time>2018-06-23T09:25:57.000Z</time>
      </trkpt>
      <trkpt lat="47.85052" lon="6.75234">
        <ele>787</ele>
        <time>2018-06-23T09:25:58.000Z</time>
      </trkpt>
      <trkpt lat="47.85051" lon="6.75232">
        <ele>787</ele>
        <time>2018-06-23T09:25:59.000Z</time>
      </trkpt>
      <trkpt lat="47.85051" lon="6.7523">
        <ele>787</ele>
        <time>2018-06-23T09:26:00.000Z</time>
      </trkpt>
      <trkpt lat="47.8505" lon="6.75228">
        <ele>787</ele>
        <time>2018-06-23T09:26:01.000Z</time>
      </trkpt>
      <trkpt lat="47.8505" lon="6.75226">
        <ele>787</ele>
        <time>2018-06-23T09:26:02.000Z</time>
      </trkpt>
      <trkpt lat="47.8505" lon="6.75224">
        <ele>787</ele>
        <time>2018-06-23T09:26:03.000Z</time>
      </trkpt>
      <trkpt lat="47.85049" lon="6.75222">
        <ele>787</ele>
        <time>2018-06-23T09:26:04.000Z</time>
      </trkpt>
      <trkpt lat="47.85049" lon="6.7522">
        <ele>787</ele>
        <time>2018-06-23T09:26:05.000Z</time>
      </trkpt>
      <trkpt lat="47.85049" lon="6.75218">
        <ele>787</ele>
        <time>2018-06-23T09:26:06.000Z</time>
      </trkpt>
      <trkpt lat="47.85048" lon="6.75217">
        <ele>787</ele>
        <time>2018-06-23T09:26:07.000Z</time>
      </trkpt>
      <trkpt lat="47.85048" lon="6.75215">
        <ele>787</ele>
        <time>2018-06-23T09:26:08.000Z</time>
      </trkpt>
      <trkpt lat="47.85047" lon="6.75213">
        <ele>786</ele>
        <time>2018-06-23T09:26:09.000Z</time>
      </trkpt>
      <trkpt lat="47.85047" lon="6.75211">
        <ele>786</ele>
        <time>2018-06-23T09:26:10.000Z</time>
      </trkpt>
      <trkpt lat="47.85047" lon="6.75209">
        <ele>786</ele>
        <time>2018-06-23T09:26:11.000Z</time>
      </trkpt>
      <trkpt lat="47.85047" lon="6.75207">
        <ele>786</ele>
        <time>2018-06-23T09:26:12.000Z</time>
      </trkpt>
      <trkpt lat="47.85048" lon="6.75206">
        <ele>786</ele>
        <time>2018-06-23T09:26:13.000Z</time>
      </trkpt>
      <trkpt lat="47.85048" lon="6.75205">
        <ele>786</ele>
        <time>2018-06-23T09:26:14.000Z</time>
      </trkpt>
      <trkpt lat="47.85049" lon="6.75203">
        <ele>786</ele>
        <time>2018-06-23T09:26:15.000Z</time>
      </trkpt>
      <trkpt lat="47.85049" lon="6.75202">
        <ele>786</ele>
        <time>2018-06-23T09:26:16.000Z</time>
      </trkpt>
      <trkpt lat="47.8505" lon="6.752">
        <ele>786</ele>
        <time>2018-06-23T09:26:17.000Z</time>
      </trkpt>
      <trkpt lat="47.8505" lon="6.75199">
        <ele>785</ele>
        <time>2018-06-23T09:26:18.000Z</time>
      </trkpt>
      <trkpt lat="47.8505" lon="6.75197">
        <ele>785</ele>
        <time>2018-06-23T09:26:19.000Z</time>
      </trkpt>
      <trkpt lat="47.8505" lon="6.75195">
        <ele>785</ele>
        <time>2018-06-23T09:26:20.000Z</time>
      </trkpt>
      <trkpt lat="47.8505" lon="6.75193">
        <ele>785</ele>
        <time>2018-06-23T09:26:21.000Z</time>
      </trkpt>
      <trkpt lat="47.8505" lon="6.75192">
        <ele>785</ele>
        <time>2018-06-23T09:26:22.000Z</time>
      </trkpt>
      <trkpt lat="47.85051" lon="6.75191">
        <ele>785</ele>
        <time>2018-06-23T09:26:23.000Z</time>
      </trkpt>
      <trkpt lat="47.85051" lon="6.7519">
        <ele>785</ele>
        <time>2018-06-23T09:26:24.000Z</time>
      </trkpt>
      <trkpt lat="47.85051" lon="6.75188">
        <ele>785</ele>
        <time>2018-06-23T09:26:25.000Z</time>
      </trkpt>
      <trkpt lat="47.85051" lon="6.75186">
        <ele>785</ele>
        <time>2018-06-23T09:26:26.000Z</time>
      </trkpt>
      <trkpt lat="47.85051" lon="6.75184">
        <ele>785</ele>
        <time>2018-06-23T09:26:27.000Z</time>
      </trkpt>
      <trkpt lat="47.85051" lon="6.75182">
        <ele>784</ele>
        <time>2018-06-23T09:26:28.000Z</time>
      </trkpt>
      <trkpt lat="47.85051" lon="6.75181">
        <ele>784</ele>
        <time>2018-06-23T09:26:29.000Z</time>
      </trkpt>
      <trkpt lat="47.85051" lon="6.75179">
        <ele>784</ele>
        <time>2018-06-23T09:26:30.000Z</time>
      </trkpt>
      <trkpt lat="47.85051" lon="6.75177">
        <ele>784</ele>
        <time>2018-06-23T09:26:31.000Z</time>
      </trkpt>
      <trkpt lat="47.85051" lon="6.75175">
        <ele>784</ele>
        <time>2018-06-23T09:26:32.000Z</time>
      </trkpt>
      <trkpt lat="47.85051" lon="6.75173">
        <ele>784</ele>
        <time>2018-06-23T09:26:33.000Z</time>
      </trkpt>
      <trkpt lat="47.85051" lon="6.75171">
        <ele>784</ele>
        <time>2018-06-23T09:26:34.000Z</time>
      </trkpt>
      <trkpt lat="47.85051" lon="6.75169">
        <ele>784</ele>
        <time>2018-06-23T09:26:35.000Z</time>
      </trkpt>
      <trkpt lat="47.85051" lon="6.75168">
        <ele>784</ele>
        <time>2018-06-23T09:26:36.000Z</time>
      </trkpt>
      <trkpt lat="47.85051" lon="6.75166">
        <ele>778</ele>
        <time>2018-06-23T09:26:37.000Z</time>
      </trkpt>
      <trkpt lat="47.85051" lon="6.75164">
        <ele>778</ele>
        <time>2018-06-23T09:26:38.000Z</time>
      </trkpt>
      <trkpt lat="47.85051" lon="6.75162">
        <ele>778</ele>
        <time>2018-06-23T09:26:39.000Z</time>
      </trkpt>
      <trkpt lat="47.85051" lon="6.75161">
        <ele>778</ele>
        <time>2018-06-23T09:26:40.000Z</time>
      </trkpt>
      <trkpt lat="47.85052" lon="6.75159">
        <ele>778</ele>
        <time>2018-06-23T09:26:41.000Z</time>
      </trkpt>
      <trkpt lat="47.85052" lon="6.75158">
        <ele>777</ele>
        <time>2018-06-23T09:26:42.000Z</time>
      </trkpt>
      <trkpt lat="47.85052" lon="6.75157">
        <ele>777</ele>
        <time>2018-06-23T09:26:43.000Z</time>
      </trkpt>
      <trkpt lat="47.85052" lon="6.75156">
        <ele>777</ele>
        <time>2018-06-23T09:26:44.000Z</time>
      </trkpt>
      <trkpt lat="47.85052" lon="6.75155">
        <ele>777</ele>
        <time>2018-06-23T09:26:45.000Z</time>
      </trkpt>
      <trkpt lat="47.85053" lon="6.75155">
        <ele>777</ele>
        <time>2018-06-23T09:26:46.000Z</time>
      </trkpt>
      <trkpt lat="47.85053" lon="6.75154">
        <ele>777</ele>
        <time>2018-06-23T09:26:47.000Z</time>
      </trkpt>
      <trkpt lat="47.85054" lon="6.75153">
        <ele>777</ele>
        <time>2018-06-23T09:26:48.000Z</time>
      </trkpt>
      <trkpt lat="47.85055" lon="6.75152">
        <ele>777</ele>
        <time>2018-06-23T09:26:49.000Z</time>
      </trkpt>
      <trkpt lat="47.85056" lon="6.75151">
        <ele>777</ele>
        <time>2018-06-23T09:26:50.000Z</time>
      </trkpt>
      <trkpt lat="47.85057" lon="6.7515">
        <ele>777</ele>
        <time>2018-06-23T09:26:51.000Z</time>
      </trkpt>
      <trkpt lat="47.85058" lon="6.75149">
        <ele>777</ele>
        <time>2018-06-23T09:26:52.000Z</time>
      </trkpt>
      <trkpt lat="47.85059" lon="6.75148">
        <ele>777</ele>
        <time>2018-06-23T09:26:53.000Z</time>
      </trkpt>
      <trkpt lat="47.85059" lon="6.75146">
        <ele>777</ele>
        <time>2018-06-23T09:26:54.000Z</time>
      </trkpt>
      <trkpt lat="47.8506" lon="6.75146">
        <ele>777</ele>
        <time>2018-06-23T09:26:55.000Z</time>
      </trkpt>
      <trkpt lat="47.85061" lon="6.75144">
        <ele>777</ele>
        <time>2018-06-23T09:26:56.000Z</time>
      </trkpt>
      <trkpt lat="47.85062" lon="6.75143">
        <ele>777</ele>
        <time>2018-06-23T09:26:57.000Z</time>
      </trkpt>
      <trkpt lat="47.85063" lon="6.75143">
        <ele>777</ele>
        <time>2018-06-23T09:26:58.000Z</time>
      </trkpt>
      <trkpt lat="47.85063" lon="6.75143">
        <ele>777</ele>
        <time>2018-06-23T09:26:59.000Z</time>
      </trkpt>
      <trkpt lat="47.85063" lon="6.75143">
        <ele>777</ele>
        <time>2018-06-23T09:27:00.000Z</time>
      </trkpt>
      <trkpt lat="47.85064" lon="6.75143">
        <ele>777</ele>
        <time>2018-06-23T09:27:01.000Z</time>
      </trkpt>
      <trkpt lat="47.85065" lon="6.75144">
        <ele>777</ele>
        <time>2018-06-23T09:27:02.000Z</time>
      </trkpt>
      <trkpt lat="47.85066" lon="6.75144">
        <ele>777</ele>
        <time>2018-06-23T09:27:03.000Z</time>
      </trkpt>
      <trkpt lat="47.85066" lon="6.75145">
        <ele>777</ele>
        <time>2018-06-23T09:27:04.000Z</time>
      </trkpt>
      <trkpt lat="47.85067" lon="6.75145">
        <ele>777</ele>
        <time>2018-06-23T09:27:05.000Z</time>
      </trkpt>
      <trkpt lat="47.85067" lon="6.75145">
        <ele>777</ele>
        <time>2018-06-23T09:27:06.000Z</time>
      </trkpt>
      <trkpt lat="47.85067" lon="6.75145">
        <ele>777</ele>
        <time>2018-06-23T09:27:07.000Z</time>
      </trkpt>
      <trkpt lat="47.85067" lon="6.75145">
        <ele>777</ele>
        <time>2018-06-23T09:27:08.000Z</time>
      </trkpt>
      <trkpt lat="47.85067" lon="6.75145">
        <ele>777</ele>
        <time>2018-06-23T09:27:09.000Z</time>
      </trkpt>
      <trkpt lat="47.85067" lon="6.75145">
        <ele>777</ele>
        <time>2018-06-23T09:27:10.000Z</time>
      </trkpt>
      <trkpt lat="47.85067" lon="6.75145">
        <ele>777</ele>
        <time>2018-06-23T09:27:11.000Z</time>
      </trkpt>
      <trkpt lat="47.85067" lon="6.75144">
        <ele>777</ele>
        <time>2018-06-23T09:27:12.000Z</time>
      </trkpt>
      <trkpt lat="47.85066" lon="6.75144">
        <ele>777</ele>
        <time>2018-06-23T09:27:13.000Z</time>
      </trkpt>
      <trkpt lat="47.85066" lon="6.75143">
        <ele>777</ele>
        <time>2018-06-23T09:27:14.000Z</time>
      </trkpt>
      <trkpt lat="47.85066" lon="6.75142">
        <ele>777</ele>
        <time>2018-06-23T09:27:15.000Z</time>
      </trkpt>
      <trkpt lat="47.85066" lon="6.75142">
        <ele>777</ele>
        <time>2018-06-23T09:27:16.000Z</time>
      </trkpt>
      <trkpt lat="47.85066" lon="6.75143">
        <ele>777</ele>
        <time>2018-06-23T09:27:17.000Z</time>
      </trkpt>
      <trkpt lat="47.85066" lon="6.75143">
        <ele>777</ele>
        <time>2018-06-23T09:27:18.000Z</time>
      </trkpt>
      <trkpt lat="47.85066" lon="6.75142">
        <ele>777</ele>
        <time>2018-06-23T09:27:19.000Z</time>
      </trkpt>
      <trkpt lat="47.85066" lon="6.75143">
        <ele>777</ele>
        <time>2018-06-23T09:27:20.000Z</time>
      </trkpt>
      <trkpt lat="47.85066" lon="6.75143">
        <ele>777</ele>
        <time>2018-06-23T09:27:21.000Z</time>
      </trkpt>
      <trkpt lat="47.85066" lon="6.75143">
        <ele>777</ele>
        <time>2018-06-23T09:27:22.000Z</time>
      </trkpt>
      <trkpt lat="47.85066" lon="6.75143">
        <ele>777</ele>
        <time>2018-06-23T09:27:23.000Z</time>
      </trkpt>
      <trkpt lat="47.85066" lon="6.75143">
        <ele>777</ele>
        <time>2018-06-23T09:27:24.000Z</time>
      </trkpt>
      <trkpt lat="47.85066" lon="6.75143">
        <ele>777</ele>
        <time>2018-06-23T09:27:25.000Z</time>
      </trkpt>
      <trkpt lat="47.85066" lon="6.75143">
        <ele>777</ele>
        <time>2018-06-23T09:27:26.000Z</time>
      </trkpt>
      <trkpt lat="47.85066" lon="6.75143">
        <ele>777</ele>
        <time>2018-06-23T09:27:27.000Z</time>
      </trkpt>
      <trkpt lat="47.85066" lon="6.75143">
        <ele>777</ele>
        <time>2018-06-23T09:27:28.000Z</time>
      </trkpt>
      <trkpt lat="47.85066" lon="6.75143">
        <ele>777</ele>
        <time>2018-06-23T09:27:29.000Z</time>
      </trkpt>
      <trkpt lat="47.85066" lon="6.75144">
        <ele>777</ele>
        <time>2018-06-23T09:27:30.000Z</time>
      </trkpt>
      <trkpt lat="47.85066" lon="6.75144">
        <ele>777</ele>
        <time>2018-06-23T09:27:31.000Z</time>
      </trkpt>
      <trkpt lat="47.85066" lon="6.75144">
        <ele>777</ele>
        <time>2018-06-23T09:27:32.000Z</time>
      </trkpt>
      <trkpt lat="47.85066" lon="6.75144">
        <ele>777</ele>
        <time>2018-06-23T09:27:33.000Z</time>
      </trkpt>
      <trkpt lat="47.85066" lon="6.75144">
        <ele>777</ele>
        <time>2018-06-23T09:27:34.000Z</time>
      </trkpt>
      <trkpt lat="47.85066" lon="6.75144">
        <ele>777</ele>
        <time>2018-06-23T09:27:35.000Z</time>
      </trkpt>
      <trkpt lat="47.85066" lon="6.75145">
        <ele>777</ele>
        <time>2018-06-23T09:27:36.000Z</time>
      </trkpt>
      <trkpt lat="47.85066" lon="6.75144">
        <ele>777</ele>
        <time>2018-06-23T09:27:37.000Z</time>
      </trkpt>
      <trkpt lat="47.85067" lon="6.75144">
        <ele>777</ele>
        <time>2018-06-23T09:27:38.000Z</time>
      </trkpt>
      <trkpt lat="47.85067" lon="6.75144">
        <ele>777</ele>
        <time>2018-06-23T09:27:39.000Z</time>
      </trkpt>
      <trkpt lat="47.85067" lon="6.75144">
        <ele>777</ele>
        <time>2018-06-23T09:27:40.000Z</time>
      </trkpt>
      <trkpt lat="47.85068" lon="6.75143">
        <ele>777</ele>
        <time>2018-06-23T09:27:41.000Z</time>
      </trkpt>
      <trkpt lat="47.85068" lon="6.75143">
        <ele>777</ele>
        <time>2018-06-23T09:27:42.000Z</time>
      </trkpt>
      <trkpt lat="47.85068" lon="6.75142">
        <ele>777</ele>
        <time>2018-06-23T09:27:43.000Z</time>
      </trkpt>
      <trkpt lat="47.85068" lon="6.75141">
        <ele>777</ele>
        <time>2018-06-23T09:27:44.000Z</time>
      </trkpt>
      <trkpt lat="47.85068" lon="6.7514">
        <ele>777</ele>
        <time>2018-06-23T09:27:45.000Z</time>
      </trkpt>
      <trkpt lat="47.85069" lon="6.75139">
        <ele>777</ele>
        <time>2018-06-23T09:27:46.000Z</time>
      </trkpt>
      <trkpt lat="47.85069" lon="6.75139">
        <ele>777</ele>
        <time>2018-06-23T09:27:47.000Z</time>
      </trkpt>
      <trkpt lat="47.85069" lon="6.75138">
        <ele>777</ele>
        <time>2018-06-23T09:27:48.000Z</time>
      </trkpt>
      <trkpt lat="47.85069" lon="6.75137">
        <ele>776</ele>
        <time>2018-06-23T09:27:49.000Z</time>
      </trkpt>
      <trkpt lat="47.8507" lon="6.75136">
        <ele>776</ele>
        <time>2018-06-23T09:27:50.000Z</time>
      </trkpt>
      <trkpt lat="47.8507" lon="6.75135">
        <ele>776</ele>
        <time>2018-06-23T09:27:51.000Z</time>
      </trkpt>
      <trkpt lat="47.85071" lon="6.75135">
        <ele>776</ele>
        <time>2018-06-23T09:27:52.000Z</time>
      </trkpt>
      <trkpt lat="47.85072" lon="6.75134">
        <ele>776</ele>
        <time>2018-06-23T09:27:53.000Z</time>
      </trkpt>
      <trkpt lat="47.85073" lon="6.75133">
        <ele>776</ele>
        <time>2018-06-23T09:27:54.000Z</time>
      </trkpt>
      <trkpt lat="47.85074" lon="6.75132">
        <ele>776</ele>
        <time>2018-06-23T09:27:55.000Z</time>
      </trkpt>
      <trkpt lat="47.85075" lon="6.75131">
        <ele>776</ele>
        <time>2018-06-23T09:27:56.000Z</time>
      </trkpt>
      <trkpt lat="47.85075" lon="6.75129">
        <ele>776</ele>
        <time>2018-06-23T09:27:57.000Z</time>
      </trkpt>
      <trkpt lat="47.85076" lon="6.75128">
        <ele>776</ele>
        <time>2018-06-23T09:27:58.000Z</time>
      </trkpt>
      <trkpt lat="47.85077" lon="6.75127">
        <ele>776</ele>
        <time>2018-06-23T09:27:59.000Z</time>
      </trkpt>
      <trkpt lat="47.85078" lon="6.75125">
        <ele>776</ele>
        <time>2018-06-23T09:28:00.000Z</time>
      </trkpt>
      <trkpt lat="47.85079" lon="6.75124">
        <ele>776</ele>
        <time>2018-06-23T09:28:01.000Z</time>
      </trkpt>
      <trkpt lat="47.8508" lon="6.75123">
        <ele>776</ele>
        <time>2018-06-23T09:28:02.000Z</time>
      </trkpt>
      <trkpt lat="47.85081" lon="6.75122">
        <ele>776</ele>
        <time>2018-06-23T09:28:03.000Z</time>
      </trkpt>
      <trkpt lat="47.85082" lon="6.75121">
        <ele>776</ele>
        <time>2018-06-23T09:28:04.000Z</time>
      </trkpt>
      <trkpt lat="47.85083" lon="6.7512">
        <ele>776</ele>
        <time>2018-06-23T09:28:05.000Z</time>
      </trkpt>
      <trkpt lat="47.85084" lon="6.75118">
        <ele>772</ele>
        <time>2018-06-23T09:28:06.000Z</time>
      </trkpt>
      <trkpt lat="47.85085" lon="6.75117">
        <ele>772</ele>
        <time>2018-06-23T09:28:07.000Z</time>
      </trkpt>
      <trkpt lat="47.85086" lon="6.75116">
        <ele>772</ele>
        <time>2018-06-23T09:28:08.000Z</time>
      </trkpt>
      <trkpt lat="47.85087" lon="6.75115">
        <ele>772</ele>
        <time>2018-06-23T09:28:09.000Z</time>
      </trkpt>
      <trkpt lat="47.85087" lon="6.75113">
        <ele>772</ele>
        <time>2018-06-23T09:28:10.000Z</time>
      </trkpt>
      <trkpt lat="47.85088" lon="6.75112">
        <ele>772</ele>
        <time>2018-06-23T09:28:11.000Z</time>
      </trkpt>
      <trkpt lat="47.85089" lon="6.75111">
        <ele>772</ele>
        <time>2018-06-23T09:28:12.000Z</time>
      </trkpt>
      <trkpt lat="47.8509" lon="6.7511">
        <ele>772</ele>
        <time>2018-06-23T09:28:13.000Z</time>
      </trkpt>
      <trkpt lat="47.85091" lon="6.75109">
        <ele>772</ele>
        <time>2018-06-23T09:28:14.000Z</time>
      </trkpt>
      <trkpt lat="47.85092" lon="6.75108">
        <ele>772</ele>
        <time>2018-06-23T09:28:15.000Z</time>
      </trkpt>
      <trkpt lat="47.85093" lon="6.75107">
        <ele>772</ele>
        <time>2018-06-23T09:28:16.000Z</time>
      </trkpt>
      <trkpt lat="47.85094" lon="6.75106">
        <ele>772</ele>
        <time>2018-06-23T09:28:17.000Z</time>
      </trkpt>
      <trkpt lat="47.85095" lon="6.75106">
        <ele>772</ele>
        <time>2018-06-23T09:28:18.000Z</time>
      </trkpt>
      <trkpt lat="47.85096" lon="6.75105">
        <ele>772</ele>
        <time>2018-06-23T09:28:19.000Z</time>
      </trkpt>
      <trkpt lat="47.85097" lon="6.75104">
        <ele>772</ele>
        <time>2018-06-23T09:28:20.000Z</time>
      </trkpt>
      <trkpt lat="47.85098" lon="6.75103">
        <ele>772</ele>
        <time>2018-06-23T09:28:21.000Z</time>
      </trkpt>
      <trkpt lat="47.85099" lon="6.75103">
        <ele>772</ele>
        <time>2018-06-23T09:28:22.000Z</time>
      </trkpt>
      <trkpt lat="47.851" lon="6.75102">
        <ele>772</ele>
        <time>2018-06-23T09:28:23.000Z</time>
      </trkpt>
      <trkpt lat="47.85101" lon="6.75101">
        <ele>772</ele>
        <time>2018-06-23T09:28:24.000Z</time>
      </trkpt>
      <trkpt lat="47.85102" lon="6.751">
        <ele>772</ele>
        <time>2018-06-23T09:28:25.000Z</time>
      </trkpt>
      <trkpt lat="47.85103" lon="6.751">
        <ele>772</ele>
        <time>2018-06-23T09:28:26.000Z</time>
      </trkpt>
      <trkpt lat="47.85103" lon="6.75099">
        <ele>772</ele>
        <time>2018-06-23T09:28:27.000Z</time>
      </trkpt>
      <trkpt lat="47.85104" lon="6.75098">
        <ele>772</ele>
        <time>2018-06-23T09:28:28.000Z</time>
      </trkpt>
      <trkpt lat="47.85105" lon="6.75097">
        <ele>771</ele>
        <time>2018-06-23T09:28:29.000Z</time>
      </trkpt>
      <trkpt lat="47.85106" lon="6.75096">
        <ele>771</ele>
        <time>2018-06-23T09:28:30.000Z</time>
      </trkpt>
      <trkpt lat="47.85107" lon="6.75095">
        <ele>771</ele>
        <time>2018-06-23T09:28:31.000Z</time>
      </trkpt>
      <trkpt lat="47.85108" lon="6.75094">
        <ele>771</ele>
        <time>2018-06-23T09:28:32.000Z</time>
      </trkpt>
      <trkpt lat="47.85109" lon="6.75093">
        <ele>771</ele>
        <time>2018-06-23T09:28:33.000Z</time>
      </trkpt>
      <trkpt lat="47.85109" lon="6.75093">
        <ele>771</ele>
        <time>2018-06-23T09:28:34.000Z</time>
      </trkpt>
      <trkpt lat="47.8511" lon="6.75092">
        <ele>771</ele>
        <time>2018-06-23T09:28:35.000Z</time>
      </trkpt>
      <trkpt lat="47.85111" lon="6.75091">
        <ele>771</ele>
        <time>2018-06-23T09:28:36.000Z</time>
      </trkpt>
      <trkpt lat="47.85112" lon="6.75091">
        <ele>771</ele>
        <time>2018-06-23T09:28:37.000Z</time>
      </trkpt>
      <trkpt lat="47.85113" lon="6.7509">
        <ele>771</ele>
        <time>2018-06-23T09:28:38.000Z</time>
      </trkpt>
      <trkpt lat="47.85114" lon="6.75089">
        <ele>771</ele>
        <time>2018-06-23T09:28:39.000Z</time>
      </trkpt>
      <trkpt lat="47.85115" lon="6.75089">
        <ele>771</ele>
        <time>2018-06-23T09:28:40.000Z</time>
      </trkpt>
      <trkpt lat="47.85116" lon="6.75088">
        <ele>771</ele>
        <time>2018-06-23T09:28:41.000Z</time>
      </trkpt>
      <trkpt lat="47.85116" lon="6.75087">
        <ele>771</ele>
        <time>2018-06-23T09:28:42.000Z</time>
      </trkpt>
      <trkpt lat="47.85117" lon="6.75086">
        <ele>771</ele>
        <time>2018-06-23T09:28:43.000Z</time>
      </trkpt>
      <trkpt lat="47.85119" lon="6.75085">
        <ele>771</ele>
        <time>2018-06-23T09:28:44.000Z</time>
      </trkpt>
      <trkpt lat="47.8512" lon="6.75084">
        <ele>770</ele>
        <time>2018-06-23T09:28:45.000Z</time>
      </trkpt>
      <trkpt lat="47.85121" lon="6.75083">
        <ele>769</ele>
        <time>2018-06-23T09:28:46.000Z</time>
      </trkpt>
      <trkpt lat="47.85122" lon="6.75082">
        <ele>769</ele>
        <time>2018-06-23T09:28:47.000Z</time>
      </trkpt>
      <trkpt lat="47.85123" lon="6.75082">
        <ele>768</ele>
        <time>2018-06-23T09:28:48.000Z</time>
      </trkpt>
      <trkpt lat="47.85124" lon="6.75082">
        <ele>768</ele>
        <time>2018-06-23T09:28:49.000Z</time>
      </trkpt>
      <trkpt lat="47.85125" lon="6.75081">
        <ele>768</ele>
        <time>2018-06-23T09:28:50.000Z</time>
      </trkpt>
      <trkpt lat="47.85126" lon="6.75081">
        <ele>768</ele>
        <time>2018-06-23T09:28:51.000Z</time>
      </trkpt>
      <trkpt lat="47.85128" lon="6.75081">
        <ele>768</ele>
        <time>2018-06-23T09:28:52.000Z</time>
      </trkpt>
      <trkpt lat="47.85129" lon="6.7508">
        <ele>768</ele>
        <time>2018-06-23T09:28:53.000Z</time>
      </trkpt>
      <trkpt lat="47.8513" lon="6.7508">
        <ele>768</ele>
        <time>2018-06-23T09:28:54.000Z</time>
      </trkpt>
      <trkpt lat="47.85131" lon="6.75079">
        <ele>768</ele>
        <time>2018-06-23T09:28:55.000Z</time>
      </trkpt>
      <trkpt lat="47.85132" lon="6.75079">
        <ele>768</ele>
        <time>2018-06-23T09:28:56.000Z</time>
      </trkpt>
      <trkpt lat="47.85133" lon="6.75078">
        <ele>768</ele>
        <time>2018-06-23T09:28:57.000Z</time>
      </trkpt>
      <trkpt lat="47.85134" lon="6.75078">
        <ele>768</ele>
        <time>2018-06-23T09:28:58.000Z</time>
      </trkpt>
      <trkpt lat="47.85135" lon="6.75077">
        <ele>768</ele>
        <time>2018-06-23T09:28:59.000Z</time>
      </trkpt>
      <trkpt lat="47.85136" lon="6.75077">
        <ele>768</ele>
        <time>2018-06-23T09:29:00.000Z</time>
      </trkpt>
      <trkpt lat="47.85137" lon="6.75076">
        <ele>768</ele>
        <time>2018-06-23T09:29:01.000Z</time>
      </trkpt>
      <trkpt lat="47.85138" lon="6.75075">
        <ele>768</ele>
        <time>2018-06-23T09:29:02.000Z</time>
      </trkpt>
      <trkpt lat="47.85139" lon="6.75074">
        <ele>768</ele>
        <time>2018-06-23T09:29:03.000Z</time>
      </trkpt>
      <trkpt lat="47.8514" lon="6.75073">
        <ele>767</ele>
        <time>2018-06-23T09:29:04.000Z</time>
      </trkpt>
      <trkpt lat="47.85141" lon="6.75073">
        <ele>767</ele>
        <time>2018-06-23T09:29:05.000Z</time>
      </trkpt>
      <trkpt lat="47.85143" lon="6.75072">
        <ele>767</ele>
        <time>2018-06-23T09:29:06.000Z</time>
      </trkpt>
      <trkpt lat="47.85144" lon="6.75071">
        <ele>767</ele>
        <time>2018-06-23T09:29:07.000Z</time>
      </trkpt>
      <trkpt lat="47.85145" lon="6.7507">
        <ele>767</ele>
        <time>2018-06-23T09:29:08.000Z</time>
      </trkpt>
      <trkpt lat="47.85147" lon="6.7507">
        <ele>767</ele>
        <time>2018-06-23T09:29:09.000Z</time>
      </trkpt>
      <trkpt lat="47.85148" lon="6.75069">
        <ele>767</ele>
        <time>2018-06-23T09:29:10.000Z</time>
      </trkpt>
      <trkpt lat="47.85149" lon="6.75068">
        <ele>767</ele>
        <time>2018-06-23T09:29:11.000Z</time>
      </trkpt>
      <trkpt lat="47.85151" lon="6.75067">
        <ele>767</ele>
        <time>2018-06-23T09:29:12.000Z</time>
      </trkpt>
      <trkpt lat="47.85152" lon="6.75067">
        <ele>767</ele>
        <time>2018-06-23T09:29:13.000Z</time>
      </trkpt>
      <trkpt lat="47.85153" lon="6.75066">
        <ele>767</ele>
        <time>2018-06-23T09:29:14.000Z</time>
      </trkpt>
      <trkpt lat="47.85154" lon="6.75066">
        <ele>767</ele>
        <time>2018-06-23T09:29:15.000Z</time>
      </trkpt>
      <trkpt lat="47.85155" lon="6.75064">
        <ele>767</ele>
        <time>2018-06-23T09:29:16.000Z</time>
      </trkpt>
      <trkpt lat="47.85157" lon="6.75063">
        <ele>767</ele>
        <time>2018-06-23T09:29:17.000Z</time>
      </trkpt>
      <trkpt lat="47.85159" lon="6.75062">
        <ele>767</ele>
        <time>2018-06-23T09:29:18.000Z</time>
      </trkpt>
      <trkpt lat="47.85161" lon="6.75061">
        <ele>767</ele>
        <time>2018-06-23T09:29:19.000Z</time>
      </trkpt>
      <trkpt lat="47.85162" lon="6.7506">
        <ele>767</ele>
        <time>2018-06-23T09:29:20.000Z</time>
      </trkpt>
      <trkpt lat="47.85163" lon="6.75059">
        <ele>767</ele>
        <time>2018-06-23T09:29:21.000Z</time>
      </trkpt>
      <trkpt lat="47.85165" lon="6.75059">
        <ele>767</ele>
        <time>2018-06-23T09:29:22.000Z</time>
      </trkpt>
      <trkpt lat="47.85166" lon="6.75058">
        <ele>767</ele>
        <time>2018-06-23T09:29:23.000Z</time>
      </trkpt>
      <trkpt lat="47.85168" lon="6.75057">
        <ele>764</ele>
        <time>2018-06-23T09:29:24.000Z</time>
      </trkpt>
      <trkpt lat="47.85169" lon="6.75057">
        <ele>764</ele>
        <time>2018-06-23T09:29:25.000Z</time>
      </trkpt>
      <trkpt lat="47.85171" lon="6.75057">
        <ele>763</ele>
        <time>2018-06-23T09:29:26.000Z</time>
      </trkpt>
      <trkpt lat="47.85172" lon="6.75057">
        <ele>763</ele>
        <time>2018-06-23T09:29:27.000Z</time>
      </trkpt>
      <trkpt lat="47.85172" lon="6.75057">
        <ele>763</ele>
        <time>2018-06-23T09:29:28.000Z</time>
      </trkpt>
      <trkpt lat="47.85172" lon="6.75057">
        <ele>763</ele>
        <time>2018-06-23T09:29:29.000Z</time>
      </trkpt>
      <trkpt lat="47.85172" lon="6.75057">
        <ele>763</ele>
        <time>2018-06-23T09:29:30.000Z</time>
      </trkpt>
      <trkpt lat="47.85173" lon="6.75057">
        <ele>763</ele>
        <time>2018-06-23T09:29:31.000Z</time>
      </trkpt>
      <trkpt lat="47.85173" lon="6.75057">
        <ele>763</ele>
        <time>2018-06-23T09:29:32.000Z</time>
      </trkpt>
      <trkpt lat="47.85173" lon="6.75057">
        <ele>763</ele>
        <time>2018-06-23T09:29:33.000Z</time>
      </trkpt>
      <trkpt lat="47.85173" lon="6.75057">
        <ele>763</ele>
        <time>2018-06-23T09:29:34.000Z</time>
      </trkpt>
      <trkpt lat="47.85173" lon="6.75057">
        <ele>763</ele>
        <time>2018-06-23T09:29:35.000Z</time>
      </trkpt>
      <trkpt lat="47.85173" lon="6.75056">
        <ele>763</ele>
        <time>2018-06-23T09:29:36.000Z</time>
      </trkpt>
      <trkpt lat="47.85173" lon="6.75056">
        <ele>763</ele>
        <time>2018-06-23T09:29:37.000Z</time>
      </trkpt>
      <trkpt lat="47.85173" lon="6.75056">
        <ele>763</ele>
        <time>2018-06-23T09:29:38.000Z</time>
      </trkpt>
      <trkpt lat="47.85174" lon="6.75055">
        <ele>763</ele>
        <time>2018-06-23T09:29:39.000Z</time>
      </trkpt>
      <trkpt lat="47.85175" lon="6.75055">
        <ele>763</ele>
        <time>2018-06-23T09:29:40.000Z</time>
      </trkpt>
      <trkpt lat="47.85175" lon="6.75055">
        <ele>763</ele>
        <time>2018-06-23T09:29:41.000Z</time>
      </trkpt>
      <trkpt lat="47.85176" lon="6.75055">
        <ele>763</ele>
        <time>2018-06-23T09:29:42.000Z</time>
      </trkpt>
      <trkpt lat="47.85177" lon="6.75056">
        <ele>763</ele>
        <time>2018-06-23T09:29:43.000Z</time>
      </trkpt>
      <trkpt lat="47.85177" lon="6.75056">
        <ele>763</ele>
        <time>2018-06-23T09:29:44.000Z</time>
      </trkpt>
      <trkpt lat="47.85178" lon="6.75056">
        <ele>763</ele>
        <time>2018-06-23T09:29:45.000Z</time>
      </trkpt>
      <trkpt lat="47.85179" lon="6.75056">
        <ele>763</ele>
        <time>2018-06-23T09:29:46.000Z</time>
      </trkpt>
      <trkpt lat="47.85179" lon="6.75056">
        <ele>763</ele>
        <time>2018-06-23T09:29:47.000Z</time>
      </trkpt>
      <trkpt lat="47.85179" lon="6.75056">
        <ele>763</ele>
        <time>2018-06-23T09:29:48.000Z</time>
      </trkpt>
      <trkpt lat="47.8518" lon="6.75056">
        <ele>763</ele>
        <time>2018-06-23T09:29:49.000Z</time>
      </trkpt>
      <trkpt lat="47.85181" lon="6.75055">
        <ele>763</ele>
        <time>2018-06-23T09:29:50.000Z</time>
      </trkpt>
      <trkpt lat="47.85181" lon="6.75054">
        <ele>763</ele>
        <time>2018-06-23T09:29:51.000Z</time>
      </trkpt>
      <trkpt lat="47.85181" lon="6.75053">
        <ele>763</ele>
        <time>2018-06-23T09:29:52.000Z</time>
      </trkpt>
      <trkpt lat="47.85182" lon="6.75051">
        <ele>763</ele>
        <time>2018-06-23T09:29:53.000Z</time>
      </trkpt>
      <trkpt lat="47.85182" lon="6.75048">
        <ele>763</ele>
        <time>2018-06-23T09:29:54.000Z</time>
      </trkpt>
      <trkpt lat="47.85182" lon="6.75046">
        <ele>763</ele>
        <time>2018-06-23T09:29:55.000Z</time>
      </trkpt>
      <trkpt lat="47.85182" lon="6.75044">
        <ele>763</ele>
        <time>2018-06-23T09:29:56.000Z</time>
      </trkpt>
      <trkpt lat="47.85182" lon="6.75043">
        <ele>763</ele>
        <time>2018-06-23T09:29:57.000Z</time>
      </trkpt>
      <trkpt lat="47.85182" lon="6.75042">
        <ele>763</ele>
        <time>2018-06-23T09:29:58.000Z</time>
      </trkpt>
      <trkpt lat="47.85182" lon="6.7504">
        <ele>763</ele>
        <time>2018-06-23T09:29:59.000Z</time>
      </trkpt>
      <trkpt lat="47.85182" lon="6.75039">
        <ele>763</ele>
        <time>2018-06-23T09:30:00.000Z</time>
      </trkpt>
      <trkpt lat="47.85182" lon="6.75037">
        <ele>763</ele>
        <time>2018-06-23T09:30:01.000Z</time>
      </trkpt>
      <trkpt lat="47.85182" lon="6.75036">
        <ele>763</ele>
        <time>2018-06-23T09:30:02.000Z</time>
      </trkpt>
      <trkpt lat="47.85183" lon="6.75035">
        <ele>763</ele>
        <time>2018-06-23T09:30:03.000Z</time>
      </trkpt>
      <trkpt lat="47.85182" lon="6.75033">
        <ele>764</ele>
        <time>2018-06-23T09:30:04.000Z</time>
      </trkpt>
      <trkpt lat="47.85182" lon="6.75033">
        <ele>764</ele>
        <time>2018-06-23T09:30:05.000Z</time>
      </trkpt>
      <trkpt lat="47.85182" lon="6.75033">
        <ele>764</ele>
        <time>2018-06-23T09:30:06.000Z</time>
      </trkpt>
      <trkpt lat="47.85183" lon="6.75033">
        <ele>764</ele>
        <time>2018-06-23T09:30:07.000Z</time>
      </trkpt>
      <trkpt lat="47.85183" lon="6.75033">
        <ele>764</ele>
        <time>2018-06-23T09:30:08.000Z</time>
      </trkpt>
      <trkpt lat="47.85183" lon="6.75033">
        <ele>764</ele>
        <time>2018-06-23T09:30:09.000Z</time>
      </trkpt>
      <trkpt lat="47.85183" lon="6.75032">
        <ele>764</ele>
        <time>2018-06-23T09:30:10.000Z</time>
      </trkpt>
      <trkpt lat="47.85183" lon="6.75032">
        <ele>764</ele>
        <time>2018-06-23T09:30:11.000Z</time>
      </trkpt>
      <trkpt lat="47.85183" lon="6.75032">
        <ele>764</ele>
        <time>2018-06-23T09:30:12.000Z</time>
      </trkpt>
      <trkpt lat="47.85183" lon="6.75032">
        <ele>764</ele>
        <time>2018-06-23T09:30:13.000Z</time>
      </trkpt>
      <trkpt lat="47.85183" lon="6.75032">
        <ele>764</ele>
        <time>2018-06-23T09:30:14.000Z</time>
      </trkpt>
      <trkpt lat="47.85183" lon="6.75032">
        <ele>764</ele>
        <time>2018-06-23T09:30:15.000Z</time>
      </trkpt>
      <trkpt lat="47.85183" lon="6.75032">
        <ele>764</ele>
        <time>2018-06-23T09:30:16.000Z</time>
      </trkpt>
      <trkpt lat="47.85183" lon="6.75032">
        <ele>764</ele>
        <time>2018-06-23T09:30:17.000Z</time>
      </trkpt>
      <trkpt lat="47.85183" lon="6.75032">
        <ele>764</ele>
        <time>2018-06-23T09:30:18.000Z</time>
      </trkpt>
      <trkpt lat="47.85183" lon="6.75032">
        <ele>764</ele>
        <time>2018-06-23T09:30:19.000Z</time>
      </trkpt>
      <trkpt lat="47.85183" lon="6.75032">
        <ele>764</ele>
        <time>2018-06-23T09:30:20.000Z</time>
      </trkpt>
      <trkpt lat="47.85184" lon="6.75032">
        <ele>764</ele>
        <time>2018-06-23T09:30:21.000Z</time>
      </trkpt>
      <trkpt lat="47.85184" lon="6.75032">
        <ele>764</ele>
        <time>2018-06-23T09:30:22.000Z</time>
      </trkpt>
      <trkpt lat="47.85184" lon="6.75032">
        <ele>764</ele>
        <time>2018-06-23T09:30:23.000Z</time>
      </trkpt>
      <trkpt lat="47.85184" lon="6.75032">
        <ele>764</ele>
        <time>2018-06-23T09:30:24.000Z</time>
      </trkpt>
      <trkpt lat="47.85184" lon="6.75032">
        <ele>764</ele>
        <time>2018-06-23T09:30:25.000Z</time>
      </trkpt>
      <trkpt lat="47.85184" lon="6.75032">
        <ele>764</ele>
        <time>2018-06-23T09:30:26.000Z</time>
      </trkpt>
      <trkpt lat="47.85184" lon="6.75032">
        <ele>764</ele>
        <time>2018-06-23T09:30:27.000Z</time>
      </trkpt>
      <trkpt lat="47.85184" lon="6.75032">
        <ele>764</ele>
        <time>2018-06-23T09:30:28.000Z</time>
      </trkpt>
      <trkpt lat="47.85184" lon="6.75032">
        <ele>764</ele>
        <time>2018-06-23T09:30:29.000Z</time>
      </trkpt>
      <trkpt lat="47.85184" lon="6.75032">
        <ele>764</ele>
        <time>2018-06-23T09:30:30.000Z</time>
      </trkpt>
      <trkpt lat="47.85184" lon="6.75032">
        <ele>764</ele>
        <time>2018-06-23T09:30:31.000Z</time>
      </trkpt>
      <trkpt lat="47.85184" lon="6.75032">
        <ele>764</ele>
        <time>2018-06-23T09:30:32.000Z</time>
      </trkpt>
      <trkpt lat="47.85184" lon="6.75031">
        <ele>764</ele>
        <time>2018-06-23T09:30:33.000Z</time>
      </trkpt>
      <trkpt lat="47.85184" lon="6.75031">
        <ele>764</ele>
        <time>2018-06-23T09:30:34.000Z</time>
      </trkpt>
      <trkpt lat="47.85184" lon="6.75032">
        <ele>764</ele>
        <time>2018-06-23T09:30:35.000Z</time>
      </trkpt>
      <trkpt lat="47.85185" lon="6.75032">
        <ele>763</ele>
        <time>2018-06-23T09:30:36.000Z</time>
      </trkpt>
      <trkpt lat="47.85185" lon="6.75033">
        <ele>763</ele>
        <time>2018-06-23T09:30:37.000Z</time>
      </trkpt>
      <trkpt lat="47.85186" lon="6.75035">
        <ele>763</ele>
        <time>2018-06-23T09:30:38.000Z</time>
      </trkpt>
      <trkpt lat="47.85186" lon="6.75036">
        <ele>763</ele>
        <time>2018-06-23T09:30:39.000Z</time>
      </trkpt>
      <trkpt lat="47.85187" lon="6.75038">
        <ele>763</ele>
        <time>2018-06-23T09:30:40.000Z</time>
      </trkpt>
      <trkpt lat="47.85188" lon="6.75041">
        <ele>763</ele>
        <time>2018-06-23T09:30:41.000Z</time>
      </trkpt>
      <trkpt lat="47.85188" lon="6.75043">
        <ele>763</ele>
        <time>2018-06-23T09:30:42.000Z</time>
      </trkpt>
      <trkpt lat="47.85188" lon="6.75045">
        <ele>763</ele>
        <time>2018-06-23T09:30:43.000Z</time>
      </trkpt>
      <trkpt lat="47.85188" lon="6.75047">
        <ele>763</ele>
        <time>2018-06-23T09:30:44.000Z</time>
      </trkpt>
      <trkpt lat="47.85188" lon="6.75049">
        <ele>763</ele>
        <time>2018-06-23T09:30:45.000Z</time>
      </trkpt>
      <trkpt lat="47.85188" lon="6.75052">
        <ele>763</ele>
        <time>2018-06-23T09:30:46.000Z</time>
      </trkpt>
      <trkpt lat="47.85189" lon="6.75053">
        <ele>763</ele>
        <time>2018-06-23T09:30:47.000Z</time>
      </trkpt>
      <trkpt lat="47.85189" lon="6.75055">
        <ele>763</ele>
        <time>2018-06-23T09:30:48.000Z</time>
      </trkpt>
      <trkpt lat="47.8519" lon="6.75056">
        <ele>763</ele>
        <time>2018-06-23T09:30:49.000Z</time>
      </trkpt>
      <trkpt lat="47.8519" lon="6.75056">
        <ele>763</ele>
        <time>2018-06-23T09:30:50.000Z</time>
      </trkpt>
      <trkpt lat="47.8519" lon="6.75056">
        <ele>763</ele>
        <time>2018-06-23T09:30:51.000Z</time>
      </trkpt>
      <trkpt lat="47.8519" lon="6.75056">
        <ele>763</ele>
        <time>2018-06-23T09:30:52.000Z</time>
      </trkpt>
      <trkpt lat="47.8519" lon="6.75056">
        <ele>763</ele>
        <time>2018-06-23T09:30:53.000Z</time>
      </trkpt>
      <trkpt lat="47.8519" lon="6.75056">
        <ele>763</ele>
        <time>2018-06-23T09:30:54.000Z</time>
      </trkpt>
      <trkpt lat="47.8519" lon="6.75056">
        <ele>763</ele>
        <time>2018-06-23T09:30:55.000Z</time>
      </trkpt>
      <trkpt lat="47.85189" lon="6.75056">
        <ele>763</ele>
        <time>2018-06-23T09:30:56.000Z</time>
      </trkpt>
      <trkpt lat="47.85189" lon="6.75056">
        <ele>763</ele>
        <time>2018-06-23T09:30:57.000Z</time>
      </trkpt>
      <trkpt lat="47.85189" lon="6.75056">
        <ele>763</ele>
        <time>2018-06-23T09:30:58.000Z</time>
      </trkpt>
      <trkpt lat="47.85189" lon="6.75056">
        <ele>763</ele>
        <time>2018-06-23T09:30:59.000Z</time>
      </trkpt>
      <trkpt lat="47.85189" lon="6.75056">
        <ele>763</ele>
        <time>2018-06-23T09:31:00.000Z</time>
      </trkpt>
      <trkpt lat="47.8519" lon="6.75057">
        <ele>763</ele>
        <time>2018-06-23T09:31:01.000Z</time>
      </trkpt>
      <trkpt lat="47.8519" lon="6.75056">
        <ele>763</ele>
        <time>2018-06-23T09:31:02.000Z</time>
      </trkpt>
      <trkpt lat="47.8519" lon="6.75057">
        <ele>763</ele>
        <time>2018-06-23T09:31:03.000Z</time>
      </trkpt>
      <trkpt lat="47.8519" lon="6.75057">
        <ele>763</ele>
        <time>2018-06-23T09:31:04.000Z</time>
      </trkpt>
      <trkpt lat="47.8519" lon="6.75058">
        <ele>763</ele>
        <time>2018-06-23T09:31:05.000Z</time>
      </trkpt>
      <trkpt lat="47.85191" lon="6.75059">
        <ele>763</ele>
        <time>2018-06-23T09:31:06.000Z</time>
      </trkpt>
      <trkpt lat="47.85192" lon="6.7506">
        <ele>763</ele>
        <time>2018-06-23T09:31:07.000Z</time>
      </trkpt>
      <trkpt lat="47.85193" lon="6.75062">
        <ele>763</ele>
        <time>2018-06-23T09:31:08.000Z</time>
      </trkpt>
      <trkpt lat="47.85194" lon="6.75063">
        <ele>763</ele>
        <time>2018-06-23T09:31:09.000Z</time>
      </trkpt>
      <trkpt lat="47.85195" lon="6.75065">
        <ele>762</ele>
        <time>2018-06-23T09:31:10.000Z</time>
      </trkpt>
      <trkpt lat="47.85196" lon="6.75066">
        <ele>762</ele>
        <time>2018-06-23T09:31:11.000Z</time>
      </trkpt>
      <trkpt lat="47.85198" lon="6.75067">
        <ele>762</ele>
        <time>2018-06-23T09:31:12.000Z</time>
      </trkpt>
      <trkpt lat="47.85198" lon="6.75068">
        <ele>762</ele>
        <time>2018-06-23T09:31:13.000Z</time>
      </trkpt>
      <trkpt lat="47.85199" lon="6.7507">
        <ele>762</ele>
        <time>2018-06-23T09:31:14.000Z</time>
      </trkpt>
      <trkpt lat="47.852" lon="6.75072">
        <ele>762</ele>
        <time>2018-06-23T09:31:15.000Z</time>
      </trkpt>
      <trkpt lat="47.85201" lon="6.75074">
        <ele>762</ele>
        <time>2018-06-23T09:31:16.000Z</time>
      </trkpt>
      <trkpt lat="47.85201" lon="6.75076">
        <ele>762</ele>
        <time>2018-06-23T09:31:17.000Z</time>
      </trkpt>
      <trkpt lat="47.85202" lon="6.75079">
        <ele>762</ele>
        <time>2018-06-23T09:31:18.000Z</time>
      </trkpt>
      <trkpt lat="47.85202" lon="6.75081">
        <ele>762</ele>
        <time>2018-06-23T09:31:19.000Z</time>
      </trkpt>
      <trkpt lat="47.85202" lon="6.75084">
        <ele>760</ele>
        <time>2018-06-23T09:31:20.000Z</time>
      </trkpt>
      <trkpt lat="47.85202" lon="6.75087">
        <ele>760</ele>
        <time>2018-06-23T09:31:21.000Z</time>
      </trkpt>
      <trkpt lat="47.85202" lon="6.75089">
        <ele>760</ele>
        <time>2018-06-23T09:31:22.000Z</time>
      </trkpt>
      <trkpt lat="47.85202" lon="6.75092">
        <ele>760</ele>
        <time>2018-06-23T09:31:23.000Z</time>
      </trkpt>
      <trkpt lat="47.85201" lon="6.75094">
        <ele>760</ele>
        <time>2018-06-23T09:31:24.000Z</time>
      </trkpt>
      <trkpt lat="47.85201" lon="6.75097">
        <ele>760</ele>
        <time>2018-06-23T09:31:25.000Z</time>
      </trkpt>
      <trkpt lat="47.85201" lon="6.75099">
        <ele>760</ele>
        <time>2018-06-23T09:31:26.000Z</time>
      </trkpt>
      <trkpt lat="47.85201" lon="6.75102">
        <ele>760</ele>
        <time>2018-06-23T09:31:27.000Z</time>
      </trkpt>
      <trkpt lat="47.85201" lon="6.75105">
        <ele>760</ele>
        <time>2018-06-23T09:31:28.000Z</time>
      </trkpt>
      <trkpt lat="47.85201" lon="6.75107">
        <ele>760</ele>
        <time>2018-06-23T09:31:29.000Z</time>
      </trkpt>
      <trkpt lat="47.85201" lon="6.75108">
        <ele>760</ele>
        <time>2018-06-23T09:31:30.000Z</time>
      </trkpt>
      <trkpt lat="47.85202" lon="6.7511">
        <ele>760</ele>
        <time>2018-06-23T09:31:31.000Z</time>
      </trkpt>
      <trkpt lat="47.85202" lon="6.75112">
        <ele>760</ele>
        <time>2018-06-23T09:31:32.000Z</time>
      </trkpt>
      <trkpt lat="47.85202" lon="6.75113">
        <ele>760</ele>
        <time>2018-06-23T09:31:33.000Z</time>
      </trkpt>
      <trkpt lat="47.85203" lon="6.75115">
        <ele>760</ele>
        <time>2018-06-23T09:31:34.000Z</time>
      </trkpt>
      <trkpt lat="47.85203" lon="6.75116">
        <ele>760</ele>
        <time>2018-06-23T09:31:35.000Z</time>
      </trkpt>
      <trkpt lat="47.85203" lon="6.75117">
        <ele>760</ele>
        <time>2018-06-23T09:31:36.000Z</time>
      </trkpt>
      <trkpt lat="47.85204" lon="6.75119">
        <ele>760</ele>
        <time>2018-06-23T09:31:37.000Z</time>
      </trkpt>
      <trkpt lat="47.85204" lon="6.75121">
        <ele>760</ele>
        <time>2018-06-23T09:31:38.000Z</time>
      </trkpt>
      <trkpt lat="47.85205" lon="6.75124">
        <ele>760</ele>
        <time>2018-06-23T09:31:39.000Z</time>
      </trkpt>
      <trkpt lat="47.85207" lon="6.75126">
        <ele>760</ele>
        <time>2018-06-23T09:31:40.000Z</time>
      </trkpt>
      <trkpt lat="47.85208" lon="6.75129">
        <ele>759</ele>
        <time>2018-06-23T09:31:41.000Z</time>
      </trkpt>
      <trkpt lat="47.85209" lon="6.75131">
        <ele>759</ele>
        <time>2018-06-23T09:31:42.000Z</time>
      </trkpt>
      <trkpt lat="47.85211" lon="6.75133">
        <ele>759</ele>
        <time>2018-06-23T09:31:43.000Z</time>
      </trkpt>
      <trkpt lat="47.85212" lon="6.75135">
        <ele>759</ele>
        <time>2018-06-23T09:31:44.000Z</time>
      </trkpt>
      <trkpt lat="47.85213" lon="6.75137">
        <ele>759</ele>
        <time>2018-06-23T09:31:45.000Z</time>
      </trkpt>
      <trkpt lat="47.85215" lon="6.75139">
        <ele>759</ele>
        <time>2018-06-23T09:31:46.000Z</time>
      </trkpt>
      <trkpt lat="47.85216" lon="6.75142">
        <ele>759</ele>
        <time>2018-06-23T09:31:47.000Z</time>
      </trkpt>
      <trkpt lat="47.85216" lon="6.75144">
        <ele>758</ele>
        <time>2018-06-23T09:31:48.000Z</time>
      </trkpt>
      <trkpt lat="47.85217" lon="6.75147">
        <ele>758</ele>
        <time>2018-06-23T09:31:49.000Z</time>
      </trkpt>
      <trkpt lat="47.85218" lon="6.7515">
        <ele>758</ele>
        <time>2018-06-23T09:31:50.000Z</time>
      </trkpt>
      <trkpt lat="47.85219" lon="6.75152">
        <ele>758</ele>
        <time>2018-06-23T09:31:51.000Z</time>
      </trkpt>
      <trkpt lat="47.8522" lon="6.75155">
        <ele>758</ele>
        <time>2018-06-23T09:31:52.000Z</time>
      </trkpt>
      <trkpt lat="47.85221" lon="6.75156">
        <ele>757</ele>
        <time>2018-06-23T09:31:53.000Z</time>
      </trkpt>
      <trkpt lat="47.85222" lon="6.75159">
        <ele>757</ele>
        <time>2018-06-23T09:31:54.000Z</time>
      </trkpt>
      <trkpt lat="47.85222" lon="6.75161">
        <ele>757</ele>
        <time>2018-06-23T09:31:55.000Z</time>
      </trkpt>
      <trkpt lat="47.85223" lon="6.75163">
        <ele>757</ele>
        <time>2018-06-23T09:31:56.000Z</time>
      </trkpt>
      <trkpt lat="47.85224" lon="6.75165">
        <ele>757</ele>
        <time>2018-06-23T09:31:57.000Z</time>
      </trkpt>
      <trkpt lat="47.85224" lon="6.75167">
        <ele>756</ele>
        <time>2018-06-23T09:31:58.000Z</time>
      </trkpt>
      <trkpt lat="47.85225" lon="6.75169">
        <ele>755</ele>
        <time>2018-06-23T09:31:59.000Z</time>
      </trkpt>
      <trkpt lat="47.85226" lon="6.75171">
        <ele>755</ele>
        <time>2018-06-23T09:32:00.000Z</time>
      </trkpt>
      <trkpt lat="47.85226" lon="6.75173">
        <ele>755</ele>
        <time>2018-06-23T09:32:01.000Z</time>
      </trkpt>
      <trkpt lat="47.85227" lon="6.75175">
        <ele>755</ele>
        <time>2018-06-23T09:32:02.000Z</time>
      </trkpt>
      <trkpt lat="47.85227" lon="6.75177">
        <ele>755</ele>
        <time>2018-06-23T09:32:03.000Z</time>
      </trkpt>
      <trkpt lat="47.85228" lon="6.75179">
        <ele>755</ele>
        <time>2018-06-23T09:32:04.000Z</time>
      </trkpt>
      <trkpt lat="47.85228" lon="6.75181">
        <ele>755</ele>
        <time>2018-06-23T09:32:05.000Z</time>
      </trkpt>
      <trkpt lat="47.85228" lon="6.75183">
        <ele>755</ele>
        <time>2018-06-23T09:32:06.000Z</time>
      </trkpt>
      <trkpt lat="47.85228" lon="6.75185">
        <ele>755</ele>
        <time>2018-06-23T09:32:07.000Z</time>
      </trkpt>
      <trkpt lat="47.85229" lon="6.75187">
        <ele>755</ele>
        <time>2018-06-23T09:32:08.000Z</time>
      </trkpt>
      <trkpt lat="47.8523" lon="6.75189">
        <ele>755</ele>
        <time>2018-06-23T09:32:09.000Z</time>
      </trkpt>
      <trkpt lat="47.85231" lon="6.75191">
        <ele>755</ele>
        <time>2018-06-23T09:32:10.000Z</time>
      </trkpt>
      <trkpt lat="47.85231" lon="6.75193">
        <ele>755</ele>
        <time>2018-06-23T09:32:11.000Z</time>
      </trkpt>
      <trkpt lat="47.85232" lon="6.75194">
        <ele>755</ele>
        <time>2018-06-23T09:32:12.000Z</time>
      </trkpt>
      <trkpt lat="47.85232" lon="6.75195">
        <ele>755</ele>
        <time>2018-06-23T09:32:13.000Z</time>
      </trkpt>
      <trkpt lat="47.85233" lon="6.75195">
        <ele>755</ele>
        <time>2018-06-23T09:32:14.000Z</time>
      </trkpt>
      <trkpt lat="47.85233" lon="6.75195">
        <ele>755</ele>
        <time>2018-06-23T09:32:15.000Z</time>
      </trkpt>
      <trkpt lat="47.85234" lon="6.75195">
        <ele>755</ele>
        <time>2018-06-23T09:32:16.000Z</time>
      </trkpt>
      <trkpt lat="47.85235" lon="6.75195">
        <ele>755</ele>
        <time>2018-06-23T09:32:17.000Z</time>
      </trkpt>
      <trkpt lat="47.85235" lon="6.75196">
        <ele>755</ele>
        <time>2018-06-23T09:32:18.000Z</time>
      </trkpt>
      <trkpt lat="47.85236" lon="6.75196">
        <ele>755</ele>
        <time>2018-06-23T09:32:19.000Z</time>
      </trkpt>
      <trkpt lat="47.85236" lon="6.75196">
        <ele>755</ele>
        <time>2018-06-23T09:32:20.000Z</time>
      </trkpt>
      <trkpt lat="47.85236" lon="6.75196">
        <ele>755</ele>
        <time>2018-06-23T09:32:21.000Z</time>
      </trkpt>
      <trkpt lat="47.85236" lon="6.75197">
        <ele>755</ele>
        <time>2018-06-23T09:32:22.000Z</time>
      </trkpt>
      <trkpt lat="47.85236" lon="6.75197">
        <ele>755</ele>
        <time>2018-06-23T09:32:23.000Z</time>
      </trkpt>
      <trkpt lat="47.85236" lon="6.75197">
        <ele>755</ele>
        <time>2018-06-23T09:32:24.000Z</time>
      </trkpt>
      <trkpt lat="47.85236" lon="6.75198">
        <ele>755</ele>
        <time>2018-06-23T09:32:25.000Z</time>
      </trkpt>
      <trkpt lat="47.85236" lon="6.75198">
        <ele>755</ele>
        <time>2018-06-23T09:32:26.000Z</time>
      </trkpt>
      <trkpt lat="47.85236" lon="6.75198">
        <ele>755</ele>
        <time>2018-06-23T09:32:27.000Z</time>
      </trkpt>
      <trkpt lat="47.85236" lon="6.75198">
        <ele>755</ele>
        <time>2018-06-23T09:32:28.000Z</time>
      </trkpt>
      <trkpt lat="47.85237" lon="6.75199">
        <ele>755</ele>
        <time>2018-06-23T09:32:29.000Z</time>
      </trkpt>
      <trkpt lat="47.85237" lon="6.75199">
        <ele>755</ele>
        <time>2018-06-23T09:32:30.000Z</time>
      </trkpt>
      <trkpt lat="47.85237" lon="6.75199">
        <ele>755</ele>
        <time>2018-06-23T09:32:31.000Z</time>
      </trkpt>
      <trkpt lat="47.85237" lon="6.75199">
        <ele>755</ele>
        <time>2018-06-23T09:32:32.000Z</time>
      </trkpt>
      <trkpt lat="47.85237" lon="6.752">
        <ele>755</ele>
        <time>2018-06-23T09:32:33.000Z</time>
      </trkpt>
      <trkpt lat="47.85237" lon="6.752">
        <ele>755</ele>
        <time>2018-06-23T09:32:34.000Z</time>
      </trkpt>
      <trkpt lat="47.85237" lon="6.752">
        <ele>755</ele>
        <time>2018-06-23T09:32:35.000Z</time>
      </trkpt>
      <trkpt lat="47.85237" lon="6.752">
        <ele>755</ele>
        <time>2018-06-23T09:32:36.000Z</time>
      </trkpt>
      <trkpt lat="47.85237" lon="6.75201">
        <ele>755</ele>
        <time>2018-06-23T09:32:37.000Z</time>
      </trkpt>
      <trkpt lat="47.85237" lon="6.75201">
        <ele>755</ele>
        <time>2018-06-23T09:32:38.000Z</time>
      </trkpt>
      <trkpt lat="47.85237" lon="6.75201">
        <ele>755</ele>
        <time>2018-06-23T09:32:39.000Z</time>
      </trkpt>
      <trkpt lat="47.85237" lon="6.75201">
        <ele>755</ele>
        <time>2018-06-23T09:32:40.000Z</time>
      </trkpt>
      <trkpt lat="47.85237" lon="6.75201">
        <ele>755</ele>
        <time>2018-06-23T09:32:41.000Z</time>
      </trkpt>
      <trkpt lat="47.85237" lon="6.75201">
        <ele>755</ele>
        <time>2018-06-23T09:32:42.000Z</time>
      </trkpt>
      <trkpt lat="47.85237" lon="6.75201">
        <ele>755</ele>
        <time>2018-06-23T09:32:43.000Z</time>
      </trkpt>
      <trkpt lat="47.85237" lon="6.75201">
        <ele>755</ele>
        <time>2018-06-23T09:32:44.000Z</time>
      </trkpt>
      <trkpt lat="47.85237" lon="6.75201">
        <ele>755</ele>
        <time>2018-06-23T09:32:45.000Z</time>
      </trkpt>
      <trkpt lat="47.85237" lon="6.75201">
        <ele>755</ele>
        <time>2018-06-23T09:32:46.000Z</time>
      </trkpt>
      <trkpt lat="47.85237" lon="6.75201">
        <ele>755</ele>
        <time>2018-06-23T09:32:47.000Z</time>
      </trkpt>
      <trkpt lat="47.85238" lon="6.75201">
        <ele>755</ele>
        <time>2018-06-23T09:32:48.000Z</time>
      </trkpt>
      <trkpt lat="47.85238" lon="6.75201">
        <ele>755</ele>
        <time>2018-06-23T09:32:49.000Z</time>
      </trkpt>
      <trkpt lat="47.85238" lon="6.75201">
        <ele>755</ele>
        <time>2018-06-23T09:32:50.000Z</time>
      </trkpt>
      <trkpt lat="47.85238" lon="6.75201">
        <ele>755</ele>
        <time>2018-06-23T09:32:51.000Z</time>
      </trkpt>
      <trkpt lat="47.85238" lon="6.75201">
        <ele>755</ele>
        <time>2018-06-23T09:32:52.000Z</time>
      </trkpt>
      <trkpt lat="47.85238" lon="6.75202">
        <ele>755</ele>
        <time>2018-06-23T09:32:53.000Z</time>
      </trkpt>
      <trkpt lat="47.85238" lon="6.75202">
        <ele>755</ele>
        <time>2018-06-23T09:32:54.000Z</time>
      </trkpt>
      <trkpt lat="47.85238" lon="6.75202">
        <ele>755</ele>
        <time>2018-06-23T09:32:55.000Z</time>
      </trkpt>
      <trkpt lat="47.85238" lon="6.75202">
        <ele>755</ele>
        <time>2018-06-23T09:32:56.000Z</time>
      </trkpt>
      <trkpt lat="47.85238" lon="6.75202">
        <ele>755</ele>
        <time>2018-06-23T09:32:57.000Z</time>
      </trkpt>
      <trkpt lat="47.85238" lon="6.75202">
        <ele>755</ele>
        <time>2018-06-23T09:32:58.000Z</time>
      </trkpt>
      <trkpt lat="47.85238" lon="6.75202">
        <ele>755</ele>
        <time>2018-06-23T09:32:59.000Z</time>
      </trkpt>
      <trkpt lat="47.85238" lon="6.75202">
        <ele>755</ele>
        <time>2018-06-23T09:33:00.000Z</time>
      </trkpt>
      <trkpt lat="47.85238" lon="6.75202">
        <ele>755</ele>
        <time>2018-06-23T09:33:01.000Z</time>
      </trkpt>
      <trkpt lat="47.85238" lon="6.75202">
        <ele>755</ele>
        <time>2018-06-23T09:33:02.000Z</time>
      </trkpt>
      <trkpt lat="47.85238" lon="6.75202">
        <ele>755</ele>
        <time>2018-06-23T09:33:03.000Z</time>
      </trkpt>
      <trkpt lat="47.85238" lon="6.75202">
        <ele>755</ele>
        <time>2018-06-23T09:33:04.000Z</time>
      </trkpt>
      <trkpt lat="47.85239" lon="6.75202">
        <ele>755</ele>
        <time>2018-06-23T09:33:05.000Z</time>
      </trkpt>
      <trkpt lat="47.85239" lon="6.75202">
        <ele>755</ele>
        <time>2018-06-23T09:33:06.000Z</time>
      </trkpt>
      <trkpt lat="47.85239" lon="6.75202">
        <ele>755</ele>
        <time>2018-06-23T09:33:07.000Z</time>
      </trkpt>
      <trkpt lat="47.85239" lon="6.75202">
        <ele>755</ele>
        <time>2018-06-23T09:33:08.000Z</time>
      </trkpt>
      <trkpt lat="47.85239" lon="6.75202">
        <ele>755</ele>
        <time>2018-06-23T09:33:09.000Z</time>
      </trkpt>
      <trkpt lat="47.85239" lon="6.75202">
        <ele>755</ele>
        <time>2018-06-23T09:33:10.000Z</time>
      </trkpt>
      <trkpt lat="47.85239" lon="6.75202">
        <ele>755</ele>
        <time>2018-06-23T09:33:11.000Z</time>
      </trkpt>
      <trkpt lat="47.85239" lon="6.75202">
        <ele>755</ele>
        <time>2018-06-23T09:33:12.000Z</time>
      </trkpt>
      <trkpt lat="47.85239" lon="6.75202">
        <ele>755</ele>
        <time>2018-06-23T09:33:13.000Z</time>
      </trkpt>
      <trkpt lat="47.85239" lon="6.75202">
        <ele>755</ele>
        <time>2018-06-23T09:33:14.000Z</time>
      </trkpt>
      <trkpt lat="47.85239" lon="6.75202">
        <ele>755</ele>
        <time>2018-06-23T09:33:15.000Z</time>
      </trkpt>
      <trkpt lat="47.85239" lon="6.75203">
        <ele>755</ele>
        <time>2018-06-23T09:33:16.000Z</time>
      </trkpt>
      <trkpt lat="47.85238" lon="6.75203">
        <ele>755</ele>
        <time>2018-06-23T09:33:17.000Z</time>
      </trkpt>
      <trkpt lat="47.85238" lon="6.75203">
        <ele>755</ele>
        <time>2018-06-23T09:33:18.000Z</time>
      </trkpt>
      <trkpt lat="47.85237" lon="6.75204">
        <ele>755</ele>
        <time>2018-06-23T09:33:19.000Z</time>
      </trkpt>
      <trkpt lat="47.85237" lon="6.75205">
        <ele>755</ele>
        <time>2018-06-23T09:33:20.000Z</time>
      </trkpt>
      <trkpt lat="47.85237" lon="6.75206">
        <ele>755</ele>
        <time>2018-06-23T09:33:21.000Z</time>
      </trkpt>
      <trkpt lat="47.85237" lon="6.75208">
        <ele>755</ele>
        <time>2018-06-23T09:33:22.000Z</time>
      </trkpt>
      <trkpt lat="47.85238" lon="6.75209">
        <ele>755</ele>
        <time>2018-06-23T09:33:23.000Z</time>
      </trkpt>
      <trkpt lat="47.85238" lon="6.75211">
        <ele>755</ele>
        <time>2018-06-23T09:33:24.000Z</time>
      </trkpt>
      <trkpt lat="47.85238" lon="6.75213">
        <ele>755</ele>
        <time>2018-06-23T09:33:25.000Z</time>
      </trkpt>
      <trkpt lat="47.85238" lon="6.75215">
        <ele>755</ele>
        <time>2018-06-23T09:33:26.000Z</time>
      </trkpt>
      <trkpt lat="47.85238" lon="6.75217">
        <ele>755</ele>
        <time>2018-06-23T09:33:27.000Z</time>
      </trkpt>
      <trkpt lat="47.85239" lon="6.75219">
        <ele>755</ele>
        <time>2018-06-23T09:33:28.000Z</time>
      </trkpt>
      <trkpt lat="47.85239" lon="6.7522">
        <ele>754</ele>
        <time>2018-06-23T09:33:29.000Z</time>
      </trkpt>
      <trkpt lat="47.8524" lon="6.75222">
        <ele>754</ele>
        <time>2018-06-23T09:33:30.000Z</time>
      </trkpt>
      <trkpt lat="47.8524" lon="6.75224">
        <ele>754</ele>
        <time>2018-06-23T09:33:31.000Z</time>
      </trkpt>
      <trkpt lat="47.85241" lon="6.75226">
        <ele>754</ele>
        <time>2018-06-23T09:33:32.000Z</time>
      </trkpt>
      <trkpt lat="47.85241" lon="6.75227">
        <ele>754</ele>
        <time>2018-06-23T09:33:33.000Z</time>
      </trkpt>
      <trkpt lat="47.85242" lon="6.75229">
        <ele>753</ele>
        <time>2018-06-23T09:33:34.000Z</time>
      </trkpt>
      <trkpt lat="47.85243" lon="6.75231">
        <ele>753</ele>
        <time>2018-06-23T09:33:35.000Z</time>
      </trkpt>
      <trkpt lat="47.85244" lon="6.75232">
        <ele>753</ele>
        <time>2018-06-23T09:33:36.000Z</time>
      </trkpt>
      <trkpt lat="47.85245" lon="6.75234">
        <ele>753</ele>
        <time>2018-06-23T09:33:37.000Z</time>
      </trkpt>
      <trkpt lat="47.85246" lon="6.75235">
        <ele>752</ele>
        <time>2018-06-23T09:33:38.000Z</time>
      </trkpt>
      <trkpt lat="47.85246" lon="6.75237">
        <ele>752</ele>
        <time>2018-06-23T09:33:39.000Z</time>
      </trkpt>
      <trkpt lat="47.85247" lon="6.75239">
        <ele>751</ele>
        <time>2018-06-23T09:33:40.000Z</time>
      </trkpt>
      <trkpt lat="47.85248" lon="6.75241">
        <ele>751</ele>
        <time>2018-06-23T09:33:41.000Z</time>
      </trkpt>
      <trkpt lat="47.85248" lon="6.75242">
        <ele>751</ele>
        <time>2018-06-23T09:33:42.000Z</time>
      </trkpt>
      <trkpt lat="47.85249" lon="6.75244">
        <ele>750</ele>
        <time>2018-06-23T09:33:43.000Z</time>
      </trkpt>
      <trkpt lat="47.85249" lon="6.75246">
        <ele>749</ele>
        <time>2018-06-23T09:33:44.000Z</time>
      </trkpt>
      <trkpt lat="47.8525" lon="6.75248">
        <ele>749</ele>
        <time>2018-06-23T09:33:45.000Z</time>
      </trkpt>
      <trkpt lat="47.85251" lon="6.75249">
        <ele>748</ele>
        <time>2018-06-23T09:33:46.000Z</time>
      </trkpt>
      <trkpt lat="47.85251" lon="6.75251">
        <ele>747</ele>
        <time>2018-06-23T09:33:47.000Z</time>
      </trkpt>
      <trkpt lat="47.85252" lon="6.75252">
        <ele>747</ele>
        <time>2018-06-23T09:33:48.000Z</time>
      </trkpt>
      <trkpt lat="47.85253" lon="6.75254">
        <ele>746</ele>
        <time>2018-06-23T09:33:49.000Z</time>
      </trkpt>
      <trkpt lat="47.85253" lon="6.75256">
        <ele>746</ele>
        <time>2018-06-23T09:33:50.000Z</time>
      </trkpt>
      <trkpt lat="47.85254" lon="6.75257">
        <ele>745</ele>
        <time>2018-06-23T09:33:51.000Z</time>
      </trkpt>
      <trkpt lat="47.85254" lon="6.75258">
        <ele>745</ele>
        <time>2018-06-23T09:33:52.000Z</time>
      </trkpt>
      <trkpt lat="47.85255" lon="6.7526">
        <ele>745</ele>
        <time>2018-06-23T09:33:53.000Z</time>
      </trkpt>
      <trkpt lat="47.85256" lon="6.75262">
        <ele>744</ele>
        <time>2018-06-23T09:33:54.000Z</time>
      </trkpt>
      <trkpt lat="47.85256" lon="6.75263">
        <ele>744</ele>
        <time>2018-06-23T09:33:55.000Z</time>
      </trkpt>
      <trkpt lat="47.85256" lon="6.75265">
        <ele>744</ele>
        <time>2018-06-23T09:33:56.000Z</time>
      </trkpt>
      <trkpt lat="47.85256" lon="6.75266">
        <ele>743</ele>
        <time>2018-06-23T09:33:57.000Z</time>
      </trkpt>
      <trkpt lat="47.85257" lon="6.75268">
        <ele>743</ele>
        <time>2018-06-23T09:33:58.000Z</time>
      </trkpt>
      <trkpt lat="47.85257" lon="6.75269">
        <ele>743</ele>
        <time>2018-06-23T09:33:59.000Z</time>
      </trkpt>
      <trkpt lat="47.85257" lon="6.75271">
        <ele>743</ele>
        <time>2018-06-23T09:34:00.000Z</time>
      </trkpt>
      <trkpt lat="47.85258" lon="6.75272">
        <ele>743</ele>
        <time>2018-06-23T09:34:01.000Z</time>
      </trkpt>
      <trkpt lat="47.85258" lon="6.75273">
        <ele>742</ele>
        <time>2018-06-23T09:34:02.000Z</time>
      </trkpt>
      <trkpt lat="47.85259" lon="6.75274">
        <ele>742</ele>
        <time>2018-06-23T09:34:03.000Z</time>
      </trkpt>
      <trkpt lat="47.8526" lon="6.75275">
        <ele>742</ele>
        <time>2018-06-23T09:34:04.000Z</time>
      </trkpt>
      <trkpt lat="47.85261" lon="6.75277">
        <ele>742</ele>
        <time>2018-06-23T09:34:05.000Z</time>
      </trkpt>
      <trkpt lat="47.85262" lon="6.75279">
        <ele>742</ele>
        <time>2018-06-23T09:34:06.000Z</time>
      </trkpt>
      <trkpt lat="47.85263" lon="6.7528">
        <ele>742</ele>
        <time>2018-06-23T09:34:07.000Z</time>
      </trkpt>
      <trkpt lat="47.85264" lon="6.75282">
        <ele>741</ele>
        <time>2018-06-23T09:34:08.000Z</time>
      </trkpt>
      <trkpt lat="47.85265" lon="6.75283">
        <ele>741</ele>
        <time>2018-06-23T09:34:09.000Z</time>
      </trkpt>
      <trkpt lat="47.85266" lon="6.75285">
        <ele>741</ele>
        <time>2018-06-23T09:34:10.000Z</time>
      </trkpt>
      <trkpt lat="47.85267" lon="6.75286">
        <ele>741</ele>
        <time>2018-06-23T09:34:11.000Z</time>
      </trkpt>
      <trkpt lat="47.85268" lon="6.75287">
        <ele>741</ele>
        <time>2018-06-23T09:34:12.000Z</time>
      </trkpt>
      <trkpt lat="47.85268" lon="6.75289">
        <ele>741</ele>
        <time>2018-06-23T09:34:13.000Z</time>
      </trkpt>
      <trkpt lat="47.85269" lon="6.7529">
        <ele>741</ele>
        <time>2018-06-23T09:34:14.000Z</time>
      </trkpt>
      <trkpt lat="47.85269" lon="6.75292">
        <ele>741</ele>
        <time>2018-06-23T09:34:15.000Z</time>
      </trkpt>
      <trkpt lat="47.8527" lon="6.75293">
        <ele>741</ele>
        <time>2018-06-23T09:34:16.000Z</time>
      </trkpt>
      <trkpt lat="47.85271" lon="6.75295">
        <ele>741</ele>
        <time>2018-06-23T09:34:17.000Z</time>
      </trkpt>
      <trkpt lat="47.85271" lon="6.75296">
        <ele>741</ele>
        <time>2018-06-23T09:34:18.000Z</time>
      </trkpt>
      <trkpt lat="47.85272" lon="6.75298">
        <ele>741</ele>
        <time>2018-06-23T09:34:19.000Z</time>
      </trkpt>
      <trkpt lat="47.85273" lon="6.753">
        <ele>741</ele>
        <time>2018-06-23T09:34:20.000Z</time>
      </trkpt>
      <trkpt lat="47.85274" lon="6.75301">
        <ele>741</ele>
        <time>2018-06-23T09:34:21.000Z</time>
      </trkpt>
      <trkpt lat="47.85274" lon="6.75302">
        <ele>741</ele>
        <time>2018-06-23T09:34:22.000Z</time>
      </trkpt>
      <trkpt lat="47.85275" lon="6.75304">
        <ele>740</ele>
        <time>2018-06-23T09:34:23.000Z</time>
      </trkpt>
      <trkpt lat="47.85276" lon="6.75305">
        <ele>740</ele>
        <time>2018-06-23T09:34:24.000Z</time>
      </trkpt>
      <trkpt lat="47.85277" lon="6.75307">
        <ele>740</ele>
        <time>2018-06-23T09:34:25.000Z</time>
      </trkpt>
      <trkpt lat="47.85278" lon="6.75308">
        <ele>740</ele>
        <time>2018-06-23T09:34:26.000Z</time>
      </trkpt>
      <trkpt lat="47.85279" lon="6.75309">
        <ele>740</ele>
        <time>2018-06-23T09:34:27.000Z</time>
      </trkpt>
      <trkpt lat="47.8528" lon="6.75311">
        <ele>740</ele>
        <time>2018-06-23T09:34:28.000Z</time>
      </trkpt>
      <trkpt lat="47.85281" lon="6.75312">
        <ele>740</ele>
        <time>2018-06-23T09:34:29.000Z</time>
      </trkpt>
      <trkpt lat="47.85282" lon="6.75313">
        <ele>740</ele>
        <time>2018-06-23T09:34:30.000Z</time>
      </trkpt>
      <trkpt lat="47.85283" lon="6.75314">
        <ele>740</ele>
        <time>2018-06-23T09:34:31.000Z</time>
      </trkpt>
      <trkpt lat="47.85285" lon="6.75314">
        <ele>739</ele>
        <time>2018-06-23T09:34:32.000Z</time>
      </trkpt>
      <trkpt lat="47.85287" lon="6.75315">
        <ele>739</ele>
        <time>2018-06-23T09:34:33.000Z</time>
      </trkpt>
      <trkpt lat="47.85288" lon="6.75317">
        <ele>739</ele>
        <time>2018-06-23T09:34:34.000Z</time>
      </trkpt>
      <trkpt lat="47.85289" lon="6.75318">
        <ele>739</ele>
        <time>2018-06-23T09:34:35.000Z</time>
      </trkpt>
      <trkpt lat="47.8529" lon="6.75319">
        <ele>739</ele>
        <time>2018-06-23T09:34:36.000Z</time>
      </trkpt>
      <trkpt lat="47.85291" lon="6.7532">
        <ele>739</ele>
        <time>2018-06-23T09:34:37.000Z</time>
      </trkpt>
      <trkpt lat="47.85292" lon="6.75322">
        <ele>738</ele>
        <time>2018-06-23T09:34:38.000Z</time>
      </trkpt>
      <trkpt lat="47.85292" lon="6.75323">
        <ele>738</ele>
        <time>2018-06-23T09:34:39.000Z</time>
      </trkpt>
      <trkpt lat="47.85293" lon="6.75324">
        <ele>738</ele>
        <time>2018-06-23T09:34:40.000Z</time>
      </trkpt>
      <trkpt lat="47.85294" lon="6.75325">
        <ele>738</ele>
        <time>2018-06-23T09:34:41.000Z</time>
      </trkpt>
      <trkpt lat="47.85295" lon="6.75326">
        <ele>738</ele>
        <time>2018-06-23T09:34:42.000Z</time>
      </trkpt>
      <trkpt lat="47.85295" lon="6.75326">
        <ele>738</ele>
        <time>2018-06-23T09:34:43.000Z</time>
      </trkpt>
      <trkpt lat="47.85296" lon="6.75328">
        <ele>738</ele>
        <time>2018-06-23T09:34:44.000Z</time>
      </trkpt>
      <trkpt lat="47.85297" lon="6.75329">
        <ele>738</ele>
        <time>2018-06-23T09:34:45.000Z</time>
      </trkpt>
      <trkpt lat="47.85298" lon="6.7533">
        <ele>737</ele>
        <time>2018-06-23T09:34:46.000Z</time>
      </trkpt>
      <trkpt lat="47.85299" lon="6.75331">
        <ele>737</ele>
        <time>2018-06-23T09:34:47.000Z</time>
      </trkpt>
      <trkpt lat="47.85301" lon="6.75332">
        <ele>737</ele>
        <time>2018-06-23T09:34:48.000Z</time>
      </trkpt>
      <trkpt lat="47.85302" lon="6.75333">
        <ele>737</ele>
        <time>2018-06-23T09:34:49.000Z</time>
      </trkpt>
      <trkpt lat="47.85303" lon="6.75334">
        <ele>736</ele>
        <time>2018-06-23T09:34:50.000Z</time>
      </trkpt>
      <trkpt lat="47.85304" lon="6.75335">
        <ele>736</ele>
        <time>2018-06-23T09:34:51.000Z</time>
      </trkpt>
      <trkpt lat="47.85305" lon="6.75336">
        <ele>736</ele>
        <time>2018-06-23T09:34:52.000Z</time>
      </trkpt>
      <trkpt lat="47.85306" lon="6.75337">
        <ele>736</ele>
        <time>2018-06-23T09:34:53.000Z</time>
      </trkpt>
      <trkpt lat="47.85307" lon="6.75338">
        <ele>736</ele>
        <time>2018-06-23T09:34:54.000Z</time>
      </trkpt>
      <trkpt lat="47.85307" lon="6.75339">
        <ele>735</ele>
        <time>2018-06-23T09:34:55.000Z</time>
      </trkpt>
      <trkpt lat="47.85308" lon="6.7534">
        <ele>735</ele>
        <time>2018-06-23T09:34:56.000Z</time>
      </trkpt>
      <trkpt lat="47.8531" lon="6.75342">
        <ele>735</ele>
        <time>2018-06-23T09:34:57.000Z</time>
      </trkpt>
      <trkpt lat="47.8531" lon="6.75343">
        <ele>735</ele>
        <time>2018-06-23T09:34:58.000Z</time>
      </trkpt>
      <trkpt lat="47.85311" lon="6.75344">
        <ele>735</ele>
        <time>2018-06-23T09:34:59.000Z</time>
      </trkpt>
      <trkpt lat="47.85312" lon="6.75346">
        <ele>735</ele>
        <time>2018-06-23T09:35:00.000Z</time>
      </trkpt>
      <trkpt lat="47.85314" lon="6.75348">
        <ele>735</ele>
        <time>2018-06-23T09:35:01.000Z</time>
      </trkpt>
      <trkpt lat="47.85315" lon="6.75349">
        <ele>735</ele>
        <time>2018-06-23T09:35:02.000Z</time>
      </trkpt>
      <trkpt lat="47.85316" lon="6.7535">
        <ele>734</ele>
        <time>2018-06-23T09:35:03.000Z</time>
      </trkpt>
      <trkpt lat="47.85317" lon="6.75351">
        <ele>734</ele>
        <time>2018-06-23T09:35:04.000Z</time>
      </trkpt>
      <trkpt lat="47.85319" lon="6.75352">
        <ele>734</ele>
        <time>2018-06-23T09:35:05.000Z</time>
      </trkpt>
      <trkpt lat="47.8532" lon="6.75353">
        <ele>734</ele>
        <time>2018-06-23T09:35:06.000Z</time>
      </trkpt>
      <trkpt lat="47.85321" lon="6.75354">
        <ele>734</ele>
        <time>2018-06-23T09:35:07.000Z</time>
      </trkpt>
      <trkpt lat="47.85322" lon="6.75355">
        <ele>734</ele>
        <time>2018-06-23T09:35:08.000Z</time>
      </trkpt>
      <trkpt lat="47.85323" lon="6.75356">
        <ele>734</ele>
        <time>2018-06-23T09:35:09.000Z</time>
      </trkpt>
      <trkpt lat="47.85324" lon="6.75358">
        <ele>734</ele>
        <time>2018-06-23T09:35:10.000Z</time>
      </trkpt>
      <trkpt lat="47.85325" lon="6.75359">
        <ele>734</ele>
        <time>2018-06-23T09:35:11.000Z</time>
      </trkpt>
      <trkpt lat="47.85325" lon="6.75361">
        <ele>734</ele>
        <time>2018-06-23T09:35:12.000Z</time>
      </trkpt>
      <trkpt lat="47.85326" lon="6.75363">
        <ele>734</ele>
        <time>2018-06-23T09:35:13.000Z</time>
      </trkpt>
      <trkpt lat="47.85326" lon="6.75364">
        <ele>734</ele>
        <time>2018-06-23T09:35:14.000Z</time>
      </trkpt>
      <trkpt lat="47.85327" lon="6.75365">
        <ele>734</ele>
        <time>2018-06-23T09:35:15.000Z</time>
      </trkpt>
      <trkpt lat="47.85327" lon="6.75367">
        <ele>734</ele>
        <time>2018-06-23T09:35:16.000Z</time>
      </trkpt>
      <trkpt lat="47.85328" lon="6.75369">
        <ele>734</ele>
        <time>2018-06-23T09:35:17.000Z</time>
      </trkpt>
      <trkpt lat="47.85329" lon="6.75371">
        <ele>734</ele>
        <time>2018-06-23T09:35:18.000Z</time>
      </trkpt>
      <trkpt lat="47.85329" lon="6.75372">
        <ele>734</ele>
        <time>2018-06-23T09:35:19.000Z</time>
      </trkpt>
      <trkpt lat="47.8533" lon="6.75374">
        <ele>734</ele>
        <time>2018-06-23T09:35:20.000Z</time>
      </trkpt>
      <trkpt lat="47.85331" lon="6.75375">
        <ele>734</ele>
        <time>2018-06-23T09:35:21.000Z</time>
      </trkpt>
      <trkpt lat="47.85331" lon="6.75376">
        <ele>734</ele>
        <time>2018-06-23T09:35:22.000Z</time>
      </trkpt>
      <trkpt lat="47.85331" lon="6.75377">
        <ele>734</ele>
        <time>2018-06-23T09:35:23.000Z</time>
      </trkpt>
      <trkpt lat="47.85332" lon="6.75379">
        <ele>734</ele>
        <time>2018-06-23T09:35:24.000Z</time>
      </trkpt>
      <trkpt lat="47.85332" lon="6.7538">
        <ele>734</ele>
        <time>2018-06-23T09:35:25.000Z</time>
      </trkpt>
      <trkpt lat="47.85333" lon="6.75382">
        <ele>734</ele>
        <time>2018-06-23T09:35:26.000Z</time>
      </trkpt>
      <trkpt lat="47.85334" lon="6.75384">
        <ele>720</ele>
        <time>2018-06-23T09:35:27.000Z</time>
      </trkpt>
      <trkpt lat="47.85335" lon="6.75385">
        <ele>720</ele>
        <time>2018-06-23T09:35:28.000Z</time>
      </trkpt>
      <trkpt lat="47.85335" lon="6.75387">
        <ele>720</ele>
        <time>2018-06-23T09:35:29.000Z</time>
      </trkpt>
      <trkpt lat="47.85336" lon="6.75389">
        <ele>721</ele>
        <time>2018-06-23T09:35:30.000Z</time>
      </trkpt>
      <trkpt lat="47.85337" lon="6.75391">
        <ele>721</ele>
        <time>2018-06-23T09:35:31.000Z</time>
      </trkpt>
      <trkpt lat="47.85338" lon="6.75392">
        <ele>721</ele>
        <time>2018-06-23T09:35:32.000Z</time>
      </trkpt>
      <trkpt lat="47.85339" lon="6.75394">
        <ele>721</ele>
        <time>2018-06-23T09:35:33.000Z</time>
      </trkpt>
      <trkpt lat="47.85339" lon="6.75396">
        <ele>721</ele>
        <time>2018-06-23T09:35:34.000Z</time>
      </trkpt>
      <trkpt lat="47.8534" lon="6.75398">
        <ele>721</ele>
        <time>2018-06-23T09:35:35.000Z</time>
      </trkpt>
      <trkpt lat="47.85341" lon="6.754">
        <ele>721</ele>
        <time>2018-06-23T09:35:36.000Z</time>
      </trkpt>
      <trkpt lat="47.85342" lon="6.75402">
        <ele>722</ele>
        <time>2018-06-23T09:35:37.000Z</time>
      </trkpt>
      <trkpt lat="47.85342" lon="6.75404">
        <ele>722</ele>
        <time>2018-06-23T09:35:38.000Z</time>
      </trkpt>
      <trkpt lat="47.85343" lon="6.75406">
        <ele>722</ele>
        <time>2018-06-23T09:35:39.000Z</time>
      </trkpt>
      <trkpt lat="47.85344" lon="6.75408">
        <ele>722</ele>
        <time>2018-06-23T09:35:40.000Z</time>
      </trkpt>
      <trkpt lat="47.85344" lon="6.75409">
        <ele>722</ele>
        <time>2018-06-23T09:35:41.000Z</time>
      </trkpt>
      <trkpt lat="47.85345" lon="6.75411">
        <ele>722</ele>
        <time>2018-06-23T09:35:42.000Z</time>
      </trkpt>
      <trkpt lat="47.85346" lon="6.75413">
        <ele>722</ele>
        <time>2018-06-23T09:35:43.000Z</time>
      </trkpt>
      <trkpt lat="47.85348" lon="6.75415">
        <ele>722</ele>
        <time>2018-06-23T09:35:44.000Z</time>
      </trkpt>
      <trkpt lat="47.85349" lon="6.75417">
        <ele>721</ele>
        <time>2018-06-23T09:35:45.000Z</time>
      </trkpt>
      <trkpt lat="47.85351" lon="6.75419">
        <ele>721</ele>
        <time>2018-06-23T09:35:46.000Z</time>
      </trkpt>
      <trkpt lat="47.85352" lon="6.7542">
        <ele>721</ele>
        <time>2018-06-23T09:35:47.000Z</time>
      </trkpt>
      <trkpt lat="47.85353" lon="6.75422">
        <ele>720</ele>
        <time>2018-06-23T09:35:48.000Z</time>
      </trkpt>
      <trkpt lat="47.85355" lon="6.75424">
        <ele>720</ele>
        <time>2018-06-23T09:35:49.000Z</time>
      </trkpt>
      <trkpt lat="47.85356" lon="6.75426">
        <ele>720</ele>
        <time>2018-06-23T09:35:50.000Z</time>
      </trkpt>
      <trkpt lat="47.85357" lon="6.75427">
        <ele>719</ele>
        <time>2018-06-23T09:35:51.000Z</time>
      </trkpt>
      <trkpt lat="47.85358" lon="6.75429">
        <ele>719</ele>
        <time>2018-06-23T09:35:52.000Z</time>
      </trkpt>
      <trkpt lat="47.85359" lon="6.7543">
        <ele>719</ele>
        <time>2018-06-23T09:35:53.000Z</time>
      </trkpt>
      <trkpt lat="47.85359" lon="6.75431">
        <ele>719</ele>
        <time>2018-06-23T09:35:54.000Z</time>
      </trkpt>
      <trkpt lat="47.8536" lon="6.75433">
        <ele>718</ele>
        <time>2018-06-23T09:35:55.000Z</time>
      </trkpt>
      <trkpt lat="47.85361" lon="6.75435">
        <ele>718</ele>
        <time>2018-06-23T09:35:56.000Z</time>
      </trkpt>
      <trkpt lat="47.85362" lon="6.75437">
        <ele>718</ele>
        <time>2018-06-23T09:35:57.000Z</time>
      </trkpt>
      <trkpt lat="47.85363" lon="6.75439">
        <ele>718</ele>
        <time>2018-06-23T09:35:58.000Z</time>
      </trkpt>
      <trkpt lat="47.85364" lon="6.7544">
        <ele>718</ele>
        <time>2018-06-23T09:35:59.000Z</time>
      </trkpt>
      <trkpt lat="47.85365" lon="6.75442">
        <ele>717</ele>
        <time>2018-06-23T09:36:00.000Z</time>
      </trkpt>
      <trkpt lat="47.85366" lon="6.75444">
        <ele>717</ele>
        <time>2018-06-23T09:36:01.000Z</time>
      </trkpt>
      <trkpt lat="47.85368" lon="6.75445">
        <ele>717</ele>
        <time>2018-06-23T09:36:02.000Z</time>
      </trkpt>
      <trkpt lat="47.85369" lon="6.75447">
        <ele>717</ele>
        <time>2018-06-23T09:36:03.000Z</time>
      </trkpt>
      <trkpt lat="47.8537" lon="6.75449">
        <ele>717</ele>
        <time>2018-06-23T09:36:04.000Z</time>
      </trkpt>
      <trkpt lat="47.8537" lon="6.7545">
        <ele>717</ele>
        <time>2018-06-23T09:36:05.000Z</time>
      </trkpt>
      <trkpt lat="47.85371" lon="6.75452">
        <ele>716</ele>
        <time>2018-06-23T09:36:06.000Z</time>
      </trkpt>
      <trkpt lat="47.85372" lon="6.75454">
        <ele>716</ele>
        <time>2018-06-23T09:36:07.000Z</time>
      </trkpt>
      <trkpt lat="47.85372" lon="6.75456">
        <ele>716</ele>
        <time>2018-06-23T09:36:08.000Z</time>
      </trkpt>
      <trkpt lat="47.85373" lon="6.75457">
        <ele>716</ele>
        <time>2018-06-23T09:36:09.000Z</time>
      </trkpt>
      <trkpt lat="47.85373" lon="6.75459">
        <ele>716</ele>
        <time>2018-06-23T09:36:10.000Z</time>
      </trkpt>
      <trkpt lat="47.85373" lon="6.7546">
        <ele>716</ele>
        <time>2018-06-23T09:36:11.000Z</time>
      </trkpt>
      <trkpt lat="47.85374" lon="6.75462">
        <ele>716</ele>
        <time>2018-06-23T09:36:12.000Z</time>
      </trkpt>
      <trkpt lat="47.85374" lon="6.75463">
        <ele>716</ele>
        <time>2018-06-23T09:36:13.000Z</time>
      </trkpt>
      <trkpt lat="47.85375" lon="6.75464">
        <ele>716</ele>
        <time>2018-06-23T09:36:14.000Z</time>
      </trkpt>
      <trkpt lat="47.85376" lon="6.75466">
        <ele>716</ele>
        <time>2018-06-23T09:36:15.000Z</time>
      </trkpt>
      <trkpt lat="47.85376" lon="6.75468">
        <ele>716</ele>
        <time>2018-06-23T09:36:16.000Z</time>
      </trkpt>
      <trkpt lat="47.85377" lon="6.75469">
        <ele>716</ele>
        <time>2018-06-23T09:36:17.000Z</time>
      </trkpt>
      <trkpt lat="47.85377" lon="6.75471">
        <ele>716</ele>
        <time>2018-06-23T09:36:18.000Z</time>
      </trkpt>
      <trkpt lat="47.85378" lon="6.75472">
        <ele>716</ele>
        <time>2018-06-23T09:36:19.000Z</time>
      </trkpt>
      <trkpt lat="47.85378" lon="6.75474">
        <ele>716</ele>
        <time>2018-06-23T09:36:20.000Z</time>
      </trkpt>
      <trkpt lat="47.85379" lon="6.75475">
        <ele>716</ele>
        <time>2018-06-23T09:36:21.000Z</time>
      </trkpt>
      <trkpt lat="47.85379" lon="6.75477">
        <ele>716</ele>
        <time>2018-06-23T09:36:22.000Z</time>
      </trkpt>
      <trkpt lat="47.8538" lon="6.75478">
        <ele>715</ele>
        <time>2018-06-23T09:36:23.000Z</time>
      </trkpt>
      <trkpt lat="47.8538" lon="6.75479">
        <ele>715</ele>
        <time>2018-06-23T09:36:24.000Z</time>
      </trkpt>
      <trkpt lat="47.85381" lon="6.7548">
        <ele>715</ele>
        <time>2018-06-23T09:36:25.000Z</time>
      </trkpt>
      <trkpt lat="47.85382" lon="6.75482">
        <ele>715</ele>
        <time>2018-06-23T09:36:26.000Z</time>
      </trkpt>
      <trkpt lat="47.85382" lon="6.75483">
        <ele>715</ele>
        <time>2018-06-23T09:36:27.000Z</time>
      </trkpt>
      <trkpt lat="47.85383" lon="6.75485">
        <ele>715</ele>
        <time>2018-06-23T09:36:28.000Z</time>
      </trkpt>
      <trkpt lat="47.85384" lon="6.75486">
        <ele>715</ele>
        <time>2018-06-23T09:36:29.000Z</time>
      </trkpt>
      <trkpt lat="47.85384" lon="6.75487">
        <ele>715</ele>
        <time>2018-06-23T09:36:30.000Z</time>
      </trkpt>
      <trkpt lat="47.85384" lon="6.75488">
        <ele>715</ele>
        <time>2018-06-23T09:36:31.000Z</time>
      </trkpt>
      <trkpt lat="47.85384" lon="6.7549">
        <ele>715</ele>
        <time>2018-06-23T09:36:32.000Z</time>
      </trkpt>
      <trkpt lat="47.85385" lon="6.75491">
        <ele>715</ele>
        <time>2018-06-23T09:36:33.000Z</time>
      </trkpt>
      <trkpt lat="47.85385" lon="6.75492">
        <ele>715</ele>
        <time>2018-06-23T09:36:34.000Z</time>
      </trkpt>
      <trkpt lat="47.85385" lon="6.75494">
        <ele>715</ele>
        <time>2018-06-23T09:36:35.000Z</time>
      </trkpt>
      <trkpt lat="47.85385" lon="6.75495">
        <ele>715</ele>
        <time>2018-06-23T09:36:36.000Z</time>
      </trkpt>
      <trkpt lat="47.85386" lon="6.75496">
        <ele>714</ele>
        <time>2018-06-23T09:36:37.000Z</time>
      </trkpt>
      <trkpt lat="47.85386" lon="6.75497">
        <ele>714</ele>
        <time>2018-06-23T09:36:38.000Z</time>
      </trkpt>
      <trkpt lat="47.85386" lon="6.75498">
        <ele>714</ele>
        <time>2018-06-23T09:36:39.000Z</time>
      </trkpt>
      <trkpt lat="47.85387" lon="6.75499">
        <ele>714</ele>
        <time>2018-06-23T09:36:40.000Z</time>
      </trkpt>
      <trkpt lat="47.85387" lon="6.75501">
        <ele>715</ele>
        <time>2018-06-23T09:36:41.000Z</time>
      </trkpt>
      <trkpt lat="47.85387" lon="6.75502">
        <ele>715</ele>
        <time>2018-06-23T09:36:42.000Z</time>
      </trkpt>
      <trkpt lat="47.85387" lon="6.75504">
        <ele>715</ele>
        <time>2018-06-23T09:36:43.000Z</time>
      </trkpt>
      <trkpt lat="47.85387" lon="6.75505">
        <ele>715</ele>
        <time>2018-06-23T09:36:44.000Z</time>
      </trkpt>
      <trkpt lat="47.85388" lon="6.75507">
        <ele>715</ele>
        <time>2018-06-23T09:36:45.000Z</time>
      </trkpt>
      <trkpt lat="47.85388" lon="6.75508">
        <ele>715</ele>
        <time>2018-06-23T09:36:46.000Z</time>
      </trkpt>
      <trkpt lat="47.85388" lon="6.75509">
        <ele>715</ele>
        <time>2018-06-23T09:36:47.000Z</time>
      </trkpt>
      <trkpt lat="47.85388" lon="6.7551">
        <ele>715</ele>
        <time>2018-06-23T09:36:48.000Z</time>
      </trkpt>
      <trkpt lat="47.85388" lon="6.75511">
        <ele>715</ele>
        <time>2018-06-23T09:36:49.000Z</time>
      </trkpt>
      <trkpt lat="47.85389" lon="6.75512">
        <ele>715</ele>
        <time>2018-06-23T09:36:50.000Z</time>
      </trkpt>
      <trkpt lat="47.85389" lon="6.75514">
        <ele>715</ele>
        <time>2018-06-23T09:36:51.000Z</time>
      </trkpt>
      <trkpt lat="47.8539" lon="6.75515">
        <ele>715</ele>
        <time>2018-06-23T09:36:52.000Z</time>
      </trkpt>
      <trkpt lat="47.8539" lon="6.75516">
        <ele>715</ele>
        <time>2018-06-23T09:36:53.000Z</time>
      </trkpt>
      <trkpt lat="47.8539" lon="6.75518">
        <ele>715</ele>
        <time>2018-06-23T09:36:54.000Z</time>
      </trkpt>
      <trkpt lat="47.8539" lon="6.75519">
        <ele>715</ele>
        <time>2018-06-23T09:36:55.000Z</time>
      </trkpt>
      <trkpt lat="47.85391" lon="6.7552">
        <ele>715</ele>
        <time>2018-06-23T09:36:56.000Z</time>
      </trkpt>
      <trkpt lat="47.85391" lon="6.75521">
        <ele>715</ele>
        <time>2018-06-23T09:36:57.000Z</time>
      </trkpt>
      <trkpt lat="47.85391" lon="6.75522">
        <ele>715</ele>
        <time>2018-06-23T09:36:58.000Z</time>
      </trkpt>
      <trkpt lat="47.85392" lon="6.75523">
        <ele>715</ele>
        <time>2018-06-23T09:36:59.000Z</time>
      </trkpt>
      <trkpt lat="47.85392" lon="6.75524">
        <ele>715</ele>
        <time>2018-06-23T09:37:00.000Z</time>
      </trkpt>
      <trkpt lat="47.85393" lon="6.75526">
        <ele>715</ele>
        <time>2018-06-23T09:37:01.000Z</time>
      </trkpt>
      <trkpt lat="47.85393" lon="6.75527">
        <ele>715</ele>
        <time>2018-06-23T09:37:02.000Z</time>
      </trkpt>
      <trkpt lat="47.85394" lon="6.75528">
        <ele>715</ele>
        <time>2018-06-23T09:37:03.000Z</time>
      </trkpt>
      <trkpt lat="47.85394" lon="6.7553">
        <ele>715</ele>
        <time>2018-06-23T09:37:04.000Z</time>
      </trkpt>
      <trkpt lat="47.85395" lon="6.75531">
        <ele>715</ele>
        <time>2018-06-23T09:37:05.000Z</time>
      </trkpt>
      <trkpt lat="47.85395" lon="6.75532">
        <ele>714</ele>
        <time>2018-06-23T09:37:06.000Z</time>
      </trkpt>
      <trkpt lat="47.85396" lon="6.75533">
        <ele>714</ele>
        <time>2018-06-23T09:37:07.000Z</time>
      </trkpt>
      <trkpt lat="47.85397" lon="6.75534">
        <ele>714</ele>
        <time>2018-06-23T09:37:08.000Z</time>
      </trkpt>
      <trkpt lat="47.85398" lon="6.75535">
        <ele>714</ele>
        <time>2018-06-23T09:37:09.000Z</time>
      </trkpt>
      <trkpt lat="47.85398" lon="6.75536">
        <ele>714</ele>
        <time>2018-06-23T09:37:10.000Z</time>
      </trkpt>
      <trkpt lat="47.85399" lon="6.75537">
        <ele>714</ele>
        <time>2018-06-23T09:37:11.000Z</time>
      </trkpt>
      <trkpt lat="47.85399" lon="6.75538">
        <ele>714</ele>
        <time>2018-06-23T09:37:12.000Z</time>
      </trkpt>
      <trkpt lat="47.85399" lon="6.75539">
        <ele>714</ele>
        <time>2018-06-23T09:37:13.000Z</time>
      </trkpt>
      <trkpt lat="47.85399" lon="6.75541">
        <ele>714</ele>
        <time>2018-06-23T09:37:14.000Z</time>
      </trkpt>
      <trkpt lat="47.85399" lon="6.75542">
        <ele>714</ele>
        <time>2018-06-23T09:37:15.000Z</time>
      </trkpt>
      <trkpt lat="47.854" lon="6.75544">
        <ele>714</ele>
        <time>2018-06-23T09:37:16.000Z</time>
      </trkpt>
      <trkpt lat="47.854" lon="6.75545">
        <ele>714</ele>
        <time>2018-06-23T09:37:17.000Z</time>
      </trkpt>
      <trkpt lat="47.854" lon="6.75545">
        <ele>714</ele>
        <time>2018-06-23T09:37:18.000Z</time>
      </trkpt>
      <trkpt lat="47.85401" lon="6.75546">
        <ele>714</ele>
        <time>2018-06-23T09:37:19.000Z</time>
      </trkpt>
      <trkpt lat="47.85401" lon="6.75547">
        <ele>714</ele>
        <time>2018-06-23T09:37:20.000Z</time>
      </trkpt>
      <trkpt lat="47.85401" lon="6.75549">
        <ele>714</ele>
        <time>2018-06-23T09:37:21.000Z</time>
      </trkpt>
      <trkpt lat="47.85402" lon="6.7555">
        <ele>714</ele>
        <time>2018-06-23T09:37:22.000Z</time>
      </trkpt>
      <trkpt lat="47.85402" lon="6.75551">
        <ele>714</ele>
        <time>2018-06-23T09:37:23.000Z</time>
      </trkpt>
      <trkpt lat="47.85402" lon="6.75552">
        <ele>714</ele>
        <time>2018-06-23T09:37:24.000Z</time>
      </trkpt>
      <trkpt lat="47.85403" lon="6.75553">
        <ele>714</ele>
        <time>2018-06-23T09:37:25.000Z</time>
      </trkpt>
      <trkpt lat="47.85403" lon="6.75554">
        <ele>714</ele>
        <time>2018-06-23T09:37:26.000Z</time>
      </trkpt>
      <trkpt lat="47.85404" lon="6.75555">
        <ele>714</ele>
        <time>2018-06-23T09:37:27.000Z</time>
      </trkpt>
      <trkpt lat="47.85405" lon="6.75556">
        <ele>714</ele>
        <time>2018-06-23T09:37:28.000Z</time>
      </trkpt>
      <trkpt lat="47.85405" lon="6.75557">
        <ele>713</ele>
        <time>2018-06-23T09:37:29.000Z</time>
      </trkpt>
      <trkpt lat="47.85406" lon="6.75559">
        <ele>713</ele>
        <time>2018-06-23T09:37:30.000Z</time>
      </trkpt>
      <trkpt lat="47.85407" lon="6.7556">
        <ele>713</ele>
        <time>2018-06-23T09:37:31.000Z</time>
      </trkpt>
      <trkpt lat="47.85407" lon="6.75561">
        <ele>713</ele>
        <time>2018-06-23T09:37:32.000Z</time>
      </trkpt>
      <trkpt lat="47.85408" lon="6.75562">
        <ele>713</ele>
        <time>2018-06-23T09:37:33.000Z</time>
      </trkpt>
      <trkpt lat="47.85408" lon="6.75563">
        <ele>713</ele>
        <time>2018-06-23T09:37:34.000Z</time>
      </trkpt>
      <trkpt lat="47.85409" lon="6.75564">
        <ele>713</ele>
        <time>2018-06-23T09:37:35.000Z</time>
      </trkpt>
      <trkpt lat="47.85409" lon="6.75565">
        <ele>712</ele>
        <time>2018-06-23T09:37:36.000Z</time>
      </trkpt>
      <trkpt lat="47.8541" lon="6.75567">
        <ele>712</ele>
        <time>2018-06-23T09:37:37.000Z</time>
      </trkpt>
      <trkpt lat="47.8541" lon="6.75568">
        <ele>712</ele>
        <time>2018-06-23T09:37:38.000Z</time>
      </trkpt>
      <trkpt lat="47.85411" lon="6.75569">
        <ele>712</ele>
        <time>2018-06-23T09:37:39.000Z</time>
      </trkpt>
      <trkpt lat="47.85411" lon="6.75571">
        <ele>712</ele>
        <time>2018-06-23T09:37:40.000Z</time>
      </trkpt>
      <trkpt lat="47.85412" lon="6.75572">
        <ele>711</ele>
        <time>2018-06-23T09:37:41.000Z</time>
      </trkpt>
      <trkpt lat="47.85412" lon="6.75573">
        <ele>711</ele>
        <time>2018-06-23T09:37:42.000Z</time>
      </trkpt>
      <trkpt lat="47.85413" lon="6.75574">
        <ele>711</ele>
        <time>2018-06-23T09:37:43.000Z</time>
      </trkpt>
      <trkpt lat="47.85413" lon="6.75575">
        <ele>711</ele>
        <time>2018-06-23T09:37:44.000Z</time>
      </trkpt>
      <trkpt lat="47.85413" lon="6.75576">
        <ele>710</ele>
        <time>2018-06-23T09:37:45.000Z</time>
      </trkpt>
      <trkpt lat="47.85413" lon="6.75577">
        <ele>710</ele>
        <time>2018-06-23T09:37:46.000Z</time>
      </trkpt>
      <trkpt lat="47.85414" lon="6.75578">
        <ele>710</ele>
        <time>2018-06-23T09:37:47.000Z</time>
      </trkpt>
      <trkpt lat="47.85414" lon="6.75579">
        <ele>709</ele>
        <time>2018-06-23T09:37:48.000Z</time>
      </trkpt>
      <trkpt lat="47.85415" lon="6.75581">
        <ele>709</ele>
        <time>2018-06-23T09:37:49.000Z</time>
      </trkpt>
      <trkpt lat="47.85415" lon="6.75582">
        <ele>709</ele>
        <time>2018-06-23T09:37:50.000Z</time>
      </trkpt>
      <trkpt lat="47.85416" lon="6.75584">
        <ele>708</ele>
        <time>2018-06-23T09:37:51.000Z</time>
      </trkpt>
      <trkpt lat="47.85417" lon="6.75586">
        <ele>707</ele>
        <time>2018-06-23T09:37:52.000Z</time>
      </trkpt>
      <trkpt lat="47.85418" lon="6.75587">
        <ele>707</ele>
        <time>2018-06-23T09:37:53.000Z</time>
      </trkpt>
      <trkpt lat="47.85418" lon="6.75589">
        <ele>707</ele>
        <time>2018-06-23T09:37:54.000Z</time>
      </trkpt>
      <trkpt lat="47.85419" lon="6.7559">
        <ele>706</ele>
        <time>2018-06-23T09:37:55.000Z</time>
      </trkpt>
      <trkpt lat="47.85419" lon="6.75591">
        <ele>706</ele>
        <time>2018-06-23T09:37:56.000Z</time>
      </trkpt>
      <trkpt lat="47.8542" lon="6.75593">
        <ele>706</ele>
        <time>2018-06-23T09:37:57.000Z</time>
      </trkpt>
      <trkpt lat="47.8542" lon="6.75594">
        <ele>706</ele>
        <time>2018-06-23T09:37:58.000Z</time>
      </trkpt>
      <trkpt lat="47.85421" lon="6.75595">
        <ele>705</ele>
        <time>2018-06-23T09:37:59.000Z</time>
      </trkpt>
      <trkpt lat="47.85422" lon="6.75597">
        <ele>705</ele>
        <time>2018-06-23T09:38:00.000Z</time>
      </trkpt>
      <trkpt lat="47.85422" lon="6.75598">
        <ele>705</ele>
        <time>2018-06-23T09:38:01.000Z</time>
      </trkpt>
      <trkpt lat="47.85423" lon="6.756">
        <ele>705</ele>
        <time>2018-06-23T09:38:02.000Z</time>
      </trkpt>
      <trkpt lat="47.85424" lon="6.75601">
        <ele>705</ele>
        <time>2018-06-23T09:38:03.000Z</time>
      </trkpt>
      <trkpt lat="47.85425" lon="6.75603">
        <ele>704</ele>
        <time>2018-06-23T09:38:04.000Z</time>
      </trkpt>
      <trkpt lat="47.85425" lon="6.75604">
        <ele>704</ele>
        <time>2018-06-23T09:38:05.000Z</time>
      </trkpt>
      <trkpt lat="47.85426" lon="6.75605">
        <ele>704</ele>
        <time>2018-06-23T09:38:06.000Z</time>
      </trkpt>
      <trkpt lat="47.85427" lon="6.75606">
        <ele>704</ele>
        <time>2018-06-23T09:38:07.000Z</time>
      </trkpt>
      <trkpt lat="47.85428" lon="6.75607">
        <ele>704</ele>
        <time>2018-06-23T09:38:08.000Z</time>
      </trkpt>
      <trkpt lat="47.85429" lon="6.75609">
        <ele>704</ele>
        <time>2018-06-23T09:38:09.000Z</time>
      </trkpt>
      <trkpt lat="47.85429" lon="6.7561">
        <ele>704</ele>
        <time>2018-06-23T09:38:10.000Z</time>
      </trkpt>
      <trkpt lat="47.8543" lon="6.75611">
        <ele>704</ele>
        <time>2018-06-23T09:38:11.000Z</time>
      </trkpt>
      <trkpt lat="47.8543" lon="6.75612">
        <ele>704</ele>
        <time>2018-06-23T09:38:12.000Z</time>
      </trkpt>
      <trkpt lat="47.85431" lon="6.75613">
        <ele>704</ele>
        <time>2018-06-23T09:38:13.000Z</time>
      </trkpt>
      <trkpt lat="47.85431" lon="6.75615">
        <ele>704</ele>
        <time>2018-06-23T09:38:14.000Z</time>
      </trkpt>
      <trkpt lat="47.85432" lon="6.75616">
        <ele>704</ele>
        <time>2018-06-23T09:38:15.000Z</time>
      </trkpt>
      <trkpt lat="47.85432" lon="6.75617">
        <ele>703</ele>
        <time>2018-06-23T09:38:16.000Z</time>
      </trkpt>
      <trkpt lat="47.85433" lon="6.75618">
        <ele>703</ele>
        <time>2018-06-23T09:38:17.000Z</time>
      </trkpt>
      <trkpt lat="47.85433" lon="6.75619">
        <ele>703</ele>
        <time>2018-06-23T09:38:18.000Z</time>
      </trkpt>
      <trkpt lat="47.85434" lon="6.7562">
        <ele>703</ele>
        <time>2018-06-23T09:38:19.000Z</time>
      </trkpt>
      <trkpt lat="47.85434" lon="6.75622">
        <ele>703</ele>
        <time>2018-06-23T09:38:20.000Z</time>
      </trkpt>
      <trkpt lat="47.85435" lon="6.75623">
        <ele>703</ele>
        <time>2018-06-23T09:38:21.000Z</time>
      </trkpt>
      <trkpt lat="47.85435" lon="6.75624">
        <ele>703</ele>
        <time>2018-06-23T09:38:22.000Z</time>
      </trkpt>
      <trkpt lat="47.85436" lon="6.75625">
        <ele>703</ele>
        <time>2018-06-23T09:38:23.000Z</time>
      </trkpt>
      <trkpt lat="47.85436" lon="6.75627">
        <ele>703</ele>
        <time>2018-06-23T09:38:24.000Z</time>
      </trkpt>
      <trkpt lat="47.85437" lon="6.75628">
        <ele>703</ele>
        <time>2018-06-23T09:38:25.000Z</time>
      </trkpt>
      <trkpt lat="47.85437" lon="6.75629">
        <ele>703</ele>
        <time>2018-06-23T09:38:26.000Z</time>
      </trkpt>
      <trkpt lat="47.85437" lon="6.75631">
        <ele>703</ele>
        <time>2018-06-23T09:38:27.000Z</time>
      </trkpt>
      <trkpt lat="47.85437" lon="6.75632">
        <ele>703</ele>
        <time>2018-06-23T09:38:28.000Z</time>
      </trkpt>
      <trkpt lat="47.85438" lon="6.75633">
        <ele>703</ele>
        <time>2018-06-23T09:38:29.000Z</time>
      </trkpt>
      <trkpt lat="47.85438" lon="6.75633">
        <ele>703</ele>
        <time>2018-06-23T09:38:30.000Z</time>
      </trkpt>
      <trkpt lat="47.85438" lon="6.75634">
        <ele>704</ele>
        <time>2018-06-23T09:38:31.000Z</time>
      </trkpt>
      <trkpt lat="47.85438" lon="6.75635">
        <ele>704</ele>
        <time>2018-06-23T09:38:32.000Z</time>
      </trkpt>
      <trkpt lat="47.85438" lon="6.75635">
        <ele>704</ele>
        <time>2018-06-23T09:38:33.000Z</time>
      </trkpt>
      <trkpt lat="47.85438" lon="6.75635">
        <ele>704</ele>
        <time>2018-06-23T09:38:34.000Z</time>
      </trkpt>
      <trkpt lat="47.85438" lon="6.75636">
        <ele>704</ele>
        <time>2018-06-23T09:38:35.000Z</time>
      </trkpt>
      <trkpt lat="47.85438" lon="6.75636">
        <ele>704</ele>
        <time>2018-06-23T09:38:36.000Z</time>
      </trkpt>
      <trkpt lat="47.85438" lon="6.75636">
        <ele>704</ele>
        <time>2018-06-23T09:38:37.000Z</time>
      </trkpt>
      <trkpt lat="47.85438" lon="6.75636">
        <ele>704</ele>
        <time>2018-06-23T09:38:38.000Z</time>
      </trkpt>
      <trkpt lat="47.85438" lon="6.75636">
        <ele>704</ele>
        <time>2018-06-23T09:38:39.000Z</time>
      </trkpt>
      <trkpt lat="47.85437" lon="6.75636">
        <ele>704</ele>
        <time>2018-06-23T09:38:40.000Z</time>
      </trkpt>
      <trkpt lat="47.85437" lon="6.75636">
        <ele>704</ele>
        <time>2018-06-23T09:38:41.000Z</time>
      </trkpt>
      <trkpt lat="47.85437" lon="6.75636">
        <ele>704</ele>
        <time>2018-06-23T09:38:42.000Z</time>
      </trkpt>
      <trkpt lat="47.85437" lon="6.75636">
        <ele>704</ele>
        <time>2018-06-23T09:38:43.000Z</time>
      </trkpt>
      <trkpt lat="47.85437" lon="6.75636">
        <ele>704</ele>
        <time>2018-06-23T09:38:44.000Z</time>
      </trkpt>
      <trkpt lat="47.85437" lon="6.75636">
        <ele>704</ele>
        <time>2018-06-23T09:38:45.000Z</time>
      </trkpt>
      <trkpt lat="47.85437" lon="6.75636">
        <ele>704</ele>
        <time>2018-06-23T09:38:46.000Z</time>
      </trkpt>
      <trkpt lat="47.85437" lon="6.75637">
        <ele>704</ele>
        <time>2018-06-23T09:38:47.000Z</time>
      </trkpt>
      <trkpt lat="47.85437" lon="6.75637">
        <ele>704</ele>
        <time>2018-06-23T09:38:48.000Z</time>
      </trkpt>
      <trkpt lat="47.85437" lon="6.75637">
        <ele>704</ele>
        <time>2018-06-23T09:38:49.000Z</time>
      </trkpt>
      <trkpt lat="47.85437" lon="6.75637">
        <ele>704</ele>
        <time>2018-06-23T09:38:50.000Z</time>
      </trkpt>
      <trkpt lat="47.85437" lon="6.75637">
        <ele>704</ele>
        <time>2018-06-23T09:38:51.000Z</time>
      </trkpt>
      <trkpt lat="47.85437" lon="6.75637">
        <ele>704</ele>
        <time>2018-06-23T09:38:52.000Z</time>
      </trkpt>
      <trkpt lat="47.85438" lon="6.75637">
        <ele>704</ele>
        <time>2018-06-23T09:38:53.000Z</time>
      </trkpt>
      <trkpt lat="47.85438" lon="6.75637">
        <ele>704</ele>
        <time>2018-06-23T09:38:54.000Z</time>
      </trkpt>
      <trkpt lat="47.85438" lon="6.75637">
        <ele>704</ele>
        <time>2018-06-23T09:38:55.000Z</time>
      </trkpt>
      <trkpt lat="47.85438" lon="6.75637">
        <ele>704</ele>
        <time>2018-06-23T09:38:56.000Z</time>
      </trkpt>
      <trkpt lat="47.85438" lon="6.75637">
        <ele>704</ele>
        <time>2018-06-23T09:38:57.000Z</time>
      </trkpt>
      <trkpt lat="47.85438" lon="6.75637">
        <ele>704</ele>
        <time>2018-06-23T09:38:58.000Z</time>
      </trkpt>
      <trkpt lat="47.85438" lon="6.75637">
        <ele>704</ele>
        <time>2018-06-23T09:38:59.000Z</time>
      </trkpt>
      <trkpt lat="47.85438" lon="6.75637">
        <ele>704</ele>
        <time>2018-06-23T09:39:00.000Z</time>
      </trkpt>
      <trkpt lat="47.85438" lon="6.75637">
        <ele>704</ele>
        <time>2018-06-23T09:39:01.000Z</time>
      </trkpt>
      <trkpt lat="47.85438" lon="6.75638">
        <ele>704</ele>
        <time>2018-06-23T09:39:02.000Z</time>
      </trkpt>
      <trkpt lat="47.85438" lon="6.75638">
        <ele>704</ele>
        <time>2018-06-23T09:39:03.000Z</time>
      </trkpt>
      <trkpt lat="47.85438" lon="6.75638">
        <ele>704</ele>
        <time>2018-06-23T09:39:04.000Z</time>
      </trkpt>
      <trkpt lat="47.85438" lon="6.75638">
        <ele>704</ele>
        <time>2018-06-23T09:39:05.000Z</time>
      </trkpt>
      <trkpt lat="47.85438" lon="6.75638">
        <ele>704</ele>
        <time>2018-06-23T09:39:06.000Z</time>
      </trkpt>
      <trkpt lat="47.85438" lon="6.75638">
        <ele>704</ele>
        <time>2018-06-23T09:39:07.000Z</time>
      </trkpt>
      <trkpt lat="47.85438" lon="6.75638">
        <ele>704</ele>
        <time>2018-06-23T09:39:08.000Z</time>
      </trkpt>
      <trkpt lat="47.85438" lon="6.75638">
        <ele>704</ele>
        <time>2018-06-23T09:39:09.000Z</time>
      </trkpt>
      <trkpt lat="47.85438" lon="6.75638">
        <ele>704</ele>
        <time>2018-06-23T09:39:10.000Z</time>
      </trkpt>
      <trkpt lat="47.85438" lon="6.75638">
        <ele>704</ele>
        <time>2018-06-23T09:39:11.000Z</time>
      </trkpt>
      <trkpt lat="47.85439" lon="6.75638">
        <ele>704</ele>
        <time>2018-06-23T09:39:12.000Z</time>
      </trkpt>
      <trkpt lat="47.85439" lon="6.75638">
        <ele>704</ele>
        <time>2018-06-23T09:39:13.000Z</time>
      </trkpt>
      <trkpt lat="47.85439" lon="6.75638">
        <ele>704</ele>
        <time>2018-06-23T09:39:14.000Z</time>
      </trkpt>
      <trkpt lat="47.85439" lon="6.75638">
        <ele>704</ele>
        <time>2018-06-23T09:39:15.000Z</time>
      </trkpt>
      <trkpt lat="47.85439" lon="6.75638">
        <ele>704</ele>
        <time>2018-06-23T09:39:16.000Z</time>
      </trkpt>
      <trkpt lat="47.85439" lon="6.75638">
        <ele>704</ele>
        <time>2018-06-23T09:39:17.000Z</time>
      </trkpt>
      <trkpt lat="47.85439" lon="6.75638">
        <ele>704</ele>
        <time>2018-06-23T09:39:18.000Z</time>
      </trkpt>
      <trkpt lat="47.85439" lon="6.75638">
        <ele>704</ele>
        <time>2018-06-23T09:39:19.000Z</time>
      </trkpt>
      <trkpt lat="47.8544" lon="6.75639">
        <ele>704</ele>
        <time>2018-06-23T09:39:20.000Z</time>
      </trkpt>
      <trkpt lat="47.8544" lon="6.7564">
        <ele>704</ele>
        <time>2018-06-23T09:39:21.000Z</time>
      </trkpt>
      <trkpt lat="47.8544" lon="6.75641">
        <ele>704</ele>
        <time>2018-06-23T09:39:22.000Z</time>
      </trkpt>
      <trkpt lat="47.8544" lon="6.75642">
        <ele>704</ele>
        <time>2018-06-23T09:39:23.000Z</time>
      </trkpt>
      <trkpt lat="47.8544" lon="6.75643">
        <ele>704</ele>
        <time>2018-06-23T09:39:24.000Z</time>
      </trkpt>
      <trkpt lat="47.8544" lon="6.75644">
        <ele>704</ele>
        <time>2018-06-23T09:39:25.000Z</time>
      </trkpt>
      <trkpt lat="47.85439" lon="6.75645">
        <ele>704</ele>
        <time>2018-06-23T09:39:26.000Z</time>
      </trkpt>
      <trkpt lat="47.85438" lon="6.75646">
        <ele>704</ele>
        <time>2018-06-23T09:39:27.000Z</time>
      </trkpt>
      <trkpt lat="47.85438" lon="6.75647">
        <ele>704</ele>
        <time>2018-06-23T09:39:28.000Z</time>
      </trkpt>
      <trkpt lat="47.85438" lon="6.75649">
        <ele>704</ele>
        <time>2018-06-23T09:39:29.000Z</time>
      </trkpt>
      <trkpt lat="47.85437" lon="6.7565">
        <ele>705</ele>
        <time>2018-06-23T09:39:30.000Z</time>
      </trkpt>
      <trkpt lat="47.85437" lon="6.75651">
        <ele>705</ele>
        <time>2018-06-23T09:39:31.000Z</time>
      </trkpt>
      <trkpt lat="47.85436" lon="6.75651">
        <ele>705</ele>
        <time>2018-06-23T09:39:32.000Z</time>
      </trkpt>
      <trkpt lat="47.85435" lon="6.75651">
        <ele>705</ele>
        <time>2018-06-23T09:39:33.000Z</time>
      </trkpt>
      <trkpt lat="47.85434" lon="6.75652">
        <ele>705</ele>
        <time>2018-06-23T09:39:34.000Z</time>
      </trkpt>
      <trkpt lat="47.85434" lon="6.75653">
        <ele>705</ele>
        <time>2018-06-23T09:39:35.000Z</time>
      </trkpt>
      <trkpt lat="47.85433" lon="6.75653">
        <ele>705</ele>
        <time>2018-06-23T09:39:36.000Z</time>
      </trkpt>
      <trkpt lat="47.85433" lon="6.75654">
        <ele>706</ele>
        <time>2018-06-23T09:39:37.000Z</time>
      </trkpt>
      <trkpt lat="47.85432" lon="6.75654">
        <ele>706</ele>
        <time>2018-06-23T09:39:38.000Z</time>
      </trkpt>
      <trkpt lat="47.85432" lon="6.75655">
        <ele>706</ele>
        <time>2018-06-23T09:39:39.000Z</time>
      </trkpt>
      <trkpt lat="47.85431" lon="6.75656">
        <ele>706</ele>
        <time>2018-06-23T09:39:40.000Z</time>
      </trkpt>
      <trkpt lat="47.85431" lon="6.75657">
        <ele>706</ele>
        <time>2018-06-23T09:39:41.000Z</time>
      </trkpt>
      <trkpt lat="47.8543" lon="6.75658">
        <ele>706</ele>
        <time>2018-06-23T09:39:42.000Z</time>
      </trkpt>
      <trkpt lat="47.8543" lon="6.75658">
        <ele>707</ele>
        <time>2018-06-23T09:39:43.000Z</time>
      </trkpt>
      <trkpt lat="47.85429" lon="6.75659">
        <ele>707</ele>
        <time>2018-06-23T09:39:44.000Z</time>
      </trkpt>
      <trkpt lat="47.85428" lon="6.7566">
        <ele>707</ele>
        <time>2018-06-23T09:39:45.000Z</time>
      </trkpt>
      <trkpt lat="47.85428" lon="6.7566">
        <ele>707</ele>
        <time>2018-06-23T09:39:46.000Z</time>
      </trkpt>
      <trkpt lat="47.85427" lon="6.7566">
        <ele>707</ele>
        <time>2018-06-23T09:39:47.000Z</time>
      </trkpt>
      <trkpt lat="47.85426" lon="6.7566">
        <ele>708</ele>
        <time>2018-06-23T09:39:48.000Z</time>
      </trkpt>
      <trkpt lat="47.85425" lon="6.75661">
        <ele>708</ele>
        <time>2018-06-23T09:39:49.000Z</time>
      </trkpt>
      <trkpt lat="47.85424" lon="6.75661">
        <ele>708</ele>
        <time>2018-06-23T09:39:50.000Z</time>
      </trkpt>
      <trkpt lat="47.85423" lon="6.75662">
        <ele>708</ele>
        <time>2018-06-23T09:39:51.000Z</time>
      </trkpt>
      <trkpt lat="47.85422" lon="6.75663">
        <ele>709</ele>
        <time>2018-06-23T09:39:52.000Z</time>
      </trkpt>
      <trkpt lat="47.85422" lon="6.75664">
        <ele>709</ele>
        <time>2018-06-23T09:39:53.000Z</time>
      </trkpt>
      <trkpt lat="47.85421" lon="6.75665">
        <ele>709</ele>
        <time>2018-06-23T09:39:54.000Z</time>
      </trkpt>
      <trkpt lat="47.8542" lon="6.75666">
        <ele>710</ele>
        <time>2018-06-23T09:39:55.000Z</time>
      </trkpt>
      <trkpt lat="47.85419" lon="6.75667">
        <ele>710</ele>
        <time>2018-06-23T09:39:56.000Z</time>
      </trkpt>
      <trkpt lat="47.85419" lon="6.75667">
        <ele>711</ele>
        <time>2018-06-23T09:39:57.000Z</time>
      </trkpt>
      <trkpt lat="47.85418" lon="6.75668">
        <ele>711</ele>
        <time>2018-06-23T09:39:58.000Z</time>
      </trkpt>
      <trkpt lat="47.85418" lon="6.75669">
        <ele>711</ele>
        <time>2018-06-23T09:39:59.000Z</time>
      </trkpt>
      <trkpt lat="47.85417" lon="6.7567">
        <ele>711</ele>
        <time>2018-06-23T09:40:00.000Z</time>
      </trkpt>
      <trkpt lat="47.85416" lon="6.75672">
        <ele>713</ele>
        <time>2018-06-23T09:40:01.000Z</time>
      </trkpt>
      <trkpt lat="47.85415" lon="6.75673">
        <ele>714</ele>
        <time>2018-06-23T09:40:02.000Z</time>
      </trkpt>
      <trkpt lat="47.85414" lon="6.75674">
        <ele>714</ele>
        <time>2018-06-23T09:40:03.000Z</time>
      </trkpt>
      <trkpt lat="47.85414" lon="6.75675">
        <ele>714</ele>
        <time>2018-06-23T09:40:04.000Z</time>
      </trkpt>
      <trkpt lat="47.85414" lon="6.75675">
        <ele>714</ele>
        <time>2018-06-23T09:40:05.000Z</time>
      </trkpt>
      <trkpt lat="47.85413" lon="6.75675">
        <ele>714</ele>
        <time>2018-06-23T09:40:06.000Z</time>
      </trkpt>
      <trkpt lat="47.85412" lon="6.75676">
        <ele>715</ele>
        <time>2018-06-23T09:40:07.000Z</time>
      </trkpt>
      <trkpt lat="47.85412" lon="6.75677">
        <ele>715</ele>
        <time>2018-06-23T09:40:08.000Z</time>
      </trkpt>
      <trkpt lat="47.85411" lon="6.75677">
        <ele>715</ele>
        <time>2018-06-23T09:40:09.000Z</time>
      </trkpt>
      <trkpt lat="47.85411" lon="6.75678">
        <ele>715</ele>
        <time>2018-06-23T09:40:10.000Z</time>
      </trkpt>
      <trkpt lat="47.8541" lon="6.75679">
        <ele>716</ele>
        <time>2018-06-23T09:40:11.000Z</time>
      </trkpt>
      <trkpt lat="47.85409" lon="6.7568">
        <ele>716</ele>
        <time>2018-06-23T09:40:12.000Z</time>
      </trkpt>
      <trkpt lat="47.85409" lon="6.7568">
        <ele>716</ele>
        <time>2018-06-23T09:40:13.000Z</time>
      </trkpt>
      <trkpt lat="47.85408" lon="6.75681">
        <ele>716</ele>
        <time>2018-06-23T09:40:14.000Z</time>
      </trkpt>
      <trkpt lat="47.85407" lon="6.75681">
        <ele>717</ele>
        <time>2018-06-23T09:40:15.000Z</time>
      </trkpt>
      <trkpt lat="47.85406" lon="6.75682">
        <ele>717</ele>
        <time>2018-06-23T09:40:16.000Z</time>
      </trkpt>
      <trkpt lat="47.85406" lon="6.75682">
        <ele>717</ele>
        <time>2018-06-23T09:40:17.000Z</time>
      </trkpt>
      <trkpt lat="47.85406" lon="6.75683">
        <ele>717</ele>
        <time>2018-06-23T09:40:18.000Z</time>
      </trkpt>
      <trkpt lat="47.85405" lon="6.75684">
        <ele>717</ele>
        <time>2018-06-23T09:40:19.000Z</time>
      </trkpt>
      <trkpt lat="47.85405" lon="6.75685">
        <ele>717</ele>
        <time>2018-06-23T09:40:20.000Z</time>
      </trkpt>
      <trkpt lat="47.85405" lon="6.75686">
        <ele>718</ele>
        <time>2018-06-23T09:40:21.000Z</time>
      </trkpt>
      <trkpt lat="47.85405" lon="6.75686">
        <ele>718</ele>
        <time>2018-06-23T09:40:22.000Z</time>
      </trkpt>
      <trkpt lat="47.85405" lon="6.75687">
        <ele>718</ele>
        <time>2018-06-23T09:40:23.000Z</time>
      </trkpt>
      <trkpt lat="47.85405" lon="6.75687">
        <ele>718</ele>
        <time>2018-06-23T09:40:24.000Z</time>
      </trkpt>
      <trkpt lat="47.85405" lon="6.75687">
        <ele>718</ele>
        <time>2018-06-23T09:40:25.000Z</time>
      </trkpt>
      <trkpt lat="47.85405" lon="6.75687">
        <ele>718</ele>
        <time>2018-06-23T09:40:26.000Z</time>
      </trkpt>
      <trkpt lat="47.85405" lon="6.75687">
        <ele>718</ele>
        <time>2018-06-23T09:40:27.000Z</time>
      </trkpt>
      <trkpt lat="47.85405" lon="6.75687">
        <ele>718</ele>
        <time>2018-06-23T09:40:28.000Z</time>
      </trkpt>
      <trkpt lat="47.85405" lon="6.75687">
        <ele>718</ele>
        <time>2018-06-23T09:40:29.000Z</time>
      </trkpt>
      <trkpt lat="47.85405" lon="6.75687">
        <ele>718</ele>
        <time>2018-06-23T09:40:30.000Z</time>
      </trkpt>
      <trkpt lat="47.85404" lon="6.75688">
        <ele>718</ele>
        <time>2018-06-23T09:40:31.000Z</time>
      </trkpt>
      <trkpt lat="47.85404" lon="6.75688">
        <ele>718</ele>
        <time>2018-06-23T09:40:32.000Z</time>
      </trkpt>
      <trkpt lat="47.85404" lon="6.75689">
        <ele>718</ele>
        <time>2018-06-23T09:40:33.000Z</time>
      </trkpt>
      <trkpt lat="47.85404" lon="6.75689">
        <ele>718</ele>
        <time>2018-06-23T09:40:34.000Z</time>
      </trkpt>
      <trkpt lat="47.85404" lon="6.75688">
        <ele>718</ele>
        <time>2018-06-23T09:40:35.000Z</time>
      </trkpt>
      <trkpt lat="47.85404" lon="6.75688">
        <ele>718</ele>
        <time>2018-06-23T09:40:36.000Z</time>
      </trkpt>
      <trkpt lat="47.85404" lon="6.75689">
        <ele>718</ele>
        <time>2018-06-23T09:40:37.000Z</time>
      </trkpt>
      <trkpt lat="47.85404" lon="6.7569">
        <ele>718</ele>
        <time>2018-06-23T09:40:38.000Z</time>
      </trkpt>
      <trkpt lat="47.85404" lon="6.7569">
        <ele>718</ele>
        <time>2018-06-23T09:40:39.000Z</time>
      </trkpt>
      <trkpt lat="47.85403" lon="6.7569">
        <ele>718</ele>
        <time>2018-06-23T09:40:40.000Z</time>
      </trkpt>
      <trkpt lat="47.85403" lon="6.7569">
        <ele>718</ele>
        <time>2018-06-23T09:40:41.000Z</time>
      </trkpt>
      <trkpt lat="47.85404" lon="6.7569">
        <ele>718</ele>
        <time>2018-06-23T09:40:42.000Z</time>
      </trkpt>
      <trkpt lat="47.85404" lon="6.7569">
        <ele>718</ele>
        <time>2018-06-23T09:40:43.000Z</time>
      </trkpt>
      <trkpt lat="47.85404" lon="6.7569">
        <ele>718</ele>
        <time>2018-06-23T09:40:44.000Z</time>
      </trkpt>
      <trkpt lat="47.85404" lon="6.75689">
        <ele>718</ele>
        <time>2018-06-23T09:40:45.000Z</time>
      </trkpt>
      <trkpt lat="47.85404" lon="6.75689">
        <ele>718</ele>
        <time>2018-06-23T09:40:46.000Z</time>
      </trkpt>
      <trkpt lat="47.85404" lon="6.75688">
        <ele>718</ele>
        <time>2018-06-23T09:40:47.000Z</time>
      </trkpt>
      <trkpt lat="47.85404" lon="6.75688">
        <ele>718</ele>
        <time>2018-06-23T09:40:48.000Z</time>
      </trkpt>
      <trkpt lat="47.85405" lon="6.75687">
        <ele>718</ele>
        <time>2018-06-23T09:40:49.000Z</time>
      </trkpt>
      <trkpt lat="47.85405" lon="6.75687">
        <ele>718</ele>
        <time>2018-06-23T09:40:50.000Z</time>
      </trkpt>
      <trkpt lat="47.85405" lon="6.75686">
        <ele>718</ele>
        <time>2018-06-23T09:40:51.000Z</time>
      </trkpt>
      <trkpt lat="47.85405" lon="6.75685">
        <ele>717</ele>
        <time>2018-06-23T09:40:52.000Z</time>
      </trkpt>
      <trkpt lat="47.85406" lon="6.75684">
        <ele>717</ele>
        <time>2018-06-23T09:40:53.000Z</time>
      </trkpt>
      <trkpt lat="47.85406" lon="6.75683">
        <ele>717</ele>
        <time>2018-06-23T09:40:54.000Z</time>
      </trkpt>
      <trkpt lat="47.85407" lon="6.75682">
        <ele>717</ele>
        <time>2018-06-23T09:40:55.000Z</time>
      </trkpt>
      <trkpt lat="47.85408" lon="6.75681">
        <ele>716</ele>
        <time>2018-06-23T09:40:56.000Z</time>
      </trkpt>
      <trkpt lat="47.85408" lon="6.7568">
        <ele>716</ele>
        <time>2018-06-23T09:40:57.000Z</time>
      </trkpt>
      <trkpt lat="47.85409" lon="6.75679">
        <ele>716</ele>
        <time>2018-06-23T09:40:58.000Z</time>
      </trkpt>
      <trkpt lat="47.85409" lon="6.75679">
        <ele>716</ele>
        <time>2018-06-23T09:40:59.000Z</time>
      </trkpt>
      <trkpt lat="47.85409" lon="6.75678">
        <ele>716</ele>
        <time>2018-06-23T09:41:00.000Z</time>
      </trkpt>
      <trkpt lat="47.85409" lon="6.75677">
        <ele>715</ele>
        <time>2018-06-23T09:41:01.000Z</time>
      </trkpt>
      <trkpt lat="47.8541" lon="6.75676">
        <ele>715</ele>
        <time>2018-06-23T09:41:02.000Z</time>
      </trkpt>
      <trkpt lat="47.8541" lon="6.75675">
        <ele>715</ele>
        <time>2018-06-23T09:41:03.000Z</time>
      </trkpt>
      <trkpt lat="47.85411" lon="6.75675">
        <ele>715</ele>
        <time>2018-06-23T09:41:04.000Z</time>
      </trkpt>
      <trkpt lat="47.85411" lon="6.75674">
        <ele>714</ele>
        <time>2018-06-23T09:41:05.000Z</time>
      </trkpt>
      <trkpt lat="47.85412" lon="6.75673">
        <ele>714</ele>
        <time>2018-06-23T09:41:06.000Z</time>
      </trkpt>
      <trkpt lat="47.85412" lon="6.75671">
        <ele>713</ele>
        <time>2018-06-23T09:41:07.000Z</time>
      </trkpt>
      <trkpt lat="47.85413" lon="6.7567">
        <ele>713</ele>
        <time>2018-06-23T09:41:08.000Z</time>
      </trkpt>
      <trkpt lat="47.85413" lon="6.75669">
        <ele>713</ele>
        <time>2018-06-23T09:41:09.000Z</time>
      </trkpt>
      <trkpt lat="47.85414" lon="6.75668">
        <ele>712</ele>
        <time>2018-06-23T09:41:10.000Z</time>
      </trkpt>
      <trkpt lat="47.85414" lon="6.75667">
        <ele>712</ele>
        <time>2018-06-23T09:41:11.000Z</time>
      </trkpt>
      <trkpt lat="47.85415" lon="6.75667">
        <ele>711</ele>
        <time>2018-06-23T09:41:12.000Z</time>
      </trkpt>
      <trkpt lat="47.85415" lon="6.75666">
        <ele>711</ele>
        <time>2018-06-23T09:41:13.000Z</time>
      </trkpt>
      <trkpt lat="47.85416" lon="6.75665">
        <ele>712</ele>
        <time>2018-06-23T09:41:14.000Z</time>
      </trkpt>
      <trkpt lat="47.85417" lon="6.75663">
        <ele>710</ele>
        <time>2018-06-23T09:41:15.000Z</time>
      </trkpt>
      <trkpt lat="47.85418" lon="6.75662">
        <ele>709</ele>
        <time>2018-06-23T09:41:16.000Z</time>
      </trkpt>
      <trkpt lat="47.85418" lon="6.75662">
        <ele>709</ele>
        <time>2018-06-23T09:41:17.000Z</time>
      </trkpt>
      <trkpt lat="47.85419" lon="6.75662">
        <ele>709</ele>
        <time>2018-06-23T09:41:18.000Z</time>
      </trkpt>
      <trkpt lat="47.8542" lon="6.75661">
        <ele>709</ele>
        <time>2018-06-23T09:41:19.000Z</time>
      </trkpt>
      <trkpt lat="47.85421" lon="6.75661">
        <ele>709</ele>
        <time>2018-06-23T09:41:20.000Z</time>
      </trkpt>
      <trkpt lat="47.85422" lon="6.7566">
        <ele>708</ele>
        <time>2018-06-23T09:41:21.000Z</time>
      </trkpt>
      <trkpt lat="47.85423" lon="6.75659">
        <ele>708</ele>
        <time>2018-06-23T09:41:22.000Z</time>
      </trkpt>
      <trkpt lat="47.85424" lon="6.75658">
        <ele>707</ele>
        <time>2018-06-23T09:41:23.000Z</time>
      </trkpt>
      <trkpt lat="47.85425" lon="6.75657">
        <ele>707</ele>
        <time>2018-06-23T09:41:24.000Z</time>
      </trkpt>
      <trkpt lat="47.85426" lon="6.75656">
        <ele>707</ele>
        <time>2018-06-23T09:41:25.000Z</time>
      </trkpt>
      <trkpt lat="47.85427" lon="6.75655">
        <ele>707</ele>
        <time>2018-06-23T09:41:26.000Z</time>
      </trkpt>
      <trkpt lat="47.85427" lon="6.75654">
        <ele>706</ele>
        <time>2018-06-23T09:41:27.000Z</time>
      </trkpt>
      <trkpt lat="47.85428" lon="6.75654">
        <ele>706</ele>
        <time>2018-06-23T09:41:28.000Z</time>
      </trkpt>
      <trkpt lat="47.85429" lon="6.75653">
        <ele>706</ele>
        <time>2018-06-23T09:41:29.000Z</time>
      </trkpt>
      <trkpt lat="47.8543" lon="6.75653">
        <ele>706</ele>
        <time>2018-06-23T09:41:30.000Z</time>
      </trkpt>
      <trkpt lat="47.85431" lon="6.75653">
        <ele>706</ele>
        <time>2018-06-23T09:41:31.000Z</time>
      </trkpt>
      <trkpt lat="47.85432" lon="6.75653">
        <ele>706</ele>
        <time>2018-06-23T09:41:32.000Z</time>
      </trkpt>
      <trkpt lat="47.85434" lon="6.75653">
        <ele>705</ele>
        <time>2018-06-23T09:41:33.000Z</time>
      </trkpt>
      <trkpt lat="47.85435" lon="6.75653">
        <ele>705</ele>
        <time>2018-06-23T09:41:34.000Z</time>
      </trkpt>
      <trkpt lat="47.85436" lon="6.75653">
        <ele>705</ele>
        <time>2018-06-23T09:41:35.000Z</time>
      </trkpt>
      <trkpt lat="47.85436" lon="6.75653">
        <ele>705</ele>
        <time>2018-06-23T09:41:36.000Z</time>
      </trkpt>
      <trkpt lat="47.85437" lon="6.75652">
        <ele>705</ele>
        <time>2018-06-23T09:41:37.000Z</time>
      </trkpt>
      <trkpt lat="47.85438" lon="6.75652">
        <ele>705</ele>
        <time>2018-06-23T09:41:38.000Z</time>
      </trkpt>
      <trkpt lat="47.85439" lon="6.75651">
        <ele>704</ele>
        <time>2018-06-23T09:41:39.000Z</time>
      </trkpt>
      <trkpt lat="47.8544" lon="6.75651">
        <ele>704</ele>
        <time>2018-06-23T09:41:40.000Z</time>
      </trkpt>
      <trkpt lat="47.85442" lon="6.75651">
        <ele>704</ele>
        <time>2018-06-23T09:41:41.000Z</time>
      </trkpt>
      <trkpt lat="47.85443" lon="6.75651">
        <ele>704</ele>
        <time>2018-06-23T09:41:42.000Z</time>
      </trkpt>
      <trkpt lat="47.85444" lon="6.7565">
        <ele>704</ele>
        <time>2018-06-23T09:41:43.000Z</time>
      </trkpt>
      <trkpt lat="47.85446" lon="6.7565">
        <ele>703</ele>
        <time>2018-06-23T09:41:44.000Z</time>
      </trkpt>
      <trkpt lat="47.85447" lon="6.7565">
        <ele>703</ele>
        <time>2018-06-23T09:41:45.000Z</time>
      </trkpt>
      <trkpt lat="47.85448" lon="6.7565">
        <ele>703</ele>
        <time>2018-06-23T09:41:46.000Z</time>
      </trkpt>
      <trkpt lat="47.85449" lon="6.7565">
        <ele>703</ele>
        <time>2018-06-23T09:41:47.000Z</time>
      </trkpt>
      <trkpt lat="47.8545" lon="6.75651">
        <ele>703</ele>
        <time>2018-06-23T09:41:48.000Z</time>
      </trkpt>
      <trkpt lat="47.85452" lon="6.75651">
        <ele>703</ele>
        <time>2018-06-23T09:41:49.000Z</time>
      </trkpt>
      <trkpt lat="47.85453" lon="6.75652">
        <ele>703</ele>
        <time>2018-06-23T09:41:50.000Z</time>
      </trkpt>
      <trkpt lat="47.85454" lon="6.75652">
        <ele>703</ele>
        <time>2018-06-23T09:41:51.000Z</time>
      </trkpt>
      <trkpt lat="47.85454" lon="6.75652">
        <ele>702</ele>
        <time>2018-06-23T09:41:52.000Z</time>
      </trkpt>
      <trkpt lat="47.85455" lon="6.75652">
        <ele>702</ele>
        <time>2018-06-23T09:41:53.000Z</time>
      </trkpt>
      <trkpt lat="47.85456" lon="6.75652">
        <ele>702</ele>
        <time>2018-06-23T09:41:54.000Z</time>
      </trkpt>
      <trkpt lat="47.85457" lon="6.75652">
        <ele>702</ele>
        <time>2018-06-23T09:41:55.000Z</time>
      </trkpt>
      <trkpt lat="47.85457" lon="6.75652">
        <ele>702</ele>
        <time>2018-06-23T09:41:56.000Z</time>
      </trkpt>
      <trkpt lat="47.85457" lon="6.75652">
        <ele>702</ele>
        <time>2018-06-23T09:41:57.000Z</time>
      </trkpt>
      <trkpt lat="47.85457" lon="6.75651">
        <ele>702</ele>
        <time>2018-06-23T09:41:58.000Z</time>
      </trkpt>
      <trkpt lat="47.85457" lon="6.75651">
        <ele>702</ele>
        <time>2018-06-23T09:41:59.000Z</time>
      </trkpt>
      <trkpt lat="47.85458" lon="6.75651">
        <ele>702</ele>
        <time>2018-06-23T09:42:00.000Z</time>
      </trkpt>
      <trkpt lat="47.85458" lon="6.75651">
        <ele>702</ele>
        <time>2018-06-23T09:42:01.000Z</time>
      </trkpt>
      <trkpt lat="47.85459" lon="6.75651">
        <ele>702</ele>
        <time>2018-06-23T09:42:02.000Z</time>
      </trkpt>
      <trkpt lat="47.8546" lon="6.75651">
        <ele>702</ele>
        <time>2018-06-23T09:42:03.000Z</time>
      </trkpt>
      <trkpt lat="47.8546" lon="6.75651">
        <ele>702</ele>
        <time>2018-06-23T09:42:04.000Z</time>
      </trkpt>
      <trkpt lat="47.85461" lon="6.75651">
        <ele>702</ele>
        <time>2018-06-23T09:42:05.000Z</time>
      </trkpt>
      <trkpt lat="47.85462" lon="6.75651">
        <ele>701</ele>
        <time>2018-06-23T09:42:06.000Z</time>
      </trkpt>
      <trkpt lat="47.85464" lon="6.75651">
        <ele>701</ele>
        <time>2018-06-23T09:42:07.000Z</time>
      </trkpt>
      <trkpt lat="47.85465" lon="6.75651">
        <ele>701</ele>
        <time>2018-06-23T09:42:08.000Z</time>
      </trkpt>
      <trkpt lat="47.85466" lon="6.75652">
        <ele>701</ele>
        <time>2018-06-23T09:42:09.000Z</time>
      </trkpt>
      <trkpt lat="47.85467" lon="6.75652">
        <ele>701</ele>
        <time>2018-06-23T09:42:10.000Z</time>
      </trkpt>
      <trkpt lat="47.85468" lon="6.75652">
        <ele>701</ele>
        <time>2018-06-23T09:42:11.000Z</time>
      </trkpt>
      <trkpt lat="47.85469" lon="6.75652">
        <ele>701</ele>
        <time>2018-06-23T09:42:12.000Z</time>
      </trkpt>
      <trkpt lat="47.8547" lon="6.75653">
        <ele>701</ele>
        <time>2018-06-23T09:42:13.000Z</time>
      </trkpt>
      <trkpt lat="47.8547" lon="6.75653">
        <ele>701</ele>
        <time>2018-06-23T09:42:14.000Z</time>
      </trkpt>
      <trkpt lat="47.8547" lon="6.75653">
        <ele>700</ele>
        <time>2018-06-23T09:42:15.000Z</time>
      </trkpt>
      <trkpt lat="47.85471" lon="6.75653">
        <ele>700</ele>
        <time>2018-06-23T09:42:16.000Z</time>
      </trkpt>
      <trkpt lat="47.85471" lon="6.75653">
        <ele>700</ele>
        <time>2018-06-23T09:42:17.000Z</time>
      </trkpt>
      <trkpt lat="47.85472" lon="6.75653">
        <ele>700</ele>
        <time>2018-06-23T09:42:18.000Z</time>
      </trkpt>
      <trkpt lat="47.85473" lon="6.75653">
        <ele>700</ele>
        <time>2018-06-23T09:42:19.000Z</time>
      </trkpt>
      <trkpt lat="47.85474" lon="6.75653">
        <ele>700</ele>
        <time>2018-06-23T09:42:20.000Z</time>
      </trkpt>
      <trkpt lat="47.85475" lon="6.75653">
        <ele>700</ele>
        <time>2018-06-23T09:42:21.000Z</time>
      </trkpt>
      <trkpt lat="47.85476" lon="6.75653">
        <ele>700</ele>
        <time>2018-06-23T09:42:22.000Z</time>
      </trkpt>
      <trkpt lat="47.85478" lon="6.75653">
        <ele>700</ele>
        <time>2018-06-23T09:42:23.000Z</time>
      </trkpt>
      <trkpt lat="47.85479" lon="6.75653">
        <ele>700</ele>
        <time>2018-06-23T09:42:24.000Z</time>
      </trkpt>
      <trkpt lat="47.8548" lon="6.75653">
        <ele>699</ele>
        <time>2018-06-23T09:42:25.000Z</time>
      </trkpt>
      <trkpt lat="47.85481" lon="6.75653">
        <ele>699</ele>
        <time>2018-06-23T09:42:26.000Z</time>
      </trkpt>
      <trkpt lat="47.85482" lon="6.75653">
        <ele>699</ele>
        <time>2018-06-23T09:42:27.000Z</time>
      </trkpt>
      <trkpt lat="47.85484" lon="6.75653">
        <ele>699</ele>
        <time>2018-06-23T09:42:28.000Z</time>
      </trkpt>
      <trkpt lat="47.85485" lon="6.75653">
        <ele>699</ele>
        <time>2018-06-23T09:42:29.000Z</time>
      </trkpt>
      <trkpt lat="47.85486" lon="6.75653">
        <ele>699</ele>
        <time>2018-06-23T09:42:30.000Z</time>
      </trkpt>
      <trkpt lat="47.85487" lon="6.75653">
        <ele>699</ele>
        <time>2018-06-23T09:42:31.000Z</time>
      </trkpt>
      <trkpt lat="47.85489" lon="6.75653">
        <ele>699</ele>
        <time>2018-06-23T09:42:32.000Z</time>
      </trkpt>
      <trkpt lat="47.8549" lon="6.75654">
        <ele>698</ele>
        <time>2018-06-23T09:42:33.000Z</time>
      </trkpt>
      <trkpt lat="47.85491" lon="6.75655">
        <ele>698</ele>
        <time>2018-06-23T09:42:34.000Z</time>
      </trkpt>
      <trkpt lat="47.85493" lon="6.75656">
        <ele>698</ele>
        <time>2018-06-23T09:42:35.000Z</time>
      </trkpt>
      <trkpt lat="47.85494" lon="6.75656">
        <ele>698</ele>
        <time>2018-06-23T09:42:36.000Z</time>
      </trkpt>
      <trkpt lat="47.85495" lon="6.75657">
        <ele>698</ele>
        <time>2018-06-23T09:42:37.000Z</time>
      </trkpt>
      <trkpt lat="47.85497" lon="6.75657">
        <ele>698</ele>
        <time>2018-06-23T09:42:38.000Z</time>
      </trkpt>
      <trkpt lat="47.85498" lon="6.75658">
        <ele>697</ele>
        <time>2018-06-23T09:42:39.000Z</time>
      </trkpt>
      <trkpt lat="47.85499" lon="6.75659">
        <ele>697</ele>
        <time>2018-06-23T09:42:40.000Z</time>
      </trkpt>
      <trkpt lat="47.855" lon="6.75659">
        <ele>697</ele>
        <time>2018-06-23T09:42:41.000Z</time>
      </trkpt>
      <trkpt lat="47.85501" lon="6.75659">
        <ele>694</ele>
        <time>2018-06-23T09:42:42.000Z</time>
      </trkpt>
      <trkpt lat="47.85502" lon="6.75659">
        <ele>694</ele>
        <time>2018-06-23T09:42:43.000Z</time>
      </trkpt>
      <trkpt lat="47.85503" lon="6.7566">
        <ele>694</ele>
        <time>2018-06-23T09:42:44.000Z</time>
      </trkpt>
      <trkpt lat="47.85503" lon="6.75661">
        <ele>694</ele>
        <time>2018-06-23T09:42:45.000Z</time>
      </trkpt>
      <trkpt lat="47.85504" lon="6.75661">
        <ele>694</ele>
        <time>2018-06-23T09:42:46.000Z</time>
      </trkpt>
      <trkpt lat="47.85505" lon="6.75661">
        <ele>694</ele>
        <time>2018-06-23T09:42:47.000Z</time>
      </trkpt>
      <trkpt lat="47.85506" lon="6.7566">
        <ele>694</ele>
        <time>2018-06-23T09:42:48.000Z</time>
      </trkpt>
      <trkpt lat="47.85507" lon="6.7566">
        <ele>693</ele>
        <time>2018-06-23T09:42:49.000Z</time>
      </trkpt>
      <trkpt lat="47.85508" lon="6.7566">
        <ele>693</ele>
        <time>2018-06-23T09:42:50.000Z</time>
      </trkpt>
      <trkpt lat="47.85508" lon="6.7566">
        <ele>693</ele>
        <time>2018-06-23T09:42:51.000Z</time>
      </trkpt>
      <trkpt lat="47.85509" lon="6.7566">
        <ele>693</ele>
        <time>2018-06-23T09:42:52.000Z</time>
      </trkpt>
      <trkpt lat="47.8551" lon="6.7566">
        <ele>693</ele>
        <time>2018-06-23T09:42:53.000Z</time>
      </trkpt>
      <trkpt lat="47.85511" lon="6.7566">
        <ele>693</ele>
        <time>2018-06-23T09:42:54.000Z</time>
      </trkpt>
      <trkpt lat="47.85512" lon="6.7566">
        <ele>693</ele>
        <time>2018-06-23T09:42:55.000Z</time>
      </trkpt>
      <trkpt lat="47.85512" lon="6.7566">
        <ele>692</ele>
        <time>2018-06-23T09:42:56.000Z</time>
      </trkpt>
      <trkpt lat="47.85513" lon="6.7566">
        <ele>692</ele>
        <time>2018-06-23T09:42:57.000Z</time>
      </trkpt>
      <trkpt lat="47.85514" lon="6.7566">
        <ele>692</ele>
        <time>2018-06-23T09:42:58.000Z</time>
      </trkpt>
      <trkpt lat="47.85514" lon="6.75661">
        <ele>692</ele>
        <time>2018-06-23T09:42:59.000Z</time>
      </trkpt>
      <trkpt lat="47.85514" lon="6.75661">
        <ele>692</ele>
        <time>2018-06-23T09:43:00.000Z</time>
      </trkpt>
      <trkpt lat="47.85514" lon="6.75661">
        <ele>692</ele>
        <time>2018-06-23T09:43:01.000Z</time>
      </trkpt>
      <trkpt lat="47.85514" lon="6.75661">
        <ele>692</ele>
        <time>2018-06-23T09:43:02.000Z</time>
      </trkpt>
      <trkpt lat="47.85515" lon="6.75661">
        <ele>692</ele>
        <time>2018-06-23T09:43:03.000Z</time>
      </trkpt>
      <trkpt lat="47.85515" lon="6.75661">
        <ele>692</ele>
        <time>2018-06-23T09:43:04.000Z</time>
      </trkpt>
      <trkpt lat="47.85515" lon="6.75661">
        <ele>692</ele>
        <time>2018-06-23T09:43:05.000Z</time>
      </trkpt>
      <trkpt lat="47.85515" lon="6.75661">
        <ele>692</ele>
        <time>2018-06-23T09:43:06.000Z</time>
      </trkpt>
      <trkpt lat="47.85515" lon="6.75661">
        <ele>692</ele>
        <time>2018-06-23T09:43:07.000Z</time>
      </trkpt>
      <trkpt lat="47.85516" lon="6.75661">
        <ele>692</ele>
        <time>2018-06-23T09:43:08.000Z</time>
      </trkpt>
      <trkpt lat="47.85518" lon="6.75661">
        <ele>692</ele>
        <time>2018-06-23T09:43:09.000Z</time>
      </trkpt>
      <trkpt lat="47.85519" lon="6.75661">
        <ele>692</ele>
        <time>2018-06-23T09:43:10.000Z</time>
      </trkpt>
      <trkpt lat="47.8552" lon="6.75662">
        <ele>691</ele>
        <time>2018-06-23T09:43:11.000Z</time>
      </trkpt>
      <trkpt lat="47.85521" lon="6.75662">
        <ele>691</ele>
        <time>2018-06-23T09:43:12.000Z</time>
      </trkpt>
      <trkpt lat="47.85522" lon="6.75663">
        <ele>691</ele>
        <time>2018-06-23T09:43:13.000Z</time>
      </trkpt>
      <trkpt lat="47.85523" lon="6.75663">
        <ele>691</ele>
        <time>2018-06-23T09:43:14.000Z</time>
      </trkpt>
      <trkpt lat="47.85525" lon="6.75663">
        <ele>691</ele>
        <time>2018-06-23T09:43:15.000Z</time>
      </trkpt>
      <trkpt lat="47.85526" lon="6.75663">
        <ele>691</ele>
        <time>2018-06-23T09:43:16.000Z</time>
      </trkpt>
      <trkpt lat="47.85527" lon="6.75663">
        <ele>690</ele>
        <time>2018-06-23T09:43:17.000Z</time>
      </trkpt>
      <trkpt lat="47.85528" lon="6.75663">
        <ele>690</ele>
        <time>2018-06-23T09:43:18.000Z</time>
      </trkpt>
      <trkpt lat="47.85529" lon="6.75663">
        <ele>690</ele>
        <time>2018-06-23T09:43:19.000Z</time>
      </trkpt>
      <trkpt lat="47.8553" lon="6.75663">
        <ele>690</ele>
        <time>2018-06-23T09:43:20.000Z</time>
      </trkpt>
      <trkpt lat="47.85531" lon="6.75663">
        <ele>690</ele>
        <time>2018-06-23T09:43:21.000Z</time>
      </trkpt>
      <trkpt lat="47.85532" lon="6.75663">
        <ele>690</ele>
        <time>2018-06-23T09:43:22.000Z</time>
      </trkpt>
      <trkpt lat="47.85533" lon="6.75663">
        <ele>690</ele>
        <time>2018-06-23T09:43:23.000Z</time>
      </trkpt>
      <trkpt lat="47.85534" lon="6.75663">
        <ele>690</ele>
        <time>2018-06-23T09:43:24.000Z</time>
      </trkpt>
      <trkpt lat="47.85535" lon="6.75664">
        <ele>690</ele>
        <time>2018-06-23T09:43:25.000Z</time>
      </trkpt>
      <trkpt lat="47.85536" lon="6.75664">
        <ele>689</ele>
        <time>2018-06-23T09:43:26.000Z</time>
      </trkpt>
      <trkpt lat="47.85537" lon="6.75664">
        <ele>689</ele>
        <time>2018-06-23T09:43:27.000Z</time>
      </trkpt>
      <trkpt lat="47.85538" lon="6.75665">
        <ele>689</ele>
        <time>2018-06-23T09:43:28.000Z</time>
      </trkpt>
      <trkpt lat="47.85539" lon="6.75665">
        <ele>689</ele>
        <time>2018-06-23T09:43:29.000Z</time>
      </trkpt>
      <trkpt lat="47.8554" lon="6.75665">
        <ele>689</ele>
        <time>2018-06-23T09:43:30.000Z</time>
      </trkpt>
      <trkpt lat="47.85541" lon="6.75665">
        <ele>689</ele>
        <time>2018-06-23T09:43:31.000Z</time>
      </trkpt>
      <trkpt lat="47.85542" lon="6.75665">
        <ele>689</ele>
        <time>2018-06-23T09:43:32.000Z</time>
      </trkpt>
      <trkpt lat="47.85543" lon="6.75665">
        <ele>689</ele>
        <time>2018-06-23T09:43:33.000Z</time>
      </trkpt>
      <trkpt lat="47.85544" lon="6.75665">
        <ele>689</ele>
        <time>2018-06-23T09:43:34.000Z</time>
      </trkpt>
      <trkpt lat="47.85545" lon="6.75666">
        <ele>689</ele>
        <time>2018-06-23T09:43:35.000Z</time>
      </trkpt>
      <trkpt lat="47.85546" lon="6.75666">
        <ele>689</ele>
        <time>2018-06-23T09:43:36.000Z</time>
      </trkpt>
      <trkpt lat="47.85547" lon="6.75666">
        <ele>689</ele>
        <time>2018-06-23T09:43:37.000Z</time>
      </trkpt>
      <trkpt lat="47.85548" lon="6.75666">
        <ele>688</ele>
        <time>2018-06-23T09:43:38.000Z</time>
      </trkpt>
      <trkpt lat="47.85549" lon="6.75666">
        <ele>688</ele>
        <time>2018-06-23T09:43:39.000Z</time>
      </trkpt>
      <trkpt lat="47.8555" lon="6.75666">
        <ele>688</ele>
        <time>2018-06-23T09:43:40.000Z</time>
      </trkpt>
      <trkpt lat="47.85551" lon="6.75667">
        <ele>694</ele>
        <time>2018-06-23T09:43:41.000Z</time>
      </trkpt>
      <trkpt lat="47.85551" lon="6.75667">
        <ele>694</ele>
        <time>2018-06-23T09:43:42.000Z</time>
      </trkpt>
      <trkpt lat="47.85552" lon="6.75667">
        <ele>693</ele>
        <time>2018-06-23T09:43:43.000Z</time>
      </trkpt>
      <trkpt lat="47.85553" lon="6.75667">
        <ele>688</ele>
        <time>2018-06-23T09:43:44.000Z</time>
      </trkpt>
      <trkpt lat="47.85554" lon="6.75666">
        <ele>688</ele>
        <time>2018-06-23T09:43:45.000Z</time>
      </trkpt>
      <trkpt lat="47.85555" lon="6.75667">
        <ele>688</ele>
        <time>2018-06-23T09:43:46.000Z</time>
      </trkpt>
      <trkpt lat="47.85556" lon="6.75667">
        <ele>688</ele>
        <time>2018-06-23T09:43:47.000Z</time>
      </trkpt>
      <trkpt lat="47.85557" lon="6.75667">
        <ele>693</ele>
        <time>2018-06-23T09:43:48.000Z</time>
      </trkpt>
      <trkpt lat="47.85558" lon="6.75667">
        <ele>693</ele>
        <time>2018-06-23T09:43:49.000Z</time>
      </trkpt>
      <trkpt lat="47.85559" lon="6.75668">
        <ele>692</ele>
        <time>2018-06-23T09:43:50.000Z</time>
      </trkpt>
      <trkpt lat="47.8556" lon="6.75668">
        <ele>692</ele>
        <time>2018-06-23T09:43:51.000Z</time>
      </trkpt>
      <trkpt lat="47.85561" lon="6.75669">
        <ele>692</ele>
        <time>2018-06-23T09:43:52.000Z</time>
      </trkpt>
      <trkpt lat="47.85562" lon="6.75669">
        <ele>692</ele>
        <time>2018-06-23T09:43:53.000Z</time>
      </trkpt>
      <trkpt lat="47.85563" lon="6.75669">
        <ele>692</ele>
        <time>2018-06-23T09:43:54.000Z</time>
      </trkpt>
      <trkpt lat="47.85564" lon="6.7567">
        <ele>692</ele>
        <time>2018-06-23T09:43:55.000Z</time>
      </trkpt>
      <trkpt lat="47.85565" lon="6.7567">
        <ele>691</ele>
        <time>2018-06-23T09:43:56.000Z</time>
      </trkpt>
      <trkpt lat="47.85566" lon="6.7567">
        <ele>691</ele>
        <time>2018-06-23T09:43:57.000Z</time>
      </trkpt>
      <trkpt lat="47.85568" lon="6.75671">
        <ele>691</ele>
        <time>2018-06-23T09:43:58.000Z</time>
      </trkpt>
      <trkpt lat="47.85569" lon="6.75671">
        <ele>691</ele>
        <time>2018-06-23T09:43:59.000Z</time>
      </trkpt>
      <trkpt lat="47.8557" lon="6.75672">
        <ele>691</ele>
        <time>2018-06-23T09:44:00.000Z</time>
      </trkpt>
      <trkpt lat="47.85571" lon="6.75672">
        <ele>691</ele>
        <time>2018-06-23T09:44:01.000Z</time>
      </trkpt>
      <trkpt lat="47.85572" lon="6.75672">
        <ele>690</ele>
        <time>2018-06-23T09:44:02.000Z</time>
      </trkpt>
      <trkpt lat="47.85573" lon="6.75672">
        <ele>690</ele>
        <time>2018-06-23T09:44:03.000Z</time>
      </trkpt>
      <trkpt lat="47.85574" lon="6.75672">
        <ele>690</ele>
        <time>2018-06-23T09:44:04.000Z</time>
      </trkpt>
      <trkpt lat="47.85575" lon="6.75672">
        <ele>689</ele>
        <time>2018-06-23T09:44:05.000Z</time>
      </trkpt>
      <trkpt lat="47.85576" lon="6.75672">
        <ele>689</ele>
        <time>2018-06-23T09:44:06.000Z</time>
      </trkpt>
      <trkpt lat="47.85578" lon="6.75672">
        <ele>689</ele>
        <time>2018-06-23T09:44:07.000Z</time>
      </trkpt>
      <trkpt lat="47.85578" lon="6.75671">
        <ele>689</ele>
        <time>2018-06-23T09:44:08.000Z</time>
      </trkpt>
      <trkpt lat="47.85579" lon="6.75671">
        <ele>688</ele>
        <time>2018-06-23T09:44:09.000Z</time>
      </trkpt>
      <trkpt lat="47.8558" lon="6.75671">
        <ele>688</ele>
        <time>2018-06-23T09:44:10.000Z</time>
      </trkpt>
      <trkpt lat="47.85581" lon="6.7567">
        <ele>688</ele>
        <time>2018-06-23T09:44:11.000Z</time>
      </trkpt>
      <trkpt lat="47.85582" lon="6.7567">
        <ele>687</ele>
        <time>2018-06-23T09:44:12.000Z</time>
      </trkpt>
      <trkpt lat="47.85583" lon="6.75669">
        <ele>687</ele>
        <time>2018-06-23T09:44:13.000Z</time>
      </trkpt>
      <trkpt lat="47.85584" lon="6.75669">
        <ele>687</ele>
        <time>2018-06-23T09:44:14.000Z</time>
      </trkpt>
      <trkpt lat="47.85585" lon="6.75668">
        <ele>687</ele>
        <time>2018-06-23T09:44:15.000Z</time>
      </trkpt>
      <trkpt lat="47.85585" lon="6.75667">
        <ele>687</ele>
        <time>2018-06-23T09:44:16.000Z</time>
      </trkpt>
      <trkpt lat="47.85586" lon="6.75666">
        <ele>686</ele>
        <time>2018-06-23T09:44:17.000Z</time>
      </trkpt>
      <trkpt lat="47.85587" lon="6.75665">
        <ele>686</ele>
        <time>2018-06-23T09:44:18.000Z</time>
      </trkpt>
      <trkpt lat="47.85588" lon="6.75665">
        <ele>686</ele>
        <time>2018-06-23T09:44:19.000Z</time>
      </trkpt>
      <trkpt lat="47.85588" lon="6.75665">
        <ele>686</ele>
        <time>2018-06-23T09:44:20.000Z</time>
      </trkpt>
      <trkpt lat="47.85588" lon="6.75665">
        <ele>686</ele>
        <time>2018-06-23T09:44:21.000Z</time>
      </trkpt>
      <trkpt lat="47.85588" lon="6.75665">
        <ele>686</ele>
        <time>2018-06-23T09:44:22.000Z</time>
      </trkpt>
      <trkpt lat="47.85588" lon="6.75665">
        <ele>686</ele>
        <time>2018-06-23T09:44:23.000Z</time>
      </trkpt>
      <trkpt lat="47.85588" lon="6.75665">
        <ele>686</ele>
        <time>2018-06-23T09:44:24.000Z</time>
      </trkpt>
      <trkpt lat="47.85588" lon="6.75665">
        <ele>686</ele>
        <time>2018-06-23T09:44:25.000Z</time>
      </trkpt>
      <trkpt lat="47.85588" lon="6.75665">
        <ele>686</ele>
        <time>2018-06-23T09:44:26.000Z</time>
      </trkpt>
      <trkpt lat="47.85588" lon="6.75665">
        <ele>686</ele>
        <time>2018-06-23T09:44:27.000Z</time>
      </trkpt>
      <trkpt lat="47.85588" lon="6.75664">
        <ele>686</ele>
        <time>2018-06-23T09:44:28.000Z</time>
      </trkpt>
      <trkpt lat="47.85588" lon="6.75665">
        <ele>686</ele>
        <time>2018-06-23T09:44:29.000Z</time>
      </trkpt>
      <trkpt lat="47.85589" lon="6.75664">
        <ele>686</ele>
        <time>2018-06-23T09:44:30.000Z</time>
      </trkpt>
      <trkpt lat="47.85589" lon="6.75664">
        <ele>686</ele>
        <time>2018-06-23T09:44:31.000Z</time>
      </trkpt>
      <trkpt lat="47.8559" lon="6.75664">
        <ele>686</ele>
        <time>2018-06-23T09:44:32.000Z</time>
      </trkpt>
      <trkpt lat="47.85591" lon="6.75663">
        <ele>686</ele>
        <time>2018-06-23T09:44:33.000Z</time>
      </trkpt>
      <trkpt lat="47.85592" lon="6.75663">
        <ele>686</ele>
        <time>2018-06-23T09:44:34.000Z</time>
      </trkpt>
      <trkpt lat="47.85592" lon="6.75662">
        <ele>686</ele>
        <time>2018-06-23T09:44:35.000Z</time>
      </trkpt>
      <trkpt lat="47.85593" lon="6.75662">
        <ele>686</ele>
        <time>2018-06-23T09:44:36.000Z</time>
      </trkpt>
      <trkpt lat="47.85594" lon="6.75661">
        <ele>686</ele>
        <time>2018-06-23T09:44:37.000Z</time>
      </trkpt>
      <trkpt lat="47.85595" lon="6.75661">
        <ele>686</ele>
        <time>2018-06-23T09:44:38.000Z</time>
      </trkpt>
      <trkpt lat="47.85596" lon="6.7566">
        <ele>686</ele>
        <time>2018-06-23T09:44:39.000Z</time>
      </trkpt>
      <trkpt lat="47.85596" lon="6.75659">
        <ele>686</ele>
        <time>2018-06-23T09:44:40.000Z</time>
      </trkpt>
      <trkpt lat="47.85597" lon="6.75659">
        <ele>686</ele>
        <time>2018-06-23T09:44:41.000Z</time>
      </trkpt>
      <trkpt lat="47.85598" lon="6.75658">
        <ele>686</ele>
        <time>2018-06-23T09:44:42.000Z</time>
      </trkpt>
      <trkpt lat="47.85599" lon="6.75657">
        <ele>686</ele>
        <time>2018-06-23T09:44:43.000Z</time>
      </trkpt>
      <trkpt lat="47.856" lon="6.75657">
        <ele>687</ele>
        <time>2018-06-23T09:44:44.000Z</time>
      </trkpt>
      <trkpt lat="47.856" lon="6.75656">
        <ele>687</ele>
        <time>2018-06-23T09:44:45.000Z</time>
      </trkpt>
      <trkpt lat="47.85601" lon="6.75656">
        <ele>687</ele>
        <time>2018-06-23T09:44:46.000Z</time>
      </trkpt>
      <trkpt lat="47.85602" lon="6.75656">
        <ele>687</ele>
        <time>2018-06-23T09:44:47.000Z</time>
      </trkpt>
      <trkpt lat="47.85602" lon="6.75655">
        <ele>687</ele>
        <time>2018-06-23T09:44:48.000Z</time>
      </trkpt>
      <trkpt lat="47.85603" lon="6.75655">
        <ele>687</ele>
        <time>2018-06-23T09:44:49.000Z</time>
      </trkpt>
      <trkpt lat="47.85604" lon="6.75654">
        <ele>687</ele>
        <time>2018-06-23T09:44:50.000Z</time>
      </trkpt>
      <trkpt lat="47.85604" lon="6.75654">
        <ele>687</ele>
        <time>2018-06-23T09:44:51.000Z</time>
      </trkpt>
      <trkpt lat="47.85605" lon="6.75654">
        <ele>687</ele>
        <time>2018-06-23T09:44:52.000Z</time>
      </trkpt>
      <trkpt lat="47.85605" lon="6.75653">
        <ele>687</ele>
        <time>2018-06-23T09:44:53.000Z</time>
      </trkpt>
      <trkpt lat="47.85606" lon="6.75653">
        <ele>687</ele>
        <time>2018-06-23T09:44:54.000Z</time>
      </trkpt>
      <trkpt lat="47.85606" lon="6.75653">
        <ele>687</ele>
        <time>2018-06-23T09:44:55.000Z</time>
      </trkpt>
      <trkpt lat="47.85606" lon="6.75652">
        <ele>687</ele>
        <time>2018-06-23T09:44:56.000Z</time>
      </trkpt>
      <trkpt lat="47.85607" lon="6.75652">
        <ele>687</ele>
        <time>2018-06-23T09:44:57.000Z</time>
      </trkpt>
      <trkpt lat="47.85607" lon="6.75652">
        <ele>687</ele>
        <time>2018-06-23T09:44:58.000Z</time>
      </trkpt>
      <trkpt lat="47.85607" lon="6.75652">
        <ele>687</ele>
        <time>2018-06-23T09:44:59.000Z</time>
      </trkpt>
      <trkpt lat="47.85607" lon="6.75652">
        <ele>687</ele>
        <time>2018-06-23T09:45:00.000Z</time>
      </trkpt>
      <trkpt lat="47.85607" lon="6.75651">
        <ele>687</ele>
        <time>2018-06-23T09:45:01.000Z</time>
      </trkpt>
      <trkpt lat="47.85607" lon="6.75651">
        <ele>687</ele>
        <time>2018-06-23T09:45:02.000Z</time>
      </trkpt>
      <trkpt lat="47.85607" lon="6.75652">
        <ele>687</ele>
        <time>2018-06-23T09:45:03.000Z</time>
      </trkpt>
      <trkpt lat="47.85607" lon="6.75651">
        <ele>687</ele>
        <time>2018-06-23T09:45:04.000Z</time>
      </trkpt>
      <trkpt lat="47.85608" lon="6.75651">
        <ele>687</ele>
        <time>2018-06-23T09:45:05.000Z</time>
      </trkpt>
      <trkpt lat="47.85608" lon="6.75651">
        <ele>687</ele>
        <time>2018-06-23T09:45:06.000Z</time>
      </trkpt>
      <trkpt lat="47.85608" lon="6.75651">
        <ele>687</ele>
        <time>2018-06-23T09:45:07.000Z</time>
      </trkpt>
      <trkpt lat="47.85608" lon="6.75651">
        <ele>687</ele>
        <time>2018-06-23T09:45:08.000Z</time>
      </trkpt>
      <trkpt lat="47.85608" lon="6.75651">
        <ele>687</ele>
        <time>2018-06-23T09:45:09.000Z</time>
      </trkpt>
      <trkpt lat="47.85608" lon="6.75651">
        <ele>687</ele>
        <time>2018-06-23T09:45:10.000Z</time>
      </trkpt>
      <trkpt lat="47.85608" lon="6.7565">
        <ele>687</ele>
        <time>2018-06-23T09:45:11.000Z</time>
      </trkpt>
      <trkpt lat="47.85609" lon="6.7565">
        <ele>687</ele>
        <time>2018-06-23T09:45:12.000Z</time>
      </trkpt>
      <trkpt lat="47.85609" lon="6.7565">
        <ele>687</ele>
        <time>2018-06-23T09:45:13.000Z</time>
      </trkpt>
      <trkpt lat="47.85609" lon="6.7565">
        <ele>687</ele>
        <time>2018-06-23T09:45:14.000Z</time>
      </trkpt>
      <trkpt lat="47.85609" lon="6.75649">
        <ele>687</ele>
        <time>2018-06-23T09:45:15.000Z</time>
      </trkpt>
      <trkpt lat="47.85609" lon="6.75648">
        <ele>687</ele>
        <time>2018-06-23T09:45:16.000Z</time>
      </trkpt>
      <trkpt lat="47.85609" lon="6.75648">
        <ele>687</ele>
        <time>2018-06-23T09:45:17.000Z</time>
      </trkpt>
      <trkpt lat="47.85609" lon="6.75648">
        <ele>687</ele>
        <time>2018-06-23T09:45:18.000Z</time>
      </trkpt>
      <trkpt lat="47.85609" lon="6.75648">
        <ele>687</ele>
        <time>2018-06-23T09:45:19.000Z</time>
      </trkpt>
      <trkpt lat="47.85609" lon="6.75648">
        <ele>687</ele>
        <time>2018-06-23T09:45:20.000Z</time>
      </trkpt>
      <trkpt lat="47.85609" lon="6.75648">
        <ele>687</ele>
        <time>2018-06-23T09:45:21.000Z</time>
      </trkpt>
      <trkpt lat="47.8561" lon="6.75648">
        <ele>687</ele>
        <time>2018-06-23T09:45:22.000Z</time>
      </trkpt>
      <trkpt lat="47.8561" lon="6.75647">
        <ele>687</ele>
        <time>2018-06-23T09:45:23.000Z</time>
      </trkpt>
      <trkpt lat="47.8561" lon="6.75647">
        <ele>687</ele>
        <time>2018-06-23T09:45:24.000Z</time>
      </trkpt>
      <trkpt lat="47.8561" lon="6.75647">
        <ele>687</ele>
        <time>2018-06-23T09:45:25.000Z</time>
      </trkpt>
      <trkpt lat="47.85611" lon="6.75646">
        <ele>687</ele>
        <time>2018-06-23T09:45:26.000Z</time>
      </trkpt>
      <trkpt lat="47.85611" lon="6.75646">
        <ele>687</ele>
        <time>2018-06-23T09:45:27.000Z</time>
      </trkpt>
      <trkpt lat="47.85611" lon="6.75646">
        <ele>687</ele>
        <time>2018-06-23T09:45:28.000Z</time>
      </trkpt>
      <trkpt lat="47.85611" lon="6.75646">
        <ele>687</ele>
        <time>2018-06-23T09:45:29.000Z</time>
      </trkpt>
      <trkpt lat="47.85611" lon="6.75646">
        <ele>687</ele>
        <time>2018-06-23T09:45:30.000Z</time>
      </trkpt>
      <trkpt lat="47.85611" lon="6.75646">
        <ele>687</ele>
        <time>2018-06-23T09:45:31.000Z</time>
      </trkpt>
      <trkpt lat="47.85611" lon="6.75646">
        <ele>687</ele>
        <time>2018-06-23T09:45:32.000Z</time>
      </trkpt>
      <trkpt lat="47.85611" lon="6.75646">
        <ele>687</ele>
        <time>2018-06-23T09:45:33.000Z</time>
      </trkpt>
      <trkpt lat="47.85611" lon="6.75646">
        <ele>687</ele>
        <time>2018-06-23T09:45:34.000Z</time>
      </trkpt>
      <trkpt lat="47.85611" lon="6.75647">
        <ele>687</ele>
        <time>2018-06-23T09:45:35.000Z</time>
      </trkpt>
      <trkpt lat="47.85611" lon="6.75647">
        <ele>687</ele>
        <time>2018-06-23T09:45:36.000Z</time>
      </trkpt>
      <trkpt lat="47.85611" lon="6.75646">
        <ele>687</ele>
        <time>2018-06-23T09:45:37.000Z</time>
      </trkpt>
      <trkpt lat="47.85611" lon="6.75646">
        <ele>687</ele>
        <time>2018-06-23T09:45:38.000Z</time>
      </trkpt>
      <trkpt lat="47.85612" lon="6.75646">
        <ele>687</ele>
        <time>2018-06-23T09:45:39.000Z</time>
      </trkpt>
      <trkpt lat="47.85612" lon="6.75646">
        <ele>687</ele>
        <time>2018-06-23T09:45:40.000Z</time>
      </trkpt>
      <trkpt lat="47.85612" lon="6.75646">
        <ele>687</ele>
        <time>2018-06-23T09:45:41.000Z</time>
      </trkpt>
      <trkpt lat="47.85612" lon="6.75646">
        <ele>687</ele>
        <time>2018-06-23T09:45:42.000Z</time>
      </trkpt>
      <trkpt lat="47.85612" lon="6.75645">
        <ele>687</ele>
        <time>2018-06-23T09:45:43.000Z</time>
      </trkpt>
      <trkpt lat="47.85612" lon="6.75645">
        <ele>687</ele>
        <time>2018-06-23T09:45:44.000Z</time>
      </trkpt>
      <trkpt lat="47.85612" lon="6.75645">
        <ele>687</ele>
        <time>2018-06-23T09:45:45.000Z</time>
      </trkpt>
      <trkpt lat="47.85612" lon="6.75645">
        <ele>687</ele>
        <time>2018-06-23T09:45:46.000Z</time>
      </trkpt>
      <trkpt lat="47.85612" lon="6.75645">
        <ele>687</ele>
        <time>2018-06-23T09:45:47.000Z</time>
      </trkpt>
      <trkpt lat="47.85612" lon="6.75645">
        <ele>687</ele>
        <time>2018-06-23T09:45:48.000Z</time>
      </trkpt>
      <trkpt lat="47.85612" lon="6.75645">
        <ele>687</ele>
        <time>2018-06-23T09:45:49.000Z</time>
      </trkpt>
      <trkpt lat="47.85613" lon="6.75645">
        <ele>687</ele>
        <time>2018-06-23T09:45:50.000Z</time>
      </trkpt>
      <trkpt lat="47.85613" lon="6.75645">
        <ele>687</ele>
        <time>2018-06-23T09:45:51.000Z</time>
      </trkpt>
      <trkpt lat="47.85613" lon="6.75645">
        <ele>687</ele>
        <time>2018-06-23T09:45:52.000Z</time>
      </trkpt>
      <trkpt lat="47.85613" lon="6.75645">
        <ele>687</ele>
        <time>2018-06-23T09:45:53.000Z</time>
      </trkpt>
      <trkpt lat="47.85613" lon="6.75645">
        <ele>687</ele>
        <time>2018-06-23T09:45:54.000Z</time>
      </trkpt>
      <trkpt lat="47.85613" lon="6.75645">
        <ele>687</ele>
        <time>2018-06-23T09:45:55.000Z</time>
      </trkpt>
      <trkpt lat="47.85613" lon="6.75645">
        <ele>687</ele>
        <time>2018-06-23T09:45:56.000Z</time>
      </trkpt>
      <trkpt lat="47.85613" lon="6.75645">
        <ele>687</ele>
        <time>2018-06-23T09:45:57.000Z</time>
      </trkpt>
      <trkpt lat="47.85613" lon="6.75645">
        <ele>687</ele>
        <time>2018-06-23T09:45:58.000Z</time>
      </trkpt>
      <trkpt lat="47.85613" lon="6.75645">
        <ele>687</ele>
        <time>2018-06-23T09:45:59.000Z</time>
      </trkpt>
      <trkpt lat="47.85613" lon="6.75645">
        <ele>687</ele>
        <time>2018-06-23T09:46:00.000Z</time>
      </trkpt>
      <trkpt lat="47.85613" lon="6.75645">
        <ele>687</ele>
        <time>2018-06-23T09:46:01.000Z</time>
      </trkpt>
      <trkpt lat="47.85613" lon="6.75645">
        <ele>687</ele>
        <time>2018-06-23T09:46:02.000Z</time>
      </trkpt>
      <trkpt lat="47.85613" lon="6.75645">
        <ele>687</ele>
        <time>2018-06-23T09:46:03.000Z</time>
      </trkpt>
      <trkpt lat="47.85613" lon="6.75645">
        <ele>687</ele>
        <time>2018-06-23T09:46:04.000Z</time>
      </trkpt>
      <trkpt lat="47.85613" lon="6.75645">
        <ele>687</ele>
        <time>2018-06-23T09:46:05.000Z</time>
      </trkpt>
      <trkpt lat="47.85613" lon="6.75645">
        <ele>687</ele>
        <time>2018-06-23T09:46:06.000Z</time>
      </trkpt>
      <trkpt lat="47.85613" lon="6.75645">
        <ele>687</ele>
        <time>2018-06-23T09:46:07.000Z</time>
      </trkpt>
      <trkpt lat="47.85613" lon="6.75645">
        <ele>687</ele>
        <time>2018-06-23T09:46:08.000Z</time>
      </trkpt>
      <trkpt lat="47.85613" lon="6.75645">
        <ele>687</ele>
        <time>2018-06-23T09:46:09.000Z</time>
      </trkpt>
      <trkpt lat="47.85613" lon="6.75645">
        <ele>687</ele>
        <time>2018-06-23T09:46:10.000Z</time>
      </trkpt>
      <trkpt lat="47.85613" lon="6.75645">
        <ele>687</ele>
        <time>2018-06-23T09:46:11.000Z</time>
      </trkpt>
      <trkpt lat="47.85613" lon="6.75645">
        <ele>687</ele>
        <time>2018-06-23T09:46:12.000Z</time>
      </trkpt>
      <trkpt lat="47.85614" lon="6.75645">
        <ele>687</ele>
        <time>2018-06-23T09:46:13.000Z</time>
      </trkpt>
      <trkpt lat="47.85614" lon="6.75645">
        <ele>687</ele>
        <time>2018-06-23T09:46:14.000Z</time>
      </trkpt>
      <trkpt lat="47.85614" lon="6.75645">
        <ele>687</ele>
        <time>2018-06-23T09:46:15.000Z</time>
      </trkpt>
      <trkpt lat="47.85614" lon="6.75646">
        <ele>687</ele>
        <time>2018-06-23T09:46:16.000Z</time>
      </trkpt>
      <trkpt lat="47.85614" lon="6.75646">
        <ele>687</ele>
        <time>2018-06-23T09:46:17.000Z</time>
      </trkpt>
      <trkpt lat="47.85614" lon="6.75646">
        <ele>687</ele>
        <time>2018-06-23T09:46:18.000Z</time>
      </trkpt>
      <trkpt lat="47.85614" lon="6.75647">
        <ele>687</ele>
        <time>2018-06-23T09:46:19.000Z</time>
      </trkpt>
      <trkpt lat="47.85614" lon="6.75648">
        <ele>687</ele>
        <time>2018-06-23T09:46:20.000Z</time>
      </trkpt>
      <trkpt lat="47.85614" lon="6.75648">
        <ele>687</ele>
        <time>2018-06-23T09:46:21.000Z</time>
      </trkpt>
      <trkpt lat="47.85614" lon="6.75648">
        <ele>687</ele>
        <time>2018-06-23T09:46:22.000Z</time>
      </trkpt>
      <trkpt lat="47.85614" lon="6.75649">
        <ele>687</ele>
        <time>2018-06-23T09:46:23.000Z</time>
      </trkpt>
      <trkpt lat="47.85615" lon="6.75649">
        <ele>687</ele>
        <time>2018-06-23T09:46:24.000Z</time>
      </trkpt>
      <trkpt lat="47.85615" lon="6.7565">
        <ele>687</ele>
        <time>2018-06-23T09:46:25.000Z</time>
      </trkpt>
      <trkpt lat="47.85616" lon="6.75651">
        <ele>687</ele>
        <time>2018-06-23T09:46:26.000Z</time>
      </trkpt>
      <trkpt lat="47.85616" lon="6.75652">
        <ele>687</ele>
        <time>2018-06-23T09:46:27.000Z</time>
      </trkpt>
      <trkpt lat="47.85617" lon="6.75653">
        <ele>687</ele>
        <time>2018-06-23T09:46:28.000Z</time>
      </trkpt>
      <trkpt lat="47.85617" lon="6.75654">
        <ele>687</ele>
        <time>2018-06-23T09:46:29.000Z</time>
      </trkpt>
      <trkpt lat="47.85617" lon="6.75655">
        <ele>687</ele>
        <time>2018-06-23T09:46:30.000Z</time>
      </trkpt>
      <trkpt lat="47.85617" lon="6.75656">
        <ele>687</ele>
        <time>2018-06-23T09:46:31.000Z</time>
      </trkpt>
      <trkpt lat="47.85617" lon="6.75657">
        <ele>687</ele>
        <time>2018-06-23T09:46:32.000Z</time>
      </trkpt>
      <trkpt lat="47.85617" lon="6.75658">
        <ele>687</ele>
        <time>2018-06-23T09:46:33.000Z</time>
      </trkpt>
      <trkpt lat="47.85617" lon="6.75659">
        <ele>687</ele>
        <time>2018-06-23T09:46:34.000Z</time>
      </trkpt>
      <trkpt lat="47.85617" lon="6.7566">
        <ele>687</ele>
        <time>2018-06-23T09:46:35.000Z</time>
      </trkpt>
      <trkpt lat="47.85617" lon="6.75661">
        <ele>687</ele>
        <time>2018-06-23T09:46:36.000Z</time>
      </trkpt>
      <trkpt lat="47.85617" lon="6.75662">
        <ele>687</ele>
        <time>2018-06-23T09:46:37.000Z</time>
      </trkpt>
      <trkpt lat="47.85617" lon="6.75663">
        <ele>687</ele>
        <time>2018-06-23T09:46:38.000Z</time>
      </trkpt>
      <trkpt lat="47.85617" lon="6.75663">
        <ele>687</ele>
        <time>2018-06-23T09:46:39.000Z</time>
      </trkpt>
      <trkpt lat="47.85616" lon="6.75664">
        <ele>687</ele>
        <time>2018-06-23T09:46:40.000Z</time>
      </trkpt>
      <trkpt lat="47.85616" lon="6.75665">
        <ele>687</ele>
        <time>2018-06-23T09:46:41.000Z</time>
      </trkpt>
      <trkpt lat="47.85616" lon="6.75664">
        <ele>687</ele>
        <time>2018-06-23T09:46:42.000Z</time>
      </trkpt>
      <trkpt lat="47.85616" lon="6.75665">
        <ele>687</ele>
        <time>2018-06-23T09:46:43.000Z</time>
      </trkpt>
      <trkpt lat="47.85616" lon="6.75664">
        <ele>687</ele>
        <time>2018-06-23T09:46:44.000Z</time>
      </trkpt>
      <trkpt lat="47.85616" lon="6.75665">
        <ele>687</ele>
        <time>2018-06-23T09:46:45.000Z</time>
      </trkpt>
      <trkpt lat="47.85616" lon="6.75665">
        <ele>687</ele>
        <time>2018-06-23T09:46:46.000Z</time>
      </trkpt>
      <trkpt lat="47.85616" lon="6.75666">
        <ele>687</ele>
        <time>2018-06-23T09:46:47.000Z</time>
      </trkpt>
      <trkpt lat="47.85616" lon="6.75667">
        <ele>693</ele>
        <time>2018-06-23T09:46:48.000Z</time>
      </trkpt>
      <trkpt lat="47.85616" lon="6.75667">
        <ele>693</ele>
        <time>2018-06-23T09:46:49.000Z</time>
      </trkpt>
      <trkpt lat="47.85616" lon="6.75668">
        <ele>693</ele>
        <time>2018-06-23T09:46:50.000Z</time>
      </trkpt>
      <trkpt lat="47.85616" lon="6.75668">
        <ele>693</ele>
        <time>2018-06-23T09:46:51.000Z</time>
      </trkpt>
      <trkpt lat="47.85616" lon="6.75668">
        <ele>693</ele>
        <time>2018-06-23T09:46:52.000Z</time>
      </trkpt>
      <trkpt lat="47.85616" lon="6.75668">
        <ele>693</ele>
        <time>2018-06-23T09:46:53.000Z</time>
      </trkpt>
      <trkpt lat="47.85616" lon="6.75668">
        <ele>693</ele>
        <time>2018-06-23T09:46:54.000Z</time>
      </trkpt>
      <trkpt lat="47.85616" lon="6.75668">
        <ele>693</ele>
        <time>2018-06-23T09:46:55.000Z</time>
      </trkpt>
      <trkpt lat="47.85616" lon="6.75669">
        <ele>693</ele>
        <time>2018-06-23T09:46:56.000Z</time>
      </trkpt>
      <trkpt lat="47.85617" lon="6.75669">
        <ele>693</ele>
        <time>2018-06-23T09:46:57.000Z</time>
      </trkpt>
      <trkpt lat="47.85617" lon="6.75669">
        <ele>693</ele>
        <time>2018-06-23T09:46:58.000Z</time>
      </trkpt>
      <trkpt lat="47.85618" lon="6.7567">
        <ele>693</ele>
        <time>2018-06-23T09:46:59.000Z</time>
      </trkpt>
      <trkpt lat="47.85618" lon="6.7567">
        <ele>693</ele>
        <time>2018-06-23T09:47:00.000Z</time>
      </trkpt>
      <trkpt lat="47.85619" lon="6.75671">
        <ele>693</ele>
        <time>2018-06-23T09:47:01.000Z</time>
      </trkpt>
      <trkpt lat="47.85619" lon="6.75672">
        <ele>693</ele>
        <time>2018-06-23T09:47:02.000Z</time>
      </trkpt>
      <trkpt lat="47.85619" lon="6.75672">
        <ele>693</ele>
        <time>2018-06-23T09:47:03.000Z</time>
      </trkpt>
      <trkpt lat="47.85619" lon="6.75672">
        <ele>693</ele>
        <time>2018-06-23T09:47:04.000Z</time>
      </trkpt>
      <trkpt lat="47.8562" lon="6.75673">
        <ele>693</ele>
        <time>2018-06-23T09:47:05.000Z</time>
      </trkpt>
      <trkpt lat="47.8562" lon="6.75673">
        <ele>693</ele>
        <time>2018-06-23T09:47:06.000Z</time>
      </trkpt>
      <trkpt lat="47.8562" lon="6.75673">
        <ele>693</ele>
        <time>2018-06-23T09:47:07.000Z</time>
      </trkpt>
      <trkpt lat="47.8562" lon="6.75672">
        <ele>693</ele>
        <time>2018-06-23T09:47:08.000Z</time>
      </trkpt>
      <trkpt lat="47.8562" lon="6.75672">
        <ele>693</ele>
        <time>2018-06-23T09:47:09.000Z</time>
      </trkpt>
      <trkpt lat="47.85619" lon="6.75672">
        <ele>693</ele>
        <time>2018-06-23T09:47:10.000Z</time>
      </trkpt>
      <trkpt lat="47.85619" lon="6.75672">
        <ele>693</ele>
        <time>2018-06-23T09:47:11.000Z</time>
      </trkpt>
      <trkpt lat="47.85619" lon="6.75672">
        <ele>693</ele>
        <time>2018-06-23T09:47:12.000Z</time>
      </trkpt>
      <trkpt lat="47.85619" lon="6.75672">
        <ele>693</ele>
        <time>2018-06-23T09:47:13.000Z</time>
      </trkpt>
      <trkpt lat="47.85619" lon="6.75672">
        <ele>693</ele>
        <time>2018-06-23T09:47:14.000Z</time>
      </trkpt>
      <trkpt lat="47.85619" lon="6.75672">
        <ele>693</ele>
        <time>2018-06-23T09:47:15.000Z</time>
      </trkpt>
      <trkpt lat="47.85619" lon="6.75672">
        <ele>693</ele>
        <time>2018-06-23T09:47:16.000Z</time>
      </trkpt>
      <trkpt lat="47.85619" lon="6.75672">
        <ele>693</ele>
        <time>2018-06-23T09:47:17.000Z</time>
      </trkpt>
      <trkpt lat="47.85619" lon="6.75672">
        <ele>693</ele>
        <time>2018-06-23T09:47:18.000Z</time>
      </trkpt>
      <trkpt lat="47.85619" lon="6.75672">
        <ele>693</ele>
        <time>2018-06-23T09:47:19.000Z</time>
      </trkpt>
      <trkpt lat="47.85619" lon="6.75672">
        <ele>693</ele>
        <time>2018-06-23T09:47:20.000Z</time>
      </trkpt>
      <trkpt lat="47.85619" lon="6.75672">
        <ele>693</ele>
        <time>2018-06-23T09:47:21.000Z</time>
      </trkpt>
      <trkpt lat="47.85619" lon="6.75672">
        <ele>693</ele>
        <time>2018-06-23T09:47:22.000Z</time>
      </trkpt>
      <trkpt lat="47.85619" lon="6.75672">
        <ele>693</ele>
        <time>2018-06-23T09:47:23.000Z</time>
      </trkpt>
      <trkpt lat="47.85619" lon="6.75672">
        <ele>693</ele>
        <time>2018-06-23T09:47:24.000Z</time>
      </trkpt>
      <trkpt lat="47.85619" lon="6.75672">
        <ele>693</ele>
        <time>2018-06-23T09:47:25.000Z</time>
      </trkpt>
      <trkpt lat="47.85619" lon="6.75672">
        <ele>693</ele>
        <time>2018-06-23T09:47:26.000Z</time>
      </trkpt>
      <trkpt lat="47.85619" lon="6.75672">
        <ele>693</ele>
        <time>2018-06-23T09:47:27.000Z</time>
      </trkpt>
      <trkpt lat="47.85619" lon="6.75672">
        <ele>693</ele>
        <time>2018-06-23T09:47:28.000Z</time>
      </trkpt>
      <trkpt lat="47.85619" lon="6.75672">
        <ele>693</ele>
        <time>2018-06-23T09:47:29.000Z</time>
      </trkpt>
      <trkpt lat="47.85619" lon="6.75672">
        <ele>693</ele>
        <time>2018-06-23T09:47:30.000Z</time>
      </trkpt>
      <trkpt lat="47.85619" lon="6.75672">
        <ele>693</ele>
        <time>2018-06-23T09:47:31.000Z</time>
      </trkpt>
      <trkpt lat="47.85619" lon="6.75672">
        <ele>693</ele>
        <time>2018-06-23T09:47:32.000Z</time>
      </trkpt>
      <trkpt lat="47.85619" lon="6.75672">
        <ele>693</ele>
        <time>2018-06-23T09:47:33.000Z</time>
      </trkpt>
      <trkpt lat="47.85619" lon="6.75672">
        <ele>693</ele>
        <time>2018-06-23T09:47:34.000Z</time>
      </trkpt>
      <trkpt lat="47.85619" lon="6.75672">
        <ele>693</ele>
        <time>2018-06-23T09:47:35.000Z</time>
      </trkpt>
      <trkpt lat="47.85619" lon="6.75672">
        <ele>693</ele>
        <time>2018-06-23T09:47:36.000Z</time>
      </trkpt>
      <trkpt lat="47.85619" lon="6.75673">
        <ele>693</ele>
        <time>2018-06-23T09:47:37.000Z</time>
      </trkpt>
      <trkpt lat="47.85619" lon="6.75673">
        <ele>693</ele>
        <time>2018-06-23T09:47:38.000Z</time>
      </trkpt>
      <trkpt lat="47.8562" lon="6.75673">
        <ele>693</ele>
        <time>2018-06-23T09:47:39.000Z</time>
      </trkpt>
      <trkpt lat="47.8562" lon="6.75673">
        <ele>693</ele>
        <time>2018-06-23T09:47:40.000Z</time>
      </trkpt>
      <trkpt lat="47.8562" lon="6.75673">
        <ele>693</ele>
        <time>2018-06-23T09:47:41.000Z</time>
      </trkpt>
      <trkpt lat="47.85619" lon="6.75674">
        <ele>693</ele>
        <time>2018-06-23T09:47:42.000Z</time>
      </trkpt>
      <trkpt lat="47.85619" lon="6.75674">
        <ele>693</ele>
        <time>2018-06-23T09:47:43.000Z</time>
      </trkpt>
      <trkpt lat="47.85619" lon="6.75674">
        <ele>693</ele>
        <time>2018-06-23T09:47:44.000Z</time>
      </trkpt>
      <trkpt lat="47.85619" lon="6.75674">
        <ele>693</ele>
        <time>2018-06-23T09:47:45.000Z</time>
      </trkpt>
      <trkpt lat="47.85619" lon="6.75674">
        <ele>693</ele>
        <time>2018-06-23T09:47:46.000Z</time>
      </trkpt>
      <trkpt lat="47.8562" lon="6.75674">
        <ele>693</ele>
        <time>2018-06-23T09:47:47.000Z</time>
      </trkpt>
      <trkpt lat="47.8562" lon="6.75674">
        <ele>693</ele>
        <time>2018-06-23T09:47:48.000Z</time>
      </trkpt>
      <trkpt lat="47.8562" lon="6.75674">
        <ele>693</ele>
        <time>2018-06-23T09:47:49.000Z</time>
      </trkpt>
      <trkpt lat="47.8562" lon="6.75674">
        <ele>693</ele>
        <time>2018-06-23T09:47:50.000Z</time>
      </trkpt>
      <trkpt lat="47.8562" lon="6.75674">
        <ele>693</ele>
        <time>2018-06-23T09:47:51.000Z</time>
      </trkpt>
      <trkpt lat="47.8562" lon="6.75674">
        <ele>693</ele>
        <time>2018-06-23T09:47:52.000Z</time>
      </trkpt>
      <trkpt lat="47.8562" lon="6.75674">
        <ele>693</ele>
        <time>2018-06-23T09:47:53.000Z</time>
      </trkpt>
      <trkpt lat="47.8562" lon="6.75674">
        <ele>693</ele>
        <time>2018-06-23T09:47:54.000Z</time>
      </trkpt>
      <trkpt lat="47.8562" lon="6.75674">
        <ele>693</ele>
        <time>2018-06-23T09:47:55.000Z</time>
      </trkpt>
      <trkpt lat="47.8562" lon="6.75674">
        <ele>693</ele>
        <time>2018-06-23T09:47:56.000Z</time>
      </trkpt>
      <trkpt lat="47.8562" lon="6.75674">
        <ele>693</ele>
        <time>2018-06-23T09:47:57.000Z</time>
      </trkpt>
      <trkpt lat="47.8562" lon="6.75674">
        <ele>693</ele>
        <time>2018-06-23T09:47:58.000Z</time>
      </trkpt>
      <trkpt lat="47.8562" lon="6.75674">
        <ele>693</ele>
        <time>2018-06-23T09:47:59.000Z</time>
      </trkpt>
      <trkpt lat="47.8562" lon="6.75674">
        <ele>693</ele>
        <time>2018-06-23T09:48:00.000Z</time>
      </trkpt>
      <trkpt lat="47.8562" lon="6.75674">
        <ele>693</ele>
        <time>2018-06-23T09:48:01.000Z</time>
      </trkpt>
      <trkpt lat="47.8562" lon="6.75674">
        <ele>693</ele>
        <time>2018-06-23T09:48:02.000Z</time>
      </trkpt>
      <trkpt lat="47.85619" lon="6.75674">
        <ele>693</ele>
        <time>2018-06-23T09:48:03.000Z</time>
      </trkpt>
      <trkpt lat="47.85619" lon="6.75674">
        <ele>693</ele>
        <time>2018-06-23T09:48:04.000Z</time>
      </trkpt>
      <trkpt lat="47.85619" lon="6.75674">
        <ele>693</ele>
        <time>2018-06-23T09:48:05.000Z</time>
      </trkpt>
      <trkpt lat="47.85619" lon="6.75674">
        <ele>693</ele>
        <time>2018-06-23T09:48:06.000Z</time>
      </trkpt>
      <trkpt lat="47.8562" lon="6.75674">
        <ele>693</ele>
        <time>2018-06-23T09:48:07.000Z</time>
      </trkpt>
      <trkpt lat="47.8562" lon="6.75674">
        <ele>693</ele>
        <time>2018-06-23T09:48:08.000Z</time>
      </trkpt>
      <trkpt lat="47.8562" lon="6.75674">
        <ele>693</ele>
        <time>2018-06-23T09:48:09.000Z</time>
      </trkpt>
      <trkpt lat="47.8562" lon="6.75674">
        <ele>693</ele>
        <time>2018-06-23T09:48:10.000Z</time>
      </trkpt>
      <trkpt lat="47.85619" lon="6.75674">
        <ele>693</ele>
        <time>2018-06-23T09:48:11.000Z</time>
      </trkpt>
      <trkpt lat="47.85619" lon="6.75674">
        <ele>693</ele>
        <time>2018-06-23T09:48:12.000Z</time>
      </trkpt>
      <trkpt lat="47.85619" lon="6.75674">
        <ele>693</ele>
        <time>2018-06-23T09:48:13.000Z</time>
      </trkpt>
      <trkpt lat="47.85619" lon="6.75675">
        <ele>693</ele>
        <time>2018-06-23T09:48:14.000Z</time>
      </trkpt>
      <trkpt lat="47.85619" lon="6.75675">
        <ele>693</ele>
        <time>2018-06-23T09:48:15.000Z</time>
      </trkpt>
      <trkpt lat="47.85619" lon="6.75675">
        <ele>693</ele>
        <time>2018-06-23T09:48:16.000Z</time>
      </trkpt>
      <trkpt lat="47.85619" lon="6.75675">
        <ele>693</ele>
        <time>2018-06-23T09:48:17.000Z</time>
      </trkpt>
      <trkpt lat="47.85619" lon="6.75675">
        <ele>693</ele>
        <time>2018-06-23T09:48:18.000Z</time>
      </trkpt>
      <trkpt lat="47.85619" lon="6.75675">
        <ele>693</ele>
        <time>2018-06-23T09:48:19.000Z</time>
      </trkpt>
      <trkpt lat="47.85619" lon="6.75675">
        <ele>693</ele>
        <time>2018-06-23T09:48:20.000Z</time>
      </trkpt>
      <trkpt lat="47.85619" lon="6.75675">
        <ele>693</ele>
        <time>2018-06-23T09:48:21.000Z</time>
      </trkpt>
      <trkpt lat="47.85619" lon="6.75675">
        <ele>693</ele>
        <time>2018-06-23T09:48:22.000Z</time>
      </trkpt>
      <trkpt lat="47.8562" lon="6.75675">
        <ele>693</ele>
        <time>2018-06-23T09:48:23.000Z</time>
      </trkpt>
      <trkpt lat="47.8562" lon="6.75676">
        <ele>693</ele>
        <time>2018-06-23T09:48:24.000Z</time>
      </trkpt>
      <trkpt lat="47.8562" lon="6.75676">
        <ele>693</ele>
        <time>2018-06-23T09:48:25.000Z</time>
      </trkpt>
      <trkpt lat="47.8562" lon="6.75676">
        <ele>693</ele>
        <time>2018-06-23T09:48:26.000Z</time>
      </trkpt>
      <trkpt lat="47.8562" lon="6.75676">
        <ele>693</ele>
        <time>2018-06-23T09:48:27.000Z</time>
      </trkpt>
      <trkpt lat="47.8562" lon="6.75676">
        <ele>693</ele>
        <time>2018-06-23T09:48:28.000Z</time>
      </trkpt>
      <trkpt lat="47.8562" lon="6.75676">
        <ele>693</ele>
        <time>2018-06-23T09:48:29.000Z</time>
      </trkpt>
      <trkpt lat="47.8562" lon="6.75676">
        <ele>693</ele>
        <time>2018-06-23T09:48:30.000Z</time>
      </trkpt>
      <trkpt lat="47.8562" lon="6.75676">
        <ele>693</ele>
        <time>2018-06-23T09:48:31.000Z</time>
      </trkpt>
      <trkpt lat="47.8562" lon="6.75676">
        <ele>693</ele>
        <time>2018-06-23T09:48:32.000Z</time>
      </trkpt>
      <trkpt lat="47.8562" lon="6.75676">
        <ele>693</ele>
        <time>2018-06-23T09:48:33.000Z</time>
      </trkpt>
      <trkpt lat="47.8562" lon="6.75676">
        <ele>693</ele>
        <time>2018-06-23T09:48:34.000Z</time>
      </trkpt>
      <trkpt lat="47.8562" lon="6.75676">
        <ele>693</ele>
        <time>2018-06-23T09:48:35.000Z</time>
      </trkpt>
      <trkpt lat="47.8562" lon="6.75675">
        <ele>693</ele>
        <time>2018-06-23T09:48:36.000Z</time>
      </trkpt>
      <trkpt lat="47.8562" lon="6.75676">
        <ele>693</ele>
        <time>2018-06-23T09:48:37.000Z</time>
      </trkpt>
      <trkpt lat="47.8562" lon="6.75676">
        <ele>693</ele>
        <time>2018-06-23T09:48:38.000Z</time>
      </trkpt>
      <trkpt lat="47.8562" lon="6.75676">
        <ele>693</ele>
        <time>2018-06-23T09:48:39.000Z</time>
      </trkpt>
      <trkpt lat="47.8562" lon="6.75676">
        <ele>693</ele>
        <time>2018-06-23T09:48:40.000Z</time>
      </trkpt>
      <trkpt lat="47.8562" lon="6.75676">
        <ele>693</ele>
        <time>2018-06-23T09:48:41.000Z</time>
      </trkpt>
      <trkpt lat="47.8562" lon="6.75676">
        <ele>693</ele>
        <time>2018-06-23T09:48:42.000Z</time>
      </trkpt>
      <trkpt lat="47.8562" lon="6.75675">
        <ele>693</ele>
        <time>2018-06-23T09:48:43.000Z</time>
      </trkpt>
      <trkpt lat="47.8562" lon="6.75675">
        <ele>693</ele>
        <time>2018-06-23T09:48:44.000Z</time>
      </trkpt>
      <trkpt lat="47.8562" lon="6.75676">
        <ele>693</ele>
        <time>2018-06-23T09:48:45.000Z</time>
      </trkpt>
      <trkpt lat="47.8562" lon="6.75676">
        <ele>693</ele>
        <time>2018-06-23T09:48:46.000Z</time>
      </trkpt>
      <trkpt lat="47.8562" lon="6.75676">
        <ele>693</ele>
        <time>2018-06-23T09:48:47.000Z</time>
      </trkpt>
      <trkpt lat="47.8562" lon="6.75676">
        <ele>693</ele>
        <time>2018-06-23T09:48:48.000Z</time>
      </trkpt>
      <trkpt lat="47.8562" lon="6.75676">
        <ele>693</ele>
        <time>2018-06-23T09:48:49.000Z</time>
      </trkpt>
      <trkpt lat="47.8562" lon="6.75676">
        <ele>693</ele>
        <time>2018-06-23T09:48:50.000Z</time>
      </trkpt>
      <trkpt lat="47.8562" lon="6.75676">
        <ele>693</ele>
        <time>2018-06-23T09:48:51.000Z</time>
      </trkpt>
      <trkpt lat="47.8562" lon="6.75676">
        <ele>693</ele>
        <time>2018-06-23T09:48:52.000Z</time>
      </trkpt>
      <trkpt lat="47.8562" lon="6.75676">
        <ele>693</ele>
        <time>2018-06-23T09:48:53.000Z</time>
      </trkpt>
      <trkpt lat="47.8562" lon="6.75676">
        <ele>693</ele>
        <time>2018-06-23T09:48:54.000Z</time>
      </trkpt>
      <trkpt lat="47.8562" lon="6.75676">
        <ele>693</ele>
        <time>2018-06-23T09:48:55.000Z</time>
      </trkpt>
      <trkpt lat="47.8562" lon="6.75676">
        <ele>693</ele>
        <time>2018-06-23T09:48:56.000Z</time>
      </trkpt>
      <trkpt lat="47.8562" lon="6.75676">
        <ele>693</ele>
        <time>2018-06-23T09:48:57.000Z</time>
      </trkpt>
      <trkpt lat="47.8562" lon="6.75676">
        <ele>693</ele>
        <time>2018-06-23T09:48:58.000Z</time>
      </trkpt>
      <trkpt lat="47.8562" lon="6.75676">
        <ele>693</ele>
        <time>2018-06-23T09:48:59.000Z</time>
      </trkpt>
      <trkpt lat="47.8562" lon="6.75676">
        <ele>693</ele>
        <time>2018-06-23T09:49:00.000Z</time>
      </trkpt>
      <trkpt lat="47.8562" lon="6.75676">
        <ele>693</ele>
        <time>2018-06-23T09:49:01.000Z</time>
      </trkpt>
      <trkpt lat="47.85621" lon="6.75675">
        <ele>693</ele>
        <time>2018-06-23T09:49:02.000Z</time>
      </trkpt>
      <trkpt lat="47.85621" lon="6.75676">
        <ele>693</ele>
        <time>2018-06-23T09:49:03.000Z</time>
      </trkpt>
      <trkpt lat="47.85621" lon="6.75675">
        <ele>693</ele>
        <time>2018-06-23T09:49:04.000Z</time>
      </trkpt>
      <trkpt lat="47.85621" lon="6.75675">
        <ele>693</ele>
        <time>2018-06-23T09:49:05.000Z</time>
      </trkpt>
      <trkpt lat="47.85621" lon="6.75676">
        <ele>693</ele>
        <time>2018-06-23T09:49:06.000Z</time>
      </trkpt>
      <trkpt lat="47.85621" lon="6.75676">
        <ele>693</ele>
        <time>2018-06-23T09:49:07.000Z</time>
      </trkpt>
      <trkpt lat="47.85621" lon="6.75676">
        <ele>693</ele>
        <time>2018-06-23T09:49:08.000Z</time>
      </trkpt>
      <trkpt lat="47.85621" lon="6.75676">
        <ele>693</ele>
        <time>2018-06-23T09:49:09.000Z</time>
      </trkpt>
      <trkpt lat="47.85621" lon="6.75676">
        <ele>693</ele>
        <time>2018-06-23T09:49:10.000Z</time>
      </trkpt>
      <trkpt lat="47.8562" lon="6.75676">
        <ele>693</ele>
        <time>2018-06-23T09:49:11.000Z</time>
      </trkpt>
      <trkpt lat="47.8562" lon="6.75676">
        <ele>693</ele>
        <time>2018-06-23T09:49:12.000Z</time>
      </trkpt>
      <trkpt lat="47.8562" lon="6.75676">
        <ele>693</ele>
        <time>2018-06-23T09:49:13.000Z</time>
      </trkpt>
      <trkpt lat="47.8562" lon="6.75676">
        <ele>693</ele>
        <time>2018-06-23T09:49:14.000Z</time>
      </trkpt>
      <trkpt lat="47.8562" lon="6.75676">
        <ele>693</ele>
        <time>2018-06-23T09:49:15.000Z</time>
      </trkpt>
      <trkpt lat="47.8562" lon="6.75676">
        <ele>693</ele>
        <time>2018-06-23T09:49:16.000Z</time>
      </trkpt>
      <trkpt lat="47.8562" lon="6.75676">
        <ele>693</ele>
        <time>2018-06-23T09:49:17.000Z</time>
      </trkpt>
      <trkpt lat="47.8562" lon="6.75676">
        <ele>693</ele>
        <time>2018-06-23T09:49:18.000Z</time>
      </trkpt>
      <trkpt lat="47.8562" lon="6.75675">
        <ele>693</ele>
        <time>2018-06-23T09:49:19.000Z</time>
      </trkpt>
      <trkpt lat="47.8562" lon="6.75675">
        <ele>693</ele>
        <time>2018-06-23T09:49:20.000Z</time>
      </trkpt>
      <trkpt lat="47.8562" lon="6.75675">
        <ele>693</ele>
        <time>2018-06-23T09:49:21.000Z</time>
      </trkpt>
      <trkpt lat="47.8562" lon="6.75675">
        <ele>693</ele>
        <time>2018-06-23T09:49:22.000Z</time>
      </trkpt>
      <trkpt lat="47.8562" lon="6.75675">
        <ele>693</ele>
        <time>2018-06-23T09:49:23.000Z</time>
      </trkpt>
      <trkpt lat="47.8562" lon="6.75675">
        <ele>693</ele>
        <time>2018-06-23T09:49:24.000Z</time>
      </trkpt>
      <trkpt lat="47.8562" lon="6.75675">
        <ele>693</ele>
        <time>2018-06-23T09:49:25.000Z</time>
      </trkpt>
      <trkpt lat="47.8562" lon="6.75675">
        <ele>693</ele>
        <time>2018-06-23T09:49:26.000Z</time>
      </trkpt>
      <trkpt lat="47.8562" lon="6.75675">
        <ele>693</ele>
        <time>2018-06-23T09:49:27.000Z</time>
      </trkpt>
      <trkpt lat="47.8562" lon="6.75675">
        <ele>693</ele>
        <time>2018-06-23T09:49:28.000Z</time>
      </trkpt>
      <trkpt lat="47.8562" lon="6.75675">
        <ele>693</ele>
        <time>2018-06-23T09:49:29.000Z</time>
      </trkpt>
      <trkpt lat="47.8562" lon="6.75675">
        <ele>693</ele>
        <time>2018-06-23T09:49:30.000Z</time>
      </trkpt>
      <trkpt lat="47.8562" lon="6.75675">
        <ele>693</ele>
        <time>2018-06-23T09:49:31.000Z</time>
      </trkpt>
      <trkpt lat="47.8562" lon="6.75675">
        <ele>693</ele>
        <time>2018-06-23T09:49:32.000Z</time>
      </trkpt>
      <trkpt lat="47.8562" lon="6.75676">
        <ele>693</ele>
        <time>2018-06-23T09:49:33.000Z</time>
      </trkpt>
      <trkpt lat="47.8562" lon="6.75676">
        <ele>693</ele>
        <time>2018-06-23T09:49:34.000Z</time>
      </trkpt>
      <trkpt lat="47.8562" lon="6.75677">
        <ele>693</ele>
        <time>2018-06-23T09:49:35.000Z</time>
      </trkpt>
      <trkpt lat="47.8562" lon="6.75677">
        <ele>693</ele>
        <time>2018-06-23T09:49:36.000Z</time>
      </trkpt>
      <trkpt lat="47.8562" lon="6.75678">
        <ele>693</ele>
        <time>2018-06-23T09:49:37.000Z</time>
      </trkpt>
      <trkpt lat="47.8562" lon="6.75678">
        <ele>693</ele>
        <time>2018-06-23T09:49:38.000Z</time>
      </trkpt>
      <trkpt lat="47.8562" lon="6.75678">
        <ele>693</ele>
        <time>2018-06-23T09:49:39.000Z</time>
      </trkpt>
      <trkpt lat="47.8562" lon="6.75678">
        <ele>693</ele>
        <time>2018-06-23T09:49:40.000Z</time>
      </trkpt>
      <trkpt lat="47.8562" lon="6.75678">
        <ele>693</ele>
        <time>2018-06-23T09:49:41.000Z</time>
      </trkpt>
      <trkpt lat="47.8562" lon="6.75678">
        <ele>693</ele>
        <time>2018-06-23T09:49:42.000Z</time>
      </trkpt>
      <trkpt lat="47.8562" lon="6.75678">
        <ele>693</ele>
        <time>2018-06-23T09:49:43.000Z</time>
      </trkpt>
      <trkpt lat="47.8562" lon="6.75677">
        <ele>693</ele>
        <time>2018-06-23T09:49:44.000Z</time>
      </trkpt>
      <trkpt lat="47.8562" lon="6.75678">
        <ele>693</ele>
        <time>2018-06-23T09:49:45.000Z</time>
      </trkpt>
      <trkpt lat="47.8562" lon="6.75678">
        <ele>693</ele>
        <time>2018-06-23T09:49:46.000Z</time>
      </trkpt>
      <trkpt lat="47.8562" lon="6.75677">
        <ele>693</ele>
        <time>2018-06-23T09:49:47.000Z</time>
      </trkpt>
      <trkpt lat="47.8562" lon="6.75677">
        <ele>693</ele>
        <time>2018-06-23T09:49:48.000Z</time>
      </trkpt>
      <trkpt lat="47.8562" lon="6.75676">
        <ele>693</ele>
        <time>2018-06-23T09:49:49.000Z</time>
      </trkpt>
      <trkpt lat="47.8562" lon="6.75677">
        <ele>693</ele>
        <time>2018-06-23T09:49:50.000Z</time>
      </trkpt>
      <trkpt lat="47.8562" lon="6.75677">
        <ele>693</ele>
        <time>2018-06-23T09:49:51.000Z</time>
      </trkpt>
      <trkpt lat="47.8562" lon="6.75677">
        <ele>693</ele>
        <time>2018-06-23T09:49:52.000Z</time>
      </trkpt>
      <trkpt lat="47.8562" lon="6.75677">
        <ele>693</ele>
        <time>2018-06-23T09:49:53.000Z</time>
      </trkpt>
      <trkpt lat="47.8562" lon="6.75677">
        <ele>693</ele>
        <time>2018-06-23T09:49:54.000Z</time>
      </trkpt>
      <trkpt lat="47.85619" lon="6.75677">
        <ele>693</ele>
        <time>2018-06-23T09:49:55.000Z</time>
      </trkpt>
      <trkpt lat="47.85619" lon="6.75677">
        <ele>693</ele>
        <time>2018-06-23T09:49:56.000Z</time>
      </trkpt>
      <trkpt lat="47.85618" lon="6.75676">
        <ele>693</ele>
        <time>2018-06-23T09:49:57.000Z</time>
      </trkpt>
      <trkpt lat="47.85618" lon="6.75676">
        <ele>693</ele>
        <time>2018-06-23T09:49:58.000Z</time>
      </trkpt>
      <trkpt lat="47.85617" lon="6.75675">
        <ele>693</ele>
        <time>2018-06-23T09:49:59.000Z</time>
      </trkpt>
      <trkpt lat="47.85617" lon="6.75674">
        <ele>693</ele>
        <time>2018-06-23T09:50:00.000Z</time>
      </trkpt>
      <trkpt lat="47.85617" lon="6.75673">
        <ele>693</ele>
        <time>2018-06-23T09:50:01.000Z</time>
      </trkpt>
      <trkpt lat="47.85616" lon="6.75671">
        <ele>693</ele>
        <time>2018-06-23T09:50:02.000Z</time>
      </trkpt>
      <trkpt lat="47.85617" lon="6.7567">
        <ele>693</ele>
        <time>2018-06-23T09:50:03.000Z</time>
      </trkpt>
      <trkpt lat="47.85616" lon="6.75669">
        <ele>693</ele>
        <time>2018-06-23T09:50:04.000Z</time>
      </trkpt>
      <trkpt lat="47.85616" lon="6.75668">
        <ele>693</ele>
        <time>2018-06-23T09:50:05.000Z</time>
      </trkpt>
      <trkpt lat="47.85617" lon="6.75667">
        <ele>687</ele>
        <time>2018-06-23T09:50:06.000Z</time>
      </trkpt>
      <trkpt lat="47.85617" lon="6.75666">
        <ele>687</ele>
        <time>2018-06-23T09:50:07.000Z</time>
      </trkpt>
      <trkpt lat="47.85617" lon="6.75665">
        <ele>687</ele>
        <time>2018-06-23T09:50:08.000Z</time>
      </trkpt>
      <trkpt lat="47.85617" lon="6.75664">
        <ele>687</ele>
        <time>2018-06-23T09:50:09.000Z</time>
      </trkpt>
      <trkpt lat="47.85618" lon="6.75663">
        <ele>687</ele>
        <time>2018-06-23T09:50:10.000Z</time>
      </trkpt>
      <trkpt lat="47.85618" lon="6.75663">
        <ele>687</ele>
        <time>2018-06-23T09:50:11.000Z</time>
      </trkpt>
      <trkpt lat="47.85619" lon="6.75662">
        <ele>687</ele>
        <time>2018-06-23T09:50:12.000Z</time>
      </trkpt>
      <trkpt lat="47.85619" lon="6.75661">
        <ele>687</ele>
        <time>2018-06-23T09:50:13.000Z</time>
      </trkpt>
      <trkpt lat="47.85619" lon="6.7566">
        <ele>687</ele>
        <time>2018-06-23T09:50:14.000Z</time>
      </trkpt>
      <trkpt lat="47.85619" lon="6.75658">
        <ele>687</ele>
        <time>2018-06-23T09:50:15.000Z</time>
      </trkpt>
      <trkpt lat="47.8562" lon="6.75657">
        <ele>688</ele>
        <time>2018-06-23T09:50:16.000Z</time>
      </trkpt>
      <trkpt lat="47.85621" lon="6.75657">
        <ele>688</ele>
        <time>2018-06-23T09:50:17.000Z</time>
      </trkpt>
      <trkpt lat="47.85622" lon="6.75657">
        <ele>688</ele>
        <time>2018-06-23T09:50:18.000Z</time>
      </trkpt>
      <trkpt lat="47.85623" lon="6.75657">
        <ele>688</ele>
        <time>2018-06-23T09:50:19.000Z</time>
      </trkpt>
      <trkpt lat="47.85624" lon="6.75657">
        <ele>688</ele>
        <time>2018-06-23T09:50:20.000Z</time>
      </trkpt>
      <trkpt lat="47.85625" lon="6.75657">
        <ele>688</ele>
        <time>2018-06-23T09:50:21.000Z</time>
      </trkpt>
      <trkpt lat="47.85625" lon="6.75658">
        <ele>688</ele>
        <time>2018-06-23T09:50:22.000Z</time>
      </trkpt>
      <trkpt lat="47.85625" lon="6.75658">
        <ele>688</ele>
        <time>2018-06-23T09:50:23.000Z</time>
      </trkpt>
      <trkpt lat="47.85625" lon="6.75658">
        <ele>688</ele>
        <time>2018-06-23T09:50:24.000Z</time>
      </trkpt>
      <trkpt lat="47.85626" lon="6.75658">
        <ele>688</ele>
        <time>2018-06-23T09:50:25.000Z</time>
      </trkpt>
      <trkpt lat="47.85626" lon="6.75659">
        <ele>688</ele>
        <time>2018-06-23T09:50:26.000Z</time>
      </trkpt>
      <trkpt lat="47.85626" lon="6.7566">
        <ele>688</ele>
        <time>2018-06-23T09:50:27.000Z</time>
      </trkpt>
      <trkpt lat="47.85626" lon="6.7566">
        <ele>688</ele>
        <time>2018-06-23T09:50:28.000Z</time>
      </trkpt>
      <trkpt lat="47.85626" lon="6.75661">
        <ele>688</ele>
        <time>2018-06-23T09:50:29.000Z</time>
      </trkpt>
      <trkpt lat="47.85626" lon="6.75661">
        <ele>688</ele>
        <time>2018-06-23T09:50:30.000Z</time>
      </trkpt>
      <trkpt lat="47.85627" lon="6.75662">
        <ele>688</ele>
        <time>2018-06-23T09:50:31.000Z</time>
      </trkpt>
      <trkpt lat="47.85627" lon="6.75662">
        <ele>688</ele>
        <time>2018-06-23T09:50:32.000Z</time>
      </trkpt>
      <trkpt lat="47.85627" lon="6.75662">
        <ele>688</ele>
        <time>2018-06-23T09:50:33.000Z</time>
      </trkpt>
      <trkpt lat="47.85627" lon="6.75662">
        <ele>688</ele>
        <time>2018-06-23T09:50:34.000Z</time>
      </trkpt>
      <trkpt lat="47.85627" lon="6.75662">
        <ele>688</ele>
        <time>2018-06-23T09:50:35.000Z</time>
      </trkpt>
      <trkpt lat="47.85626" lon="6.75661">
        <ele>688</ele>
        <time>2018-06-23T09:50:36.000Z</time>
      </trkpt>
      <trkpt lat="47.85626" lon="6.75661">
        <ele>688</ele>
        <time>2018-06-23T09:50:37.000Z</time>
      </trkpt>
      <trkpt lat="47.85626" lon="6.75661">
        <ele>688</ele>
        <time>2018-06-23T09:50:38.000Z</time>
      </trkpt>
      <trkpt lat="47.85626" lon="6.75661">
        <ele>688</ele>
        <time>2018-06-23T09:50:39.000Z</time>
      </trkpt>
      <trkpt lat="47.85626" lon="6.75661">
        <ele>688</ele>
        <time>2018-06-23T09:50:40.000Z</time>
      </trkpt>
      <trkpt lat="47.85626" lon="6.75661">
        <ele>688</ele>
        <time>2018-06-23T09:50:41.000Z</time>
      </trkpt>
      <trkpt lat="47.85626" lon="6.75661">
        <ele>688</ele>
        <time>2018-06-23T09:50:42.000Z</time>
      </trkpt>
      <trkpt lat="47.85626" lon="6.75661">
        <ele>688</ele>
        <time>2018-06-23T09:50:43.000Z</time>
      </trkpt>
      <trkpt lat="47.85627" lon="6.75662">
        <ele>688</ele>
        <time>2018-06-23T09:50:44.000Z</time>
      </trkpt>
      <trkpt lat="47.85627" lon="6.75662">
        <ele>688</ele>
        <time>2018-06-23T09:50:45.000Z</time>
      </trkpt>
      <trkpt lat="47.85627" lon="6.75662">
        <ele>688</ele>
        <time>2018-06-23T09:50:46.000Z</time>
      </trkpt>
      <trkpt lat="47.85627" lon="6.75662">
        <ele>688</ele>
        <time>2018-06-23T09:50:47.000Z</time>
      </trkpt>
      <trkpt lat="47.85627" lon="6.75662">
        <ele>688</ele>
        <time>2018-06-23T09:50:48.000Z</time>
      </trkpt>
      <trkpt lat="47.85627" lon="6.75662">
        <ele>688</ele>
        <time>2018-06-23T09:50:49.000Z</time>
      </trkpt>
      <trkpt lat="47.85627" lon="6.75662">
        <ele>688</ele>
        <time>2018-06-23T09:50:50.000Z</time>
      </trkpt>
      <trkpt lat="47.85627" lon="6.75662">
        <ele>688</ele>
        <time>2018-06-23T09:50:51.000Z</time>
      </trkpt>
      <trkpt lat="47.85627" lon="6.75662">
        <ele>688</ele>
        <time>2018-06-23T09:50:52.000Z</time>
      </trkpt>
      <trkpt lat="47.85627" lon="6.75662">
        <ele>688</ele>
        <time>2018-06-23T09:50:53.000Z</time>
      </trkpt>
      <trkpt lat="47.85627" lon="6.75662">
        <ele>688</ele>
        <time>2018-06-23T09:50:54.000Z</time>
      </trkpt>
      <trkpt lat="47.85627" lon="6.75662">
        <ele>688</ele>
        <time>2018-06-23T09:50:55.000Z</time>
      </trkpt>
      <trkpt lat="47.85627" lon="6.75662">
        <ele>688</ele>
        <time>2018-06-23T09:50:56.000Z</time>
      </trkpt>
      <trkpt lat="47.85627" lon="6.75662">
        <ele>688</ele>
        <time>2018-06-23T09:50:57.000Z</time>
      </trkpt>
      <trkpt lat="47.85627" lon="6.75662">
        <ele>688</ele>
        <time>2018-06-23T09:50:58.000Z</time>
      </trkpt>
      <trkpt lat="47.85627" lon="6.75662">
        <ele>688</ele>
        <time>2018-06-23T09:50:59.000Z</time>
      </trkpt>
      <trkpt lat="47.85627" lon="6.75662">
        <ele>688</ele>
        <time>2018-06-23T09:51:00.000Z</time>
      </trkpt>
      <trkpt lat="47.85627" lon="6.75662">
        <ele>688</ele>
        <time>2018-06-23T09:51:01.000Z</time>
      </trkpt>
      <trkpt lat="47.85627" lon="6.75662">
        <ele>688</ele>
        <time>2018-06-23T09:51:02.000Z</time>
      </trkpt>
      <trkpt lat="47.85627" lon="6.75662">
        <ele>688</ele>
        <time>2018-06-23T09:51:03.000Z</time>
      </trkpt>
      <trkpt lat="47.85627" lon="6.75662">
        <ele>688</ele>
        <time>2018-06-23T09:51:04.000Z</time>
      </trkpt>
      <trkpt lat="47.85627" lon="6.75662">
        <ele>688</ele>
        <time>2018-06-23T09:51:05.000Z</time>
      </trkpt>
      <trkpt lat="47.85627" lon="6.75662">
        <ele>688</ele>
        <time>2018-06-23T09:51:06.000Z</time>
      </trkpt>
      <trkpt lat="47.85627" lon="6.75662">
        <ele>688</ele>
        <time>2018-06-23T09:51:07.000Z</time>
      </trkpt>
      <trkpt lat="47.85627" lon="6.75662">
        <ele>688</ele>
        <time>2018-06-23T09:51:08.000Z</time>
      </trkpt>
      <trkpt lat="47.85627" lon="6.75662">
        <ele>688</ele>
        <time>2018-06-23T09:51:09.000Z</time>
      </trkpt>
      <trkpt lat="47.85627" lon="6.75662">
        <ele>688</ele>
        <time>2018-06-23T09:51:10.000Z</time>
      </trkpt>
      <trkpt lat="47.85627" lon="6.75663">
        <ele>688</ele>
        <time>2018-06-23T09:51:11.000Z</time>
      </trkpt>
      <trkpt lat="47.85627" lon="6.75663">
        <ele>688</ele>
        <time>2018-06-23T09:51:12.000Z</time>
      </trkpt>
      <trkpt lat="47.85627" lon="6.75663">
        <ele>688</ele>
        <time>2018-06-23T09:51:13.000Z</time>
      </trkpt>
      <trkpt lat="47.85627" lon="6.75663">
        <ele>688</ele>
        <time>2018-06-23T09:51:14.000Z</time>
      </trkpt>
      <trkpt lat="47.85627" lon="6.75663">
        <ele>688</ele>
        <time>2018-06-23T09:51:15.000Z</time>
      </trkpt>
      <trkpt lat="47.85627" lon="6.75663">
        <ele>688</ele>
        <time>2018-06-23T09:51:16.000Z</time>
      </trkpt>
      <trkpt lat="47.85628" lon="6.75663">
        <ele>688</ele>
        <time>2018-06-23T09:51:17.000Z</time>
      </trkpt>
      <trkpt lat="47.85628" lon="6.75663">
        <ele>688</ele>
        <time>2018-06-23T09:51:18.000Z</time>
      </trkpt>
      <trkpt lat="47.85628" lon="6.75664">
        <ele>688</ele>
        <time>2018-06-23T09:51:19.000Z</time>
      </trkpt>
      <trkpt lat="47.85628" lon="6.75664">
        <ele>688</ele>
        <time>2018-06-23T09:51:20.000Z</time>
      </trkpt>
      <trkpt lat="47.85628" lon="6.75664">
        <ele>688</ele>
        <time>2018-06-23T09:51:21.000Z</time>
      </trkpt>
      <trkpt lat="47.85628" lon="6.75664">
        <ele>688</ele>
        <time>2018-06-23T09:51:22.000Z</time>
      </trkpt>
      <trkpt lat="47.85628" lon="6.75664">
        <ele>688</ele>
        <time>2018-06-23T09:51:23.000Z</time>
      </trkpt>
      <trkpt lat="47.85628" lon="6.75664">
        <ele>688</ele>
        <time>2018-06-23T09:51:24.000Z</time>
      </trkpt>
      <trkpt lat="47.85628" lon="6.75664">
        <ele>688</ele>
        <time>2018-06-23T09:51:25.000Z</time>
      </trkpt>
      <trkpt lat="47.85628" lon="6.75664">
        <ele>688</ele>
        <time>2018-06-23T09:51:26.000Z</time>
      </trkpt>
      <trkpt lat="47.85628" lon="6.75664">
        <ele>688</ele>
        <time>2018-06-23T09:51:27.000Z</time>
      </trkpt>
      <trkpt lat="47.85628" lon="6.75664">
        <ele>688</ele>
        <time>2018-06-23T09:51:28.000Z</time>
      </trkpt>
      <trkpt lat="47.85629" lon="6.75664">
        <ele>688</ele>
        <time>2018-06-23T09:51:29.000Z</time>
      </trkpt>
      <trkpt lat="47.85629" lon="6.75664">
        <ele>688</ele>
        <time>2018-06-23T09:51:30.000Z</time>
      </trkpt>
      <trkpt lat="47.85629" lon="6.75664">
        <ele>688</ele>
        <time>2018-06-23T09:51:31.000Z</time>
      </trkpt>
      <trkpt lat="47.85629" lon="6.75664">
        <ele>688</ele>
        <time>2018-06-23T09:51:32.000Z</time>
      </trkpt>
      <trkpt lat="47.85629" lon="6.75664">
        <ele>688</ele>
        <time>2018-06-23T09:51:33.000Z</time>
      </trkpt>
      <trkpt lat="47.85629" lon="6.75665">
        <ele>688</ele>
        <time>2018-06-23T09:51:34.000Z</time>
      </trkpt>
      <trkpt lat="47.85629" lon="6.75665">
        <ele>688</ele>
        <time>2018-06-23T09:51:35.000Z</time>
      </trkpt>
      <trkpt lat="47.85629" lon="6.75664">
        <ele>688</ele>
        <time>2018-06-23T09:51:36.000Z</time>
      </trkpt>
      <trkpt lat="47.85629" lon="6.75664">
        <ele>688</ele>
        <time>2018-06-23T09:51:37.000Z</time>
      </trkpt>
      <trkpt lat="47.85629" lon="6.75664">
        <ele>688</ele>
        <time>2018-06-23T09:51:38.000Z</time>
      </trkpt>
      <trkpt lat="47.85629" lon="6.75664">
        <ele>688</ele>
        <time>2018-06-23T09:51:39.000Z</time>
      </trkpt>
      <trkpt lat="47.85629" lon="6.75664">
        <ele>688</ele>
        <time>2018-06-23T09:51:40.000Z</time>
      </trkpt>
      <trkpt lat="47.85629" lon="6.75664">
        <ele>688</ele>
        <time>2018-06-23T09:51:41.000Z</time>
      </trkpt>
      <trkpt lat="47.85629" lon="6.75664">
        <ele>688</ele>
        <time>2018-06-23T09:51:42.000Z</time>
      </trkpt>
      <trkpt lat="47.85629" lon="6.75664">
        <ele>688</ele>
        <time>2018-06-23T09:51:43.000Z</time>
      </trkpt>
      <trkpt lat="47.85629" lon="6.75664">
        <ele>688</ele>
        <time>2018-06-23T09:51:44.000Z</time>
      </trkpt>
      <trkpt lat="47.85629" lon="6.75664">
        <ele>688</ele>
        <time>2018-06-23T09:51:45.000Z</time>
      </trkpt>
      <trkpt lat="47.85629" lon="6.75664">
        <ele>688</ele>
        <time>2018-06-23T09:51:46.000Z</time>
      </trkpt>
      <trkpt lat="47.85629" lon="6.75664">
        <ele>688</ele>
        <time>2018-06-23T09:51:47.000Z</time>
      </trkpt>
      <trkpt lat="47.85629" lon="6.75664">
        <ele>688</ele>
        <time>2018-06-23T09:51:48.000Z</time>
      </trkpt>
      <trkpt lat="47.85629" lon="6.75664">
        <ele>688</ele>
        <time>2018-06-23T09:51:49.000Z</time>
      </trkpt>
      <trkpt lat="47.85629" lon="6.75664">
        <ele>688</ele>
        <time>2018-06-23T09:51:50.000Z</time>
      </trkpt>
      <trkpt lat="47.85629" lon="6.75665">
        <ele>688</ele>
        <time>2018-06-23T09:51:51.000Z</time>
      </trkpt>
      <trkpt lat="47.85629" lon="6.75665">
        <ele>688</ele>
        <time>2018-06-23T09:51:52.000Z</time>
      </trkpt>
      <trkpt lat="47.85629" lon="6.75666">
        <ele>688</ele>
        <time>2018-06-23T09:51:53.000Z</time>
      </trkpt>
      <trkpt lat="47.8563" lon="6.75666">
        <ele>688</ele>
        <time>2018-06-23T09:51:54.000Z</time>
      </trkpt>
      <trkpt lat="47.85629" lon="6.75666">
        <ele>688</ele>
        <time>2018-06-23T09:51:55.000Z</time>
      </trkpt>
      <trkpt lat="47.85629" lon="6.75667">
        <ele>688</ele>
        <time>2018-06-23T09:51:56.000Z</time>
      </trkpt>
      <trkpt lat="47.85629" lon="6.75667">
        <ele>694</ele>
        <time>2018-06-23T09:51:57.000Z</time>
      </trkpt>
      <trkpt lat="47.85629" lon="6.75668">
        <ele>694</ele>
        <time>2018-06-23T09:51:58.000Z</time>
      </trkpt>
      <trkpt lat="47.85629" lon="6.75669">
        <ele>694</ele>
        <time>2018-06-23T09:51:59.000Z</time>
      </trkpt>
      <trkpt lat="47.85629" lon="6.75669">
        <ele>694</ele>
        <time>2018-06-23T09:52:00.000Z</time>
      </trkpt>
      <trkpt lat="47.85629" lon="6.75668">
        <ele>694</ele>
        <time>2018-06-23T09:52:01.000Z</time>
      </trkpt>
      <trkpt lat="47.85628" lon="6.75668">
        <ele>694</ele>
        <time>2018-06-23T09:52:02.000Z</time>
      </trkpt>
      <trkpt lat="47.85628" lon="6.75668">
        <ele>694</ele>
        <time>2018-06-23T09:52:03.000Z</time>
      </trkpt>
      <trkpt lat="47.85628" lon="6.75668">
        <ele>694</ele>
        <time>2018-06-23T09:52:04.000Z</time>
      </trkpt>
      <trkpt lat="47.85628" lon="6.75668">
        <ele>694</ele>
        <time>2018-06-23T09:52:05.000Z</time>
      </trkpt>
      <trkpt lat="47.85628" lon="6.75668">
        <ele>694</ele>
        <time>2018-06-23T09:52:06.000Z</time>
      </trkpt>
      <trkpt lat="47.85628" lon="6.75668">
        <ele>694</ele>
        <time>2018-06-23T09:52:07.000Z</time>
      </trkpt>
      <trkpt lat="47.85628" lon="6.75668">
        <ele>694</ele>
        <time>2018-06-23T09:52:08.000Z</time>
      </trkpt>
      <trkpt lat="47.85628" lon="6.75668">
        <ele>694</ele>
        <time>2018-06-23T09:52:09.000Z</time>
      </trkpt>
      <trkpt lat="47.85628" lon="6.75668">
        <ele>694</ele>
        <time>2018-06-23T09:52:10.000Z</time>
      </trkpt>
      <trkpt lat="47.85628" lon="6.75668">
        <ele>694</ele>
        <time>2018-06-23T09:52:11.000Z</time>
      </trkpt>
      <trkpt lat="47.85628" lon="6.75668">
        <ele>694</ele>
        <time>2018-06-23T09:52:12.000Z</time>
      </trkpt>
      <trkpt lat="47.85628" lon="6.75668">
        <ele>694</ele>
        <time>2018-06-23T09:52:13.000Z</time>
      </trkpt>
      <trkpt lat="47.85628" lon="6.75667">
        <ele>694</ele>
        <time>2018-06-23T09:52:14.000Z</time>
      </trkpt>
      <trkpt lat="47.85628" lon="6.75667">
        <ele>694</ele>
        <time>2018-06-23T09:52:15.000Z</time>
      </trkpt>
      <trkpt lat="47.85628" lon="6.75667">
        <ele>694</ele>
        <time>2018-06-23T09:52:16.000Z</time>
      </trkpt>
      <trkpt lat="47.85628" lon="6.75667">
        <ele>694</ele>
        <time>2018-06-23T09:52:17.000Z</time>
      </trkpt>
      <trkpt lat="47.85627" lon="6.75667">
        <ele>694</ele>
        <time>2018-06-23T09:52:18.000Z</time>
      </trkpt>
      <trkpt lat="47.85627" lon="6.75667">
        <ele>694</ele>
        <time>2018-06-23T09:52:19.000Z</time>
      </trkpt>
      <trkpt lat="47.85627" lon="6.75667">
        <ele>694</ele>
        <time>2018-06-23T09:52:20.000Z</time>
      </trkpt>
      <trkpt lat="47.85627" lon="6.75667">
        <ele>694</ele>
        <time>2018-06-23T09:52:21.000Z</time>
      </trkpt>
      <trkpt lat="47.85627" lon="6.75667">
        <ele>694</ele>
        <time>2018-06-23T09:52:22.000Z</time>
      </trkpt>
      <trkpt lat="47.85627" lon="6.75667">
        <ele>694</ele>
        <time>2018-06-23T09:52:23.000Z</time>
      </trkpt>
      <trkpt lat="47.85627" lon="6.75667">
        <ele>694</ele>
        <time>2018-06-23T09:52:24.000Z</time>
      </trkpt>
      <trkpt lat="47.85627" lon="6.75667">
        <ele>694</ele>
        <time>2018-06-23T09:52:25.000Z</time>
      </trkpt>
      <trkpt lat="47.85627" lon="6.75667">
        <ele>694</ele>
        <time>2018-06-23T09:52:26.000Z</time>
      </trkpt>
      <trkpt lat="47.85627" lon="6.75667">
        <ele>694</ele>
        <time>2018-06-23T09:52:27.000Z</time>
      </trkpt>
      <trkpt lat="47.85627" lon="6.75667">
        <ele>694</ele>
        <time>2018-06-23T09:52:28.000Z</time>
      </trkpt>
      <trkpt lat="47.85627" lon="6.75667">
        <ele>694</ele>
        <time>2018-06-23T09:52:29.000Z</time>
      </trkpt>
      <trkpt lat="47.85627" lon="6.75667">
        <ele>694</ele>
        <time>2018-06-23T09:52:30.000Z</time>
      </trkpt>
      <trkpt lat="47.85627" lon="6.75667">
        <ele>694</ele>
        <time>2018-06-23T09:52:31.000Z</time>
      </trkpt>
      <trkpt lat="47.85627" lon="6.75667">
        <ele>694</ele>
        <time>2018-06-23T09:52:32.000Z</time>
      </trkpt>
      <trkpt lat="47.85627" lon="6.75667">
        <ele>694</ele>
        <time>2018-06-23T09:52:33.000Z</time>
      </trkpt>
      <trkpt lat="47.85627" lon="6.75667">
        <ele>694</ele>
        <time>2018-06-23T09:52:34.000Z</time>
      </trkpt>
      <trkpt lat="47.85627" lon="6.75667">
        <ele>694</ele>
        <time>2018-06-23T09:52:35.000Z</time>
      </trkpt>
      <trkpt lat="47.85627" lon="6.75667">
        <ele>694</ele>
        <time>2018-06-23T09:52:36.000Z</time>
      </trkpt>
      <trkpt lat="47.85627" lon="6.75667">
        <ele>688</ele>
        <time>2018-06-23T09:52:37.000Z</time>
      </trkpt>
      <trkpt lat="47.85627" lon="6.75667">
        <ele>688</ele>
        <time>2018-06-23T09:52:38.000Z</time>
      </trkpt>
      <trkpt lat="47.85627" lon="6.75666">
        <ele>688</ele>
        <time>2018-06-23T09:52:39.000Z</time>
      </trkpt>
      <trkpt lat="47.85627" lon="6.75666">
        <ele>688</ele>
        <time>2018-06-23T09:52:40.000Z</time>
      </trkpt>
      <trkpt lat="47.85627" lon="6.75666">
        <ele>688</ele>
        <time>2018-06-23T09:52:41.000Z</time>
      </trkpt>
      <trkpt lat="47.85627" lon="6.75666">
        <ele>688</ele>
        <time>2018-06-23T09:52:42.000Z</time>
      </trkpt>
      <trkpt lat="47.85627" lon="6.75666">
        <ele>688</ele>
        <time>2018-06-23T09:52:43.000Z</time>
      </trkpt>
      <trkpt lat="47.85627" lon="6.75666">
        <ele>688</ele>
        <time>2018-06-23T09:52:44.000Z</time>
      </trkpt>
      <trkpt lat="47.85627" lon="6.75666">
        <ele>688</ele>
        <time>2018-06-23T09:52:45.000Z</time>
      </trkpt>
      <trkpt lat="47.85627" lon="6.75666">
        <ele>688</ele>
        <time>2018-06-23T09:52:46.000Z</time>
      </trkpt>
      <trkpt lat="47.85627" lon="6.75666">
        <ele>688</ele>
        <time>2018-06-23T09:52:47.000Z</time>
      </trkpt>
      <trkpt lat="47.85627" lon="6.75666">
        <ele>688</ele>
        <time>2018-06-23T09:52:48.000Z</time>
      </trkpt>
      <trkpt lat="47.85627" lon="6.75666">
        <ele>688</ele>
        <time>2018-06-23T09:52:49.000Z</time>
      </trkpt>
      <trkpt lat="47.85627" lon="6.75666">
        <ele>688</ele>
        <time>2018-06-23T09:52:50.000Z</time>
      </trkpt>
      <trkpt lat="47.85627" lon="6.75666">
        <ele>688</ele>
        <time>2018-06-23T09:52:51.000Z</time>
      </trkpt>
      <trkpt lat="47.85627" lon="6.75666">
        <ele>688</ele>
        <time>2018-06-23T09:52:52.000Z</time>
      </trkpt>
      <trkpt lat="47.85627" lon="6.75666">
        <ele>688</ele>
        <time>2018-06-23T09:52:53.000Z</time>
      </trkpt>
      <trkpt lat="47.85627" lon="6.75666">
        <ele>688</ele>
        <time>2018-06-23T09:52:54.000Z</time>
      </trkpt>
      <trkpt lat="47.85627" lon="6.75666">
        <ele>688</ele>
        <time>2018-06-23T09:52:55.000Z</time>
      </trkpt>
      <trkpt lat="47.85627" lon="6.75666">
        <ele>688</ele>
        <time>2018-06-23T09:52:56.000Z</time>
      </trkpt>
      <trkpt lat="47.85627" lon="6.75666">
        <ele>688</ele>
        <time>2018-06-23T09:52:57.000Z</time>
      </trkpt>
      <trkpt lat="47.85627" lon="6.75666">
        <ele>688</ele>
        <time>2018-06-23T09:52:58.000Z</time>
      </trkpt>
      <trkpt lat="47.85627" lon="6.75666">
        <ele>688</ele>
        <time>2018-06-23T09:52:59.000Z</time>
      </trkpt>
      <trkpt lat="47.85627" lon="6.75666">
        <ele>688</ele>
        <time>2018-06-23T09:53:00.000Z</time>
      </trkpt>
      <trkpt lat="47.85627" lon="6.75666">
        <ele>688</ele>
        <time>2018-06-23T09:53:01.000Z</time>
      </trkpt>
      <trkpt lat="47.85627" lon="6.75666">
        <ele>688</ele>
        <time>2018-06-23T09:53:02.000Z</time>
      </trkpt>
      <trkpt lat="47.85627" lon="6.75666">
        <ele>688</ele>
        <time>2018-06-23T09:53:03.000Z</time>
      </trkpt>
      <trkpt lat="47.85627" lon="6.75666">
        <ele>688</ele>
        <time>2018-06-23T09:53:04.000Z</time>
      </trkpt>
      <trkpt lat="47.85627" lon="6.75666">
        <ele>688</ele>
        <time>2018-06-23T09:53:05.000Z</time>
      </trkpt>
      <trkpt lat="47.85627" lon="6.75666">
        <ele>688</ele>
        <time>2018-06-23T09:53:06.000Z</time>
      </trkpt>
      <trkpt lat="47.85627" lon="6.75666">
        <ele>688</ele>
        <time>2018-06-23T09:53:07.000Z</time>
      </trkpt>
      <trkpt lat="47.85627" lon="6.75666">
        <ele>688</ele>
        <time>2018-06-23T09:53:08.000Z</time>
      </trkpt>
      <trkpt lat="47.85627" lon="6.75665">
        <ele>688</ele>
        <time>2018-06-23T09:53:09.000Z</time>
      </trkpt>
      <trkpt lat="47.85627" lon="6.75665">
        <ele>688</ele>
        <time>2018-06-23T09:53:10.000Z</time>
      </trkpt>
      <trkpt lat="47.85627" lon="6.75665">
        <ele>688</ele>
        <time>2018-06-23T09:53:11.000Z</time>
      </trkpt>
      <trkpt lat="47.85627" lon="6.75665">
        <ele>688</ele>
        <time>2018-06-23T09:53:12.000Z</time>
      </trkpt>
      <trkpt lat="47.85627" lon="6.75665">
        <ele>688</ele>
        <time>2018-06-23T09:53:13.000Z</time>
      </trkpt>
      <trkpt lat="47.85627" lon="6.75665">
        <ele>688</ele>
        <time>2018-06-23T09:53:14.000Z</time>
      </trkpt>
      <trkpt lat="47.85627" lon="6.75665">
        <ele>688</ele>
        <time>2018-06-23T09:53:15.000Z</time>
      </trkpt>
      <trkpt lat="47.85627" lon="6.75665">
        <ele>688</ele>
        <time>2018-06-23T09:53:16.000Z</time>
      </trkpt>
      <trkpt lat="47.85627" lon="6.75665">
        <ele>688</ele>
        <time>2018-06-23T09:53:17.000Z</time>
      </trkpt>
      <trkpt lat="47.85627" lon="6.75665">
        <ele>688</ele>
        <time>2018-06-23T09:53:18.000Z</time>
      </trkpt>
      <trkpt lat="47.85627" lon="6.75665">
        <ele>688</ele>
        <time>2018-06-23T09:53:19.000Z</time>
      </trkpt>
      <trkpt lat="47.85626" lon="6.75665">
        <ele>688</ele>
        <time>2018-06-23T09:53:20.000Z</time>
      </trkpt>
      <trkpt lat="47.85626" lon="6.75665">
        <ele>688</ele>
        <time>2018-06-23T09:53:21.000Z</time>
      </trkpt>
      <trkpt lat="47.85626" lon="6.75665">
        <ele>688</ele>
        <time>2018-06-23T09:53:22.000Z</time>
      </trkpt>
      <trkpt lat="47.85626" lon="6.75665">
        <ele>688</ele>
        <time>2018-06-23T09:53:23.000Z</time>
      </trkpt>
      <trkpt lat="47.85626" lon="6.75665">
        <ele>688</ele>
        <time>2018-06-23T09:53:24.000Z</time>
      </trkpt>
      <trkpt lat="47.85627" lon="6.75665">
        <ele>688</ele>
        <time>2018-06-23T09:53:25.000Z</time>
      </trkpt>
      <trkpt lat="47.85627" lon="6.75665">
        <ele>688</ele>
        <time>2018-06-23T09:53:26.000Z</time>
      </trkpt>
      <trkpt lat="47.85627" lon="6.75665">
        <ele>688</ele>
        <time>2018-06-23T09:53:27.000Z</time>
      </trkpt>
      <trkpt lat="47.85627" lon="6.75665">
        <ele>688</ele>
        <time>2018-06-23T09:53:28.000Z</time>
      </trkpt>
      <trkpt lat="47.85627" lon="6.75665">
        <ele>688</ele>
        <time>2018-06-23T09:53:29.000Z</time>
      </trkpt>
      <trkpt lat="47.85627" lon="6.75665">
        <ele>688</ele>
        <time>2018-06-23T09:53:30.000Z</time>
      </trkpt>
      <trkpt lat="47.85627" lon="6.75665">
        <ele>688</ele>
        <time>2018-06-23T09:53:31.000Z</time>
      </trkpt>
      <trkpt lat="47.85627" lon="6.75665">
        <ele>688</ele>
        <time>2018-06-23T09:53:32.000Z</time>
      </trkpt>
      <trkpt lat="47.85627" lon="6.75666">
        <ele>688</ele>
        <time>2018-06-23T09:53:33.000Z</time>
      </trkpt>
      <trkpt lat="47.85627" lon="6.75666">
        <ele>688</ele>
        <time>2018-06-23T09:53:34.000Z</time>
      </trkpt>
      <trkpt lat="47.85627" lon="6.75665">
        <ele>688</ele>
        <time>2018-06-23T09:53:35.000Z</time>
      </trkpt>
      <trkpt lat="47.85627" lon="6.75665">
        <ele>688</ele>
        <time>2018-06-23T09:53:36.000Z</time>
      </trkpt>
      <trkpt lat="47.85627" lon="6.75665">
        <ele>688</ele>
        <time>2018-06-23T09:53:37.000Z</time>
      </trkpt>
      <trkpt lat="47.85628" lon="6.75664">
        <ele>688</ele>
        <time>2018-06-23T09:53:38.000Z</time>
      </trkpt>
      <trkpt lat="47.85628" lon="6.75664">
        <ele>688</ele>
        <time>2018-06-23T09:53:39.000Z</time>
      </trkpt>
      <trkpt lat="47.85628" lon="6.75664">
        <ele>688</ele>
        <time>2018-06-23T09:53:40.000Z</time>
      </trkpt>
      <trkpt lat="47.85628" lon="6.75664">
        <ele>688</ele>
        <time>2018-06-23T09:53:41.000Z</time>
      </trkpt>
      <trkpt lat="47.85628" lon="6.75665">
        <ele>688</ele>
        <time>2018-06-23T09:53:42.000Z</time>
      </trkpt>
      <trkpt lat="47.85629" lon="6.75664">
        <ele>688</ele>
        <time>2018-06-23T09:53:43.000Z</time>
      </trkpt>
      <trkpt lat="47.85629" lon="6.75664">
        <ele>688</ele>
        <time>2018-06-23T09:53:44.000Z</time>
      </trkpt>
      <trkpt lat="47.85629" lon="6.75664">
        <ele>688</ele>
        <time>2018-06-23T09:53:45.000Z</time>
      </trkpt>
      <trkpt lat="47.85629" lon="6.75664">
        <ele>688</ele>
        <time>2018-06-23T09:53:46.000Z</time>
      </trkpt>
      <trkpt lat="47.85629" lon="6.75664">
        <ele>688</ele>
        <time>2018-06-23T09:53:47.000Z</time>
      </trkpt>
      <trkpt lat="47.85629" lon="6.75664">
        <ele>688</ele>
        <time>2018-06-23T09:53:48.000Z</time>
      </trkpt>
      <trkpt lat="47.85629" lon="6.75664">
        <ele>688</ele>
        <time>2018-06-23T09:53:49.000Z</time>
      </trkpt>
      <trkpt lat="47.85629" lon="6.75664">
        <ele>688</ele>
        <time>2018-06-23T09:53:50.000Z</time>
      </trkpt>
      <trkpt lat="47.85629" lon="6.75664">
        <ele>688</ele>
        <time>2018-06-23T09:53:51.000Z</time>
      </trkpt>
      <trkpt lat="47.85629" lon="6.75664">
        <ele>688</ele>
        <time>2018-06-23T09:53:52.000Z</time>
      </trkpt>
      <trkpt lat="47.85629" lon="6.75663">
        <ele>688</ele>
        <time>2018-06-23T09:53:53.000Z</time>
      </trkpt>
      <trkpt lat="47.85629" lon="6.75663">
        <ele>688</ele>
        <time>2018-06-23T09:53:54.000Z</time>
      </trkpt>
      <trkpt lat="47.85629" lon="6.75663">
        <ele>688</ele>
        <time>2018-06-23T09:53:55.000Z</time>
      </trkpt>
      <trkpt lat="47.85629" lon="6.75663">
        <ele>688</ele>
        <time>2018-06-23T09:53:56.000Z</time>
      </trkpt>
      <trkpt lat="47.85629" lon="6.75663">
        <ele>688</ele>
        <time>2018-06-23T09:53:57.000Z</time>
      </trkpt>
      <trkpt lat="47.85629" lon="6.75663">
        <ele>688</ele>
        <time>2018-06-23T09:53:58.000Z</time>
      </trkpt>
      <trkpt lat="47.85629" lon="6.75663">
        <ele>688</ele>
        <time>2018-06-23T09:53:59.000Z</time>
      </trkpt>
      <trkpt lat="47.85629" lon="6.75662">
        <ele>688</ele>
        <time>2018-06-23T09:54:00.000Z</time>
      </trkpt>
      <trkpt lat="47.85629" lon="6.75662">
        <ele>688</ele>
        <time>2018-06-23T09:54:01.000Z</time>
      </trkpt>
      <trkpt lat="47.85629" lon="6.75662">
        <ele>688</ele>
        <time>2018-06-23T09:54:02.000Z</time>
      </trkpt>
      <trkpt lat="47.8563" lon="6.75662">
        <ele>688</ele>
        <time>2018-06-23T09:54:03.000Z</time>
      </trkpt>
      <trkpt lat="47.8563" lon="6.75662">
        <ele>688</ele>
        <time>2018-06-23T09:54:04.000Z</time>
      </trkpt>
      <trkpt lat="47.8563" lon="6.75662">
        <ele>688</ele>
        <time>2018-06-23T09:54:05.000Z</time>
      </trkpt>
      <trkpt lat="47.8563" lon="6.75662">
        <ele>688</ele>
        <time>2018-06-23T09:54:06.000Z</time>
      </trkpt>
      <trkpt lat="47.8563" lon="6.75662">
        <ele>688</ele>
        <time>2018-06-23T09:54:07.000Z</time>
      </trkpt>
      <trkpt lat="47.8563" lon="6.75662">
        <ele>688</ele>
        <time>2018-06-23T09:54:08.000Z</time>
      </trkpt>
      <trkpt lat="47.8563" lon="6.75661">
        <ele>688</ele>
        <time>2018-06-23T09:54:09.000Z</time>
      </trkpt>
      <trkpt lat="47.8563" lon="6.75661">
        <ele>688</ele>
        <time>2018-06-23T09:54:10.000Z</time>
      </trkpt>
      <trkpt lat="47.8563" lon="6.75661">
        <ele>688</ele>
        <time>2018-06-23T09:54:11.000Z</time>
      </trkpt>
      <trkpt lat="47.8563" lon="6.75661">
        <ele>688</ele>
        <time>2018-06-23T09:54:12.000Z</time>
      </trkpt>
      <trkpt lat="47.8563" lon="6.75661">
        <ele>688</ele>
        <time>2018-06-23T09:54:13.000Z</time>
      </trkpt>
      <trkpt lat="47.8563" lon="6.75661">
        <ele>688</ele>
        <time>2018-06-23T09:54:14.000Z</time>
      </trkpt>
      <trkpt lat="47.8563" lon="6.75661">
        <ele>688</ele>
        <time>2018-06-23T09:54:15.000Z</time>
      </trkpt>
      <trkpt lat="47.85629" lon="6.75662">
        <ele>688</ele>
        <time>2018-06-23T09:54:16.000Z</time>
      </trkpt>
      <trkpt lat="47.8563" lon="6.75662">
        <ele>688</ele>
        <time>2018-06-23T09:54:17.000Z</time>
      </trkpt>
      <trkpt lat="47.8563" lon="6.75661">
        <ele>688</ele>
        <time>2018-06-23T09:54:18.000Z</time>
      </trkpt>
      <trkpt lat="47.8563" lon="6.7566">
        <ele>688</ele>
        <time>2018-06-23T09:54:19.000Z</time>
      </trkpt>
      <trkpt lat="47.85631" lon="6.7566">
        <ele>688</ele>
        <time>2018-06-23T09:54:20.000Z</time>
      </trkpt>
      <trkpt lat="47.85632" lon="6.7566">
        <ele>688</ele>
        <time>2018-06-23T09:54:21.000Z</time>
      </trkpt>
      <trkpt lat="47.85632" lon="6.7566">
        <ele>688</ele>
        <time>2018-06-23T09:54:22.000Z</time>
      </trkpt>
      <trkpt lat="47.85633" lon="6.75659">
        <ele>688</ele>
        <time>2018-06-23T09:54:23.000Z</time>
      </trkpt>
      <trkpt lat="47.85634" lon="6.75659">
        <ele>689</ele>
        <time>2018-06-23T09:54:24.000Z</time>
      </trkpt>
      <trkpt lat="47.85634" lon="6.75659">
        <ele>689</ele>
        <time>2018-06-23T09:54:25.000Z</time>
      </trkpt>
      <trkpt lat="47.85635" lon="6.75658">
        <ele>689</ele>
        <time>2018-06-23T09:54:26.000Z</time>
      </trkpt>
      <trkpt lat="47.85636" lon="6.75658">
        <ele>689</ele>
        <time>2018-06-23T09:54:27.000Z</time>
      </trkpt>
      <trkpt lat="47.85636" lon="6.75658">
        <ele>689</ele>
        <time>2018-06-23T09:54:28.000Z</time>
      </trkpt>
      <trkpt lat="47.85637" lon="6.75658">
        <ele>689</ele>
        <time>2018-06-23T09:54:29.000Z</time>
      </trkpt>
      <trkpt lat="47.85637" lon="6.75657">
        <ele>689</ele>
        <time>2018-06-23T09:54:30.000Z</time>
      </trkpt>
      <trkpt lat="47.85638" lon="6.75657">
        <ele>689</ele>
        <time>2018-06-23T09:54:31.000Z</time>
      </trkpt>
      <trkpt lat="47.85639" lon="6.75656">
        <ele>689</ele>
        <time>2018-06-23T09:54:32.000Z</time>
      </trkpt>
      <trkpt lat="47.85639" lon="6.75656">
        <ele>689</ele>
        <time>2018-06-23T09:54:33.000Z</time>
      </trkpt>
      <trkpt lat="47.8564" lon="6.75655">
        <ele>689</ele>
        <time>2018-06-23T09:54:34.000Z</time>
      </trkpt>
      <trkpt lat="47.85641" lon="6.75654">
        <ele>689</ele>
        <time>2018-06-23T09:54:35.000Z</time>
      </trkpt>
      <trkpt lat="47.85641" lon="6.75653">
        <ele>689</ele>
        <time>2018-06-23T09:54:36.000Z</time>
      </trkpt>
      <trkpt lat="47.85642" lon="6.75653">
        <ele>689</ele>
        <time>2018-06-23T09:54:37.000Z</time>
      </trkpt>
      <trkpt lat="47.85643" lon="6.75652">
        <ele>689</ele>
        <time>2018-06-23T09:54:38.000Z</time>
      </trkpt>
      <trkpt lat="47.85643" lon="6.75651">
        <ele>689</ele>
        <time>2018-06-23T09:54:39.000Z</time>
      </trkpt>
      <trkpt lat="47.85644" lon="6.75651">
        <ele>689</ele>
        <time>2018-06-23T09:54:40.000Z</time>
      </trkpt>
      <trkpt lat="47.85645" lon="6.7565">
        <ele>689</ele>
        <time>2018-06-23T09:54:41.000Z</time>
      </trkpt>
      <trkpt lat="47.85646" lon="6.75649">
        <ele>689</ele>
        <time>2018-06-23T09:54:42.000Z</time>
      </trkpt>
      <trkpt lat="47.85646" lon="6.75649">
        <ele>689</ele>
        <time>2018-06-23T09:54:43.000Z</time>
      </trkpt>
      <trkpt lat="47.85647" lon="6.75648">
        <ele>689</ele>
        <time>2018-06-23T09:54:44.000Z</time>
      </trkpt>
      <trkpt lat="47.85648" lon="6.75648">
        <ele>689</ele>
        <time>2018-06-23T09:54:45.000Z</time>
      </trkpt>
      <trkpt lat="47.85649" lon="6.75647">
        <ele>689</ele>
        <time>2018-06-23T09:54:46.000Z</time>
      </trkpt>
      <trkpt lat="47.8565" lon="6.75647">
        <ele>689</ele>
        <time>2018-06-23T09:54:47.000Z</time>
      </trkpt>
      <trkpt lat="47.8565" lon="6.75646">
        <ele>689</ele>
        <time>2018-06-23T09:54:48.000Z</time>
      </trkpt>
      <trkpt lat="47.85651" lon="6.75645">
        <ele>689</ele>
        <time>2018-06-23T09:54:49.000Z</time>
      </trkpt>
      <trkpt lat="47.85652" lon="6.75645">
        <ele>689</ele>
        <time>2018-06-23T09:54:50.000Z</time>
      </trkpt>
      <trkpt lat="47.85652" lon="6.75644">
        <ele>689</ele>
        <time>2018-06-23T09:54:51.000Z</time>
      </trkpt>
      <trkpt lat="47.85653" lon="6.75644">
        <ele>689</ele>
        <time>2018-06-23T09:54:52.000Z</time>
      </trkpt>
      <trkpt lat="47.85654" lon="6.75643">
        <ele>689</ele>
        <time>2018-06-23T09:54:53.000Z</time>
      </trkpt>
      <trkpt lat="47.85654" lon="6.75643">
        <ele>689</ele>
        <time>2018-06-23T09:54:54.000Z</time>
      </trkpt>
      <trkpt lat="47.85655" lon="6.75643">
        <ele>689</ele>
        <time>2018-06-23T09:54:55.000Z</time>
      </trkpt>
      <trkpt lat="47.85656" lon="6.75643">
        <ele>689</ele>
        <time>2018-06-23T09:54:56.000Z</time>
      </trkpt>
      <trkpt lat="47.85657" lon="6.75643">
        <ele>689</ele>
        <time>2018-06-23T09:54:57.000Z</time>
      </trkpt>
      <trkpt lat="47.85657" lon="6.75643">
        <ele>689</ele>
        <time>2018-06-23T09:54:58.000Z</time>
      </trkpt>
      <trkpt lat="47.85658" lon="6.75643">
        <ele>689</ele>
        <time>2018-06-23T09:54:59.000Z</time>
      </trkpt>
      <trkpt lat="47.85659" lon="6.75643">
        <ele>690</ele>
        <time>2018-06-23T09:55:00.000Z</time>
      </trkpt>
      <trkpt lat="47.85659" lon="6.75643">
        <ele>690</ele>
        <time>2018-06-23T09:55:01.000Z</time>
      </trkpt>
      <trkpt lat="47.8566" lon="6.75643">
        <ele>690</ele>
        <time>2018-06-23T09:55:02.000Z</time>
      </trkpt>
      <trkpt lat="47.85661" lon="6.75643">
        <ele>690</ele>
        <time>2018-06-23T09:55:03.000Z</time>
      </trkpt>
      <trkpt lat="47.85661" lon="6.75642">
        <ele>690</ele>
        <time>2018-06-23T09:55:04.000Z</time>
      </trkpt>
      <trkpt lat="47.85662" lon="6.75641">
        <ele>689</ele>
        <time>2018-06-23T09:55:05.000Z</time>
      </trkpt>
      <trkpt lat="47.85662" lon="6.75641">
        <ele>689</ele>
        <time>2018-06-23T09:55:06.000Z</time>
      </trkpt>
      <trkpt lat="47.85663" lon="6.7564">
        <ele>689</ele>
        <time>2018-06-23T09:55:07.000Z</time>
      </trkpt>
      <trkpt lat="47.85664" lon="6.7564">
        <ele>689</ele>
        <time>2018-06-23T09:55:08.000Z</time>
      </trkpt>
      <trkpt lat="47.85664" lon="6.7564">
        <ele>689</ele>
        <time>2018-06-23T09:55:09.000Z</time>
      </trkpt>
      <trkpt lat="47.85664" lon="6.7564">
        <ele>689</ele>
        <time>2018-06-23T09:55:10.000Z</time>
      </trkpt>
      <trkpt lat="47.85664" lon="6.7564">
        <ele>689</ele>
        <time>2018-06-23T09:55:11.000Z</time>
      </trkpt>
      <trkpt lat="47.85665" lon="6.7564">
        <ele>689</ele>
        <time>2018-06-23T09:55:12.000Z</time>
      </trkpt>
      <trkpt lat="47.85665" lon="6.7564">
        <ele>689</ele>
        <time>2018-06-23T09:55:13.000Z</time>
      </trkpt>
      <trkpt lat="47.85665" lon="6.7564">
        <ele>689</ele>
        <time>2018-06-23T09:55:14.000Z</time>
      </trkpt>
      <trkpt lat="47.85665" lon="6.7564">
        <ele>689</ele>
        <time>2018-06-23T09:55:15.000Z</time>
      </trkpt>
      <trkpt lat="47.85665" lon="6.7564">
        <ele>689</ele>
        <time>2018-06-23T09:55:16.000Z</time>
      </trkpt>
      <trkpt lat="47.85665" lon="6.7564">
        <ele>689</ele>
        <time>2018-06-23T09:55:17.000Z</time>
      </trkpt>
      <trkpt lat="47.85665" lon="6.7564">
        <ele>689</ele>
        <time>2018-06-23T09:55:18.000Z</time>
      </trkpt>
      <trkpt lat="47.85665" lon="6.7564">
        <ele>689</ele>
        <time>2018-06-23T09:55:19.000Z</time>
      </trkpt>
      <trkpt lat="47.85665" lon="6.7564">
        <ele>689</ele>
        <time>2018-06-23T09:55:20.000Z</time>
      </trkpt>
      <trkpt lat="47.85666" lon="6.7564">
        <ele>689</ele>
        <time>2018-06-23T09:55:21.000Z</time>
      </trkpt>
      <trkpt lat="47.85666" lon="6.7564">
        <ele>689</ele>
        <time>2018-06-23T09:55:22.000Z</time>
      </trkpt>
      <trkpt lat="47.85666" lon="6.75639">
        <ele>689</ele>
        <time>2018-06-23T09:55:23.000Z</time>
      </trkpt>
      <trkpt lat="47.85666" lon="6.75639">
        <ele>689</ele>
        <time>2018-06-23T09:55:24.000Z</time>
      </trkpt>
      <trkpt lat="47.85666" lon="6.75639">
        <ele>689</ele>
        <time>2018-06-23T09:55:25.000Z</time>
      </trkpt>
      <trkpt lat="47.85666" lon="6.75639">
        <ele>689</ele>
        <time>2018-06-23T09:55:26.000Z</time>
      </trkpt>
      <trkpt lat="47.85666" lon="6.75639">
        <ele>689</ele>
        <time>2018-06-23T09:55:27.000Z</time>
      </trkpt>
      <trkpt lat="47.85665" lon="6.75639">
        <ele>689</ele>
        <time>2018-06-23T09:55:28.000Z</time>
      </trkpt>
      <trkpt lat="47.85665" lon="6.75639">
        <ele>689</ele>
        <time>2018-06-23T09:55:29.000Z</time>
      </trkpt>
      <trkpt lat="47.85665" lon="6.7564">
        <ele>689</ele>
        <time>2018-06-23T09:55:30.000Z</time>
      </trkpt>
      <trkpt lat="47.85665" lon="6.7564">
        <ele>689</ele>
        <time>2018-06-23T09:55:31.000Z</time>
      </trkpt>
      <trkpt lat="47.85665" lon="6.7564">
        <ele>689</ele>
        <time>2018-06-23T09:55:32.000Z</time>
      </trkpt>
      <trkpt lat="47.85665" lon="6.7564">
        <ele>689</ele>
        <time>2018-06-23T09:55:33.000Z</time>
      </trkpt>
      <trkpt lat="47.85665" lon="6.75641">
        <ele>690</ele>
        <time>2018-06-23T09:55:34.000Z</time>
      </trkpt>
      <trkpt lat="47.85665" lon="6.75641">
        <ele>690</ele>
        <time>2018-06-23T09:55:35.000Z</time>
      </trkpt>
      <trkpt lat="47.85665" lon="6.75642">
        <ele>690</ele>
        <time>2018-06-23T09:55:36.000Z</time>
      </trkpt>
      <trkpt lat="47.85665" lon="6.75642">
        <ele>690</ele>
        <time>2018-06-23T09:55:37.000Z</time>
      </trkpt>
      <trkpt lat="47.85665" lon="6.75643">
        <ele>690</ele>
        <time>2018-06-23T09:55:38.000Z</time>
      </trkpt>
      <trkpt lat="47.85665" lon="6.75644">
        <ele>690</ele>
        <time>2018-06-23T09:55:39.000Z</time>
      </trkpt>
      <trkpt lat="47.85665" lon="6.75644">
        <ele>690</ele>
        <time>2018-06-23T09:55:40.000Z</time>
      </trkpt>
      <trkpt lat="47.85665" lon="6.75644">
        <ele>690</ele>
        <time>2018-06-23T09:55:41.000Z</time>
      </trkpt>
      <trkpt lat="47.85665" lon="6.75644">
        <ele>690</ele>
        <time>2018-06-23T09:55:42.000Z</time>
      </trkpt>
      <trkpt lat="47.85665" lon="6.75643">
        <ele>690</ele>
        <time>2018-06-23T09:55:43.000Z</time>
      </trkpt>
      <trkpt lat="47.85665" lon="6.75643">
        <ele>690</ele>
        <time>2018-06-23T09:55:44.000Z</time>
      </trkpt>
      <trkpt lat="47.85665" lon="6.75643">
        <ele>690</ele>
        <time>2018-06-23T09:55:45.000Z</time>
      </trkpt>
      <trkpt lat="47.85665" lon="6.75643">
        <ele>690</ele>
        <time>2018-06-23T09:55:46.000Z</time>
      </trkpt>
      <trkpt lat="47.85665" lon="6.75643">
        <ele>690</ele>
        <time>2018-06-23T09:55:47.000Z</time>
      </trkpt>
      <trkpt lat="47.85665" lon="6.75643">
        <ele>690</ele>
        <time>2018-06-23T09:55:48.000Z</time>
      </trkpt>
      <trkpt lat="47.85665" lon="6.75643">
        <ele>690</ele>
        <time>2018-06-23T09:55:49.000Z</time>
      </trkpt>
      <trkpt lat="47.85665" lon="6.75642">
        <ele>690</ele>
        <time>2018-06-23T09:55:50.000Z</time>
      </trkpt>
      <trkpt lat="47.85666" lon="6.75643">
        <ele>690</ele>
        <time>2018-06-23T09:55:51.000Z</time>
      </trkpt>
      <trkpt lat="47.85666" lon="6.75643">
        <ele>690</ele>
        <time>2018-06-23T09:55:52.000Z</time>
      </trkpt>
      <trkpt lat="47.85666" lon="6.75642">
        <ele>690</ele>
        <time>2018-06-23T09:55:53.000Z</time>
      </trkpt>
      <trkpt lat="47.85666" lon="6.75642">
        <ele>690</ele>
        <time>2018-06-23T09:55:54.000Z</time>
      </trkpt>
      <trkpt lat="47.85666" lon="6.75642">
        <ele>690</ele>
        <time>2018-06-23T09:55:55.000Z</time>
      </trkpt>
      <trkpt lat="47.85666" lon="6.75642">
        <ele>690</ele>
        <time>2018-06-23T09:55:56.000Z</time>
      </trkpt>
      <trkpt lat="47.85666" lon="6.75642">
        <ele>690</ele>
        <time>2018-06-23T09:55:57.000Z</time>
      </trkpt>
      <trkpt lat="47.85666" lon="6.75642">
        <ele>690</ele>
        <time>2018-06-23T09:55:58.000Z</time>
      </trkpt>
      <trkpt lat="47.85666" lon="6.75642">
        <ele>690</ele>
        <time>2018-06-23T09:55:59.000Z</time>
      </trkpt>
      <trkpt lat="47.85666" lon="6.75642">
        <ele>690</ele>
        <time>2018-06-23T09:56:00.000Z</time>
      </trkpt>
      <trkpt lat="47.85666" lon="6.75642">
        <ele>690</ele>
        <time>2018-06-23T09:56:01.000Z</time>
      </trkpt>
      <trkpt lat="47.85666" lon="6.75642">
        <ele>690</ele>
        <time>2018-06-23T09:56:02.000Z</time>
      </trkpt>
      <trkpt lat="47.85666" lon="6.75642">
        <ele>690</ele>
        <time>2018-06-23T09:56:03.000Z</time>
      </trkpt>
      <trkpt lat="47.85666" lon="6.75642">
        <ele>690</ele>
        <time>2018-06-23T09:56:04.000Z</time>
      </trkpt>
      <trkpt lat="47.85666" lon="6.75642">
        <ele>690</ele>
        <time>2018-06-23T09:56:05.000Z</time>
      </trkpt>
      <trkpt lat="47.85666" lon="6.75642">
        <ele>690</ele>
        <time>2018-06-23T09:56:06.000Z</time>
      </trkpt>
      <trkpt lat="47.85666" lon="6.75642">
        <ele>690</ele>
        <time>2018-06-23T09:56:07.000Z</time>
      </trkpt>
      <trkpt lat="47.85666" lon="6.75642">
        <ele>690</ele>
        <time>2018-06-23T09:56:08.000Z</time>
      </trkpt>
      <trkpt lat="47.85666" lon="6.75642">
        <ele>690</ele>
        <time>2018-06-23T09:56:09.000Z</time>
      </trkpt>
      <trkpt lat="47.85666" lon="6.75642">
        <ele>690</ele>
        <time>2018-06-23T09:56:10.000Z</time>
      </trkpt>
      <trkpt lat="47.85666" lon="6.75642">
        <ele>690</ele>
        <time>2018-06-23T09:56:11.000Z</time>
      </trkpt>
      <trkpt lat="47.85666" lon="6.75643">
        <ele>690</ele>
        <time>2018-06-23T09:56:12.000Z</time>
      </trkpt>
      <trkpt lat="47.85666" lon="6.75643">
        <ele>690</ele>
        <time>2018-06-23T09:56:13.000Z</time>
      </trkpt>
      <trkpt lat="47.85665" lon="6.75643">
        <ele>690</ele>
        <time>2018-06-23T09:56:14.000Z</time>
      </trkpt>
      <trkpt lat="47.85665" lon="6.75643">
        <ele>690</ele>
        <time>2018-06-23T09:56:15.000Z</time>
      </trkpt>
      <trkpt lat="47.85665" lon="6.75642">
        <ele>690</ele>
        <time>2018-06-23T09:56:16.000Z</time>
      </trkpt>
      <trkpt lat="47.85664" lon="6.75641">
        <ele>690</ele>
        <time>2018-06-23T09:56:17.000Z</time>
      </trkpt>
      <trkpt lat="47.85664" lon="6.75641">
        <ele>690</ele>
        <time>2018-06-23T09:56:18.000Z</time>
      </trkpt>
      <trkpt lat="47.85664" lon="6.75642">
        <ele>690</ele>
        <time>2018-06-23T09:56:19.000Z</time>
      </trkpt>
      <trkpt lat="47.85664" lon="6.75642">
        <ele>690</ele>
        <time>2018-06-23T09:56:20.000Z</time>
      </trkpt>
      <trkpt lat="47.85664" lon="6.75642">
        <ele>690</ele>
        <time>2018-06-23T09:56:21.000Z</time>
      </trkpt>
      <trkpt lat="47.85664" lon="6.75642">
        <ele>690</ele>
        <time>2018-06-23T09:56:22.000Z</time>
      </trkpt>
      <trkpt lat="47.85665" lon="6.75642">
        <ele>690</ele>
        <time>2018-06-23T09:56:23.000Z</time>
      </trkpt>
      <trkpt lat="47.85665" lon="6.75642">
        <ele>690</ele>
        <time>2018-06-23T09:56:24.000Z</time>
      </trkpt>
      <trkpt lat="47.85665" lon="6.75642">
        <ele>690</ele>
        <time>2018-06-23T09:56:25.000Z</time>
      </trkpt>
      <trkpt lat="47.85665" lon="6.75642">
        <ele>690</ele>
        <time>2018-06-23T09:56:26.000Z</time>
      </trkpt>
      <trkpt lat="47.85665" lon="6.75642">
        <ele>690</ele>
        <time>2018-06-23T09:56:27.000Z</time>
      </trkpt>
      <trkpt lat="47.85665" lon="6.75643">
        <ele>690</ele>
        <time>2018-06-23T09:56:28.000Z</time>
      </trkpt>
      <trkpt lat="47.85665" lon="6.75643">
        <ele>690</ele>
        <time>2018-06-23T09:56:29.000Z</time>
      </trkpt>
      <trkpt lat="47.85664" lon="6.75643">
        <ele>690</ele>
        <time>2018-06-23T09:56:30.000Z</time>
      </trkpt>
      <trkpt lat="47.85664" lon="6.75643">
        <ele>690</ele>
        <time>2018-06-23T09:56:31.000Z</time>
      </trkpt>
      <trkpt lat="47.85664" lon="6.75643">
        <ele>690</ele>
        <time>2018-06-23T09:56:32.000Z</time>
      </trkpt>
      <trkpt lat="47.85664" lon="6.75643">
        <ele>690</ele>
        <time>2018-06-23T09:56:33.000Z</time>
      </trkpt>
      <trkpt lat="47.85664" lon="6.75643">
        <ele>690</ele>
        <time>2018-06-23T09:56:34.000Z</time>
      </trkpt>
      <trkpt lat="47.85664" lon="6.75643">
        <ele>690</ele>
        <time>2018-06-23T09:56:35.000Z</time>
      </trkpt>
      <trkpt lat="47.85664" lon="6.75643">
        <ele>690</ele>
        <time>2018-06-23T09:56:36.000Z</time>
      </trkpt>
      <trkpt lat="47.85664" lon="6.75643">
        <ele>690</ele>
        <time>2018-06-23T09:56:37.000Z</time>
      </trkpt>
      <trkpt lat="47.85664" lon="6.75643">
        <ele>690</ele>
        <time>2018-06-23T09:56:38.000Z</time>
      </trkpt>
      <trkpt lat="47.85664" lon="6.75643">
        <ele>690</ele>
        <time>2018-06-23T09:56:39.000Z</time>
      </trkpt>
      <trkpt lat="47.85664" lon="6.75643">
        <ele>690</ele>
        <time>2018-06-23T09:56:40.000Z</time>
      </trkpt>
      <trkpt lat="47.85664" lon="6.75643">
        <ele>690</ele>
        <time>2018-06-23T09:56:41.000Z</time>
      </trkpt>
      <trkpt lat="47.85664" lon="6.75643">
        <ele>690</ele>
        <time>2018-06-23T09:56:42.000Z</time>
      </trkpt>
      <trkpt lat="47.85664" lon="6.75643">
        <ele>690</ele>
        <time>2018-06-23T09:56:43.000Z</time>
      </trkpt>
      <trkpt lat="47.85664" lon="6.75643">
        <ele>690</ele>
        <time>2018-06-23T09:56:44.000Z</time>
      </trkpt>
      <trkpt lat="47.85664" lon="6.75643">
        <ele>690</ele>
        <time>2018-06-23T09:56:45.000Z</time>
      </trkpt>
      <trkpt lat="47.85664" lon="6.75643">
        <ele>690</ele>
        <time>2018-06-23T09:56:46.000Z</time>
      </trkpt>
      <trkpt lat="47.85664" lon="6.75643">
        <ele>690</ele>
        <time>2018-06-23T09:56:47.000Z</time>
      </trkpt>
      <trkpt lat="47.85664" lon="6.75643">
        <ele>690</ele>
        <time>2018-06-23T09:56:48.000Z</time>
      </trkpt>
      <trkpt lat="47.85665" lon="6.75643">
        <ele>690</ele>
        <time>2018-06-23T09:56:49.000Z</time>
      </trkpt>
      <trkpt lat="47.85665" lon="6.75644">
        <ele>690</ele>
        <time>2018-06-23T09:56:50.000Z</time>
      </trkpt>
      <trkpt lat="47.85665" lon="6.75644">
        <ele>690</ele>
        <time>2018-06-23T09:56:51.000Z</time>
      </trkpt>
      <trkpt lat="47.85665" lon="6.75644">
        <ele>690</ele>
        <time>2018-06-23T09:56:52.000Z</time>
      </trkpt>
      <trkpt lat="47.85665" lon="6.75644">
        <ele>690</ele>
        <time>2018-06-23T09:56:53.000Z</time>
      </trkpt>
      <trkpt lat="47.85665" lon="6.75644">
        <ele>690</ele>
        <time>2018-06-23T09:56:54.000Z</time>
      </trkpt>
      <trkpt lat="47.85665" lon="6.75644">
        <ele>690</ele>
        <time>2018-06-23T09:56:55.000Z</time>
      </trkpt>
      <trkpt lat="47.85665" lon="6.75644">
        <ele>690</ele>
        <time>2018-06-23T09:56:56.000Z</time>
      </trkpt>
      <trkpt lat="47.85665" lon="6.75644">
        <ele>690</ele>
        <time>2018-06-23T09:56:57.000Z</time>
      </trkpt>
      <trkpt lat="47.85665" lon="6.75644">
        <ele>690</ele>
        <time>2018-06-23T09:56:58.000Z</time>
      </trkpt>
      <trkpt lat="47.85665" lon="6.75644">
        <ele>690</ele>
        <time>2018-06-23T09:56:59.000Z</time>
      </trkpt>
      <trkpt lat="47.85665" lon="6.75644">
        <ele>690</ele>
        <time>2018-06-23T09:57:00.000Z</time>
      </trkpt>
      <trkpt lat="47.85665" lon="6.75644">
        <ele>690</ele>
        <time>2018-06-23T09:57:01.000Z</time>
      </trkpt>
      <trkpt lat="47.85665" lon="6.75644">
        <ele>690</ele>
        <time>2018-06-23T09:57:02.000Z</time>
      </trkpt>
      <trkpt lat="47.85665" lon="6.75644">
        <ele>690</ele>
        <time>2018-06-23T09:57:03.000Z</time>
      </trkpt>
      <trkpt lat="47.85665" lon="6.75644">
        <ele>690</ele>
        <time>2018-06-23T09:57:04.000Z</time>
      </trkpt>
      <trkpt lat="47.85665" lon="6.75644">
        <ele>690</ele>
        <time>2018-06-23T09:57:05.000Z</time>
      </trkpt>
      <trkpt lat="47.85665" lon="6.75644">
        <ele>690</ele>
        <time>2018-06-23T09:57:06.000Z</time>
      </trkpt>
      <trkpt lat="47.85665" lon="6.75644">
        <ele>690</ele>
        <time>2018-06-23T09:57:07.000Z</time>
      </trkpt>
      <trkpt lat="47.85665" lon="6.75643">
        <ele>690</ele>
        <time>2018-06-23T09:57:08.000Z</time>
      </trkpt>
      <trkpt lat="47.85665" lon="6.75643">
        <ele>690</ele>
        <time>2018-06-23T09:57:09.000Z</time>
      </trkpt>
      <trkpt lat="47.85665" lon="6.75643">
        <ele>690</ele>
        <time>2018-06-23T09:57:10.000Z</time>
      </trkpt>
      <trkpt lat="47.85666" lon="6.75644">
        <ele>690</ele>
        <time>2018-06-23T09:57:11.000Z</time>
      </trkpt>
      <trkpt lat="47.85666" lon="6.75644">
        <ele>690</ele>
        <time>2018-06-23T09:57:12.000Z</time>
      </trkpt>
      <trkpt lat="47.85666" lon="6.75645">
        <ele>690</ele>
        <time>2018-06-23T09:57:13.000Z</time>
      </trkpt>
      <trkpt lat="47.85666" lon="6.75645">
        <ele>690</ele>
        <time>2018-06-23T09:57:14.000Z</time>
      </trkpt>
      <trkpt lat="47.85666" lon="6.75645">
        <ele>690</ele>
        <time>2018-06-23T09:57:15.000Z</time>
      </trkpt>
      <trkpt lat="47.85666" lon="6.75645">
        <ele>690</ele>
        <time>2018-06-23T09:57:16.000Z</time>
      </trkpt>
      <trkpt lat="47.85666" lon="6.75645">
        <ele>690</ele>
        <time>2018-06-23T09:57:17.000Z</time>
      </trkpt>
      <trkpt lat="47.85666" lon="6.75645">
        <ele>690</ele>
        <time>2018-06-23T09:57:18.000Z</time>
      </trkpt>
      <trkpt lat="47.85666" lon="6.75645">
        <ele>690</ele>
        <time>2018-06-23T09:57:19.000Z</time>
      </trkpt>
      <trkpt lat="47.85666" lon="6.75644">
        <ele>690</ele>
        <time>2018-06-23T09:57:20.000Z</time>
      </trkpt>
      <trkpt lat="47.85666" lon="6.75644">
        <ele>690</ele>
        <time>2018-06-23T09:57:21.000Z</time>
      </trkpt>
      <trkpt lat="47.85666" lon="6.75644">
        <ele>690</ele>
        <time>2018-06-23T09:57:22.000Z</time>
      </trkpt>
      <trkpt lat="47.85666" lon="6.75644">
        <ele>690</ele>
        <time>2018-06-23T09:57:23.000Z</time>
      </trkpt>
      <trkpt lat="47.85666" lon="6.75644">
        <ele>690</ele>
        <time>2018-06-23T09:57:24.000Z</time>
      </trkpt>
      <trkpt lat="47.85666" lon="6.75644">
        <ele>690</ele>
        <time>2018-06-23T09:57:25.000Z</time>
      </trkpt>
      <trkpt lat="47.85666" lon="6.75644">
        <ele>690</ele>
        <time>2018-06-23T09:57:26.000Z</time>
      </trkpt>
      <trkpt lat="47.85666" lon="6.75644">
        <ele>690</ele>
        <time>2018-06-23T09:57:27.000Z</time>
      </trkpt>
      <trkpt lat="47.85667" lon="6.75644">
        <ele>690</ele>
        <time>2018-06-23T09:57:28.000Z</time>
      </trkpt>
      <trkpt lat="47.85667" lon="6.75644">
        <ele>690</ele>
        <time>2018-06-23T09:57:29.000Z</time>
      </trkpt>
      <trkpt lat="47.85667" lon="6.75644">
        <ele>690</ele>
        <time>2018-06-23T09:57:30.000Z</time>
      </trkpt>
      <trkpt lat="47.85666" lon="6.75644">
        <ele>690</ele>
        <time>2018-06-23T09:57:31.000Z</time>
      </trkpt>
      <trkpt lat="47.85666" lon="6.75644">
        <ele>690</ele>
        <time>2018-06-23T09:57:32.000Z</time>
      </trkpt>
      <trkpt lat="47.85666" lon="6.75644">
        <ele>690</ele>
        <time>2018-06-23T09:57:33.000Z</time>
      </trkpt>
      <trkpt lat="47.85666" lon="6.75644">
        <ele>690</ele>
        <time>2018-06-23T09:57:34.000Z</time>
      </trkpt>
      <trkpt lat="47.85666" lon="6.75644">
        <ele>690</ele>
        <time>2018-06-23T09:57:35.000Z</time>
      </trkpt>
      <trkpt lat="47.85666" lon="6.75644">
        <ele>690</ele>
        <time>2018-06-23T09:57:36.000Z</time>
      </trkpt>
      <trkpt lat="47.85666" lon="6.75644">
        <ele>690</ele>
        <time>2018-06-23T09:57:37.000Z</time>
      </trkpt>
      <trkpt lat="47.85666" lon="6.75644">
        <ele>690</ele>
        <time>2018-06-23T09:57:38.000Z</time>
      </trkpt>
      <trkpt lat="47.85666" lon="6.75644">
        <ele>690</ele>
        <time>2018-06-23T09:57:39.000Z</time>
      </trkpt>
      <trkpt lat="47.85666" lon="6.75644">
        <ele>690</ele>
        <time>2018-06-23T09:57:40.000Z</time>
      </trkpt>
      <trkpt lat="47.85666" lon="6.75644">
        <ele>690</ele>
        <time>2018-06-23T09:57:41.000Z</time>
      </trkpt>
      <trkpt lat="47.85666" lon="6.75644">
        <ele>690</ele>
        <time>2018-06-23T09:57:42.000Z</time>
      </trkpt>
      <trkpt lat="47.85666" lon="6.75644">
        <ele>690</ele>
        <time>2018-06-23T09:57:43.000Z</time>
      </trkpt>
      <trkpt lat="47.85666" lon="6.75644">
        <ele>690</ele>
        <time>2018-06-23T09:57:44.000Z</time>
      </trkpt>
      <trkpt lat="47.85667" lon="6.75644">
        <ele>690</ele>
        <time>2018-06-23T09:57:45.000Z</time>
      </trkpt>
      <trkpt lat="47.85667" lon="6.75644">
        <ele>690</ele>
        <time>2018-06-23T09:57:46.000Z</time>
      </trkpt>
      <trkpt lat="47.85667" lon="6.75644">
        <ele>690</ele>
        <time>2018-06-23T09:57:47.000Z</time>
      </trkpt>
      <trkpt lat="47.85667" lon="6.75644">
        <ele>690</ele>
        <time>2018-06-23T09:57:48.000Z</time>
      </trkpt>
      <trkpt lat="47.85666" lon="6.75644">
        <ele>690</ele>
        <time>2018-06-23T09:57:49.000Z</time>
      </trkpt>
      <trkpt lat="47.85666" lon="6.75644">
        <ele>690</ele>
        <time>2018-06-23T09:57:50.000Z</time>
      </trkpt>
      <trkpt lat="47.85666" lon="6.75644">
        <ele>690</ele>
        <time>2018-06-23T09:57:51.000Z</time>
      </trkpt>
      <trkpt lat="47.85666" lon="6.75644">
        <ele>690</ele>
        <time>2018-06-23T09:57:52.000Z</time>
      </trkpt>
      <trkpt lat="47.85666" lon="6.75644">
        <ele>690</ele>
        <time>2018-06-23T09:57:53.000Z</time>
      </trkpt>
      <trkpt lat="47.85666" lon="6.75644">
        <ele>690</ele>
        <time>2018-06-23T09:57:54.000Z</time>
      </trkpt>
      <trkpt lat="47.85666" lon="6.75644">
        <ele>690</ele>
        <time>2018-06-23T09:57:55.000Z</time>
      </trkpt>
      <trkpt lat="47.85666" lon="6.75644">
        <ele>690</ele>
        <time>2018-06-23T09:57:56.000Z</time>
      </trkpt>
      <trkpt lat="47.85667" lon="6.75644">
        <ele>690</ele>
        <time>2018-06-23T09:57:57.000Z</time>
      </trkpt>
      <trkpt lat="47.85667" lon="6.75644">
        <ele>690</ele>
        <time>2018-06-23T09:57:58.000Z</time>
      </trkpt>
      <trkpt lat="47.85667" lon="6.75644">
        <ele>690</ele>
        <time>2018-06-23T09:57:59.000Z</time>
      </trkpt>
      <trkpt lat="47.85667" lon="6.75644">
        <ele>690</ele>
        <time>2018-06-23T09:58:00.000Z</time>
      </trkpt>
      <trkpt lat="47.85667" lon="6.75644">
        <ele>690</ele>
        <time>2018-06-23T09:58:01.000Z</time>
      </trkpt>
      <trkpt lat="47.85667" lon="6.75644">
        <ele>690</ele>
        <time>2018-06-23T09:58:02.000Z</time>
      </trkpt>
      <trkpt lat="47.85667" lon="6.75644">
        <ele>690</ele>
        <time>2018-06-23T09:58:03.000Z</time>
      </trkpt>
      <trkpt lat="47.85666" lon="6.75644">
        <ele>690</ele>
        <time>2018-06-23T09:58:04.000Z</time>
      </trkpt>
      <trkpt lat="47.85667" lon="6.75644">
        <ele>690</ele>
        <time>2018-06-23T09:58:05.000Z</time>
      </trkpt>
      <trkpt lat="47.85667" lon="6.75644">
        <ele>702</ele>
        <time>2018-06-23T09:58:06.000Z</time>
      </trkpt>
      <trkpt lat="47.85667" lon="6.75644">
        <ele>702</ele>
        <time>2018-06-23T09:58:07.000Z</time>
      </trkpt>
      <trkpt lat="47.85667" lon="6.75644">
        <ele>702</ele>
        <time>2018-06-23T09:58:08.000Z</time>
      </trkpt>
      <trkpt lat="47.85667" lon="6.75644">
        <ele>702</ele>
        <time>2018-06-23T09:58:09.000Z</time>
      </trkpt>
      <trkpt lat="47.85667" lon="6.75644">
        <ele>702</ele>
        <time>2018-06-23T09:58:10.000Z</time>
      </trkpt>
      <trkpt lat="47.85667" lon="6.75644">
        <ele>690</ele>
        <time>2018-06-23T09:58:11.000Z</time>
      </trkpt>
      <trkpt lat="47.85666" lon="6.75644">
        <ele>690</ele>
        <time>2018-06-23T09:58:12.000Z</time>
      </trkpt>
      <trkpt lat="47.85666" lon="6.75644">
        <ele>690</ele>
        <time>2018-06-23T09:58:13.000Z</time>
      </trkpt>
      <trkpt lat="47.85667" lon="6.75644">
        <ele>690</ele>
        <time>2018-06-23T09:58:14.000Z</time>
      </trkpt>
      <trkpt lat="47.85667" lon="6.75643">
        <ele>702</ele>
        <time>2018-06-23T09:58:15.000Z</time>
      </trkpt>
      <trkpt lat="47.85667" lon="6.75643">
        <ele>702</ele>
        <time>2018-06-23T09:58:16.000Z</time>
      </trkpt>
      <trkpt lat="47.85667" lon="6.75643">
        <ele>702</ele>
        <time>2018-06-23T09:58:17.000Z</time>
      </trkpt>
      <trkpt lat="47.85667" lon="6.75643">
        <ele>702</ele>
        <time>2018-06-23T09:58:18.000Z</time>
      </trkpt>
      <trkpt lat="47.85667" lon="6.75643">
        <ele>702</ele>
        <time>2018-06-23T09:58:19.000Z</time>
      </trkpt>
      <trkpt lat="47.85667" lon="6.75643">
        <ele>702</ele>
        <time>2018-06-23T09:58:20.000Z</time>
      </trkpt>
      <trkpt lat="47.85667" lon="6.75643">
        <ele>702</ele>
        <time>2018-06-23T09:58:21.000Z</time>
      </trkpt>
      <trkpt lat="47.85667" lon="6.75643">
        <ele>702</ele>
        <time>2018-06-23T09:58:22.000Z</time>
      </trkpt>
      <trkpt lat="47.85667" lon="6.75643">
        <ele>702</ele>
        <time>2018-06-23T09:58:23.000Z</time>
      </trkpt>
      <trkpt lat="47.85667" lon="6.75643">
        <ele>690</ele>
        <time>2018-06-23T09:58:24.000Z</time>
      </trkpt>
      <trkpt lat="47.85667" lon="6.75643">
        <ele>702</ele>
        <time>2018-06-23T09:58:25.000Z</time>
      </trkpt>
      <trkpt lat="47.85667" lon="6.75643">
        <ele>702</ele>
        <time>2018-06-23T09:58:26.000Z</time>
      </trkpt>
      <trkpt lat="47.85667" lon="6.75643">
        <ele>690</ele>
        <time>2018-06-23T09:58:27.000Z</time>
      </trkpt>
      <trkpt lat="47.85667" lon="6.75643">
        <ele>690</ele>
        <time>2018-06-23T09:58:28.000Z</time>
      </trkpt>
      <trkpt lat="47.85667" lon="6.75643">
        <ele>702</ele>
        <time>2018-06-23T09:58:29.000Z</time>
      </trkpt>
      <trkpt lat="47.85667" lon="6.75643">
        <ele>702</ele>
        <time>2018-06-23T09:58:30.000Z</time>
      </trkpt>
      <trkpt lat="47.85667" lon="6.75643">
        <ele>702</ele>
        <time>2018-06-23T09:58:31.000Z</time>
      </trkpt>
      <trkpt lat="47.85667" lon="6.75643">
        <ele>702</ele>
        <time>2018-06-23T09:58:32.000Z</time>
      </trkpt>
      <trkpt lat="47.85667" lon="6.75643">
        <ele>702</ele>
        <time>2018-06-23T09:58:33.000Z</time>
      </trkpt>
      <trkpt lat="47.85667" lon="6.75643">
        <ele>702</ele>
        <time>2018-06-23T09:58:34.000Z</time>
      </trkpt>
      <trkpt lat="47.85667" lon="6.75643">
        <ele>702</ele>
        <time>2018-06-23T09:58:35.000Z</time>
      </trkpt>
      <trkpt lat="47.85667" lon="6.75643">
        <ele>702</ele>
        <time>2018-06-23T09:58:36.000Z</time>
      </trkpt>
      <trkpt lat="47.85667" lon="6.75643">
        <ele>702</ele>
        <time>2018-06-23T09:58:37.000Z</time>
      </trkpt>
      <trkpt lat="47.85667" lon="6.75643">
        <ele>702</ele>
        <time>2018-06-23T09:58:38.000Z</time>
      </trkpt>
      <trkpt lat="47.85667" lon="6.75643">
        <ele>702</ele>
        <time>2018-06-23T09:58:39.000Z</time>
      </trkpt>
      <trkpt lat="47.85667" lon="6.75642">
        <ele>702</ele>
        <time>2018-06-23T09:58:40.000Z</time>
      </trkpt>
      <trkpt lat="47.85667" lon="6.75642">
        <ele>702</ele>
        <time>2018-06-23T09:58:41.000Z</time>
      </trkpt>
      <trkpt lat="47.85667" lon="6.75642">
        <ele>702</ele>
        <time>2018-06-23T09:58:42.000Z</time>
      </trkpt>
      <trkpt lat="47.85667" lon="6.75641">
        <ele>702</ele>
        <time>2018-06-23T09:58:43.000Z</time>
      </trkpt>
      <trkpt lat="47.85667" lon="6.75641">
        <ele>690</ele>
        <time>2018-06-23T09:58:44.000Z</time>
      </trkpt>
      <trkpt lat="47.85666" lon="6.75641">
        <ele>690</ele>
        <time>2018-06-23T09:58:45.000Z</time>
      </trkpt>
      <trkpt lat="47.85666" lon="6.7564">
        <ele>689</ele>
        <time>2018-06-23T09:58:46.000Z</time>
      </trkpt>
      <trkpt lat="47.85665" lon="6.7564">
        <ele>689</ele>
        <time>2018-06-23T09:58:47.000Z</time>
      </trkpt>
      <trkpt lat="47.85665" lon="6.75639">
        <ele>689</ele>
        <time>2018-06-23T09:58:48.000Z</time>
      </trkpt>
      <trkpt lat="47.85665" lon="6.75639">
        <ele>689</ele>
        <time>2018-06-23T09:58:49.000Z</time>
      </trkpt>
      <trkpt lat="47.85665" lon="6.75639">
        <ele>689</ele>
        <time>2018-06-23T09:58:50.000Z</time>
      </trkpt>
      <trkpt lat="47.85665" lon="6.75639">
        <ele>689</ele>
        <time>2018-06-23T09:58:51.000Z</time>
      </trkpt>
      <trkpt lat="47.85665" lon="6.75639">
        <ele>689</ele>
        <time>2018-06-23T09:58:52.000Z</time>
      </trkpt>
      <trkpt lat="47.85665" lon="6.75639">
        <ele>689</ele>
        <time>2018-06-23T09:58:53.000Z</time>
      </trkpt>
      <trkpt lat="47.85665" lon="6.75639">
        <ele>689</ele>
        <time>2018-06-23T09:58:54.000Z</time>
      </trkpt>
      <trkpt lat="47.85665" lon="6.75638">
        <ele>689</ele>
        <time>2018-06-23T09:58:55.000Z</time>
      </trkpt>
      <trkpt lat="47.85665" lon="6.75638">
        <ele>689</ele>
        <time>2018-06-23T09:58:56.000Z</time>
      </trkpt>
      <trkpt lat="47.85665" lon="6.75637">
        <ele>689</ele>
        <time>2018-06-23T09:58:57.000Z</time>
      </trkpt>
      <trkpt lat="47.85666" lon="6.75637">
        <ele>689</ele>
        <time>2018-06-23T09:58:58.000Z</time>
      </trkpt>
      <trkpt lat="47.85666" lon="6.75636">
        <ele>689</ele>
        <time>2018-06-23T09:58:59.000Z</time>
      </trkpt>
      <trkpt lat="47.85666" lon="6.75636">
        <ele>689</ele>
        <time>2018-06-23T09:59:00.000Z</time>
      </trkpt>
      <trkpt lat="47.85666" lon="6.75635">
        <ele>689</ele>
        <time>2018-06-23T09:59:01.000Z</time>
      </trkpt>
      <trkpt lat="47.85666" lon="6.75635">
        <ele>689</ele>
        <time>2018-06-23T09:59:02.000Z</time>
      </trkpt>
      <trkpt lat="47.85667" lon="6.75635">
        <ele>689</ele>
        <time>2018-06-23T09:59:03.000Z</time>
      </trkpt>
      <trkpt lat="47.85667" lon="6.75635">
        <ele>702</ele>
        <time>2018-06-23T09:59:04.000Z</time>
      </trkpt>
      <trkpt lat="47.85667" lon="6.75635">
        <ele>702</ele>
        <time>2018-06-23T09:59:05.000Z</time>
      </trkpt>
      <trkpt lat="47.85667" lon="6.75635">
        <ele>702</ele>
        <time>2018-06-23T09:59:06.000Z</time>
      </trkpt>
      <trkpt lat="47.85667" lon="6.75635">
        <ele>702</ele>
        <time>2018-06-23T09:59:07.000Z</time>
      </trkpt>
      <trkpt lat="47.85667" lon="6.75635">
        <ele>702</ele>
        <time>2018-06-23T09:59:08.000Z</time>
      </trkpt>
      <trkpt lat="47.85667" lon="6.75636">
        <ele>702</ele>
        <time>2018-06-23T09:59:09.000Z</time>
      </trkpt>
      <trkpt lat="47.85668" lon="6.75636">
        <ele>702</ele>
        <time>2018-06-23T09:59:10.000Z</time>
      </trkpt>
      <trkpt lat="47.85668" lon="6.75636">
        <ele>702</ele>
        <time>2018-06-23T09:59:11.000Z</time>
      </trkpt>
      <trkpt lat="47.85668" lon="6.75636">
        <ele>702</ele>
        <time>2018-06-23T09:59:12.000Z</time>
      </trkpt>
      <trkpt lat="47.85668" lon="6.75636">
        <ele>702</ele>
        <time>2018-06-23T09:59:13.000Z</time>
      </trkpt>
      <trkpt lat="47.85668" lon="6.75636">
        <ele>702</ele>
        <time>2018-06-23T09:59:14.000Z</time>
      </trkpt>
      <trkpt lat="47.85668" lon="6.75636">
        <ele>702</ele>
        <time>2018-06-23T09:59:15.000Z</time>
      </trkpt>
      <trkpt lat="47.85669" lon="6.75636">
        <ele>702</ele>
        <time>2018-06-23T09:59:16.000Z</time>
      </trkpt>
      <trkpt lat="47.85669" lon="6.75635">
        <ele>702</ele>
        <time>2018-06-23T09:59:17.000Z</time>
      </trkpt>
      <trkpt lat="47.85669" lon="6.75635">
        <ele>702</ele>
        <time>2018-06-23T09:59:18.000Z</time>
      </trkpt>
      <trkpt lat="47.85669" lon="6.75635">
        <ele>703</ele>
        <time>2018-06-23T09:59:19.000Z</time>
      </trkpt>
      <trkpt lat="47.85669" lon="6.75635">
        <ele>703</ele>
        <time>2018-06-23T09:59:20.000Z</time>
      </trkpt>
      <trkpt lat="47.85669" lon="6.75635">
        <ele>703</ele>
        <time>2018-06-23T09:59:21.000Z</time>
      </trkpt>
      <trkpt lat="47.85669" lon="6.75635">
        <ele>703</ele>
        <time>2018-06-23T09:59:22.000Z</time>
      </trkpt>
      <trkpt lat="47.85669" lon="6.75636">
        <ele>703</ele>
        <time>2018-06-23T09:59:23.000Z</time>
      </trkpt>
      <trkpt lat="47.85669" lon="6.75636">
        <ele>703</ele>
        <time>2018-06-23T09:59:24.000Z</time>
      </trkpt>
      <trkpt lat="47.85669" lon="6.75636">
        <ele>703</ele>
        <time>2018-06-23T09:59:25.000Z</time>
      </trkpt>
      <trkpt lat="47.85669" lon="6.75636">
        <ele>703</ele>
        <time>2018-06-23T09:59:26.000Z</time>
      </trkpt>
      <trkpt lat="47.85669" lon="6.75636">
        <ele>703</ele>
        <time>2018-06-23T09:59:27.000Z</time>
      </trkpt>
      <trkpt lat="47.8567" lon="6.75636">
        <ele>703</ele>
        <time>2018-06-23T09:59:28.000Z</time>
      </trkpt>
      <trkpt lat="47.8567" lon="6.75636">
        <ele>703</ele>
        <time>2018-06-23T09:59:29.000Z</time>
      </trkpt>
      <trkpt lat="47.8567" lon="6.75636">
        <ele>703</ele>
        <time>2018-06-23T09:59:30.000Z</time>
      </trkpt>
      <trkpt lat="47.8567" lon="6.75636">
        <ele>703</ele>
        <time>2018-06-23T09:59:31.000Z</time>
      </trkpt>
      <trkpt lat="47.8567" lon="6.75636">
        <ele>703</ele>
        <time>2018-06-23T09:59:32.000Z</time>
      </trkpt>
      <trkpt lat="47.8567" lon="6.75636">
        <ele>703</ele>
        <time>2018-06-23T09:59:33.000Z</time>
      </trkpt>
      <trkpt lat="47.8567" lon="6.75636">
        <ele>703</ele>
        <time>2018-06-23T09:59:34.000Z</time>
      </trkpt>
      <trkpt lat="47.8567" lon="6.75636">
        <ele>703</ele>
        <time>2018-06-23T09:59:35.000Z</time>
      </trkpt>
      <trkpt lat="47.8567" lon="6.75636">
        <ele>703</ele>
        <time>2018-06-23T09:59:36.000Z</time>
      </trkpt>
      <trkpt lat="47.85671" lon="6.75636">
        <ele>703</ele>
        <time>2018-06-23T09:59:37.000Z</time>
      </trkpt>
      <trkpt lat="47.85671" lon="6.75637">
        <ele>703</ele>
        <time>2018-06-23T09:59:38.000Z</time>
      </trkpt>
      <trkpt lat="47.85671" lon="6.75637">
        <ele>703</ele>
        <time>2018-06-23T09:59:39.000Z</time>
      </trkpt>
      <trkpt lat="47.85671" lon="6.75637">
        <ele>703</ele>
        <time>2018-06-23T09:59:40.000Z</time>
      </trkpt>
      <trkpt lat="47.85671" lon="6.75637">
        <ele>703</ele>
        <time>2018-06-23T09:59:41.000Z</time>
      </trkpt>
      <trkpt lat="47.85671" lon="6.75637">
        <ele>703</ele>
        <time>2018-06-23T09:59:42.000Z</time>
      </trkpt>
      <trkpt lat="47.85671" lon="6.75637">
        <ele>703</ele>
        <time>2018-06-23T09:59:43.000Z</time>
      </trkpt>
      <trkpt lat="47.85671" lon="6.75637">
        <ele>703</ele>
        <time>2018-06-23T09:59:44.000Z</time>
      </trkpt>
      <trkpt lat="47.85671" lon="6.75638">
        <ele>703</ele>
        <time>2018-06-23T09:59:45.000Z</time>
      </trkpt>
      <trkpt lat="47.85671" lon="6.75638">
        <ele>703</ele>
        <time>2018-06-23T09:59:46.000Z</time>
      </trkpt>
      <trkpt lat="47.85671" lon="6.75638">
        <ele>703</ele>
        <time>2018-06-23T09:59:47.000Z</time>
      </trkpt>
      <trkpt lat="47.85671" lon="6.75638">
        <ele>703</ele>
        <time>2018-06-23T09:59:48.000Z</time>
      </trkpt>
      <trkpt lat="47.85671" lon="6.75638">
        <ele>703</ele>
        <time>2018-06-23T09:59:49.000Z</time>
      </trkpt>
      <trkpt lat="47.85671" lon="6.75638">
        <ele>703</ele>
        <time>2018-06-23T09:59:50.000Z</time>
      </trkpt>
      <trkpt lat="47.85671" lon="6.75638">
        <ele>703</ele>
        <time>2018-06-23T09:59:51.000Z</time>
      </trkpt>
      <trkpt lat="47.85671" lon="6.75638">
        <ele>703</ele>
        <time>2018-06-23T09:59:52.000Z</time>
      </trkpt>
      <trkpt lat="47.85671" lon="6.75638">
        <ele>703</ele>
        <time>2018-06-23T09:59:53.000Z</time>
      </trkpt>
      <trkpt lat="47.85671" lon="6.75638">
        <ele>703</ele>
        <time>2018-06-23T09:59:54.000Z</time>
      </trkpt>
      <trkpt lat="47.85671" lon="6.75638">
        <ele>703</ele>
        <time>2018-06-23T09:59:55.000Z</time>
      </trkpt>
      <trkpt lat="47.85671" lon="6.75638">
        <ele>703</ele>
        <time>2018-06-23T09:59:56.000Z</time>
      </trkpt>
      <trkpt lat="47.85671" lon="6.75638">
        <ele>703</ele>
        <time>2018-06-23T09:59:57.000Z</time>
      </trkpt>
      <trkpt lat="47.85671" lon="6.75638">
        <ele>703</ele>
        <time>2018-06-23T09:59:58.000Z</time>
      </trkpt>
      <trkpt lat="47.85671" lon="6.75638">
        <ele>703</ele>
        <time>2018-06-23T09:59:59.000Z</time>
      </trkpt>
      <trkpt lat="47.85671" lon="6.75638">
        <ele>703</ele>
        <time>2018-06-23T10:00:00.000Z</time>
      </trkpt>
      <trkpt lat="47.85671" lon="6.75638">
        <ele>703</ele>
        <time>2018-06-23T10:00:01.000Z</time>
      </trkpt>
      <trkpt lat="47.85671" lon="6.75639">
        <ele>703</ele>
        <time>2018-06-23T10:00:02.000Z</time>
      </trkpt>
      <trkpt lat="47.85671" lon="6.75638">
        <ele>703</ele>
        <time>2018-06-23T10:00:03.000Z</time>
      </trkpt>
      <trkpt lat="47.85671" lon="6.75638">
        <ele>703</ele>
        <time>2018-06-23T10:00:04.000Z</time>
      </trkpt>
      <trkpt lat="47.85671" lon="6.75638">
        <ele>703</ele>
        <time>2018-06-23T10:00:05.000Z</time>
      </trkpt>
      <trkpt lat="47.85671" lon="6.75638">
        <ele>703</ele>
        <time>2018-06-23T10:00:06.000Z</time>
      </trkpt>
      <trkpt lat="47.85671" lon="6.75638">
        <ele>703</ele>
        <time>2018-06-23T10:00:07.000Z</time>
      </trkpt>
      <trkpt lat="47.85671" lon="6.75638">
        <ele>703</ele>
        <time>2018-06-23T10:00:08.000Z</time>
      </trkpt>
      <trkpt lat="47.85671" lon="6.75638">
        <ele>703</ele>
        <time>2018-06-23T10:00:09.000Z</time>
      </trkpt>
      <trkpt lat="47.85671" lon="6.75638">
        <ele>703</ele>
        <time>2018-06-23T10:00:10.000Z</time>
      </trkpt>
      <trkpt lat="47.85671" lon="6.75638">
        <ele>703</ele>
        <time>2018-06-23T10:00:11.000Z</time>
      </trkpt>
      <trkpt lat="47.85671" lon="6.75638">
        <ele>703</ele>
        <time>2018-06-23T10:00:12.000Z</time>
      </trkpt>
      <trkpt lat="47.85671" lon="6.75638">
        <ele>703</ele>
        <time>2018-06-23T10:00:13.000Z</time>
      </trkpt>
      <trkpt lat="47.85671" lon="6.75638">
        <ele>703</ele>
        <time>2018-06-23T10:00:14.000Z</time>
      </trkpt>
      <trkpt lat="47.85671" lon="6.75638">
        <ele>703</ele>
        <time>2018-06-23T10:00:15.000Z</time>
      </trkpt>
      <trkpt lat="47.85671" lon="6.75638">
        <ele>703</ele>
        <time>2018-06-23T10:00:16.000Z</time>
      </trkpt>
      <trkpt lat="47.85671" lon="6.75638">
        <ele>703</ele>
        <time>2018-06-23T10:00:17.000Z</time>
      </trkpt>
      <trkpt lat="47.85671" lon="6.75638">
        <ele>703</ele>
        <time>2018-06-23T10:00:18.000Z</time>
      </trkpt>
      <trkpt lat="47.85671" lon="6.75638">
        <ele>703</ele>
        <time>2018-06-23T10:00:19.000Z</time>
      </trkpt>
      <trkpt lat="47.85671" lon="6.75638">
        <ele>703</ele>
        <time>2018-06-23T10:00:20.000Z</time>
      </trkpt>
      <trkpt lat="47.85671" lon="6.75638">
        <ele>703</ele>
        <time>2018-06-23T10:00:21.000Z</time>
      </trkpt>
      <trkpt lat="47.85671" lon="6.75638">
        <ele>703</ele>
        <time>2018-06-23T10:00:22.000Z</time>
      </trkpt>
      <trkpt lat="47.85671" lon="6.75638">
        <ele>703</ele>
        <time>2018-06-23T10:00:23.000Z</time>
      </trkpt>
      <trkpt lat="47.85671" lon="6.75638">
        <ele>703</ele>
        <time>2018-06-23T10:00:24.000Z</time>
      </trkpt>
      <trkpt lat="47.85671" lon="6.75638">
        <ele>702</ele>
        <time>2018-06-23T10:00:25.000Z</time>
      </trkpt>
      <trkpt lat="47.85671" lon="6.75638">
        <ele>702</ele>
        <time>2018-06-23T10:00:26.000Z</time>
      </trkpt>
      <trkpt lat="47.85671" lon="6.75638">
        <ele>702</ele>
        <time>2018-06-23T10:00:27.000Z</time>
      </trkpt>
      <trkpt lat="47.85671" lon="6.75638">
        <ele>702</ele>
        <time>2018-06-23T10:00:28.000Z</time>
      </trkpt>
      <trkpt lat="47.85671" lon="6.75638">
        <ele>702</ele>
        <time>2018-06-23T10:00:29.000Z</time>
      </trkpt>
      <trkpt lat="47.8567" lon="6.75638">
        <ele>702</ele>
        <time>2018-06-23T10:00:30.000Z</time>
      </trkpt>
      <trkpt lat="47.8567" lon="6.75638">
        <ele>702</ele>
        <time>2018-06-23T10:00:31.000Z</time>
      </trkpt>
      <trkpt lat="47.8567" lon="6.75638">
        <ele>702</ele>
        <time>2018-06-23T10:00:32.000Z</time>
      </trkpt>
      <trkpt lat="47.8567" lon="6.75638">
        <ele>702</ele>
        <time>2018-06-23T10:00:33.000Z</time>
      </trkpt>
      <trkpt lat="47.8567" lon="6.75638">
        <ele>702</ele>
        <time>2018-06-23T10:00:34.000Z</time>
      </trkpt>
      <trkpt lat="47.8567" lon="6.75638">
        <ele>702</ele>
        <time>2018-06-23T10:00:35.000Z</time>
      </trkpt>
      <trkpt lat="47.8567" lon="6.75639">
        <ele>702</ele>
        <time>2018-06-23T10:00:36.000Z</time>
      </trkpt>
      <trkpt lat="47.8567" lon="6.75639">
        <ele>702</ele>
        <time>2018-06-23T10:00:37.000Z</time>
      </trkpt>
      <trkpt lat="47.8567" lon="6.75639">
        <ele>702</ele>
        <time>2018-06-23T10:00:38.000Z</time>
      </trkpt>
      <trkpt lat="47.8567" lon="6.75639">
        <ele>702</ele>
        <time>2018-06-23T10:00:39.000Z</time>
      </trkpt>
      <trkpt lat="47.8567" lon="6.75639">
        <ele>702</ele>
        <time>2018-06-23T10:00:40.000Z</time>
      </trkpt>
      <trkpt lat="47.8567" lon="6.75639">
        <ele>702</ele>
        <time>2018-06-23T10:00:41.000Z</time>
      </trkpt>
      <trkpt lat="47.8567" lon="6.75639">
        <ele>702</ele>
        <time>2018-06-23T10:00:42.000Z</time>
      </trkpt>
      <trkpt lat="47.8567" lon="6.75639">
        <ele>702</ele>
        <time>2018-06-23T10:00:43.000Z</time>
      </trkpt>
      <trkpt lat="47.8567" lon="6.75639">
        <ele>702</ele>
        <time>2018-06-23T10:00:44.000Z</time>
      </trkpt>
      <trkpt lat="47.8567" lon="6.75639">
        <ele>702</ele>
        <time>2018-06-23T10:00:45.000Z</time>
      </trkpt>
      <trkpt lat="47.8567" lon="6.75639">
        <ele>702</ele>
        <time>2018-06-23T10:00:46.000Z</time>
      </trkpt>
      <trkpt lat="47.8567" lon="6.75639">
        <ele>702</ele>
        <time>2018-06-23T10:00:47.000Z</time>
      </trkpt>
      <trkpt lat="47.8567" lon="6.75639">
        <ele>702</ele>
        <time>2018-06-23T10:00:48.000Z</time>
      </trkpt>
      <trkpt lat="47.8567" lon="6.75639">
        <ele>702</ele>
        <time>2018-06-23T10:00:49.000Z</time>
      </trkpt>
      <trkpt lat="47.8567" lon="6.75639">
        <ele>702</ele>
        <time>2018-06-23T10:00:50.000Z</time>
      </trkpt>
      <trkpt lat="47.8567" lon="6.75639">
        <ele>702</ele>
        <time>2018-06-23T10:00:51.000Z</time>
      </trkpt>
      <trkpt lat="47.8567" lon="6.75639">
        <ele>702</ele>
        <time>2018-06-23T10:00:52.000Z</time>
      </trkpt>
      <trkpt lat="47.8567" lon="6.75639">
        <ele>702</ele>
        <time>2018-06-23T10:00:53.000Z</time>
      </trkpt>
      <trkpt lat="47.8567" lon="6.75639">
        <ele>702</ele>
        <time>2018-06-23T10:00:54.000Z</time>
      </trkpt>
      <trkpt lat="47.8567" lon="6.75639">
        <ele>702</ele>
        <time>2018-06-23T10:00:55.000Z</time>
      </trkpt>
      <trkpt lat="47.8567" lon="6.75639">
        <ele>702</ele>
        <time>2018-06-23T10:00:56.000Z</time>
      </trkpt>
      <trkpt lat="47.8567" lon="6.75639">
        <ele>702</ele>
        <time>2018-06-23T10:00:57.000Z</time>
      </trkpt>
      <trkpt lat="47.8567" lon="6.75639">
        <ele>702</ele>
        <time>2018-06-23T10:00:58.000Z</time>
      </trkpt>
      <trkpt lat="47.8567" lon="6.75639">
        <ele>702</ele>
        <time>2018-06-23T10:00:59.000Z</time>
      </trkpt>
      <trkpt lat="47.8567" lon="6.75639">
        <ele>702</ele>
        <time>2018-06-23T10:01:00.000Z</time>
      </trkpt>
      <trkpt lat="47.8567" lon="6.75639">
        <ele>702</ele>
        <time>2018-06-23T10:01:01.000Z</time>
      </trkpt>
      <trkpt lat="47.8567" lon="6.75639">
        <ele>702</ele>
        <time>2018-06-23T10:01:02.000Z</time>
      </trkpt>
      <trkpt lat="47.8567" lon="6.75639">
        <ele>702</ele>
        <time>2018-06-23T10:01:03.000Z</time>
      </trkpt>
      <trkpt lat="47.8567" lon="6.75639">
        <ele>702</ele>
        <time>2018-06-23T10:01:04.000Z</time>
      </trkpt>
      <trkpt lat="47.8567" lon="6.75639">
        <ele>702</ele>
        <time>2018-06-23T10:01:05.000Z</time>
      </trkpt>
      <trkpt lat="47.8567" lon="6.75639">
        <ele>702</ele>
        <time>2018-06-23T10:01:06.000Z</time>
      </trkpt>
      <trkpt lat="47.8567" lon="6.75639">
        <ele>702</ele>
        <time>2018-06-23T10:01:07.000Z</time>
      </trkpt>
      <trkpt lat="47.8567" lon="6.75639">
        <ele>702</ele>
        <time>2018-06-23T10:01:08.000Z</time>
      </trkpt>
      <trkpt lat="47.8567" lon="6.75639">
        <ele>702</ele>
        <time>2018-06-23T10:01:09.000Z</time>
      </trkpt>
      <trkpt lat="47.8567" lon="6.75639">
        <ele>702</ele>
        <time>2018-06-23T10:01:10.000Z</time>
      </trkpt>
      <trkpt lat="47.8567" lon="6.75639">
        <ele>702</ele>
        <time>2018-06-23T10:01:11.000Z</time>
      </trkpt>
      <trkpt lat="47.8567" lon="6.75639">
        <ele>702</ele>
        <time>2018-06-23T10:01:12.000Z</time>
      </trkpt>
      <trkpt lat="47.8567" lon="6.75639">
        <ele>702</ele>
        <time>2018-06-23T10:01:13.000Z</time>
      </trkpt>
      <trkpt lat="47.8567" lon="6.75639">
        <ele>702</ele>
        <time>2018-06-23T10:01:14.000Z</time>
      </trkpt>
      <trkpt lat="47.8567" lon="6.75639">
        <ele>702</ele>
        <time>2018-06-23T10:01:15.000Z</time>
      </trkpt>
      <trkpt lat="47.8567" lon="6.75639">
        <ele>702</ele>
        <time>2018-06-23T10:01:16.000Z</time>
      </trkpt>
      <trkpt lat="47.8567" lon="6.75639">
        <ele>702</ele>
        <time>2018-06-23T10:01:17.000Z</time>
      </trkpt>
      <trkpt lat="47.8567" lon="6.75639">
        <ele>702</ele>
        <time>2018-06-23T10:01:18.000Z</time>
      </trkpt>
    </trkseg>
  </trk>
</gpx>